<?xml version='1.0' encoding='UTF-8'?><gpx version="1.1" creator="JPX - https://github.com/jenetics/jpx" xmlns="http://www.topografix.com/GPX/1/1"><trk><trkseg><trkpt lat="43.4872117" lon="11.3745683"><ele>526.0</ele><time>2026-03-28T09:29:17.626Z</time></trkpt><trkpt lat="43.4872017" lon="11.3748017"><ele>527.0</ele><time>2026-03-28T09:29:21.043Z</time></trkpt><trkpt lat="43.4871933" lon="11.3748933"><ele>528.0</ele><time>2026-03-28T09:29:36.043Z</time></trkpt><trkpt lat="43.4871267" lon="11.3746883"><ele>529.0</ele><time>2026-03-28T09:29:37.043Z</time></trkpt><trkpt lat="43.4870817" lon="11.3745433"><ele>530.8</ele><time>2026-03-28T09:29:38.043Z</time></trkpt><trkpt lat="43.4870567" lon="11.3744183"><ele>532.5999999999999</ele><time>2026-03-28T09:29:41.043Z</time></trkpt><trkpt lat="43.4869917" lon="11.3744883"><ele>534.4</ele><time>2026-03-28T09:29:58.043Z</time></trkpt><trkpt lat="43.4869183" lon="11.3745267"><ele>536.1999999999999</ele><time>2026-03-28T09:30:11.043Z</time></trkpt><trkpt lat="43.4869333" lon="11.3743233"><ele>538.0</ele><time>2026-03-28T09:30:31.044Z</time></trkpt><trkpt lat="43.486925" lon="11.374195"><ele>538.0</ele><time>2026-03-28T09:30:53.044Z</time></trkpt><trkpt lat="43.4869067" lon="11.3740933"><ele>538.0</ele><time>2026-03-28T09:30:54.043Z</time></trkpt><trkpt lat="43.4868483" lon="11.373975"><ele>538.0</ele><time>2026-03-28T09:30:55.044Z</time></trkpt><trkpt lat="43.4867933" lon="11.3737967"><ele>538.0</ele><time>2026-03-28T09:30:56.044Z</time></trkpt><trkpt lat="43.4867417" lon="11.373595"><ele>535.3333333333334</ele><time>2026-03-28T09:30:57.043Z</time></trkpt><trkpt lat="43.4866883" lon="11.3732967"><ele>532.6666666666666</ele><time>2026-03-28T09:30:58.044Z</time></trkpt><trkpt lat="43.486645" lon="11.3730917"><ele>530.0</ele><time>2026-03-28T09:30:59.044Z</time></trkpt><trkpt lat="43.4866233" lon="11.37293"><ele>525.0</ele><time>2026-03-28T09:31:00.044Z</time></trkpt><trkpt lat="43.4865783" lon="11.37271"><ele>520.0</ele><time>2026-03-28T09:31:01.044Z</time></trkpt><trkpt lat="43.486535" lon="11.3725067"><ele>515.0</ele><time>2026-03-28T09:31:02.044Z</time></trkpt><trkpt lat="43.4865017" lon="11.3723133"><ele>512.25</ele><time>2026-03-28T09:31:03.044Z</time></trkpt><trkpt lat="43.4864733" lon="11.372135"><ele>509.5</ele><time>2026-03-28T09:31:04.044Z</time></trkpt><trkpt lat="43.48643" lon="11.3719117"><ele>506.75</ele><time>2026-03-28T09:31:05.043Z</time></trkpt><trkpt lat="43.48639" lon="11.3717383"><ele>504.0</ele><time>2026-03-28T09:31:06.044Z</time></trkpt><trkpt lat="43.48636" lon="11.3715867"><ele>504.0</ele><time>2026-03-28T09:31:07.044Z</time></trkpt><trkpt lat="43.486335" lon="11.3714633"><ele>504.0</ele><time>2026-03-28T09:31:08.044Z</time></trkpt><trkpt lat="43.4862833" lon="11.37132"><ele>504.0</ele><time>2026-03-28T09:31:09.044Z</time></trkpt><trkpt lat="43.48625" lon="11.3711967"><ele>504.0</ele><time>2026-03-28T09:31:10.044Z</time></trkpt><trkpt lat="43.4862067" lon="11.37107"><ele>504.0</ele><time>2026-03-28T09:31:11.044Z</time></trkpt><trkpt lat="43.4861633" lon="11.3709467"><ele>505.6</ele><time>2026-03-28T09:31:12.044Z</time></trkpt><trkpt lat="43.4861117" lon="11.370795"><ele>507.2</ele><time>2026-03-28T09:31:13.043Z</time></trkpt><trkpt lat="43.486065" lon="11.3706517"><ele>508.80000000000007</ele><time>2026-03-28T09:31:14.044Z</time></trkpt><trkpt lat="43.4860217" lon="11.3705367"><ele>510.40000000000003</ele><time>2026-03-28T09:31:15.044Z</time></trkpt><trkpt lat="43.4859733" lon="11.3704267"><ele>512.0</ele><time>2026-03-28T09:31:16.044Z</time></trkpt><trkpt lat="43.4859233" lon="11.3703333"><ele>512.0</ele><time>2026-03-28T09:31:17.044Z</time></trkpt><trkpt lat="43.4858683" lon="11.3702417"><ele>512.0</ele><time>2026-03-28T09:31:18.044Z</time></trkpt><trkpt lat="43.4858117" lon="11.3701633"><ele>512.0</ele><time>2026-03-28T09:31:19.044Z</time></trkpt><trkpt lat="43.4857033" lon="11.3700817"><ele>512.0</ele><time>2026-03-28T09:31:21.044Z</time></trkpt><trkpt lat="43.48562" lon="11.37005"><ele>512.0</ele><time>2026-03-28T09:31:22.043Z</time></trkpt><trkpt lat="43.485545" lon="11.3700217"><ele>511.99999999999994</ele><time>2026-03-28T09:31:23.044Z</time></trkpt><trkpt lat="43.485475" lon="11.3700017"><ele>512.0</ele><time>2026-03-28T09:31:24.044Z</time></trkpt><trkpt lat="43.4854033" lon="11.3699783"><ele>512.0</ele><time>2026-03-28T09:31:25.044Z</time></trkpt><trkpt lat="43.4853283" lon="11.36994"><ele>512.0</ele><time>2026-03-28T09:31:26.044Z</time></trkpt><trkpt lat="43.48525" lon="11.369885"><ele>511.99999999999994</ele><time>2026-03-28T09:31:27.044Z</time></trkpt><trkpt lat="43.48517" lon="11.36983"><ele>512.0</ele><time>2026-03-28T09:31:28.043Z</time></trkpt><trkpt lat="43.4850933" lon="11.36976"><ele>511.0</ele><time>2026-03-28T09:31:29.043Z</time></trkpt><trkpt lat="43.4850217" lon="11.36968"><ele>510.00000000000006</ele><time>2026-03-28T09:31:30.044Z</time></trkpt><trkpt lat="43.484965" lon="11.3695883"><ele>509.00000000000006</ele><time>2026-03-28T09:31:31.044Z</time></trkpt><trkpt lat="43.4849133" lon="11.3694717"><ele>508.0</ele><time>2026-03-28T09:31:32.044Z</time></trkpt><trkpt lat="43.4848683" lon="11.369365"><ele>507.0</ele><time>2026-03-28T09:31:33.044Z</time></trkpt><trkpt lat="43.48482" lon="11.36922"><ele>507.0</ele><time>2026-03-28T09:31:34.044Z</time></trkpt><trkpt lat="43.4847833" lon="11.3690733"><ele>507.0</ele><time>2026-03-28T09:31:35.043Z</time></trkpt><trkpt lat="43.4847333" lon="11.3688767"><ele>507.0</ele><time>2026-03-28T09:31:36.044Z</time></trkpt><trkpt lat="43.4846967" lon="11.3686933"><ele>507.0</ele><time>2026-03-28T09:31:37.043Z</time></trkpt><trkpt lat="43.4846733" lon="11.3684767"><ele>505.33333333333337</ele><time>2026-03-28T09:31:38.044Z</time></trkpt><trkpt lat="43.4846467" lon="11.3682417"><ele>503.6666666666667</ele><time>2026-03-28T09:31:39.044Z</time></trkpt><trkpt lat="43.4846267" lon="11.3680217"><ele>502.0</ele><time>2026-03-28T09:31:40.044Z</time></trkpt><trkpt lat="43.4846167" lon="11.367805"><ele>500.25</ele><time>2026-03-28T09:31:41.044Z</time></trkpt><trkpt lat="43.4845933" lon="11.3676033"><ele>498.5</ele><time>2026-03-28T09:31:42.044Z</time></trkpt><trkpt lat="43.48455" lon="11.3674067"><ele>496.75</ele><time>2026-03-28T09:31:43.044Z</time></trkpt><trkpt lat="43.4845017" lon="11.3672317"><ele>495.0</ele><time>2026-03-28T09:31:44.044Z</time></trkpt><trkpt lat="43.48445" lon="11.36707"><ele>495.0</ele><time>2026-03-28T09:31:45.043Z</time></trkpt><trkpt lat="43.4844033" lon="11.3669033"><ele>495.0</ele><time>2026-03-28T09:31:46.044Z</time></trkpt><trkpt lat="43.4843733" lon="11.3667217"><ele>495.0</ele><time>2026-03-28T09:31:47.044Z</time></trkpt><trkpt lat="43.48436" lon="11.36653"><ele>495.0</ele><time>2026-03-28T09:31:48.044Z</time></trkpt><trkpt lat="43.4843717" lon="11.3663517"><ele>496.5</ele><time>2026-03-28T09:31:49.044Z</time></trkpt><trkpt lat="43.4843967" lon="11.3661817"><ele>498.0</ele><time>2026-03-28T09:31:50.044Z</time></trkpt><trkpt lat="43.4844167" lon="11.3659967"><ele>499.5</ele><time>2026-03-28T09:31:51.043Z</time></trkpt><trkpt lat="43.484405" lon="11.365835"><ele>501.0</ele><time>2026-03-28T09:31:52.044Z</time></trkpt><trkpt lat="43.48436" lon="11.3656883"><ele>501.0</ele><time>2026-03-28T09:31:53.043Z</time></trkpt><trkpt lat="43.4842933" lon="11.365565"><ele>501.0</ele><time>2026-03-28T09:31:54.044Z</time></trkpt><trkpt lat="43.4842117" lon="11.36547"><ele>501.0</ele><time>2026-03-28T09:31:55.043Z</time></trkpt><trkpt lat="43.4841317" lon="11.3654133"><ele>501.0</ele><time>2026-03-28T09:31:56.044Z</time></trkpt><trkpt lat="43.4840517" lon="11.365385"><ele>501.0</ele><time>2026-03-28T09:31:57.044Z</time></trkpt><trkpt lat="43.4839817" lon="11.365385"><ele>501.0</ele><time>2026-03-28T09:31:58.044Z</time></trkpt><trkpt lat="43.4839133" lon="11.36542"><ele>501.0</ele><time>2026-03-28T09:31:59.044Z</time></trkpt><trkpt lat="43.4838567" lon="11.3654783"><ele>501.0</ele><time>2026-03-28T09:32:00.044Z</time></trkpt><trkpt lat="43.48379" lon="11.3656"><ele>501.0</ele><time>2026-03-28T09:32:01.044Z</time></trkpt><trkpt lat="43.4837117" lon="11.365735"><ele>501.0</ele><time>2026-03-28T09:32:02.043Z</time></trkpt><trkpt lat="43.4836167" lon="11.36591"><ele>503.0</ele><time>2026-03-28T09:32:03.044Z</time></trkpt><trkpt lat="43.4835083" lon="11.3660867"><ele>505.0</ele><time>2026-03-28T09:32:04.044Z</time></trkpt><trkpt lat="43.4834033" lon="11.3662533"><ele>507.0</ele><time>2026-03-28T09:32:05.043Z</time></trkpt><trkpt lat="43.483285" lon="11.3663967"><ele>503.5</ele><time>2026-03-28T09:32:06.044Z</time></trkpt><trkpt lat="43.4831617" lon="11.36649"><ele>500.0</ele><time>2026-03-28T09:32:07.044Z</time></trkpt><trkpt lat="43.4830217" lon="11.3665267"><ele>496.5</ele><time>2026-03-28T09:32:08.043Z</time></trkpt><trkpt lat="43.4828733" lon="11.36652"><ele>493.0</ele><time>2026-03-28T09:32:09.043Z</time></trkpt><trkpt lat="43.48273" lon="11.36648"><ele>492.75</ele><time>2026-03-28T09:32:10.044Z</time></trkpt><trkpt lat="43.4825817" lon="11.366445"><ele>492.5</ele><time>2026-03-28T09:32:11.043Z</time></trkpt><trkpt lat="43.4824417" lon="11.36642"><ele>492.25</ele><time>2026-03-28T09:32:12.044Z</time></trkpt><trkpt lat="43.4823117" lon="11.36644"><ele>492.0</ele><time>2026-03-28T09:32:13.044Z</time></trkpt><trkpt lat="43.48219" lon="11.3665083"><ele>493.0</ele><time>2026-03-28T09:32:14.044Z</time></trkpt><trkpt lat="43.4820867" lon="11.3666217"><ele>494.0</ele><time>2026-03-28T09:32:15.044Z</time></trkpt><trkpt lat="43.4819867" lon="11.3667717"><ele>495.0</ele><time>2026-03-28T09:32:16.044Z</time></trkpt><trkpt lat="43.481895" lon="11.3669183"><ele>496.0</ele><time>2026-03-28T09:32:17.044Z</time></trkpt><trkpt lat="43.481785" lon="11.3670267"><ele>496.0</ele><time>2026-03-28T09:32:18.044Z</time></trkpt><trkpt lat="43.4816617" lon="11.3671"><ele>496.0</ele><time>2026-03-28T09:32:19.044Z</time></trkpt><trkpt lat="43.4815217" lon="11.3671383"><ele>496.0</ele><time>2026-03-28T09:32:20.044Z</time></trkpt><trkpt lat="43.481385" lon="11.3671433"><ele>496.0</ele><time>2026-03-28T09:32:21.043Z</time></trkpt><trkpt lat="43.481235" lon="11.3671467"><ele>494.5</ele><time>2026-03-28T09:32:22.044Z</time></trkpt><trkpt lat="43.481105" lon="11.367205"><ele>493.0</ele><time>2026-03-28T09:32:23.043Z</time></trkpt><trkpt lat="43.4809967" lon="11.3673333"><ele>491.5</ele><time>2026-03-28T09:32:24.044Z</time></trkpt><trkpt lat="43.4809117" lon="11.3675"><ele>490.0</ele><time>2026-03-28T09:32:25.043Z</time></trkpt><trkpt lat="43.4808217" lon="11.3676367"><ele>490.0</ele><time>2026-03-28T09:32:26.044Z</time></trkpt><trkpt lat="43.4807183" lon="11.3677283"><ele>490.0</ele><time>2026-03-28T09:32:27.044Z</time></trkpt><trkpt lat="43.480605" lon="11.3677583"><ele>490.0</ele><time>2026-03-28T09:32:28.044Z</time></trkpt><trkpt lat="43.4805033" lon="11.3677367"><ele>490.0</ele><time>2026-03-28T09:32:29.044Z</time></trkpt><trkpt lat="43.480405" lon="11.3676833"><ele>490.0</ele><time>2026-03-28T09:32:30.044Z</time></trkpt><trkpt lat="43.4802983" lon="11.3676533"><ele>491.5</ele><time>2026-03-28T09:32:31.044Z</time></trkpt><trkpt lat="43.480185" lon="11.3676833"><ele>493.0</ele><time>2026-03-28T09:32:32.044Z</time></trkpt><trkpt lat="43.4800833" lon="11.3677633"><ele>494.5</ele><time>2026-03-28T09:32:33.044Z</time></trkpt><trkpt lat="43.4799833" lon="11.3679117"><ele>496.0</ele><time>2026-03-28T09:32:34.044Z</time></trkpt><trkpt lat="43.479895" lon="11.3680933"><ele>495.6666666666667</ele><time>2026-03-28T09:32:35.044Z</time></trkpt><trkpt lat="43.4797917" lon="11.3682683"><ele>495.33333333333337</ele><time>2026-03-28T09:32:36.044Z</time></trkpt><trkpt lat="43.479665" lon="11.3684383"><ele>495.0</ele><time>2026-03-28T09:32:37.044Z</time></trkpt><trkpt lat="43.4795433" lon="11.368615"><ele>495.0</ele><time>2026-03-28T09:32:38.044Z</time></trkpt><trkpt lat="43.4794183" lon="11.368795"><ele>495.0</ele><time>2026-03-28T09:32:39.044Z</time></trkpt><trkpt lat="43.4792783" lon="11.3689833"><ele>495.0</ele><time>2026-03-28T09:32:40.043Z</time></trkpt><trkpt lat="43.4791633" lon="11.3691633"><ele>490.33333333333337</ele><time>2026-03-28T09:32:41.044Z</time></trkpt><trkpt lat="43.47905" lon="11.36934"><ele>485.6666666666667</ele><time>2026-03-28T09:32:42.044Z</time></trkpt><trkpt lat="43.4789367" lon="11.369515"><ele>481.0</ele><time>2026-03-28T09:32:43.044Z</time></trkpt><trkpt lat="43.47881" lon="11.3696717"><ele>478.5</ele><time>2026-03-28T09:32:44.043Z</time></trkpt><trkpt lat="43.4786883" lon="11.3698"><ele>476.0</ele><time>2026-03-28T09:32:45.043Z</time></trkpt><trkpt lat="43.47857" lon="11.3698783"><ele>473.5</ele><time>2026-03-28T09:32:46.044Z</time></trkpt><trkpt lat="43.4784267" lon="11.3698933"><ele>471.0</ele><time>2026-03-28T09:32:47.044Z</time></trkpt><trkpt lat="43.4782833" lon="11.3698717"><ele>471.0</ele><time>2026-03-28T09:32:48.044Z</time></trkpt><trkpt lat="43.4781633" lon="11.369865"><ele>471.0</ele><time>2026-03-28T09:32:49.044Z</time></trkpt><trkpt lat="43.4780567" lon="11.3698867"><ele>471.0</ele><time>2026-03-28T09:32:50.043Z</time></trkpt><trkpt lat="43.4779817" lon="11.3699633"><ele>471.0</ele><time>2026-03-28T09:32:51.044Z</time></trkpt><trkpt lat="43.477945" lon="11.370095"><ele>471.0</ele><time>2026-03-28T09:32:52.043Z</time></trkpt><trkpt lat="43.4779517" lon="11.3702583"><ele>471.0</ele><time>2026-03-28T09:32:53.044Z</time></trkpt><trkpt lat="43.4779933" lon="11.3704367"><ele>471.0</ele><time>2026-03-28T09:32:54.044Z</time></trkpt><trkpt lat="43.4780667" lon="11.3706367"><ele>471.0</ele><time>2026-03-28T09:32:55.044Z</time></trkpt><trkpt lat="43.47814" lon="11.3708333"><ele>469.0</ele><time>2026-03-28T09:32:56.044Z</time></trkpt><trkpt lat="43.4782083" lon="11.3710383"><ele>467.0</ele><time>2026-03-28T09:32:57.043Z</time></trkpt><trkpt lat="43.4782583" lon="11.3712317"><ele>465.0</ele><time>2026-03-28T09:32:58.044Z</time></trkpt><trkpt lat="43.4782767" lon="11.3714133"><ele>463.0</ele><time>2026-03-28T09:32:59.044Z</time></trkpt><trkpt lat="43.4782733" lon="11.3715867"><ele>461.5</ele><time>2026-03-28T09:33:00.044Z</time></trkpt><trkpt lat="43.4782183" lon="11.3717433"><ele>460.0</ele><time>2026-03-28T09:33:01.044Z</time></trkpt><trkpt lat="43.478125" lon="11.3718767"><ele>458.5</ele><time>2026-03-28T09:33:02.044Z</time></trkpt><trkpt lat="43.4780017" lon="11.3719733"><ele>457.0</ele><time>2026-03-28T09:33:03.044Z</time></trkpt><trkpt lat="43.477845" lon="11.3720217"><ele>457.0</ele><time>2026-03-28T09:33:04.043Z</time></trkpt><trkpt lat="43.4776717" lon="11.37202"><ele>457.0</ele><time>2026-03-28T09:33:05.044Z</time></trkpt><trkpt lat="43.4775117" lon="11.371985"><ele>457.0</ele><time>2026-03-28T09:33:06.044Z</time></trkpt><trkpt lat="43.4773567" lon="11.3719233"><ele>457.0</ele><time>2026-03-28T09:33:07.044Z</time></trkpt><trkpt lat="43.4771933" lon="11.371845"><ele>457.0</ele><time>2026-03-28T09:33:08.044Z</time></trkpt><trkpt lat="43.47704" lon="11.37181"><ele>457.0</ele><time>2026-03-28T09:33:09.044Z</time></trkpt><trkpt lat="43.476895" lon="11.37183"><ele>456.5</ele><time>2026-03-28T09:33:10.044Z</time></trkpt><trkpt lat="43.476775" lon="11.3719233"><ele>456.0</ele><time>2026-03-28T09:33:11.044Z</time></trkpt><trkpt lat="43.4766917" lon="11.372075"><ele>455.5</ele><time>2026-03-28T09:33:12.044Z</time></trkpt><trkpt lat="43.4766667" lon="11.3722517"><ele>455.0</ele><time>2026-03-28T09:33:13.044Z</time></trkpt><trkpt lat="43.47666" lon="11.3724717"><ele>452.0</ele><time>2026-03-28T09:33:14.044Z</time></trkpt><trkpt lat="43.47664" lon="11.372705"><ele>449.0</ele><time>2026-03-28T09:33:15.044Z</time></trkpt><trkpt lat="43.4766067" lon="11.3729333"><ele>446.0</ele><time>2026-03-28T09:33:16.043Z</time></trkpt><trkpt lat="43.47658" lon="11.3731633"><ele>443.0</ele><time>2026-03-28T09:33:17.044Z</time></trkpt><trkpt lat="43.4765483" lon="11.3733833"><ele>440.0</ele><time>2026-03-28T09:33:18.044Z</time></trkpt><trkpt lat="43.47651" lon="11.3735683"><ele>437.0</ele><time>2026-03-28T09:33:19.044Z</time></trkpt><trkpt lat="43.4764533" lon="11.37372"><ele>434.0</ele><time>2026-03-28T09:33:20.044Z</time></trkpt><trkpt lat="43.47637" lon="11.37381"><ele>436.0</ele><time>2026-03-28T09:33:21.044Z</time></trkpt><trkpt lat="43.47624" lon="11.3738517"><ele>438.0</ele><time>2026-03-28T09:33:22.044Z</time></trkpt><trkpt lat="43.4760683" lon="11.3738567"><ele>440.0</ele><time>2026-03-28T09:33:23.044Z</time></trkpt><trkpt lat="43.4758933" lon="11.3738583"><ele>435.3333333333333</ele><time>2026-03-28T09:33:24.044Z</time></trkpt><trkpt lat="43.4757183" lon="11.3738733"><ele>430.66666666666663</ele><time>2026-03-28T09:33:25.043Z</time></trkpt><trkpt lat="43.4755333" lon="11.37389"><ele>426.0</ele><time>2026-03-28T09:33:26.043Z</time></trkpt><trkpt lat="43.4753333" lon="11.3739083"><ele>424.0</ele><time>2026-03-28T09:33:27.044Z</time></trkpt><trkpt lat="43.4751517" lon="11.3739283"><ele>422.0</ele><time>2026-03-28T09:33:28.044Z</time></trkpt><trkpt lat="43.4749733" lon="11.373935"><ele>420.0</ele><time>2026-03-28T09:33:29.043Z</time></trkpt><trkpt lat="43.4748233" lon="11.3739217"><ele>420.0</ele><time>2026-03-28T09:33:30.044Z</time></trkpt><trkpt lat="43.4746867" lon="11.3738567"><ele>420.0</ele><time>2026-03-28T09:33:31.044Z</time></trkpt><trkpt lat="43.474585" lon="11.3737383"><ele>420.0</ele><time>2026-03-28T09:33:32.043Z</time></trkpt><trkpt lat="43.4744867" lon="11.3736133"><ele>420.0</ele><time>2026-03-28T09:33:33.044Z</time></trkpt><trkpt lat="43.4743683" lon="11.3735517"><ele>418.5</ele><time>2026-03-28T09:33:34.044Z</time></trkpt><trkpt lat="43.4742333" lon="11.37355"><ele>417.0</ele><time>2026-03-28T09:33:35.044Z</time></trkpt><trkpt lat="43.474095" lon="11.37362"><ele>415.5</ele><time>2026-03-28T09:33:36.044Z</time></trkpt><trkpt lat="43.4739583" lon="11.37374"><ele>414.0</ele><time>2026-03-28T09:33:37.044Z</time></trkpt><trkpt lat="43.4738617" lon="11.3738917"><ele>414.0</ele><time>2026-03-28T09:33:38.044Z</time></trkpt><trkpt lat="43.4737517" lon="11.3740983"><ele>414.0</ele><time>2026-03-28T09:33:39.044Z</time></trkpt><trkpt lat="43.4736433" lon="11.3742617"><ele>414.0</ele><time>2026-03-28T09:33:40.044Z</time></trkpt><trkpt lat="43.4735167" lon="11.3743617"><ele>414.0</ele><time>2026-03-28T09:33:41.044Z</time></trkpt><trkpt lat="43.4733833" lon="11.3743967"><ele>414.0</ele><time>2026-03-28T09:33:42.043Z</time></trkpt><trkpt lat="43.4732217" lon="11.3743717"><ele>414.0</ele><time>2026-03-28T09:33:43.044Z</time></trkpt><trkpt lat="43.47306" lon="11.3743017"><ele>410.33333333333337</ele><time>2026-03-28T09:33:44.044Z</time></trkpt><trkpt lat="43.4729" lon="11.3742017"><ele>406.6666666666667</ele><time>2026-03-28T09:33:45.043Z</time></trkpt><trkpt lat="43.472735" lon="11.374105"><ele>403.0</ele><time>2026-03-28T09:33:46.044Z</time></trkpt><trkpt lat="43.47258" lon="11.37401"><ele>403.0</ele><time>2026-03-28T09:33:47.043Z</time></trkpt><trkpt lat="43.4724267" lon="11.37394"><ele>403.0</ele><time>2026-03-28T09:33:48.044Z</time></trkpt><trkpt lat="43.4722867" lon="11.3739017"><ele>403.0</ele><time>2026-03-28T09:33:49.044Z</time></trkpt><trkpt lat="43.4721317" lon="11.373915"><ele>401.0</ele><time>2026-03-28T09:33:50.044Z</time></trkpt><trkpt lat="43.4719583" lon="11.373955"><ele>399.0</ele><time>2026-03-28T09:33:51.044Z</time></trkpt><trkpt lat="43.4717783" lon="11.374"><ele>397.0</ele><time>2026-03-28T09:33:52.044Z</time></trkpt><trkpt lat="43.4715983" lon="11.3740517"><ele>397.0</ele><time>2026-03-28T09:33:53.044Z</time></trkpt><trkpt lat="43.4714267" lon="11.3741117"><ele>397.0</ele><time>2026-03-28T09:33:54.044Z</time></trkpt><trkpt lat="43.47125" lon="11.3741883"><ele>397.0</ele><time>2026-03-28T09:33:55.043Z</time></trkpt><trkpt lat="43.4710567" lon="11.3742367"><ele>396.33333333333337</ele><time>2026-03-28T09:33:56.044Z</time></trkpt><trkpt lat="43.470875" lon="11.3742717"><ele>395.66666666666663</ele><time>2026-03-28T09:33:57.044Z</time></trkpt><trkpt lat="43.470695" lon="11.3742833"><ele>395.0</ele><time>2026-03-28T09:33:58.044Z</time></trkpt><trkpt lat="43.47051" lon="11.374275"><ele>394.0</ele><time>2026-03-28T09:33:59.044Z</time></trkpt><trkpt lat="43.4703167" lon="11.37428"><ele>393.0</ele><time>2026-03-28T09:34:00.044Z</time></trkpt><trkpt lat="43.47012" lon="11.3742717"><ele>392.0</ele><time>2026-03-28T09:34:01.044Z</time></trkpt><trkpt lat="43.4699183" lon="11.3742667"><ele>392.0</ele><time>2026-03-28T09:34:02.043Z</time></trkpt><trkpt lat="43.46972" lon="11.3742533"><ele>392.0</ele><time>2026-03-28T09:34:03.044Z</time></trkpt><trkpt lat="43.46953" lon="11.374245"><ele>392.0</ele><time>2026-03-28T09:34:04.044Z</time></trkpt><trkpt lat="43.4693433" lon="11.3742467"><ele>389.66666666666663</ele><time>2026-03-28T09:34:05.044Z</time></trkpt><trkpt lat="43.46917" lon="11.3742333"><ele>387.33333333333337</ele><time>2026-03-28T09:34:06.044Z</time></trkpt><trkpt lat="43.4690233" lon="11.3741967"><ele>385.0</ele><time>2026-03-28T09:34:07.043Z</time></trkpt><trkpt lat="43.4689017" lon="11.3741233"><ele>385.0</ele><time>2026-03-28T09:34:08.043Z</time></trkpt><trkpt lat="43.4687933" lon="11.3740117"><ele>385.0</ele><time>2026-03-28T09:34:09.043Z</time></trkpt><trkpt lat="43.4687" lon="11.373865"><ele>385.0</ele><time>2026-03-28T09:34:10.044Z</time></trkpt><trkpt lat="43.4685933" lon="11.373685"><ele>385.0</ele><time>2026-03-28T09:34:11.043Z</time></trkpt><trkpt lat="43.4684717" lon="11.3735483"><ele>384.5</ele><time>2026-03-28T09:34:12.044Z</time></trkpt><trkpt lat="43.4683433" lon="11.3734433"><ele>384.0</ele><time>2026-03-28T09:34:13.044Z</time></trkpt><trkpt lat="43.468195" lon="11.3733583"><ele>383.5</ele><time>2026-03-28T09:34:14.044Z</time></trkpt><trkpt lat="43.4680717" lon="11.3732967"><ele>383.0</ele><time>2026-03-28T09:34:15.044Z</time></trkpt><trkpt lat="43.4679767" lon="11.373255"><ele>381.79999999999995</ele><time>2026-03-28T09:34:16.044Z</time></trkpt><trkpt lat="43.4679067" lon="11.373195"><ele>380.6</ele><time>2026-03-28T09:34:17.044Z</time></trkpt><trkpt lat="43.46786" lon="11.3731133"><ele>379.4</ele><time>2026-03-28T09:34:18.044Z</time></trkpt><trkpt lat="43.46783" lon="11.3730083"><ele>378.20000000000005</ele><time>2026-03-28T09:34:19.043Z</time></trkpt><trkpt lat="43.4678233" lon="11.372865"><ele>377.0</ele><time>2026-03-28T09:34:20.044Z</time></trkpt><trkpt lat="43.4678133" lon="11.37268"><ele>376.75</ele><time>2026-03-28T09:34:21.044Z</time></trkpt><trkpt lat="43.46778" lon="11.372495"><ele>376.5</ele><time>2026-03-28T09:34:22.044Z</time></trkpt><trkpt lat="43.4677333" lon="11.37229"><ele>376.25</ele><time>2026-03-28T09:34:23.044Z</time></trkpt><trkpt lat="43.4676667" lon="11.3721033"><ele>376.0</ele><time>2026-03-28T09:34:24.044Z</time></trkpt><trkpt lat="43.4676" lon="11.3719367"><ele>377.0</ele><time>2026-03-28T09:34:25.044Z</time></trkpt><trkpt lat="43.4675167" lon="11.3717717"><ele>378.0</ele><time>2026-03-28T09:34:26.044Z</time></trkpt><trkpt lat="43.4674267" lon="11.371635"><ele>379.0</ele><time>2026-03-28T09:34:27.044Z</time></trkpt><trkpt lat="43.467315" lon="11.3715283"><ele>380.0</ele><time>2026-03-28T09:34:28.044Z</time></trkpt><trkpt lat="43.46718" lon="11.3714367"><ele>379.6666666666667</ele><time>2026-03-28T09:34:29.044Z</time></trkpt><trkpt lat="43.46704" lon="11.3713467"><ele>379.3333333333333</ele><time>2026-03-28T09:34:30.044Z</time></trkpt><trkpt lat="43.4669033" lon="11.3712583"><ele>379.0</ele><time>2026-03-28T09:34:31.044Z</time></trkpt><trkpt lat="43.4667733" lon="11.371145"><ele>379.0</ele><time>2026-03-28T09:34:32.044Z</time></trkpt><trkpt lat="43.4666633" lon="11.3709783"><ele>379.0</ele><time>2026-03-28T09:34:33.044Z</time></trkpt><trkpt lat="43.4665583" lon="11.3708217"><ele>379.0</ele><time>2026-03-28T09:34:34.044Z</time></trkpt><trkpt lat="43.46645" lon="11.370665"><ele>378.0</ele><time>2026-03-28T09:34:35.044Z</time></trkpt><trkpt lat="43.46635" lon="11.3704883"><ele>377.0</ele><time>2026-03-28T09:34:36.044Z</time></trkpt><trkpt lat="43.4662583" lon="11.3703083"><ele>376.0</ele><time>2026-03-28T09:34:37.044Z</time></trkpt><trkpt lat="43.4661717" lon="11.3701217"><ele>376.0</ele><time>2026-03-28T09:34:38.044Z</time></trkpt><trkpt lat="43.4660917" lon="11.3699333"><ele>376.0</ele><time>2026-03-28T09:34:39.044Z</time></trkpt><trkpt lat="43.466025" lon="11.3697483"><ele>376.0</ele><time>2026-03-28T09:34:40.044Z</time></trkpt><trkpt lat="43.4659633" lon="11.36956"><ele>375.3333333333333</ele><time>2026-03-28T09:34:41.043Z</time></trkpt><trkpt lat="43.4659067" lon="11.3693467"><ele>374.6666666666667</ele><time>2026-03-28T09:34:42.044Z</time></trkpt><trkpt lat="43.4658567" lon="11.369135"><ele>374.0</ele><time>2026-03-28T09:34:43.043Z</time></trkpt><trkpt lat="43.4658083" lon="11.3689183"><ele>374.0</ele><time>2026-03-28T09:34:44.044Z</time></trkpt><trkpt lat="43.4657733" lon="11.3687133"><ele>374.0</ele><time>2026-03-28T09:34:45.044Z</time></trkpt><trkpt lat="43.46574" lon="11.3685217"><ele>374.0</ele><time>2026-03-28T09:34:46.044Z</time></trkpt><trkpt lat="43.4657417" lon="11.3683417"><ele>374.0</ele><time>2026-03-28T09:34:47.044Z</time></trkpt><trkpt lat="43.4657567" lon="11.3681517"><ele>373.0</ele><time>2026-03-28T09:34:48.044Z</time></trkpt><trkpt lat="43.4657933" lon="11.3679533"><ele>372.0</ele><time>2026-03-28T09:34:49.044Z</time></trkpt><trkpt lat="43.4658283" lon="11.36775"><ele>371.0</ele><time>2026-03-28T09:34:50.044Z</time></trkpt><trkpt lat="43.46588" lon="11.3675317"><ele>371.0</ele><time>2026-03-28T09:34:51.044Z</time></trkpt><trkpt lat="43.465935" lon="11.36732"><ele>371.0</ele><time>2026-03-28T09:34:52.044Z</time></trkpt><trkpt lat="43.4659883" lon="11.3671067"><ele>371.0</ele><time>2026-03-28T09:34:53.044Z</time></trkpt><trkpt lat="43.4660467" lon="11.36688"><ele>370.33333333333337</ele><time>2026-03-28T09:34:54.044Z</time></trkpt><trkpt lat="43.46609" lon="11.3666583"><ele>369.6666666666667</ele><time>2026-03-28T09:34:55.043Z</time></trkpt><trkpt lat="43.4661433" lon="11.366425"><ele>369.0</ele><time>2026-03-28T09:34:56.044Z</time></trkpt><trkpt lat="43.4661967" lon="11.3661833"><ele>368.6666666666667</ele><time>2026-03-28T09:34:57.044Z</time></trkpt><trkpt lat="43.4662483" lon="11.3659233"><ele>368.33333333333337</ele><time>2026-03-28T09:34:58.044Z</time></trkpt><trkpt lat="43.46631" lon="11.3656517"><ele>368.0</ele><time>2026-03-28T09:34:59.044Z</time></trkpt><trkpt lat="43.4663717" lon="11.3653733"><ele>368.33333333333337</ele><time>2026-03-28T09:35:00.044Z</time></trkpt><trkpt lat="43.4664367" lon="11.3651033"><ele>368.6666666666667</ele><time>2026-03-28T09:35:01.044Z</time></trkpt><trkpt lat="43.466495" lon="11.3648383"><ele>369.0</ele><time>2026-03-28T09:35:02.044Z</time></trkpt><trkpt lat="43.46655" lon="11.3645783"><ele>369.0</ele><time>2026-03-28T09:35:03.043Z</time></trkpt><trkpt lat="43.4666083" lon="11.3643367"><ele>369.0</ele><time>2026-03-28T09:35:04.044Z</time></trkpt><trkpt lat="43.4666633" lon="11.3641033"><ele>369.0</ele><time>2026-03-28T09:35:05.043Z</time></trkpt><trkpt lat="43.466715" lon="11.36389"><ele>368.25</ele><time>2026-03-28T09:35:06.044Z</time></trkpt><trkpt lat="43.4667617" lon="11.36369"><ele>367.5</ele><time>2026-03-28T09:35:07.044Z</time></trkpt><trkpt lat="43.4667983" lon="11.3634983"><ele>366.75</ele><time>2026-03-28T09:35:08.044Z</time></trkpt><trkpt lat="43.4668267" lon="11.3633233"><ele>366.0</ele><time>2026-03-28T09:35:09.043Z</time></trkpt><trkpt lat="43.4668533" lon="11.363165"><ele>366.0</ele><time>2026-03-28T09:35:10.044Z</time></trkpt><trkpt lat="43.4668567" lon="11.363035"><ele>366.0</ele><time>2026-03-28T09:35:11.044Z</time></trkpt><trkpt lat="43.466845" lon="11.362915"><ele>366.0</ele><time>2026-03-28T09:35:12.044Z</time></trkpt><trkpt lat="43.466805" lon="11.3627933"><ele>366.0</ele><time>2026-03-28T09:35:13.044Z</time></trkpt><trkpt lat="43.4667533" lon="11.362665"><ele>366.0</ele><time>2026-03-28T09:35:14.044Z</time></trkpt><trkpt lat="43.4666683" lon="11.3625433"><ele>366.75</ele><time>2026-03-28T09:35:15.043Z</time></trkpt><trkpt lat="43.4665667" lon="11.3624017"><ele>367.5</ele><time>2026-03-28T09:35:16.044Z</time></trkpt><trkpt lat="43.466475" lon="11.3622467"><ele>368.25</ele><time>2026-03-28T09:35:17.044Z</time></trkpt><trkpt lat="43.46641" lon="11.3620767"><ele>369.0</ele><time>2026-03-28T09:35:18.044Z</time></trkpt><trkpt lat="43.4663433" lon="11.3618967"><ele>369.25</ele><time>2026-03-28T09:35:19.044Z</time></trkpt><trkpt lat="43.4663067" lon="11.3617133"><ele>369.5</ele><time>2026-03-28T09:35:20.044Z</time></trkpt><trkpt lat="43.466265" lon="11.3615317"><ele>369.75</ele><time>2026-03-28T09:35:21.044Z</time></trkpt><trkpt lat="43.4662217" lon="11.3613633"><ele>370.0</ele><time>2026-03-28T09:35:22.044Z</time></trkpt><trkpt lat="43.466165" lon="11.36122"><ele>370.0</ele><time>2026-03-28T09:35:23.044Z</time></trkpt><trkpt lat="43.466095" lon="11.3610783"><ele>370.0</ele><time>2026-03-28T09:35:24.043Z</time></trkpt><trkpt lat="43.4659883" lon="11.3609733"><ele>370.0</ele><time>2026-03-28T09:35:25.044Z</time></trkpt><trkpt lat="43.4658733" lon="11.3608717"><ele>370.0</ele><time>2026-03-28T09:35:26.044Z</time></trkpt><trkpt lat="43.4657567" lon="11.3607583"><ele>370.0</ele><time>2026-03-28T09:35:27.044Z</time></trkpt><trkpt lat="43.46565" lon="11.3606267"><ele>370.0</ele><time>2026-03-28T09:35:28.044Z</time></trkpt><trkpt lat="43.465565" lon="11.36047"><ele>370.0</ele><time>2026-03-28T09:35:29.043Z</time></trkpt><trkpt lat="43.46548" lon="11.360325"><ele>370.0</ele><time>2026-03-28T09:35:30.044Z</time></trkpt><trkpt lat="43.46539" lon="11.3601883"><ele>368.75</ele><time>2026-03-28T09:35:31.044Z</time></trkpt><trkpt lat="43.465295" lon="11.36005"><ele>367.5</ele><time>2026-03-28T09:35:32.044Z</time></trkpt><trkpt lat="43.46522" lon="11.359895"><ele>366.25</ele><time>2026-03-28T09:35:33.043Z</time></trkpt><trkpt lat="43.4651467" lon="11.3597117"><ele>365.0</ele><time>2026-03-28T09:35:34.044Z</time></trkpt><trkpt lat="43.465085" lon="11.3595267"><ele>365.0</ele><time>2026-03-28T09:35:35.044Z</time></trkpt><trkpt lat="43.4650383" lon="11.3593517"><ele>365.0</ele><time>2026-03-28T09:35:36.044Z</time></trkpt><trkpt lat="43.465005" lon="11.35916"><ele>365.0</ele><time>2026-03-28T09:35:37.044Z</time></trkpt><trkpt lat="43.4649817" lon="11.3589717"><ele>365.0</ele><time>2026-03-28T09:35:38.044Z</time></trkpt><trkpt lat="43.464955" lon="11.3587733"><ele>366.33333333333337</ele><time>2026-03-28T09:35:39.044Z</time></trkpt><trkpt lat="43.464905" lon="11.35856"><ele>367.6666666666667</ele><time>2026-03-28T09:35:40.044Z</time></trkpt><trkpt lat="43.4648417" lon="11.358355"><ele>369.0</ele><time>2026-03-28T09:35:41.043Z</time></trkpt><trkpt lat="43.46479" lon="11.3581517"><ele>367.75</ele><time>2026-03-28T09:35:42.044Z</time></trkpt><trkpt lat="43.46473" lon="11.35797"><ele>366.5</ele><time>2026-03-28T09:35:43.043Z</time></trkpt><trkpt lat="43.46466" lon="11.357805"><ele>365.25</ele><time>2026-03-28T09:35:44.044Z</time></trkpt><trkpt lat="43.4645783" lon="11.3576567"><ele>364.0</ele><time>2026-03-28T09:35:45.044Z</time></trkpt><trkpt lat="43.464485" lon="11.3575267"><ele>364.0</ele><time>2026-03-28T09:35:46.044Z</time></trkpt><trkpt lat="43.464385" lon="11.357415"><ele>364.0</ele><time>2026-03-28T09:35:47.043Z</time></trkpt><trkpt lat="43.4642733" lon="11.35731"><ele>364.0</ele><time>2026-03-28T09:35:48.044Z</time></trkpt><trkpt lat="43.46414" lon="11.357215"><ele>364.0</ele><time>2026-03-28T09:35:49.044Z</time></trkpt><trkpt lat="43.4640083" lon="11.3571283"><ele>365.0</ele><time>2026-03-28T09:35:50.044Z</time></trkpt><trkpt lat="43.4638767" lon="11.3570767"><ele>366.0</ele><time>2026-03-28T09:35:51.043Z</time></trkpt><trkpt lat="43.46374" lon="11.3570533"><ele>367.0</ele><time>2026-03-28T09:35:52.044Z</time></trkpt><trkpt lat="43.463605" lon="11.3570317"><ele>368.0</ele><time>2026-03-28T09:35:53.044Z</time></trkpt><trkpt lat="43.4634633" lon="11.3570033"><ele>368.0</ele><time>2026-03-28T09:35:54.044Z</time></trkpt><trkpt lat="43.46332" lon="11.3569767"><ele>368.0</ele><time>2026-03-28T09:35:55.044Z</time></trkpt><trkpt lat="43.463185" lon="11.3569583"><ele>368.0</ele><time>2026-03-28T09:35:56.044Z</time></trkpt><trkpt lat="43.4630683" lon="11.35691"><ele>368.0</ele><time>2026-03-28T09:35:57.043Z</time></trkpt><trkpt lat="43.4629483" lon="11.356815"><ele>363.6666666666667</ele><time>2026-03-28T09:35:58.044Z</time></trkpt><trkpt lat="43.46283" lon="11.3566917"><ele>359.3333333333333</ele><time>2026-03-28T09:35:59.044Z</time></trkpt><trkpt lat="43.4627" lon="11.3565667"><ele>355.0</ele><time>2026-03-28T09:36:00.044Z</time></trkpt><trkpt lat="43.4625767" lon="11.3564483"><ele>358.0</ele><time>2026-03-28T09:36:01.044Z</time></trkpt><trkpt lat="43.462455" lon="11.3563317"><ele>361.0</ele><time>2026-03-28T09:36:02.044Z</time></trkpt><trkpt lat="43.462325" lon="11.3562017"><ele>364.0</ele><time>2026-03-28T09:36:03.044Z</time></trkpt><trkpt lat="43.4621983" lon="11.35607"><ele>361.3333333333333</ele><time>2026-03-28T09:36:04.044Z</time></trkpt><trkpt lat="43.4620683" lon="11.3559433"><ele>358.6666666666667</ele><time>2026-03-28T09:36:05.044Z</time></trkpt><trkpt lat="43.4619383" lon="11.35582"><ele>356.0</ele><time>2026-03-28T09:36:06.044Z</time></trkpt><trkpt lat="43.4618117" lon="11.35572"><ele>356.0</ele><time>2026-03-28T09:36:07.043Z</time></trkpt><trkpt lat="43.461675" lon="11.3556167"><ele>356.0</ele><time>2026-03-28T09:36:08.044Z</time></trkpt><trkpt lat="43.4615467" lon="11.35553"><ele>356.0</ele><time>2026-03-28T09:36:09.043Z</time></trkpt><trkpt lat="43.46143" lon="11.355475"><ele>356.0</ele><time>2026-03-28T09:36:10.043Z</time></trkpt><trkpt lat="43.4613" lon="11.35547"><ele>355.5</ele><time>2026-03-28T09:36:11.044Z</time></trkpt><trkpt lat="43.461175" lon="11.3555083"><ele>355.0</ele><time>2026-03-28T09:36:12.044Z</time></trkpt><trkpt lat="43.461035" lon="11.35556"><ele>354.5</ele><time>2026-03-28T09:36:13.044Z</time></trkpt><trkpt lat="43.4608917" lon="11.3556"><ele>354.0</ele><time>2026-03-28T09:36:14.044Z</time></trkpt><trkpt lat="43.46074" lon="11.3556083"><ele>354.0</ele><time>2026-03-28T09:36:15.044Z</time></trkpt><trkpt lat="43.46059" lon="11.35559"><ele>354.0</ele><time>2026-03-28T09:36:16.044Z</time></trkpt><trkpt lat="43.460435" lon="11.3555417"><ele>354.0</ele><time>2026-03-28T09:36:17.044Z</time></trkpt><trkpt lat="43.46028" lon="11.3555033"><ele>353.25</ele><time>2026-03-28T09:36:18.043Z</time></trkpt><trkpt lat="43.4601333" lon="11.3554833"><ele>352.5</ele><time>2026-03-28T09:36:19.044Z</time></trkpt><trkpt lat="43.4600033" lon="11.3555167"><ele>351.75</ele><time>2026-03-28T09:36:20.044Z</time></trkpt><trkpt lat="43.4598667" lon="11.35554"><ele>351.0</ele><time>2026-03-28T09:36:21.044Z</time></trkpt><trkpt lat="43.4597033" lon="11.35555"><ele>350.3333333333333</ele><time>2026-03-28T09:36:22.044Z</time></trkpt><trkpt lat="43.4595433" lon="11.3555417"><ele>349.66666666666663</ele><time>2026-03-28T09:36:23.044Z</time></trkpt><trkpt lat="43.4593817" lon="11.3555033"><ele>349.0</ele><time>2026-03-28T09:36:24.044Z</time></trkpt><trkpt lat="43.4592267" lon="11.35547"><ele>349.3333333333333</ele><time>2026-03-28T09:36:25.044Z</time></trkpt><trkpt lat="43.4590683" lon="11.3554333"><ele>349.6666666666667</ele><time>2026-03-28T09:36:26.044Z</time></trkpt><trkpt lat="43.458915" lon="11.3553733"><ele>350.0</ele><time>2026-03-28T09:36:27.043Z</time></trkpt><trkpt lat="43.4587583" lon="11.3552933"><ele>350.0</ele><time>2026-03-28T09:36:28.044Z</time></trkpt><trkpt lat="43.4586133" lon="11.3551917"><ele>350.0</ele><time>2026-03-28T09:36:29.043Z</time></trkpt><trkpt lat="43.4584633" lon="11.3550867"><ele>350.0</ele><time>2026-03-28T09:36:30.044Z</time></trkpt><trkpt lat="43.458345" lon="11.35497"><ele>350.0</ele><time>2026-03-28T09:36:31.043Z</time></trkpt><trkpt lat="43.4582217" lon="11.3548583"><ele>350.0</ele><time>2026-03-28T09:36:32.044Z</time></trkpt><trkpt lat="43.4581033" lon="11.3547683"><ele>350.0</ele><time>2026-03-28T09:36:33.044Z</time></trkpt><trkpt lat="43.457965" lon="11.3547"><ele>350.0</ele><time>2026-03-28T09:36:34.044Z</time></trkpt><trkpt lat="43.45781" lon="11.354655"><ele>351.6666666666667</ele><time>2026-03-28T09:36:35.044Z</time></trkpt><trkpt lat="43.457655" lon="11.3546033"><ele>353.3333333333333</ele><time>2026-03-28T09:36:36.044Z</time></trkpt><trkpt lat="43.457495" lon="11.3545417"><ele>355.0</ele><time>2026-03-28T09:36:37.044Z</time></trkpt><trkpt lat="43.45735" lon="11.354465"><ele>355.0</ele><time>2026-03-28T09:36:38.044Z</time></trkpt><trkpt lat="43.4572017" lon="11.354385"><ele>355.0</ele><time>2026-03-28T09:36:39.043Z</time></trkpt><trkpt lat="43.45706" lon="11.3543083"><ele>355.0</ele><time>2026-03-28T09:36:40.044Z</time></trkpt><trkpt lat="43.45692" lon="11.354255"><ele>352.75</ele><time>2026-03-28T09:36:41.043Z</time></trkpt><trkpt lat="43.4567783" lon="11.3542167"><ele>350.5</ele><time>2026-03-28T09:36:42.044Z</time></trkpt><trkpt lat="43.4566317" lon="11.3542033"><ele>348.25</ele><time>2026-03-28T09:36:43.044Z</time></trkpt><trkpt lat="43.456475" lon="11.354185"><ele>346.0</ele><time>2026-03-28T09:36:44.044Z</time></trkpt><trkpt lat="43.4563333" lon="11.354165"><ele>345.75</ele><time>2026-03-28T09:36:45.044Z</time></trkpt><trkpt lat="43.4561867" lon="11.354155"><ele>345.5</ele><time>2026-03-28T09:36:46.043Z</time></trkpt><trkpt lat="43.4560367" lon="11.3541317"><ele>345.25</ele><time>2026-03-28T09:36:47.044Z</time></trkpt><trkpt lat="43.4559" lon="11.3541017"><ele>345.0</ele><time>2026-03-28T09:36:48.044Z</time></trkpt><trkpt lat="43.4557933" lon="11.3540617"><ele>345.0</ele><time>2026-03-28T09:36:49.044Z</time></trkpt><trkpt lat="43.4556867" lon="11.3540183"><ele>345.0</ele><time>2026-03-28T09:36:50.044Z</time></trkpt><trkpt lat="43.4556" lon="11.3539867"><ele>345.0</ele><time>2026-03-28T09:36:51.044Z</time></trkpt><trkpt lat="43.455515" lon="11.3539617"><ele>345.0</ele><time>2026-03-28T09:36:52.044Z</time></trkpt><trkpt lat="43.4554383" lon="11.3539417"><ele>345.0</ele><time>2026-03-28T09:36:53.044Z</time></trkpt><trkpt lat="43.455325" lon="11.3539483"><ele>344.6666666666667</ele><time>2026-03-28T09:36:55.044Z</time></trkpt><trkpt lat="43.4552617" lon="11.35396"><ele>344.3333333333333</ele><time>2026-03-28T09:36:56.044Z</time></trkpt><trkpt lat="43.455195" lon="11.3539817"><ele>344.0</ele><time>2026-03-28T09:36:57.043Z</time></trkpt><trkpt lat="43.45511" lon="11.3540017"><ele>343.66666666666663</ele><time>2026-03-28T09:36:58.044Z</time></trkpt><trkpt lat="43.4550117" lon="11.3540433"><ele>343.3333333333333</ele><time>2026-03-28T09:36:59.044Z</time></trkpt><trkpt lat="43.45489" lon="11.35409"><ele>343.0</ele><time>2026-03-28T09:37:00.044Z</time></trkpt><trkpt lat="43.45476" lon="11.3541533"><ele>343.0</ele><time>2026-03-28T09:37:01.044Z</time></trkpt><trkpt lat="43.4546333" lon="11.3542317"><ele>343.0</ele><time>2026-03-28T09:37:02.044Z</time></trkpt><trkpt lat="43.4545033" lon="11.3543"><ele>343.0</ele><time>2026-03-28T09:37:03.043Z</time></trkpt><trkpt lat="43.4543867" lon="11.35435"><ele>343.0</ele><time>2026-03-28T09:37:04.044Z</time></trkpt><trkpt lat="43.4542717" lon="11.3543633"><ele>341.59999999999997</ele><time>2026-03-28T09:37:05.043Z</time></trkpt><trkpt lat="43.4541667" lon="11.3543417"><ele>340.2</ele><time>2026-03-28T09:37:06.044Z</time></trkpt><trkpt lat="43.4541017" lon="11.3542883"><ele>338.8</ele><time>2026-03-28T09:37:07.044Z</time></trkpt><trkpt lat="43.454" lon="11.3542783"><ele>337.4</ele><time>2026-03-28T09:37:08.043Z</time></trkpt><trkpt lat="43.45391" lon="11.3542933"><ele>336.0</ele><time>2026-03-28T09:37:09.044Z</time></trkpt><trkpt lat="43.4538133" lon="11.354335"><ele>338.0</ele><time>2026-03-28T09:37:10.044Z</time></trkpt><trkpt lat="43.45371" lon="11.3543817"><ele>340.0</ele><time>2026-03-28T09:37:11.044Z</time></trkpt><trkpt lat="43.4535933" lon="11.35444"><ele>342.0</ele><time>2026-03-28T09:37:12.044Z</time></trkpt><trkpt lat="43.453475" lon="11.354505"><ele>344.0</ele><time>2026-03-28T09:37:13.044Z</time></trkpt><trkpt lat="43.4533467" lon="11.3545733"><ele>344.0</ele><time>2026-03-28T09:37:14.044Z</time></trkpt><trkpt lat="43.4532017" lon="11.3546483"><ele>344.0</ele><time>2026-03-28T09:37:15.043Z</time></trkpt><trkpt lat="43.4530533" lon="11.35472"><ele>344.0</ele><time>2026-03-28T09:37:16.044Z</time></trkpt><trkpt lat="43.4529133" lon="11.3548067"><ele>343.33333333333337</ele><time>2026-03-28T09:37:17.043Z</time></trkpt><trkpt lat="43.4527717" lon="11.3549133"><ele>342.6666666666667</ele><time>2026-03-28T09:37:18.044Z</time></trkpt><trkpt lat="43.4526233" lon="11.3550017"><ele>342.0</ele><time>2026-03-28T09:37:19.044Z</time></trkpt><trkpt lat="43.45247" lon="11.3550867"><ele>342.0</ele><time>2026-03-28T09:37:20.044Z</time></trkpt><trkpt lat="43.4523117" lon="11.355155"><ele>342.0</ele><time>2026-03-28T09:37:21.044Z</time></trkpt><trkpt lat="43.452165" lon="11.3552083"><ele>342.0</ele><time>2026-03-28T09:37:22.043Z</time></trkpt><trkpt lat="43.4520183" lon="11.3552483"><ele>343.75</ele><time>2026-03-28T09:37:23.044Z</time></trkpt><trkpt lat="43.451875" lon="11.35528"><ele>345.5</ele><time>2026-03-28T09:37:24.044Z</time></trkpt><trkpt lat="43.45174" lon="11.355305"><ele>347.25</ele><time>2026-03-28T09:37:25.044Z</time></trkpt><trkpt lat="43.4516033" lon="11.3553317"><ele>349.0</ele><time>2026-03-28T09:37:26.044Z</time></trkpt><trkpt lat="43.45148" lon="11.3553983"><ele>349.0</ele><time>2026-03-28T09:37:27.044Z</time></trkpt><trkpt lat="43.4513433" lon="11.3554933"><ele>349.0</ele><time>2026-03-28T09:37:28.044Z</time></trkpt><trkpt lat="43.4512" lon="11.3555917"><ele>349.0</ele><time>2026-03-28T09:37:29.043Z</time></trkpt><trkpt lat="43.4510833" lon="11.3556817"><ele>349.0</ele><time>2026-03-28T09:37:30.044Z</time></trkpt><trkpt lat="43.4509783" lon="11.355785"><ele>348.5</ele><time>2026-03-28T09:37:31.044Z</time></trkpt><trkpt lat="43.4508917" lon="11.355895"><ele>348.0</ele><time>2026-03-28T09:37:32.044Z</time></trkpt><trkpt lat="43.450805" lon="11.356015"><ele>347.5</ele><time>2026-03-28T09:37:33.043Z</time></trkpt><trkpt lat="43.4507117" lon="11.35612"><ele>347.0</ele><time>2026-03-28T09:37:34.044Z</time></trkpt><trkpt lat="43.4506217" lon="11.3562267"><ele>347.0</ele><time>2026-03-28T09:37:35.044Z</time></trkpt><trkpt lat="43.4505117" lon="11.3563333"><ele>347.0</ele><time>2026-03-28T09:37:36.044Z</time></trkpt><trkpt lat="43.4504017" lon="11.3564467"><ele>347.0</ele><time>2026-03-28T09:37:37.043Z</time></trkpt><trkpt lat="43.4502817" lon="11.3565467"><ele>347.0</ele><time>2026-03-28T09:37:38.044Z</time></trkpt><trkpt lat="43.4501667" lon="11.3566267"><ele>345.25</ele><time>2026-03-28T09:37:39.043Z</time></trkpt><trkpt lat="43.4500367" lon="11.3567033"><ele>343.5</ele><time>2026-03-28T09:37:40.044Z</time></trkpt><trkpt lat="43.4499133" lon="11.3567317"><ele>341.75</ele><time>2026-03-28T09:37:41.043Z</time></trkpt><trkpt lat="43.44978" lon="11.356735"><ele>340.0</ele><time>2026-03-28T09:37:42.044Z</time></trkpt><trkpt lat="43.4496217" lon="11.3567167"><ele>338.0</ele><time>2026-03-28T09:37:43.043Z</time></trkpt><trkpt lat="43.4494783" lon="11.3566917"><ele>336.0</ele><time>2026-03-28T09:37:44.044Z</time></trkpt><trkpt lat="43.4493433" lon="11.356655"><ele>334.0</ele><time>2026-03-28T09:37:45.044Z</time></trkpt><trkpt lat="43.4492133" lon="11.356595"><ele>332.0</ele><time>2026-03-28T09:37:46.044Z</time></trkpt><trkpt lat="43.449075" lon="11.3565033"><ele>332.0</ele><time>2026-03-28T09:37:47.044Z</time></trkpt><trkpt lat="43.4489383" lon="11.35639"><ele>332.0</ele><time>2026-03-28T09:37:48.044Z</time></trkpt><trkpt lat="43.4488067" lon="11.356275"><ele>332.0</ele><time>2026-03-28T09:37:49.044Z</time></trkpt><trkpt lat="43.4486583" lon="11.3561733"><ele>333.33333333333337</ele><time>2026-03-28T09:37:50.044Z</time></trkpt><trkpt lat="43.4485017" lon="11.3560767"><ele>334.6666666666667</ele><time>2026-03-28T09:37:51.043Z</time></trkpt><trkpt lat="43.4483417" lon="11.35597"><ele>336.0</ele><time>2026-03-28T09:37:52.044Z</time></trkpt><trkpt lat="43.4481717" lon="11.3558667"><ele>336.0</ele><time>2026-03-28T09:37:53.044Z</time></trkpt><trkpt lat="43.448015" lon="11.3557617"><ele>336.0</ele><time>2026-03-28T09:37:54.044Z</time></trkpt><trkpt lat="43.4478717" lon="11.35566"><ele>336.0</ele><time>2026-03-28T09:37:55.044Z</time></trkpt><trkpt lat="43.44773" lon="11.355565"><ele>340.3333333333333</ele><time>2026-03-28T09:37:56.044Z</time></trkpt><trkpt lat="43.4475817" lon="11.3555"><ele>344.66666666666663</ele><time>2026-03-28T09:37:57.043Z</time></trkpt><trkpt lat="43.447425" lon="11.3554467"><ele>349.0</ele><time>2026-03-28T09:37:58.044Z</time></trkpt><trkpt lat="43.44725" lon="11.3554033"><ele>345.0</ele><time>2026-03-28T09:37:59.043Z</time></trkpt><trkpt lat="43.4470817" lon="11.3553667"><ele>341.0</ele><time>2026-03-28T09:38:00.043Z</time></trkpt><trkpt lat="43.4469017" lon="11.3553367"><ele>337.0</ele><time>2026-03-28T09:38:01.044Z</time></trkpt><trkpt lat="43.446715" lon="11.3552983"><ele>337.0</ele><time>2026-03-28T09:38:02.044Z</time></trkpt><trkpt lat="43.4465383" lon="11.35526"><ele>337.0</ele><time>2026-03-28T09:38:03.044Z</time></trkpt><trkpt lat="43.4463583" lon="11.3552333"><ele>337.0</ele><time>2026-03-28T09:38:04.044Z</time></trkpt><trkpt lat="43.4461883" lon="11.3552067"><ele>335.3333333333333</ele><time>2026-03-28T09:38:05.044Z</time></trkpt><trkpt lat="43.446025" lon="11.3551917"><ele>333.6666666666667</ele><time>2026-03-28T09:38:06.044Z</time></trkpt><trkpt lat="43.44587" lon="11.3551767"><ele>332.0</ele><time>2026-03-28T09:38:07.044Z</time></trkpt><trkpt lat="43.4457267" lon="11.3551567"><ele>332.0</ele><time>2026-03-28T09:38:08.044Z</time></trkpt><trkpt lat="43.4455817" lon="11.3551083"><ele>332.0</ele><time>2026-03-28T09:38:09.044Z</time></trkpt><trkpt lat="43.445445" lon="11.3550283"><ele>332.0</ele><time>2026-03-28T09:38:10.044Z</time></trkpt><trkpt lat="43.4453133" lon="11.3549183"><ele>331.0</ele><time>2026-03-28T09:38:11.044Z</time></trkpt><trkpt lat="43.44519" lon="11.354785"><ele>330.0</ele><time>2026-03-28T09:38:12.044Z</time></trkpt><trkpt lat="43.4450883" lon="11.3546467"><ele>329.0</ele><time>2026-03-28T09:38:13.044Z</time></trkpt><trkpt lat="43.4450133" lon="11.3545083"><ele>328.0</ele><time>2026-03-28T09:38:14.044Z</time></trkpt><trkpt lat="43.4449583" lon="11.3543533"><ele>328.0</ele><time>2026-03-28T09:38:15.044Z</time></trkpt><trkpt lat="43.4449283" lon="11.3541867"><ele>328.0</ele><time>2026-03-28T09:38:16.044Z</time></trkpt><trkpt lat="43.4449133" lon="11.3540267"><ele>328.0</ele><time>2026-03-28T09:38:17.044Z</time></trkpt><trkpt lat="43.4449183" lon="11.3538867"><ele>328.0</ele><time>2026-03-28T09:38:18.044Z</time></trkpt><trkpt lat="43.444905" lon="11.3537867"><ele>328.0</ele><time>2026-03-28T09:38:19.044Z</time></trkpt><trkpt lat="43.444845" lon="11.353685"><ele>327.75</ele><time>2026-03-28T09:38:21.044Z</time></trkpt><trkpt lat="43.4447" lon="11.3536883"><ele>327.5</ele><time>2026-03-28T09:38:23.044Z</time></trkpt><trkpt lat="43.4446183" lon="11.3537233"><ele>327.25</ele><time>2026-03-28T09:38:24.044Z</time></trkpt><trkpt lat="43.4445117" lon="11.3537717"><ele>327.0</ele><time>2026-03-28T09:38:25.044Z</time></trkpt><trkpt lat="43.4443967" lon="11.3538233"><ele>326.25</ele><time>2026-03-28T09:38:26.044Z</time></trkpt><trkpt lat="43.4442767" lon="11.35388"><ele>325.5</ele><time>2026-03-28T09:38:27.044Z</time></trkpt><trkpt lat="43.4441467" lon="11.3539433"><ele>324.75</ele><time>2026-03-28T09:38:28.044Z</time></trkpt><trkpt lat="43.44401" lon="11.35402"><ele>324.0</ele><time>2026-03-28T09:38:29.044Z</time></trkpt><trkpt lat="43.4438633" lon="11.3541083"><ele>327.3333333333333</ele><time>2026-03-28T09:38:30.044Z</time></trkpt><trkpt lat="43.443715" lon="11.3542217"><ele>330.66666666666663</ele><time>2026-03-28T09:38:31.044Z</time></trkpt><trkpt lat="43.443545" lon="11.3543267"><ele>334.0</ele><time>2026-03-28T09:38:32.044Z</time></trkpt><trkpt lat="43.4433783" lon="11.354435"><ele>334.0</ele><time>2026-03-28T09:38:33.044Z</time></trkpt><trkpt lat="43.443215" lon="11.3545383"><ele>334.0</ele><time>2026-03-28T09:38:34.043Z</time></trkpt><trkpt lat="43.44305" lon="11.3546367"><ele>334.0</ele><time>2026-03-28T09:38:35.044Z</time></trkpt><trkpt lat="43.4428783" lon="11.3547233"><ele>334.66666666666663</ele><time>2026-03-28T09:38:36.043Z</time></trkpt><trkpt lat="43.442725" lon="11.354825"><ele>335.3333333333333</ele><time>2026-03-28T09:38:37.044Z</time></trkpt><trkpt lat="43.4425867" lon="11.35494"><ele>336.0</ele><time>2026-03-28T09:38:38.043Z</time></trkpt><trkpt lat="43.442455" lon="11.355055"><ele>336.0</ele><time>2026-03-28T09:38:39.044Z</time></trkpt><trkpt lat="43.44233" lon="11.355155"><ele>336.0</ele><time>2026-03-28T09:38:40.044Z</time></trkpt><trkpt lat="43.442215" lon="11.355235"><ele>336.0</ele><time>2026-03-28T09:38:41.044Z</time></trkpt><trkpt lat="43.44209" lon="11.3552867"><ele>336.0</ele><time>2026-03-28T09:38:42.044Z</time></trkpt><trkpt lat="43.4419417" lon="11.3553083"><ele>340.75</ele><time>2026-03-28T09:38:43.043Z</time></trkpt><trkpt lat="43.4418" lon="11.3553167"><ele>345.5</ele><time>2026-03-28T09:38:44.044Z</time></trkpt><trkpt lat="43.441675" lon="11.355335"><ele>350.25</ele><time>2026-03-28T09:38:45.043Z</time></trkpt><trkpt lat="43.441565" lon="11.3553783"><ele>355.0</ele><time>2026-03-28T09:38:46.044Z</time></trkpt><trkpt lat="43.4414717" lon="11.35546"><ele>354.4</ele><time>2026-03-28T09:38:47.044Z</time></trkpt><trkpt lat="43.4414017" lon="11.3555617"><ele>353.8</ele><time>2026-03-28T09:38:48.044Z</time></trkpt><trkpt lat="43.441335" lon="11.35567"><ele>353.20000000000005</ele><time>2026-03-28T09:38:49.043Z</time></trkpt><trkpt lat="43.4412667" lon="11.3557583"><ele>352.6</ele><time>2026-03-28T09:38:50.044Z</time></trkpt><trkpt lat="43.4411833" lon="11.3558233"><ele>352.0</ele><time>2026-03-28T09:38:51.044Z</time></trkpt><trkpt lat="43.4411133" lon="11.3558483"><ele>352.0</ele><time>2026-03-28T09:38:52.044Z</time></trkpt><trkpt lat="43.4410383" lon="11.35585"><ele>352.0</ele><time>2026-03-28T09:38:53.044Z</time></trkpt><trkpt lat="43.440955" lon="11.3557667"><ele>352.0</ele><time>2026-03-28T09:38:55.044Z</time></trkpt><trkpt lat="43.4409717" lon="11.355585"><ele>352.0</ele><time>2026-03-28T09:38:57.043Z</time></trkpt><trkpt lat="43.4410067" lon="11.3554733"><ele>352.0</ele><time>2026-03-28T09:38:58.044Z</time></trkpt><trkpt lat="43.4410383" lon="11.3553667"><ele>352.20000000000005</ele><time>2026-03-28T09:38:59.044Z</time></trkpt><trkpt lat="43.44106" lon="11.3552583"><ele>352.4</ele><time>2026-03-28T09:39:00.044Z</time></trkpt><trkpt lat="43.4410617" lon="11.35514"><ele>352.6</ele><time>2026-03-28T09:39:01.044Z</time></trkpt><trkpt lat="43.4410617" lon="11.3550083"><ele>352.79999999999995</ele><time>2026-03-28T09:39:02.043Z</time></trkpt><trkpt lat="43.4410483" lon="11.3548533"><ele>353.0</ele><time>2026-03-28T09:39:03.043Z</time></trkpt><trkpt lat="43.4410233" lon="11.354695"><ele>353.5</ele><time>2026-03-28T09:39:04.044Z</time></trkpt><trkpt lat="43.440985" lon="11.3545233"><ele>354.0</ele><time>2026-03-28T09:39:05.044Z</time></trkpt><trkpt lat="43.4409467" lon="11.3543417"><ele>354.5</ele><time>2026-03-28T09:39:06.044Z</time></trkpt><trkpt lat="43.4408983" lon="11.3541483"><ele>355.0</ele><time>2026-03-28T09:39:07.044Z</time></trkpt><trkpt lat="43.4408683" lon="11.35394"><ele>357.0</ele><time>2026-03-28T09:39:08.044Z</time></trkpt><trkpt lat="43.4408417" lon="11.3537383"><ele>359.0</ele><time>2026-03-28T09:39:09.044Z</time></trkpt><trkpt lat="43.44082" lon="11.3535233"><ele>361.0</ele><time>2026-03-28T09:39:10.044Z</time></trkpt><trkpt lat="43.4408067" lon="11.353315"><ele>361.0</ele><time>2026-03-28T09:39:11.044Z</time></trkpt><trkpt lat="43.4407817" lon="11.3530967"><ele>361.0</ele><time>2026-03-28T09:39:12.044Z</time></trkpt><trkpt lat="43.4407433" lon="11.3528683"><ele>361.0</ele><time>2026-03-28T09:39:13.044Z</time></trkpt><trkpt lat="43.4407083" lon="11.3526483"><ele>362.5</ele><time>2026-03-28T09:39:14.044Z</time></trkpt><trkpt lat="43.4406717" lon="11.352435"><ele>364.0</ele><time>2026-03-28T09:39:15.044Z</time></trkpt><trkpt lat="43.44064" lon="11.3522467"><ele>365.5</ele><time>2026-03-28T09:39:16.044Z</time></trkpt><trkpt lat="43.440615" lon="11.35206"><ele>367.0</ele><time>2026-03-28T09:39:17.044Z</time></trkpt><trkpt lat="43.4405833" lon="11.3518833"><ele>368.5</ele><time>2026-03-28T09:39:18.043Z</time></trkpt><trkpt lat="43.4405633" lon="11.3517267"><ele>370.0</ele><time>2026-03-28T09:39:19.044Z</time></trkpt><trkpt lat="43.4405367" lon="11.35159"><ele>371.5</ele><time>2026-03-28T09:39:20.044Z</time></trkpt><trkpt lat="43.4405033" lon="11.351445"><ele>373.0</ele><time>2026-03-28T09:39:21.044Z</time></trkpt><trkpt lat="43.4404383" lon="11.3512833"><ele>373.0</ele><time>2026-03-28T09:39:22.043Z</time></trkpt><trkpt lat="43.44037" lon="11.351125"><ele>373.0</ele><time>2026-03-28T09:39:23.043Z</time></trkpt><trkpt lat="43.4403133" lon="11.35095"><ele>373.0</ele><time>2026-03-28T09:39:24.043Z</time></trkpt><trkpt lat="43.44024" lon="11.350805"><ele>373.0</ele><time>2026-03-28T09:39:25.044Z</time></trkpt><trkpt lat="43.440145" lon="11.3506883"><ele>373.0</ele><time>2026-03-28T09:39:26.044Z</time></trkpt><trkpt lat="43.4400317" lon="11.350595"><ele>373.0</ele><time>2026-03-28T09:39:27.043Z</time></trkpt><trkpt lat="43.4398917" lon="11.350505"><ele>373.0</ele><time>2026-03-28T09:39:28.044Z</time></trkpt><trkpt lat="43.43976" lon="11.3504167"><ele>373.0</ele><time>2026-03-28T09:39:29.044Z</time></trkpt><trkpt lat="43.4396133" lon="11.3503433"><ele>374.3333333333333</ele><time>2026-03-28T09:39:30.044Z</time></trkpt><trkpt lat="43.4394617" lon="11.350275"><ele>375.6666666666667</ele><time>2026-03-28T09:39:31.043Z</time></trkpt><trkpt lat="43.439315" lon="11.3502133"><ele>377.0</ele><time>2026-03-28T09:39:32.044Z</time></trkpt><trkpt lat="43.4391667" lon="11.3501617"><ele>377.0</ele><time>2026-03-28T09:39:33.044Z</time></trkpt><trkpt lat="43.4390417" lon="11.350115"><ele>377.0</ele><time>2026-03-28T09:39:34.044Z</time></trkpt><trkpt lat="43.4389167" lon="11.3500683"><ele>377.0</ele><time>2026-03-28T09:39:35.044Z</time></trkpt><trkpt lat="43.4387783" lon="11.3500133"><ele>377.0</ele><time>2026-03-28T09:39:36.044Z</time></trkpt><trkpt lat="43.4386183" lon="11.349925"><ele>376.33333333333337</ele><time>2026-03-28T09:39:37.044Z</time></trkpt><trkpt lat="43.4384717" lon="11.34985"><ele>375.6666666666667</ele><time>2026-03-28T09:39:38.044Z</time></trkpt><trkpt lat="43.4383383" lon="11.3497533"><ele>375.0</ele><time>2026-03-28T09:39:39.043Z</time></trkpt><trkpt lat="43.438215" lon="11.3496467"><ele>374.0</ele><time>2026-03-28T09:39:40.043Z</time></trkpt><trkpt lat="43.43812" lon="11.34952"><ele>373.0</ele><time>2026-03-28T09:39:41.044Z</time></trkpt><trkpt lat="43.4380517" lon="11.3493583"><ele>372.0</ele><time>2026-03-28T09:39:42.044Z</time></trkpt><trkpt lat="43.4379883" lon="11.349165"><ele>371.0</ele><time>2026-03-28T09:39:43.044Z</time></trkpt><trkpt lat="43.43793" lon="11.3489533"><ele>372.5</ele><time>2026-03-28T09:39:44.044Z</time></trkpt><trkpt lat="43.4378783" lon="11.3487517"><ele>374.0</ele><time>2026-03-28T09:39:45.044Z</time></trkpt><trkpt lat="43.4378267" lon="11.3485633"><ele>375.5</ele><time>2026-03-28T09:39:46.044Z</time></trkpt><trkpt lat="43.4377517" lon="11.3484283"><ele>377.0</ele><time>2026-03-28T09:39:47.044Z</time></trkpt><trkpt lat="43.43766" lon="11.3483317"><ele>377.0</ele><time>2026-03-28T09:39:48.044Z</time></trkpt><trkpt lat="43.43756" lon="11.348295"><ele>377.0</ele><time>2026-03-28T09:39:49.043Z</time></trkpt><trkpt lat="43.4374633" lon="11.34829"><ele>377.0</ele><time>2026-03-28T09:39:50.044Z</time></trkpt><trkpt lat="43.43739" lon="11.3482817"><ele>377.0</ele><time>2026-03-28T09:39:51.043Z</time></trkpt><trkpt lat="43.4373133" lon="11.3481933"><ele>377.0</ele><time>2026-03-28T09:39:53.044Z</time></trkpt><trkpt lat="43.4373017" lon="11.3481067"><ele>377.0</ele><time>2026-03-28T09:39:54.043Z</time></trkpt><trkpt lat="43.4373033" lon="11.348"><ele>378.40000000000003</ele><time>2026-03-28T09:39:55.044Z</time></trkpt><trkpt lat="43.4373417" lon="11.3478633"><ele>379.8</ele><time>2026-03-28T09:39:56.044Z</time></trkpt><trkpt lat="43.4374033" lon="11.347715"><ele>381.2</ele><time>2026-03-28T09:39:57.044Z</time></trkpt><trkpt lat="43.4374783" lon="11.3475917"><ele>382.6</ele><time>2026-03-28T09:39:58.044Z</time></trkpt><trkpt lat="43.437555" lon="11.3475033"><ele>384.0</ele><time>2026-03-28T09:39:59.044Z</time></trkpt><trkpt lat="43.437635" lon="11.347445"><ele>384.0</ele><time>2026-03-28T09:40:00.044Z</time></trkpt><trkpt lat="43.4377283" lon="11.347415"><ele>384.0</ele><time>2026-03-28T09:40:01.044Z</time></trkpt><trkpt lat="43.4378117" lon="11.3474033"><ele>384.0</ele><time>2026-03-28T09:40:02.044Z</time></trkpt><trkpt lat="43.4379167" lon="11.347435"><ele>384.0</ele><time>2026-03-28T09:40:03.044Z</time></trkpt><trkpt lat="43.4380183" lon="11.3474783"><ele>384.0</ele><time>2026-03-28T09:40:04.044Z</time></trkpt><trkpt lat="43.4381183" lon="11.3475283"><ele>385.1666666666667</ele><time>2026-03-28T09:40:05.044Z</time></trkpt><trkpt lat="43.4382183" lon="11.3475717"><ele>386.33333333333337</ele><time>2026-03-28T09:40:06.044Z</time></trkpt><trkpt lat="43.4383233" lon="11.3475833"><ele>387.5</ele><time>2026-03-28T09:40:07.043Z</time></trkpt><trkpt lat="43.4384067" lon="11.347595"><ele>388.6666666666667</ele><time>2026-03-28T09:40:08.044Z</time></trkpt><trkpt lat="43.4384717" lon="11.34759"><ele>389.83333333333337</ele><time>2026-03-28T09:40:09.044Z</time></trkpt><trkpt lat="43.4385267" lon="11.3475067"><ele>391.0</ele><time>2026-03-28T09:40:11.044Z</time></trkpt><trkpt lat="43.43849" lon="11.3473383"><ele>391.0</ele><time>2026-03-28T09:40:13.044Z</time></trkpt><trkpt lat="43.438455" lon="11.34723"><ele>391.0</ele><time>2026-03-28T09:40:14.043Z</time></trkpt><trkpt lat="43.4384333" lon="11.347125"><ele>391.0</ele><time>2026-03-28T09:40:15.044Z</time></trkpt><trkpt lat="43.438405" lon="11.3469933"><ele>391.0</ele><time>2026-03-28T09:40:16.044Z</time></trkpt><trkpt lat="43.4383767" lon="11.3468567"><ele>391.0</ele><time>2026-03-28T09:40:17.044Z</time></trkpt><trkpt lat="43.4383583" lon="11.34672"><ele>393.00000000000006</ele><time>2026-03-28T09:40:18.044Z</time></trkpt><trkpt lat="43.4383333" lon="11.3465817"><ele>395.0</ele><time>2026-03-28T09:40:19.044Z</time></trkpt><trkpt lat="43.4383133" lon="11.346445"><ele>397.0</ele><time>2026-03-28T09:40:20.044Z</time></trkpt><trkpt lat="43.438295" lon="11.3463133"><ele>399.0</ele><time>2026-03-28T09:40:21.044Z</time></trkpt><trkpt lat="43.43828" lon="11.3462133"><ele>401.00000000000006</ele><time>2026-03-28T09:40:22.044Z</time></trkpt><trkpt lat="43.438255" lon="11.3461317"><ele>403.0</ele><time>2026-03-28T09:40:23.044Z</time></trkpt><trkpt lat="43.4382283" lon="11.3460033"><ele>406.33333333333337</ele><time>2026-03-28T09:40:25.043Z</time></trkpt><trkpt lat="43.4382867" lon="11.34596"><ele>409.6666666666667</ele><time>2026-03-28T09:40:29.043Z</time></trkpt><trkpt lat="43.4383633" lon="11.3459817"><ele>413.0</ele><time>2026-03-28T09:40:31.044Z</time></trkpt><trkpt lat="43.4384367" lon="11.3460233"><ele>416.33333333333337</ele><time>2026-03-28T09:40:33.044Z</time></trkpt><trkpt lat="43.4385567" lon="11.3460717"><ele>419.6666666666667</ele><time>2026-03-28T09:40:35.044Z</time></trkpt><trkpt lat="43.438625" lon="11.346075"><ele>423.0</ele><time>2026-03-28T09:40:36.044Z</time></trkpt><trkpt lat="43.438705" lon="11.3460683"><ele>423.0</ele><time>2026-03-28T09:40:37.044Z</time></trkpt><trkpt lat="43.4387817" lon="11.346025"><ele>423.0</ele><time>2026-03-28T09:40:38.044Z</time></trkpt><trkpt lat="43.4388567" lon="11.3459733"><ele>423.0</ele><time>2026-03-28T09:40:39.043Z</time></trkpt><trkpt lat="43.438925" lon="11.3459067"><ele>423.0</ele><time>2026-03-28T09:40:40.044Z</time></trkpt><trkpt lat="43.438985" lon="11.3458217"><ele>423.0</ele><time>2026-03-28T09:40:41.043Z</time></trkpt><trkpt lat="43.4390383" lon="11.3457217"><ele>423.0</ele><time>2026-03-28T09:40:42.044Z</time></trkpt><trkpt lat="43.4391017" lon="11.345605"><ele>426.4</ele><time>2026-03-28T09:40:43.044Z</time></trkpt><trkpt lat="43.439175" lon="11.3454933"><ele>429.79999999999995</ele><time>2026-03-28T09:40:44.044Z</time></trkpt><trkpt lat="43.4392433" lon="11.3453733"><ele>433.2</ele><time>2026-03-28T09:40:45.044Z</time></trkpt><trkpt lat="43.439305" lon="11.345245"><ele>436.6</ele><time>2026-03-28T09:40:46.044Z</time></trkpt><trkpt lat="43.43935" lon="11.3451167"><ele>440.0</ele><time>2026-03-28T09:40:47.044Z</time></trkpt><trkpt lat="43.4393967" lon="11.345005"><ele>439.99999999999994</ele><time>2026-03-28T09:40:48.044Z</time></trkpt><trkpt lat="43.43942" lon="11.3448933"><ele>440.0</ele><time>2026-03-28T09:40:49.044Z</time></trkpt><trkpt lat="43.4394267" lon="11.344795"><ele>440.0</ele><time>2026-03-28T09:40:50.044Z</time></trkpt><trkpt lat="43.439415" lon="11.3446883"><ele>440.0</ele><time>2026-03-28T09:40:51.043Z</time></trkpt><trkpt lat="43.4393933" lon="11.3445983"><ele>439.99999999999994</ele><time>2026-03-28T09:40:52.044Z</time></trkpt><trkpt lat="43.4393583" lon="11.344525"><ele>440.0</ele><time>2026-03-28T09:40:53.044Z</time></trkpt><trkpt lat="43.4392583" lon="11.3444467"><ele>439.99999999999994</ele><time>2026-03-28T09:40:55.043Z</time></trkpt><trkpt lat="43.439165" lon="11.3444583"><ele>440.0</ele><time>2026-03-28T09:40:57.044Z</time></trkpt><trkpt lat="43.439065" lon="11.34454"><ele>440.0</ele><time>2026-03-28T09:40:59.044Z</time></trkpt><trkpt lat="43.4390117" lon="11.3446017"><ele>440.0</ele><time>2026-03-28T09:41:00.044Z</time></trkpt><trkpt lat="43.4389617" lon="11.3446583"><ele>439.99999999999994</ele><time>2026-03-28T09:41:01.044Z</time></trkpt><trkpt lat="43.4388933" lon="11.3447483"><ele>440.0</ele><time>2026-03-28T09:41:03.044Z</time></trkpt><trkpt lat="43.4388333" lon="11.3447917"><ele>441.99999999999994</ele><time>2026-03-28T09:41:05.044Z</time></trkpt><trkpt lat="43.4387483" lon="11.3448267"><ele>444.0</ele><time>2026-03-28T09:41:07.043Z</time></trkpt><trkpt lat="43.4386733" lon="11.3448367"><ele>446.0</ele><time>2026-03-28T09:41:08.043Z</time></trkpt><trkpt lat="43.438605" lon="11.34485"><ele>448.0</ele><time>2026-03-28T09:41:09.043Z</time></trkpt><trkpt lat="43.4384967" lon="11.3448217"><ele>449.99999999999994</ele><time>2026-03-28T09:41:11.044Z</time></trkpt><trkpt lat="43.4384483" lon="11.344755"><ele>452.0</ele><time>2026-03-28T09:41:13.044Z</time></trkpt><trkpt lat="43.4384517" lon="11.3446483"><ele>455.49999999999994</ele><time>2026-03-28T09:41:15.044Z</time></trkpt><trkpt lat="43.4384717" lon="11.3445133"><ele>459.0</ele><time>2026-03-28T09:41:17.044Z</time></trkpt><trkpt lat="43.4384183" lon="11.3444133"><ele>462.5</ele><time>2026-03-28T09:41:20.044Z</time></trkpt><trkpt lat="43.4383433" lon="11.344415"><ele>466.0</ele><time>2026-03-28T09:41:22.044Z</time></trkpt><trkpt lat="43.4382767" lon="11.344425"><ele>469.49999999999994</ele><time>2026-03-28T09:41:25.044Z</time></trkpt><trkpt lat="43.4381767" lon="11.34438"><ele>473.0</ele><time>2026-03-28T09:43:49.044Z</time></trkpt><trkpt lat="43.4381433" lon="11.344305"><ele>472.99999999999994</ele><time>2026-03-28T09:43:58.044Z</time></trkpt><trkpt lat="43.43805" lon="11.34423"><ele>473.0</ele><time>2026-03-28T09:44:00.044Z</time></trkpt><trkpt lat="43.4379533" lon="11.3441433"><ele>473.0</ele><time>2026-03-28T09:44:02.044Z</time></trkpt><trkpt lat="43.4379" lon="11.3440833"><ele>473.0</ele><time>2026-03-28T09:44:03.044Z</time></trkpt><trkpt lat="43.4378467" lon="11.3440083"><ele>472.99999999999994</ele><time>2026-03-28T09:44:04.044Z</time></trkpt><trkpt lat="43.43779" lon="11.34393"><ele>473.0</ele><time>2026-03-28T09:44:05.044Z</time></trkpt><trkpt lat="43.4377333" lon="11.34385"><ele>475.66666666666663</ele><time>2026-03-28T09:44:06.044Z</time></trkpt><trkpt lat="43.4376833" lon="11.3437583"><ele>478.3333333333333</ele><time>2026-03-28T09:44:07.044Z</time></trkpt><trkpt lat="43.4376217" lon="11.34367"><ele>481.0</ele><time>2026-03-28T09:44:08.044Z</time></trkpt><trkpt lat="43.4375717" lon="11.3435717"><ele>483.66666666666663</ele><time>2026-03-28T09:44:09.043Z</time></trkpt><trkpt lat="43.43752" lon="11.3434767"><ele>486.3333333333333</ele><time>2026-03-28T09:44:10.044Z</time></trkpt><trkpt lat="43.4374717" lon="11.3433733"><ele>489.0</ele><time>2026-03-28T09:44:11.044Z</time></trkpt><trkpt lat="43.437435" lon="11.3432883"><ele>489.0</ele><time>2026-03-28T09:44:12.044Z</time></trkpt><trkpt lat="43.4374" lon="11.3432083"><ele>489.00000000000006</ele><time>2026-03-28T09:44:13.044Z</time></trkpt><trkpt lat="43.4373717" lon="11.3431167"><ele>489.0</ele><time>2026-03-28T09:44:15.043Z</time></trkpt><trkpt lat="43.437315" lon="11.3430617"><ele>489.0</ele><time>2026-03-28T09:44:34.043Z</time></trkpt><trkpt lat="43.4372667" lon="11.3429633"><ele>489.00000000000006</ele><time>2026-03-28T09:44:36.044Z</time></trkpt><trkpt lat="43.43723" lon="11.34289"><ele>489.0</ele><time>2026-03-28T09:44:37.044Z</time></trkpt><trkpt lat="43.4371767" lon="11.3428133"><ele>489.0</ele><time>2026-03-28T09:44:38.044Z</time></trkpt><trkpt lat="43.4371133" lon="11.34273"><ele>491.79999999999995</ele><time>2026-03-28T09:44:39.044Z</time></trkpt><trkpt lat="43.4370367" lon="11.3426383"><ele>494.59999999999997</ele><time>2026-03-28T09:44:40.044Z</time></trkpt><trkpt lat="43.4369533" lon="11.3425533"><ele>497.4</ele><time>2026-03-28T09:44:41.044Z</time></trkpt><trkpt lat="43.4368767" lon="11.34249"><ele>500.2</ele><time>2026-03-28T09:44:42.044Z</time></trkpt><trkpt lat="43.4368" lon="11.34244"><ele>503.0</ele><time>2026-03-28T09:44:43.044Z</time></trkpt><trkpt lat="43.4367" lon="11.3423983"><ele>503.0</ele><time>2026-03-28T09:44:44.044Z</time></trkpt><trkpt lat="43.4366067" lon="11.3423633"><ele>502.99999999999994</ele><time>2026-03-28T09:44:45.044Z</time></trkpt><trkpt lat="43.4365067" lon="11.3423267"><ele>502.99999999999994</ele><time>2026-03-28T09:44:46.044Z</time></trkpt><trkpt lat="43.4364017" lon="11.3422917"><ele>503.0</ele><time>2026-03-28T09:44:47.044Z</time></trkpt><trkpt lat="43.436325" lon="11.3422533"><ele>503.0</ele><time>2026-03-28T09:44:48.044Z</time></trkpt><trkpt lat="43.4362633" lon="11.3422083"><ele>505.99999999999994</ele><time>2026-03-28T09:44:49.043Z</time></trkpt><trkpt lat="43.4362017" lon="11.342155"><ele>509.0</ele><time>2026-03-28T09:44:50.044Z</time></trkpt><trkpt lat="43.4361483" lon="11.3420867"><ele>512.0</ele><time>2026-03-28T09:44:51.044Z</time></trkpt><trkpt lat="43.43608" lon="11.3419617"><ele>515.0</ele><time>2026-03-28T09:44:53.044Z</time></trkpt><trkpt lat="43.4359983" lon="11.341905"><ele>518.0</ele><time>2026-03-28T09:44:55.043Z</time></trkpt><trkpt lat="43.4359217" lon="11.3418983"><ele>521.0</ele><time>2026-03-28T09:44:57.044Z</time></trkpt><trkpt lat="43.435825" lon="11.341855"><ele>521.0</ele><time>2026-03-28T09:44:59.044Z</time></trkpt><trkpt lat="43.4357233" lon="11.341775"><ele>521.0</ele><time>2026-03-28T09:45:01.044Z</time></trkpt><trkpt lat="43.4356167" lon="11.3417117"><ele>521.0</ele><time>2026-03-28T09:45:03.044Z</time></trkpt><trkpt lat="43.4355117" lon="11.34168"><ele>521.0</ele><time>2026-03-28T09:45:05.044Z</time></trkpt><trkpt lat="43.4354217" lon="11.3417117"><ele>521.0</ele><time>2026-03-28T09:45:07.044Z</time></trkpt><trkpt lat="43.435385" lon="11.3418133"><ele>520.6666666666666</ele><time>2026-03-28T09:45:09.044Z</time></trkpt><trkpt lat="43.435385" lon="11.3419683"><ele>520.3333333333333</ele><time>2026-03-28T09:45:11.044Z</time></trkpt><trkpt lat="43.4353917" lon="11.3420633"><ele>520.0</ele><time>2026-03-28T09:45:12.044Z</time></trkpt><trkpt lat="43.435395" lon="11.3421717"><ele>519.6666666666666</ele><time>2026-03-28T09:45:13.044Z</time></trkpt><trkpt lat="43.4354" lon="11.3423"><ele>519.3333333333334</ele><time>2026-03-28T09:45:14.043Z</time></trkpt><trkpt lat="43.4353983" lon="11.3424183"><ele>519.0</ele><time>2026-03-28T09:45:15.043Z</time></trkpt><trkpt lat="43.4353867" lon="11.3425433"><ele>519.0</ele><time>2026-03-28T09:45:16.044Z</time></trkpt><trkpt lat="43.43536" lon="11.3426667"><ele>519.0</ele><time>2026-03-28T09:45:17.044Z</time></trkpt><trkpt lat="43.43531" lon="11.3427683"><ele>519.0</ele><time>2026-03-28T09:45:18.044Z</time></trkpt><trkpt lat="43.43525" lon="11.3428383"><ele>519.0</ele><time>2026-03-28T09:45:19.044Z</time></trkpt><trkpt lat="43.435165" lon="11.342875"><ele>519.0</ele><time>2026-03-28T09:45:20.044Z</time></trkpt><trkpt lat="43.4350833" lon="11.342895"><ele>519.0</ele><time>2026-03-28T09:45:21.044Z</time></trkpt><trkpt lat="43.43498" lon="11.3428933"><ele>519.0</ele><time>2026-03-28T09:45:22.043Z</time></trkpt><trkpt lat="43.4348667" lon="11.3428717"><ele>519.0</ele><time>2026-03-28T09:45:23.044Z</time></trkpt><trkpt lat="43.4347583" lon="11.34284"><ele>519.0</ele><time>2026-03-28T09:45:24.044Z</time></trkpt><trkpt lat="43.4346617" lon="11.3428133"><ele>519.0</ele><time>2026-03-28T09:45:25.044Z</time></trkpt><trkpt lat="43.4345783" lon="11.3427983"><ele>519.0</ele><time>2026-03-28T09:45:26.043Z</time></trkpt><trkpt lat="43.4345117" lon="11.3428117"><ele>520.3333333333334</ele><time>2026-03-28T09:45:27.044Z</time></trkpt><trkpt lat="43.4344483" lon="11.3428483"><ele>521.6666666666666</ele><time>2026-03-28T09:45:28.043Z</time></trkpt><trkpt lat="43.434395" lon="11.3429033"><ele>523.0</ele><time>2026-03-28T09:45:29.044Z</time></trkpt><trkpt lat="43.4343533" lon="11.3429783"><ele>524.3333333333333</ele><time>2026-03-28T09:45:30.044Z</time></trkpt><trkpt lat="43.4342617" lon="11.3430417"><ele>525.6666666666666</ele><time>2026-03-28T09:45:32.044Z</time></trkpt><trkpt lat="43.434155" lon="11.3429967"><ele>527.0</ele><time>2026-03-28T09:45:34.044Z</time></trkpt><trkpt lat="43.43409" lon="11.34295"><ele>527.0</ele><time>2026-03-28T09:45:35.044Z</time></trkpt><trkpt lat="43.4340083" lon="11.3428817"><ele>527.0</ele><time>2026-03-28T09:45:36.044Z</time></trkpt><trkpt lat="43.4339117" lon="11.3428083"><ele>527.0</ele><time>2026-03-28T09:45:37.044Z</time></trkpt><trkpt lat="43.43382" lon="11.34275"><ele>527.0</ele><time>2026-03-28T09:45:38.044Z</time></trkpt><trkpt lat="43.4337283" lon="11.3427"><ele>527.0</ele><time>2026-03-28T09:45:39.044Z</time></trkpt><trkpt lat="43.4336367" lon="11.34267"><ele>526.5</ele><time>2026-03-28T09:45:40.044Z</time></trkpt><trkpt lat="43.4335367" lon="11.3426417"><ele>526.0</ele><time>2026-03-28T09:45:41.044Z</time></trkpt><trkpt lat="43.4334533" lon="11.3425917"><ele>525.5</ele><time>2026-03-28T09:45:42.043Z</time></trkpt><trkpt lat="43.4333833" lon="11.3425433"><ele>525.0</ele><time>2026-03-28T09:45:43.044Z</time></trkpt><trkpt lat="43.4333117" lon="11.3425133"><ele>524.5</ele><time>2026-03-28T09:45:44.044Z</time></trkpt><trkpt lat="43.43322" lon="11.342485"><ele>524.0</ele><time>2026-03-28T09:45:45.044Z</time></trkpt><trkpt lat="43.4331133" lon="11.3424617"><ele>524.0</ele><time>2026-03-28T09:45:46.044Z</time></trkpt><trkpt lat="43.4330133" lon="11.34243"><ele>524.0</ele><time>2026-03-28T09:45:47.044Z</time></trkpt><trkpt lat="43.43292" lon="11.34239"><ele>524.0</ele><time>2026-03-28T09:45:48.043Z</time></trkpt><trkpt lat="43.43284" lon="11.3423467"><ele>524.0</ele><time>2026-03-28T09:45:49.044Z</time></trkpt><trkpt lat="43.432775" lon="11.3423017"><ele>524.0</ele><time>2026-03-28T09:45:50.043Z</time></trkpt><trkpt lat="43.4326883" lon="11.342275"><ele>524.0</ele><time>2026-03-28T09:45:52.044Z</time></trkpt><trkpt lat="43.4326283" lon="11.3423733"><ele>524.4</ele><time>2026-03-28T09:45:55.043Z</time></trkpt><trkpt lat="43.43263" lon="11.3424833"><ele>524.8</ele><time>2026-03-28T09:45:58.044Z</time></trkpt><trkpt lat="43.4325933" lon="11.3426383"><ele>525.2</ele><time>2026-03-28T09:46:06.044Z</time></trkpt><trkpt lat="43.4325217" lon="11.3426833"><ele>525.6</ele><time>2026-03-28T09:46:09.044Z</time></trkpt><trkpt lat="43.4325133" lon="11.3425733"><ele>526.0</ele><time>2026-03-28T09:46:12.043Z</time></trkpt><trkpt lat="43.4325117" lon="11.3424417"><ele>526.0</ele><time>2026-03-28T09:46:14.043Z</time></trkpt><trkpt lat="43.432435" lon="11.3423567"><ele>526.0</ele><time>2026-03-28T09:46:16.044Z</time></trkpt><trkpt lat="43.43237" lon="11.3423333"><ele>526.0</ele><time>2026-03-28T09:46:17.043Z</time></trkpt><trkpt lat="43.4322583" lon="11.34224"><ele>526.0</ele><time>2026-03-28T09:46:19.044Z</time></trkpt><trkpt lat="43.4322033" lon="11.3421617"><ele>526.0</ele><time>2026-03-28T09:46:20.044Z</time></trkpt><trkpt lat="43.4321533" lon="11.34206"><ele>528.2</ele><time>2026-03-28T09:46:21.044Z</time></trkpt><trkpt lat="43.4321267" lon="11.3419517"><ele>530.4000000000001</ele><time>2026-03-28T09:46:22.044Z</time></trkpt><trkpt lat="43.4321183" lon="11.3418367"><ele>532.6</ele><time>2026-03-28T09:46:23.044Z</time></trkpt><trkpt lat="43.4321283" lon="11.3417067"><ele>534.8000000000001</ele><time>2026-03-28T09:46:24.044Z</time></trkpt><trkpt lat="43.43213" lon="11.3415717"><ele>537.0</ele><time>2026-03-28T09:46:25.044Z</time></trkpt><trkpt lat="43.4321167" lon="11.34143"><ele>539.4</ele><time>2026-03-28T09:46:26.044Z</time></trkpt><trkpt lat="43.4320817" lon="11.3412933"><ele>541.8000000000001</ele><time>2026-03-28T09:46:27.043Z</time></trkpt><trkpt lat="43.4320333" lon="11.3411667"><ele>544.2</ele><time>2026-03-28T09:46:28.044Z</time></trkpt><trkpt lat="43.4319917" lon="11.3410267"><ele>546.6</ele><time>2026-03-28T09:46:29.043Z</time></trkpt><trkpt lat="43.431955" lon="11.3408833"><ele>549.0</ele><time>2026-03-28T09:46:30.044Z</time></trkpt><trkpt lat="43.4319033" lon="11.3407333"><ele>549.0</ele><time>2026-03-28T09:46:31.044Z</time></trkpt><trkpt lat="43.43184" lon="11.3405783"><ele>549.0</ele><time>2026-03-28T09:46:32.044Z</time></trkpt><trkpt lat="43.4317983" lon="11.3404383"><ele>549.0</ele><time>2026-03-28T09:46:33.044Z</time></trkpt><trkpt lat="43.43178" lon="11.3403133"><ele>549.0</ele><time>2026-03-28T09:46:34.044Z</time></trkpt><trkpt lat="43.4317667" lon="11.3401783"><ele>549.0</ele><time>2026-03-28T09:46:35.044Z</time></trkpt><trkpt lat="43.4317583" lon="11.340035"><ele>550.5</ele><time>2026-03-28T09:46:36.044Z</time></trkpt><trkpt lat="43.43177" lon="11.3398783"><ele>552.0</ele><time>2026-03-28T09:46:37.044Z</time></trkpt><trkpt lat="43.4318" lon="11.33973"><ele>553.5</ele><time>2026-03-28T09:46:38.043Z</time></trkpt><trkpt lat="43.431845" lon="11.33957"><ele>555.0</ele><time>2026-03-28T09:46:39.044Z</time></trkpt><trkpt lat="43.4319083" lon="11.33941"><ele>556.0</ele><time>2026-03-28T09:46:40.043Z</time></trkpt><trkpt lat="43.4319583" lon="11.3392667"><ele>557.0</ele><time>2026-03-28T09:46:41.044Z</time></trkpt><trkpt lat="43.4319917" lon="11.3391417"><ele>558.0</ele><time>2026-03-28T09:46:42.044Z</time></trkpt><trkpt lat="43.4320017" lon="11.3390067"><ele>559.0</ele><time>2026-03-28T09:46:43.044Z</time></trkpt><trkpt lat="43.4319817" lon="11.3388633"><ele>560.0</ele><time>2026-03-28T09:46:44.044Z</time></trkpt><trkpt lat="43.43193" lon="11.3387133"><ele>563.25</ele><time>2026-03-28T09:46:45.044Z</time></trkpt><trkpt lat="43.4318333" lon="11.3385933"><ele>566.5</ele><time>2026-03-28T09:46:46.044Z</time></trkpt><trkpt lat="43.4317283" lon="11.3384583"><ele>569.75</ele><time>2026-03-28T09:46:47.044Z</time></trkpt><trkpt lat="43.431635" lon="11.33833"><ele>573.0</ele><time>2026-03-28T09:46:48.044Z</time></trkpt><trkpt lat="43.4315383" lon="11.33824"><ele>573.0</ele><time>2026-03-28T09:46:49.043Z</time></trkpt><trkpt lat="43.43142" lon="11.338175"><ele>573.0</ele><time>2026-03-28T09:46:50.043Z</time></trkpt><trkpt lat="43.4313" lon="11.3381083"><ele>573.0</ele><time>2026-03-28T09:46:51.044Z</time></trkpt><trkpt lat="43.4311867" lon="11.3380317"><ele>573.0</ele><time>2026-03-28T09:46:52.044Z</time></trkpt><trkpt lat="43.4310817" lon="11.3379267"><ele>576.0</ele><time>2026-03-28T09:46:53.044Z</time></trkpt><trkpt lat="43.4309783" lon="11.3378217"><ele>579.0</ele><time>2026-03-28T09:46:54.044Z</time></trkpt><trkpt lat="43.4308717" lon="11.3377033"><ele>582.0</ele><time>2026-03-28T09:46:55.044Z</time></trkpt><trkpt lat="43.4307583" lon="11.337575"><ele>585.0</ele><time>2026-03-28T09:46:56.044Z</time></trkpt><trkpt lat="43.4306433" lon="11.3374483"><ele>585.0</ele><time>2026-03-28T09:46:57.044Z</time></trkpt><trkpt lat="43.430525" lon="11.3373183"><ele>585.0</ele><time>2026-03-28T09:46:58.043Z</time></trkpt><trkpt lat="43.4304033" lon="11.33718"><ele>585.0</ele><time>2026-03-28T09:46:59.044Z</time></trkpt><trkpt lat="43.4302933" lon="11.3370367"><ele>585.0</ele><time>2026-03-28T09:47:00.044Z</time></trkpt><trkpt lat="43.4301833" lon="11.3368917"><ele>585.0</ele><time>2026-03-28T09:47:01.043Z</time></trkpt><trkpt lat="43.4300683" lon="11.3367533"><ele>585.0</ele><time>2026-03-28T09:47:02.044Z</time></trkpt><trkpt lat="43.4299683" lon="11.3366233"><ele>585.0</ele><time>2026-03-28T09:47:03.044Z</time></trkpt><trkpt lat="43.4298683" lon="11.336505"><ele>585.0</ele><time>2026-03-28T09:47:04.044Z</time></trkpt><trkpt lat="43.4297783" lon="11.3363967"><ele>585.0</ele><time>2026-03-28T09:47:05.044Z</time></trkpt><trkpt lat="43.429685" lon="11.3363233"><ele>585.0</ele><time>2026-03-28T09:47:06.043Z</time></trkpt><trkpt lat="43.429615" lon="11.3362467"><ele>585.0</ele><time>2026-03-28T09:47:07.044Z</time></trkpt><trkpt lat="43.4295583" lon="11.3361333"><ele>585.0</ele><time>2026-03-28T09:47:08.043Z</time></trkpt><trkpt lat="43.4295217" lon="11.336"><ele>584.0</ele><time>2026-03-28T09:47:09.044Z</time></trkpt><trkpt lat="43.429475" lon="11.33585"><ele>583.0</ele><time>2026-03-28T09:47:10.044Z</time></trkpt><trkpt lat="43.4294217" lon="11.3357167"><ele>582.0</ele><time>2026-03-28T09:47:11.044Z</time></trkpt><trkpt lat="43.4293467" lon="11.3356133"><ele>581.0</ele><time>2026-03-28T09:47:12.044Z</time></trkpt><trkpt lat="43.4292617" lon="11.335535"><ele>580.0</ele><time>2026-03-28T09:47:13.044Z</time></trkpt><trkpt lat="43.429155" lon="11.335465"><ele>581.5</ele><time>2026-03-28T09:47:14.044Z</time></trkpt><trkpt lat="43.4290283" lon="11.3354017"><ele>583.0</ele><time>2026-03-28T09:47:15.044Z</time></trkpt><trkpt lat="43.4288833" lon="11.3353433"><ele>584.5</ele><time>2026-03-28T09:47:16.044Z</time></trkpt><trkpt lat="43.4287433" lon="11.335265"><ele>586.0</ele><time>2026-03-28T09:47:17.044Z</time></trkpt><trkpt lat="43.4286033" lon="11.335185"><ele>586.0</ele><time>2026-03-28T09:47:18.044Z</time></trkpt><trkpt lat="43.428465" lon="11.3351067"><ele>586.0</ele><time>2026-03-28T09:47:19.043Z</time></trkpt><trkpt lat="43.4283283" lon="11.3350233"><ele>586.0</ele><time>2026-03-28T09:47:20.044Z</time></trkpt><trkpt lat="43.4282" lon="11.3349433"><ele>586.0</ele><time>2026-03-28T09:47:21.044Z</time></trkpt><trkpt lat="43.428085" lon="11.3348917"><ele>585.6</ele><time>2026-03-28T09:47:22.043Z</time></trkpt><trkpt lat="43.4279717" lon="11.33486"><ele>585.2</ele><time>2026-03-28T09:47:23.044Z</time></trkpt><trkpt lat="43.4278683" lon="11.33485"><ele>584.8</ele><time>2026-03-28T09:47:24.043Z</time></trkpt><trkpt lat="43.4277667" lon="11.3348567"><ele>584.4</ele><time>2026-03-28T09:47:25.044Z</time></trkpt><trkpt lat="43.4276833" lon="11.3348567"><ele>584.0</ele><time>2026-03-28T09:47:26.044Z</time></trkpt><trkpt lat="43.4275833" lon="11.3348283"><ele>584.0</ele><time>2026-03-28T09:47:28.043Z</time></trkpt><trkpt lat="43.42762" lon="11.334755"><ele>584.0</ele><time>2026-03-28T09:47:31.044Z</time></trkpt><trkpt lat="43.427715" lon="11.3347333"><ele>584.0</ele><time>2026-03-28T09:47:33.044Z</time></trkpt><trkpt lat="43.4278117" lon="11.3347133"><ele>584.0</ele><time>2026-03-28T09:47:36.044Z</time></trkpt><trkpt lat="43.4279533" lon="11.3346767"><ele>584.0</ele><time>2026-03-28T09:47:38.044Z</time></trkpt><trkpt lat="43.428055" lon="11.334645"><ele>585.5</ele><time>2026-03-28T09:47:39.044Z</time></trkpt><trkpt lat="43.42817" lon="11.3346083"><ele>587.0</ele><time>2026-03-28T09:47:40.044Z</time></trkpt><trkpt lat="43.4283017" lon="11.3345617"><ele>588.5</ele><time>2026-03-28T09:47:41.043Z</time></trkpt><trkpt lat="43.4284383" lon="11.3345167"><ele>590.0</ele><time>2026-03-28T09:47:42.043Z</time></trkpt><trkpt lat="43.4285867" lon="11.3344617"><ele>590.0</ele><time>2026-03-28T09:47:43.044Z</time></trkpt><trkpt lat="43.4287217" lon="11.334415"><ele>590.0</ele><time>2026-03-28T09:47:44.044Z</time></trkpt><trkpt lat="43.4288433" lon="11.334345"><ele>590.0</ele><time>2026-03-28T09:47:45.044Z</time></trkpt><trkpt lat="43.4289417" lon="11.3342383"><ele>590.0</ele><time>2026-03-28T09:47:46.044Z</time></trkpt><trkpt lat="43.42904" lon="11.3341217"><ele>589.25</ele><time>2026-03-28T09:47:47.043Z</time></trkpt><trkpt lat="43.429135" lon="11.334005"><ele>588.5</ele><time>2026-03-28T09:47:48.044Z</time></trkpt><trkpt lat="43.429225" lon="11.333895"><ele>587.75</ele><time>2026-03-28T09:47:49.044Z</time></trkpt><trkpt lat="43.429315" lon="11.33378"><ele>587.0</ele><time>2026-03-28T09:47:50.044Z</time></trkpt><trkpt lat="43.4294" lon="11.33366"><ele>587.0</ele><time>2026-03-28T09:47:51.044Z</time></trkpt><trkpt lat="43.42949" lon="11.33356"><ele>587.0</ele><time>2026-03-28T09:47:52.044Z</time></trkpt><trkpt lat="43.4295983" lon="11.333475"><ele>587.0</ele><time>2026-03-28T09:47:53.044Z</time></trkpt><trkpt lat="43.4297167" lon="11.3334167"><ele>587.0</ele><time>2026-03-28T09:47:54.044Z</time></trkpt><trkpt lat="43.429845" lon="11.3333833"><ele>588.4</ele><time>2026-03-28T09:47:55.044Z</time></trkpt><trkpt lat="43.4299533" lon="11.33339"><ele>589.8000000000001</ele><time>2026-03-28T09:47:56.044Z</time></trkpt><trkpt lat="43.4300433" lon="11.333425"><ele>591.2</ele><time>2026-03-28T09:47:57.044Z</time></trkpt><trkpt lat="43.4301433" lon="11.3334833"><ele>592.6</ele><time>2026-03-28T09:47:58.044Z</time></trkpt><trkpt lat="43.4302383" lon="11.33356"><ele>594.0</ele><time>2026-03-28T09:47:59.044Z</time></trkpt><trkpt lat="43.430345" lon="11.33364"><ele>594.0</ele><time>2026-03-28T09:48:00.043Z</time></trkpt><trkpt lat="43.43047" lon="11.3337033"><ele>594.0</ele><time>2026-03-28T09:48:01.044Z</time></trkpt><trkpt lat="43.4305917" lon="11.333745"><ele>594.0</ele><time>2026-03-28T09:48:02.044Z</time></trkpt><trkpt lat="43.4307283" lon="11.333755"><ele>594.0</ele><time>2026-03-28T09:48:03.044Z</time></trkpt><trkpt lat="43.430865" lon="11.3337517"><ele>593.75</ele><time>2026-03-28T09:48:04.044Z</time></trkpt><trkpt lat="43.43101" lon="11.3337133"><ele>593.5</ele><time>2026-03-28T09:48:05.043Z</time></trkpt><trkpt lat="43.4311383" lon="11.33368"><ele>593.25</ele><time>2026-03-28T09:48:06.043Z</time></trkpt><trkpt lat="43.4312533" lon="11.3336667"><ele>593.0</ele><time>2026-03-28T09:48:07.044Z</time></trkpt><trkpt lat="43.4313833" lon="11.33366"><ele>593.0</ele><time>2026-03-28T09:48:08.044Z</time></trkpt><trkpt lat="43.4314983" lon="11.3336717"><ele>593.0</ele><time>2026-03-28T09:48:09.043Z</time></trkpt><trkpt lat="43.4315833" lon="11.333705"><ele>593.0</ele><time>2026-03-28T09:48:10.043Z</time></trkpt><trkpt lat="43.4316433" lon="11.33376"><ele>593.0</ele><time>2026-03-28T09:48:11.044Z</time></trkpt><trkpt lat="43.4317067" lon="11.3337917"><ele>593.0</ele><time>2026-03-28T09:48:12.043Z</time></trkpt><trkpt lat="43.4317783" lon="11.3338017"><ele>593.0</ele><time>2026-03-28T09:48:13.044Z</time></trkpt><trkpt lat="43.4318517" lon="11.3337917"><ele>593.0</ele><time>2026-03-28T09:48:14.044Z</time></trkpt><trkpt lat="43.4319617" lon="11.3337433"><ele>593.0</ele><time>2026-03-28T09:48:15.044Z</time></trkpt><trkpt lat="43.43209" lon="11.3336783"><ele>593.0</ele><time>2026-03-28T09:48:16.044Z</time></trkpt><trkpt lat="43.4322333" lon="11.33361"><ele>593.0</ele><time>2026-03-28T09:48:17.044Z</time></trkpt><trkpt lat="43.43238" lon="11.3335333"><ele>594.0</ele><time>2026-03-28T09:48:18.043Z</time></trkpt><trkpt lat="43.4325317" lon="11.3334467"><ele>595.0</ele><time>2026-03-28T09:48:19.044Z</time></trkpt><trkpt lat="43.4326833" lon="11.3333533"><ele>596.0</ele><time>2026-03-28T09:48:20.044Z</time></trkpt><trkpt lat="43.43281" lon="11.3332717"><ele>596.0</ele><time>2026-03-28T09:48:21.044Z</time></trkpt><trkpt lat="43.43291" lon="11.3331967"><ele>596.0</ele><time>2026-03-28T09:48:22.043Z</time></trkpt><trkpt lat="43.432985" lon="11.3331467"><ele>596.0</ele><time>2026-03-28T09:48:23.044Z</time></trkpt><trkpt lat="43.4330483" lon="11.3331117"><ele>596.0</ele><time>2026-03-28T09:48:24.044Z</time></trkpt><trkpt lat="43.4331633" lon="11.3330417"><ele>596.0</ele><time>2026-03-28T09:48:26.044Z</time></trkpt><trkpt lat="43.4332333" lon="11.33299"><ele>594.75</ele><time>2026-03-28T09:48:27.044Z</time></trkpt><trkpt lat="43.4333183" lon="11.3329283"><ele>593.5</ele><time>2026-03-28T09:48:28.044Z</time></trkpt><trkpt lat="43.433415" lon="11.3328583"><ele>592.25</ele><time>2026-03-28T09:48:29.044Z</time></trkpt><trkpt lat="43.43353" lon="11.3327867"><ele>591.0</ele><time>2026-03-28T09:48:30.044Z</time></trkpt><trkpt lat="43.43367" lon="11.3327217"><ele>591.0</ele><time>2026-03-28T09:48:31.044Z</time></trkpt><trkpt lat="43.433795" lon="11.3326667"><ele>591.0</ele><time>2026-03-28T09:48:32.044Z</time></trkpt><trkpt lat="43.4339333" lon="11.332635"><ele>591.0</ele><time>2026-03-28T09:48:33.044Z</time></trkpt><trkpt lat="43.4340733" lon="11.3326133"><ele>591.0</ele><time>2026-03-28T09:48:34.044Z</time></trkpt><trkpt lat="43.4342017" lon="11.33259"><ele>591.0</ele><time>2026-03-28T09:48:35.043Z</time></trkpt><trkpt lat="43.434325" lon="11.3325517"><ele>591.0</ele><time>2026-03-28T09:48:36.044Z</time></trkpt><trkpt lat="43.4344433" lon="11.3324967"><ele>591.0</ele><time>2026-03-28T09:48:37.044Z</time></trkpt><trkpt lat="43.4345617" lon="11.332415"><ele>591.0</ele><time>2026-03-28T09:48:38.044Z</time></trkpt><trkpt lat="43.434655" lon="11.3323017"><ele>589.25</ele><time>2026-03-28T09:48:39.044Z</time></trkpt><trkpt lat="43.43475" lon="11.332165"><ele>587.5</ele><time>2026-03-28T09:48:40.043Z</time></trkpt><trkpt lat="43.4348367" lon="11.3320017"><ele>585.75</ele><time>2026-03-28T09:48:41.044Z</time></trkpt><trkpt lat="43.4349283" lon="11.3318267"><ele>584.0</ele><time>2026-03-28T09:48:42.044Z</time></trkpt><trkpt lat="43.435025" lon="11.3316533"><ele>584.0</ele><time>2026-03-28T09:48:43.044Z</time></trkpt><trkpt lat="43.4351283" lon="11.3315017"><ele>584.0</ele><time>2026-03-28T09:48:44.044Z</time></trkpt><trkpt lat="43.435235" lon="11.3313817"><ele>584.0</ele><time>2026-03-28T09:48:45.043Z</time></trkpt><trkpt lat="43.43534" lon="11.33127"><ele>584.0</ele><time>2026-03-28T09:48:46.044Z</time></trkpt><trkpt lat="43.4354333" lon="11.3311467"><ele>583.5</ele><time>2026-03-28T09:48:47.044Z</time></trkpt><trkpt lat="43.4355083" lon="11.3309933"><ele>583.0</ele><time>2026-03-28T09:48:48.044Z</time></trkpt><trkpt lat="43.4355833" lon="11.3308317"><ele>582.5</ele><time>2026-03-28T09:48:49.044Z</time></trkpt><trkpt lat="43.43566" lon="11.33065"><ele>582.0</ele><time>2026-03-28T09:48:50.044Z</time></trkpt><trkpt lat="43.4357317" lon="11.3304633"><ele>583.75</ele><time>2026-03-28T09:48:51.043Z</time></trkpt><trkpt lat="43.435805" lon="11.3302833"><ele>585.5</ele><time>2026-03-28T09:48:52.044Z</time></trkpt><trkpt lat="43.43587" lon="11.33011"><ele>587.25</ele><time>2026-03-28T09:48:53.043Z</time></trkpt><trkpt lat="43.4359267" lon="11.3299567"><ele>589.0</ele><time>2026-03-28T09:48:54.043Z</time></trkpt><trkpt lat="43.4359917" lon="11.32981"><ele>587.5</ele><time>2026-03-28T09:48:55.044Z</time></trkpt><trkpt lat="43.4360717" lon="11.3296617"><ele>586.0</ele><time>2026-03-28T09:48:56.044Z</time></trkpt><trkpt lat="43.4361567" lon="11.32951"><ele>584.5</ele><time>2026-03-28T09:48:57.044Z</time></trkpt><trkpt lat="43.4362517" lon="11.329375"><ele>583.0</ele><time>2026-03-28T09:48:58.044Z</time></trkpt><trkpt lat="43.43634" lon="11.3292467"><ele>584.1999999999999</ele><time>2026-03-28T09:48:59.044Z</time></trkpt><trkpt lat="43.4364233" lon="11.32913"><ele>585.4</ele><time>2026-03-28T09:49:00.044Z</time></trkpt><trkpt lat="43.4364717" lon="11.3290183"><ele>586.5999999999999</ele><time>2026-03-28T09:49:01.044Z</time></trkpt><trkpt lat="43.4364967" lon="11.3289133"><ele>587.8</ele><time>2026-03-28T09:49:02.044Z</time></trkpt><trkpt lat="43.4365" lon="11.3288"><ele>589.0</ele><time>2026-03-28T09:49:03.044Z</time></trkpt><trkpt lat="43.4364967" lon="11.328665"><ele>589.0</ele><time>2026-03-28T09:49:04.044Z</time></trkpt><trkpt lat="43.4364883" lon="11.3284933"><ele>589.0</ele><time>2026-03-28T09:49:05.044Z</time></trkpt><trkpt lat="43.436495" lon="11.32831"><ele>589.0</ele><time>2026-03-28T09:49:06.044Z</time></trkpt><trkpt lat="43.4364983" lon="11.3281217"><ele>589.0</ele><time>2026-03-28T09:49:07.043Z</time></trkpt><trkpt lat="43.4365167" lon="11.3279683"><ele>587.0</ele><time>2026-03-28T09:49:08.044Z</time></trkpt><trkpt lat="43.4365367" lon="11.32782"><ele>585.0</ele><time>2026-03-28T09:49:09.044Z</time></trkpt><trkpt lat="43.4365733" lon="11.3276933"><ele>583.0</ele><time>2026-03-28T09:49:10.044Z</time></trkpt><trkpt lat="43.4366233" lon="11.3275883"><ele>581.0</ele><time>2026-03-28T09:49:11.044Z</time></trkpt><trkpt lat="43.436685" lon="11.3275117"><ele>579.0</ele><time>2026-03-28T09:49:12.044Z</time></trkpt><trkpt lat="43.436745" lon="11.3274417"><ele>579.0</ele><time>2026-03-28T09:49:13.044Z</time></trkpt><trkpt lat="43.4367883" lon="11.3273567"><ele>579.0</ele><time>2026-03-28T09:49:14.044Z</time></trkpt><trkpt lat="43.4368083" lon="11.3272583"><ele>579.0</ele><time>2026-03-28T09:49:15.043Z</time></trkpt><trkpt lat="43.4367833" lon="11.327165"><ele>579.0</ele><time>2026-03-28T09:49:16.044Z</time></trkpt><trkpt lat="43.4367533" lon="11.3270733"><ele>579.0</ele><time>2026-03-28T09:49:17.044Z</time></trkpt><trkpt lat="43.4367383" lon="11.3269867"><ele>579.0</ele><time>2026-03-28T09:49:18.044Z</time></trkpt><trkpt lat="43.436805" lon="11.32687"><ele>576.5</ele><time>2026-03-28T09:49:20.044Z</time></trkpt><trkpt lat="43.4368717" lon="11.3268067"><ele>574.0</ele><time>2026-03-28T09:49:21.044Z</time></trkpt><trkpt lat="43.4369417" lon="11.3266967"><ele>571.5</ele><time>2026-03-28T09:49:22.044Z</time></trkpt><trkpt lat="43.4370083" lon="11.3265417"><ele>569.0</ele><time>2026-03-28T09:49:23.044Z</time></trkpt><trkpt lat="43.4370583" lon="11.32635"><ele>567.6666666666666</ele><time>2026-03-28T09:49:24.043Z</time></trkpt><trkpt lat="43.4371033" lon="11.326145"><ele>566.3333333333334</ele><time>2026-03-28T09:49:25.044Z</time></trkpt><trkpt lat="43.4371533" lon="11.3259367"><ele>565.0</ele><time>2026-03-28T09:49:26.044Z</time></trkpt><trkpt lat="43.4371967" lon="11.32576"><ele>565.0</ele><time>2026-03-28T09:49:27.044Z</time></trkpt><trkpt lat="43.4372383" lon="11.3256017"><ele>565.0</ele><time>2026-03-28T09:49:28.044Z</time></trkpt><trkpt lat="43.4372883" lon="11.3254867"><ele>565.0</ele><time>2026-03-28T09:49:29.043Z</time></trkpt><trkpt lat="43.43736" lon="11.3254333"><ele>565.0</ele><time>2026-03-28T09:49:30.044Z</time></trkpt><trkpt lat="43.4374467" lon="11.325375"><ele>565.0</ele><time>2026-03-28T09:49:32.044Z</time></trkpt><trkpt lat="43.4374667" lon="11.3252283"><ele>561.25</ele><time>2026-03-28T09:49:35.044Z</time></trkpt><trkpt lat="43.43743" lon="11.3251517"><ele>557.5</ele><time>2026-03-28T09:49:36.044Z</time></trkpt><trkpt lat="43.4373467" lon="11.3250733"><ele>553.75</ele><time>2026-03-28T09:49:37.044Z</time></trkpt><trkpt lat="43.437225" lon="11.3249517"><ele>550.0</ele><time>2026-03-28T09:49:38.044Z</time></trkpt><trkpt lat="43.4370967" lon="11.3247917"><ele>546.6666666666667</ele><time>2026-03-28T09:49:39.043Z</time></trkpt><trkpt lat="43.4369767" lon="11.3246267"><ele>543.3333333333334</ele><time>2026-03-28T09:49:40.044Z</time></trkpt><trkpt lat="43.4368667" lon="11.3244633"><ele>540.0</ele><time>2026-03-28T09:49:41.043Z</time></trkpt><trkpt lat="43.4367667" lon="11.3243167"><ele>540.0</ele><time>2026-03-28T09:49:42.044Z</time></trkpt><trkpt lat="43.4366633" lon="11.3242017"><ele>540.0</ele><time>2026-03-28T09:49:43.044Z</time></trkpt><trkpt lat="43.4365533" lon="11.3241"><ele>540.0</ele><time>2026-03-28T09:49:44.044Z</time></trkpt><trkpt lat="43.4364533" lon="11.3240017"><ele>540.0</ele><time>2026-03-28T09:49:45.043Z</time></trkpt><trkpt lat="43.4363633" lon="11.3239117"><ele>537.25</ele><time>2026-03-28T09:49:46.043Z</time></trkpt><trkpt lat="43.436285" lon="11.3238167"><ele>534.5</ele><time>2026-03-28T09:49:47.043Z</time></trkpt><trkpt lat="43.4362217" lon="11.3237017"><ele>531.75</ele><time>2026-03-28T09:49:48.043Z</time></trkpt><trkpt lat="43.4361783" lon="11.3235483"><ele>529.0</ele><time>2026-03-28T09:49:49.044Z</time></trkpt><trkpt lat="43.4361367" lon="11.3233633"><ele>529.0</ele><time>2026-03-28T09:49:50.044Z</time></trkpt><trkpt lat="43.4361" lon="11.323165"><ele>529.0</ele><time>2026-03-28T09:49:51.044Z</time></trkpt><trkpt lat="43.4360617" lon="11.3229617"><ele>529.0</ele><time>2026-03-28T09:49:52.043Z</time></trkpt><trkpt lat="43.436025" lon="11.3227567"><ele>529.0</ele><time>2026-03-28T09:49:53.044Z</time></trkpt><trkpt lat="43.43599" lon="11.3225583"><ele>529.0</ele><time>2026-03-28T09:49:54.044Z</time></trkpt><trkpt lat="43.435945" lon="11.3223717"><ele>529.0</ele><time>2026-03-28T09:49:55.044Z</time></trkpt><trkpt lat="43.435885" lon="11.3221983"><ele>529.0</ele><time>2026-03-28T09:49:56.044Z</time></trkpt><trkpt lat="43.4358233" lon="11.3220483"><ele>529.0</ele><time>2026-03-28T09:49:57.044Z</time></trkpt><trkpt lat="43.43574" lon="11.32189"><ele>529.0</ele><time>2026-03-28T09:49:58.044Z</time></trkpt><trkpt lat="43.435665" lon="11.3217383"><ele>529.0</ele><time>2026-03-28T09:49:59.043Z</time></trkpt><trkpt lat="43.4356067" lon="11.3215933"><ele>529.0</ele><time>2026-03-28T09:50:00.044Z</time></trkpt><trkpt lat="43.4355667" lon="11.321435"><ele>530.5</ele><time>2026-03-28T09:50:01.044Z</time></trkpt><trkpt lat="43.4355467" lon="11.3212683"><ele>532.0</ele><time>2026-03-28T09:50:02.044Z</time></trkpt><trkpt lat="43.4355483" lon="11.3210967"><ele>533.5</ele><time>2026-03-28T09:50:03.044Z</time></trkpt><trkpt lat="43.43556" lon="11.32092"><ele>535.0</ele><time>2026-03-28T09:50:04.044Z</time></trkpt><trkpt lat="43.4355883" lon="11.320775"><ele>535.0</ele><time>2026-03-28T09:50:05.043Z</time></trkpt><trkpt lat="43.4356417" lon="11.32066"><ele>535.0</ele><time>2026-03-28T09:50:06.044Z</time></trkpt><trkpt lat="43.435695" lon="11.32055"><ele>535.0</ele><time>2026-03-28T09:50:07.043Z</time></trkpt><trkpt lat="43.4357467" lon="11.3204383"><ele>535.0</ele><time>2026-03-28T09:50:08.043Z</time></trkpt><trkpt lat="43.4357733" lon="11.320325"><ele>535.0</ele><time>2026-03-28T09:50:09.044Z</time></trkpt><trkpt lat="43.4357817" lon="11.3202117"><ele>536.4</ele><time>2026-03-28T09:50:10.044Z</time></trkpt><trkpt lat="43.4357717" lon="11.3201017"><ele>537.8</ele><time>2026-03-28T09:50:11.043Z</time></trkpt><trkpt lat="43.435735" lon="11.3199933"><ele>539.2</ele><time>2026-03-28T09:50:12.044Z</time></trkpt><trkpt lat="43.4356783" lon="11.31988"><ele>540.6</ele><time>2026-03-28T09:50:13.044Z</time></trkpt><trkpt lat="43.4356233" lon="11.31975"><ele>542.0</ele><time>2026-03-28T09:50:14.044Z</time></trkpt><trkpt lat="43.43559" lon="11.3196117"><ele>543.4</ele><time>2026-03-28T09:50:15.044Z</time></trkpt><trkpt lat="43.4355833" lon="11.3194983"><ele>544.8000000000001</ele><time>2026-03-28T09:50:16.044Z</time></trkpt><trkpt lat="43.4356017" lon="11.3193933"><ele>546.2</ele><time>2026-03-28T09:50:17.044Z</time></trkpt><trkpt lat="43.435645" lon="11.319295"><ele>547.6</ele><time>2026-03-28T09:50:18.044Z</time></trkpt><trkpt lat="43.435725" lon="11.31919"><ele>549.0</ele><time>2026-03-28T09:50:19.044Z</time></trkpt><trkpt lat="43.4357817" lon="11.3190783"><ele>549.0</ele><time>2026-03-28T09:50:20.044Z</time></trkpt><trkpt lat="43.4358067" lon="11.3189567"><ele>549.0</ele><time>2026-03-28T09:50:21.044Z</time></trkpt><trkpt lat="43.4358217" lon="11.3188267"><ele>549.0</ele><time>2026-03-28T09:50:22.043Z</time></trkpt><trkpt lat="43.4357967" lon="11.3186967"><ele>549.0</ele><time>2026-03-28T09:50:23.044Z</time></trkpt><trkpt lat="43.4357633" lon="11.3185483"><ele>549.0</ele><time>2026-03-28T09:50:24.044Z</time></trkpt><trkpt lat="43.43572" lon="11.3183817"><ele>550.5</ele><time>2026-03-28T09:50:25.044Z</time></trkpt><trkpt lat="43.4356883" lon="11.3182067"><ele>552.0</ele><time>2026-03-28T09:50:26.044Z</time></trkpt><trkpt lat="43.43566" lon="11.31803"><ele>553.5</ele><time>2026-03-28T09:50:27.043Z</time></trkpt><trkpt lat="43.43566" lon="11.31786"><ele>555.0</ele><time>2026-03-28T09:50:28.044Z</time></trkpt><trkpt lat="43.4356617" lon="11.3177017"><ele>555.0</ele><time>2026-03-28T09:50:29.044Z</time></trkpt><trkpt lat="43.4356817" lon="11.317565"><ele>555.0</ele><time>2026-03-28T09:50:30.044Z</time></trkpt><trkpt lat="43.4356933" lon="11.317425"><ele>555.0</ele><time>2026-03-28T09:50:31.044Z</time></trkpt><trkpt lat="43.4356867" lon="11.3172667"><ele>555.0</ele><time>2026-03-28T09:50:32.044Z</time></trkpt><trkpt lat="43.435665" lon="11.31709"><ele>555.0</ele><time>2026-03-28T09:50:33.044Z</time></trkpt><trkpt lat="43.4356217" lon="11.3169067"><ele>555.0</ele><time>2026-03-28T09:50:34.044Z</time></trkpt><trkpt lat="43.4355733" lon="11.3167217"><ele>555.0</ele><time>2026-03-28T09:50:35.044Z</time></trkpt><trkpt lat="43.435535" lon="11.3165533"><ele>555.0</ele><time>2026-03-28T09:50:36.044Z</time></trkpt><trkpt lat="43.4355017" lon="11.3164067"><ele>555.0</ele><time>2026-03-28T09:50:37.043Z</time></trkpt><trkpt lat="43.43546" lon="11.31628"><ele>558.75</ele><time>2026-03-28T09:50:38.043Z</time></trkpt><trkpt lat="43.4353917" lon="11.3161717"><ele>562.5</ele><time>2026-03-28T09:50:39.044Z</time></trkpt><trkpt lat="43.4352967" lon="11.31606"><ele>566.25</ele><time>2026-03-28T09:50:40.044Z</time></trkpt><trkpt lat="43.43518" lon="11.3159617"><ele>570.0</ele><time>2026-03-28T09:50:41.044Z</time></trkpt><trkpt lat="43.4350633" lon="11.3158633"><ele>570.0</ele><time>2026-03-28T09:50:42.044Z</time></trkpt><trkpt lat="43.4349733" lon="11.3157617"><ele>570.0</ele><time>2026-03-28T09:50:43.044Z</time></trkpt><trkpt lat="43.4349" lon="11.3156433"><ele>570.0</ele><time>2026-03-28T09:50:44.044Z</time></trkpt><trkpt lat="43.4348383" lon="11.3155083"><ele>570.0</ele><time>2026-03-28T09:50:45.044Z</time></trkpt><trkpt lat="43.4347783" lon="11.31538"><ele>568.75</ele><time>2026-03-28T09:50:46.044Z</time></trkpt><trkpt lat="43.434695" lon="11.3152733"><ele>567.5</ele><time>2026-03-28T09:50:47.043Z</time></trkpt><trkpt lat="43.4346" lon="11.3151817"><ele>566.25</ele><time>2026-03-28T09:50:48.044Z</time></trkpt><trkpt lat="43.434495" lon="11.3150883"><ele>565.0</ele><time>2026-03-28T09:50:49.044Z</time></trkpt><trkpt lat="43.4344033" lon="11.31498"><ele>565.0</ele><time>2026-03-28T09:50:50.044Z</time></trkpt><trkpt lat="43.4343233" lon="11.314875"><ele>565.0</ele><time>2026-03-28T09:50:51.043Z</time></trkpt><trkpt lat="43.4342667" lon="11.3147717"><ele>565.0</ele><time>2026-03-28T09:50:52.044Z</time></trkpt><trkpt lat="43.43422" lon="11.31469"><ele>565.0</ele><time>2026-03-28T09:50:53.044Z</time></trkpt><trkpt lat="43.434195" lon="11.3145517"><ele>565.0</ele><time>2026-03-28T09:50:55.044Z</time></trkpt><trkpt lat="43.434255" lon="11.3143667"><ele>562.0</ele><time>2026-03-28T09:50:57.044Z</time></trkpt><trkpt lat="43.4343183" lon="11.3142317"><ele>559.0</ele><time>2026-03-28T09:50:58.043Z</time></trkpt><trkpt lat="43.4343917" lon="11.3140783"><ele>556.0</ele><time>2026-03-28T09:50:59.044Z</time></trkpt><trkpt lat="43.434475" lon="11.3138733"><ele>553.0</ele><time>2026-03-28T09:51:00.044Z</time></trkpt><trkpt lat="43.4345633" lon="11.3136567"><ele>551.25</ele><time>2026-03-28T09:51:01.044Z</time></trkpt><trkpt lat="43.43464" lon="11.3134633"><ele>549.5</ele><time>2026-03-28T09:51:02.044Z</time></trkpt><trkpt lat="43.4347117" lon="11.3132783"><ele>547.75</ele><time>2026-03-28T09:51:03.043Z</time></trkpt><trkpt lat="43.4347817" lon="11.3131283"><ele>546.0</ele><time>2026-03-28T09:51:04.044Z</time></trkpt><trkpt lat="43.4348467" lon="11.3129817"><ele>546.0</ele><time>2026-03-28T09:51:05.044Z</time></trkpt><trkpt lat="43.4349167" lon="11.312845"><ele>546.0</ele><time>2026-03-28T09:51:06.044Z</time></trkpt><trkpt lat="43.4350117" lon="11.31272"><ele>546.0</ele><time>2026-03-28T09:51:07.044Z</time></trkpt><trkpt lat="43.4351117" lon="11.3126233"><ele>546.0</ele><time>2026-03-28T09:51:08.044Z</time></trkpt><trkpt lat="43.435215" lon="11.312565"><ele>546.0</ele><time>2026-03-28T09:51:09.044Z</time></trkpt><trkpt lat="43.43529" lon="11.3125"><ele>546.0</ele><time>2026-03-28T09:51:10.044Z</time></trkpt><trkpt lat="43.4353367" lon="11.3124333"><ele>546.0</ele><time>2026-03-28T09:51:11.044Z</time></trkpt><trkpt lat="43.4353667" lon="11.3122717"><ele>546.0</ele><time>2026-03-28T09:51:13.044Z</time></trkpt><trkpt lat="43.4353467" lon="11.312175"><ele>546.0</ele><time>2026-03-28T09:51:14.044Z</time></trkpt><trkpt lat="43.4353333" lon="11.3120483"><ele>546.0</ele><time>2026-03-28T09:51:15.044Z</time></trkpt><trkpt lat="43.435325" lon="11.3119167"><ele>545.8333333333334</ele><time>2026-03-28T09:51:16.044Z</time></trkpt><trkpt lat="43.435345" lon="11.3118033"><ele>545.6666666666666</ele><time>2026-03-28T09:51:17.044Z</time></trkpt><trkpt lat="43.4353817" lon="11.3117017"><ele>545.5</ele><time>2026-03-28T09:51:18.044Z</time></trkpt><trkpt lat="43.4354383" lon="11.311625"><ele>545.3333333333333</ele><time>2026-03-28T09:51:19.044Z</time></trkpt><trkpt lat="43.4355133" lon="11.3115567"><ele>545.1666666666666</ele><time>2026-03-28T09:51:20.044Z</time></trkpt><trkpt lat="43.4356067" lon="11.3114883"><ele>545.0</ele><time>2026-03-28T09:51:21.043Z</time></trkpt><trkpt lat="43.4357233" lon="11.3114233"><ele>546.75</ele><time>2026-03-28T09:51:22.044Z</time></trkpt><trkpt lat="43.4358533" lon="11.3113717"><ele>548.5</ele><time>2026-03-28T09:51:23.043Z</time></trkpt><trkpt lat="43.4359883" lon="11.3113217"><ele>550.25</ele><time>2026-03-28T09:51:24.044Z</time></trkpt><trkpt lat="43.4361417" lon="11.3112867"><ele>552.0</ele><time>2026-03-28T09:51:25.044Z</time></trkpt><trkpt lat="43.4362817" lon="11.3112517"><ele>553.25</ele><time>2026-03-28T09:51:26.043Z</time></trkpt><trkpt lat="43.436415" lon="11.3112333"><ele>554.5</ele><time>2026-03-28T09:51:27.044Z</time></trkpt><trkpt lat="43.4365483" lon="11.311235"><ele>555.75</ele><time>2026-03-28T09:51:28.044Z</time></trkpt><trkpt lat="43.4366833" lon="11.3112517"><ele>557.0</ele><time>2026-03-28T09:51:29.044Z</time></trkpt><trkpt lat="43.436815" lon="11.3112867"><ele>557.0</ele><time>2026-03-28T09:51:30.044Z</time></trkpt><trkpt lat="43.436945" lon="11.311315"><ele>557.0</ele><time>2026-03-28T09:51:31.044Z</time></trkpt><trkpt lat="43.4370767" lon="11.31134"><ele>557.0</ele><time>2026-03-28T09:51:32.044Z</time></trkpt><trkpt lat="43.4372033" lon="11.3113567"><ele>557.0</ele><time>2026-03-28T09:51:33.044Z</time></trkpt><trkpt lat="43.4373283" lon="11.3113833"><ele>558.0</ele><time>2026-03-28T09:51:34.044Z</time></trkpt><trkpt lat="43.437445" lon="11.3114217"><ele>559.0</ele><time>2026-03-28T09:51:35.044Z</time></trkpt><trkpt lat="43.4375583" lon="11.311455"><ele>560.0</ele><time>2026-03-28T09:51:36.043Z</time></trkpt><trkpt lat="43.43767" lon="11.3114917"><ele>561.0</ele><time>2026-03-28T09:51:37.044Z</time></trkpt><trkpt lat="43.4377883" lon="11.311505"><ele>561.0</ele><time>2026-03-28T09:51:38.044Z</time></trkpt><trkpt lat="43.4379017" lon="11.3114883"><ele>561.0</ele><time>2026-03-28T09:51:39.044Z</time></trkpt><trkpt lat="43.4380233" lon="11.3114417"><ele>561.0</ele><time>2026-03-28T09:51:40.044Z</time></trkpt><trkpt lat="43.4381633" lon="11.3113633"><ele>561.0</ele><time>2026-03-28T09:51:41.044Z</time></trkpt><trkpt lat="43.438285" lon="11.311275"><ele>558.25</ele><time>2026-03-28T09:51:42.044Z</time></trkpt><trkpt lat="43.4384133" lon="11.311165"><ele>555.5</ele><time>2026-03-28T09:51:43.044Z</time></trkpt><trkpt lat="43.438525" lon="11.311045"><ele>552.75</ele><time>2026-03-28T09:51:44.043Z</time></trkpt><trkpt lat="43.4386317" lon="11.3109083"><ele>550.0</ele><time>2026-03-28T09:51:45.044Z</time></trkpt><trkpt lat="43.4387267" lon="11.31077"><ele>549.25</ele><time>2026-03-28T09:51:46.044Z</time></trkpt><trkpt lat="43.4388133" lon="11.3106383"><ele>548.5</ele><time>2026-03-28T09:51:47.044Z</time></trkpt><trkpt lat="43.438905" lon="11.3105317"><ele>547.75</ele><time>2026-03-28T09:51:48.043Z</time></trkpt><trkpt lat="43.439005" lon="11.3104383"><ele>547.0</ele><time>2026-03-28T09:51:49.044Z</time></trkpt><trkpt lat="43.4391033" lon="11.3103533"><ele>547.0</ele><time>2026-03-28T09:51:50.044Z</time></trkpt><trkpt lat="43.43921" lon="11.3102783"><ele>547.0</ele><time>2026-03-28T09:51:51.044Z</time></trkpt><trkpt lat="43.439325" lon="11.31022"><ele>547.0</ele><time>2026-03-28T09:51:52.043Z</time></trkpt><trkpt lat="43.43944" lon="11.310195"><ele>547.0</ele><time>2026-03-28T09:51:53.044Z</time></trkpt><trkpt lat="43.4395567" lon="11.3101967"><ele>547.6</ele><time>2026-03-28T09:51:54.044Z</time></trkpt><trkpt lat="43.4396667" lon="11.3102067"><ele>548.2</ele><time>2026-03-28T09:51:55.044Z</time></trkpt><trkpt lat="43.439775" lon="11.3102033"><ele>548.8</ele><time>2026-03-28T09:51:56.044Z</time></trkpt><trkpt lat="43.4398783" lon="11.3101833"><ele>549.4</ele><time>2026-03-28T09:51:57.044Z</time></trkpt><trkpt lat="43.4399667" lon="11.3101283"><ele>550.0</ele><time>2026-03-28T09:51:58.044Z</time></trkpt><trkpt lat="43.44003" lon="11.3100367"><ele>550.0</ele><time>2026-03-28T09:51:59.044Z</time></trkpt><trkpt lat="43.440085" lon="11.3099217"><ele>550.0</ele><time>2026-03-28T09:52:00.044Z</time></trkpt><trkpt lat="43.44012" lon="11.3098"><ele>550.0</ele><time>2026-03-28T09:52:01.043Z</time></trkpt><trkpt lat="43.4401583" lon="11.3096383"><ele>550.0</ele><time>2026-03-28T09:52:02.044Z</time></trkpt><trkpt lat="43.440185" lon="11.3094717"><ele>550.0</ele><time>2026-03-28T09:52:03.044Z</time></trkpt><trkpt lat="43.4401983" lon="11.3093383"><ele>549.2</ele><time>2026-03-28T09:52:04.044Z</time></trkpt><trkpt lat="43.4402033" lon="11.30923"><ele>548.4</ele><time>2026-03-28T09:52:05.044Z</time></trkpt><trkpt lat="43.4401917" lon="11.3090667"><ele>547.6</ele><time>2026-03-28T09:52:07.044Z</time></trkpt><trkpt lat="43.4401767" lon="11.308955"><ele>546.8</ele><time>2026-03-28T09:52:08.044Z</time></trkpt><trkpt lat="43.440165" lon="11.3088167"><ele>546.0</ele><time>2026-03-28T09:52:09.043Z</time></trkpt><trkpt lat="43.4401567" lon="11.3086567"><ele>545.75</ele><time>2026-03-28T09:52:10.044Z</time></trkpt><trkpt lat="43.440145" lon="11.30848"><ele>545.5</ele><time>2026-03-28T09:52:11.044Z</time></trkpt><trkpt lat="43.440125" lon="11.3082817"><ele>545.25</ele><time>2026-03-28T09:52:12.044Z</time></trkpt><trkpt lat="43.4401017" lon="11.30807"><ele>545.0</ele><time>2026-03-28T09:52:13.044Z</time></trkpt><trkpt lat="43.4400817" lon="11.3078633"><ele>545.0</ele><time>2026-03-28T09:52:14.044Z</time></trkpt><trkpt lat="43.4400617" lon="11.3076767"><ele>545.0</ele><time>2026-03-28T09:52:15.044Z</time></trkpt><trkpt lat="43.4400433" lon="11.3075117"><ele>545.0</ele><time>2026-03-28T09:52:16.044Z</time></trkpt><trkpt lat="43.4400333" lon="11.3073667"><ele>545.0</ele><time>2026-03-28T09:52:17.044Z</time></trkpt><trkpt lat="43.4400483" lon="11.307235"><ele>544.8</ele><time>2026-03-28T09:52:18.044Z</time></trkpt><trkpt lat="43.4400733" lon="11.3071083"><ele>544.6</ele><time>2026-03-28T09:52:19.044Z</time></trkpt><trkpt lat="43.4401" lon="11.3069783"><ele>544.4</ele><time>2026-03-28T09:52:20.043Z</time></trkpt><trkpt lat="43.4401183" lon="11.3068383"><ele>544.2</ele><time>2026-03-28T09:52:21.044Z</time></trkpt><trkpt lat="43.4401167" lon="11.3066783"><ele>544.0</ele><time>2026-03-28T09:52:22.044Z</time></trkpt><trkpt lat="43.44011" lon="11.306495"><ele>543.0</ele><time>2026-03-28T09:52:23.044Z</time></trkpt><trkpt lat="43.4401033" lon="11.3062867"><ele>542.0</ele><time>2026-03-28T09:52:24.044Z</time></trkpt><trkpt lat="43.44011" lon="11.30607"><ele>541.0</ele><time>2026-03-28T09:52:25.044Z</time></trkpt><trkpt lat="43.440105" lon="11.3058867"><ele>540.0</ele><time>2026-03-28T09:52:26.044Z</time></trkpt><trkpt lat="43.4401217" lon="11.3057133"><ele>539.5</ele><time>2026-03-28T09:52:27.044Z</time></trkpt><trkpt lat="43.440145" lon="11.3055383"><ele>539.0</ele><time>2026-03-28T09:52:28.044Z</time></trkpt><trkpt lat="43.4401667" lon="11.3053617"><ele>538.5</ele><time>2026-03-28T09:52:29.043Z</time></trkpt><trkpt lat="43.4401933" lon="11.3051933"><ele>538.0</ele><time>2026-03-28T09:52:30.044Z</time></trkpt><trkpt lat="43.440225" lon="11.3050333"><ele>538.0</ele><time>2026-03-28T09:52:31.044Z</time></trkpt><trkpt lat="43.4402633" lon="11.304875"><ele>538.0</ele><time>2026-03-28T09:52:32.044Z</time></trkpt><trkpt lat="43.4403183" lon="11.3047233"><ele>538.0</ele><time>2026-03-28T09:52:33.044Z</time></trkpt><trkpt lat="43.4403617" lon="11.3045767"><ele>538.0</ele><time>2026-03-28T09:52:34.044Z</time></trkpt><trkpt lat="43.4403967" lon="11.3044417"><ele>538.0</ele><time>2026-03-28T09:52:35.044Z</time></trkpt><trkpt lat="43.44042" lon="11.3043333"><ele>538.0</ele><time>2026-03-28T09:52:36.044Z</time></trkpt><trkpt lat="43.440425" lon="11.304205"><ele>538.0</ele><time>2026-03-28T09:52:37.044Z</time></trkpt><trkpt lat="43.4404283" lon="11.3040467"><ele>538.0</ele><time>2026-03-28T09:52:38.044Z</time></trkpt><trkpt lat="43.44043" lon="11.30387"><ele>538.0</ele><time>2026-03-28T09:52:39.044Z</time></trkpt><trkpt lat="43.4404233" lon="11.303685"><ele>538.0</ele><time>2026-03-28T09:52:40.044Z</time></trkpt><trkpt lat="43.4404267" lon="11.3034917"><ele>538.0</ele><time>2026-03-28T09:52:41.044Z</time></trkpt><trkpt lat="43.4404417" lon="11.3033083"><ele>538.0</ele><time>2026-03-28T09:52:42.043Z</time></trkpt><trkpt lat="43.4404617" lon="11.3031283"><ele>538.0</ele><time>2026-03-28T09:52:43.044Z</time></trkpt><trkpt lat="43.44048" lon="11.30294"><ele>538.4</ele><time>2026-03-28T09:52:44.044Z</time></trkpt><trkpt lat="43.440505" lon="11.3027817"><ele>538.8</ele><time>2026-03-28T09:52:45.044Z</time></trkpt><trkpt lat="43.44053" lon="11.30264"><ele>539.2</ele><time>2026-03-28T09:52:46.043Z</time></trkpt><trkpt lat="43.44054" lon="11.3025433"><ele>539.6</ele><time>2026-03-28T09:52:47.044Z</time></trkpt><trkpt lat="43.44058" lon="11.30245"><ele>540.0</ele><time>2026-03-28T09:52:48.044Z</time></trkpt><trkpt lat="43.4406417" lon="11.3023667"><ele>540.0</ele><time>2026-03-28T09:52:49.044Z</time></trkpt><trkpt lat="43.4407267" lon="11.3023"><ele>540.0</ele><time>2026-03-28T09:52:50.045Z</time></trkpt><trkpt lat="43.440845" lon="11.30223"><ele>540.0</ele><time>2026-03-28T09:52:51.045Z</time></trkpt><trkpt lat="43.44102" lon="11.3021533"><ele>540.0</ele><time>2026-03-28T09:52:52.045Z</time></trkpt><trkpt lat="43.4411917" lon="11.3020667"><ele>537.0</ele><time>2026-03-28T09:52:53.045Z</time></trkpt><trkpt lat="43.4413567" lon="11.3019617"><ele>534.0</ele><time>2026-03-28T09:52:54.045Z</time></trkpt><trkpt lat="43.44151" lon="11.30186"><ele>531.0</ele><time>2026-03-28T09:52:55.045Z</time></trkpt><trkpt lat="43.4416667" lon="11.301775"><ele>531.0</ele><time>2026-03-28T09:52:56.045Z</time></trkpt><trkpt lat="43.441815" lon="11.3017033"><ele>531.0</ele><time>2026-03-28T09:52:57.045Z</time></trkpt><trkpt lat="43.44196" lon="11.3016367"><ele>531.0</ele><time>2026-03-28T09:52:58.045Z</time></trkpt><trkpt lat="43.44208" lon="11.3015867"><ele>531.0</ele><time>2026-03-28T09:52:59.045Z</time></trkpt><trkpt lat="43.4421783" lon="11.301545"><ele>531.8</ele><time>2026-03-28T09:53:00.044Z</time></trkpt><trkpt lat="43.4422683" lon="11.3015533"><ele>532.6</ele><time>2026-03-28T09:53:01.045Z</time></trkpt><trkpt lat="43.442355" lon="11.30159"><ele>533.4</ele><time>2026-03-28T09:53:02.045Z</time></trkpt><trkpt lat="43.44244" lon="11.3016383"><ele>534.2</ele><time>2026-03-28T09:53:03.045Z</time></trkpt><trkpt lat="43.4425117" lon="11.3016717"><ele>535.0</ele><time>2026-03-28T09:53:04.044Z</time></trkpt><trkpt lat="43.4426167" lon="11.3016367"><ele>535.0</ele><time>2026-03-28T09:53:06.045Z</time></trkpt><trkpt lat="43.442645" lon="11.3014983"><ele>535.0</ele><time>2026-03-28T09:53:08.045Z</time></trkpt><trkpt lat="43.442625" lon="11.3013767"><ele>535.0</ele><time>2026-03-28T09:53:09.044Z</time></trkpt><trkpt lat="43.4426133" lon="11.301245"><ele>535.0</ele><time>2026-03-28T09:53:10.045Z</time></trkpt><trkpt lat="43.4426017" lon="11.3011283"><ele>535.0</ele><time>2026-03-28T09:53:11.045Z</time></trkpt><trkpt lat="43.4425917" lon="11.301035"><ele>535.0</ele><time>2026-03-28T09:53:12.045Z</time></trkpt><trkpt lat="43.4425383" lon="11.300895"><ele>534.6</ele><time>2026-03-28T09:53:14.044Z</time></trkpt><trkpt lat="43.4424833" lon="11.3008183"><ele>534.2</ele><time>2026-03-28T09:53:15.045Z</time></trkpt><trkpt lat="43.4424033" lon="11.300735"><ele>533.8</ele><time>2026-03-28T09:53:16.045Z</time></trkpt><trkpt lat="43.442305" lon="11.30065"><ele>533.4</ele><time>2026-03-28T09:53:17.044Z</time></trkpt><trkpt lat="43.4422017" lon="11.300565"><ele>533.0</ele><time>2026-03-28T09:53:18.045Z</time></trkpt><trkpt lat="43.442065" lon="11.3004767"><ele>532.0</ele><time>2026-03-28T09:53:19.045Z</time></trkpt><trkpt lat="43.4419233" lon="11.3003983"><ele>531.0</ele><time>2026-03-28T09:53:20.045Z</time></trkpt><trkpt lat="43.4417767" lon="11.3003567"><ele>530.0</ele><time>2026-03-28T09:53:21.045Z</time></trkpt><trkpt lat="43.4416233" lon="11.30035"><ele>530.0</ele><time>2026-03-28T09:53:22.045Z</time></trkpt><trkpt lat="43.44148" lon="11.300355"><ele>530.0</ele><time>2026-03-28T09:53:23.045Z</time></trkpt><trkpt lat="43.4413133" lon="11.3003867"><ele>530.0</ele><time>2026-03-28T09:53:24.045Z</time></trkpt><trkpt lat="43.4411433" lon="11.300415"><ele>529.3333333333333</ele><time>2026-03-28T09:53:25.045Z</time></trkpt><trkpt lat="43.4409933" lon="11.3004767"><ele>528.6666666666666</ele><time>2026-03-28T09:53:26.045Z</time></trkpt><trkpt lat="43.4408733" lon="11.3006017"><ele>528.0</ele><time>2026-03-28T09:53:27.045Z</time></trkpt><trkpt lat="43.4407783" lon="11.3007733"><ele>528.0</ele><time>2026-03-28T09:53:28.044Z</time></trkpt><trkpt lat="43.4406717" lon="11.3009383"><ele>528.0</ele><time>2026-03-28T09:53:29.044Z</time></trkpt><trkpt lat="43.4405317" lon="11.3010517"><ele>528.0</ele><time>2026-03-28T09:53:30.045Z</time></trkpt><trkpt lat="43.44037" lon="11.3011183"><ele>528.3333333333334</ele><time>2026-03-28T09:53:31.044Z</time></trkpt><trkpt lat="43.4402033" lon="11.301155"><ele>528.6666666666667</ele><time>2026-03-28T09:53:32.045Z</time></trkpt><trkpt lat="43.4400383" lon="11.3011833"><ele>529.0</ele><time>2026-03-28T09:53:33.045Z</time></trkpt><trkpt lat="43.4398867" lon="11.3012117"><ele>529.0</ele><time>2026-03-28T09:53:34.045Z</time></trkpt><trkpt lat="43.4397383" lon="11.3012517"><ele>529.0</ele><time>2026-03-28T09:53:35.045Z</time></trkpt><trkpt lat="43.439635" lon="11.3012833"><ele>529.0</ele><time>2026-03-28T09:53:36.045Z</time></trkpt><trkpt lat="43.43955" lon="11.3013317"><ele>529.0</ele><time>2026-03-28T09:53:37.044Z</time></trkpt><trkpt lat="43.4394817" lon="11.3013567"><ele>529.0</ele><time>2026-03-28T09:53:38.045Z</time></trkpt><trkpt lat="43.4393783" lon="11.30132"><ele>529.4</ele><time>2026-03-28T09:53:40.045Z</time></trkpt><trkpt lat="43.43931" lon="11.3011683"><ele>529.8</ele><time>2026-03-28T09:53:42.045Z</time></trkpt><trkpt lat="43.4392817" lon="11.3010633"><ele>530.2</ele><time>2026-03-28T09:53:43.045Z</time></trkpt><trkpt lat="43.4392517" lon="11.300945"><ele>530.6</ele><time>2026-03-28T09:53:44.045Z</time></trkpt><trkpt lat="43.4392033" lon="11.300815"><ele>531.0</ele><time>2026-03-28T09:53:45.045Z</time></trkpt><trkpt lat="43.4391383" lon="11.3006583"><ele>528.0</ele><time>2026-03-28T09:53:46.045Z</time></trkpt><trkpt lat="43.4390533" lon="11.3004933"><ele>525.0</ele><time>2026-03-28T09:53:47.045Z</time></trkpt><trkpt lat="43.438965" lon="11.3003467"><ele>522.0</ele><time>2026-03-28T09:53:48.044Z</time></trkpt><trkpt lat="43.438875" lon="11.3002117"><ele>519.0</ele><time>2026-03-28T09:53:49.045Z</time></trkpt><trkpt lat="43.438785" lon="11.3000983"><ele>518.75</ele><time>2026-03-28T09:53:50.044Z</time></trkpt><trkpt lat="43.4387017" lon="11.2999983"><ele>518.5</ele><time>2026-03-28T09:53:51.045Z</time></trkpt><trkpt lat="43.4386067" lon="11.2999033"><ele>518.25</ele><time>2026-03-28T09:53:52.045Z</time></trkpt><trkpt lat="43.4385033" lon="11.2997983"><ele>518.0</ele><time>2026-03-28T09:53:53.045Z</time></trkpt><trkpt lat="43.438395" lon="11.2997117"><ele>515.1999999999999</ele><time>2026-03-28T09:53:54.045Z</time></trkpt><trkpt lat="43.4383033" lon="11.299645"><ele>512.4</ele><time>2026-03-28T09:53:55.045Z</time></trkpt><trkpt lat="43.4382217" lon="11.2995933"><ele>509.59999999999997</ele><time>2026-03-28T09:53:56.044Z</time></trkpt><trkpt lat="43.4381283" lon="11.2995733"><ele>506.79999999999995</ele><time>2026-03-28T09:53:57.045Z</time></trkpt><trkpt lat="43.43803" lon="11.299575"><ele>504.0</ele><time>2026-03-28T09:53:58.044Z</time></trkpt><trkpt lat="43.437925" lon="11.2996067"><ele>503.79999999999995</ele><time>2026-03-28T09:53:59.045Z</time></trkpt><trkpt lat="43.4378167" lon="11.2996733"><ele>503.59999999999997</ele><time>2026-03-28T09:54:00.044Z</time></trkpt><trkpt lat="43.4377267" lon="11.2997483"><ele>503.4</ele><time>2026-03-28T09:54:01.045Z</time></trkpt><trkpt lat="43.4376467" lon="11.2998317"><ele>503.2</ele><time>2026-03-28T09:54:02.044Z</time></trkpt><trkpt lat="43.4375833" lon="11.2999067"><ele>503.0</ele><time>2026-03-28T09:54:03.044Z</time></trkpt><trkpt lat="43.43753" lon="11.29998"><ele>503.0</ele><time>2026-03-28T09:54:04.045Z</time></trkpt><trkpt lat="43.4374567" lon="11.3000567"><ele>502.99999999999994</ele><time>2026-03-28T09:54:06.045Z</time></trkpt><trkpt lat="43.4374083" lon="11.2999917"><ele>502.99999999999994</ele><time>2026-03-28T09:54:08.045Z</time></trkpt><trkpt lat="43.437415" lon="11.2998217"><ele>503.0</ele><time>2026-03-28T09:54:10.045Z</time></trkpt><trkpt lat="43.4374233" lon="11.2997083"><ele>503.0</ele><time>2026-03-28T09:54:11.045Z</time></trkpt><trkpt lat="43.4374417" lon="11.29956"><ele>501.4</ele><time>2026-03-28T09:54:12.045Z</time></trkpt><trkpt lat="43.4374333" lon="11.299415"><ele>499.79999999999995</ele><time>2026-03-28T09:54:13.044Z</time></trkpt><trkpt lat="43.437415" lon="11.29929"><ele>498.2</ele><time>2026-03-28T09:54:14.045Z</time></trkpt><trkpt lat="43.4373867" lon="11.2991883"><ele>496.6</ele><time>2026-03-28T09:54:15.045Z</time></trkpt><trkpt lat="43.4373483" lon="11.2991033"><ele>495.0</ele><time>2026-03-28T09:54:16.045Z</time></trkpt><trkpt lat="43.43728" lon="11.2990033"><ele>492.8</ele><time>2026-03-28T09:54:17.045Z</time></trkpt><trkpt lat="43.4372" lon="11.2988917"><ele>490.6</ele><time>2026-03-28T09:54:18.044Z</time></trkpt><trkpt lat="43.4371117" lon="11.29879"><ele>488.4</ele><time>2026-03-28T09:54:19.044Z</time></trkpt><trkpt lat="43.4370283" lon="11.2986983"><ele>486.2</ele><time>2026-03-28T09:54:20.044Z</time></trkpt><trkpt lat="43.436945" lon="11.2986133"><ele>484.0</ele><time>2026-03-28T09:54:21.045Z</time></trkpt><trkpt lat="43.4368633" lon="11.29855"><ele>482.79999999999995</ele><time>2026-03-28T09:54:22.045Z</time></trkpt><trkpt lat="43.4367767" lon="11.2985133"><ele>481.59999999999997</ele><time>2026-03-28T09:54:23.044Z</time></trkpt><trkpt lat="43.4366833" lon="11.298485"><ele>480.4</ele><time>2026-03-28T09:54:24.045Z</time></trkpt><trkpt lat="43.4365783" lon="11.2984467"><ele>479.2</ele><time>2026-03-28T09:54:25.045Z</time></trkpt><trkpt lat="43.4364833" lon="11.2983817"><ele>478.0</ele><time>2026-03-28T09:54:26.045Z</time></trkpt><trkpt lat="43.4363833" lon="11.29831"><ele>476.75</ele><time>2026-03-28T09:54:27.045Z</time></trkpt><trkpt lat="43.43629" lon="11.2982633"><ele>475.5</ele><time>2026-03-28T09:54:28.045Z</time></trkpt><trkpt lat="43.43618" lon="11.2982183"><ele>474.25</ele><time>2026-03-28T09:54:29.045Z</time></trkpt><trkpt lat="43.4360633" lon="11.2981917"><ele>473.0</ele><time>2026-03-28T09:54:30.045Z</time></trkpt><trkpt lat="43.435945" lon="11.2981867"><ele>473.0</ele><time>2026-03-28T09:54:31.044Z</time></trkpt><trkpt lat="43.4358183" lon="11.29819"><ele>473.0</ele><time>2026-03-28T09:54:32.044Z</time></trkpt><trkpt lat="43.4356867" lon="11.2981833"><ele>473.0</ele><time>2026-03-28T09:54:33.045Z</time></trkpt><trkpt lat="43.4355683" lon="11.2981517"><ele>473.0</ele><time>2026-03-28T09:54:34.045Z</time></trkpt><trkpt lat="43.435465" lon="11.2981033"><ele>472.0</ele><time>2026-03-28T09:54:35.045Z</time></trkpt><trkpt lat="43.4353783" lon="11.29806"><ele>470.99999999999994</ele><time>2026-03-28T09:54:36.045Z</time></trkpt><trkpt lat="43.4353133" lon="11.2980417"><ele>469.99999999999994</ele><time>2026-03-28T09:54:37.045Z</time></trkpt><trkpt lat="43.4353583" lon="11.2979267"><ele>469.0</ele><time>2026-03-28T09:54:45.045Z</time></trkpt><trkpt lat="43.4354167" lon="11.2977633"><ele>468.0</ele><time>2026-03-28T09:54:47.045Z</time></trkpt><trkpt lat="43.4354483" lon="11.2976633"><ele>468.59999999999997</ele><time>2026-03-28T09:54:48.044Z</time></trkpt><trkpt lat="43.4354883" lon="11.2975683"><ele>469.19999999999993</ele><time>2026-03-28T09:54:49.045Z</time></trkpt><trkpt lat="43.435555" lon="11.297485"><ele>469.8</ele><time>2026-03-28T09:54:50.045Z</time></trkpt><trkpt lat="43.435635" lon="11.2974"><ele>470.4</ele><time>2026-03-28T09:54:51.045Z</time></trkpt><trkpt lat="43.4357333" lon="11.2973283"><ele>471.0</ele><time>2026-03-28T09:54:52.045Z</time></trkpt><trkpt lat="43.43585" lon="11.297265"><ele>467.5</ele><time>2026-03-28T09:54:53.045Z</time></trkpt><trkpt lat="43.4359667" lon="11.2972083"><ele>464.0</ele><time>2026-03-28T09:54:54.045Z</time></trkpt><trkpt lat="43.43609" lon="11.2971533"><ele>460.5</ele><time>2026-03-28T09:54:55.044Z</time></trkpt><trkpt lat="43.4362217" lon="11.2970917"><ele>457.0</ele><time>2026-03-28T09:54:56.045Z</time></trkpt><trkpt lat="43.4363483" lon="11.2970417"><ele>457.0</ele><time>2026-03-28T09:54:57.045Z</time></trkpt><trkpt lat="43.4364817" lon="11.2969983"><ele>457.0</ele><time>2026-03-28T09:54:58.045Z</time></trkpt><trkpt lat="43.4365983" lon="11.2969617"><ele>457.0</ele><time>2026-03-28T09:54:59.045Z</time></trkpt><trkpt lat="43.4366983" lon="11.2969217"><ele>457.0</ele><time>2026-03-28T09:55:00.045Z</time></trkpt><trkpt lat="43.4367867" lon="11.29688"><ele>457.0</ele><time>2026-03-28T09:55:01.045Z</time></trkpt><trkpt lat="43.4368567" lon="11.2968267"><ele>457.00000000000006</ele><time>2026-03-28T09:55:02.045Z</time></trkpt><trkpt lat="43.4369217" lon="11.2966833"><ele>457.00000000000006</ele><time>2026-03-28T09:55:04.045Z</time></trkpt><trkpt lat="43.4369217" lon="11.296595"><ele>457.0</ele><time>2026-03-28T09:55:05.045Z</time></trkpt><trkpt lat="43.436885" lon="11.2964867"><ele>457.0</ele><time>2026-03-28T09:55:06.045Z</time></trkpt><trkpt lat="43.43683" lon="11.2963783"><ele>457.0</ele><time>2026-03-28T09:55:07.045Z</time></trkpt><trkpt lat="43.4367767" lon="11.2962533"><ele>457.0</ele><time>2026-03-28T09:55:08.045Z</time></trkpt><trkpt lat="43.4367267" lon="11.2961167"><ele>457.0</ele><time>2026-03-28T09:55:09.045Z</time></trkpt><trkpt lat="43.4366717" lon="11.295945"><ele>457.0</ele><time>2026-03-28T09:55:10.045Z</time></trkpt><trkpt lat="43.4366133" lon="11.295765"><ele>458.25</ele><time>2026-03-28T09:55:11.045Z</time></trkpt><trkpt lat="43.4365617" lon="11.29558"><ele>459.5</ele><time>2026-03-28T09:55:12.045Z</time></trkpt><trkpt lat="43.4365133" lon="11.29541"><ele>460.75</ele><time>2026-03-28T09:55:13.045Z</time></trkpt><trkpt lat="43.436465" lon="11.2952417"><ele>462.0</ele><time>2026-03-28T09:55:14.044Z</time></trkpt><trkpt lat="43.43641" lon="11.2950933"><ele>462.0</ele><time>2026-03-28T09:55:15.045Z</time></trkpt><trkpt lat="43.436355" lon="11.2949667"><ele>462.0</ele><time>2026-03-28T09:55:16.045Z</time></trkpt><trkpt lat="43.4362833" lon="11.2948517"><ele>462.0</ele><time>2026-03-28T09:55:17.045Z</time></trkpt><trkpt lat="43.436205" lon="11.2947317"><ele>462.0</ele><time>2026-03-28T09:55:18.044Z</time></trkpt><trkpt lat="43.4361083" lon="11.2946167"><ele>459.0</ele><time>2026-03-28T09:55:19.045Z</time></trkpt><trkpt lat="43.4360183" lon="11.2944967"><ele>456.0</ele><time>2026-03-28T09:55:20.045Z</time></trkpt><trkpt lat="43.4359383" lon="11.2943583"><ele>453.0</ele><time>2026-03-28T09:55:21.044Z</time></trkpt><trkpt lat="43.4358467" lon="11.2942267"><ele>450.0</ele><time>2026-03-28T09:55:22.045Z</time></trkpt><trkpt lat="43.43576" lon="11.294085"><ele>450.0</ele><time>2026-03-28T09:55:23.045Z</time></trkpt><trkpt lat="43.435675" lon="11.2939567"><ele>450.0</ele><time>2026-03-28T09:55:24.045Z</time></trkpt><trkpt lat="43.43558" lon="11.2938383"><ele>450.0</ele><time>2026-03-28T09:55:25.045Z</time></trkpt><trkpt lat="43.4354633" lon="11.29373"><ele>450.0</ele><time>2026-03-28T09:55:26.044Z</time></trkpt><trkpt lat="43.4353433" lon="11.2936433"><ele>446.75</ele><time>2026-03-28T09:55:27.045Z</time></trkpt><trkpt lat="43.4352367" lon="11.2935483"><ele>443.5</ele><time>2026-03-28T09:55:28.045Z</time></trkpt><trkpt lat="43.43515" lon="11.2934383"><ele>440.25</ele><time>2026-03-28T09:55:29.045Z</time></trkpt><trkpt lat="43.43508" lon="11.2933067"><ele>437.0</ele><time>2026-03-28T09:55:30.045Z</time></trkpt><trkpt lat="43.43502" lon="11.2931483"><ele>438.5</ele><time>2026-03-28T09:55:31.045Z</time></trkpt><trkpt lat="43.4349683" lon="11.2929883"><ele>440.0</ele><time>2026-03-28T09:55:32.044Z</time></trkpt><trkpt lat="43.43492" lon="11.29283"><ele>441.5</ele><time>2026-03-28T09:55:33.044Z</time></trkpt><trkpt lat="43.43489" lon="11.292665"><ele>443.0</ele><time>2026-03-28T09:55:34.045Z</time></trkpt><trkpt lat="43.4348683" lon="11.2924967"><ele>443.0</ele><time>2026-03-28T09:55:35.045Z</time></trkpt><trkpt lat="43.4348567" lon="11.2923417"><ele>443.0</ele><time>2026-03-28T09:55:36.045Z</time></trkpt><trkpt lat="43.4348483" lon="11.2921667"><ele>443.0</ele><time>2026-03-28T09:55:37.045Z</time></trkpt><trkpt lat="43.4348383" lon="11.2920117"><ele>443.0</ele><time>2026-03-28T09:55:38.044Z</time></trkpt><trkpt lat="43.4348183" lon="11.2918783"><ele>442.25</ele><time>2026-03-28T09:55:39.045Z</time></trkpt><trkpt lat="43.4347833" lon="11.291755"><ele>441.5</ele><time>2026-03-28T09:55:40.045Z</time></trkpt><trkpt lat="43.43473" lon="11.29163"><ele>440.75</ele><time>2026-03-28T09:55:41.045Z</time></trkpt><trkpt lat="43.434655" lon="11.291495"><ele>440.0</ele><time>2026-03-28T09:55:42.045Z</time></trkpt><trkpt lat="43.4345717" lon="11.2913483"><ele>437.25</ele><time>2026-03-28T09:55:43.045Z</time></trkpt><trkpt lat="43.434485" lon="11.29119"><ele>434.5</ele><time>2026-03-28T09:55:44.044Z</time></trkpt><trkpt lat="43.4343867" lon="11.2910333"><ele>431.75</ele><time>2026-03-28T09:55:45.045Z</time></trkpt><trkpt lat="43.4343033" lon="11.290885"><ele>429.0</ele><time>2026-03-28T09:55:46.045Z</time></trkpt><trkpt lat="43.43425" lon="11.29073"><ele>428.25</ele><time>2026-03-28T09:55:47.045Z</time></trkpt><trkpt lat="43.4342133" lon="11.290575"><ele>427.5</ele><time>2026-03-28T09:55:48.045Z</time></trkpt><trkpt lat="43.434195" lon="11.2904083"><ele>426.75</ele><time>2026-03-28T09:55:49.045Z</time></trkpt><trkpt lat="43.4341917" lon="11.2902283"><ele>426.0</ele><time>2026-03-28T09:55:50.045Z</time></trkpt><trkpt lat="43.4341867" lon="11.2900317"><ele>426.0</ele><time>2026-03-28T09:55:51.045Z</time></trkpt><trkpt lat="43.4341767" lon="11.2898733"><ele>426.0</ele><time>2026-03-28T09:55:52.045Z</time></trkpt><trkpt lat="43.434145" lon="11.2897417"><ele>426.0</ele><time>2026-03-28T09:55:53.045Z</time></trkpt><trkpt lat="43.4340883" lon="11.2896183"><ele>426.0</ele><time>2026-03-28T09:55:54.045Z</time></trkpt><trkpt lat="43.4340133" lon="11.289495"><ele>426.0</ele><time>2026-03-28T09:55:55.045Z</time></trkpt><trkpt lat="43.4339233" lon="11.28938"><ele>426.25</ele><time>2026-03-28T09:55:56.045Z</time></trkpt><trkpt lat="43.4338233" lon="11.289265"><ele>426.5</ele><time>2026-03-28T09:55:57.045Z</time></trkpt><trkpt lat="43.43372" lon="11.289175"><ele>426.75</ele><time>2026-03-28T09:55:58.045Z</time></trkpt><trkpt lat="43.4336317" lon="11.28908"><ele>427.0</ele><time>2026-03-28T09:55:59.045Z</time></trkpt><trkpt lat="43.4335367" lon="11.2889983"><ele>427.75</ele><time>2026-03-28T09:56:00.045Z</time></trkpt><trkpt lat="43.4334383" lon="11.2889167"><ele>428.5</ele><time>2026-03-28T09:56:01.045Z</time></trkpt><trkpt lat="43.4333433" lon="11.28882"><ele>429.25</ele><time>2026-03-28T09:56:02.045Z</time></trkpt><trkpt lat="43.4332433" lon="11.2887283"><ele>430.0</ele><time>2026-03-28T09:56:03.045Z</time></trkpt><trkpt lat="43.43314" lon="11.2886483"><ele>430.0</ele><time>2026-03-28T09:56:04.045Z</time></trkpt><trkpt lat="43.4330417" lon="11.2885717"><ele>430.0</ele><time>2026-03-28T09:56:05.045Z</time></trkpt><trkpt lat="43.43293" lon="11.2885"><ele>430.0</ele><time>2026-03-28T09:56:06.045Z</time></trkpt><trkpt lat="43.4328217" lon="11.28842"><ele>430.0</ele><time>2026-03-28T09:56:07.045Z</time></trkpt><trkpt lat="43.4327117" lon="11.2883667"><ele>427.2</ele><time>2026-03-28T09:56:08.044Z</time></trkpt><trkpt lat="43.432605" lon="11.2883183"><ele>424.4</ele><time>2026-03-28T09:56:09.045Z</time></trkpt><trkpt lat="43.432505" lon="11.2882683"><ele>421.6</ele><time>2026-03-28T09:56:10.045Z</time></trkpt><trkpt lat="43.4324083" lon="11.2882367"><ele>418.8</ele><time>2026-03-28T09:56:11.045Z</time></trkpt><trkpt lat="43.4323083" lon="11.2882317"><ele>416.0</ele><time>2026-03-28T09:56:12.045Z</time></trkpt><trkpt lat="43.4322183" lon="11.288255"><ele>413.66666666666663</ele><time>2026-03-28T09:56:13.044Z</time></trkpt><trkpt lat="43.4321383" lon="11.2882983"><ele>411.3333333333333</ele><time>2026-03-28T09:56:14.045Z</time></trkpt><trkpt lat="43.43206" lon="11.2883367"><ele>409.0</ele><time>2026-03-28T09:56:15.044Z</time></trkpt><trkpt lat="43.4319967" lon="11.2883667"><ele>406.66666666666663</ele><time>2026-03-28T09:56:16.045Z</time></trkpt><trkpt lat="43.4318817" lon="11.2883317"><ele>404.3333333333333</ele><time>2026-03-28T09:56:18.045Z</time></trkpt><trkpt lat="43.4318367" lon="11.2882233"><ele>402.0</ele><time>2026-03-28T09:56:20.045Z</time></trkpt><trkpt lat="43.431865" lon="11.28814"><ele>401.0</ele><time>2026-03-28T09:56:21.045Z</time></trkpt><trkpt lat="43.4319133" lon="11.28804"><ele>400.0</ele><time>2026-03-28T09:56:22.045Z</time></trkpt><trkpt lat="43.4319733" lon="11.28792"><ele>399.0</ele><time>2026-03-28T09:56:23.045Z</time></trkpt><trkpt lat="43.4320483" lon="11.2877883"><ele>398.0</ele><time>2026-03-28T09:56:24.045Z</time></trkpt><trkpt lat="43.4321" lon="11.2876683"><ele>397.0</ele><time>2026-03-28T09:56:25.045Z</time></trkpt><trkpt lat="43.4321367" lon="11.28754"><ele>396.20000000000005</ele><time>2026-03-28T09:56:26.045Z</time></trkpt><trkpt lat="43.43215" lon="11.287415"><ele>395.4</ele><time>2026-03-28T09:56:27.045Z</time></trkpt><trkpt lat="43.432145" lon="11.2872883"><ele>394.6</ele><time>2026-03-28T09:56:28.045Z</time></trkpt><trkpt lat="43.4321367" lon="11.28717"><ele>393.79999999999995</ele><time>2026-03-28T09:56:29.045Z</time></trkpt><trkpt lat="43.4321067" lon="11.2870583"><ele>393.0</ele><time>2026-03-28T09:56:30.044Z</time></trkpt><trkpt lat="43.4320583" lon="11.2869383"><ele>393.0</ele><time>2026-03-28T09:56:31.045Z</time></trkpt><trkpt lat="43.431985" lon="11.2868067"><ele>393.0</ele><time>2026-03-28T09:56:32.045Z</time></trkpt><trkpt lat="43.4319017" lon="11.286655"><ele>393.0</ele><time>2026-03-28T09:56:33.045Z</time></trkpt><trkpt lat="43.4318167" lon="11.2865117"><ele>393.0</ele><time>2026-03-28T09:56:34.045Z</time></trkpt><trkpt lat="43.4317483" lon="11.2863867"><ele>391.79999999999995</ele><time>2026-03-28T09:56:35.045Z</time></trkpt><trkpt lat="43.4316833" lon="11.2862633"><ele>390.6</ele><time>2026-03-28T09:56:36.045Z</time></trkpt><trkpt lat="43.4316083" lon="11.286155"><ele>389.4</ele><time>2026-03-28T09:56:37.045Z</time></trkpt><trkpt lat="43.4315267" lon="11.2860633"><ele>388.20000000000005</ele><time>2026-03-28T09:56:38.045Z</time></trkpt><trkpt lat="43.4314433" lon="11.2859733"><ele>387.0</ele><time>2026-03-28T09:56:39.044Z</time></trkpt><trkpt lat="43.4313633" lon="11.2858983"><ele>386.1666666666667</ele><time>2026-03-28T09:56:40.045Z</time></trkpt><trkpt lat="43.431295" lon="11.2858183"><ele>385.3333333333333</ele><time>2026-03-28T09:56:41.045Z</time></trkpt><trkpt lat="43.431235" lon="11.2857467"><ele>384.5</ele><time>2026-03-28T09:56:42.045Z</time></trkpt><trkpt lat="43.4312" lon="11.2856683"><ele>383.66666666666663</ele><time>2026-03-28T09:56:43.045Z</time></trkpt><trkpt lat="43.43117" lon="11.2855367"><ele>382.8333333333333</ele><time>2026-03-28T09:56:45.045Z</time></trkpt><trkpt lat="43.431115" lon="11.2854167"><ele>382.0</ele><time>2026-03-28T09:56:47.044Z</time></trkpt><trkpt lat="43.4310683" lon="11.2853467"><ele>381.20000000000005</ele><time>2026-03-28T09:56:48.045Z</time></trkpt><trkpt lat="43.431005" lon="11.2852583"><ele>380.4</ele><time>2026-03-28T09:56:49.044Z</time></trkpt><trkpt lat="43.43094" lon="11.2851583"><ele>379.6</ele><time>2026-03-28T09:56:50.045Z</time></trkpt><trkpt lat="43.430875" lon="11.2850367"><ele>378.79999999999995</ele><time>2026-03-28T09:56:51.044Z</time></trkpt><trkpt lat="43.4308133" lon="11.28491"><ele>378.0</ele><time>2026-03-28T09:56:52.045Z</time></trkpt><trkpt lat="43.43076" lon="11.284765"><ele>376.4</ele><time>2026-03-28T09:56:53.045Z</time></trkpt><trkpt lat="43.430725" lon="11.284625"><ele>374.79999999999995</ele><time>2026-03-28T09:56:54.045Z</time></trkpt><trkpt lat="43.4307083" lon="11.284485"><ele>373.2</ele><time>2026-03-28T09:56:55.045Z</time></trkpt><trkpt lat="43.430705" lon="11.28434"><ele>371.6</ele><time>2026-03-28T09:56:56.044Z</time></trkpt><trkpt lat="43.4307033" lon="11.2842033"><ele>370.0</ele><time>2026-03-28T09:56:57.045Z</time></trkpt><trkpt lat="43.4307183" lon="11.2840483"><ele>368.6</ele><time>2026-03-28T09:56:58.045Z</time></trkpt><trkpt lat="43.4307367" lon="11.28389"><ele>367.2</ele><time>2026-03-28T09:56:59.044Z</time></trkpt><trkpt lat="43.430755" lon="11.28375"><ele>365.79999999999995</ele><time>2026-03-28T09:57:00.045Z</time></trkpt><trkpt lat="43.4307533" lon="11.2836383"><ele>364.4</ele><time>2026-03-28T09:57:01.045Z</time></trkpt><trkpt lat="43.4307283" lon="11.2835117"><ele>363.0</ele><time>2026-03-28T09:57:02.045Z</time></trkpt><trkpt lat="43.4306867" lon="11.2833833"><ele>363.0</ele><time>2026-03-28T09:57:03.045Z</time></trkpt><trkpt lat="43.43065" lon="11.28325"><ele>363.0</ele><time>2026-03-28T09:57:04.045Z</time></trkpt><trkpt lat="43.4306033" lon="11.2831283"><ele>363.0</ele><time>2026-03-28T09:57:05.045Z</time></trkpt><trkpt lat="43.4305383" lon="11.28302"><ele>363.0</ele><time>2026-03-28T09:57:06.045Z</time></trkpt><trkpt lat="43.4304733" lon="11.2829383"><ele>363.0</ele><time>2026-03-28T09:57:07.045Z</time></trkpt><trkpt lat="43.4304033" lon="11.282855"><ele>362.59999999999997</ele><time>2026-03-28T09:57:08.045Z</time></trkpt><trkpt lat="43.43034" lon="11.282765"><ele>362.2</ele><time>2026-03-28T09:57:09.045Z</time></trkpt><trkpt lat="43.4302867" lon="11.2826667"><ele>361.8</ele><time>2026-03-28T09:57:10.045Z</time></trkpt><trkpt lat="43.4302417" lon="11.282545"><ele>361.4</ele><time>2026-03-28T09:57:11.044Z</time></trkpt><trkpt lat="43.4302" lon="11.2824017"><ele>361.0</ele><time>2026-03-28T09:57:12.045Z</time></trkpt><trkpt lat="43.4301633" lon="11.2822683"><ele>360.20000000000005</ele><time>2026-03-28T09:57:13.044Z</time></trkpt><trkpt lat="43.4301183" lon="11.2821533"><ele>359.40000000000003</ele><time>2026-03-28T09:57:14.045Z</time></trkpt><trkpt lat="43.4300617" lon="11.2820583"><ele>358.6</ele><time>2026-03-28T09:57:15.045Z</time></trkpt><trkpt lat="43.42999" lon="11.2819717"><ele>357.8</ele><time>2026-03-28T09:57:16.045Z</time></trkpt><trkpt lat="43.4299117" lon="11.2819067"><ele>357.0</ele><time>2026-03-28T09:57:17.045Z</time></trkpt><trkpt lat="43.4298167" lon="11.2818533"><ele>357.0</ele><time>2026-03-28T09:57:18.044Z</time></trkpt><trkpt lat="43.4297183" lon="11.2818033"><ele>357.0</ele><time>2026-03-28T09:57:19.045Z</time></trkpt><trkpt lat="43.429625" lon="11.2817467"><ele>357.0</ele><time>2026-03-28T09:57:20.044Z</time></trkpt><trkpt lat="43.4295533" lon="11.2816567"><ele>357.0</ele><time>2026-03-28T09:57:21.045Z</time></trkpt><trkpt lat="43.429485" lon="11.28153"><ele>357.0</ele><time>2026-03-28T09:57:22.044Z</time></trkpt><trkpt lat="43.4294217" lon="11.2814"><ele>355.40000000000003</ele><time>2026-03-28T09:57:23.045Z</time></trkpt><trkpt lat="43.42936" lon="11.2812883"><ele>353.8</ele><time>2026-03-28T09:57:24.045Z</time></trkpt><trkpt lat="43.42929" lon="11.2812183"><ele>352.2</ele><time>2026-03-28T09:57:25.045Z</time></trkpt><trkpt lat="43.4292133" lon="11.2811833"><ele>350.6</ele><time>2026-03-28T09:57:26.045Z</time></trkpt><trkpt lat="43.429135" lon="11.2811667"><ele>349.0</ele><time>2026-03-28T09:57:27.045Z</time></trkpt><trkpt lat="43.4290283" lon="11.28117"><ele>349.0</ele><time>2026-03-28T09:57:28.045Z</time></trkpt><trkpt lat="43.4289183" lon="11.2811767"><ele>349.0</ele><time>2026-03-28T09:57:29.045Z</time></trkpt><trkpt lat="43.4287583" lon="11.2812133"><ele>349.0</ele><time>2026-03-28T09:57:30.045Z</time></trkpt><trkpt lat="43.42858" lon="11.2812317"><ele>349.66666666666663</ele><time>2026-03-28T09:57:31.045Z</time></trkpt><trkpt lat="43.428395" lon="11.2812417"><ele>350.3333333333333</ele><time>2026-03-28T09:57:32.045Z</time></trkpt><trkpt lat="43.4282433" lon="11.28125"><ele>351.0</ele><time>2026-03-28T09:57:33.045Z</time></trkpt><trkpt lat="43.4281033" lon="11.2812583"><ele>351.25</ele><time>2026-03-28T09:57:34.045Z</time></trkpt><trkpt lat="43.427965" lon="11.2812583"><ele>351.5</ele><time>2026-03-28T09:57:35.045Z</time></trkpt><trkpt lat="43.4278217" lon="11.2812467"><ele>351.75</ele><time>2026-03-28T09:57:36.044Z</time></trkpt><trkpt lat="43.42767" lon="11.281235"><ele>352.0</ele><time>2026-03-28T09:57:37.045Z</time></trkpt><trkpt lat="43.4275117" lon="11.2812217"><ele>352.0</ele><time>2026-03-28T09:57:38.044Z</time></trkpt><trkpt lat="43.4273683" lon="11.2812117"><ele>352.0</ele><time>2026-03-28T09:57:39.045Z</time></trkpt><trkpt lat="43.4272167" lon="11.2811983"><ele>352.0</ele><time>2026-03-28T09:57:40.045Z</time></trkpt><trkpt lat="43.42707" lon="11.2811867"><ele>352.0</ele><time>2026-03-28T09:57:41.044Z</time></trkpt><trkpt lat="43.42693" lon="11.28118"><ele>351.5</ele><time>2026-03-28T09:57:42.045Z</time></trkpt><trkpt lat="43.4267967" lon="11.2811717"><ele>351.0</ele><time>2026-03-28T09:57:43.045Z</time></trkpt><trkpt lat="43.4266683" lon="11.2811617"><ele>350.5</ele><time>2026-03-28T09:57:44.045Z</time></trkpt><trkpt lat="43.4265333" lon="11.2811583"><ele>350.0</ele><time>2026-03-28T09:57:45.044Z</time></trkpt><trkpt lat="43.4263833" lon="11.28115"><ele>349.5</ele><time>2026-03-28T09:57:46.045Z</time></trkpt><trkpt lat="43.4262317" lon="11.2811417"><ele>349.0</ele><time>2026-03-28T09:57:47.045Z</time></trkpt><trkpt lat="43.4261033" lon="11.281125"><ele>348.5</ele><time>2026-03-28T09:57:48.045Z</time></trkpt><trkpt lat="43.4259667" lon="11.2811217"><ele>348.0</ele><time>2026-03-28T09:57:49.045Z</time></trkpt><trkpt lat="43.425835" lon="11.281115"><ele>348.0</ele><time>2026-03-28T09:57:50.045Z</time></trkpt><trkpt lat="43.4257183" lon="11.281105"><ele>348.0</ele><time>2026-03-28T09:57:51.045Z</time></trkpt><trkpt lat="43.4255833" lon="11.2810967"><ele>348.0</ele><time>2026-03-28T09:57:52.045Z</time></trkpt><trkpt lat="43.4254583" lon="11.281115"><ele>348.0</ele><time>2026-03-28T09:57:53.045Z</time></trkpt><trkpt lat="43.4253317" lon="11.2811483"><ele>347.0</ele><time>2026-03-28T09:57:54.045Z</time></trkpt><trkpt lat="43.4251983" lon="11.281185"><ele>346.0</ele><time>2026-03-28T09:57:55.045Z</time></trkpt><trkpt lat="43.42506" lon="11.281225"><ele>345.0</ele><time>2026-03-28T09:57:56.045Z</time></trkpt><trkpt lat="43.4249217" lon="11.281265"><ele>344.0</ele><time>2026-03-28T09:57:57.045Z</time></trkpt><trkpt lat="43.424805" lon="11.2812967"><ele>344.0</ele><time>2026-03-28T09:57:58.045Z</time></trkpt><trkpt lat="43.4247033" lon="11.2813333"><ele>344.0</ele><time>2026-03-28T09:57:59.044Z</time></trkpt><trkpt lat="43.4246367" lon="11.281345"><ele>344.0</ele><time>2026-03-28T09:58:00.044Z</time></trkpt><trkpt lat="43.4245733" lon="11.2812767"><ele>344.0</ele><time>2026-03-28T09:58:02.045Z</time></trkpt><trkpt lat="43.4246033" lon="11.28111"><ele>344.0</ele><time>2026-03-28T09:58:04.044Z</time></trkpt><trkpt lat="43.4246417" lon="11.28101"><ele>344.0</ele><time>2026-03-28T09:58:05.045Z</time></trkpt><trkpt lat="43.424705" lon="11.2808917"><ele>344.0</ele><time>2026-03-28T09:58:06.045Z</time></trkpt><trkpt lat="43.4247833" lon="11.2807567"><ele>344.0</ele><time>2026-03-28T09:58:07.045Z</time></trkpt><trkpt lat="43.42488" lon="11.2806033"><ele>344.0</ele><time>2026-03-28T09:58:08.045Z</time></trkpt><trkpt lat="43.42498" lon="11.2804483"><ele>341.0</ele><time>2026-03-28T09:58:09.045Z</time></trkpt><trkpt lat="43.4250817" lon="11.28028"><ele>338.0</ele><time>2026-03-28T09:58:10.045Z</time></trkpt><trkpt lat="43.42517" lon="11.28012"><ele>335.0</ele><time>2026-03-28T09:58:11.044Z</time></trkpt><trkpt lat="43.4252767" lon="11.2799567"><ele>335.0</ele><time>2026-03-28T09:58:12.045Z</time></trkpt><trkpt lat="43.4253783" lon="11.2797933"><ele>335.0</ele><time>2026-03-28T09:58:13.045Z</time></trkpt><trkpt lat="43.42548" lon="11.2796367"><ele>335.0</ele><time>2026-03-28T09:58:14.045Z</time></trkpt><trkpt lat="43.4255733" lon="11.2794983"><ele>335.0</ele><time>2026-03-28T09:58:15.045Z</time></trkpt><trkpt lat="43.425645" lon="11.27937"><ele>335.2</ele><time>2026-03-28T09:58:16.045Z</time></trkpt><trkpt lat="43.4257033" lon="11.2792567"><ele>335.4</ele><time>2026-03-28T09:58:17.045Z</time></trkpt><trkpt lat="43.42574" lon="11.2791667"><ele>335.6</ele><time>2026-03-28T09:58:18.045Z</time></trkpt><trkpt lat="43.425765" lon="11.2790833"><ele>335.8</ele><time>2026-03-28T09:58:19.045Z</time></trkpt><trkpt lat="43.4257517" lon="11.2789467"><ele>336.0</ele><time>2026-03-28T09:58:21.045Z</time></trkpt><trkpt lat="43.4256767" lon="11.278805"><ele>333.6</ele><time>2026-03-28T09:58:23.044Z</time></trkpt><trkpt lat="43.4256033" lon="11.2787333"><ele>331.20000000000005</ele><time>2026-03-28T09:58:24.045Z</time></trkpt><trkpt lat="43.4255083" lon="11.2786467"><ele>328.79999999999995</ele><time>2026-03-28T09:58:25.045Z</time></trkpt><trkpt lat="43.4254017" lon="11.2785567"><ele>326.4</ele><time>2026-03-28T09:58:26.045Z</time></trkpt><trkpt lat="43.4253017" lon="11.2784667"><ele>324.0</ele><time>2026-03-28T09:58:27.045Z</time></trkpt><trkpt lat="43.425205" lon="11.2783867"><ele>323.79999999999995</ele><time>2026-03-28T09:58:28.045Z</time></trkpt><trkpt lat="43.4251283" lon="11.2783133"><ele>323.59999999999997</ele><time>2026-03-28T09:58:29.045Z</time></trkpt><trkpt lat="43.4250483" lon="11.27825"><ele>323.4</ele><time>2026-03-28T09:58:30.045Z</time></trkpt><trkpt lat="43.424965" lon="11.2782117"><ele>323.2</ele><time>2026-03-28T09:58:31.045Z</time></trkpt><trkpt lat="43.4248683" lon="11.27818"><ele>323.0</ele><time>2026-03-28T09:58:32.045Z</time></trkpt><trkpt lat="43.4247617" lon="11.2781567"><ele>323.0</ele><time>2026-03-28T09:58:33.045Z</time></trkpt><trkpt lat="43.4246517" lon="11.2781533"><ele>323.0</ele><time>2026-03-28T09:58:34.045Z</time></trkpt><trkpt lat="43.4245333" lon="11.2781467"><ele>323.0</ele><time>2026-03-28T09:58:35.045Z</time></trkpt><trkpt lat="43.4244133" lon="11.27814"><ele>323.0</ele><time>2026-03-28T09:58:36.045Z</time></trkpt><trkpt lat="43.424285" lon="11.27814"><ele>321.25</ele><time>2026-03-28T09:58:37.044Z</time></trkpt><trkpt lat="43.4241583" lon="11.2781317"><ele>319.5</ele><time>2026-03-28T09:58:38.044Z</time></trkpt><trkpt lat="43.4240283" lon="11.278135"><ele>317.75</ele><time>2026-03-28T09:58:39.045Z</time></trkpt><trkpt lat="43.4239017" lon="11.27814"><ele>316.0</ele><time>2026-03-28T09:58:40.045Z</time></trkpt><trkpt lat="43.4237717" lon="11.2781567"><ele>313.0</ele><time>2026-03-28T09:58:41.045Z</time></trkpt><trkpt lat="43.4236433" lon="11.2781867"><ele>310.0</ele><time>2026-03-28T09:58:42.045Z</time></trkpt><trkpt lat="43.4235167" lon="11.2782033"><ele>307.0</ele><time>2026-03-28T09:58:43.044Z</time></trkpt><trkpt lat="43.4233933" lon="11.2782133"><ele>304.0</ele><time>2026-03-28T09:58:44.045Z</time></trkpt><trkpt lat="43.423275" lon="11.2782117"><ele>304.0</ele><time>2026-03-28T09:58:45.045Z</time></trkpt><trkpt lat="43.4231533" lon="11.2782133"><ele>304.0</ele><time>2026-03-28T09:58:46.045Z</time></trkpt><trkpt lat="43.4230233" lon="11.2782267"><ele>304.0</ele><time>2026-03-28T09:58:47.044Z</time></trkpt><trkpt lat="43.422885" lon="11.2782617"><ele>304.0</ele><time>2026-03-28T09:58:48.045Z</time></trkpt><trkpt lat="43.4227567" lon="11.2782817"><ele>302.0</ele><time>2026-03-28T09:58:49.045Z</time></trkpt><trkpt lat="43.4226283" lon="11.2782983"><ele>300.0</ele><time>2026-03-28T09:58:50.045Z</time></trkpt><trkpt lat="43.4225033" lon="11.2783117"><ele>298.0</ele><time>2026-03-28T09:58:51.045Z</time></trkpt><trkpt lat="43.42239" lon="11.278315"><ele>296.0</ele><time>2026-03-28T09:58:52.045Z</time></trkpt><trkpt lat="43.422265" lon="11.2783117"><ele>296.0</ele><time>2026-03-28T09:58:53.045Z</time></trkpt><trkpt lat="43.4221483" lon="11.2782967"><ele>296.0</ele><time>2026-03-28T09:58:54.045Z</time></trkpt><trkpt lat="43.4220367" lon="11.27826"><ele>296.0</ele><time>2026-03-28T09:58:55.045Z</time></trkpt><trkpt lat="43.4219317" lon="11.2781933"><ele>296.0</ele><time>2026-03-28T09:58:56.045Z</time></trkpt><trkpt lat="43.4218383" lon="11.2781033"><ele>295.40000000000003</ele><time>2026-03-28T09:58:57.045Z</time></trkpt><trkpt lat="43.421755" lon="11.2780033"><ele>294.8</ele><time>2026-03-28T09:58:58.044Z</time></trkpt><trkpt lat="43.4216767" lon="11.27791"><ele>294.20000000000005</ele><time>2026-03-28T09:58:59.044Z</time></trkpt><trkpt lat="43.4216133" lon="11.277835"><ele>293.6</ele><time>2026-03-28T09:59:00.045Z</time></trkpt><trkpt lat="43.4215267" lon="11.2777733"><ele>293.0</ele><time>2026-03-28T09:59:02.045Z</time></trkpt><trkpt lat="43.421425" lon="11.2778133"><ele>293.0</ele><time>2026-03-28T09:59:04.045Z</time></trkpt><trkpt lat="43.421365" lon="11.277885"><ele>293.0</ele><time>2026-03-28T09:59:05.045Z</time></trkpt><trkpt lat="43.4213" lon="11.2779933"><ele>293.0</ele><time>2026-03-28T09:59:06.045Z</time></trkpt><trkpt lat="43.42122" lon="11.278115"><ele>293.0</ele><time>2026-03-28T09:59:07.045Z</time></trkpt><trkpt lat="43.4211283" lon="11.27823"><ele>293.0</ele><time>2026-03-28T09:59:08.045Z</time></trkpt><trkpt lat="43.421035" lon="11.2783467"><ele>293.25</ele><time>2026-03-28T09:59:09.045Z</time></trkpt><trkpt lat="43.420935" lon="11.278465"><ele>293.5</ele><time>2026-03-28T09:59:10.045Z</time></trkpt><trkpt lat="43.4208467" lon="11.2785933"><ele>293.75</ele><time>2026-03-28T09:59:11.045Z</time></trkpt><trkpt lat="43.420755" lon="11.2787233"><ele>294.0</ele><time>2026-03-28T09:59:12.045Z</time></trkpt><trkpt lat="43.4206783" lon="11.278845"><ele>292.25</ele><time>2026-03-28T09:59:13.045Z</time></trkpt><trkpt lat="43.42059" lon="11.2789883"><ele>290.5</ele><time>2026-03-28T09:59:14.045Z</time></trkpt><trkpt lat="43.420525" lon="11.2791367"><ele>288.75</ele><time>2026-03-28T09:59:15.045Z</time></trkpt><trkpt lat="43.420465" lon="11.279305"><ele>287.0</ele><time>2026-03-28T09:59:16.045Z</time></trkpt><trkpt lat="43.4204133" lon="11.2794667"><ele>287.0</ele><time>2026-03-28T09:59:17.045Z</time></trkpt><trkpt lat="43.4203533" lon="11.279585"><ele>287.0</ele><time>2026-03-28T09:59:18.045Z</time></trkpt><trkpt lat="43.420275" lon="11.27969"><ele>287.0</ele><time>2026-03-28T09:59:19.045Z</time></trkpt><trkpt lat="43.4201717" lon="11.27978"><ele>287.0</ele><time>2026-03-28T09:59:20.045Z</time></trkpt><trkpt lat="43.4200483" lon="11.2798583"><ele>286.25</ele><time>2026-03-28T09:59:21.045Z</time></trkpt><trkpt lat="43.4199167" lon="11.2799517"><ele>285.5</ele><time>2026-03-28T09:59:22.045Z</time></trkpt><trkpt lat="43.4197917" lon="11.2800517"><ele>284.75</ele><time>2026-03-28T09:59:23.045Z</time></trkpt><trkpt lat="43.4196783" lon="11.28016"><ele>284.0</ele><time>2026-03-28T09:59:24.045Z</time></trkpt><trkpt lat="43.4195667" lon="11.2802683"><ele>284.0</ele><time>2026-03-28T09:59:25.045Z</time></trkpt><trkpt lat="43.4194483" lon="11.2803917"><ele>284.0</ele><time>2026-03-28T09:59:26.045Z</time></trkpt><trkpt lat="43.4193433" lon="11.2805083"><ele>284.0</ele><time>2026-03-28T09:59:27.045Z</time></trkpt><trkpt lat="43.4192317" lon="11.2806333"><ele>284.0</ele><time>2026-03-28T09:59:28.045Z</time></trkpt><trkpt lat="43.4191283" lon="11.2807617"><ele>281.75</ele><time>2026-03-28T09:59:29.044Z</time></trkpt><trkpt lat="43.4190167" lon="11.280915"><ele>279.5</ele><time>2026-03-28T09:59:30.045Z</time></trkpt><trkpt lat="43.418915" lon="11.28104"><ele>277.25</ele><time>2026-03-28T09:59:31.044Z</time></trkpt><trkpt lat="43.4188233" lon="11.2811633"><ele>275.0</ele><time>2026-03-28T09:59:32.044Z</time></trkpt><trkpt lat="43.4187333" lon="11.28127"><ele>274.8</ele><time>2026-03-28T09:59:33.045Z</time></trkpt><trkpt lat="43.418665" lon="11.2813533"><ele>274.6</ele><time>2026-03-28T09:59:34.044Z</time></trkpt><trkpt lat="43.4185967" lon="11.2814267"><ele>274.4</ele><time>2026-03-28T09:59:35.045Z</time></trkpt><trkpt lat="43.4185183" lon="11.2814683"><ele>274.2</ele><time>2026-03-28T09:59:36.045Z</time></trkpt><trkpt lat="43.418425" lon="11.281465"><ele>274.0</ele><time>2026-03-28T09:59:37.045Z</time></trkpt><trkpt lat="43.4183133" lon="11.28144"><ele>274.0</ele><time>2026-03-28T09:59:38.045Z</time></trkpt><trkpt lat="43.4181967" lon="11.2813733"><ele>274.0</ele><time>2026-03-28T09:59:39.045Z</time></trkpt><trkpt lat="43.4180817" lon="11.28134"><ele>274.0</ele><time>2026-03-28T09:59:40.044Z</time></trkpt><trkpt lat="43.417965" lon="11.2813367"><ele>274.0</ele><time>2026-03-28T09:59:41.045Z</time></trkpt><trkpt lat="43.41783" lon="11.28138"><ele>270.66666666666663</ele><time>2026-03-28T09:59:42.045Z</time></trkpt><trkpt lat="43.4177" lon="11.2814567"><ele>267.3333333333333</ele><time>2026-03-28T09:59:43.045Z</time></trkpt><trkpt lat="43.41755" lon="11.2815567"><ele>264.0</ele><time>2026-03-28T09:59:44.044Z</time></trkpt><trkpt lat="43.4174033" lon="11.28166"><ele>264.0</ele><time>2026-03-28T09:59:45.045Z</time></trkpt><trkpt lat="43.4172617" lon="11.2817517"><ele>264.0</ele><time>2026-03-28T09:59:46.045Z</time></trkpt><trkpt lat="43.4171217" lon="11.2818483"><ele>264.0</ele><time>2026-03-28T09:59:47.045Z</time></trkpt><trkpt lat="43.4169833" lon="11.2819117"><ele>263.59999999999997</ele><time>2026-03-28T09:59:48.045Z</time></trkpt><trkpt lat="43.4168517" lon="11.2819517"><ele>263.2</ele><time>2026-03-28T09:59:49.045Z</time></trkpt><trkpt lat="43.4167433" lon="11.2819783"><ele>262.79999999999995</ele><time>2026-03-28T09:59:50.045Z</time></trkpt><trkpt lat="43.4166567" lon="11.2820033"><ele>262.4</ele><time>2026-03-28T09:59:51.045Z</time></trkpt><trkpt lat="43.4165867" lon="11.2820233"><ele>262.0</ele><time>2026-03-28T09:59:52.044Z</time></trkpt><trkpt lat="43.41652" lon="11.2820433"><ele>262.0</ele><time>2026-03-28T09:59:53.045Z</time></trkpt><trkpt lat="43.4164583" lon="11.2820683"><ele>262.0</ele><time>2026-03-28T09:59:54.045Z</time></trkpt><trkpt lat="43.41639" lon="11.2820933"><ele>262.0</ele><time>2026-03-28T09:59:55.044Z</time></trkpt><trkpt lat="43.4163133" lon="11.2821333"><ele>262.0</ele><time>2026-03-28T09:59:56.045Z</time></trkpt><trkpt lat="43.41625" lon="11.2821883"><ele>262.0</ele><time>2026-03-28T09:59:57.044Z</time></trkpt><trkpt lat="43.416205" lon="11.2822617"><ele>262.0</ele><time>2026-03-28T09:59:58.044Z</time></trkpt><trkpt lat="43.4161767" lon="11.2823467"><ele>262.0</ele><time>2026-03-28T09:59:59.045Z</time></trkpt><trkpt lat="43.416165" lon="11.28246"><ele>261.8</ele><time>2026-03-28T10:00:00.045Z</time></trkpt><trkpt lat="43.4161233" lon="11.2825767"><ele>261.6</ele><time>2026-03-28T10:00:01.045Z</time></trkpt><trkpt lat="43.4160683" lon="11.2826733"><ele>261.40000000000003</ele><time>2026-03-28T10:00:02.045Z</time></trkpt><trkpt lat="43.4159883" lon="11.2827733"><ele>261.2</ele><time>2026-03-28T10:00:03.045Z</time></trkpt><trkpt lat="43.4159067" lon="11.282875"><ele>261.0</ele><time>2026-03-28T10:00:04.045Z</time></trkpt><trkpt lat="43.4158167" lon="11.28301"><ele>262.5</ele><time>2026-03-28T10:00:05.045Z</time></trkpt><trkpt lat="43.41573" lon="11.2831617"><ele>264.0</ele><time>2026-03-28T10:00:06.045Z</time></trkpt><trkpt lat="43.41565" lon="11.28332"><ele>265.5</ele><time>2026-03-28T10:00:07.045Z</time></trkpt><trkpt lat="43.4155667" lon="11.283495"><ele>267.0</ele><time>2026-03-28T10:00:08.045Z</time></trkpt><trkpt lat="43.4154867" lon="11.2836667"><ele>267.75</ele><time>2026-03-28T10:00:09.045Z</time></trkpt><trkpt lat="43.4154133" lon="11.28382"><ele>268.5</ele><time>2026-03-28T10:00:10.045Z</time></trkpt><trkpt lat="43.415335" lon="11.28398"><ele>269.25</ele><time>2026-03-28T10:00:11.045Z</time></trkpt><trkpt lat="43.4152533" lon="11.2841467"><ele>270.0</ele><time>2026-03-28T10:00:12.045Z</time></trkpt><trkpt lat="43.4151633" lon="11.2843133"><ele>271.75</ele><time>2026-03-28T10:00:13.044Z</time></trkpt><trkpt lat="43.41509" lon="11.2844533"><ele>273.5</ele><time>2026-03-28T10:00:14.045Z</time></trkpt><trkpt lat="43.4150083" lon="11.2845817"><ele>275.25</ele><time>2026-03-28T10:00:15.045Z</time></trkpt><trkpt lat="43.4149183" lon="11.2847083"><ele>277.0</ele><time>2026-03-28T10:00:16.045Z</time></trkpt><trkpt lat="43.4148267" lon="11.2848233"><ele>277.0</ele><time>2026-03-28T10:00:17.045Z</time></trkpt><trkpt lat="43.4147217" lon="11.284935"><ele>277.0</ele><time>2026-03-28T10:00:18.044Z</time></trkpt><trkpt lat="43.4146" lon="11.2850433"><ele>277.0</ele><time>2026-03-28T10:00:19.044Z</time></trkpt><trkpt lat="43.4144683" lon="11.2851467"><ele>277.0</ele><time>2026-03-28T10:00:20.045Z</time></trkpt><trkpt lat="43.414345" lon="11.285255"><ele>277.0</ele><time>2026-03-28T10:00:21.045Z</time></trkpt><trkpt lat="43.4142317" lon="11.2853733"><ele>277.0</ele><time>2026-03-28T10:00:22.045Z</time></trkpt><trkpt lat="43.4141217" lon="11.28551"><ele>277.0</ele><time>2026-03-28T10:00:23.045Z</time></trkpt><trkpt lat="43.4140233" lon="11.2856633"><ele>277.0</ele><time>2026-03-28T10:00:24.045Z</time></trkpt><trkpt lat="43.4139417" lon="11.2858233"><ele>279.3333333333333</ele><time>2026-03-28T10:00:25.045Z</time></trkpt><trkpt lat="43.4138683" lon="11.2859917"><ele>281.6666666666667</ele><time>2026-03-28T10:00:26.045Z</time></trkpt><trkpt lat="43.4137867" lon="11.2861833"><ele>284.0</ele><time>2026-03-28T10:00:27.045Z</time></trkpt><trkpt lat="43.4137217" lon="11.286385"><ele>280.0</ele><time>2026-03-28T10:00:28.045Z</time></trkpt><trkpt lat="43.4136683" lon="11.2866"><ele>276.0</ele><time>2026-03-28T10:00:29.045Z</time></trkpt><trkpt lat="43.4136117" lon="11.2867983"><ele>272.0</ele><time>2026-03-28T10:00:30.045Z</time></trkpt><trkpt lat="43.4135583" lon="11.2869983"><ele>272.0</ele><time>2026-03-28T10:00:31.045Z</time></trkpt><trkpt lat="43.413505" lon="11.28717"><ele>272.0</ele><time>2026-03-28T10:00:32.045Z</time></trkpt><trkpt lat="43.4134517" lon="11.287315"><ele>272.0</ele><time>2026-03-28T10:00:33.044Z</time></trkpt><trkpt lat="43.4133833" lon="11.2874317"><ele>272.0</ele><time>2026-03-28T10:00:34.045Z</time></trkpt><trkpt lat="43.4133017" lon="11.28752"><ele>272.5</ele><time>2026-03-28T10:00:35.044Z</time></trkpt><trkpt lat="43.413205" lon="11.28758"><ele>273.0</ele><time>2026-03-28T10:00:36.045Z</time></trkpt><trkpt lat="43.4131017" lon="11.28762"><ele>273.5</ele><time>2026-03-28T10:00:37.045Z</time></trkpt><trkpt lat="43.41297" lon="11.2876667"><ele>274.0</ele><time>2026-03-28T10:00:38.044Z</time></trkpt><trkpt lat="43.4128117" lon="11.28771"><ele>274.0</ele><time>2026-03-28T10:00:39.045Z</time></trkpt><trkpt lat="43.412665" lon="11.2877383"><ele>274.0</ele><time>2026-03-28T10:00:40.045Z</time></trkpt><trkpt lat="43.4125233" lon="11.2877267"><ele>274.0</ele><time>2026-03-28T10:00:41.045Z</time></trkpt><trkpt lat="43.4123883" lon="11.2876933"><ele>274.0</ele><time>2026-03-28T10:00:42.045Z</time></trkpt><trkpt lat="43.4122617" lon="11.287665"><ele>274.0</ele><time>2026-03-28T10:00:43.044Z</time></trkpt><trkpt lat="43.4121417" lon="11.2876967"><ele>274.0</ele><time>2026-03-28T10:00:44.045Z</time></trkpt><trkpt lat="43.4120167" lon="11.2877283"><ele>274.0</ele><time>2026-03-28T10:00:45.045Z</time></trkpt><trkpt lat="43.4119" lon="11.287775"><ele>274.0</ele><time>2026-03-28T10:00:46.045Z</time></trkpt><trkpt lat="43.4117817" lon="11.2878383"><ele>274.0</ele><time>2026-03-28T10:00:47.045Z</time></trkpt><trkpt lat="43.4116583" lon="11.287915"><ele>274.0</ele><time>2026-03-28T10:00:48.045Z</time></trkpt><trkpt lat="43.411535" lon="11.2880217"><ele>274.0</ele><time>2026-03-28T10:00:49.044Z</time></trkpt><trkpt lat="43.4114133" lon="11.2881467"><ele>274.0</ele><time>2026-03-28T10:00:50.045Z</time></trkpt><trkpt lat="43.4113067" lon="11.2883"><ele>275.0</ele><time>2026-03-28T10:00:51.045Z</time></trkpt><trkpt lat="43.4112117" lon="11.2884683"><ele>276.0</ele><time>2026-03-28T10:00:52.044Z</time></trkpt><trkpt lat="43.4111433" lon="11.2886267"><ele>277.0</ele><time>2026-03-28T10:00:53.045Z</time></trkpt><trkpt lat="43.4110833" lon="11.2887917"><ele>278.0</ele><time>2026-03-28T10:00:54.045Z</time></trkpt><trkpt lat="43.411025" lon="11.28894"><ele>279.0</ele><time>2026-03-28T10:00:55.045Z</time></trkpt><trkpt lat="43.41095" lon="11.289075"><ele>280.0</ele><time>2026-03-28T10:00:56.045Z</time></trkpt><trkpt lat="43.410875" lon="11.2891667"><ele>281.0</ele><time>2026-03-28T10:00:57.045Z</time></trkpt><trkpt lat="43.4107733" lon="11.28921"><ele>282.0</ele><time>2026-03-28T10:00:58.045Z</time></trkpt><trkpt lat="43.4106483" lon="11.28922"><ele>282.0</ele><time>2026-03-28T10:00:59.044Z</time></trkpt><trkpt lat="43.410525" lon="11.2892333"><ele>282.0</ele><time>2026-03-28T10:01:00.045Z</time></trkpt><trkpt lat="43.4103967" lon="11.2892667"><ele>282.0</ele><time>2026-03-28T10:01:01.045Z</time></trkpt><trkpt lat="43.4102617" lon="11.2892883"><ele>282.0</ele><time>2026-03-28T10:01:02.045Z</time></trkpt><trkpt lat="43.4101217" lon="11.289325"><ele>282.5</ele><time>2026-03-28T10:01:03.045Z</time></trkpt><trkpt lat="43.4099833" lon="11.2893683"><ele>283.0</ele><time>2026-03-28T10:01:04.045Z</time></trkpt><trkpt lat="43.409855" lon="11.2894233"><ele>283.5</ele><time>2026-03-28T10:01:05.045Z</time></trkpt><trkpt lat="43.409705" lon="11.2895067"><ele>284.0</ele><time>2026-03-28T10:01:06.045Z</time></trkpt><trkpt lat="43.40956" lon="11.2895917"><ele>285.25</ele><time>2026-03-28T10:01:07.045Z</time></trkpt><trkpt lat="43.4094167" lon="11.2896633"><ele>286.5</ele><time>2026-03-28T10:01:08.045Z</time></trkpt><trkpt lat="43.4092867" lon="11.2897233"><ele>287.75</ele><time>2026-03-28T10:01:09.045Z</time></trkpt><trkpt lat="43.4091517" lon="11.2897783"><ele>289.0</ele><time>2026-03-28T10:01:10.045Z</time></trkpt><trkpt lat="43.409015" lon="11.2898317"><ele>289.8</ele><time>2026-03-28T10:01:11.045Z</time></trkpt><trkpt lat="43.408905" lon="11.2898967"><ele>290.59999999999997</ele><time>2026-03-28T10:01:12.045Z</time></trkpt><trkpt lat="43.4088017" lon="11.28997"><ele>291.4</ele><time>2026-03-28T10:01:13.045Z</time></trkpt><trkpt lat="43.408715" lon="11.290055"><ele>292.2</ele><time>2026-03-28T10:01:14.045Z</time></trkpt><trkpt lat="43.4086367" lon="11.2901317"><ele>293.0</ele><time>2026-03-28T10:01:15.045Z</time></trkpt><trkpt lat="43.40857" lon="11.29018"><ele>293.2</ele><time>2026-03-28T10:01:16.045Z</time></trkpt><trkpt lat="43.40848" lon="11.29017"><ele>293.4</ele><time>2026-03-28T10:01:18.045Z</time></trkpt><trkpt lat="43.4084317" lon="11.2900483"><ele>293.59999999999997</ele><time>2026-03-28T10:01:20.044Z</time></trkpt><trkpt lat="43.408445" lon="11.2899267"><ele>293.8</ele><time>2026-03-28T10:01:21.044Z</time></trkpt><trkpt lat="43.4084683" lon="11.2897767"><ele>294.0</ele><time>2026-03-28T10:01:22.045Z</time></trkpt><trkpt lat="43.4084983" lon="11.289585"><ele>293.3333333333333</ele><time>2026-03-28T10:01:23.045Z</time></trkpt><trkpt lat="43.4085433" lon="11.2893667"><ele>292.66666666666663</ele><time>2026-03-28T10:01:24.045Z</time></trkpt><trkpt lat="43.408585" lon="11.28914"><ele>292.0</ele><time>2026-03-28T10:01:25.045Z</time></trkpt><trkpt lat="43.40864" lon="11.2889317"><ele>291.3333333333333</ele><time>2026-03-28T10:01:26.045Z</time></trkpt><trkpt lat="43.4087133" lon="11.2887117"><ele>290.6666666666667</ele><time>2026-03-28T10:01:27.045Z</time></trkpt><trkpt lat="43.408805" lon="11.2884933"><ele>290.0</ele><time>2026-03-28T10:01:28.045Z</time></trkpt><trkpt lat="43.4089117" lon="11.2882767"><ele>289.6666666666667</ele><time>2026-03-28T10:01:29.045Z</time></trkpt><trkpt lat="43.4090167" lon="11.2880483"><ele>289.3333333333333</ele><time>2026-03-28T10:01:30.045Z</time></trkpt><trkpt lat="43.409105" lon="11.2878167"><ele>289.0</ele><time>2026-03-28T10:01:31.045Z</time></trkpt><trkpt lat="43.4091733" lon="11.2875733"><ele>289.0</ele><time>2026-03-28T10:01:32.045Z</time></trkpt><trkpt lat="43.4092317" lon="11.2873183"><ele>289.0</ele><time>2026-03-28T10:01:33.045Z</time></trkpt><trkpt lat="43.40929" lon="11.287055"><ele>289.0</ele><time>2026-03-28T10:01:34.045Z</time></trkpt><trkpt lat="43.4093383" lon="11.2868"><ele>290.0</ele><time>2026-03-28T10:01:35.045Z</time></trkpt><trkpt lat="43.4093783" lon="11.286575"><ele>291.0</ele><time>2026-03-28T10:01:36.045Z</time></trkpt><trkpt lat="43.4094" lon="11.2863633"><ele>292.0</ele><time>2026-03-28T10:01:37.045Z</time></trkpt><trkpt lat="43.4093867" lon="11.286155"><ele>294.3333333333333</ele><time>2026-03-28T10:01:38.045Z</time></trkpt><trkpt lat="43.4093283" lon="11.28596"><ele>296.6666666666667</ele><time>2026-03-28T10:01:39.044Z</time></trkpt><trkpt lat="43.4092117" lon="11.2857917"><ele>299.0</ele><time>2026-03-28T10:01:40.045Z</time></trkpt><trkpt lat="43.4090833" lon="11.2856633"><ele>300.33333333333337</ele><time>2026-03-28T10:01:41.045Z</time></trkpt><trkpt lat="43.4089" lon="11.285575"><ele>301.6666666666667</ele><time>2026-03-28T10:01:42.045Z</time></trkpt><trkpt lat="43.4087317" lon="11.2854767"><ele>303.0</ele><time>2026-03-28T10:01:43.045Z</time></trkpt><trkpt lat="43.40857" lon="11.28535"><ele>303.0</ele><time>2026-03-28T10:01:44.045Z</time></trkpt><trkpt lat="43.4084233" lon="11.2851983"><ele>303.0</ele><time>2026-03-28T10:01:45.045Z</time></trkpt><trkpt lat="43.4083033" lon="11.2850117"><ele>303.0</ele><time>2026-03-28T10:01:46.044Z</time></trkpt><trkpt lat="43.4082083" lon="11.2847967"><ele>303.0</ele><time>2026-03-28T10:01:47.045Z</time></trkpt><trkpt lat="43.4081183" lon="11.2845717"><ele>303.0</ele><time>2026-03-28T10:01:48.044Z</time></trkpt><trkpt lat="43.4080133" lon="11.28435"><ele>303.0</ele><time>2026-03-28T10:01:49.045Z</time></trkpt><trkpt lat="43.40791" lon="11.2841317"><ele>304.3333333333333</ele><time>2026-03-28T10:01:50.045Z</time></trkpt><trkpt lat="43.4078017" lon="11.2839133"><ele>305.66666666666663</ele><time>2026-03-28T10:01:51.045Z</time></trkpt><trkpt lat="43.407695" lon="11.2837133"><ele>307.0</ele><time>2026-03-28T10:01:52.045Z</time></trkpt><trkpt lat="43.4075667" lon="11.2835633"><ele>307.0</ele><time>2026-03-28T10:01:53.045Z</time></trkpt><trkpt lat="43.4073967" lon="11.2834417"><ele>307.0</ele><time>2026-03-28T10:01:54.045Z</time></trkpt><trkpt lat="43.40723" lon="11.2833433"><ele>307.0</ele><time>2026-03-28T10:01:55.045Z</time></trkpt><trkpt lat="43.4070517" lon="11.283255"><ele>305.3333333333333</ele><time>2026-03-28T10:01:56.045Z</time></trkpt><trkpt lat="43.4068667" lon="11.2831567"><ele>303.6666666666667</ele><time>2026-03-28T10:01:57.044Z</time></trkpt><trkpt lat="43.4066833" lon="11.2830517"><ele>302.0</ele><time>2026-03-28T10:01:58.045Z</time></trkpt><trkpt lat="43.4065" lon="11.282945"><ele>300.6666666666667</ele><time>2026-03-28T10:01:59.045Z</time></trkpt><trkpt lat="43.40632" lon="11.2828483"><ele>299.3333333333333</ele><time>2026-03-28T10:02:00.045Z</time></trkpt><trkpt lat="43.4061617" lon="11.28274"><ele>298.0</ele><time>2026-03-28T10:02:01.044Z</time></trkpt><trkpt lat="43.4060217" lon="11.2826"><ele>298.0</ele><time>2026-03-28T10:02:02.045Z</time></trkpt><trkpt lat="43.4059017" lon="11.2824217"><ele>298.0</ele><time>2026-03-28T10:02:03.045Z</time></trkpt><trkpt lat="43.4058317" lon="11.2822033"><ele>298.0</ele><time>2026-03-28T10:02:04.045Z</time></trkpt><trkpt lat="43.40577" lon="11.2819767"><ele>297.0</ele><time>2026-03-28T10:02:05.045Z</time></trkpt><trkpt lat="43.40571" lon="11.281735"><ele>296.0</ele><time>2026-03-28T10:02:06.045Z</time></trkpt><trkpt lat="43.4056483" lon="11.2814817"><ele>295.0</ele><time>2026-03-28T10:02:07.045Z</time></trkpt><trkpt lat="43.4055883" lon="11.2812333"><ele>296.3333333333333</ele><time>2026-03-28T10:02:08.045Z</time></trkpt><trkpt lat="43.4055283" lon="11.2809867"><ele>297.6666666666667</ele><time>2026-03-28T10:02:09.045Z</time></trkpt><trkpt lat="43.405475" lon="11.280755"><ele>299.0</ele><time>2026-03-28T10:02:10.044Z</time></trkpt><trkpt lat="43.4054417" lon="11.2805333"><ele>297.2</ele><time>2026-03-28T10:02:11.044Z</time></trkpt><trkpt lat="43.4054167" lon="11.2803483"><ele>295.4</ele><time>2026-03-28T10:02:12.044Z</time></trkpt><trkpt lat="43.4053983" lon="11.28022"><ele>293.6</ele><time>2026-03-28T10:02:13.045Z</time></trkpt><trkpt lat="43.40537" lon="11.2801267"><ele>291.8</ele><time>2026-03-28T10:02:14.045Z</time></trkpt><trkpt lat="43.4054317" lon="11.2801083"><ele>290.0</ele><time>2026-03-28T10:02:18.045Z</time></trkpt><trkpt lat="43.4055117" lon="11.2801417"><ele>288.5</ele><time>2026-03-28T10:02:20.045Z</time></trkpt><trkpt lat="43.4055833" lon="11.2801167"><ele>287.0</ele><time>2026-03-28T10:02:22.045Z</time></trkpt><trkpt lat="43.4056267" lon="11.28002"><ele>285.5</ele><time>2026-03-28T10:02:24.045Z</time></trkpt><trkpt lat="43.4056117" lon="11.2798783"><ele>284.0</ele><time>2026-03-28T10:02:26.045Z</time></trkpt><trkpt lat="43.4055817" lon="11.279795"><ele>282.5</ele><time>2026-03-28T10:02:27.045Z</time></trkpt><trkpt lat="43.405535" lon="11.27971"><ele>281.0</ele><time>2026-03-28T10:02:28.045Z</time></trkpt><trkpt lat="43.40547" lon="11.2796367"><ele>280.75</ele><time>2026-03-28T10:02:29.045Z</time></trkpt><trkpt lat="43.40539" lon="11.2795417"><ele>280.5</ele><time>2026-03-28T10:02:30.045Z</time></trkpt><trkpt lat="43.4052883" lon="11.27945"><ele>280.25</ele><time>2026-03-28T10:02:31.045Z</time></trkpt><trkpt lat="43.405185" lon="11.279365"><ele>280.0</ele><time>2026-03-28T10:02:32.045Z</time></trkpt><trkpt lat="43.405085" lon="11.2792683"><ele>280.0</ele><time>2026-03-28T10:02:33.044Z</time></trkpt><trkpt lat="43.40499" lon="11.2791717"><ele>280.0</ele><time>2026-03-28T10:02:34.045Z</time></trkpt><trkpt lat="43.4049017" lon="11.27907"><ele>280.0</ele><time>2026-03-28T10:02:35.045Z</time></trkpt><trkpt lat="43.4048283" lon="11.27896"><ele>280.0</ele><time>2026-03-28T10:02:36.045Z</time></trkpt><trkpt lat="43.40475" lon="11.2788533"><ele>278.5</ele><time>2026-03-28T10:02:37.044Z</time></trkpt><trkpt lat="43.4046667" lon="11.278745"><ele>277.0</ele><time>2026-03-28T10:02:38.045Z</time></trkpt><trkpt lat="43.40459" lon="11.2786233"><ele>275.5</ele><time>2026-03-28T10:02:39.045Z</time></trkpt><trkpt lat="43.4045233" lon="11.278485"><ele>274.0</ele><time>2026-03-28T10:02:40.045Z</time></trkpt><trkpt lat="43.4044683" lon="11.27835"><ele>274.0</ele><time>2026-03-28T10:02:41.044Z</time></trkpt><trkpt lat="43.4044217" lon="11.27822"><ele>274.0</ele><time>2026-03-28T10:02:42.045Z</time></trkpt><trkpt lat="43.40437" lon="11.2780917"><ele>274.0</ele><time>2026-03-28T10:02:43.045Z</time></trkpt><trkpt lat="43.4043233" lon="11.2779783"><ele>274.0</ele><time>2026-03-28T10:02:44.044Z</time></trkpt><trkpt lat="43.4042933" lon="11.2778567"><ele>274.0</ele><time>2026-03-28T10:02:45.044Z</time></trkpt><trkpt lat="43.4042667" lon="11.2777633"><ele>273.8333333333333</ele><time>2026-03-28T10:02:46.045Z</time></trkpt><trkpt lat="43.4042583" lon="11.2776717"><ele>273.66666666666663</ele><time>2026-03-28T10:02:47.045Z</time></trkpt><trkpt lat="43.40424" lon="11.277585"><ele>273.5</ele><time>2026-03-28T10:02:48.044Z</time></trkpt><trkpt lat="43.4042083" lon="11.277405"><ele>273.3333333333333</ele><time>2026-03-28T10:02:50.045Z</time></trkpt><trkpt lat="43.40419" lon="11.2772933"><ele>273.1666666666667</ele><time>2026-03-28T10:02:51.045Z</time></trkpt><trkpt lat="43.40417" lon="11.2771767"><ele>273.0</ele><time>2026-03-28T10:02:52.044Z</time></trkpt><trkpt lat="43.4041483" lon="11.2770783"><ele>272.6</ele><time>2026-03-28T10:02:53.045Z</time></trkpt><trkpt lat="43.4041317" lon="11.2769667"><ele>272.20000000000005</ele><time>2026-03-28T10:02:54.045Z</time></trkpt><trkpt lat="43.4041217" lon="11.2768367"><ele>271.8</ele><time>2026-03-28T10:02:55.045Z</time></trkpt><trkpt lat="43.4041083" lon="11.276705"><ele>271.40000000000003</ele><time>2026-03-28T10:02:56.045Z</time></trkpt><trkpt lat="43.404095" lon="11.2765617"><ele>271.0</ele><time>2026-03-28T10:02:57.045Z</time></trkpt><trkpt lat="43.4040717" lon="11.2764283"><ele>270.8333333333333</ele><time>2026-03-28T10:02:58.045Z</time></trkpt><trkpt lat="43.4040467" lon="11.2763133"><ele>270.66666666666663</ele><time>2026-03-28T10:02:59.045Z</time></trkpt><trkpt lat="43.4040267" lon="11.276205"><ele>270.5</ele><time>2026-03-28T10:03:00.045Z</time></trkpt><trkpt lat="43.404" lon="11.2760917"><ele>270.3333333333333</ele><time>2026-03-28T10:03:01.045Z</time></trkpt><trkpt lat="43.4039817" lon="11.276005"><ele>270.1666666666667</ele><time>2026-03-28T10:03:02.045Z</time></trkpt><trkpt lat="43.4039617" lon="11.2759183"><ele>270.0</ele><time>2026-03-28T10:03:03.045Z</time></trkpt><trkpt lat="43.4039483" lon="11.2758283"><ele>270.0</ele><time>2026-03-28T10:03:04.044Z</time></trkpt><trkpt lat="43.4039317" lon="11.2757283"><ele>270.0</ele><time>2026-03-28T10:03:05.045Z</time></trkpt><trkpt lat="43.403915" lon="11.2756383"><ele>270.0</ele><time>2026-03-28T10:03:06.045Z</time></trkpt><trkpt lat="43.4039017" lon="11.2755517"><ele>270.0</ele><time>2026-03-28T10:03:07.044Z</time></trkpt><trkpt lat="43.403865" lon="11.2754033"><ele>270.0</ele><time>2026-03-28T10:03:09.045Z</time></trkpt><trkpt lat="43.4038233" lon="11.2752683"><ele>270.0</ele><time>2026-03-28T10:03:11.045Z</time></trkpt><trkpt lat="43.4037683" lon="11.2751483"><ele>270.3333333333333</ele><time>2026-03-28T10:03:13.045Z</time></trkpt><trkpt lat="43.40372" lon="11.275"><ele>270.6666666666667</ele><time>2026-03-28T10:03:15.045Z</time></trkpt><trkpt lat="43.4037" lon="11.2749167"><ele>271.0</ele><time>2026-03-28T10:03:16.045Z</time></trkpt><trkpt lat="43.4036817" lon="11.27481"><ele>271.33333333333337</ele><time>2026-03-28T10:03:17.045Z</time></trkpt><trkpt lat="43.4036633" lon="11.2747033"><ele>271.6666666666667</ele><time>2026-03-28T10:03:18.045Z</time></trkpt><trkpt lat="43.4036483" lon="11.274605"><ele>272.0</ele><time>2026-03-28T10:03:19.045Z</time></trkpt><trkpt lat="43.4036367" lon="11.27451"><ele>272.0</ele><time>2026-03-28T10:03:20.044Z</time></trkpt><trkpt lat="43.4036033" lon="11.2743617"><ele>272.0</ele><time>2026-03-28T10:03:22.045Z</time></trkpt><trkpt lat="43.4035683" lon="11.27422"><ele>272.0</ele><time>2026-03-28T10:03:24.045Z</time></trkpt><trkpt lat="43.4035467" lon="11.2741383"><ele>272.0</ele><time>2026-03-28T10:03:26.045Z</time></trkpt><trkpt lat="43.4034817" lon="11.2742417"><ele>272.0</ele><time>2026-03-28T10:03:34.045Z</time></trkpt><trkpt lat="43.4034633" lon="11.27434"><ele>272.0</ele><time>2026-03-28T10:03:36.045Z</time></trkpt><trkpt lat="43.4034233" lon="11.27424"><ele>272.0</ele><time>2026-03-28T10:03:41.045Z</time></trkpt><trkpt lat="43.4033833" lon="11.2741367"><ele>272.0</ele><time>2026-03-28T10:03:51.044Z</time></trkpt><trkpt lat="43.4033433" lon="11.2740433"><ele>272.0</ele><time>2026-03-28T10:03:52.045Z</time></trkpt><trkpt lat="43.40328" lon="11.27392"><ele>272.0</ele><time>2026-03-28T10:03:53.045Z</time></trkpt><trkpt lat="43.4031967" lon="11.2737717"><ele>272.33333333333337</ele><time>2026-03-28T10:03:54.045Z</time></trkpt><trkpt lat="43.4030867" lon="11.27359"><ele>272.6666666666667</ele><time>2026-03-28T10:03:55.045Z</time></trkpt><trkpt lat="43.402975" lon="11.2734033"><ele>273.0</ele><time>2026-03-28T10:03:56.045Z</time></trkpt><trkpt lat="43.4028567" lon="11.273215"><ele>274.3333333333333</ele><time>2026-03-28T10:03:57.045Z</time></trkpt><trkpt lat="43.4027317" lon="11.2730217"><ele>275.66666666666663</ele><time>2026-03-28T10:03:58.044Z</time></trkpt><trkpt lat="43.40262" lon="11.2728233"><ele>277.0</ele><time>2026-03-28T10:03:59.045Z</time></trkpt><trkpt lat="43.4025017" lon="11.272615"><ele>277.0</ele><time>2026-03-28T10:04:00.045Z</time></trkpt><trkpt lat="43.402365" lon="11.2723983"><ele>277.0</ele><time>2026-03-28T10:04:01.044Z</time></trkpt><trkpt lat="43.402225" lon="11.272175"><ele>277.0</ele><time>2026-03-28T10:04:02.045Z</time></trkpt><trkpt lat="43.4020833" lon="11.2719417"><ele>278.0</ele><time>2026-03-28T10:04:03.045Z</time></trkpt><trkpt lat="43.40196" lon="11.2717183"><ele>279.0</ele><time>2026-03-28T10:04:04.044Z</time></trkpt><trkpt lat="43.4018417" lon="11.2714883"><ele>280.0</ele><time>2026-03-28T10:04:05.045Z</time></trkpt><trkpt lat="43.401715" lon="11.2712717"><ele>281.3333333333333</ele><time>2026-03-28T10:04:06.045Z</time></trkpt><trkpt lat="43.4015883" lon="11.2710667"><ele>282.6666666666667</ele><time>2026-03-28T10:04:07.045Z</time></trkpt><trkpt lat="43.4014517" lon="11.270855"><ele>284.0</ele><time>2026-03-28T10:04:08.045Z</time></trkpt><trkpt lat="43.401295" lon="11.27063"><ele>286.6666666666667</ele><time>2026-03-28T10:04:09.045Z</time></trkpt><trkpt lat="43.4011817" lon="11.2704383"><ele>289.3333333333333</ele><time>2026-03-28T10:04:10.045Z</time></trkpt><trkpt lat="43.4010717" lon="11.270255"><ele>292.0</ele><time>2026-03-28T10:04:11.045Z</time></trkpt><trkpt lat="43.40098" lon="11.2700917"><ele>292.0</ele><time>2026-03-28T10:04:12.045Z</time></trkpt><trkpt lat="43.4008933" lon="11.2699717"><ele>292.0</ele><time>2026-03-28T10:04:13.045Z</time></trkpt><trkpt lat="43.4008267" lon="11.2698967"><ele>292.0</ele><time>2026-03-28T10:04:14.044Z</time></trkpt><trkpt lat="43.4007717" lon="11.2698333"><ele>292.0</ele><time>2026-03-28T10:04:15.044Z</time></trkpt><trkpt lat="43.4007383" lon="11.2697317"><ele>292.0</ele><time>2026-03-28T10:04:17.045Z</time></trkpt><trkpt lat="43.40078" lon="11.2696583"><ele>292.0</ele><time>2026-03-28T10:04:19.045Z</time></trkpt><trkpt lat="43.40085" lon="11.2696467"><ele>292.3333333333333</ele><time>2026-03-28T10:04:20.045Z</time></trkpt><trkpt lat="43.400945" lon="11.2696367"><ele>292.66666666666663</ele><time>2026-03-28T10:04:21.045Z</time></trkpt><trkpt lat="43.4010367" lon="11.2696317"><ele>293.0</ele><time>2026-03-28T10:04:22.045Z</time></trkpt><trkpt lat="43.40112" lon="11.2696283"><ele>293.3333333333333</ele><time>2026-03-28T10:04:23.045Z</time></trkpt><trkpt lat="43.4012017" lon="11.269615"><ele>293.6666666666667</ele><time>2026-03-28T10:04:24.045Z</time></trkpt><trkpt lat="43.4012833" lon="11.2696"><ele>294.0</ele><time>2026-03-28T10:04:25.045Z</time></trkpt><trkpt lat="43.401365" lon="11.2695883"><ele>295.0</ele><time>2026-03-28T10:04:26.045Z</time></trkpt><trkpt lat="43.4014567" lon="11.2695683"><ele>296.0</ele><time>2026-03-28T10:04:27.045Z</time></trkpt><trkpt lat="43.4015433" lon="11.2695467"><ele>297.0</ele><time>2026-03-28T10:04:28.045Z</time></trkpt><trkpt lat="43.4016367" lon="11.2695167"><ele>298.0</ele><time>2026-03-28T10:04:29.045Z</time></trkpt><trkpt lat="43.4017233" lon="11.2694883"><ele>299.0</ele><time>2026-03-28T10:04:30.045Z</time></trkpt><trkpt lat="43.4018067" lon="11.2694567"><ele>299.0</ele><time>2026-03-28T10:04:31.045Z</time></trkpt><trkpt lat="43.401895" lon="11.2694183"><ele>299.0</ele><time>2026-03-28T10:04:32.044Z</time></trkpt><trkpt lat="43.4019867" lon="11.2693767"><ele>299.0</ele><time>2026-03-28T10:04:33.045Z</time></trkpt><trkpt lat="43.4021" lon="11.2693333"><ele>299.0</ele><time>2026-03-28T10:04:34.044Z</time></trkpt><trkpt lat="43.4022133" lon="11.26929"><ele>299.0</ele><time>2026-03-28T10:04:35.045Z</time></trkpt><trkpt lat="43.4023417" lon="11.26925"><ele>300.5</ele><time>2026-03-28T10:04:36.045Z</time></trkpt><trkpt lat="43.4024683" lon="11.2692133"><ele>302.0</ele><time>2026-03-28T10:04:37.045Z</time></trkpt><trkpt lat="43.4026017" lon="11.2691717"><ele>303.5</ele><time>2026-03-28T10:04:38.045Z</time></trkpt><trkpt lat="43.4027367" lon="11.269125"><ele>305.0</ele><time>2026-03-28T10:04:39.045Z</time></trkpt><trkpt lat="43.40288" lon="11.2690783"><ele>305.75</ele><time>2026-03-28T10:04:40.045Z</time></trkpt><trkpt lat="43.4030033" lon="11.2690417"><ele>306.5</ele><time>2026-03-28T10:04:41.044Z</time></trkpt><trkpt lat="43.40312" lon="11.269005"><ele>307.25</ele><time>2026-03-28T10:04:42.044Z</time></trkpt><trkpt lat="43.4032367" lon="11.26895"><ele>308.0</ele><time>2026-03-28T10:04:43.045Z</time></trkpt><trkpt lat="43.4033533" lon="11.26892"><ele>307.0</ele><time>2026-03-28T10:04:44.044Z</time></trkpt><trkpt lat="43.4034533" lon="11.268885"><ele>306.0</ele><time>2026-03-28T10:04:45.045Z</time></trkpt><trkpt lat="43.40353" lon="11.268845"><ele>305.0</ele><time>2026-03-28T10:04:46.045Z</time></trkpt><trkpt lat="43.4035983" lon="11.2688"><ele>304.0</ele><time>2026-03-28T10:04:47.045Z</time></trkpt><trkpt lat="43.40366" lon="11.2687483"><ele>303.0</ele><time>2026-03-28T10:04:48.045Z</time></trkpt><trkpt lat="43.40372" lon="11.268685"><ele>302.0</ele><time>2026-03-28T10:04:49.045Z</time></trkpt><trkpt lat="43.4037817" lon="11.268625"><ele>301.4</ele><time>2026-03-28T10:04:50.045Z</time></trkpt><trkpt lat="43.4038433" lon="11.2685617"><ele>300.79999999999995</ele><time>2026-03-28T10:04:51.045Z</time></trkpt><trkpt lat="43.4039017" lon="11.2684783"><ele>300.2</ele><time>2026-03-28T10:04:52.045Z</time></trkpt><trkpt lat="43.4039667" lon="11.268375"><ele>299.59999999999997</ele><time>2026-03-28T10:04:53.045Z</time></trkpt><trkpt lat="43.4040367" lon="11.2682583"><ele>299.0</ele><time>2026-03-28T10:04:54.044Z</time></trkpt><trkpt lat="43.4041167" lon="11.2681417"><ele>298.5</ele><time>2026-03-28T10:04:55.045Z</time></trkpt><trkpt lat="43.4042117" lon="11.2680133"><ele>298.0</ele><time>2026-03-28T10:04:56.045Z</time></trkpt><trkpt lat="43.40432" lon="11.267875"><ele>297.5</ele><time>2026-03-28T10:04:57.044Z</time></trkpt><trkpt lat="43.4044117" lon="11.26775"><ele>297.0</ele><time>2026-03-28T10:04:58.044Z</time></trkpt><trkpt lat="43.4044967" lon="11.2676483"><ele>297.0</ele><time>2026-03-28T10:04:59.045Z</time></trkpt><trkpt lat="43.4045967" lon="11.2675617"><ele>297.0</ele><time>2026-03-28T10:05:00.044Z</time></trkpt><trkpt lat="43.404695" lon="11.2674883"><ele>297.0</ele><time>2026-03-28T10:05:01.045Z</time></trkpt><trkpt lat="43.4047983" lon="11.2674133"><ele>297.0</ele><time>2026-03-28T10:05:02.045Z</time></trkpt><trkpt lat="43.40489" lon="11.2673133"><ele>298.75</ele><time>2026-03-28T10:05:03.044Z</time></trkpt><trkpt lat="43.404975" lon="11.2671967"><ele>300.5</ele><time>2026-03-28T10:05:04.045Z</time></trkpt><trkpt lat="43.405055" lon="11.2670667"><ele>302.25</ele><time>2026-03-28T10:05:05.045Z</time></trkpt><trkpt lat="43.4051267" lon="11.2669283"><ele>304.0</ele><time>2026-03-28T10:05:06.045Z</time></trkpt><trkpt lat="43.4051933" lon="11.2667983"><ele>304.0</ele><time>2026-03-28T10:05:07.044Z</time></trkpt><trkpt lat="43.4052633" lon="11.266675"><ele>304.0</ele><time>2026-03-28T10:05:08.044Z</time></trkpt><trkpt lat="43.4053267" lon="11.2665683"><ele>304.0</ele><time>2026-03-28T10:05:09.045Z</time></trkpt><trkpt lat="43.4053867" lon="11.2664583"><ele>304.0</ele><time>2026-03-28T10:05:10.045Z</time></trkpt><trkpt lat="43.40544" lon="11.2663533"><ele>304.0</ele><time>2026-03-28T10:05:11.045Z</time></trkpt><trkpt lat="43.405475" lon="11.2662483"><ele>304.0</ele><time>2026-03-28T10:05:12.045Z</time></trkpt><trkpt lat="43.405495" lon="11.2661417"><ele>304.0</ele><time>2026-03-28T10:05:13.045Z</time></trkpt><trkpt lat="43.4054967" lon="11.266025"><ele>304.0</ele><time>2026-03-28T10:05:14.045Z</time></trkpt><trkpt lat="43.40549" lon="11.2658833"><ele>304.0</ele><time>2026-03-28T10:05:15.045Z</time></trkpt><trkpt lat="43.4054867" lon="11.2657233"><ele>304.0</ele><time>2026-03-28T10:05:16.044Z</time></trkpt><trkpt lat="43.4054917" lon="11.265555"><ele>304.0</ele><time>2026-03-28T10:05:17.044Z</time></trkpt><trkpt lat="43.4054883" lon="11.265385"><ele>304.0</ele><time>2026-03-28T10:05:18.045Z</time></trkpt><trkpt lat="43.405485" lon="11.2652033"><ele>304.0</ele><time>2026-03-28T10:05:19.045Z</time></trkpt><trkpt lat="43.40548" lon="11.2650183"><ele>304.0</ele><time>2026-03-28T10:05:20.045Z</time></trkpt><trkpt lat="43.4054767" lon="11.2648117"><ele>303.66666666666663</ele><time>2026-03-28T10:05:21.045Z</time></trkpt><trkpt lat="43.40547" lon="11.2646"><ele>303.3333333333333</ele><time>2026-03-28T10:05:22.045Z</time></trkpt><trkpt lat="43.4054683" lon="11.26438"><ele>303.0</ele><time>2026-03-28T10:05:23.045Z</time></trkpt><trkpt lat="43.4054783" lon="11.26416"><ele>303.0</ele><time>2026-03-28T10:05:24.045Z</time></trkpt><trkpt lat="43.4054817" lon="11.2639483"><ele>303.0</ele><time>2026-03-28T10:05:25.045Z</time></trkpt><trkpt lat="43.40549" lon="11.263735"><ele>303.0</ele><time>2026-03-28T10:05:26.044Z</time></trkpt><trkpt lat="43.4054933" lon="11.2635433"><ele>303.0</ele><time>2026-03-28T10:05:27.044Z</time></trkpt><trkpt lat="43.4055067" lon="11.2633717"><ele>302.4</ele><time>2026-03-28T10:05:28.045Z</time></trkpt><trkpt lat="43.405525" lon="11.26323"><ele>301.8</ele><time>2026-03-28T10:05:29.045Z</time></trkpt><trkpt lat="43.4055367" lon="11.2631083"><ele>301.2</ele><time>2026-03-28T10:05:30.044Z</time></trkpt><trkpt lat="43.40553" lon="11.2629883"><ele>300.6</ele><time>2026-03-28T10:05:31.045Z</time></trkpt><trkpt lat="43.4054983" lon="11.2628633"><ele>300.0</ele><time>2026-03-28T10:05:32.045Z</time></trkpt><trkpt lat="43.40545" lon="11.2627267"><ele>299.5</ele><time>2026-03-28T10:05:33.045Z</time></trkpt><trkpt lat="43.4053883" lon="11.2625617"><ele>299.0</ele><time>2026-03-28T10:05:34.045Z</time></trkpt><trkpt lat="43.4053317" lon="11.2624"><ele>298.5</ele><time>2026-03-28T10:05:35.045Z</time></trkpt><trkpt lat="43.405275" lon="11.2622283"><ele>298.0</ele><time>2026-03-28T10:05:36.045Z</time></trkpt><trkpt lat="43.4052183" lon="11.262055"><ele>297.25</ele><time>2026-03-28T10:05:37.045Z</time></trkpt><trkpt lat="43.4051667" lon="11.2618883"><ele>296.5</ele><time>2026-03-28T10:05:38.045Z</time></trkpt><trkpt lat="43.4051067" lon="11.2617283"><ele>295.75</ele><time>2026-03-28T10:05:39.045Z</time></trkpt><trkpt lat="43.40505" lon="11.261555"><ele>295.0</ele><time>2026-03-28T10:05:40.045Z</time></trkpt><trkpt lat="43.40499" lon="11.2613867"><ele>294.5</ele><time>2026-03-28T10:05:41.045Z</time></trkpt><trkpt lat="43.4049233" lon="11.2612083"><ele>294.0</ele><time>2026-03-28T10:05:42.045Z</time></trkpt><trkpt lat="43.4048633" lon="11.2610283"><ele>293.5</ele><time>2026-03-28T10:05:43.045Z</time></trkpt><trkpt lat="43.4047983" lon="11.2608467"><ele>293.0</ele><time>2026-03-28T10:05:44.045Z</time></trkpt><trkpt lat="43.40473" lon="11.260675"><ele>293.0</ele><time>2026-03-28T10:05:45.044Z</time></trkpt><trkpt lat="43.40467" lon="11.26049"><ele>293.0</ele><time>2026-03-28T10:05:46.045Z</time></trkpt><trkpt lat="43.4045983" lon="11.26031"><ele>293.0</ele><time>2026-03-28T10:05:47.044Z</time></trkpt><trkpt lat="43.4045367" lon="11.2601283"><ele>293.0</ele><time>2026-03-28T10:05:48.045Z</time></trkpt><trkpt lat="43.4044717" lon="11.2599517"><ele>293.0</ele><time>2026-03-28T10:05:49.045Z</time></trkpt><trkpt lat="43.4043967" lon="11.2597867"><ele>293.0</ele><time>2026-03-28T10:05:50.045Z</time></trkpt><trkpt lat="43.4043217" lon="11.259635"><ele>293.0</ele><time>2026-03-28T10:05:51.045Z</time></trkpt><trkpt lat="43.4042467" lon="11.25949"><ele>293.0</ele><time>2026-03-28T10:05:52.045Z</time></trkpt><trkpt lat="43.4041683" lon="11.259365"><ele>293.25</ele><time>2026-03-28T10:05:53.045Z</time></trkpt><trkpt lat="43.404065" lon="11.259245"><ele>293.5</ele><time>2026-03-28T10:05:54.045Z</time></trkpt><trkpt lat="43.4039667" lon="11.259115"><ele>293.75</ele><time>2026-03-28T10:05:55.045Z</time></trkpt><trkpt lat="43.40386" lon="11.2589883"><ele>294.0</ele><time>2026-03-28T10:05:56.045Z</time></trkpt><trkpt lat="43.4037533" lon="11.258855"><ele>293.25</ele><time>2026-03-28T10:05:57.045Z</time></trkpt><trkpt lat="43.4036433" lon="11.2587183"><ele>292.5</ele><time>2026-03-28T10:05:58.045Z</time></trkpt><trkpt lat="43.4035267" lon="11.2585867"><ele>291.75</ele><time>2026-03-28T10:05:59.045Z</time></trkpt><trkpt lat="43.4034233" lon="11.25846"><ele>291.0</ele><time>2026-03-28T10:06:00.045Z</time></trkpt><trkpt lat="43.40333" lon="11.2583283"><ele>291.0</ele><time>2026-03-28T10:06:01.045Z</time></trkpt><trkpt lat="43.40322" lon="11.2582167"><ele>291.0</ele><time>2026-03-28T10:06:02.045Z</time></trkpt><trkpt lat="43.403115" lon="11.25811"><ele>291.0</ele><time>2026-03-28T10:06:03.045Z</time></trkpt><trkpt lat="43.403045" lon="11.2580133"><ele>291.0</ele><time>2026-03-28T10:06:04.045Z</time></trkpt><trkpt lat="43.402985" lon="11.2579283"><ele>290.8333333333333</ele><time>2026-03-28T10:06:05.045Z</time></trkpt><trkpt lat="43.402945" lon="11.2578517"><ele>290.6666666666667</ele><time>2026-03-28T10:06:06.044Z</time></trkpt><trkpt lat="43.4029333" lon="11.25775"><ele>290.5</ele><time>2026-03-28T10:06:08.045Z</time></trkpt><trkpt lat="43.4030117" lon="11.257655"><ele>290.33333333333337</ele><time>2026-03-28T10:06:10.045Z</time></trkpt><trkpt lat="43.403065" lon="11.25757"><ele>290.1666666666667</ele><time>2026-03-28T10:06:11.045Z</time></trkpt><trkpt lat="43.4031217" lon="11.2574417"><ele>290.0</ele><time>2026-03-28T10:06:12.045Z</time></trkpt><trkpt lat="43.403165" lon="11.25729"><ele>290.25</ele><time>2026-03-28T10:06:13.045Z</time></trkpt><trkpt lat="43.4031967" lon="11.2571167"><ele>290.5</ele><time>2026-03-28T10:06:14.045Z</time></trkpt><trkpt lat="43.403235" lon="11.2569217"><ele>290.75</ele><time>2026-03-28T10:06:15.045Z</time></trkpt><trkpt lat="43.4032717" lon="11.2567283"><ele>291.0</ele><time>2026-03-28T10:06:16.045Z</time></trkpt><trkpt lat="43.4033117" lon="11.2565117"><ele>291.3333333333333</ele><time>2026-03-28T10:06:17.045Z</time></trkpt><trkpt lat="43.403355" lon="11.2562933"><ele>291.66666666666663</ele><time>2026-03-28T10:06:18.045Z</time></trkpt><trkpt lat="43.403395" lon="11.256075"><ele>292.0</ele><time>2026-03-28T10:06:19.045Z</time></trkpt><trkpt lat="43.4034383" lon="11.255845"><ele>291.66666666666663</ele><time>2026-03-28T10:06:20.045Z</time></trkpt><trkpt lat="43.40349" lon="11.255615"><ele>291.3333333333333</ele><time>2026-03-28T10:06:21.045Z</time></trkpt><trkpt lat="43.4035433" lon="11.2553817"><ele>291.0</ele><time>2026-03-28T10:06:22.045Z</time></trkpt><trkpt lat="43.4035867" lon="11.2551467"><ele>291.0</ele><time>2026-03-28T10:06:23.045Z</time></trkpt><trkpt lat="43.40363" lon="11.2549183"><ele>291.0</ele><time>2026-03-28T10:06:24.044Z</time></trkpt><trkpt lat="43.4036783" lon="11.25468"><ele>291.0</ele><time>2026-03-28T10:06:25.044Z</time></trkpt><trkpt lat="43.40372" lon="11.2544517"><ele>290.6666666666667</ele><time>2026-03-28T10:06:26.045Z</time></trkpt><trkpt lat="43.403765" lon="11.25423"><ele>290.33333333333337</ele><time>2026-03-28T10:06:27.045Z</time></trkpt><trkpt lat="43.40381" lon="11.2540167"><ele>290.0</ele><time>2026-03-28T10:06:28.045Z</time></trkpt><trkpt lat="43.403855" lon="11.2538133"><ele>290.0</ele><time>2026-03-28T10:06:29.045Z</time></trkpt><trkpt lat="43.4038933" lon="11.2536133"><ele>290.0</ele><time>2026-03-28T10:06:30.045Z</time></trkpt><trkpt lat="43.4039233" lon="11.2533983"><ele>290.0</ele><time>2026-03-28T10:06:31.045Z</time></trkpt><trkpt lat="43.4039683" lon="11.2532017"><ele>290.5</ele><time>2026-03-28T10:06:32.045Z</time></trkpt><trkpt lat="43.4040117" lon="11.2530017"><ele>291.0</ele><time>2026-03-28T10:06:33.045Z</time></trkpt><trkpt lat="43.4040467" lon="11.252805"><ele>291.5</ele><time>2026-03-28T10:06:34.044Z</time></trkpt><trkpt lat="43.40408" lon="11.2526083"><ele>292.0</ele><time>2026-03-28T10:06:35.045Z</time></trkpt><trkpt lat="43.40411" lon="11.2524167"><ele>292.5</ele><time>2026-03-28T10:06:36.045Z</time></trkpt><trkpt lat="43.4041367" lon="11.252225"><ele>293.0</ele><time>2026-03-28T10:06:37.045Z</time></trkpt><trkpt lat="43.4041717" lon="11.25203"><ele>293.5</ele><time>2026-03-28T10:06:38.045Z</time></trkpt><trkpt lat="43.404205" lon="11.25185"><ele>294.0</ele><time>2026-03-28T10:06:39.044Z</time></trkpt><trkpt lat="43.4042333" lon="11.2516917"><ele>294.0</ele><time>2026-03-28T10:06:40.044Z</time></trkpt><trkpt lat="43.404245" lon="11.25154"><ele>294.0</ele><time>2026-03-28T10:06:41.045Z</time></trkpt><trkpt lat="43.4042517" lon="11.2513983"><ele>294.0</ele><time>2026-03-28T10:06:42.045Z</time></trkpt><trkpt lat="43.4042617" lon="11.25125"><ele>294.0</ele><time>2026-03-28T10:06:43.045Z</time></trkpt><trkpt lat="43.404285" lon="11.2511033"><ele>294.0</ele><time>2026-03-28T10:06:44.045Z</time></trkpt><trkpt lat="43.4043167" lon="11.2509417"><ele>294.5</ele><time>2026-03-28T10:06:45.045Z</time></trkpt><trkpt lat="43.4043633" lon="11.2507633"><ele>295.0</ele><time>2026-03-28T10:06:46.044Z</time></trkpt><trkpt lat="43.4044133" lon="11.2505733"><ele>295.5</ele><time>2026-03-28T10:06:47.044Z</time></trkpt><trkpt lat="43.4044583" lon="11.2503733"><ele>296.0</ele><time>2026-03-28T10:06:48.045Z</time></trkpt><trkpt lat="43.4045083" lon="11.25018"><ele>295.8</ele><time>2026-03-28T10:06:49.044Z</time></trkpt><trkpt lat="43.40455" lon="11.2500033"><ele>295.6</ele><time>2026-03-28T10:06:50.045Z</time></trkpt><trkpt lat="43.4045783" lon="11.2498467"><ele>295.4</ele><time>2026-03-28T10:06:51.045Z</time></trkpt><trkpt lat="43.4046033" lon="11.2497083"><ele>295.2</ele><time>2026-03-28T10:06:52.045Z</time></trkpt><trkpt lat="43.4046117" lon="11.2495867"><ele>295.0</ele><time>2026-03-28T10:06:53.045Z</time></trkpt><trkpt lat="43.4045967" lon="11.2494783"><ele>295.0</ele><time>2026-03-28T10:06:54.045Z</time></trkpt><trkpt lat="43.4045717" lon="11.2493833"><ele>295.0</ele><time>2026-03-28T10:06:55.045Z</time></trkpt><trkpt lat="43.40453" lon="11.2493117"><ele>295.0</ele><time>2026-03-28T10:06:56.045Z</time></trkpt><trkpt lat="43.404475" lon="11.2492533"><ele>295.0</ele><time>2026-03-28T10:06:57.045Z</time></trkpt><trkpt lat="43.404385" lon="11.249225"><ele>295.0</ele><time>2026-03-28T10:06:58.045Z</time></trkpt><trkpt lat="43.4042883" lon="11.2492233"><ele>295.0</ele><time>2026-03-28T10:06:59.045Z</time></trkpt><trkpt lat="43.404175" lon="11.2492517"><ele>295.0</ele><time>2026-03-28T10:07:00.044Z</time></trkpt><trkpt lat="43.40405" lon="11.2492917"><ele>295.0</ele><time>2026-03-28T10:07:01.045Z</time></trkpt><trkpt lat="43.40392" lon="11.2493417"><ele>295.0</ele><time>2026-03-28T10:07:02.045Z</time></trkpt><trkpt lat="43.4037817" lon="11.2493817"><ele>295.0</ele><time>2026-03-28T10:07:03.045Z</time></trkpt><trkpt lat="43.4036533" lon="11.24942"><ele>297.0</ele><time>2026-03-28T10:07:04.045Z</time></trkpt><trkpt lat="43.4035083" lon="11.2494567"><ele>299.0</ele><time>2026-03-28T10:07:05.045Z</time></trkpt><trkpt lat="43.4033583" lon="11.2494983"><ele>301.0</ele><time>2026-03-28T10:07:06.045Z</time></trkpt><trkpt lat="43.4032117" lon="11.2495367"><ele>301.0</ele><time>2026-03-28T10:07:07.045Z</time></trkpt><trkpt lat="43.4030733" lon="11.24957"><ele>301.0</ele><time>2026-03-28T10:07:08.045Z</time></trkpt><trkpt lat="43.402945" lon="11.2496033"><ele>301.0</ele><time>2026-03-28T10:07:09.045Z</time></trkpt><trkpt lat="43.4028267" lon="11.2496367"><ele>301.0</ele><time>2026-03-28T10:07:10.045Z</time></trkpt><trkpt lat="43.4027417" lon="11.24963"><ele>301.8</ele><time>2026-03-28T10:07:11.045Z</time></trkpt><trkpt lat="43.4026633" lon="11.249605"><ele>302.6</ele><time>2026-03-28T10:07:12.045Z</time></trkpt><trkpt lat="43.4025917" lon="11.249545"><ele>303.4</ele><time>2026-03-28T10:07:13.044Z</time></trkpt><trkpt lat="43.4025233" lon="11.2494567"><ele>304.2</ele><time>2026-03-28T10:07:14.045Z</time></trkpt><trkpt lat="43.4024467" lon="11.2493517"><ele>305.0</ele><time>2026-03-28T10:07:15.044Z</time></trkpt><trkpt lat="43.4023733" lon="11.2492483"><ele>305.0</ele><time>2026-03-28T10:07:16.045Z</time></trkpt><trkpt lat="43.4022917" lon="11.2491417"><ele>305.0</ele><time>2026-03-28T10:07:17.045Z</time></trkpt><trkpt lat="43.4022067" lon="11.24903"><ele>305.0</ele><time>2026-03-28T10:07:18.045Z</time></trkpt><trkpt lat="43.4021333" lon="11.2489333"><ele>305.0</ele><time>2026-03-28T10:07:19.045Z</time></trkpt><trkpt lat="43.4020683" lon="11.2488417"><ele>305.0</ele><time>2026-03-28T10:07:20.044Z</time></trkpt><trkpt lat="43.4020283" lon="11.2487467"><ele>306.5</ele><time>2026-03-28T10:07:21.045Z</time></trkpt><trkpt lat="43.402005" lon="11.2485783"><ele>308.0</ele><time>2026-03-28T10:07:23.045Z</time></trkpt><trkpt lat="43.4020183" lon="11.2484767"><ele>309.5</ele><time>2026-03-28T10:07:24.045Z</time></trkpt><trkpt lat="43.4020367" lon="11.2483717"><ele>311.0</ele><time>2026-03-28T10:07:25.045Z</time></trkpt><trkpt lat="43.4020567" lon="11.24826"><ele>312.5</ele><time>2026-03-28T10:07:26.044Z</time></trkpt><trkpt lat="43.402055" lon="11.2481683"><ele>314.0</ele><time>2026-03-28T10:07:27.045Z</time></trkpt><trkpt lat="43.40204" lon="11.248075"><ele>314.0</ele><time>2026-03-28T10:07:28.045Z</time></trkpt><trkpt lat="43.4020117" lon="11.24799"><ele>314.0</ele><time>2026-03-28T10:07:29.045Z</time></trkpt><trkpt lat="43.401955" lon="11.2478717"><ele>314.0</ele><time>2026-03-28T10:07:31.045Z</time></trkpt><trkpt lat="43.4018833" lon="11.2477367"><ele>314.0</ele><time>2026-03-28T10:07:33.045Z</time></trkpt><trkpt lat="43.4018333" lon="11.2476733"><ele>314.0</ele><time>2026-03-28T10:07:34.045Z</time></trkpt><trkpt lat="43.4017567" lon="11.2476167"><ele>314.0</ele><time>2026-03-28T10:07:35.045Z</time></trkpt><trkpt lat="43.4016783" lon="11.24758"><ele>314.0</ele><time>2026-03-28T10:07:36.045Z</time></trkpt><trkpt lat="43.4016017" lon="11.2475617"><ele>314.0</ele><time>2026-03-28T10:07:37.045Z</time></trkpt><trkpt lat="43.4015317" lon="11.247575"><ele>314.0</ele><time>2026-03-28T10:07:38.045Z</time></trkpt><trkpt lat="43.4014617" lon="11.2475983"><ele>314.0</ele><time>2026-03-28T10:07:39.044Z</time></trkpt><trkpt lat="43.4013783" lon="11.24763"><ele>314.0</ele><time>2026-03-28T10:07:40.045Z</time></trkpt><trkpt lat="43.4012967" lon="11.2476417"><ele>314.0</ele><time>2026-03-28T10:07:41.045Z</time></trkpt><trkpt lat="43.4012133" lon="11.2476567"><ele>313.2</ele><time>2026-03-28T10:07:42.045Z</time></trkpt><trkpt lat="43.40114" lon="11.247645"><ele>312.4</ele><time>2026-03-28T10:07:43.045Z</time></trkpt><trkpt lat="43.401065" lon="11.2476167"><ele>311.6</ele><time>2026-03-28T10:07:44.045Z</time></trkpt><trkpt lat="43.4009783" lon="11.2475733"><ele>310.8</ele><time>2026-03-28T10:07:45.045Z</time></trkpt><trkpt lat="43.40088" lon="11.247515"><ele>310.0</ele><time>2026-03-28T10:07:46.045Z</time></trkpt><trkpt lat="43.4007517" lon="11.2474417"><ele>310.0</ele><time>2026-03-28T10:07:47.045Z</time></trkpt><trkpt lat="43.4006133" lon="11.24737"><ele>310.0</ele><time>2026-03-28T10:07:48.045Z</time></trkpt><trkpt lat="43.4004567" lon="11.2473"><ele>310.0</ele><time>2026-03-28T10:07:49.045Z</time></trkpt><trkpt lat="43.4003217" lon="11.247225"><ele>308.0</ele><time>2026-03-28T10:07:50.044Z</time></trkpt><trkpt lat="43.40019" lon="11.2471633"><ele>306.0</ele><time>2026-03-28T10:07:51.045Z</time></trkpt><trkpt lat="43.400085" lon="11.2471"><ele>304.0</ele><time>2026-03-28T10:07:52.045Z</time></trkpt><trkpt lat="43.3999967" lon="11.24704"><ele>302.0</ele><time>2026-03-28T10:07:53.045Z</time></trkpt><trkpt lat="43.3999167" lon="11.2469917"><ele>300.0</ele><time>2026-03-28T10:07:54.045Z</time></trkpt><trkpt lat="43.399845" lon="11.2469733"><ele>300.0</ele><time>2026-03-28T10:07:55.045Z</time></trkpt><trkpt lat="43.3997783" lon="11.246995"><ele>300.0</ele><time>2026-03-28T10:07:56.044Z</time></trkpt><trkpt lat="43.3997133" lon="11.247035"><ele>300.0</ele><time>2026-03-28T10:07:57.045Z</time></trkpt><trkpt lat="43.3996583" lon="11.2471"><ele>300.0</ele><time>2026-03-28T10:07:58.045Z</time></trkpt><trkpt lat="43.399615" lon="11.2471933"><ele>300.0</ele><time>2026-03-28T10:07:59.044Z</time></trkpt><trkpt lat="43.399575" lon="11.2473083"><ele>300.0</ele><time>2026-03-28T10:08:00.045Z</time></trkpt><trkpt lat="43.399555" lon="11.2474433"><ele>299.4</ele><time>2026-03-28T10:08:01.045Z</time></trkpt><trkpt lat="43.399535" lon="11.2475933"><ele>298.8</ele><time>2026-03-28T10:08:02.045Z</time></trkpt><trkpt lat="43.399535" lon="11.2477483"><ele>298.2</ele><time>2026-03-28T10:08:03.045Z</time></trkpt><trkpt lat="43.39953" lon="11.2478933"><ele>297.6</ele><time>2026-03-28T10:08:04.045Z</time></trkpt><trkpt lat="43.399515" lon="11.2480317"><ele>297.0</ele><time>2026-03-28T10:08:05.045Z</time></trkpt><trkpt lat="43.3995233" lon="11.2481567"><ele>297.0</ele><time>2026-03-28T10:08:06.045Z</time></trkpt><trkpt lat="43.399535" lon="11.2482767"><ele>297.0</ele><time>2026-03-28T10:08:07.045Z</time></trkpt><trkpt lat="43.3995317" lon="11.2484017"><ele>297.0</ele><time>2026-03-28T10:08:08.044Z</time></trkpt><trkpt lat="43.3995167" lon="11.2485017"><ele>297.0</ele><time>2026-03-28T10:08:09.045Z</time></trkpt><trkpt lat="43.3995017" lon="11.2485917"><ele>297.0</ele><time>2026-03-28T10:08:10.045Z</time></trkpt><trkpt lat="43.3994667" lon="11.2486667"><ele>297.0</ele><time>2026-03-28T10:08:11.045Z</time></trkpt><trkpt lat="43.399375" lon="11.2487583"><ele>297.0</ele><time>2026-03-28T10:08:13.045Z</time></trkpt><trkpt lat="43.399225" lon="11.248765"><ele>297.0</ele><time>2026-03-28T10:08:15.044Z</time></trkpt><trkpt lat="43.3991117" lon="11.2487183"><ele>297.0</ele><time>2026-03-28T10:08:16.045Z</time></trkpt><trkpt lat="43.398995" lon="11.2486717"><ele>297.0</ele><time>2026-03-28T10:08:17.045Z</time></trkpt><trkpt lat="43.3988817" lon="11.2485983"><ele>293.75</ele><time>2026-03-28T10:08:18.045Z</time></trkpt><trkpt lat="43.3987817" lon="11.2485217"><ele>290.5</ele><time>2026-03-28T10:08:19.045Z</time></trkpt><trkpt lat="43.39869" lon="11.2484483"><ele>287.25</ele><time>2026-03-28T10:08:20.045Z</time></trkpt><trkpt lat="43.3985933" lon="11.2483617"><ele>284.0</ele><time>2026-03-28T10:08:21.045Z</time></trkpt><trkpt lat="43.39848" lon="11.2482633"><ele>284.0</ele><time>2026-03-28T10:08:22.044Z</time></trkpt><trkpt lat="43.3983633" lon="11.248165"><ele>284.0</ele><time>2026-03-28T10:08:23.045Z</time></trkpt><trkpt lat="43.3982667" lon="11.24805"><ele>284.0</ele><time>2026-03-28T10:08:24.045Z</time></trkpt><trkpt lat="43.3981617" lon="11.247935"><ele>284.0</ele><time>2026-03-28T10:08:25.045Z</time></trkpt><trkpt lat="43.3980583" lon="11.2478317"><ele>280.25</ele><time>2026-03-28T10:08:26.045Z</time></trkpt><trkpt lat="43.3979667" lon="11.24773"><ele>276.5</ele><time>2026-03-28T10:08:27.045Z</time></trkpt><trkpt lat="43.3978717" lon="11.247635"><ele>272.75</ele><time>2026-03-28T10:08:28.045Z</time></trkpt><trkpt lat="43.3977583" lon="11.2475517"><ele>269.0</ele><time>2026-03-28T10:08:29.044Z</time></trkpt><trkpt lat="43.397645" lon="11.2474717"><ele>269.0</ele><time>2026-03-28T10:08:30.044Z</time></trkpt><trkpt lat="43.397525" lon="11.2473983"><ele>269.0</ele><time>2026-03-28T10:08:31.045Z</time></trkpt><trkpt lat="43.397405" lon="11.247335"><ele>269.0</ele><time>2026-03-28T10:08:32.045Z</time></trkpt><trkpt lat="43.3972867" lon="11.2472767"><ele>269.0</ele><time>2026-03-28T10:08:33.045Z</time></trkpt><trkpt lat="43.397165" lon="11.2472217"><ele>266.75</ele><time>2026-03-28T10:08:34.045Z</time></trkpt><trkpt lat="43.39704" lon="11.24718"><ele>264.5</ele><time>2026-03-28T10:08:35.045Z</time></trkpt><trkpt lat="43.396905" lon="11.247155"><ele>262.25</ele><time>2026-03-28T10:08:36.045Z</time></trkpt><trkpt lat="43.39677" lon="11.24713"><ele>260.0</ele><time>2026-03-28T10:08:37.045Z</time></trkpt><trkpt lat="43.3966383" lon="11.2470867"><ele>260.0</ele><time>2026-03-28T10:08:38.044Z</time></trkpt><trkpt lat="43.3965067" lon="11.247035"><ele>260.0</ele><time>2026-03-28T10:08:39.045Z</time></trkpt><trkpt lat="43.3963667" lon="11.24699"><ele>260.0</ele><time>2026-03-28T10:08:40.045Z</time></trkpt><trkpt lat="43.3962183" lon="11.2469517"><ele>260.0</ele><time>2026-03-28T10:08:41.045Z</time></trkpt><trkpt lat="43.3960717" lon="11.2469183"><ele>259.75</ele><time>2026-03-28T10:08:42.045Z</time></trkpt><trkpt lat="43.3959333" lon="11.2468867"><ele>259.5</ele><time>2026-03-28T10:08:43.045Z</time></trkpt><trkpt lat="43.395805" lon="11.246865"><ele>259.25</ele><time>2026-03-28T10:08:44.044Z</time></trkpt><trkpt lat="43.3956683" lon="11.2468667"><ele>259.0</ele><time>2026-03-28T10:08:45.045Z</time></trkpt><trkpt lat="43.3955417" lon="11.2468767"><ele>259.75</ele><time>2026-03-28T10:08:46.044Z</time></trkpt><trkpt lat="43.3954367" lon="11.2469"><ele>260.5</ele><time>2026-03-28T10:08:47.044Z</time></trkpt><trkpt lat="43.3953183" lon="11.2469683"><ele>261.25</ele><time>2026-03-28T10:08:48.045Z</time></trkpt><trkpt lat="43.395205" lon="11.247035"><ele>262.0</ele><time>2026-03-28T10:08:49.045Z</time></trkpt><trkpt lat="43.39509" lon="11.2470967"><ele>262.0</ele><time>2026-03-28T10:08:50.045Z</time></trkpt><trkpt lat="43.3949783" lon="11.2471417"><ele>262.0</ele><time>2026-03-28T10:08:51.044Z</time></trkpt><trkpt lat="43.3948533" lon="11.24717"><ele>262.0</ele><time>2026-03-28T10:08:52.044Z</time></trkpt><trkpt lat="43.3947267" lon="11.2471733"><ele>262.0</ele><time>2026-03-28T10:08:53.045Z</time></trkpt><trkpt lat="43.3945967" lon="11.247155"><ele>260.75</ele><time>2026-03-28T10:08:54.045Z</time></trkpt><trkpt lat="43.394465" lon="11.2471167"><ele>259.5</ele><time>2026-03-28T10:08:55.045Z</time></trkpt><trkpt lat="43.3943417" lon="11.2470617"><ele>258.25</ele><time>2026-03-28T10:08:56.044Z</time></trkpt><trkpt lat="43.3942133" lon="11.2470017"><ele>257.0</ele><time>2026-03-28T10:08:57.045Z</time></trkpt><trkpt lat="43.3940867" lon="11.246955"><ele>257.0</ele><time>2026-03-28T10:08:58.044Z</time></trkpt><trkpt lat="43.393955" lon="11.2468967"><ele>257.0</ele><time>2026-03-28T10:08:59.045Z</time></trkpt><trkpt lat="43.393835" lon="11.2468417"><ele>257.0</ele><time>2026-03-28T10:09:00.045Z</time></trkpt><trkpt lat="43.3937217" lon="11.246795"><ele>257.0</ele><time>2026-03-28T10:09:01.045Z</time></trkpt><trkpt lat="43.3936067" lon="11.2467567"><ele>254.5</ele><time>2026-03-28T10:09:02.045Z</time></trkpt><trkpt lat="43.3934633" lon="11.2467283"><ele>252.0</ele><time>2026-03-28T10:09:03.045Z</time></trkpt><trkpt lat="43.3933183" lon="11.2467"><ele>249.5</ele><time>2026-03-28T10:09:04.045Z</time></trkpt><trkpt lat="43.393185" lon="11.2466767"><ele>247.0</ele><time>2026-03-28T10:09:05.045Z</time></trkpt><trkpt lat="43.3930517" lon="11.2466667"><ele>244.6</ele><time>2026-03-28T10:09:06.045Z</time></trkpt><trkpt lat="43.392925" lon="11.246655"><ele>242.2</ele><time>2026-03-28T10:09:07.045Z</time></trkpt><trkpt lat="43.392815" lon="11.2466367"><ele>239.8</ele><time>2026-03-28T10:09:08.044Z</time></trkpt><trkpt lat="43.3927167" lon="11.246615"><ele>237.4</ele><time>2026-03-28T10:09:09.045Z</time></trkpt><trkpt lat="43.3926417" lon="11.24658"><ele>235.0</ele><time>2026-03-28T10:09:10.045Z</time></trkpt><trkpt lat="43.3925633" lon="11.246475"><ele>235.2</ele><time>2026-03-28T10:09:12.045Z</time></trkpt><trkpt lat="43.39256" lon="11.2463283"><ele>235.4</ele><time>2026-03-28T10:09:14.045Z</time></trkpt><trkpt lat="43.3925817" lon="11.2462267"><ele>235.60000000000002</ele><time>2026-03-28T10:09:15.045Z</time></trkpt><trkpt lat="43.3926233" lon="11.2461083"><ele>235.8</ele><time>2026-03-28T10:09:16.045Z</time></trkpt><trkpt lat="43.3926667" lon="11.2459817"><ele>236.0</ele><time>2026-03-28T10:09:17.045Z</time></trkpt><trkpt lat="43.392715" lon="11.245845"><ele>236.0</ele><time>2026-03-28T10:09:18.045Z</time></trkpt><trkpt lat="43.3927483" lon="11.2457333"><ele>236.00000000000003</ele><time>2026-03-28T10:09:19.045Z</time></trkpt><trkpt lat="43.3927833" lon="11.2456367"><ele>236.00000000000003</ele><time>2026-03-28T10:09:20.045Z</time></trkpt><trkpt lat="43.3928167" lon="11.2454967"><ele>236.0</ele><time>2026-03-28T10:09:22.045Z</time></trkpt><trkpt lat="43.3927583" lon="11.2454433"><ele>236.0</ele><time>2026-03-28T10:09:25.045Z</time></trkpt><trkpt lat="43.3926617" lon="11.2455383"><ele>236.0</ele><time>2026-03-28T10:09:27.045Z</time></trkpt><trkpt lat="43.3925983" lon="11.2456183"><ele>236.00000000000003</ele><time>2026-03-28T10:09:28.044Z</time></trkpt><trkpt lat="43.3925183" lon="11.2457267"><ele>236.00000000000003</ele><time>2026-03-28T10:09:29.045Z</time></trkpt><trkpt lat="43.3924117" lon="11.2458317"><ele>236.0</ele><time>2026-03-28T10:09:30.045Z</time></trkpt><trkpt lat="43.3923283" lon="11.2459267"><ele>236.0</ele><time>2026-03-28T10:09:31.045Z</time></trkpt><trkpt lat="43.3922567" lon="11.2460133"><ele>236.00000000000003</ele><time>2026-03-28T10:09:32.045Z</time></trkpt><trkpt lat="43.3921967" lon="11.246085"><ele>236.0</ele><time>2026-03-28T10:09:33.044Z</time></trkpt><trkpt lat="43.3921167" lon="11.246125"><ele>236.0</ele><time>2026-03-28T10:09:35.045Z</time></trkpt><trkpt lat="43.392095" lon="11.2459933"><ele>236.0</ele><time>2026-03-28T10:09:38.045Z</time></trkpt><trkpt lat="43.3921183" lon="11.2459067"><ele>236.00000000000003</ele><time>2026-03-28T10:09:39.045Z</time></trkpt><trkpt lat="43.39217" lon="11.2457967"><ele>236.0</ele><time>2026-03-28T10:09:40.045Z</time></trkpt><trkpt lat="43.392235" lon="11.24568"><ele>232.75</ele><time>2026-03-28T10:09:41.045Z</time></trkpt><trkpt lat="43.3923017" lon="11.2455483"><ele>229.5</ele><time>2026-03-28T10:09:42.044Z</time></trkpt><trkpt lat="43.3923783" lon="11.2454133"><ele>226.25</ele><time>2026-03-28T10:09:43.045Z</time></trkpt><trkpt lat="43.3924467" lon="11.2452833"><ele>223.0</ele><time>2026-03-28T10:09:44.045Z</time></trkpt><trkpt lat="43.3925117" lon="11.2451717"><ele>222.99999999999997</ele><time>2026-03-28T10:09:45.045Z</time></trkpt><trkpt lat="43.3925517" lon="11.2450767"><ele>223.0</ele><time>2026-03-28T10:09:46.045Z</time></trkpt><trkpt lat="43.3925767" lon="11.2449867"><ele>223.0</ele><time>2026-03-28T10:09:47.045Z</time></trkpt><trkpt lat="43.3925583" lon="11.2448817"><ele>223.0</ele><time>2026-03-28T10:09:49.044Z</time></trkpt><trkpt lat="43.3924617" lon="11.2448783"><ele>222.99999999999997</ele><time>2026-03-28T10:09:51.045Z</time></trkpt><trkpt lat="43.39239" lon="11.24492"><ele>223.0</ele><time>2026-03-28T10:09:52.045Z</time></trkpt><trkpt lat="43.3923017" lon="11.244995"><ele>223.0</ele><time>2026-03-28T10:09:53.045Z</time></trkpt><trkpt lat="43.3921883" lon="11.2450767"><ele>223.0</ele><time>2026-03-28T10:09:54.044Z</time></trkpt><trkpt lat="43.3920733" lon="11.24516"><ele>223.0</ele><time>2026-03-28T10:09:55.045Z</time></trkpt><trkpt lat="43.39193" lon="11.245255"><ele>223.0</ele><time>2026-03-28T10:09:56.045Z</time></trkpt><trkpt lat="43.3917867" lon="11.24532"><ele>220.0</ele><time>2026-03-28T10:09:57.045Z</time></trkpt><trkpt lat="43.3916533" lon="11.2453933"><ele>217.0</ele><time>2026-03-28T10:09:58.045Z</time></trkpt><trkpt lat="43.3915267" lon="11.2454917"><ele>214.0</ele><time>2026-03-28T10:09:59.045Z</time></trkpt><trkpt lat="43.3914" lon="11.245585"><ele>211.0</ele><time>2026-03-28T10:10:00.045Z</time></trkpt><trkpt lat="43.3912783" lon="11.2456717"><ele>210.5</ele><time>2026-03-28T10:10:01.045Z</time></trkpt><trkpt lat="43.391155" lon="11.24575"><ele>210.0</ele><time>2026-03-28T10:10:02.045Z</time></trkpt><trkpt lat="43.3910333" lon="11.245825"><ele>209.5</ele><time>2026-03-28T10:10:03.045Z</time></trkpt><trkpt lat="43.3909167" lon="11.245885"><ele>209.0</ele><time>2026-03-28T10:10:04.045Z</time></trkpt><trkpt lat="43.3908117" lon="11.24592"><ele>209.0</ele><time>2026-03-28T10:10:05.045Z</time></trkpt><trkpt lat="43.390725" lon="11.245955"><ele>209.0</ele><time>2026-03-28T10:10:06.044Z</time></trkpt><trkpt lat="43.39066" lon="11.24599"><ele>209.0</ele><time>2026-03-28T10:10:07.045Z</time></trkpt><trkpt lat="43.3905233" lon="11.2460417"><ele>209.0</ele><time>2026-03-28T10:10:09.045Z</time></trkpt><trkpt lat="43.390435" lon="11.2460833"><ele>209.0</ele><time>2026-03-28T10:10:10.045Z</time></trkpt><trkpt lat="43.39033" lon="11.2461517"><ele>209.5</ele><time>2026-03-28T10:10:11.045Z</time></trkpt><trkpt lat="43.3902133" lon="11.2462183"><ele>210.0</ele><time>2026-03-28T10:10:12.045Z</time></trkpt><trkpt lat="43.39009" lon="11.2462917"><ele>210.5</ele><time>2026-03-28T10:10:13.044Z</time></trkpt><trkpt lat="43.3899617" lon="11.2463617"><ele>211.0</ele><time>2026-03-28T10:10:14.045Z</time></trkpt><trkpt lat="43.3898317" lon="11.2464467"><ele>210.66666666666666</ele><time>2026-03-28T10:10:15.045Z</time></trkpt><trkpt lat="43.3896933" lon="11.246535"><ele>210.33333333333331</ele><time>2026-03-28T10:10:16.045Z</time></trkpt><trkpt lat="43.3895433" lon="11.2466317"><ele>210.0</ele><time>2026-03-28T10:10:17.044Z</time></trkpt><trkpt lat="43.389395" lon="11.24672"><ele>210.0</ele><time>2026-03-28T10:10:18.045Z</time></trkpt><trkpt lat="43.3892667" lon="11.246795"><ele>210.0</ele><time>2026-03-28T10:10:19.044Z</time></trkpt><trkpt lat="43.38913" lon="11.2468483"><ele>210.0</ele><time>2026-03-28T10:10:20.045Z</time></trkpt><trkpt lat="43.3889917" lon="11.246895"><ele>210.0</ele><time>2026-03-28T10:10:21.045Z</time></trkpt><trkpt lat="43.3888617" lon="11.2469383"><ele>212.0</ele><time>2026-03-28T10:10:22.045Z</time></trkpt><trkpt lat="43.38873" lon="11.246975"><ele>214.0</ele><time>2026-03-28T10:10:23.045Z</time></trkpt><trkpt lat="43.3885967" lon="11.2470283"><ele>216.0</ele><time>2026-03-28T10:10:24.045Z</time></trkpt><trkpt lat="43.3884483" lon="11.2471217"><ele>218.0</ele><time>2026-03-28T10:10:25.045Z</time></trkpt><trkpt lat="43.3883183" lon="11.2472183"><ele>218.0</ele><time>2026-03-28T10:10:26.045Z</time></trkpt><trkpt lat="43.388185" lon="11.2472917"><ele>218.0</ele><time>2026-03-28T10:10:27.045Z</time></trkpt><trkpt lat="43.38805" lon="11.2473633"><ele>218.0</ele><time>2026-03-28T10:10:28.045Z</time></trkpt><trkpt lat="43.3878967" lon="11.2474117"><ele>218.0</ele><time>2026-03-28T10:10:29.045Z</time></trkpt><trkpt lat="43.3877367" lon="11.2474417"><ele>216.66666666666669</ele><time>2026-03-28T10:10:30.045Z</time></trkpt><trkpt lat="43.3875867" lon="11.24746"><ele>215.33333333333331</ele><time>2026-03-28T10:10:31.045Z</time></trkpt><trkpt lat="43.38743" lon="11.2474533"><ele>214.0</ele><time>2026-03-28T10:10:32.045Z</time></trkpt><trkpt lat="43.387265" lon="11.2474083"><ele>215.0</ele><time>2026-03-28T10:10:33.045Z</time></trkpt><trkpt lat="43.3871167" lon="11.24736"><ele>216.0</ele><time>2026-03-28T10:10:34.044Z</time></trkpt><trkpt lat="43.386965" lon="11.2473433"><ele>217.0</ele><time>2026-03-28T10:10:35.045Z</time></trkpt><trkpt lat="43.3868117" lon="11.247345"><ele>217.0</ele><time>2026-03-28T10:10:36.045Z</time></trkpt><trkpt lat="43.3866567" lon="11.2473733"><ele>217.0</ele><time>2026-03-28T10:10:37.045Z</time></trkpt><trkpt lat="43.38652" lon="11.2474167"><ele>217.0</ele><time>2026-03-28T10:10:38.045Z</time></trkpt><trkpt lat="43.3863817" lon="11.2474517"><ele>217.0</ele><time>2026-03-28T10:10:39.044Z</time></trkpt><trkpt lat="43.3862667" lon="11.2474633"><ele>217.0</ele><time>2026-03-28T10:10:40.045Z</time></trkpt><trkpt lat="43.3861533" lon="11.2474467"><ele>217.0</ele><time>2026-03-28T10:10:41.044Z</time></trkpt><trkpt lat="43.3860317" lon="11.2473967"><ele>217.0</ele><time>2026-03-28T10:10:42.045Z</time></trkpt><trkpt lat="43.3859083" lon="11.2473133"><ele>217.0</ele><time>2026-03-28T10:10:43.045Z</time></trkpt><trkpt lat="43.38578" lon="11.247205"><ele>218.75</ele><time>2026-03-28T10:10:44.045Z</time></trkpt><trkpt lat="43.3856667" lon="11.2470883"><ele>220.5</ele><time>2026-03-28T10:10:45.045Z</time></trkpt><trkpt lat="43.385545" lon="11.2469883"><ele>222.25</ele><time>2026-03-28T10:10:46.045Z</time></trkpt><trkpt lat="43.3854167" lon="11.2469133"><ele>224.0</ele><time>2026-03-28T10:10:47.045Z</time></trkpt><trkpt lat="43.3852767" lon="11.2468667"><ele>224.0</ele><time>2026-03-28T10:10:48.045Z</time></trkpt><trkpt lat="43.385125" lon="11.2468367"><ele>224.0</ele><time>2026-03-28T10:10:49.045Z</time></trkpt><trkpt lat="43.384995" lon="11.2468133"><ele>224.0</ele><time>2026-03-28T10:10:50.045Z</time></trkpt><trkpt lat="43.3848683" lon="11.2467883"><ele>224.0</ele><time>2026-03-28T10:10:51.045Z</time></trkpt><trkpt lat="43.3847667" lon="11.2467617"><ele>223.75</ele><time>2026-03-28T10:10:52.045Z</time></trkpt><trkpt lat="43.384655" lon="11.2467267"><ele>223.5</ele><time>2026-03-28T10:10:53.045Z</time></trkpt><trkpt lat="43.3845367" lon="11.246685"><ele>223.25</ele><time>2026-03-28T10:10:54.045Z</time></trkpt><trkpt lat="43.3843967" lon="11.2466217"><ele>223.0</ele><time>2026-03-28T10:10:55.045Z</time></trkpt><trkpt lat="43.3842417" lon="11.24655"><ele>223.0</ele><time>2026-03-28T10:10:56.045Z</time></trkpt><trkpt lat="43.3840767" lon="11.2464783"><ele>223.0</ele><time>2026-03-28T10:10:57.045Z</time></trkpt><trkpt lat="43.3839017" lon="11.24642"><ele>223.0</ele><time>2026-03-28T10:10:58.045Z</time></trkpt><trkpt lat="43.3837333" lon="11.24636"><ele>224.0</ele><time>2026-03-28T10:10:59.045Z</time></trkpt><trkpt lat="43.3835967" lon="11.2463033"><ele>225.0</ele><time>2026-03-28T10:11:00.045Z</time></trkpt><trkpt lat="43.3834683" lon="11.24625"><ele>226.0</ele><time>2026-03-28T10:11:01.045Z</time></trkpt><trkpt lat="43.383365" lon="11.2462083"><ele>227.0</ele><time>2026-03-28T10:11:02.045Z</time></trkpt><trkpt lat="43.3832967" lon="11.2461717"><ele>227.0</ele><time>2026-03-28T10:11:03.045Z</time></trkpt><trkpt lat="43.383235" lon="11.246145"><ele>227.0</ele><time>2026-03-28T10:11:04.045Z</time></trkpt><trkpt lat="43.3831583" lon="11.2460383"><ele>227.0</ele><time>2026-03-28T10:11:06.045Z</time></trkpt><trkpt lat="43.383135" lon="11.2459417"><ele>227.0</ele><time>2026-03-28T10:11:07.045Z</time></trkpt><trkpt lat="43.3831133" lon="11.24581"><ele>227.0</ele><time>2026-03-28T10:11:08.045Z</time></trkpt><trkpt lat="43.3830783" lon="11.245655"><ele>228.0</ele><time>2026-03-28T10:11:09.044Z</time></trkpt><trkpt lat="43.3830333" lon="11.2454833"><ele>229.0</ele><time>2026-03-28T10:11:10.044Z</time></trkpt><trkpt lat="43.3829817" lon="11.245305"><ele>230.0</ele><time>2026-03-28T10:11:11.045Z</time></trkpt><trkpt lat="43.38293" lon="11.2451133"><ele>231.0</ele><time>2026-03-28T10:11:12.045Z</time></trkpt><trkpt lat="43.382885" lon="11.244915"><ele>233.66666666666669</ele><time>2026-03-28T10:11:13.045Z</time></trkpt><trkpt lat="43.3828433" lon="11.2447133"><ele>236.33333333333334</ele><time>2026-03-28T10:11:14.045Z</time></trkpt><trkpt lat="43.38278" lon="11.24452"><ele>239.0</ele><time>2026-03-28T10:11:15.045Z</time></trkpt><trkpt lat="43.382705" lon="11.2443467"><ele>239.0</ele><time>2026-03-28T10:11:16.045Z</time></trkpt><trkpt lat="43.3825983" lon="11.2442183"><ele>238.99999999999997</ele><time>2026-03-28T10:11:17.045Z</time></trkpt><trkpt lat="43.3825067" lon="11.2441167"><ele>238.99999999999997</ele><time>2026-03-28T10:11:18.045Z</time></trkpt><trkpt lat="43.38245" lon="11.2440567"><ele>239.0</ele><time>2026-03-28T10:11:19.045Z</time></trkpt><trkpt lat="43.3823967" lon="11.2440067"><ele>239.0</ele><time>2026-03-28T10:11:20.045Z</time></trkpt><trkpt lat="43.38234" lon="11.24395"><ele>239.0</ele><time>2026-03-28T10:11:21.045Z</time></trkpt><trkpt lat="43.3822817" lon="11.243865"><ele>238.99999999999997</ele><time>2026-03-28T10:11:22.045Z</time></trkpt><trkpt lat="43.3822217" lon="11.2437517"><ele>238.99999999999997</ele><time>2026-03-28T10:11:23.045Z</time></trkpt><trkpt lat="43.3821483" lon="11.2436133"><ele>239.0</ele><time>2026-03-28T10:11:24.045Z</time></trkpt><trkpt lat="43.38207" lon="11.243465"><ele>239.0</ele><time>2026-03-28T10:11:25.045Z</time></trkpt><trkpt lat="43.3820083" lon="11.243295"><ele>237.5</ele><time>2026-03-28T10:11:26.045Z</time></trkpt><trkpt lat="43.3819717" lon="11.2431"><ele>236.0</ele><time>2026-03-28T10:11:27.045Z</time></trkpt><trkpt lat="43.3819783" lon="11.2429"><ele>234.5</ele><time>2026-03-28T10:11:28.045Z</time></trkpt><trkpt lat="43.38202" lon="11.2427217"><ele>233.0</ele><time>2026-03-28T10:11:29.045Z</time></trkpt><trkpt lat="43.3820867" lon="11.242525"><ele>233.0</ele><time>2026-03-28T10:11:30.044Z</time></trkpt><trkpt lat="43.38215" lon="11.2423317"><ele>233.0</ele><time>2026-03-28T10:11:31.045Z</time></trkpt><trkpt lat="43.3821983" lon="11.2421567"><ele>233.0</ele><time>2026-03-28T10:11:32.045Z</time></trkpt><trkpt lat="43.3822583" lon="11.2419983"><ele>233.0</ele><time>2026-03-28T10:11:33.045Z</time></trkpt><trkpt lat="43.3822933" lon="11.2418767"><ele>233.8</ele><time>2026-03-28T10:11:34.044Z</time></trkpt><trkpt lat="43.3823117" lon="11.2417883"><ele>234.60000000000002</ele><time>2026-03-28T10:11:35.045Z</time></trkpt><trkpt lat="43.3822967" lon="11.24165"><ele>235.39999999999998</ele><time>2026-03-28T10:11:37.045Z</time></trkpt><trkpt lat="43.3822117" lon="11.2415117"><ele>236.2</ele><time>2026-03-28T10:11:39.045Z</time></trkpt><trkpt lat="43.3821783" lon="11.24142"><ele>237.0</ele><time>2026-03-28T10:11:40.044Z</time></trkpt><trkpt lat="43.38215" lon="11.24132"><ele>238.2</ele><time>2026-03-28T10:11:41.045Z</time></trkpt><trkpt lat="43.38211" lon="11.2411983"><ele>239.39999999999998</ele><time>2026-03-28T10:11:42.045Z</time></trkpt><trkpt lat="43.3820667" lon="11.2410567"><ele>240.60000000000002</ele><time>2026-03-28T10:11:43.044Z</time></trkpt><trkpt lat="43.382015" lon="11.2409167"><ele>241.8</ele><time>2026-03-28T10:11:44.045Z</time></trkpt><trkpt lat="43.3819717" lon="11.2407933"><ele>243.0</ele><time>2026-03-28T10:11:45.045Z</time></trkpt><trkpt lat="43.381925" lon="11.240665"><ele>243.66666666666666</ele><time>2026-03-28T10:11:46.044Z</time></trkpt><trkpt lat="43.381875" lon="11.2405533"><ele>244.33333333333331</ele><time>2026-03-28T10:11:47.045Z</time></trkpt><trkpt lat="43.3818433" lon="11.2404633"><ele>245.0</ele><time>2026-03-28T10:11:48.045Z</time></trkpt><trkpt lat="43.3818017" lon="11.2403583"><ele>245.66666666666666</ele><time>2026-03-28T10:11:50.045Z</time></trkpt><trkpt lat="43.381735" lon="11.240375"><ele>246.33333333333331</ele><time>2026-03-28T10:11:52.045Z</time></trkpt><trkpt lat="43.3816417" lon="11.2404083"><ele>247.0</ele><time>2026-03-28T10:11:54.045Z</time></trkpt><trkpt lat="43.38154" lon="11.240345"><ele>247.0</ele><time>2026-03-28T10:11:56.044Z</time></trkpt><trkpt lat="43.3814733" lon="11.2402817"><ele>247.0</ele><time>2026-03-28T10:11:57.045Z</time></trkpt><trkpt lat="43.381395" lon="11.2402017"><ele>247.0</ele><time>2026-03-28T10:11:58.045Z</time></trkpt><trkpt lat="43.3812883" lon="11.24013"><ele>247.0</ele><time>2026-03-28T10:11:59.045Z</time></trkpt><trkpt lat="43.381185" lon="11.24006"><ele>247.0</ele><time>2026-03-28T10:12:00.045Z</time></trkpt><trkpt lat="43.3810917" lon="11.2399833"><ele>247.0</ele><time>2026-03-28T10:12:01.045Z</time></trkpt><trkpt lat="43.3809917" lon="11.2399033"><ele>247.0</ele><time>2026-03-28T10:12:02.045Z</time></trkpt><trkpt lat="43.3808783" lon="11.2398183"><ele>247.0</ele><time>2026-03-28T10:12:03.045Z</time></trkpt><trkpt lat="43.38077" lon="11.2397433"><ele>247.0</ele><time>2026-03-28T10:12:04.045Z</time></trkpt><trkpt lat="43.3806533" lon="11.23967"><ele>247.25</ele><time>2026-03-28T10:12:05.044Z</time></trkpt><trkpt lat="43.380535" lon="11.2396317"><ele>247.5</ele><time>2026-03-28T10:12:06.045Z</time></trkpt><trkpt lat="43.3804167" lon="11.2395933"><ele>247.75</ele><time>2026-03-28T10:12:07.044Z</time></trkpt><trkpt lat="43.380295" lon="11.2395467"><ele>248.0</ele><time>2026-03-28T10:12:08.045Z</time></trkpt><trkpt lat="43.380185" lon="11.23946"><ele>248.0</ele><time>2026-03-28T10:12:09.045Z</time></trkpt><trkpt lat="43.3800817" lon="11.2393633"><ele>248.0</ele><time>2026-03-28T10:12:10.045Z</time></trkpt><trkpt lat="43.3799667" lon="11.2392717"><ele>248.0</ele><time>2026-03-28T10:12:11.044Z</time></trkpt><trkpt lat="43.3798383" lon="11.2391917"><ele>248.0</ele><time>2026-03-28T10:12:12.044Z</time></trkpt><trkpt lat="43.3797033" lon="11.239135"><ele>247.25</ele><time>2026-03-28T10:12:13.045Z</time></trkpt><trkpt lat="43.3795667" lon="11.2390733"><ele>246.5</ele><time>2026-03-28T10:12:14.045Z</time></trkpt><trkpt lat="43.3794317" lon="11.23901"><ele>245.75</ele><time>2026-03-28T10:12:15.045Z</time></trkpt><trkpt lat="43.3792817" lon="11.2389417"><ele>245.0</ele><time>2026-03-28T10:12:16.045Z</time></trkpt><trkpt lat="43.3791417" lon="11.2388683"><ele>246.0</ele><time>2026-03-28T10:12:17.045Z</time></trkpt><trkpt lat="43.3790117" lon="11.2387833"><ele>247.0</ele><time>2026-03-28T10:12:18.045Z</time></trkpt><trkpt lat="43.37888" lon="11.238685"><ele>248.0</ele><time>2026-03-28T10:12:19.045Z</time></trkpt><trkpt lat="43.378775" lon="11.2385717"><ele>249.0</ele><time>2026-03-28T10:12:20.045Z</time></trkpt><trkpt lat="43.37869" lon="11.2384467"><ele>249.0</ele><time>2026-03-28T10:12:21.045Z</time></trkpt><trkpt lat="43.3786317" lon="11.2383183"><ele>248.99999999999997</ele><time>2026-03-28T10:12:22.045Z</time></trkpt><trkpt lat="43.3785767" lon="11.2381883"><ele>248.99999999999997</ele><time>2026-03-28T10:12:23.045Z</time></trkpt><trkpt lat="43.3785333" lon="11.2380467"><ele>249.0</ele><time>2026-03-28T10:12:24.045Z</time></trkpt><trkpt lat="43.3784867" lon="11.2379033"><ele>249.0</ele><time>2026-03-28T10:12:25.045Z</time></trkpt><trkpt lat="43.3784417" lon="11.2377583"><ele>250.5</ele><time>2026-03-28T10:12:26.045Z</time></trkpt><trkpt lat="43.37838" lon="11.2376033"><ele>252.0</ele><time>2026-03-28T10:12:27.045Z</time></trkpt><trkpt lat="43.378305" lon="11.2374483"><ele>253.5</ele><time>2026-03-28T10:12:28.045Z</time></trkpt><trkpt lat="43.378225" lon="11.2372867"><ele>255.0</ele><time>2026-03-28T10:12:29.045Z</time></trkpt><trkpt lat="43.3781483" lon="11.2371317"><ele>255.25</ele><time>2026-03-28T10:12:30.045Z</time></trkpt><trkpt lat="43.37806" lon="11.23697"><ele>255.5</ele><time>2026-03-28T10:12:31.045Z</time></trkpt><trkpt lat="43.3779767" lon="11.2368117"><ele>255.75</ele><time>2026-03-28T10:12:32.045Z</time></trkpt><trkpt lat="43.377895" lon="11.2366483"><ele>256.0</ele><time>2026-03-28T10:12:33.045Z</time></trkpt><trkpt lat="43.377805" lon="11.236485"><ele>258.25</ele><time>2026-03-28T10:12:34.045Z</time></trkpt><trkpt lat="43.377725" lon="11.2363233"><ele>260.5</ele><time>2026-03-28T10:12:35.045Z</time></trkpt><trkpt lat="43.37765" lon="11.2361933"><ele>262.75</ele><time>2026-03-28T10:12:36.045Z</time></trkpt><trkpt lat="43.377585" lon="11.2360783"><ele>265.0</ele><time>2026-03-28T10:12:37.045Z</time></trkpt><trkpt lat="43.3775117" lon="11.2359767"><ele>265.0</ele><time>2026-03-28T10:12:38.045Z</time></trkpt><trkpt lat="43.3774367" lon="11.23592"><ele>265.0</ele><time>2026-03-28T10:12:39.045Z</time></trkpt><trkpt lat="43.377355" lon="11.2359033"><ele>265.0</ele><time>2026-03-28T10:12:40.045Z</time></trkpt><trkpt lat="43.3772683" lon="11.2359233"><ele>265.0</ele><time>2026-03-28T10:12:41.045Z</time></trkpt><trkpt lat="43.37718" lon="11.235985"><ele>265.0</ele><time>2026-03-28T10:12:42.045Z</time></trkpt><trkpt lat="43.377085" lon="11.2360667"><ele>265.5</ele><time>2026-03-28T10:12:43.044Z</time></trkpt><trkpt lat="43.3769883" lon="11.2361683"><ele>266.0</ele><time>2026-03-28T10:12:44.045Z</time></trkpt><trkpt lat="43.3768967" lon="11.2362867"><ele>266.5</ele><time>2026-03-28T10:12:45.045Z</time></trkpt><trkpt lat="43.376795" lon="11.2363783"><ele>267.0</ele><time>2026-03-28T10:12:46.045Z</time></trkpt><trkpt lat="43.3767183" lon="11.2364283"><ele>267.0</ele><time>2026-03-28T10:12:47.045Z</time></trkpt><trkpt lat="43.3766117" lon="11.2364117"><ele>267.0</ele><time>2026-03-28T10:12:49.045Z</time></trkpt><trkpt lat="43.37656" lon="11.2363033"><ele>267.0</ele><time>2026-03-28T10:12:51.045Z</time></trkpt><trkpt lat="43.3765483" lon="11.2361917"><ele>267.0</ele><time>2026-03-28T10:12:52.045Z</time></trkpt><trkpt lat="43.3765417" lon="11.2360383"><ele>267.0</ele><time>2026-03-28T10:12:53.045Z</time></trkpt><trkpt lat="43.3765283" lon="11.2358533"><ele>267.0</ele><time>2026-03-28T10:12:54.044Z</time></trkpt><trkpt lat="43.3764983" lon="11.2356633"><ele>267.0</ele><time>2026-03-28T10:12:55.045Z</time></trkpt><trkpt lat="43.3764683" lon="11.23549"><ele>267.0</ele><time>2026-03-28T10:12:56.044Z</time></trkpt><trkpt lat="43.376435" lon="11.2353433"><ele>267.0</ele><time>2026-03-28T10:12:57.045Z</time></trkpt><trkpt lat="43.3763867" lon="11.235215"><ele>269.5</ele><time>2026-03-28T10:12:58.045Z</time></trkpt><trkpt lat="43.3763217" lon="11.2351167"><ele>272.0</ele><time>2026-03-28T10:12:59.045Z</time></trkpt><trkpt lat="43.3762317" lon="11.23502"><ele>274.5</ele><time>2026-03-28T10:13:00.045Z</time></trkpt><trkpt lat="43.3761233" lon="11.2349317"><ele>277.0</ele><time>2026-03-28T10:13:01.045Z</time></trkpt><trkpt lat="43.376" lon="11.23484"><ele>277.2</ele><time>2026-03-28T10:13:02.045Z</time></trkpt><trkpt lat="43.375885" lon="11.2347467"><ele>277.4</ele><time>2026-03-28T10:13:03.045Z</time></trkpt><trkpt lat="43.3757933" lon="11.2346683"><ele>277.6</ele><time>2026-03-28T10:13:04.045Z</time></trkpt><trkpt lat="43.37571" lon="11.2346133"><ele>277.8</ele><time>2026-03-28T10:13:05.045Z</time></trkpt><trkpt lat="43.3756283" lon="11.2345833"><ele>278.0</ele><time>2026-03-28T10:13:06.045Z</time></trkpt><trkpt lat="43.3755417" lon="11.2345783"><ele>279.25</ele><time>2026-03-28T10:13:07.045Z</time></trkpt><trkpt lat="43.3754483" lon="11.2346067"><ele>280.5</ele><time>2026-03-28T10:13:08.044Z</time></trkpt><trkpt lat="43.3753367" lon="11.2346317"><ele>281.75</ele><time>2026-03-28T10:13:09.045Z</time></trkpt><trkpt lat="43.375215" lon="11.2346917"><ele>283.0</ele><time>2026-03-28T10:13:10.045Z</time></trkpt><trkpt lat="43.375105" lon="11.2347633"><ele>282.8</ele><time>2026-03-28T10:13:11.045Z</time></trkpt><trkpt lat="43.37501" lon="11.2348617"><ele>282.6</ele><time>2026-03-28T10:13:12.045Z</time></trkpt><trkpt lat="43.374925" lon="11.2349667"><ele>282.4</ele><time>2026-03-28T10:13:13.045Z</time></trkpt><trkpt lat="43.3748367" lon="11.23507"><ele>282.2</ele><time>2026-03-28T10:13:14.044Z</time></trkpt><trkpt lat="43.3747617" lon="11.235135"><ele>282.0</ele><time>2026-03-28T10:13:15.045Z</time></trkpt><trkpt lat="43.3746683" lon="11.2351683"><ele>283.0</ele><time>2026-03-28T10:13:16.044Z</time></trkpt><trkpt lat="43.3745717" lon="11.235175"><ele>284.0</ele><time>2026-03-28T10:13:17.044Z</time></trkpt><trkpt lat="43.374475" lon="11.2351783"><ele>285.0</ele><time>2026-03-28T10:13:18.045Z</time></trkpt><trkpt lat="43.37437" lon="11.235145"><ele>286.0</ele><time>2026-03-28T10:13:19.044Z</time></trkpt><trkpt lat="43.3742683" lon="11.2351067"><ele>287.0</ele><time>2026-03-28T10:13:20.045Z</time></trkpt><trkpt lat="43.3741717" lon="11.2350783"><ele>287.0</ele><time>2026-03-28T10:13:21.045Z</time></trkpt><trkpt lat="43.3740983" lon="11.235075"><ele>287.0</ele><time>2026-03-28T10:13:22.044Z</time></trkpt><trkpt lat="43.3740333" lon="11.235085"><ele>287.0</ele><time>2026-03-28T10:13:23.045Z</time></trkpt><trkpt lat="43.3739733" lon="11.2351217"><ele>287.0</ele><time>2026-03-28T10:13:24.045Z</time></trkpt><trkpt lat="43.37391" lon="11.23518"><ele>287.0</ele><time>2026-03-28T10:13:25.045Z</time></trkpt><trkpt lat="43.373855" lon="11.235235"><ele>287.0</ele><time>2026-03-28T10:13:26.045Z</time></trkpt><trkpt lat="43.3737933" lon="11.2352917"><ele>287.0</ele><time>2026-03-28T10:13:27.045Z</time></trkpt><trkpt lat="43.3737283" lon="11.235345"><ele>288.1666666666667</ele><time>2026-03-28T10:13:28.045Z</time></trkpt><trkpt lat="43.3736567" lon="11.235405"><ele>289.33333333333337</ele><time>2026-03-28T10:13:29.044Z</time></trkpt><trkpt lat="43.373595" lon="11.23545"><ele>290.5</ele><time>2026-03-28T10:13:30.045Z</time></trkpt><trkpt lat="43.3735367" lon="11.2354917"><ele>291.6666666666667</ele><time>2026-03-28T10:13:31.045Z</time></trkpt><trkpt lat="43.3734017" lon="11.2355767"><ele>292.8333333333333</ele><time>2026-03-28T10:13:33.045Z</time></trkpt><trkpt lat="43.37334" lon="11.2356367"><ele>294.0</ele><time>2026-03-28T10:13:34.045Z</time></trkpt><trkpt lat="43.3732817" lon="11.2357033"><ele>294.0</ele><time>2026-03-28T10:13:35.045Z</time></trkpt><trkpt lat="43.3731833" lon="11.23576"><ele>294.0</ele><time>2026-03-28T10:13:37.044Z</time></trkpt><trkpt lat="43.373115" lon="11.2357267"><ele>294.0</ele><time>2026-03-28T10:13:39.045Z</time></trkpt><trkpt lat="43.3730367" lon="11.2356133"><ele>294.0</ele><time>2026-03-28T10:13:41.045Z</time></trkpt><trkpt lat="43.372975" lon="11.235545"><ele>294.0</ele><time>2026-03-28T10:13:42.044Z</time></trkpt><trkpt lat="43.3729" lon="11.2354783"><ele>295.4</ele><time>2026-03-28T10:13:43.044Z</time></trkpt><trkpt lat="43.37282" lon="11.2354217"><ele>296.79999999999995</ele><time>2026-03-28T10:13:44.045Z</time></trkpt><trkpt lat="43.3727317" lon="11.23538"><ele>298.20000000000005</ele><time>2026-03-28T10:13:45.044Z</time></trkpt><trkpt lat="43.3726383" lon="11.2353583"><ele>299.6</ele><time>2026-03-28T10:13:46.045Z</time></trkpt><trkpt lat="43.3725233" lon="11.2353383"><ele>301.0</ele><time>2026-03-28T10:13:47.045Z</time></trkpt><trkpt lat="43.37241" lon="11.2353067"><ele>301.0</ele><time>2026-03-28T10:13:48.044Z</time></trkpt><trkpt lat="43.3722933" lon="11.23526"><ele>301.0</ele><time>2026-03-28T10:13:49.045Z</time></trkpt><trkpt lat="43.3721817" lon="11.2352033"><ele>301.0</ele><time>2026-03-28T10:13:50.044Z</time></trkpt><trkpt lat="43.372075" lon="11.23514"><ele>301.0</ele><time>2026-03-28T10:13:51.045Z</time></trkpt><trkpt lat="43.3720017" lon="11.2350667"><ele>301.0</ele><time>2026-03-28T10:13:52.045Z</time></trkpt><trkpt lat="43.3719533" lon="11.2350017"><ele>303.0</ele><time>2026-03-28T10:13:53.044Z</time></trkpt><trkpt lat="43.3719233" lon="11.2349183"><ele>305.0</ele><time>2026-03-28T10:13:54.045Z</time></trkpt><trkpt lat="43.3719267" lon="11.2347917"><ele>307.0</ele><time>2026-03-28T10:13:55.045Z</time></trkpt><trkpt lat="43.371935" lon="11.234645"><ele>309.0</ele><time>2026-03-28T10:13:56.045Z</time></trkpt><trkpt lat="43.3719533" lon="11.2344767"><ele>311.0</ele><time>2026-03-28T10:13:57.045Z</time></trkpt><trkpt lat="43.3719533" lon="11.2343167"><ele>311.0</ele><time>2026-03-28T10:13:58.044Z</time></trkpt><trkpt lat="43.3719267" lon="11.2341667"><ele>311.0</ele><time>2026-03-28T10:13:59.045Z</time></trkpt><trkpt lat="43.3718867" lon="11.2340483"><ele>311.0</ele><time>2026-03-28T10:14:00.045Z</time></trkpt><trkpt lat="43.371845" lon="11.233955"><ele>311.0</ele><time>2026-03-28T10:14:01.045Z</time></trkpt><trkpt lat="43.371805" lon="11.2338817"><ele>311.0</ele><time>2026-03-28T10:14:02.045Z</time></trkpt><trkpt lat="43.371755" lon="11.2338217"><ele>311.0</ele><time>2026-03-28T10:14:03.045Z</time></trkpt><trkpt lat="43.3716367" lon="11.23379"><ele>310.85714285714283</ele><time>2026-03-28T10:14:05.044Z</time></trkpt><trkpt lat="43.371565" lon="11.2337983"><ele>310.7142857142857</ele><time>2026-03-28T10:14:06.045Z</time></trkpt><trkpt lat="43.371495" lon="11.233815"><ele>310.57142857142856</ele><time>2026-03-28T10:14:07.045Z</time></trkpt><trkpt lat="43.3714283" lon="11.23385"><ele>310.42857142857144</ele><time>2026-03-28T10:14:08.045Z</time></trkpt><trkpt lat="43.3713733" lon="11.2339067"><ele>310.2857142857143</ele><time>2026-03-28T10:14:09.045Z</time></trkpt><trkpt lat="43.3713283" lon="11.2339867"><ele>310.14285714285717</ele><time>2026-03-28T10:14:10.045Z</time></trkpt><trkpt lat="43.37129" lon="11.2340883"><ele>310.0</ele><time>2026-03-28T10:14:11.045Z</time></trkpt><trkpt lat="43.3712567" lon="11.2342117"><ele>313.0</ele><time>2026-03-28T10:14:12.045Z</time></trkpt><trkpt lat="43.371235" lon="11.2343317"><ele>316.0</ele><time>2026-03-28T10:14:13.045Z</time></trkpt><trkpt lat="43.3712183" lon="11.2344583"><ele>319.0</ele><time>2026-03-28T10:14:14.045Z</time></trkpt><trkpt lat="43.37121" lon="11.234575"><ele>322.0</ele><time>2026-03-28T10:14:15.044Z</time></trkpt><trkpt lat="43.3711983" lon="11.2346833"><ele>325.0</ele><time>2026-03-28T10:14:16.045Z</time></trkpt><trkpt lat="43.3711767" lon="11.2347783"><ele>328.0</ele><time>2026-03-28T10:14:17.045Z</time></trkpt><trkpt lat="43.3711233" lon="11.2349133"><ele>328.16666666666663</ele><time>2026-03-28T10:14:19.044Z</time></trkpt><trkpt lat="43.37103" lon="11.2349533"><ele>328.3333333333333</ele><time>2026-03-28T10:14:21.045Z</time></trkpt><trkpt lat="43.370965" lon="11.2349533"><ele>328.5</ele><time>2026-03-28T10:14:22.045Z</time></trkpt><trkpt lat="43.3708983" lon="11.234935"><ele>328.6666666666667</ele><time>2026-03-28T10:14:23.045Z</time></trkpt><trkpt lat="43.3708233" lon="11.23491"><ele>328.83333333333337</ele><time>2026-03-28T10:14:24.045Z</time></trkpt><trkpt lat="43.3707433" lon="11.2348633"><ele>329.0</ele><time>2026-03-28T10:14:25.045Z</time></trkpt><trkpt lat="43.3706867" lon="11.2348183"><ele>328.79999999999995</ele><time>2026-03-28T10:14:26.045Z</time></trkpt><trkpt lat="43.3706017" lon="11.2347217"><ele>328.59999999999997</ele><time>2026-03-28T10:14:28.045Z</time></trkpt><trkpt lat="43.37053" lon="11.234735"><ele>328.4</ele><time>2026-03-28T10:14:37.044Z</time></trkpt><trkpt lat="43.37043" lon="11.2347283"><ele>328.2</ele><time>2026-03-28T10:14:39.045Z</time></trkpt><trkpt lat="43.370325" lon="11.23474"><ele>328.0</ele><time>2026-03-28T10:14:41.045Z</time></trkpt><trkpt lat="43.3702183" lon="11.2347983"><ele>329.99999999999994</ele><time>2026-03-28T10:14:43.045Z</time></trkpt><trkpt lat="43.370135" lon="11.234845"><ele>332.0</ele><time>2026-03-28T10:14:45.045Z</time></trkpt><trkpt lat="43.3700717" lon="11.2348267"><ele>334.0</ele><time>2026-03-28T10:14:47.044Z</time></trkpt><trkpt lat="43.3700067" lon="11.2348133"><ele>336.0</ele><time>2026-03-28T10:14:49.045Z</time></trkpt><trkpt lat="43.3699383" lon="11.2348"><ele>338.0</ele><time>2026-03-28T10:14:51.045Z</time></trkpt><trkpt lat="43.36987" lon="11.23476"><ele>339.99999999999994</ele><time>2026-03-28T10:14:54.045Z</time></trkpt><trkpt lat="43.3698233" lon="11.2347"><ele>342.0</ele><time>2026-03-28T10:14:57.044Z</time></trkpt><trkpt lat="43.3697583" lon="11.2346233"><ele>345.40000000000003</ele><time>2026-03-28T10:14:59.045Z</time></trkpt><trkpt lat="43.3696583" lon="11.2345217"><ele>348.8</ele><time>2026-03-28T10:15:01.045Z</time></trkpt><trkpt lat="43.3695967" lon="11.234455"><ele>352.2</ele><time>2026-03-28T10:15:02.045Z</time></trkpt><trkpt lat="43.36952" lon="11.23439"><ele>355.6</ele><time>2026-03-28T10:15:03.045Z</time></trkpt><trkpt lat="43.3694567" lon="11.2343233"><ele>359.0</ele><time>2026-03-28T10:15:04.045Z</time></trkpt><trkpt lat="43.3693867" lon="11.2342633"><ele>359.0</ele><time>2026-03-28T10:15:05.045Z</time></trkpt><trkpt lat="43.3693083" lon="11.234205"><ele>359.0</ele><time>2026-03-28T10:15:06.045Z</time></trkpt><trkpt lat="43.3692383" lon="11.2341567"><ele>359.0</ele><time>2026-03-28T10:15:07.045Z</time></trkpt><trkpt lat="43.3691733" lon="11.2341067"><ele>359.0</ele><time>2026-03-28T10:15:08.044Z</time></trkpt><trkpt lat="43.3690967" lon="11.2340633"><ele>359.0</ele><time>2026-03-28T10:15:09.045Z</time></trkpt><trkpt lat="43.369025" lon="11.2340417"><ele>359.0</ele><time>2026-03-28T10:15:10.045Z</time></trkpt><trkpt lat="43.3689517" lon="11.23403"><ele>359.0</ele><time>2026-03-28T10:15:11.045Z</time></trkpt><trkpt lat="43.3688733" lon="11.234"><ele>359.0</ele><time>2026-03-28T10:15:12.045Z</time></trkpt><trkpt lat="43.36878" lon="11.2339683"><ele>359.0</ele><time>2026-03-28T10:15:13.044Z</time></trkpt><trkpt lat="43.368695" lon="11.2339317"><ele>359.0</ele><time>2026-03-28T10:15:14.045Z</time></trkpt><trkpt lat="43.3685983" lon="11.2339083"><ele>359.0</ele><time>2026-03-28T10:15:15.045Z</time></trkpt><trkpt lat="43.3684917" lon="11.23388"><ele>363.25</ele><time>2026-03-28T10:15:16.044Z</time></trkpt><trkpt lat="43.3683733" lon="11.23384"><ele>367.5</ele><time>2026-03-28T10:15:17.045Z</time></trkpt><trkpt lat="43.3682617" lon="11.2338017"><ele>371.75</ele><time>2026-03-28T10:15:18.044Z</time></trkpt><trkpt lat="43.3681467" lon="11.2337683"><ele>376.0</ele><time>2026-03-28T10:15:19.045Z</time></trkpt><trkpt lat="43.36803" lon="11.23372"><ele>378.6</ele><time>2026-03-28T10:15:20.044Z</time></trkpt><trkpt lat="43.3679233" lon="11.23368"><ele>381.20000000000005</ele><time>2026-03-28T10:15:21.045Z</time></trkpt><trkpt lat="43.3678383" lon="11.23366"><ele>383.79999999999995</ele><time>2026-03-28T10:15:22.045Z</time></trkpt><trkpt lat="43.3677517" lon="11.2336683"><ele>386.4</ele><time>2026-03-28T10:15:23.045Z</time></trkpt><trkpt lat="43.3676667" lon="11.2337017"><ele>389.0</ele><time>2026-03-28T10:15:24.045Z</time></trkpt><trkpt lat="43.3675867" lon="11.23374"><ele>388.99999999999994</ele><time>2026-03-28T10:15:25.045Z</time></trkpt><trkpt lat="43.36751" lon="11.2337783"><ele>389.0</ele><time>2026-03-28T10:15:26.045Z</time></trkpt><trkpt lat="43.3674317" lon="11.2337983"><ele>389.0</ele><time>2026-03-28T10:15:27.045Z</time></trkpt><trkpt lat="43.3673483" lon="11.2338017"><ele>389.0</ele><time>2026-03-28T10:15:28.045Z</time></trkpt><trkpt lat="43.3672617" lon="11.2337833"><ele>388.99999999999994</ele><time>2026-03-28T10:15:29.044Z</time></trkpt><trkpt lat="43.3671767" lon="11.233745"><ele>389.0</ele><time>2026-03-28T10:15:30.045Z</time></trkpt><trkpt lat="43.3670867" lon="11.233675"><ele>389.66666666666663</ele><time>2026-03-28T10:15:31.045Z</time></trkpt><trkpt lat="43.3670233" lon="11.23358"><ele>390.3333333333333</ele><time>2026-03-28T10:15:32.045Z</time></trkpt><trkpt lat="43.3669767" lon="11.233485"><ele>391.0</ele><time>2026-03-28T10:15:33.045Z</time></trkpt><trkpt lat="43.3669483" lon="11.2333767"><ele>391.66666666666663</ele><time>2026-03-28T10:15:34.045Z</time></trkpt><trkpt lat="43.366925" lon="11.2332667"><ele>392.3333333333333</ele><time>2026-03-28T10:15:35.045Z</time></trkpt><trkpt lat="43.3668867" lon="11.233165"><ele>393.0</ele><time>2026-03-28T10:15:36.045Z</time></trkpt><trkpt lat="43.3668433" lon="11.2330617"><ele>394.25</ele><time>2026-03-28T10:15:37.045Z</time></trkpt><trkpt lat="43.366795" lon="11.23294"><ele>395.5</ele><time>2026-03-28T10:15:38.045Z</time></trkpt><trkpt lat="43.3667467" lon="11.2327917"><ele>396.75</ele><time>2026-03-28T10:15:39.045Z</time></trkpt><trkpt lat="43.36671" lon="11.232625"><ele>398.0</ele><time>2026-03-28T10:15:40.045Z</time></trkpt><trkpt lat="43.3666833" lon="11.2324783"><ele>397.99999999999994</ele><time>2026-03-28T10:15:41.045Z</time></trkpt><trkpt lat="43.3666583" lon="11.23234"><ele>398.0</ele><time>2026-03-28T10:15:42.045Z</time></trkpt><trkpt lat="43.366615" lon="11.2322217"><ele>398.0</ele><time>2026-03-28T10:15:43.045Z</time></trkpt><trkpt lat="43.366575" lon="11.23214"><ele>398.0</ele><time>2026-03-28T10:15:44.045Z</time></trkpt><trkpt lat="43.3665183" lon="11.232075"><ele>397.99999999999994</ele><time>2026-03-28T10:15:45.044Z</time></trkpt><trkpt lat="43.366445" lon="11.2320283"><ele>398.0</ele><time>2026-03-28T10:15:46.045Z</time></trkpt><trkpt lat="43.3663633" lon="11.2319967"><ele>400.2</ele><time>2026-03-28T10:15:47.044Z</time></trkpt><trkpt lat="43.3662733" lon="11.2319583"><ele>402.4</ele><time>2026-03-28T10:15:48.045Z</time></trkpt><trkpt lat="43.3661833" lon="11.23191"><ele>404.59999999999997</ele><time>2026-03-28T10:15:49.045Z</time></trkpt><trkpt lat="43.3661033" lon="11.23185"><ele>406.79999999999995</ele><time>2026-03-28T10:15:50.045Z</time></trkpt><trkpt lat="43.3660383" lon="11.231785"><ele>409.0</ele><time>2026-03-28T10:15:51.045Z</time></trkpt><trkpt lat="43.3659583" lon="11.2317167"><ele>409.0</ele><time>2026-03-28T10:15:52.045Z</time></trkpt><trkpt lat="43.3658817" lon="11.23164"><ele>409.0</ele><time>2026-03-28T10:15:53.045Z</time></trkpt><trkpt lat="43.3658167" lon="11.2315483"><ele>409.0</ele><time>2026-03-28T10:15:54.045Z</time></trkpt><trkpt lat="43.3657683" lon="11.2314383"><ele>409.0</ele><time>2026-03-28T10:15:55.044Z</time></trkpt><trkpt lat="43.3657233" lon="11.2313083"><ele>409.0</ele><time>2026-03-28T10:15:56.045Z</time></trkpt><trkpt lat="43.3656833" lon="11.2311783"><ele>410.4</ele><time>2026-03-28T10:15:57.045Z</time></trkpt><trkpt lat="43.365635" lon="11.23105"><ele>411.79999999999995</ele><time>2026-03-28T10:15:58.045Z</time></trkpt><trkpt lat="43.3655867" lon="11.2309217"><ele>413.20000000000005</ele><time>2026-03-28T10:15:59.045Z</time></trkpt><trkpt lat="43.3655383" lon="11.2307883"><ele>414.6</ele><time>2026-03-28T10:16:00.045Z</time></trkpt><trkpt lat="43.365485" lon="11.230665"><ele>416.0</ele><time>2026-03-28T10:16:01.045Z</time></trkpt><trkpt lat="43.3654333" lon="11.2305383"><ele>418.3333333333333</ele><time>2026-03-28T10:16:02.045Z</time></trkpt><trkpt lat="43.3653883" lon="11.2304133"><ele>420.66666666666663</ele><time>2026-03-28T10:16:03.045Z</time></trkpt><trkpt lat="43.36534" lon="11.2302917"><ele>423.0</ele><time>2026-03-28T10:16:04.045Z</time></trkpt><trkpt lat="43.3652967" lon="11.2301917"><ele>425.33333333333337</ele><time>2026-03-28T10:16:05.045Z</time></trkpt><trkpt lat="43.36526" lon="11.2300983"><ele>427.6666666666667</ele><time>2026-03-28T10:16:06.045Z</time></trkpt><trkpt lat="43.3652167" lon="11.230005"><ele>430.0</ele><time>2026-03-28T10:16:07.045Z</time></trkpt><trkpt lat="43.36516" lon="11.22988"><ele>431.2</ele><time>2026-03-28T10:16:08.044Z</time></trkpt><trkpt lat="43.365095" lon="11.2297567"><ele>432.4</ele><time>2026-03-28T10:16:09.045Z</time></trkpt><trkpt lat="43.3650383" lon="11.2296217"><ele>433.6</ele><time>2026-03-28T10:16:10.045Z</time></trkpt><trkpt lat="43.3649833" lon="11.2294883"><ele>434.8</ele><time>2026-03-28T10:16:11.045Z</time></trkpt><trkpt lat="43.3649117" lon="11.2293667"><ele>436.0</ele><time>2026-03-28T10:16:12.044Z</time></trkpt><trkpt lat="43.3648433" lon="11.2292483"><ele>436.0</ele><time>2026-03-28T10:16:13.045Z</time></trkpt><trkpt lat="43.3647633" lon="11.2291417"><ele>436.0</ele><time>2026-03-28T10:16:14.045Z</time></trkpt><trkpt lat="43.364675" lon="11.2290417"><ele>436.0</ele><time>2026-03-28T10:16:15.045Z</time></trkpt><trkpt lat="43.3646" lon="11.2289233"><ele>436.0</ele><time>2026-03-28T10:16:16.045Z</time></trkpt><trkpt lat="43.3645467" lon="11.228805"><ele>436.0</ele><time>2026-03-28T10:16:17.045Z</time></trkpt><trkpt lat="43.3645183" lon="11.2286917"><ele>437.0</ele><time>2026-03-28T10:16:18.045Z</time></trkpt><trkpt lat="43.3645017" lon="11.2285817"><ele>438.0</ele><time>2026-03-28T10:16:19.045Z</time></trkpt><trkpt lat="43.364505" lon="11.2284833"><ele>439.0</ele><time>2026-03-28T10:16:20.045Z</time></trkpt><trkpt lat="43.3645083" lon="11.2283383"><ele>440.0</ele><time>2026-03-28T10:16:21.044Z</time></trkpt><trkpt lat="43.3645267" lon="11.2281917"><ele>441.0</ele><time>2026-03-28T10:16:22.045Z</time></trkpt><trkpt lat="43.3645583" lon="11.2280367"><ele>442.25</ele><time>2026-03-28T10:16:23.045Z</time></trkpt><trkpt lat="43.3645783" lon="11.22788"><ele>443.5</ele><time>2026-03-28T10:16:24.045Z</time></trkpt><trkpt lat="43.3646067" lon="11.2277117"><ele>444.75</ele><time>2026-03-28T10:16:25.045Z</time></trkpt><trkpt lat="43.3646317" lon="11.2275417"><ele>446.0</ele><time>2026-03-28T10:16:26.045Z</time></trkpt><trkpt lat="43.36464" lon="11.22738"><ele>446.20000000000005</ele><time>2026-03-28T10:16:27.045Z</time></trkpt><trkpt lat="43.36465" lon="11.2272283"><ele>446.40000000000003</ele><time>2026-03-28T10:16:28.045Z</time></trkpt><trkpt lat="43.3646567" lon="11.2270917"><ele>446.6</ele><time>2026-03-28T10:16:29.045Z</time></trkpt><trkpt lat="43.3646517" lon="11.22697"><ele>446.8</ele><time>2026-03-28T10:16:30.045Z</time></trkpt><trkpt lat="43.3646483" lon="11.226845"><ele>447.0</ele><time>2026-03-28T10:16:31.045Z</time></trkpt><trkpt lat="43.36465" lon="11.226725"><ele>447.0</ele><time>2026-03-28T10:16:32.045Z</time></trkpt><trkpt lat="43.3646467" lon="11.2266033"><ele>447.0</ele><time>2026-03-28T10:16:33.045Z</time></trkpt><trkpt lat="43.3646467" lon="11.2264967"><ele>447.0</ele><time>2026-03-28T10:16:34.044Z</time></trkpt><trkpt lat="43.3646683" lon="11.22639"><ele>447.0</ele><time>2026-03-28T10:16:35.045Z</time></trkpt><trkpt lat="43.3646967" lon="11.2262733"><ele>447.0</ele><time>2026-03-28T10:16:36.045Z</time></trkpt><trkpt lat="43.36474" lon="11.2261467"><ele>447.0</ele><time>2026-03-28T10:16:37.045Z</time></trkpt><trkpt lat="43.3647933" lon="11.2260233"><ele>446.8333333333333</ele><time>2026-03-28T10:16:38.045Z</time></trkpt><trkpt lat="43.364855" lon="11.22591"><ele>446.66666666666663</ele><time>2026-03-28T10:16:39.045Z</time></trkpt><trkpt lat="43.364905" lon="11.2258183"><ele>446.5</ele><time>2026-03-28T10:16:40.045Z</time></trkpt><trkpt lat="43.36495" lon="11.225705"><ele>446.3333333333333</ele><time>2026-03-28T10:16:42.044Z</time></trkpt><trkpt lat="43.3649433" lon="11.225575"><ele>446.16666666666663</ele><time>2026-03-28T10:16:44.044Z</time></trkpt><trkpt lat="43.3649317" lon="11.22548"><ele>446.0</ele><time>2026-03-28T10:16:45.044Z</time></trkpt><trkpt lat="43.3649183" lon="11.225365"><ele>446.49999999999994</ele><time>2026-03-28T10:16:46.045Z</time></trkpt><trkpt lat="43.3649217" lon="11.22525"><ele>447.0</ele><time>2026-03-28T10:16:47.045Z</time></trkpt><trkpt lat="43.3649383" lon="11.2251383"><ele>447.5</ele><time>2026-03-28T10:16:48.045Z</time></trkpt><trkpt lat="43.36495" lon="11.2250167"><ele>448.0</ele><time>2026-03-28T10:16:49.045Z</time></trkpt><trkpt lat="43.3649517" lon="11.2249117"><ele>448.49999999999994</ele><time>2026-03-28T10:16:50.045Z</time></trkpt><trkpt lat="43.3649367" lon="11.224825"><ele>449.0</ele><time>2026-03-28T10:16:51.045Z</time></trkpt><trkpt lat="43.3649067" lon="11.2247383"><ele>449.8333333333333</ele><time>2026-03-28T10:16:52.045Z</time></trkpt><trkpt lat="43.36486" lon="11.2246567"><ele>450.66666666666663</ele><time>2026-03-28T10:16:53.045Z</time></trkpt><trkpt lat="43.364815" lon="11.2245533"><ele>451.5</ele><time>2026-03-28T10:16:54.045Z</time></trkpt><trkpt lat="43.3647867" lon="11.2244417"><ele>452.33333333333337</ele><time>2026-03-28T10:16:55.045Z</time></trkpt><trkpt lat="43.3647617" lon="11.22434"><ele>453.1666666666667</ele><time>2026-03-28T10:16:56.044Z</time></trkpt><trkpt lat="43.3647367" lon="11.224215"><ele>454.0</ele><time>2026-03-28T10:16:57.044Z</time></trkpt><trkpt lat="43.36472" lon="11.2240767"><ele>455.4</ele><time>2026-03-28T10:16:58.045Z</time></trkpt><trkpt lat="43.3647117" lon="11.2239433"><ele>456.79999999999995</ele><time>2026-03-28T10:16:59.045Z</time></trkpt><trkpt lat="43.3647133" lon="11.2238117"><ele>458.20000000000005</ele><time>2026-03-28T10:17:00.045Z</time></trkpt><trkpt lat="43.3647267" lon="11.223675"><ele>459.6</ele><time>2026-03-28T10:17:01.045Z</time></trkpt><trkpt lat="43.3647583" lon="11.2235517"><ele>461.0</ele><time>2026-03-28T10:17:02.045Z</time></trkpt><trkpt lat="43.3647867" lon="11.223425"><ele>461.0</ele><time>2026-03-28T10:17:03.045Z</time></trkpt><trkpt lat="43.3648233" lon="11.2232967"><ele>461.0</ele><time>2026-03-28T10:17:04.045Z</time></trkpt><trkpt lat="43.3648717" lon="11.223165"><ele>461.0</ele><time>2026-03-28T10:17:05.044Z</time></trkpt><trkpt lat="43.3649083" lon="11.22303"><ele>461.0</ele><time>2026-03-28T10:17:06.044Z</time></trkpt><trkpt lat="43.3649367" lon="11.2228883"><ele>461.0</ele><time>2026-03-28T10:17:07.044Z</time></trkpt><trkpt lat="43.3649617" lon="11.22274"><ele>462.6</ele><time>2026-03-28T10:17:08.045Z</time></trkpt><trkpt lat="43.36498" lon="11.2226017"><ele>464.20000000000005</ele><time>2026-03-28T10:17:09.045Z</time></trkpt><trkpt lat="43.3650117" lon="11.2224717"><ele>465.79999999999995</ele><time>2026-03-28T10:17:10.045Z</time></trkpt><trkpt lat="43.365045" lon="11.222355"><ele>467.4</ele><time>2026-03-28T10:17:11.045Z</time></trkpt><trkpt lat="43.3650933" lon="11.2222483"><ele>469.0</ele><time>2026-03-28T10:17:12.045Z</time></trkpt><trkpt lat="43.36516" lon="11.22214"><ele>470.50000000000006</ele><time>2026-03-28T10:17:13.045Z</time></trkpt><trkpt lat="43.3652217" lon="11.222035"><ele>472.0</ele><time>2026-03-28T10:17:14.045Z</time></trkpt><trkpt lat="43.3652667" lon="11.2219283"><ele>473.5</ele><time>2026-03-28T10:17:15.045Z</time></trkpt><trkpt lat="43.3653083" lon="11.22182"><ele>475.0</ele><time>2026-03-28T10:17:16.045Z</time></trkpt><trkpt lat="43.3653467" lon="11.2217083"><ele>476.50000000000006</ele><time>2026-03-28T10:17:17.045Z</time></trkpt><trkpt lat="43.3653933" lon="11.221615"><ele>478.0</ele><time>2026-03-28T10:17:18.044Z</time></trkpt><trkpt lat="43.3654467" lon="11.221545"><ele>478.00000000000006</ele><time>2026-03-28T10:17:19.045Z</time></trkpt><trkpt lat="43.3655017" lon="11.2214867"><ele>478.0</ele><time>2026-03-28T10:17:20.045Z</time></trkpt><trkpt lat="43.365565" lon="11.2214383"><ele>478.0</ele><time>2026-03-28T10:17:21.045Z</time></trkpt><trkpt lat="43.3656317" lon="11.2213717"><ele>478.0</ele><time>2026-03-28T10:17:22.045Z</time></trkpt><trkpt lat="43.3656983" lon="11.2212817"><ele>478.00000000000006</ele><time>2026-03-28T10:17:23.045Z</time></trkpt><trkpt lat="43.36577" lon="11.2211933"><ele>478.0</ele><time>2026-03-28T10:17:24.045Z</time></trkpt><trkpt lat="43.3658383" lon="11.221105"><ele>477.79999999999995</ele><time>2026-03-28T10:17:25.045Z</time></trkpt><trkpt lat="43.3659033" lon="11.2210167"><ele>477.59999999999997</ele><time>2026-03-28T10:17:26.045Z</time></trkpt><trkpt lat="43.3659717" lon="11.2209217"><ele>477.40000000000003</ele><time>2026-03-28T10:17:27.045Z</time></trkpt><trkpt lat="43.3660267" lon="11.2208017"><ele>477.20000000000005</ele><time>2026-03-28T10:17:28.045Z</time></trkpt><trkpt lat="43.3660733" lon="11.2206733"><ele>477.0</ele><time>2026-03-28T10:17:29.045Z</time></trkpt><trkpt lat="43.3660933" lon="11.2205267"><ele>478.40000000000003</ele><time>2026-03-28T10:17:30.045Z</time></trkpt><trkpt lat="43.3661017" lon="11.22037"><ele>479.80000000000007</ele><time>2026-03-28T10:17:31.045Z</time></trkpt><trkpt lat="43.3660967" lon="11.22024"><ele>481.2</ele><time>2026-03-28T10:17:32.045Z</time></trkpt><trkpt lat="43.366095" lon="11.2201133"><ele>482.6</ele><time>2026-03-28T10:17:33.044Z</time></trkpt><trkpt lat="43.36609" lon="11.21999"><ele>484.0</ele><time>2026-03-28T10:17:34.045Z</time></trkpt><trkpt lat="43.366085" lon="11.21985"><ele>484.6</ele><time>2026-03-28T10:17:35.045Z</time></trkpt><trkpt lat="43.3660767" lon="11.2197233"><ele>485.2</ele><time>2026-03-28T10:17:36.044Z</time></trkpt><trkpt lat="43.3660717" lon="11.21959"><ele>485.80000000000007</ele><time>2026-03-28T10:17:37.045Z</time></trkpt><trkpt lat="43.366065" lon="11.219465"><ele>486.40000000000003</ele><time>2026-03-28T10:17:38.045Z</time></trkpt><trkpt lat="43.3660583" lon="11.2193383"><ele>487.0</ele><time>2026-03-28T10:17:39.044Z</time></trkpt><trkpt lat="43.3660583" lon="11.219205"><ele>487.0</ele><time>2026-03-28T10:17:40.045Z</time></trkpt><trkpt lat="43.3660633" lon="11.2190633"><ele>487.00000000000006</ele><time>2026-03-28T10:17:41.045Z</time></trkpt><trkpt lat="43.3660717" lon="11.2189167"><ele>487.00000000000006</ele><time>2026-03-28T10:17:42.045Z</time></trkpt><trkpt lat="43.3660817" lon="11.2187717"><ele>487.0</ele><time>2026-03-28T10:17:43.045Z</time></trkpt><trkpt lat="43.366085" lon="11.21862"><ele>487.0</ele><time>2026-03-28T10:17:44.044Z</time></trkpt><trkpt lat="43.3660833" lon="11.218475"><ele>487.00000000000006</ele><time>2026-03-28T10:17:45.044Z</time></trkpt><trkpt lat="43.3660917" lon="11.21835"><ele>487.0</ele><time>2026-03-28T10:17:46.045Z</time></trkpt><trkpt lat="43.3661133" lon="11.2182317"><ele>487.0</ele><time>2026-03-28T10:17:47.045Z</time></trkpt><trkpt lat="43.3661367" lon="11.2181117"><ele>487.0</ele><time>2026-03-28T10:17:48.045Z</time></trkpt><trkpt lat="43.3661617" lon="11.2179917"><ele>487.00000000000006</ele><time>2026-03-28T10:17:49.045Z</time></trkpt><trkpt lat="43.3661783" lon="11.21789"><ele>487.0</ele><time>2026-03-28T10:17:50.045Z</time></trkpt><trkpt lat="43.366195" lon="11.217805"><ele>486.83333333333337</ele><time>2026-03-28T10:17:51.045Z</time></trkpt><trkpt lat="43.3662183" lon="11.217685"><ele>486.6666666666667</ele><time>2026-03-28T10:17:53.044Z</time></trkpt><trkpt lat="43.36616" lon="11.2175767"><ele>486.5</ele><time>2026-03-28T10:17:55.045Z</time></trkpt><trkpt lat="43.3661017" lon="11.217535"><ele>486.33333333333337</ele><time>2026-03-28T10:17:56.045Z</time></trkpt><trkpt lat="43.3660483" lon="11.2174883"><ele>486.1666666666667</ele><time>2026-03-28T10:17:57.044Z</time></trkpt><trkpt lat="43.3659983" lon="11.21743"><ele>486.0</ele><time>2026-03-28T10:17:58.044Z</time></trkpt><trkpt lat="43.36595" lon="11.2172767"><ele>486.0</ele><time>2026-03-28T10:18:00.044Z</time></trkpt><trkpt lat="43.3659467" lon="11.2171883"><ele>486.0</ele><time>2026-03-28T10:18:01.045Z</time></trkpt><trkpt lat="43.36597" lon="11.217105"><ele>486.0</ele><time>2026-03-28T10:18:02.044Z</time></trkpt><trkpt lat="43.3660117" lon="11.2170283"><ele>486.0</ele><time>2026-03-28T10:18:03.045Z</time></trkpt><trkpt lat="43.36607" lon="11.21696"><ele>486.0</ele><time>2026-03-28T10:18:04.045Z</time></trkpt><trkpt lat="43.3661467" lon="11.2168817"><ele>486.0</ele><time>2026-03-28T10:18:05.045Z</time></trkpt><trkpt lat="43.3662333" lon="11.2168"><ele>486.0</ele><time>2026-03-28T10:18:06.045Z</time></trkpt><trkpt lat="43.3663467" lon="11.21673"><ele>486.0</ele><time>2026-03-28T10:18:07.044Z</time></trkpt><trkpt lat="43.36647" lon="11.2166583"><ele>486.0</ele><time>2026-03-28T10:18:08.044Z</time></trkpt><trkpt lat="43.366575" lon="11.2166283"><ele>486.0</ele><time>2026-03-28T10:18:09.045Z</time></trkpt><trkpt lat="43.3666817" lon="11.2166167"><ele>484.6666666666667</ele><time>2026-03-28T10:18:10.045Z</time></trkpt><trkpt lat="43.3667633" lon="11.2166167"><ele>483.33333333333337</ele><time>2026-03-28T10:18:11.045Z</time></trkpt><trkpt lat="43.36686" lon="11.216605"><ele>482.0</ele><time>2026-03-28T10:18:12.044Z</time></trkpt><trkpt lat="43.3669467" lon="11.2165883"><ele>480.6666666666667</ele><time>2026-03-28T10:18:13.045Z</time></trkpt><trkpt lat="43.367035" lon="11.216565"><ele>479.33333333333337</ele><time>2026-03-28T10:18:14.045Z</time></trkpt><trkpt lat="43.3671217" lon="11.2165467"><ele>478.0</ele><time>2026-03-28T10:18:15.045Z</time></trkpt><trkpt lat="43.3672183" lon="11.2165317"><ele>478.00000000000006</ele><time>2026-03-28T10:18:16.045Z</time></trkpt><trkpt lat="43.3673117" lon="11.2165183"><ele>478.0</ele><time>2026-03-28T10:18:17.044Z</time></trkpt><trkpt lat="43.3674083" lon="11.2165233"><ele>478.0</ele><time>2026-03-28T10:18:18.045Z</time></trkpt><trkpt lat="43.3674917" lon="11.2165267"><ele>478.0</ele><time>2026-03-28T10:18:19.045Z</time></trkpt><trkpt lat="43.3675667" lon="11.21652"><ele>478.00000000000006</ele><time>2026-03-28T10:18:20.045Z</time></trkpt><trkpt lat="43.3676517" lon="11.2164983"><ele>478.0</ele><time>2026-03-28T10:18:21.045Z</time></trkpt><trkpt lat="43.367735" lon="11.2164667"><ele>479.2</ele><time>2026-03-28T10:18:22.045Z</time></trkpt><trkpt lat="43.3678183" lon="11.216415"><ele>480.4</ele><time>2026-03-28T10:18:23.045Z</time></trkpt><trkpt lat="43.3679033" lon="11.2163517"><ele>481.59999999999997</ele><time>2026-03-28T10:18:24.045Z</time></trkpt><trkpt lat="43.367995" lon="11.216275"><ele>482.79999999999995</ele><time>2026-03-28T10:18:25.045Z</time></trkpt><trkpt lat="43.36808" lon="11.216195"><ele>484.0</ele><time>2026-03-28T10:18:26.044Z</time></trkpt><trkpt lat="43.368165" lon="11.2160983"><ele>484.0</ele><time>2026-03-28T10:18:27.045Z</time></trkpt><trkpt lat="43.3682617" lon="11.2159867"><ele>484.0</ele><time>2026-03-28T10:18:28.045Z</time></trkpt><trkpt lat="43.36835" lon="11.215875"><ele>484.0</ele><time>2026-03-28T10:18:29.045Z</time></trkpt><trkpt lat="43.3684367" lon="11.2157833"><ele>484.0</ele><time>2026-03-28T10:18:30.045Z</time></trkpt><trkpt lat="43.3684933" lon="11.2156967"><ele>484.0</ele><time>2026-03-28T10:18:31.045Z</time></trkpt><trkpt lat="43.3685317" lon="11.21561"><ele>482.6666666666667</ele><time>2026-03-28T10:18:32.045Z</time></trkpt><trkpt lat="43.368555" lon="11.2155233"><ele>481.33333333333337</ele><time>2026-03-28T10:18:33.045Z</time></trkpt><trkpt lat="43.3685967" lon="11.2154417"><ele>480.0</ele><time>2026-03-28T10:18:34.045Z</time></trkpt><trkpt lat="43.3686617" lon="11.2153633"><ele>478.66666666666663</ele><time>2026-03-28T10:18:35.045Z</time></trkpt><trkpt lat="43.3687317" lon="11.21532"><ele>477.3333333333333</ele><time>2026-03-28T10:18:36.045Z</time></trkpt><trkpt lat="43.3688033" lon="11.2152933"><ele>476.0</ele><time>2026-03-28T10:18:37.045Z</time></trkpt><trkpt lat="43.368875" lon="11.2152717"><ele>475.99999999999994</ele><time>2026-03-28T10:18:38.045Z</time></trkpt><trkpt lat="43.36894" lon="11.2152667"><ele>476.0</ele><time>2026-03-28T10:18:39.045Z</time></trkpt><trkpt lat="43.369005" lon="11.2152383"><ele>476.0</ele><time>2026-03-28T10:18:40.045Z</time></trkpt><trkpt lat="43.3691033" lon="11.215125"><ele>476.0</ele><time>2026-03-28T10:18:42.044Z</time></trkpt><trkpt lat="43.369145" lon="11.215045"><ele>475.99999999999994</ele><time>2026-03-28T10:18:43.045Z</time></trkpt><trkpt lat="43.3691867" lon="11.2149583"><ele>476.0</ele><time>2026-03-28T10:18:44.045Z</time></trkpt><trkpt lat="43.3692233" lon="11.2148717"><ele>476.49999999999994</ele><time>2026-03-28T10:18:45.045Z</time></trkpt><trkpt lat="43.3692483" lon="11.2147867"><ele>477.0</ele><time>2026-03-28T10:18:46.044Z</time></trkpt><trkpt lat="43.3692633" lon="11.2146533"><ele>477.5</ele><time>2026-03-28T10:18:48.044Z</time></trkpt><trkpt lat="43.3692433" lon="11.214535"><ele>478.0</ele><time>2026-03-28T10:18:50.045Z</time></trkpt><trkpt lat="43.36921" lon="11.2144133"><ele>478.49999999999994</ele><time>2026-03-28T10:18:52.045Z</time></trkpt><trkpt lat="43.36918" lon="11.2142833"><ele>479.0</ele><time>2026-03-28T10:18:54.045Z</time></trkpt><trkpt lat="43.3691783" lon="11.21412"><ele>478.0</ele><time>2026-03-28T10:18:56.045Z</time></trkpt><trkpt lat="43.3692083" lon="11.2139517"><ele>477.0</ele><time>2026-03-28T10:18:58.045Z</time></trkpt><trkpt lat="43.36924" lon="11.21379"><ele>476.0</ele><time>2026-03-28T10:19:00.045Z</time></trkpt><trkpt lat="43.36924" lon="11.2136367"><ele>475.0</ele><time>2026-03-28T10:19:02.044Z</time></trkpt><trkpt lat="43.36923" lon="11.2135433"><ele>474.0</ele><time>2026-03-28T10:19:03.045Z</time></trkpt><trkpt lat="43.369245" lon="11.2134167"><ele>474.0</ele><time>2026-03-28T10:19:05.045Z</time></trkpt><trkpt lat="43.3693017" lon="11.2132683"><ele>474.0</ele><time>2026-03-28T10:19:07.045Z</time></trkpt><trkpt lat="43.36934" lon="11.213185"><ele>474.0</ele><time>2026-03-28T10:19:08.045Z</time></trkpt><trkpt lat="43.3693817" lon="11.2130883"><ele>474.0</ele><time>2026-03-28T10:19:09.045Z</time></trkpt><trkpt lat="43.3694167" lon="11.2129917"><ele>474.0</ele><time>2026-03-28T10:19:10.045Z</time></trkpt><trkpt lat="43.36945" lon="11.2129017"><ele>474.0</ele><time>2026-03-28T10:19:11.045Z</time></trkpt><trkpt lat="43.3694767" lon="11.21282"><ele>472.5</ele><time>2026-03-28T10:19:12.045Z</time></trkpt><trkpt lat="43.3694917" lon="11.212725"><ele>471.0</ele><time>2026-03-28T10:19:13.045Z</time></trkpt><trkpt lat="43.3694833" lon="11.21263"><ele>469.5</ele><time>2026-03-28T10:19:14.045Z</time></trkpt><trkpt lat="43.3694367" lon="11.2124733"><ele>468.0</ele><time>2026-03-28T10:19:16.045Z</time></trkpt><trkpt lat="43.3693933" lon="11.2123867"><ele>466.5</ele><time>2026-03-28T10:19:17.045Z</time></trkpt><trkpt lat="43.3693367" lon="11.212295"><ele>465.0</ele><time>2026-03-28T10:19:18.045Z</time></trkpt><trkpt lat="43.3692683" lon="11.2122117"><ele>463.8</ele><time>2026-03-28T10:19:19.045Z</time></trkpt><trkpt lat="43.3691917" lon="11.2121417"><ele>462.6</ele><time>2026-03-28T10:19:20.045Z</time></trkpt><trkpt lat="43.36911" lon="11.21208"><ele>461.4</ele><time>2026-03-28T10:19:21.044Z</time></trkpt><trkpt lat="43.3690217" lon="11.21201"><ele>460.2</ele><time>2026-03-28T10:19:22.045Z</time></trkpt><trkpt lat="43.3689367" lon="11.2119333"><ele>459.0</ele><time>2026-03-28T10:19:23.045Z</time></trkpt><trkpt lat="43.3688583" lon="11.211875"><ele>460.79999999999995</ele><time>2026-03-28T10:19:24.045Z</time></trkpt><trkpt lat="43.36877" lon="11.2117717"><ele>462.59999999999997</ele><time>2026-03-28T10:19:26.044Z</time></trkpt><trkpt lat="43.3687617" lon="11.2116533"><ele>464.4</ele><time>2026-03-28T10:19:28.045Z</time></trkpt><trkpt lat="43.368835" lon="11.2115417"><ele>466.2</ele><time>2026-03-28T10:19:30.045Z</time></trkpt><trkpt lat="43.36891" lon="11.2114867"><ele>468.0</ele><time>2026-03-28T10:19:31.045Z</time></trkpt><trkpt lat="43.369" lon="11.2114233"><ele>468.0</ele><time>2026-03-28T10:19:32.045Z</time></trkpt><trkpt lat="43.3690783" lon="11.2113583"><ele>468.0</ele><time>2026-03-28T10:19:33.045Z</time></trkpt><trkpt lat="43.3691433" lon="11.2112933"><ele>468.0</ele><time>2026-03-28T10:19:34.045Z</time></trkpt><trkpt lat="43.369205" lon="11.21122"><ele>468.0</ele><time>2026-03-28T10:19:35.045Z</time></trkpt><trkpt lat="43.3692783" lon="11.2111467"><ele>468.0</ele><time>2026-03-28T10:19:36.045Z</time></trkpt><trkpt lat="43.3693483" lon="11.2110683"><ele>468.0</ele><time>2026-03-28T10:19:37.045Z</time></trkpt><trkpt lat="43.3694233" lon="11.2109867"><ele>468.0</ele><time>2026-03-28T10:19:38.045Z</time></trkpt><trkpt lat="43.369495" lon="11.2109"><ele>467.99999999999994</ele><time>2026-03-28T10:19:39.045Z</time></trkpt><trkpt lat="43.369555" lon="11.210805"><ele>467.99999999999994</ele><time>2026-03-28T10:19:40.045Z</time></trkpt><trkpt lat="43.36962" lon="11.2107017"><ele>468.0</ele><time>2026-03-28T10:19:41.044Z</time></trkpt><trkpt lat="43.3696817" lon="11.2105783"><ele>468.0</ele><time>2026-03-28T10:19:42.044Z</time></trkpt><trkpt lat="43.3697367" lon="11.2104717"><ele>467.4</ele><time>2026-03-28T10:19:43.045Z</time></trkpt><trkpt lat="43.3697917" lon="11.210355"><ele>466.79999999999995</ele><time>2026-03-28T10:19:44.044Z</time></trkpt><trkpt lat="43.36984" lon="11.2102383"><ele>466.2</ele><time>2026-03-28T10:19:45.045Z</time></trkpt><trkpt lat="43.3698867" lon="11.2101217"><ele>465.6</ele><time>2026-03-28T10:19:46.045Z</time></trkpt><trkpt lat="43.369945" lon="11.2100017"><ele>465.0</ele><time>2026-03-28T10:19:47.045Z</time></trkpt><trkpt lat="43.3700033" lon="11.2098833"><ele>466.5</ele><time>2026-03-28T10:19:48.045Z</time></trkpt><trkpt lat="43.3700717" lon="11.2097583"><ele>468.0</ele><time>2026-03-28T10:19:49.045Z</time></trkpt><trkpt lat="43.3701467" lon="11.2096283"><ele>469.5</ele><time>2026-03-28T10:19:50.044Z</time></trkpt><trkpt lat="43.3702133" lon="11.20949"><ele>471.0</ele><time>2026-03-28T10:19:51.045Z</time></trkpt><trkpt lat="43.3702833" lon="11.209365"><ele>471.0</ele><time>2026-03-28T10:19:52.045Z</time></trkpt><trkpt lat="43.370355" lon="11.2092383"><ele>471.0</ele><time>2026-03-28T10:19:53.045Z</time></trkpt><trkpt lat="43.3704217" lon="11.2091367"><ele>471.0</ele><time>2026-03-28T10:19:54.045Z</time></trkpt><trkpt lat="43.3704783" lon="11.2090417"><ele>471.0</ele><time>2026-03-28T10:19:55.045Z</time></trkpt><trkpt lat="43.3705117" lon="11.2089467"><ele>471.0</ele><time>2026-03-28T10:19:56.045Z</time></trkpt><trkpt lat="43.3705317" lon="11.20881"><ele>471.8</ele><time>2026-03-28T10:19:58.045Z</time></trkpt><trkpt lat="43.3704967" lon="11.20869"><ele>472.6</ele><time>2026-03-28T10:20:00.045Z</time></trkpt><trkpt lat="43.3703917" lon="11.2085417"><ele>473.4</ele><time>2026-03-28T10:20:02.045Z</time></trkpt><trkpt lat="43.370335" lon="11.2084567"><ele>474.2</ele><time>2026-03-28T10:20:03.044Z</time></trkpt><trkpt lat="43.37029" lon="11.2083667"><ele>475.0</ele><time>2026-03-28T10:20:04.045Z</time></trkpt><trkpt lat="43.370245" lon="11.2082617"><ele>475.0</ele><time>2026-03-28T10:20:05.044Z</time></trkpt><trkpt lat="43.3702017" lon="11.208145"><ele>475.0</ele><time>2026-03-28T10:20:06.044Z</time></trkpt><trkpt lat="43.3701567" lon="11.2080083"><ele>475.0</ele><time>2026-03-28T10:20:07.045Z</time></trkpt><trkpt lat="43.3701167" lon="11.207865"><ele>475.0</ele><time>2026-03-28T10:20:08.044Z</time></trkpt><trkpt lat="43.3700617" lon="11.2077083"><ele>475.0</ele><time>2026-03-28T10:20:09.045Z</time></trkpt><trkpt lat="43.3700217" lon="11.2075383"><ele>475.0</ele><time>2026-03-28T10:20:10.044Z</time></trkpt><trkpt lat="43.3699667" lon="11.2073667"><ele>475.0</ele><time>2026-03-28T10:20:11.045Z</time></trkpt><trkpt lat="43.3699" lon="11.2071883"><ele>475.0</ele><time>2026-03-28T10:20:12.045Z</time></trkpt><trkpt lat="43.3698233" lon="11.20701"><ele>475.0</ele><time>2026-03-28T10:20:13.045Z</time></trkpt><trkpt lat="43.36976" lon="11.20684"><ele>476.75</ele><time>2026-03-28T10:20:14.045Z</time></trkpt><trkpt lat="43.369705" lon="11.206675"><ele>478.5</ele><time>2026-03-28T10:20:15.045Z</time></trkpt><trkpt lat="43.3696417" lon="11.2064983"><ele>480.25</ele><time>2026-03-28T10:20:16.045Z</time></trkpt><trkpt lat="43.3695817" lon="11.2063267"><ele>482.0</ele><time>2026-03-28T10:20:17.044Z</time></trkpt><trkpt lat="43.369535" lon="11.206155"><ele>482.0</ele><time>2026-03-28T10:20:18.045Z</time></trkpt><trkpt lat="43.369475" lon="11.20603"><ele>482.00000000000006</ele><time>2026-03-28T10:20:19.045Z</time></trkpt><trkpt lat="43.3694133" lon="11.2059233"><ele>482.00000000000006</ele><time>2026-03-28T10:20:20.045Z</time></trkpt><trkpt lat="43.3693517" lon="11.205825"><ele>482.0</ele><time>2026-03-28T10:20:21.045Z</time></trkpt><trkpt lat="43.3692817" lon="11.205745"><ele>482.0</ele><time>2026-03-28T10:20:22.045Z</time></trkpt><trkpt lat="43.3691933" lon="11.2056683"><ele>482.20000000000005</ele><time>2026-03-28T10:20:23.045Z</time></trkpt><trkpt lat="43.3691233" lon="11.2055833"><ele>482.40000000000003</ele><time>2026-03-28T10:20:24.045Z</time></trkpt><trkpt lat="43.3690817" lon="11.2055083"><ele>482.59999999999997</ele><time>2026-03-28T10:20:25.045Z</time></trkpt><trkpt lat="43.3690933" lon="11.20536"><ele>482.79999999999995</ele><time>2026-03-28T10:20:27.045Z</time></trkpt><trkpt lat="43.3691867" lon="11.20523"><ele>483.0</ele><time>2026-03-28T10:20:29.044Z</time></trkpt><trkpt lat="43.369265" lon="11.2051783"><ele>483.0</ele><time>2026-03-28T10:20:30.045Z</time></trkpt><trkpt lat="43.3693617" lon="11.2051217"><ele>482.99999999999994</ele><time>2026-03-28T10:20:31.045Z</time></trkpt><trkpt lat="43.3694617" lon="11.205055"><ele>482.99999999999994</ele><time>2026-03-28T10:20:32.045Z</time></trkpt><trkpt lat="43.3695467" lon="11.2049783"><ele>483.0</ele><time>2026-03-28T10:20:33.045Z</time></trkpt><trkpt lat="43.36963" lon="11.2048767"><ele>483.0</ele><time>2026-03-28T10:20:34.045Z</time></trkpt><trkpt lat="43.3697117" lon="11.2047517"><ele>480.0</ele><time>2026-03-28T10:20:35.045Z</time></trkpt><trkpt lat="43.369785" lon="11.20461"><ele>476.99999999999994</ele><time>2026-03-28T10:20:36.045Z</time></trkpt><trkpt lat="43.369845" lon="11.2044683"><ele>473.99999999999994</ele><time>2026-03-28T10:20:37.045Z</time></trkpt><trkpt lat="43.369905" lon="11.20433"><ele>471.0</ele><time>2026-03-28T10:20:38.045Z</time></trkpt><trkpt lat="43.36994" lon="11.2042233"><ele>468.0</ele><time>2026-03-28T10:20:39.045Z</time></trkpt><trkpt lat="43.3699767" lon="11.204135"><ele>468.0</ele><time>2026-03-28T10:20:40.045Z</time></trkpt><trkpt lat="43.370005" lon="11.20405"><ele>467.99999999999994</ele><time>2026-03-28T10:20:41.045Z</time></trkpt><trkpt lat="43.3700667" lon="11.2039167"><ele>467.99999999999994</ele><time>2026-03-28T10:20:43.045Z</time></trkpt><trkpt lat="43.3701317" lon="11.203805"><ele>468.0</ele><time>2026-03-28T10:20:45.045Z</time></trkpt><trkpt lat="43.37018" lon="11.2037233"><ele>468.0</ele><time>2026-03-28T10:20:47.045Z</time></trkpt><trkpt lat="43.370245" lon="11.2036417"><ele>466.3333333333333</ele><time>2026-03-28T10:20:49.045Z</time></trkpt><trkpt lat="43.370325" lon="11.2036267"><ele>464.66666666666663</ele><time>2026-03-28T10:20:51.045Z</time></trkpt><trkpt lat="43.3704267" lon="11.2036617"><ele>463.0</ele><time>2026-03-28T10:20:53.045Z</time></trkpt><trkpt lat="43.37049" lon="11.20369"><ele>461.3333333333333</ele><time>2026-03-28T10:20:54.045Z</time></trkpt><trkpt lat="43.370565" lon="11.2037183"><ele>459.66666666666663</ele><time>2026-03-28T10:20:55.045Z</time></trkpt><trkpt lat="43.3706367" lon="11.2037617"><ele>458.0</ele><time>2026-03-28T10:20:56.045Z</time></trkpt><trkpt lat="43.370715" lon="11.2038167"><ele>455.79999999999995</ele><time>2026-03-28T10:20:57.044Z</time></trkpt><trkpt lat="43.3707933" lon="11.20388"><ele>453.59999999999997</ele><time>2026-03-28T10:20:58.045Z</time></trkpt><trkpt lat="43.370875" lon="11.20394"><ele>451.40000000000003</ele><time>2026-03-28T10:20:59.045Z</time></trkpt><trkpt lat="43.3709567" lon="11.203995"><ele>449.20000000000005</ele><time>2026-03-28T10:21:00.044Z</time></trkpt><trkpt lat="43.3710283" lon="11.2040683"><ele>447.0</ele><time>2026-03-28T10:21:01.044Z</time></trkpt><trkpt lat="43.3711" lon="11.2041367"><ele>447.0</ele><time>2026-03-28T10:21:02.045Z</time></trkpt><trkpt lat="43.3711667" lon="11.20423"><ele>447.00000000000006</ele><time>2026-03-28T10:21:03.045Z</time></trkpt><trkpt lat="43.37123" lon="11.20432"><ele>447.00000000000006</ele><time>2026-03-28T10:21:04.045Z</time></trkpt><trkpt lat="43.3712983" lon="11.2044317"><ele>447.0</ele><time>2026-03-28T10:21:05.045Z</time></trkpt><trkpt lat="43.37136" lon="11.2045433"><ele>447.0</ele><time>2026-03-28T10:21:06.045Z</time></trkpt><trkpt lat="43.3714217" lon="11.2046433"><ele>443.6</ele><time>2026-03-28T10:21:07.045Z</time></trkpt><trkpt lat="43.3714833" lon="11.2047433"><ele>440.20000000000005</ele><time>2026-03-28T10:21:08.045Z</time></trkpt><trkpt lat="43.371555" lon="11.2048317"><ele>436.8</ele><time>2026-03-28T10:21:09.045Z</time></trkpt><trkpt lat="43.3716383" lon="11.2048983"><ele>433.4</ele><time>2026-03-28T10:21:10.045Z</time></trkpt><trkpt lat="43.3717283" lon="11.2049633"><ele>430.0</ele><time>2026-03-28T10:21:11.045Z</time></trkpt><trkpt lat="43.37181" lon="11.2050317"><ele>430.0</ele><time>2026-03-28T10:21:12.045Z</time></trkpt><trkpt lat="43.3719" lon="11.20509"><ele>430.0</ele><time>2026-03-28T10:21:13.045Z</time></trkpt><trkpt lat="43.3720083" lon="11.205145"><ele>430.0</ele><time>2026-03-28T10:21:14.045Z</time></trkpt><trkpt lat="43.37211" lon="11.2052067"><ele>430.0</ele><time>2026-03-28T10:21:15.045Z</time></trkpt><trkpt lat="43.3722183" lon="11.205265"><ele>430.0</ele><time>2026-03-28T10:21:16.045Z</time></trkpt><trkpt lat="43.3723283" lon="11.2053217"><ele>426.4</ele><time>2026-03-28T10:21:17.045Z</time></trkpt><trkpt lat="43.3724367" lon="11.205375"><ele>422.8</ele><time>2026-03-28T10:21:18.045Z</time></trkpt><trkpt lat="43.3725417" lon="11.20543"><ele>419.20000000000005</ele><time>2026-03-28T10:21:19.045Z</time></trkpt><trkpt lat="43.37264" lon="11.20549"><ele>415.6</ele><time>2026-03-28T10:21:20.045Z</time></trkpt><trkpt lat="43.3727417" lon="11.2055517"><ele>412.0</ele><time>2026-03-28T10:21:21.045Z</time></trkpt><trkpt lat="43.3728467" lon="11.205635"><ele>412.8</ele><time>2026-03-28T10:21:22.044Z</time></trkpt><trkpt lat="43.372955" lon="11.2057033"><ele>413.6</ele><time>2026-03-28T10:21:23.045Z</time></trkpt><trkpt lat="43.3730483" lon="11.20577"><ele>414.40000000000003</ele><time>2026-03-28T10:21:24.045Z</time></trkpt><trkpt lat="43.3731433" lon="11.205815"><ele>415.20000000000005</ele><time>2026-03-28T10:21:25.045Z</time></trkpt><trkpt lat="43.3732267" lon="11.2058583"><ele>416.0</ele><time>2026-03-28T10:21:26.045Z</time></trkpt><trkpt lat="43.3733117" lon="11.2058783"><ele>413.66666666666663</ele><time>2026-03-28T10:21:27.045Z</time></trkpt><trkpt lat="43.373395" lon="11.2059"><ele>411.3333333333333</ele><time>2026-03-28T10:21:28.045Z</time></trkpt><trkpt lat="43.3734783" lon="11.2059133"><ele>409.0</ele><time>2026-03-28T10:21:29.045Z</time></trkpt><trkpt lat="43.3735633" lon="11.2059067"><ele>406.66666666666663</ele><time>2026-03-28T10:21:30.045Z</time></trkpt><trkpt lat="43.37365" lon="11.20589"><ele>404.3333333333333</ele><time>2026-03-28T10:21:31.045Z</time></trkpt><trkpt lat="43.37373" lon="11.2058783"><ele>402.0</ele><time>2026-03-28T10:21:32.045Z</time></trkpt><trkpt lat="43.3738067" lon="11.2058633"><ele>400.5</ele><time>2026-03-28T10:21:33.044Z</time></trkpt><trkpt lat="43.3738983" lon="11.2058633"><ele>399.0</ele><time>2026-03-28T10:21:34.045Z</time></trkpt><trkpt lat="43.3739867" lon="11.2058567"><ele>397.5</ele><time>2026-03-28T10:21:35.045Z</time></trkpt><trkpt lat="43.37408" lon="11.20585"><ele>396.0</ele><time>2026-03-28T10:21:36.044Z</time></trkpt><trkpt lat="43.3741667" lon="11.2058433"><ele>394.5</ele><time>2026-03-28T10:21:37.045Z</time></trkpt><trkpt lat="43.3742517" lon="11.2058183"><ele>393.0</ele><time>2026-03-28T10:21:38.045Z</time></trkpt><trkpt lat="43.3743433" lon="11.2057967"><ele>393.0</ele><time>2026-03-28T10:21:39.045Z</time></trkpt><trkpt lat="43.37443" lon="11.205785"><ele>393.0</ele><time>2026-03-28T10:21:40.045Z</time></trkpt><trkpt lat="43.3745267" lon="11.2057867"><ele>393.0</ele><time>2026-03-28T10:21:41.044Z</time></trkpt><trkpt lat="43.374625" lon="11.2057967"><ele>393.0</ele><time>2026-03-28T10:21:42.045Z</time></trkpt><trkpt lat="43.3747" lon="11.2058217"><ele>393.0</ele><time>2026-03-28T10:21:43.045Z</time></trkpt><trkpt lat="43.374765" lon="11.20584"><ele>393.0</ele><time>2026-03-28T10:21:44.045Z</time></trkpt><trkpt lat="43.3748233" lon="11.2058783"><ele>391.8333333333333</ele><time>2026-03-28T10:21:46.045Z</time></trkpt><trkpt lat="43.3748917" lon="11.2059283"><ele>390.66666666666663</ele><time>2026-03-28T10:22:02.045Z</time></trkpt><trkpt lat="43.37499" lon="11.2059933"><ele>389.5</ele><time>2026-03-28T10:22:24.045Z</time></trkpt><trkpt lat="43.375075" lon="11.20603"><ele>388.3333333333333</ele><time>2026-03-28T10:22:28.045Z</time></trkpt><trkpt lat="43.3751617" lon="11.20607"><ele>387.16666666666663</ele><time>2026-03-28T10:22:31.045Z</time></trkpt><trkpt lat="43.3752333" lon="11.2061217"><ele>386.0</ele><time>2026-03-28T10:22:34.045Z</time></trkpt><trkpt lat="43.3753033" lon="11.2061433"><ele>386.0</ele><time>2026-03-28T10:22:36.045Z</time></trkpt><trkpt lat="43.37538" lon="11.206175"><ele>386.0</ele><time>2026-03-28T10:22:38.045Z</time></trkpt><trkpt lat="43.37548" lon="11.2062083"><ele>386.0</ele><time>2026-03-28T10:22:40.045Z</time></trkpt><trkpt lat="43.3755867" lon="11.206245"><ele>386.0</ele><time>2026-03-28T10:22:42.044Z</time></trkpt><trkpt lat="43.3756517" lon="11.20627"><ele>386.0</ele><time>2026-03-28T10:22:43.045Z</time></trkpt><trkpt lat="43.37578" lon="11.2062917"><ele>384.99999999999994</ele><time>2026-03-28T10:22:45.045Z</time></trkpt><trkpt lat="43.375855" lon="11.2062917"><ele>384.0</ele><time>2026-03-28T10:22:46.045Z</time></trkpt><trkpt lat="43.3759233" lon="11.2062883"><ele>383.0</ele><time>2026-03-28T10:22:47.045Z</time></trkpt><trkpt lat="43.3759967" lon="11.206285"><ele>382.0</ele><time>2026-03-28T10:22:48.045Z</time></trkpt><trkpt lat="43.3761267" lon="11.2062717"><ele>381.0</ele><time>2026-03-28T10:22:50.045Z</time></trkpt><trkpt lat="43.3762" lon="11.2062567"><ele>380.0</ele><time>2026-03-28T10:22:51.045Z</time></trkpt><trkpt lat="43.3762767" lon="11.206245"><ele>378.0</ele><time>2026-03-28T10:22:52.045Z</time></trkpt><trkpt lat="43.3763633" lon="11.2062383"><ele>376.0</ele><time>2026-03-28T10:22:53.045Z</time></trkpt><trkpt lat="43.37644" lon="11.2062233"><ele>374.0</ele><time>2026-03-28T10:22:54.045Z</time></trkpt><trkpt lat="43.3765283" lon="11.20619"><ele>372.0</ele><time>2026-03-28T10:22:55.045Z</time></trkpt><trkpt lat="43.3766133" lon="11.2061583"><ele>370.0</ele><time>2026-03-28T10:22:56.045Z</time></trkpt><trkpt lat="43.3766833" lon="11.2061183"><ele>368.0</ele><time>2026-03-28T10:22:57.045Z</time></trkpt><trkpt lat="43.3767483" lon="11.2060683"><ele>368.0</ele><time>2026-03-28T10:22:58.045Z</time></trkpt><trkpt lat="43.3768133" lon="11.2060117"><ele>368.0</ele><time>2026-03-28T10:22:59.045Z</time></trkpt><trkpt lat="43.3768783" lon="11.2059433"><ele>368.0</ele><time>2026-03-28T10:23:00.045Z</time></trkpt><trkpt lat="43.3769433" lon="11.205865"><ele>368.0</ele><time>2026-03-28T10:23:01.045Z</time></trkpt><trkpt lat="43.3770033" lon="11.20577"><ele>368.0</ele><time>2026-03-28T10:23:02.045Z</time></trkpt><trkpt lat="43.3770583" lon="11.20567"><ele>368.0</ele><time>2026-03-28T10:23:03.045Z</time></trkpt><trkpt lat="43.3771133" lon="11.20556"><ele>368.79999999999995</ele><time>2026-03-28T10:23:04.045Z</time></trkpt><trkpt lat="43.3771683" lon="11.2054383"><ele>369.6</ele><time>2026-03-28T10:23:05.045Z</time></trkpt><trkpt lat="43.377215" lon="11.2053133"><ele>370.4</ele><time>2026-03-28T10:23:06.045Z</time></trkpt><trkpt lat="43.3772683" lon="11.205185"><ele>371.20000000000005</ele><time>2026-03-28T10:23:07.045Z</time></trkpt><trkpt lat="43.37731" lon="11.2050567"><ele>372.0</ele><time>2026-03-28T10:23:08.045Z</time></trkpt><trkpt lat="43.377355" lon="11.2049167"><ele>367.8</ele><time>2026-03-28T10:23:09.045Z</time></trkpt><trkpt lat="43.3774083" lon="11.20478"><ele>363.6</ele><time>2026-03-28T10:23:10.045Z</time></trkpt><trkpt lat="43.3774467" lon="11.2046417"><ele>359.40000000000003</ele><time>2026-03-28T10:23:11.044Z</time></trkpt><trkpt lat="43.377485" lon="11.2045033"><ele>355.20000000000005</ele><time>2026-03-28T10:23:12.044Z</time></trkpt><trkpt lat="43.3775183" lon="11.2043717"><ele>351.0</ele><time>2026-03-28T10:23:13.045Z</time></trkpt><trkpt lat="43.3775467" lon="11.204255"><ele>351.0</ele><time>2026-03-28T10:23:14.045Z</time></trkpt><trkpt lat="43.3775667" lon="11.20413"><ele>351.0</ele><time>2026-03-28T10:23:15.045Z</time></trkpt><trkpt lat="43.3775867" lon="11.20401"><ele>351.0</ele><time>2026-03-28T10:23:16.045Z</time></trkpt><trkpt lat="43.3776133" lon="11.203885"><ele>351.0</ele><time>2026-03-28T10:23:17.045Z</time></trkpt><trkpt lat="43.3776383" lon="11.2037733"><ele>351.0</ele><time>2026-03-28T10:23:18.045Z</time></trkpt><trkpt lat="43.3776567" lon="11.20366"><ele>351.0</ele><time>2026-03-28T10:23:19.045Z</time></trkpt><trkpt lat="43.377675" lon="11.20356"><ele>350.8333333333333</ele><time>2026-03-28T10:23:20.045Z</time></trkpt><trkpt lat="43.3776833" lon="11.203445"><ele>350.6666666666667</ele><time>2026-03-28T10:23:21.045Z</time></trkpt><trkpt lat="43.3776883" lon="11.2033267"><ele>350.5</ele><time>2026-03-28T10:23:22.045Z</time></trkpt><trkpt lat="43.37769" lon="11.20322"><ele>350.33333333333337</ele><time>2026-03-28T10:23:23.045Z</time></trkpt><trkpt lat="43.377705" lon="11.2031217"><ele>350.1666666666667</ele><time>2026-03-28T10:23:24.045Z</time></trkpt><trkpt lat="43.377725" lon="11.2030233"><ele>350.0</ele><time>2026-03-28T10:23:25.045Z</time></trkpt><trkpt lat="43.3777617" lon="11.2029433"><ele>350.0</ele><time>2026-03-28T10:23:26.045Z</time></trkpt><trkpt lat="43.377805" lon="11.20288"><ele>350.0</ele><time>2026-03-28T10:23:27.045Z</time></trkpt><trkpt lat="43.377875" lon="11.2028217"><ele>350.0</ele><time>2026-03-28T10:23:28.044Z</time></trkpt><trkpt lat="43.377955" lon="11.2027767"><ele>350.0</ele><time>2026-03-28T10:23:29.045Z</time></trkpt><trkpt lat="43.37803" lon="11.20272"><ele>350.0</ele><time>2026-03-28T10:23:30.045Z</time></trkpt><trkpt lat="43.3781083" lon="11.2026517"><ele>350.0</ele><time>2026-03-28T10:23:31.045Z</time></trkpt><trkpt lat="43.37819" lon="11.20258"><ele>347.4</ele><time>2026-03-28T10:23:32.045Z</time></trkpt><trkpt lat="43.3782717" lon="11.2025133"><ele>344.8</ele><time>2026-03-28T10:23:33.044Z</time></trkpt><trkpt lat="43.378355" lon="11.2024567"><ele>342.20000000000005</ele><time>2026-03-28T10:23:34.045Z</time></trkpt><trkpt lat="43.378445" lon="11.2024133"><ele>339.6</ele><time>2026-03-28T10:23:35.045Z</time></trkpt><trkpt lat="43.3785333" lon="11.202385"><ele>337.0</ele><time>2026-03-28T10:23:36.045Z</time></trkpt><trkpt lat="43.378625" lon="11.20235"><ele>336.25</ele><time>2026-03-28T10:23:37.045Z</time></trkpt><trkpt lat="43.3787267" lon="11.2023117"><ele>335.5</ele><time>2026-03-28T10:23:38.045Z</time></trkpt><trkpt lat="43.37884" lon="11.20226"><ele>334.75</ele><time>2026-03-28T10:23:39.045Z</time></trkpt><trkpt lat="43.378965" lon="11.2022033"><ele>334.0</ele><time>2026-03-28T10:23:40.045Z</time></trkpt><trkpt lat="43.379085" lon="11.20213"><ele>334.0</ele><time>2026-03-28T10:23:41.045Z</time></trkpt><trkpt lat="43.3792033" lon="11.2020717"><ele>334.0</ele><time>2026-03-28T10:23:42.044Z</time></trkpt><trkpt lat="43.379315" lon="11.202015"><ele>334.0</ele><time>2026-03-28T10:23:43.044Z</time></trkpt><trkpt lat="43.3794083" lon="11.201945"><ele>334.0</ele><time>2026-03-28T10:23:44.045Z</time></trkpt><trkpt lat="43.3795083" lon="11.2018683"><ele>334.0</ele><time>2026-03-28T10:23:45.045Z</time></trkpt><trkpt lat="43.379605" lon="11.2017733"><ele>334.0</ele><time>2026-03-28T10:23:46.045Z</time></trkpt><trkpt lat="43.3796967" lon="11.20167"><ele>334.0</ele><time>2026-03-28T10:23:47.045Z</time></trkpt><trkpt lat="43.379765" lon="11.2015533"><ele>334.0</ele><time>2026-03-28T10:23:48.044Z</time></trkpt><trkpt lat="43.3798217" lon="11.201425"><ele>330.75</ele><time>2026-03-28T10:23:49.045Z</time></trkpt><trkpt lat="43.37987" lon="11.2012817"><ele>327.5</ele><time>2026-03-28T10:23:50.044Z</time></trkpt><trkpt lat="43.3799183" lon="11.2011383"><ele>324.25</ele><time>2026-03-28T10:23:51.045Z</time></trkpt><trkpt lat="43.3799467" lon="11.200985"><ele>321.0</ele><time>2026-03-28T10:23:52.045Z</time></trkpt><trkpt lat="43.37998" lon="11.200825"><ele>321.5</ele><time>2026-03-28T10:23:53.045Z</time></trkpt><trkpt lat="43.3800183" lon="11.2006567"><ele>322.0</ele><time>2026-03-28T10:23:54.045Z</time></trkpt><trkpt lat="43.3800567" lon="11.2004883"><ele>322.5</ele><time>2026-03-28T10:23:55.044Z</time></trkpt><trkpt lat="43.3800917" lon="11.2003283"><ele>323.0</ele><time>2026-03-28T10:23:56.044Z</time></trkpt><trkpt lat="43.3801283" lon="11.2001767"><ele>323.0</ele><time>2026-03-28T10:23:57.045Z</time></trkpt><trkpt lat="43.3801817" lon="11.2000367"><ele>323.0</ele><time>2026-03-28T10:23:58.046Z</time></trkpt><trkpt lat="43.38023" lon="11.19989"><ele>323.0</ele><time>2026-03-28T10:23:59.046Z</time></trkpt><trkpt lat="43.3802783" lon="11.1997517"><ele>323.0</ele><time>2026-03-28T10:24:00.046Z</time></trkpt><trkpt lat="43.3803367" lon="11.1996233"><ele>322.4</ele><time>2026-03-28T10:24:01.046Z</time></trkpt><trkpt lat="43.3804033" lon="11.1995"><ele>321.79999999999995</ele><time>2026-03-28T10:24:02.046Z</time></trkpt><trkpt lat="43.3804633" lon="11.1993867"><ele>321.2</ele><time>2026-03-28T10:24:03.046Z</time></trkpt><trkpt lat="43.3805183" lon="11.1992733"><ele>320.6</ele><time>2026-03-28T10:24:04.046Z</time></trkpt><trkpt lat="43.3805633" lon="11.19915"><ele>320.0</ele><time>2026-03-28T10:24:05.046Z</time></trkpt><trkpt lat="43.380595" lon="11.199005"><ele>314.6</ele><time>2026-03-28T10:24:06.046Z</time></trkpt><trkpt lat="43.38063" lon="11.1988583"><ele>309.2</ele><time>2026-03-28T10:24:07.046Z</time></trkpt><trkpt lat="43.3806533" lon="11.19874"><ele>303.8</ele><time>2026-03-28T10:24:08.046Z</time></trkpt><trkpt lat="43.3806967" lon="11.1986"><ele>298.4</ele><time>2026-03-28T10:24:09.046Z</time></trkpt><trkpt lat="43.3807417" lon="11.1984467"><ele>293.0</ele><time>2026-03-28T10:24:10.046Z</time></trkpt><trkpt lat="43.3808033" lon="11.1983133"><ele>293.0</ele><time>2026-03-28T10:24:11.045Z</time></trkpt><trkpt lat="43.38085" lon="11.1981833"><ele>293.0</ele><time>2026-03-28T10:24:12.046Z</time></trkpt><trkpt lat="43.3808967" lon="11.198045"><ele>293.0</ele><time>2026-03-28T10:24:13.046Z</time></trkpt><trkpt lat="43.380935" lon="11.1979067"><ele>293.0</ele><time>2026-03-28T10:24:14.046Z</time></trkpt><trkpt lat="43.3809767" lon="11.19774"><ele>292.4</ele><time>2026-03-28T10:24:15.046Z</time></trkpt><trkpt lat="43.3810117" lon="11.197595"><ele>291.8</ele><time>2026-03-28T10:24:16.046Z</time></trkpt><trkpt lat="43.3810533" lon="11.197455"><ele>291.2</ele><time>2026-03-28T10:24:17.045Z</time></trkpt><trkpt lat="43.3810983" lon="11.1973183"><ele>290.6</ele><time>2026-03-28T10:24:18.046Z</time></trkpt><trkpt lat="43.3811567" lon="11.1972067"><ele>290.0</ele><time>2026-03-28T10:24:19.045Z</time></trkpt><trkpt lat="43.3812183" lon="11.1971017"><ele>288.75</ele><time>2026-03-28T10:24:20.046Z</time></trkpt><trkpt lat="43.38129" lon="11.1969967"><ele>287.5</ele><time>2026-03-28T10:24:21.046Z</time></trkpt><trkpt lat="43.381375" lon="11.19689"><ele>286.25</ele><time>2026-03-28T10:24:22.046Z</time></trkpt><trkpt lat="43.38147" lon="11.196775"><ele>285.0</ele><time>2026-03-28T10:24:23.046Z</time></trkpt><trkpt lat="43.38158" lon="11.1966467"><ele>282.75</ele><time>2026-03-28T10:24:24.046Z</time></trkpt><trkpt lat="43.3816933" lon="11.1965317"><ele>280.5</ele><time>2026-03-28T10:24:25.045Z</time></trkpt><trkpt lat="43.3817983" lon="11.19642"><ele>278.25</ele><time>2026-03-28T10:24:26.046Z</time></trkpt><trkpt lat="43.3819133" lon="11.196305"><ele>276.0</ele><time>2026-03-28T10:24:27.046Z</time></trkpt><trkpt lat="43.38202" lon="11.1961767"><ele>275.0</ele><time>2026-03-28T10:24:28.046Z</time></trkpt><trkpt lat="43.382115" lon="11.1960633"><ele>274.0</ele><time>2026-03-28T10:24:29.046Z</time></trkpt><trkpt lat="43.38222" lon="11.1959433"><ele>273.0</ele><time>2026-03-28T10:24:30.046Z</time></trkpt><trkpt lat="43.3823233" lon="11.1958267"><ele>272.0</ele><time>2026-03-28T10:24:31.046Z</time></trkpt><trkpt lat="43.3824417" lon="11.1956983"><ele>269.5</ele><time>2026-03-28T10:24:32.046Z</time></trkpt><trkpt lat="43.382535" lon="11.195595"><ele>267.0</ele><time>2026-03-28T10:24:33.046Z</time></trkpt><trkpt lat="43.3826317" lon="11.195495"><ele>264.5</ele><time>2026-03-28T10:24:34.046Z</time></trkpt><trkpt lat="43.3827167" lon="11.1953967"><ele>262.0</ele><time>2026-03-28T10:24:35.046Z</time></trkpt><trkpt lat="43.3827817" lon="11.1952883"><ele>262.0</ele><time>2026-03-28T10:24:36.046Z</time></trkpt><trkpt lat="43.3828483" lon="11.1951617"><ele>262.0</ele><time>2026-03-28T10:24:37.046Z</time></trkpt><trkpt lat="43.3828983" lon="11.195025"><ele>262.0</ele><time>2026-03-28T10:24:38.046Z</time></trkpt><trkpt lat="43.3829433" lon="11.1948833"><ele>262.0</ele><time>2026-03-28T10:24:39.045Z</time></trkpt><trkpt lat="43.3829833" lon="11.1947417"><ele>262.0</ele><time>2026-03-28T10:24:40.046Z</time></trkpt><trkpt lat="43.3830267" lon="11.1946133"><ele>259.5</ele><time>2026-03-28T10:24:41.046Z</time></trkpt><trkpt lat="43.383085" lon="11.1944633"><ele>257.0</ele><time>2026-03-28T10:24:42.046Z</time></trkpt><trkpt lat="43.3831517" lon="11.1943067"><ele>254.5</ele><time>2026-03-28T10:24:43.046Z</time></trkpt><trkpt lat="43.3832283" lon="11.1941533"><ele>252.0</ele><time>2026-03-28T10:24:44.046Z</time></trkpt><trkpt lat="43.383305" lon="11.1940183"><ele>251.0</ele><time>2026-03-28T10:24:45.046Z</time></trkpt><trkpt lat="43.3833967" lon="11.1939083"><ele>250.0</ele><time>2026-03-28T10:24:46.046Z</time></trkpt><trkpt lat="43.3834933" lon="11.1938267"><ele>249.0</ele><time>2026-03-28T10:24:47.046Z</time></trkpt><trkpt lat="43.38359" lon="11.1937633"><ele>248.0</ele><time>2026-03-28T10:24:48.046Z</time></trkpt><trkpt lat="43.3837017" lon="11.1937317"><ele>248.0</ele><time>2026-03-28T10:24:49.046Z</time></trkpt><trkpt lat="43.3838167" lon="11.1937217"><ele>248.0</ele><time>2026-03-28T10:24:50.046Z</time></trkpt><trkpt lat="43.3839317" lon="11.193725"><ele>248.0</ele><time>2026-03-28T10:24:51.046Z</time></trkpt><trkpt lat="43.3840467" lon="11.1937433"><ele>248.0</ele><time>2026-03-28T10:24:52.046Z</time></trkpt><trkpt lat="43.3841617" lon="11.1937717"><ele>246.25</ele><time>2026-03-28T10:24:53.046Z</time></trkpt><trkpt lat="43.3843167" lon="11.19379"><ele>244.5</ele><time>2026-03-28T10:24:54.046Z</time></trkpt><trkpt lat="43.3844567" lon="11.1938"><ele>242.75</ele><time>2026-03-28T10:24:55.045Z</time></trkpt><trkpt lat="43.3845817" lon="11.1938233"><ele>241.0</ele><time>2026-03-28T10:24:56.046Z</time></trkpt><trkpt lat="43.384705" lon="11.1938283"><ele>240.16666666666666</ele><time>2026-03-28T10:24:57.046Z</time></trkpt><trkpt lat="43.38481" lon="11.1938417"><ele>239.33333333333331</ele><time>2026-03-28T10:24:58.046Z</time></trkpt><trkpt lat="43.3848983" lon="11.19386"><ele>238.5</ele><time>2026-03-28T10:24:59.046Z</time></trkpt><trkpt lat="43.384985" lon="11.1938667"><ele>237.66666666666669</ele><time>2026-03-28T10:25:00.045Z</time></trkpt><trkpt lat="43.3850617" lon="11.1938567"><ele>236.83333333333334</ele><time>2026-03-28T10:25:01.046Z</time></trkpt><trkpt lat="43.3851317" lon="11.1938167"><ele>236.0</ele><time>2026-03-28T10:25:02.045Z</time></trkpt><trkpt lat="43.3852" lon="11.1937567"><ele>236.00000000000003</ele><time>2026-03-28T10:25:03.046Z</time></trkpt><trkpt lat="43.3852683" lon="11.193685"><ele>236.0</ele><time>2026-03-28T10:25:04.046Z</time></trkpt><trkpt lat="43.3853283" lon="11.1936217"><ele>236.0</ele><time>2026-03-28T10:25:05.046Z</time></trkpt><trkpt lat="43.385385" lon="11.1935517"><ele>236.0</ele><time>2026-03-28T10:25:06.046Z</time></trkpt><trkpt lat="43.3854467" lon="11.193485"><ele>236.00000000000003</ele><time>2026-03-28T10:25:07.046Z</time></trkpt><trkpt lat="43.3855067" lon="11.193405"><ele>236.0</ele><time>2026-03-28T10:25:08.046Z</time></trkpt><trkpt lat="43.3855633" lon="11.1933183"><ele>233.60000000000002</ele><time>2026-03-28T10:25:09.045Z</time></trkpt><trkpt lat="43.385615" lon="11.1932267"><ele>231.20000000000002</ele><time>2026-03-28T10:25:10.046Z</time></trkpt><trkpt lat="43.3856617" lon="11.1931333"><ele>228.79999999999998</ele><time>2026-03-28T10:25:11.046Z</time></trkpt><trkpt lat="43.385695" lon="11.1930333"><ele>226.39999999999998</ele><time>2026-03-28T10:25:12.046Z</time></trkpt><trkpt lat="43.3857333" lon="11.192935"><ele>224.0</ele><time>2026-03-28T10:25:13.046Z</time></trkpt><trkpt lat="43.385785" lon="11.192765"><ele>224.0</ele><time>2026-03-28T10:25:15.046Z</time></trkpt><trkpt lat="43.3858183" lon="11.192635"><ele>223.99999999999997</ele><time>2026-03-28T10:25:17.046Z</time></trkpt><trkpt lat="43.3858883" lon="11.1925467"><ele>223.99999999999997</ele><time>2026-03-28T10:25:19.046Z</time></trkpt><trkpt lat="43.3859433" lon="11.1924167"><ele>224.0</ele><time>2026-03-28T10:25:21.046Z</time></trkpt><trkpt lat="43.3859417" lon="11.1922633"><ele>224.0</ele><time>2026-03-28T10:25:23.046Z</time></trkpt><trkpt lat="43.3859183" lon="11.1921633"><ele>224.0</ele><time>2026-03-28T10:25:24.046Z</time></trkpt><trkpt lat="43.385875" lon="11.1920333"><ele>224.0</ele><time>2026-03-28T10:25:25.046Z</time></trkpt><trkpt lat="43.3858233" lon="11.19186"><ele>224.0</ele><time>2026-03-28T10:25:26.046Z</time></trkpt><trkpt lat="43.3857683" lon="11.1916917"><ele>224.0</ele><time>2026-03-28T10:25:27.046Z</time></trkpt><trkpt lat="43.3857283" lon="11.19156"><ele>224.0</ele><time>2026-03-28T10:25:28.046Z</time></trkpt><trkpt lat="43.385705" lon="11.1914717"><ele>223.99999999999997</ele><time>2026-03-28T10:25:29.046Z</time></trkpt><trkpt lat="43.3857017" lon="11.19128"><ele>223.99999999999997</ele><time>2026-03-28T10:25:31.046Z</time></trkpt><trkpt lat="43.3857117" lon="11.1911467"><ele>224.0</ele><time>2026-03-28T10:25:32.046Z</time></trkpt><trkpt lat="43.38573" lon="11.1909967"><ele>224.0</ele><time>2026-03-28T10:25:33.046Z</time></trkpt><trkpt lat="43.38575" lon="11.1908283"><ele>224.00000000000003</ele><time>2026-03-28T10:25:34.045Z</time></trkpt><trkpt lat="43.38577" lon="11.1906967"><ele>224.0</ele><time>2026-03-28T10:25:35.046Z</time></trkpt><trkpt lat="43.3857917" lon="11.1905667"><ele>224.0</ele><time>2026-03-28T10:25:36.046Z</time></trkpt><trkpt lat="43.3858167" lon="11.1904683"><ele>224.0</ele><time>2026-03-28T10:25:37.046Z</time></trkpt><trkpt lat="43.3858217" lon="11.190375"><ele>224.00000000000003</ele><time>2026-03-28T10:25:38.046Z</time></trkpt><trkpt lat="43.3858133" lon="11.1902633"><ele>224.0</ele><time>2026-03-28T10:25:39.045Z</time></trkpt><trkpt lat="43.3857833" lon="11.19014"><ele>224.75</ele><time>2026-03-28T10:25:40.045Z</time></trkpt><trkpt lat="43.385735" lon="11.18997"><ele>225.5</ele><time>2026-03-28T10:25:41.046Z</time></trkpt><trkpt lat="43.3857" lon="11.18978"><ele>226.25</ele><time>2026-03-28T10:25:42.045Z</time></trkpt><trkpt lat="43.3856733" lon="11.1895517"><ele>227.0</ele><time>2026-03-28T10:25:43.046Z</time></trkpt><trkpt lat="43.38566" lon="11.189315"><ele>227.33333333333334</ele><time>2026-03-28T10:25:44.046Z</time></trkpt><trkpt lat="43.3856667" lon="11.1890733"><ele>227.66666666666669</ele><time>2026-03-28T10:25:45.046Z</time></trkpt><trkpt lat="43.385655" lon="11.1888117"><ele>228.0</ele><time>2026-03-28T10:25:46.045Z</time></trkpt><trkpt lat="43.38564" lon="11.1885383"><ele>228.0</ele><time>2026-03-28T10:25:47.046Z</time></trkpt><trkpt lat="43.3855967" lon="11.1882633"><ele>228.0</ele><time>2026-03-28T10:25:48.045Z</time></trkpt><trkpt lat="43.3855483" lon="11.18797"><ele>228.0</ele><time>2026-03-28T10:25:49.046Z</time></trkpt><trkpt lat="43.3854983" lon="11.187685"><ele>229.66666666666669</ele><time>2026-03-28T10:25:50.046Z</time></trkpt><trkpt lat="43.3854467" lon="11.1873983"><ele>231.33333333333334</ele><time>2026-03-28T10:25:51.045Z</time></trkpt><trkpt lat="43.3853917" lon="11.1871217"><ele>233.0</ele><time>2026-03-28T10:25:52.046Z</time></trkpt><trkpt lat="43.38535" lon="11.1868717"><ele>233.33333333333334</ele><time>2026-03-28T10:25:53.046Z</time></trkpt><trkpt lat="43.385295" lon="11.18664"><ele>233.66666666666669</ele><time>2026-03-28T10:25:54.046Z</time></trkpt><trkpt lat="43.3852183" lon="11.186415"><ele>234.0</ele><time>2026-03-28T10:25:55.046Z</time></trkpt><trkpt lat="43.3851033" lon="11.1862183"><ele>234.0</ele><time>2026-03-28T10:25:56.046Z</time></trkpt><trkpt lat="43.3849517" lon="11.1860067"><ele>234.0</ele><time>2026-03-28T10:25:57.046Z</time></trkpt><trkpt lat="43.3847967" lon="11.1857733"><ele>234.0</ele><time>2026-03-28T10:25:58.046Z</time></trkpt><trkpt lat="43.3846417" lon="11.1855167"><ele>234.0</ele><time>2026-03-28T10:25:59.046Z</time></trkpt><trkpt lat="43.3844783" lon="11.1852533"><ele>234.0</ele><time>2026-03-28T10:26:00.046Z</time></trkpt><trkpt lat="43.38432" lon="11.1849867"><ele>233.66666666666669</ele><time>2026-03-28T10:26:01.046Z</time></trkpt><trkpt lat="43.3841883" lon="11.184725"><ele>233.33333333333334</ele><time>2026-03-28T10:26:02.046Z</time></trkpt><trkpt lat="43.3840667" lon="11.1844767"><ele>233.0</ele><time>2026-03-28T10:26:03.045Z</time></trkpt><trkpt lat="43.3839517" lon="11.1842517"><ele>234.66666666666669</ele><time>2026-03-28T10:26:04.045Z</time></trkpt><trkpt lat="43.3838333" lon="11.1840283"><ele>236.33333333333331</ele><time>2026-03-28T10:26:05.046Z</time></trkpt><trkpt lat="43.383725" lon="11.1838017"><ele>238.0</ele><time>2026-03-28T10:26:06.046Z</time></trkpt><trkpt lat="43.3836133" lon="11.1835717"><ele>238.0</ele><time>2026-03-28T10:26:07.045Z</time></trkpt><trkpt lat="43.3835067" lon="11.1833333"><ele>238.0</ele><time>2026-03-28T10:26:08.046Z</time></trkpt><trkpt lat="43.3834083" lon="11.1831017"><ele>238.0</ele><time>2026-03-28T10:26:09.046Z</time></trkpt><trkpt lat="43.3833417" lon="11.1828767"><ele>238.0</ele><time>2026-03-28T10:26:10.046Z</time></trkpt><trkpt lat="43.3832833" lon="11.1826483"><ele>238.0</ele><time>2026-03-28T10:26:11.046Z</time></trkpt><trkpt lat="43.38324" lon="11.1824183"><ele>238.0</ele><time>2026-03-28T10:26:12.046Z</time></trkpt><trkpt lat="43.3832033" lon="11.1821733"><ele>237.33333333333331</ele><time>2026-03-28T10:26:13.046Z</time></trkpt><trkpt lat="43.383165" lon="11.1819133"><ele>236.66666666666669</ele><time>2026-03-28T10:26:14.046Z</time></trkpt><trkpt lat="43.383125" lon="11.1816567"><ele>236.0</ele><time>2026-03-28T10:26:15.046Z</time></trkpt><trkpt lat="43.3830367" lon="11.1814217"><ele>238.0</ele><time>2026-03-28T10:26:16.046Z</time></trkpt><trkpt lat="43.3829333" lon="11.18119"><ele>240.0</ele><time>2026-03-28T10:26:17.046Z</time></trkpt><trkpt lat="43.3828067" lon="11.18096"><ele>242.0</ele><time>2026-03-28T10:26:18.045Z</time></trkpt><trkpt lat="43.3826783" lon="11.1807267"><ele>241.66666666666669</ele><time>2026-03-28T10:26:19.046Z</time></trkpt><trkpt lat="43.3825367" lon="11.1804983"><ele>241.33333333333331</ele><time>2026-03-28T10:26:20.046Z</time></trkpt><trkpt lat="43.382405" lon="11.1802733"><ele>241.0</ele><time>2026-03-28T10:26:21.046Z</time></trkpt><trkpt lat="43.3822717" lon="11.18006"><ele>242.33333333333331</ele><time>2026-03-28T10:26:22.046Z</time></trkpt><trkpt lat="43.38214" lon="11.17987"><ele>243.66666666666669</ele><time>2026-03-28T10:26:23.045Z</time></trkpt><trkpt lat="43.3820033" lon="11.1797017"><ele>245.0</ele><time>2026-03-28T10:26:24.046Z</time></trkpt><trkpt lat="43.3818683" lon="11.1795483"><ele>245.0</ele><time>2026-03-28T10:26:25.046Z</time></trkpt><trkpt lat="43.3817167" lon="11.1794"><ele>245.0</ele><time>2026-03-28T10:26:26.045Z</time></trkpt><trkpt lat="43.381565" lon="11.1792567"><ele>245.0</ele><time>2026-03-28T10:26:27.046Z</time></trkpt><trkpt lat="43.3814133" lon="11.17911"><ele>246.0</ele><time>2026-03-28T10:26:28.045Z</time></trkpt><trkpt lat="43.3812533" lon="11.1789617"><ele>247.0</ele><time>2026-03-28T10:26:29.046Z</time></trkpt><trkpt lat="43.38109" lon="11.1788117"><ele>248.0</ele><time>2026-03-28T10:26:30.046Z</time></trkpt><trkpt lat="43.3809317" lon="11.1786667"><ele>248.0</ele><time>2026-03-28T10:26:31.046Z</time></trkpt><trkpt lat="43.3807717" lon="11.1785183"><ele>248.0</ele><time>2026-03-28T10:26:32.045Z</time></trkpt><trkpt lat="43.3806217" lon="11.1783483"><ele>248.0</ele><time>2026-03-28T10:26:33.046Z</time></trkpt><trkpt lat="43.3804833" lon="11.17818"><ele>249.0</ele><time>2026-03-28T10:26:34.046Z</time></trkpt><trkpt lat="43.3803767" lon="11.1780283"><ele>250.0</ele><time>2026-03-28T10:26:35.046Z</time></trkpt><trkpt lat="43.3802883" lon="11.1779117"><ele>251.0</ele><time>2026-03-28T10:26:36.046Z</time></trkpt><trkpt lat="43.3802283" lon="11.17782"><ele>252.0</ele><time>2026-03-28T10:26:37.045Z</time></trkpt><trkpt lat="43.3801633" lon="11.177725"><ele>252.0</ele><time>2026-03-28T10:26:39.045Z</time></trkpt><trkpt lat="43.380075" lon="11.17761"><ele>252.0</ele><time>2026-03-28T10:26:41.046Z</time></trkpt><trkpt lat="43.38002" lon="11.1775367"><ele>252.0</ele><time>2026-03-28T10:26:42.046Z</time></trkpt><trkpt lat="43.37995" lon="11.177445"><ele>252.0</ele><time>2026-03-28T10:26:43.046Z</time></trkpt><trkpt lat="43.3798717" lon="11.1773333"><ele>252.0</ele><time>2026-03-28T10:26:44.046Z</time></trkpt><trkpt lat="43.3797683" lon="11.177215"><ele>253.25</ele><time>2026-03-28T10:26:45.046Z</time></trkpt><trkpt lat="43.3796733" lon="11.1770883"><ele>254.5</ele><time>2026-03-28T10:26:46.045Z</time></trkpt><trkpt lat="43.37957" lon="11.1769517"><ele>255.75</ele><time>2026-03-28T10:26:47.046Z</time></trkpt><trkpt lat="43.3794483" lon="11.1768167"><ele>257.0</ele><time>2026-03-28T10:26:48.046Z</time></trkpt><trkpt lat="43.3793217" lon="11.1766883"><ele>257.0</ele><time>2026-03-28T10:26:49.046Z</time></trkpt><trkpt lat="43.3791833" lon="11.176565"><ele>257.0</ele><time>2026-03-28T10:26:50.046Z</time></trkpt><trkpt lat="43.3790467" lon="11.17646"><ele>257.0</ele><time>2026-03-28T10:26:51.046Z</time></trkpt><trkpt lat="43.378925" lon="11.1763117"><ele>256.0</ele><time>2026-03-28T10:26:52.045Z</time></trkpt><trkpt lat="43.37885" lon="11.17612"><ele>255.0</ele><time>2026-03-28T10:26:53.046Z</time></trkpt><trkpt lat="43.3788033" lon="11.1759133"><ele>254.0</ele><time>2026-03-28T10:26:54.046Z</time></trkpt><trkpt lat="43.378805" lon="11.175695"><ele>253.33333333333334</ele><time>2026-03-28T10:26:55.046Z</time></trkpt><trkpt lat="43.3788533" lon="11.1754583"><ele>252.66666666666669</ele><time>2026-03-28T10:26:56.046Z</time></trkpt><trkpt lat="43.3788967" lon="11.1752217"><ele>252.0</ele><time>2026-03-28T10:26:57.046Z</time></trkpt><trkpt lat="43.3789317" lon="11.1749917"><ele>254.0</ele><time>2026-03-28T10:26:58.046Z</time></trkpt><trkpt lat="43.378965" lon="11.1747383"><ele>256.0</ele><time>2026-03-28T10:26:59.046Z</time></trkpt><trkpt lat="43.3790033" lon="11.1744967"><ele>258.0</ele><time>2026-03-28T10:27:00.046Z</time></trkpt><trkpt lat="43.3790083" lon="11.17426"><ele>258.0</ele><time>2026-03-28T10:27:01.046Z</time></trkpt><trkpt lat="43.3789917" lon="11.17403"><ele>258.0</ele><time>2026-03-28T10:27:02.046Z</time></trkpt><trkpt lat="43.378925" lon="11.1738183"><ele>258.0</ele><time>2026-03-28T10:27:03.045Z</time></trkpt><trkpt lat="43.3788367" lon="11.1736217"><ele>259.6666666666667</ele><time>2026-03-28T10:27:04.046Z</time></trkpt><trkpt lat="43.3787517" lon="11.1734267"><ele>261.33333333333337</ele><time>2026-03-28T10:27:05.045Z</time></trkpt><trkpt lat="43.3786417" lon="11.173225"><ele>263.0</ele><time>2026-03-28T10:27:06.046Z</time></trkpt><trkpt lat="43.3785483" lon="11.1730183"><ele>264.6666666666667</ele><time>2026-03-28T10:27:07.045Z</time></trkpt><trkpt lat="43.378475" lon="11.1727867"><ele>266.3333333333333</ele><time>2026-03-28T10:27:08.045Z</time></trkpt><trkpt lat="43.37844" lon="11.1725533"><ele>268.0</ele><time>2026-03-28T10:27:09.046Z</time></trkpt><trkpt lat="43.3784283" lon="11.172335"><ele>268.0</ele><time>2026-03-28T10:27:10.046Z</time></trkpt><trkpt lat="43.3784267" lon="11.1721467"><ele>268.0</ele><time>2026-03-28T10:27:11.046Z</time></trkpt><trkpt lat="43.3784333" lon="11.1719783"><ele>268.0</ele><time>2026-03-28T10:27:12.045Z</time></trkpt><trkpt lat="43.3784617" lon="11.1718183"><ele>268.0</ele><time>2026-03-28T10:27:13.046Z</time></trkpt><trkpt lat="43.378475" lon="11.1716583"><ele>267.75</ele><time>2026-03-28T10:27:14.046Z</time></trkpt><trkpt lat="43.3785" lon="11.171485"><ele>267.5</ele><time>2026-03-28T10:27:15.045Z</time></trkpt><trkpt lat="43.3785217" lon="11.171315"><ele>267.25</ele><time>2026-03-28T10:27:16.046Z</time></trkpt><trkpt lat="43.3785433" lon="11.17116"><ele>267.0</ele><time>2026-03-28T10:27:17.046Z</time></trkpt><trkpt lat="43.3785767" lon="11.1710067"><ele>267.0</ele><time>2026-03-28T10:27:18.046Z</time></trkpt><trkpt lat="43.378595" lon="11.170835"><ele>267.0</ele><time>2026-03-28T10:27:19.046Z</time></trkpt><trkpt lat="43.3785967" lon="11.1706333"><ele>267.0</ele><time>2026-03-28T10:27:20.045Z</time></trkpt><trkpt lat="43.37858" lon="11.1704267"><ele>267.0</ele><time>2026-03-28T10:27:21.045Z</time></trkpt><trkpt lat="43.3785467" lon="11.1702133"><ele>267.3333333333333</ele><time>2026-03-28T10:27:22.046Z</time></trkpt><trkpt lat="43.3784967" lon="11.17"><ele>267.66666666666663</ele><time>2026-03-28T10:27:23.046Z</time></trkpt><trkpt lat="43.378445" lon="11.16978"><ele>268.0</ele><time>2026-03-28T10:27:24.046Z</time></trkpt><trkpt lat="43.3784" lon="11.16955"><ele>268.0</ele><time>2026-03-28T10:27:25.046Z</time></trkpt><trkpt lat="43.37839" lon="11.16932"><ele>268.0</ele><time>2026-03-28T10:27:26.046Z</time></trkpt><trkpt lat="43.3784017" lon="11.1690717"><ele>268.0</ele><time>2026-03-28T10:27:27.046Z</time></trkpt><trkpt lat="43.3784267" lon="11.168835"><ele>267.66666666666663</ele><time>2026-03-28T10:27:28.046Z</time></trkpt><trkpt lat="43.3784583" lon="11.1685967"><ele>267.3333333333333</ele><time>2026-03-28T10:27:29.046Z</time></trkpt><trkpt lat="43.3784917" lon="11.1683533"><ele>267.0</ele><time>2026-03-28T10:27:30.046Z</time></trkpt><trkpt lat="43.37852" lon="11.1681083"><ele>267.6666666666667</ele><time>2026-03-28T10:27:31.046Z</time></trkpt><trkpt lat="43.3784967" lon="11.16787"><ele>268.33333333333337</ele><time>2026-03-28T10:27:32.046Z</time></trkpt><trkpt lat="43.3784367" lon="11.16765"><ele>269.0</ele><time>2026-03-28T10:27:33.046Z</time></trkpt><trkpt lat="43.378345" lon="11.167435"><ele>268.6666666666667</ele><time>2026-03-28T10:27:34.046Z</time></trkpt><trkpt lat="43.3782467" lon="11.167215"><ele>268.3333333333333</ele><time>2026-03-28T10:27:35.046Z</time></trkpt><trkpt lat="43.3781483" lon="11.1669767"><ele>268.0</ele><time>2026-03-28T10:27:36.046Z</time></trkpt><trkpt lat="43.3780633" lon="11.166735"><ele>270.3333333333333</ele><time>2026-03-28T10:27:37.046Z</time></trkpt><trkpt lat="43.3779967" lon="11.16651"><ele>272.6666666666667</ele><time>2026-03-28T10:27:38.046Z</time></trkpt><trkpt lat="43.3779617" lon="11.1662917"><ele>275.0</ele><time>2026-03-28T10:27:39.046Z</time></trkpt><trkpt lat="43.3780083" lon="11.1660783"><ele>273.6666666666667</ele><time>2026-03-28T10:27:40.046Z</time></trkpt><trkpt lat="43.37808" lon="11.1658717"><ele>272.3333333333333</ele><time>2026-03-28T10:27:41.046Z</time></trkpt><trkpt lat="43.3781917" lon="11.1656767"><ele>271.0</ele><time>2026-03-28T10:27:42.046Z</time></trkpt><trkpt lat="43.3783033" lon="11.1654733"><ele>273.66666666666663</ele><time>2026-03-28T10:27:43.046Z</time></trkpt><trkpt lat="43.3784167" lon="11.165275"><ele>276.3333333333333</ele><time>2026-03-28T10:27:44.045Z</time></trkpt><trkpt lat="43.378515" lon="11.1650533"><ele>279.0</ele><time>2026-03-28T10:27:45.046Z</time></trkpt><trkpt lat="43.3786083" lon="11.164825"><ele>279.3333333333333</ele><time>2026-03-28T10:27:46.046Z</time></trkpt><trkpt lat="43.3786783" lon="11.1645867"><ele>279.66666666666663</ele><time>2026-03-28T10:27:47.046Z</time></trkpt><trkpt lat="43.37871" lon="11.1643583"><ele>280.0</ele><time>2026-03-28T10:27:48.046Z</time></trkpt><trkpt lat="43.3787333" lon="11.16412"><ele>279.66666666666663</ele><time>2026-03-28T10:27:49.046Z</time></trkpt><trkpt lat="43.37877" lon="11.1638567"><ele>279.3333333333333</ele><time>2026-03-28T10:27:50.046Z</time></trkpt><trkpt lat="43.3788217" lon="11.16358"><ele>279.0</ele><time>2026-03-28T10:27:51.045Z</time></trkpt><trkpt lat="43.378865" lon="11.1633117"><ele>277.0</ele><time>2026-03-28T10:27:52.046Z</time></trkpt><trkpt lat="43.37892" lon="11.1630233"><ele>275.0</ele><time>2026-03-28T10:27:53.046Z</time></trkpt><trkpt lat="43.3789917" lon="11.162735"><ele>273.0</ele><time>2026-03-28T10:27:54.046Z</time></trkpt><trkpt lat="43.3790567" lon="11.1624417"><ele>272.3333333333333</ele><time>2026-03-28T10:27:55.046Z</time></trkpt><trkpt lat="43.3791267" lon="11.16216"><ele>271.66666666666663</ele><time>2026-03-28T10:27:56.046Z</time></trkpt><trkpt lat="43.379185" lon="11.161895"><ele>271.0</ele><time>2026-03-28T10:27:57.046Z</time></trkpt><trkpt lat="43.3792483" lon="11.16164"><ele>269.0</ele><time>2026-03-28T10:27:58.046Z</time></trkpt><trkpt lat="43.3793" lon="11.1613917"><ele>267.0</ele><time>2026-03-28T10:27:59.046Z</time></trkpt><trkpt lat="43.3793567" lon="11.16118"><ele>265.0</ele><time>2026-03-28T10:28:00.046Z</time></trkpt><trkpt lat="43.37942" lon="11.1609767"><ele>265.0</ele><time>2026-03-28T10:28:01.046Z</time></trkpt><trkpt lat="43.3795033" lon="11.16081"><ele>265.0</ele><time>2026-03-28T10:28:02.046Z</time></trkpt><trkpt lat="43.37963" lon="11.1606417"><ele>265.0</ele><time>2026-03-28T10:28:03.046Z</time></trkpt><trkpt lat="43.3797767" lon="11.1604767"><ele>262.66666666666663</ele><time>2026-03-28T10:28:04.046Z</time></trkpt><trkpt lat="43.37991" lon="11.16029"><ele>260.3333333333333</ele><time>2026-03-28T10:28:05.045Z</time></trkpt><trkpt lat="43.3800283" lon="11.16008"><ele>258.0</ele><time>2026-03-28T10:28:06.046Z</time></trkpt><trkpt lat="43.3801" lon="11.1598417"><ele>255.66666666666669</ele><time>2026-03-28T10:28:07.046Z</time></trkpt><trkpt lat="43.38014" lon="11.1595767"><ele>253.33333333333334</ele><time>2026-03-28T10:28:08.045Z</time></trkpt><trkpt lat="43.38016" lon="11.1593067"><ele>251.0</ele><time>2026-03-28T10:28:09.046Z</time></trkpt><trkpt lat="43.3801767" lon="11.1590367"><ele>250.66666666666669</ele><time>2026-03-28T10:28:10.046Z</time></trkpt><trkpt lat="43.3801883" lon="11.15876"><ele>250.33333333333331</ele><time>2026-03-28T10:28:11.046Z</time></trkpt><trkpt lat="43.3801967" lon="11.158485"><ele>250.0</ele><time>2026-03-28T10:28:12.046Z</time></trkpt><trkpt lat="43.3802033" lon="11.15821"><ele>251.66666666666666</ele><time>2026-03-28T10:28:13.046Z</time></trkpt><trkpt lat="43.3801867" lon="11.1579433"><ele>253.33333333333331</ele><time>2026-03-28T10:28:14.046Z</time></trkpt><trkpt lat="43.3801467" lon="11.1576817"><ele>255.0</ele><time>2026-03-28T10:28:15.046Z</time></trkpt><trkpt lat="43.3801117" lon="11.1574183"><ele>256.3333333333333</ele><time>2026-03-28T10:28:16.046Z</time></trkpt><trkpt lat="43.38007" lon="11.157175"><ele>257.66666666666663</ele><time>2026-03-28T10:28:17.046Z</time></trkpt><trkpt lat="43.3800033" lon="11.1569433"><ele>259.0</ele><time>2026-03-28T10:28:18.046Z</time></trkpt><trkpt lat="43.37991" lon="11.1567417"><ele>259.0</ele><time>2026-03-28T10:28:19.046Z</time></trkpt><trkpt lat="43.3797833" lon="11.1565717"><ele>259.0</ele><time>2026-03-28T10:28:20.046Z</time></trkpt><trkpt lat="43.3796533" lon="11.1564167"><ele>259.0</ele><time>2026-03-28T10:28:21.045Z</time></trkpt><trkpt lat="43.3795233" lon="11.1562633"><ele>257.0</ele><time>2026-03-28T10:28:22.046Z</time></trkpt><trkpt lat="43.3794417" lon="11.1560883"><ele>255.0</ele><time>2026-03-28T10:28:23.046Z</time></trkpt><trkpt lat="43.3793867" lon="11.15588"><ele>253.0</ele><time>2026-03-28T10:28:24.045Z</time></trkpt><trkpt lat="43.37935" lon="11.1556483"><ele>251.33333333333331</ele><time>2026-03-28T10:28:25.046Z</time></trkpt><trkpt lat="43.3793" lon="11.1554"><ele>249.66666666666669</ele><time>2026-03-28T10:28:26.046Z</time></trkpt><trkpt lat="43.3792383" lon="11.155145"><ele>248.0</ele><time>2026-03-28T10:28:27.045Z</time></trkpt><trkpt lat="43.3791767" lon="11.154865"><ele>247.0</ele><time>2026-03-28T10:28:28.046Z</time></trkpt><trkpt lat="43.3790933" lon="11.1545883"><ele>246.0</ele><time>2026-03-28T10:28:29.046Z</time></trkpt><trkpt lat="43.37903" lon="11.15431"><ele>245.0</ele><time>2026-03-28T10:28:30.045Z</time></trkpt><trkpt lat="43.3789717" lon="11.154035"><ele>244.66666666666669</ele><time>2026-03-28T10:28:31.046Z</time></trkpt><trkpt lat="43.378915" lon="11.1537583"><ele>244.33333333333331</ele><time>2026-03-28T10:28:32.046Z</time></trkpt><trkpt lat="43.3788533" lon="11.153475"><ele>244.0</ele><time>2026-03-28T10:28:33.046Z</time></trkpt><trkpt lat="43.3788" lon="11.15319"><ele>244.0</ele><time>2026-03-28T10:28:34.046Z</time></trkpt><trkpt lat="43.3787483" lon="11.1529033"><ele>244.0</ele><time>2026-03-28T10:28:35.046Z</time></trkpt><trkpt lat="43.3787067" lon="11.1526267"><ele>244.0</ele><time>2026-03-28T10:28:36.046Z</time></trkpt><trkpt lat="43.378665" lon="11.1523633"><ele>245.0</ele><time>2026-03-28T10:28:37.046Z</time></trkpt><trkpt lat="43.3786217" lon="11.15212"><ele>246.0</ele><time>2026-03-28T10:28:38.046Z</time></trkpt><trkpt lat="43.378575" lon="11.151885"><ele>247.0</ele><time>2026-03-28T10:28:39.045Z</time></trkpt><trkpt lat="43.3785317" lon="11.1516667"><ele>246.33333333333331</ele><time>2026-03-28T10:28:40.046Z</time></trkpt><trkpt lat="43.3784933" lon="11.1514583"><ele>245.66666666666669</ele><time>2026-03-28T10:28:41.045Z</time></trkpt><trkpt lat="43.3784633" lon="11.1512517"><ele>245.0</ele><time>2026-03-28T10:28:42.046Z</time></trkpt><trkpt lat="43.378425" lon="11.1510583"><ele>245.0</ele><time>2026-03-28T10:28:43.045Z</time></trkpt><trkpt lat="43.37839" lon="11.1508783"><ele>245.0</ele><time>2026-03-28T10:28:44.045Z</time></trkpt><trkpt lat="43.37838" lon="11.1506933"><ele>245.0</ele><time>2026-03-28T10:28:45.046Z</time></trkpt><trkpt lat="43.3783667" lon="11.1505467"><ele>245.0</ele><time>2026-03-28T10:28:46.046Z</time></trkpt><trkpt lat="43.3783617" lon="11.15043"><ele>245.16666666666669</ele><time>2026-03-28T10:28:47.046Z</time></trkpt><trkpt lat="43.3783383" lon="11.15034"><ele>245.33333333333334</ele><time>2026-03-28T10:28:48.046Z</time></trkpt><trkpt lat="43.3783" lon="11.1502633"><ele>245.5</ele><time>2026-03-28T10:28:49.046Z</time></trkpt><trkpt lat="43.3782483" lon="11.15019"><ele>245.66666666666669</ele><time>2026-03-28T10:28:50.046Z</time></trkpt><trkpt lat="43.378185" lon="11.1501"><ele>245.83333333333334</ele><time>2026-03-28T10:28:51.046Z</time></trkpt><trkpt lat="43.3781083" lon="11.1499917"><ele>246.0</ele><time>2026-03-28T10:28:52.046Z</time></trkpt><trkpt lat="43.3780433" lon="11.14984"><ele>246.25</ele><time>2026-03-28T10:28:53.046Z</time></trkpt><trkpt lat="43.3779683" lon="11.1496883"><ele>246.5</ele><time>2026-03-28T10:28:54.046Z</time></trkpt><trkpt lat="43.37789" lon="11.14953"><ele>246.75</ele><time>2026-03-28T10:28:55.046Z</time></trkpt><trkpt lat="43.3777983" lon="11.1493617"><ele>247.0</ele><time>2026-03-28T10:28:56.046Z</time></trkpt><trkpt lat="43.3777183" lon="11.1492017"><ele>247.0</ele><time>2026-03-28T10:28:57.046Z</time></trkpt><trkpt lat="43.377645" lon="11.1490617"><ele>247.0</ele><time>2026-03-28T10:28:58.046Z</time></trkpt><trkpt lat="43.37757" lon="11.148945"><ele>247.0</ele><time>2026-03-28T10:28:59.045Z</time></trkpt><trkpt lat="43.3774983" lon="11.1488333"><ele>247.0</ele><time>2026-03-28T10:29:00.046Z</time></trkpt><trkpt lat="43.3774433" lon="11.14874"><ele>247.0</ele><time>2026-03-28T10:29:01.046Z</time></trkpt><trkpt lat="43.3773917" lon="11.1486683"><ele>247.66666666666666</ele><time>2026-03-28T10:29:02.046Z</time></trkpt><trkpt lat="43.37734" lon="11.148615"><ele>248.33333333333331</ele><time>2026-03-28T10:29:03.046Z</time></trkpt><trkpt lat="43.377235" lon="11.14861"><ele>249.0</ele><time>2026-03-28T10:29:05.046Z</time></trkpt><trkpt lat="43.3771533" lon="11.1486033"><ele>249.66666666666669</ele><time>2026-03-28T10:29:07.045Z</time></trkpt><trkpt lat="43.37709" lon="11.1485767"><ele>250.33333333333334</ele><time>2026-03-28T10:29:09.045Z</time></trkpt><trkpt lat="43.3770267" lon="11.1485433"><ele>251.0</ele><time>2026-03-28T10:29:11.046Z</time></trkpt><trkpt lat="43.3769517" lon="11.1484883"><ele>251.28571428571425</ele><time>2026-03-28T10:29:14.046Z</time></trkpt><trkpt lat="43.37689" lon="11.1484367"><ele>251.57142857142856</ele><time>2026-03-28T10:29:17.046Z</time></trkpt><trkpt lat="43.3768317" lon="11.1483767"><ele>251.85714285714286</ele><time>2026-03-28T10:29:19.045Z</time></trkpt><trkpt lat="43.37677" lon="11.1483317"><ele>252.14285714285714</ele><time>2026-03-28T10:29:21.045Z</time></trkpt><trkpt lat="43.3766917" lon="11.148305"><ele>252.42857142857144</ele><time>2026-03-28T10:29:23.046Z</time></trkpt><trkpt lat="43.3766217" lon="11.1482683"><ele>252.71428571428575</ele><time>2026-03-28T10:29:25.046Z</time></trkpt><trkpt lat="43.376565" lon="11.1482267"><ele>253.00000000000003</ele><time>2026-03-28T10:29:27.046Z</time></trkpt><trkpt lat="43.3765117" lon="11.1481733"><ele>251.83333333333331</ele><time>2026-03-28T10:29:29.046Z</time></trkpt><trkpt lat="43.3764817" lon="11.1480933"><ele>250.66666666666666</ele><time>2026-03-28T10:29:31.046Z</time></trkpt><trkpt lat="43.376465" lon="11.14799"><ele>249.5</ele><time>2026-03-28T10:29:33.046Z</time></trkpt><trkpt lat="43.37649" lon="11.1478767"><ele>248.33333333333331</ele><time>2026-03-28T10:29:35.046Z</time></trkpt><trkpt lat="43.376555" lon="11.1477533"><ele>247.16666666666666</ele><time>2026-03-28T10:29:37.046Z</time></trkpt><trkpt lat="43.3765917" lon="11.1476233"><ele>246.0</ele><time>2026-03-28T10:29:39.046Z</time></trkpt><trkpt lat="43.3765633" lon="11.147505"><ele>243.20000000000002</ele><time>2026-03-28T10:29:41.046Z</time></trkpt><trkpt lat="43.3764783" lon="11.14737"><ele>240.40000000000003</ele><time>2026-03-28T10:29:43.045Z</time></trkpt><trkpt lat="43.3764117" lon="11.1472967"><ele>237.6</ele><time>2026-03-28T10:29:44.046Z</time></trkpt><trkpt lat="43.3763267" lon="11.1472217"><ele>234.8</ele><time>2026-03-28T10:29:45.046Z</time></trkpt><trkpt lat="43.376245" lon="11.1471517"><ele>232.0</ele><time>2026-03-28T10:29:46.046Z</time></trkpt><trkpt lat="43.3761617" lon="11.1470683"><ele>232.0</ele><time>2026-03-28T10:29:47.046Z</time></trkpt><trkpt lat="43.376085" lon="11.1469933"><ele>232.0</ele><time>2026-03-28T10:29:48.046Z</time></trkpt><trkpt lat="43.3759933" lon="11.1469383"><ele>232.0</ele><time>2026-03-28T10:29:49.046Z</time></trkpt><trkpt lat="43.3759117" lon="11.1468667"><ele>232.0</ele><time>2026-03-28T10:29:50.046Z</time></trkpt><trkpt lat="43.3758317" lon="11.1467917"><ele>232.0</ele><time>2026-03-28T10:29:51.045Z</time></trkpt><trkpt lat="43.3757433" lon="11.1467067"><ele>231.99999999999997</ele><time>2026-03-28T10:29:52.046Z</time></trkpt><trkpt lat="43.3756617" lon="11.1466367"><ele>232.0</ele><time>2026-03-28T10:29:53.046Z</time></trkpt><trkpt lat="43.3755817" lon="11.1465667"><ele>232.0</ele><time>2026-03-28T10:29:54.046Z</time></trkpt><trkpt lat="43.3755" lon="11.1464967"><ele>232.0</ele><time>2026-03-28T10:29:55.046Z</time></trkpt><trkpt lat="43.3754367" lon="11.1464217"><ele>231.99999999999997</ele><time>2026-03-28T10:29:56.046Z</time></trkpt><trkpt lat="43.375375" lon="11.146355"><ele>232.0</ele><time>2026-03-28T10:29:57.046Z</time></trkpt><trkpt lat="43.375305" lon="11.14626"><ele>231.16666666666666</ele><time>2026-03-28T10:29:59.046Z</time></trkpt><trkpt lat="43.3752367" lon="11.1462467"><ele>230.33333333333331</ele><time>2026-03-28T10:35:18.911Z</time></trkpt><trkpt lat="43.3751533" lon="11.14627"><ele>229.5</ele><time>2026-03-28T10:35:28.911Z</time></trkpt><trkpt lat="43.3752117" lon="11.1461767"><ele>228.66666666666669</ele><time>2026-03-28T10:37:13.045Z</time></trkpt><trkpt lat="43.3751967" lon="11.1460733"><ele>227.83333333333334</ele><time>2026-03-28T10:37:15.045Z</time></trkpt><trkpt lat="43.375175" lon="11.1459867"><ele>227.0</ele><time>2026-03-28T10:37:16.045Z</time></trkpt><trkpt lat="43.3751483" lon="11.1459"><ele>227.0</ele><time>2026-03-28T10:37:17.045Z</time></trkpt><trkpt lat="43.3751117" lon="11.145785"><ele>227.0</ele><time>2026-03-28T10:37:18.045Z</time></trkpt><trkpt lat="43.3750617" lon="11.145645"><ele>227.0</ele><time>2026-03-28T10:37:19.045Z</time></trkpt><trkpt lat="43.3750117" lon="11.145505"><ele>227.0</ele><time>2026-03-28T10:37:20.045Z</time></trkpt><trkpt lat="43.3749667" lon="11.1453683"><ele>227.0</ele><time>2026-03-28T10:37:21.045Z</time></trkpt><trkpt lat="43.37493" lon="11.145235"><ele>226.6</ele><time>2026-03-28T10:37:22.045Z</time></trkpt><trkpt lat="43.37491" lon="11.145115"><ele>226.2</ele><time>2026-03-28T10:37:23.045Z</time></trkpt><trkpt lat="43.374905" lon="11.1449967"><ele>225.8</ele><time>2026-03-28T10:37:24.045Z</time></trkpt><trkpt lat="43.374905" lon="11.144875"><ele>225.4</ele><time>2026-03-28T10:37:25.045Z</time></trkpt><trkpt lat="43.3749167" lon="11.14475"><ele>225.0</ele><time>2026-03-28T10:37:26.045Z</time></trkpt><trkpt lat="43.374965" lon="11.1446017"><ele>223.8</ele><time>2026-03-28T10:37:27.045Z</time></trkpt><trkpt lat="43.3749883" lon="11.1444683"><ele>222.6</ele><time>2026-03-28T10:37:28.045Z</time></trkpt><trkpt lat="43.37501" lon="11.14434"><ele>221.39999999999998</ele><time>2026-03-28T10:37:29.045Z</time></trkpt><trkpt lat="43.3750383" lon="11.1442"><ele>220.2</ele><time>2026-03-28T10:37:30.045Z</time></trkpt><trkpt lat="43.3750633" lon="11.1440783"><ele>219.0</ele><time>2026-03-28T10:37:31.045Z</time></trkpt><trkpt lat="43.3750733" lon="11.1439417"><ele>216.0</ele><time>2026-03-28T10:37:32.045Z</time></trkpt><trkpt lat="43.3750633" lon="11.1438083"><ele>213.0</ele><time>2026-03-28T10:37:33.045Z</time></trkpt><trkpt lat="43.375055" lon="11.143665"><ele>210.0</ele><time>2026-03-28T10:37:34.045Z</time></trkpt><trkpt lat="43.3750317" lon="11.143505"><ele>207.0</ele><time>2026-03-28T10:37:35.045Z</time></trkpt><trkpt lat="43.37499" lon="11.1433283"><ele>205.33333333333331</ele><time>2026-03-28T10:37:36.045Z</time></trkpt><trkpt lat="43.374925" lon="11.1431367"><ele>203.66666666666666</ele><time>2026-03-28T10:37:37.045Z</time></trkpt><trkpt lat="43.3748617" lon="11.1429317"><ele>202.0</ele><time>2026-03-28T10:37:38.045Z</time></trkpt><trkpt lat="43.3748067" lon="11.1427317"><ele>202.0</ele><time>2026-03-28T10:37:39.045Z</time></trkpt><trkpt lat="43.37476" lon="11.1425317"><ele>202.0</ele><time>2026-03-28T10:37:40.045Z</time></trkpt><trkpt lat="43.3747233" lon="11.1423533"><ele>202.0</ele><time>2026-03-28T10:37:41.045Z</time></trkpt><trkpt lat="43.374685" lon="11.1421917"><ele>202.0</ele><time>2026-03-28T10:37:42.045Z</time></trkpt><trkpt lat="43.37464" lon="11.1420283"><ele>200.99999999999997</ele><time>2026-03-28T10:37:43.045Z</time></trkpt><trkpt lat="43.3746033" lon="11.1418933"><ele>200.0</ele><time>2026-03-28T10:37:44.044Z</time></trkpt><trkpt lat="43.374575" lon="11.1417733"><ele>199.0</ele><time>2026-03-28T10:37:45.045Z</time></trkpt><trkpt lat="43.3745533" lon="11.1416817"><ele>198.0</ele><time>2026-03-28T10:37:46.045Z</time></trkpt><trkpt lat="43.3745133" lon="11.1415767"><ele>196.99999999999997</ele><time>2026-03-28T10:37:48.045Z</time></trkpt><trkpt lat="43.3744417" lon="11.1415767"><ele>196.0</ele><time>2026-03-28T10:37:51.045Z</time></trkpt><trkpt lat="43.3743567" lon="11.1416683"><ele>196.0</ele><time>2026-03-28T10:37:53.044Z</time></trkpt><trkpt lat="43.3743017" lon="11.1417417"><ele>196.0</ele><time>2026-03-28T10:37:54.045Z</time></trkpt><trkpt lat="43.374225" lon="11.1418233"><ele>196.0</ele><time>2026-03-28T10:37:55.045Z</time></trkpt><trkpt lat="43.3741333" lon="11.1419083"><ele>196.0</ele><time>2026-03-28T10:37:56.045Z</time></trkpt><trkpt lat="43.3740317" lon="11.142015"><ele>196.0</ele><time>2026-03-28T10:37:57.045Z</time></trkpt><trkpt lat="43.3739217" lon="11.1421267"><ele>195.25</ele><time>2026-03-28T10:37:58.044Z</time></trkpt><trkpt lat="43.37382" lon="11.1422533"><ele>194.5</ele><time>2026-03-28T10:37:59.044Z</time></trkpt><trkpt lat="43.3737217" lon="11.142395"><ele>193.75</ele><time>2026-03-28T10:38:00.045Z</time></trkpt><trkpt lat="43.3736167" lon="11.1425533"><ele>193.0</ele><time>2026-03-28T10:38:01.044Z</time></trkpt><trkpt lat="43.37349" lon="11.142725"><ele>193.0</ele><time>2026-03-28T10:38:02.045Z</time></trkpt><trkpt lat="43.37339" lon="11.1428967"><ele>193.0</ele><time>2026-03-28T10:38:03.045Z</time></trkpt><trkpt lat="43.3732917" lon="11.1430883"><ele>193.0</ele><time>2026-03-28T10:38:04.045Z</time></trkpt><trkpt lat="43.37319" lon="11.1432667"><ele>193.5</ele><time>2026-03-28T10:38:05.045Z</time></trkpt><trkpt lat="43.3731033" lon="11.1434467"><ele>194.0</ele><time>2026-03-28T10:38:06.045Z</time></trkpt><trkpt lat="43.3730217" lon="11.14361"><ele>194.5</ele><time>2026-03-28T10:38:07.045Z</time></trkpt><trkpt lat="43.3729333" lon="11.1437367"><ele>195.0</ele><time>2026-03-28T10:38:08.045Z</time></trkpt><trkpt lat="43.372815" lon="11.14385"><ele>193.75</ele><time>2026-03-28T10:38:09.045Z</time></trkpt><trkpt lat="43.37269" lon="11.1438883"><ele>192.5</ele><time>2026-03-28T10:38:10.045Z</time></trkpt><trkpt lat="43.37255" lon="11.1438733"><ele>191.25</ele><time>2026-03-28T10:38:11.044Z</time></trkpt><trkpt lat="43.3724033" lon="11.143845"><ele>190.0</ele><time>2026-03-28T10:38:12.044Z</time></trkpt><trkpt lat="43.3722467" lon="11.1438117"><ele>190.0</ele><time>2026-03-28T10:38:13.045Z</time></trkpt><trkpt lat="43.3720617" lon="11.1437583"><ele>190.0</ele><time>2026-03-28T10:38:14.045Z</time></trkpt><trkpt lat="43.3718833" lon="11.14368"><ele>190.0</ele><time>2026-03-28T10:38:15.045Z</time></trkpt><trkpt lat="43.3716967" lon="11.1435867"><ele>190.0</ele><time>2026-03-28T10:38:16.045Z</time></trkpt><trkpt lat="43.3715267" lon="11.1434817"><ele>190.0</ele><time>2026-03-28T10:38:17.045Z</time></trkpt><trkpt lat="43.37135" lon="11.1433833"><ele>190.0</ele><time>2026-03-28T10:38:18.045Z</time></trkpt><trkpt lat="43.371175" lon="11.143295"><ele>189.33333333333334</ele><time>2026-03-28T10:38:19.045Z</time></trkpt><trkpt lat="43.3710233" lon="11.1432033"><ele>188.66666666666666</ele><time>2026-03-28T10:38:20.044Z</time></trkpt><trkpt lat="43.370865" lon="11.14315"><ele>188.0</ele><time>2026-03-28T10:38:21.045Z</time></trkpt><trkpt lat="43.3707183" lon="11.1431167"><ele>188.0</ele><time>2026-03-28T10:38:22.045Z</time></trkpt><trkpt lat="43.3705633" lon="11.1431233"><ele>188.0</ele><time>2026-03-28T10:38:23.044Z</time></trkpt><trkpt lat="43.3703983" lon="11.143185"><ele>188.0</ele><time>2026-03-28T10:38:24.045Z</time></trkpt><trkpt lat="43.370235" lon="11.14327"><ele>189.0</ele><time>2026-03-28T10:38:25.045Z</time></trkpt><trkpt lat="43.3700717" lon="11.143365"><ele>190.0</ele><time>2026-03-28T10:38:26.045Z</time></trkpt><trkpt lat="43.369895" lon="11.1434667"><ele>191.0</ele><time>2026-03-28T10:38:27.045Z</time></trkpt><trkpt lat="43.3697167" lon="11.143565"><ele>190.66666666666666</ele><time>2026-03-28T10:38:28.045Z</time></trkpt><trkpt lat="43.3695367" lon="11.1436667"><ele>190.33333333333334</ele><time>2026-03-28T10:38:29.045Z</time></trkpt><trkpt lat="43.369345" lon="11.14378"><ele>190.0</ele><time>2026-03-28T10:38:30.045Z</time></trkpt><trkpt lat="43.3691667" lon="11.1438967"><ele>190.0</ele><time>2026-03-28T10:38:31.045Z</time></trkpt><trkpt lat="43.3689867" lon="11.1440017"><ele>190.0</ele><time>2026-03-28T10:38:32.044Z</time></trkpt><trkpt lat="43.3688033" lon="11.1441067"><ele>190.0</ele><time>2026-03-28T10:38:33.045Z</time></trkpt><trkpt lat="43.36862" lon="11.1442017"><ele>191.33333333333334</ele><time>2026-03-28T10:38:34.045Z</time></trkpt><trkpt lat="43.3684433" lon="11.1442967"><ele>192.66666666666669</ele><time>2026-03-28T10:38:35.045Z</time></trkpt><trkpt lat="43.3682683" lon="11.1443767"><ele>194.0</ele><time>2026-03-28T10:38:36.045Z</time></trkpt><trkpt lat="43.3680917" lon="11.1444483"><ele>194.0</ele><time>2026-03-28T10:38:37.045Z</time></trkpt><trkpt lat="43.36791" lon="11.144495"><ele>194.0</ele><time>2026-03-28T10:38:38.045Z</time></trkpt><trkpt lat="43.367735" lon="11.14453"><ele>194.0</ele><time>2026-03-28T10:38:39.045Z</time></trkpt><trkpt lat="43.3675633" lon="11.1445567"><ele>194.0</ele><time>2026-03-28T10:38:40.045Z</time></trkpt><trkpt lat="43.3673783" lon="11.1445883"><ele>194.0</ele><time>2026-03-28T10:38:41.045Z</time></trkpt><trkpt lat="43.3672017" lon="11.14462"><ele>194.0</ele><time>2026-03-28T10:38:42.045Z</time></trkpt><trkpt lat="43.36704" lon="11.1446517"><ele>194.2</ele><time>2026-03-28T10:38:43.045Z</time></trkpt><trkpt lat="43.3669067" lon="11.1446917"><ele>194.39999999999998</ele><time>2026-03-28T10:38:44.045Z</time></trkpt><trkpt lat="43.3668" lon="11.1447433"><ele>194.6</ele><time>2026-03-28T10:38:45.045Z</time></trkpt><trkpt lat="43.3667267" lon="11.1447883"><ele>194.8</ele><time>2026-03-28T10:38:46.045Z</time></trkpt><trkpt lat="43.366625" lon="11.1448367"><ele>195.0</ele><time>2026-03-28T10:38:48.045Z</time></trkpt><trkpt lat="43.3665933" lon="11.1447167"><ele>195.0</ele><time>2026-03-28T10:38:51.045Z</time></trkpt><trkpt lat="43.3666217" lon="11.144635"><ele>195.0</ele><time>2026-03-28T10:38:52.045Z</time></trkpt><trkpt lat="43.3666683" lon="11.14454"><ele>195.0</ele><time>2026-03-28T10:38:53.045Z</time></trkpt><trkpt lat="43.3667317" lon="11.144435"><ele>195.0</ele><time>2026-03-28T10:38:54.045Z</time></trkpt><trkpt lat="43.3668" lon="11.1443117"><ele>195.0</ele><time>2026-03-28T10:38:55.045Z</time></trkpt><trkpt lat="43.3668683" lon="11.1441733"><ele>194.75</ele><time>2026-03-28T10:38:56.045Z</time></trkpt><trkpt lat="43.3669333" lon="11.1440283"><ele>194.5</ele><time>2026-03-28T10:38:57.045Z</time></trkpt><trkpt lat="43.3670033" lon="11.1438717"><ele>194.25</ele><time>2026-03-28T10:38:58.045Z</time></trkpt><trkpt lat="43.367095" lon="11.1437133"><ele>194.0</ele><time>2026-03-28T10:38:59.045Z</time></trkpt><trkpt lat="43.3671783" lon="11.143565"><ele>193.66666666666669</ele><time>2026-03-28T10:39:00.044Z</time></trkpt><trkpt lat="43.3672783" lon="11.1433833"><ele>193.33333333333331</ele><time>2026-03-28T10:39:01.045Z</time></trkpt><trkpt lat="43.3673667" lon="11.1431917"><ele>193.0</ele><time>2026-03-28T10:39:02.045Z</time></trkpt><trkpt lat="43.367465" lon="11.1430283"><ele>193.0</ele><time>2026-03-28T10:39:03.045Z</time></trkpt><trkpt lat="43.3675733" lon="11.1428433"><ele>193.0</ele><time>2026-03-28T10:39:04.045Z</time></trkpt><trkpt lat="43.367695" lon="11.1426333"><ele>193.0</ele><time>2026-03-28T10:39:05.044Z</time></trkpt><trkpt lat="43.3678033" lon="11.142415"><ele>192.33333333333331</ele><time>2026-03-28T10:39:06.045Z</time></trkpt><trkpt lat="43.3679033" lon="11.1422017"><ele>191.66666666666666</ele><time>2026-03-28T10:39:07.045Z</time></trkpt><trkpt lat="43.3679983" lon="11.1420167"><ele>191.0</ele><time>2026-03-28T10:39:08.045Z</time></trkpt><trkpt lat="43.368095" lon="11.1418383"><ele>191.0</ele><time>2026-03-28T10:39:09.045Z</time></trkpt><trkpt lat="43.368185" lon="11.1416717"><ele>191.0</ele><time>2026-03-28T10:39:10.044Z</time></trkpt><trkpt lat="43.3682583" lon="11.1415283"><ele>191.0</ele><time>2026-03-28T10:39:11.045Z</time></trkpt><trkpt lat="43.3683183" lon="11.1414"><ele>191.0</ele><time>2026-03-28T10:39:12.044Z</time></trkpt><trkpt lat="43.3683867" lon="11.14128"><ele>192.16666666666666</ele><time>2026-03-28T10:39:13.045Z</time></trkpt><trkpt lat="43.3684333" lon="11.14118"><ele>193.33333333333331</ele><time>2026-03-28T10:39:14.044Z</time></trkpt><trkpt lat="43.36847" lon="11.1411083"><ele>194.5</ele><time>2026-03-28T10:39:15.045Z</time></trkpt><trkpt lat="43.3684967" lon="11.1410283"><ele>195.66666666666666</ele><time>2026-03-28T10:39:17.045Z</time></trkpt><trkpt lat="43.368455" lon="11.1409633"><ele>196.83333333333334</ele><time>2026-03-28T10:39:19.045Z</time></trkpt><trkpt lat="43.3683633" lon="11.14087"><ele>198.0</ele><time>2026-03-28T10:39:21.045Z</time></trkpt><trkpt lat="43.3683083" lon="11.1408083"><ele>198.0</ele><time>2026-03-28T10:39:22.045Z</time></trkpt><trkpt lat="43.36824" lon="11.1407383"><ele>198.0</ele><time>2026-03-28T10:39:23.045Z</time></trkpt><trkpt lat="43.368165" lon="11.1406683"><ele>198.0</ele><time>2026-03-28T10:39:24.045Z</time></trkpt><trkpt lat="43.368075" lon="11.1405883"><ele>198.0</ele><time>2026-03-28T10:39:25.045Z</time></trkpt><trkpt lat="43.3679883" lon="11.140515"><ele>198.0</ele><time>2026-03-28T10:39:26.045Z</time></trkpt><trkpt lat="43.367905" lon="11.1404483"><ele>200.4</ele><time>2026-03-28T10:39:27.045Z</time></trkpt><trkpt lat="43.3678183" lon="11.14038"><ele>202.8</ele><time>2026-03-28T10:39:28.045Z</time></trkpt><trkpt lat="43.36773" lon="11.1403183"><ele>205.2</ele><time>2026-03-28T10:39:29.045Z</time></trkpt><trkpt lat="43.3676417" lon="11.1402617"><ele>207.6</ele><time>2026-03-28T10:39:30.045Z</time></trkpt><trkpt lat="43.367565" lon="11.1402033"><ele>210.0</ele><time>2026-03-28T10:39:31.045Z</time></trkpt><trkpt lat="43.3674717" lon="11.1401467"><ele>210.0</ele><time>2026-03-28T10:39:32.045Z</time></trkpt><trkpt lat="43.36739" lon="11.140105"><ele>210.0</ele><time>2026-03-28T10:39:33.045Z</time></trkpt><trkpt lat="43.3672983" lon="11.1400767"><ele>210.0</ele><time>2026-03-28T10:39:34.045Z</time></trkpt><trkpt lat="43.3672083" lon="11.1400667"><ele>210.0</ele><time>2026-03-28T10:39:35.045Z</time></trkpt><trkpt lat="43.3671033" lon="11.1400667"><ele>210.0</ele><time>2026-03-28T10:39:36.045Z</time></trkpt><trkpt lat="43.3670017" lon="11.1400667"><ele>210.8</ele><time>2026-03-28T10:39:37.045Z</time></trkpt><trkpt lat="43.3668933" lon="11.14008"><ele>211.6</ele><time>2026-03-28T10:39:38.045Z</time></trkpt><trkpt lat="43.3667817" lon="11.1400883"><ele>212.39999999999998</ele><time>2026-03-28T10:39:39.045Z</time></trkpt><trkpt lat="43.3666717" lon="11.1400917"><ele>213.2</ele><time>2026-03-28T10:39:40.045Z</time></trkpt><trkpt lat="43.3665533" lon="11.1400967"><ele>214.0</ele><time>2026-03-28T10:39:41.045Z</time></trkpt><trkpt lat="43.3664367" lon="11.140095"><ele>215.25</ele><time>2026-03-28T10:39:42.045Z</time></trkpt><trkpt lat="43.366315" lon="11.1401067"><ele>216.5</ele><time>2026-03-28T10:39:43.045Z</time></trkpt><trkpt lat="43.3662083" lon="11.1400933"><ele>217.75</ele><time>2026-03-28T10:39:44.044Z</time></trkpt><trkpt lat="43.3660917" lon="11.1400733"><ele>219.0</ele><time>2026-03-28T10:39:45.045Z</time></trkpt><trkpt lat="43.3659867" lon="11.14004"><ele>219.0</ele><time>2026-03-28T10:39:46.045Z</time></trkpt><trkpt lat="43.365875" lon="11.140015"><ele>218.99999999999997</ele><time>2026-03-28T10:39:47.045Z</time></trkpt><trkpt lat="43.36576" lon="11.1399917"><ele>218.99999999999997</ele><time>2026-03-28T10:39:48.044Z</time></trkpt><trkpt lat="43.3656533" lon="11.1399467"><ele>219.0</ele><time>2026-03-28T10:39:49.045Z</time></trkpt><trkpt lat="43.3655583" lon="11.1398833"><ele>219.0</ele><time>2026-03-28T10:39:50.045Z</time></trkpt><trkpt lat="43.3654667" lon="11.1398117"><ele>219.25</ele><time>2026-03-28T10:39:51.045Z</time></trkpt><trkpt lat="43.3653817" lon="11.1397267"><ele>219.5</ele><time>2026-03-28T10:39:52.045Z</time></trkpt><trkpt lat="43.36529" lon="11.1396283"><ele>219.75</ele><time>2026-03-28T10:39:53.044Z</time></trkpt><trkpt lat="43.3652133" lon="11.1395183"><ele>220.0</ele><time>2026-03-28T10:39:54.045Z</time></trkpt><trkpt lat="43.3651267" lon="11.1394"><ele>220.0</ele><time>2026-03-28T10:39:55.045Z</time></trkpt><trkpt lat="43.3650367" lon="11.13929"><ele>220.0</ele><time>2026-03-28T10:39:56.045Z</time></trkpt><trkpt lat="43.3649517" lon="11.1391867"><ele>220.0</ele><time>2026-03-28T10:39:57.045Z</time></trkpt><trkpt lat="43.36486" lon="11.1390883"><ele>220.0</ele><time>2026-03-28T10:39:58.045Z</time></trkpt><trkpt lat="43.364775" lon="11.13899"><ele>221.25</ele><time>2026-03-28T10:39:59.045Z</time></trkpt><trkpt lat="43.36468" lon="11.138895"><ele>222.5</ele><time>2026-03-28T10:40:00.044Z</time></trkpt><trkpt lat="43.36459" lon="11.1388"><ele>223.75</ele><time>2026-03-28T10:40:01.045Z</time></trkpt><trkpt lat="43.3644867" lon="11.13871"><ele>225.0</ele><time>2026-03-28T10:40:02.045Z</time></trkpt><trkpt lat="43.3643867" lon="11.1386083"><ele>225.0</ele><time>2026-03-28T10:40:03.045Z</time></trkpt><trkpt lat="43.3642733" lon="11.1385083"><ele>225.0</ele><time>2026-03-28T10:40:04.045Z</time></trkpt><trkpt lat="43.364165" lon="11.1384133"><ele>225.0</ele><time>2026-03-28T10:40:05.045Z</time></trkpt><trkpt lat="43.3640633" lon="11.1383017"><ele>225.0</ele><time>2026-03-28T10:40:06.044Z</time></trkpt><trkpt lat="43.363975" lon="11.1381983"><ele>223.75</ele><time>2026-03-28T10:40:07.045Z</time></trkpt><trkpt lat="43.3638883" lon="11.13809"><ele>222.5</ele><time>2026-03-28T10:40:08.045Z</time></trkpt><trkpt lat="43.3638067" lon="11.1379717"><ele>221.25</ele><time>2026-03-28T10:40:09.045Z</time></trkpt><trkpt lat="43.363735" lon="11.1378417"><ele>220.0</ele><time>2026-03-28T10:40:10.045Z</time></trkpt><trkpt lat="43.3636583" lon="11.137705"><ele>222.0</ele><time>2026-03-28T10:40:11.045Z</time></trkpt><trkpt lat="43.3635883" lon="11.1375733"><ele>224.0</ele><time>2026-03-28T10:40:12.045Z</time></trkpt><trkpt lat="43.3635217" lon="11.137455"><ele>226.0</ele><time>2026-03-28T10:40:13.045Z</time></trkpt><trkpt lat="43.3634717" lon="11.1373517"><ele>228.0</ele><time>2026-03-28T10:40:14.045Z</time></trkpt><trkpt lat="43.363425" lon="11.1372583"><ele>230.0</ele><time>2026-03-28T10:40:15.045Z</time></trkpt><trkpt lat="43.3633817" lon="11.1371717"><ele>230.33333333333334</ele><time>2026-03-28T10:40:16.045Z</time></trkpt><trkpt lat="43.3633267" lon="11.13711"><ele>230.66666666666669</ele><time>2026-03-28T10:40:17.045Z</time></trkpt><trkpt lat="43.36327" lon="11.1370717"><ele>231.0</ele><time>2026-03-28T10:40:18.045Z</time></trkpt><trkpt lat="43.3632033" lon="11.1370383"><ele>231.33333333333331</ele><time>2026-03-28T10:40:19.045Z</time></trkpt><trkpt lat="43.363135" lon="11.1370117"><ele>231.66666666666666</ele><time>2026-03-28T10:40:20.044Z</time></trkpt><trkpt lat="43.3630467" lon="11.1369233"><ele>232.0</ele><time>2026-03-28T10:40:22.045Z</time></trkpt><trkpt lat="43.3629667" lon="11.13685"><ele>232.0</ele><time>2026-03-28T10:40:24.045Z</time></trkpt><trkpt lat="43.3629117" lon="11.13675"><ele>232.0</ele><time>2026-03-28T10:40:26.045Z</time></trkpt><trkpt lat="43.36292" lon="11.1366067"><ele>232.0</ele><time>2026-03-28T10:40:28.044Z</time></trkpt><trkpt lat="43.362995" lon="11.13646"><ele>232.0</ele><time>2026-03-28T10:40:30.045Z</time></trkpt><trkpt lat="43.3630517" lon="11.136395"><ele>232.0</ele><time>2026-03-28T10:40:31.045Z</time></trkpt><trkpt lat="43.363125" lon="11.13633"><ele>229.39999999999998</ele><time>2026-03-28T10:40:32.045Z</time></trkpt><trkpt lat="43.3631983" lon="11.1362633"><ele>226.79999999999998</ele><time>2026-03-28T10:40:33.045Z</time></trkpt><trkpt lat="43.363275" lon="11.1361933"><ele>224.2</ele><time>2026-03-28T10:40:34.045Z</time></trkpt><trkpt lat="43.363355" lon="11.1361267"><ele>221.6</ele><time>2026-03-28T10:40:35.045Z</time></trkpt><trkpt lat="43.3634383" lon="11.1360633"><ele>219.0</ele><time>2026-03-28T10:40:36.045Z</time></trkpt><trkpt lat="43.3635183" lon="11.135995"><ele>219.0</ele><time>2026-03-28T10:40:37.044Z</time></trkpt><trkpt lat="43.363595" lon="11.1359283"><ele>219.0</ele><time>2026-03-28T10:40:38.045Z</time></trkpt><trkpt lat="43.3636667" lon="11.135865"><ele>219.0</ele><time>2026-03-28T10:40:39.045Z</time></trkpt><trkpt lat="43.3637417" lon="11.13579"><ele>219.0</ele><time>2026-03-28T10:40:40.045Z</time></trkpt><trkpt lat="43.36381" lon="11.13572"><ele>219.0</ele><time>2026-03-28T10:40:41.045Z</time></trkpt><trkpt lat="43.3638833" lon="11.1356483"><ele>219.0</ele><time>2026-03-28T10:40:42.045Z</time></trkpt><trkpt lat="43.3639433" lon="11.1355817"><ele>217.14285714285714</ele><time>2026-03-28T10:40:43.045Z</time></trkpt><trkpt lat="43.36399" lon="11.135515"><ele>215.28571428571428</ele><time>2026-03-28T10:40:44.045Z</time></trkpt><trkpt lat="43.36403" lon="11.1354367"><ele>213.42857142857142</ele><time>2026-03-28T10:40:45.045Z</time></trkpt><trkpt lat="43.3640517" lon="11.1353467"><ele>211.57142857142856</ele><time>2026-03-28T10:40:46.045Z</time></trkpt><trkpt lat="43.3640583" lon="11.1352417"><ele>209.71428571428572</ele><time>2026-03-28T10:40:47.045Z</time></trkpt><trkpt lat="43.3640517" lon="11.1351317"><ele>207.85714285714283</ele><time>2026-03-28T10:40:48.045Z</time></trkpt><trkpt lat="43.3640383" lon="11.135025"><ele>206.0</ele><time>2026-03-28T10:40:49.045Z</time></trkpt><trkpt lat="43.3640267" lon="11.1349033"><ele>205.00000000000003</ele><time>2026-03-28T10:40:50.045Z</time></trkpt><trkpt lat="43.3640183" lon="11.1347867"><ele>204.0</ele><time>2026-03-28T10:40:51.045Z</time></trkpt><trkpt lat="43.3640083" lon="11.134675"><ele>203.0</ele><time>2026-03-28T10:40:52.044Z</time></trkpt><trkpt lat="43.364" lon="11.1345567"><ele>202.0</ele><time>2026-03-28T10:40:53.045Z</time></trkpt><trkpt lat="43.363995" lon="11.134445"><ele>201.00000000000003</ele><time>2026-03-28T10:40:54.045Z</time></trkpt><trkpt lat="43.3639867" lon="11.1343333"><ele>200.0</ele><time>2026-03-28T10:40:55.045Z</time></trkpt><trkpt lat="43.364015" lon="11.1342"><ele>200.0</ele><time>2026-03-28T10:40:57.044Z</time></trkpt><trkpt lat="43.3641" lon="11.1341233"><ele>200.0</ele><time>2026-03-28T10:40:59.045Z</time></trkpt><trkpt lat="43.364215" lon="11.1341567"><ele>200.0</ele><time>2026-03-28T10:41:01.045Z</time></trkpt><trkpt lat="43.3643017" lon="11.1342"><ele>200.0</ele><time>2026-03-28T10:41:02.045Z</time></trkpt><trkpt lat="43.3643767" lon="11.13425"><ele>200.0</ele><time>2026-03-28T10:41:03.045Z</time></trkpt><trkpt lat="43.3644567" lon="11.1343017"><ele>200.00000000000003</ele><time>2026-03-28T10:41:04.044Z</time></trkpt><trkpt lat="43.364535" lon="11.1343283"><ele>200.0</ele><time>2026-03-28T10:41:05.045Z</time></trkpt><trkpt lat="43.3646083" lon="11.1343267"><ele>200.0</ele><time>2026-03-28T10:41:06.045Z</time></trkpt><trkpt lat="43.36467" lon="11.1342867"><ele>200.0</ele><time>2026-03-28T10:41:07.044Z</time></trkpt><trkpt lat="43.364715" lon="11.1342233"><ele>200.00000000000003</ele><time>2026-03-28T10:41:08.045Z</time></trkpt><trkpt lat="43.364755" lon="11.13413"><ele>200.0</ele><time>2026-03-28T10:41:09.045Z</time></trkpt><trkpt lat="43.3648" lon="11.134015"><ele>196.5</ele><time>2026-03-28T10:41:10.045Z</time></trkpt><trkpt lat="43.3648533" lon="11.1338967"><ele>193.0</ele><time>2026-03-28T10:41:11.045Z</time></trkpt><trkpt lat="43.3649167" lon="11.133765"><ele>189.5</ele><time>2026-03-28T10:41:12.045Z</time></trkpt><trkpt lat="43.36499" lon="11.133635"><ele>186.0</ele><time>2026-03-28T10:41:13.045Z</time></trkpt><trkpt lat="43.3650667" lon="11.133495"><ele>186.0</ele><time>2026-03-28T10:41:14.044Z</time></trkpt><trkpt lat="43.365145" lon="11.13336"><ele>186.0</ele><time>2026-03-28T10:41:15.045Z</time></trkpt><trkpt lat="43.3652333" lon="11.1332217"><ele>186.0</ele><time>2026-03-28T10:41:16.044Z</time></trkpt><trkpt lat="43.365315" lon="11.13308"><ele>186.0</ele><time>2026-03-28T10:41:17.045Z</time></trkpt><trkpt lat="43.3653967" lon="11.1329467"><ele>186.0</ele><time>2026-03-28T10:41:18.045Z</time></trkpt><trkpt lat="43.3654733" lon="11.1328167"><ele>186.0</ele><time>2026-03-28T10:41:19.045Z</time></trkpt><trkpt lat="43.3655467" lon="11.132675"><ele>186.0</ele><time>2026-03-28T10:41:20.045Z</time></trkpt><trkpt lat="43.36563" lon="11.1325317"><ele>186.0</ele><time>2026-03-28T10:41:21.045Z</time></trkpt><trkpt lat="43.3656933" lon="11.13241"><ele>185.5</ele><time>2026-03-28T10:41:22.045Z</time></trkpt><trkpt lat="43.36576" lon="11.1322833"><ele>185.0</ele><time>2026-03-28T10:41:23.045Z</time></trkpt><trkpt lat="43.36583" lon="11.1321567"><ele>184.5</ele><time>2026-03-28T10:41:24.045Z</time></trkpt><trkpt lat="43.3659067" lon="11.1320233"><ele>184.0</ele><time>2026-03-28T10:41:25.045Z</time></trkpt><trkpt lat="43.365985" lon="11.1318867"><ele>184.0</ele><time>2026-03-28T10:41:26.045Z</time></trkpt><trkpt lat="43.3660633" lon="11.1317583"><ele>184.0</ele><time>2026-03-28T10:41:27.045Z</time></trkpt><trkpt lat="43.36614" lon="11.1316283"><ele>184.0</ele><time>2026-03-28T10:41:28.045Z</time></trkpt><trkpt lat="43.3662017" lon="11.1315117"><ele>184.0</ele><time>2026-03-28T10:41:29.045Z</time></trkpt><trkpt lat="43.3662567" lon="11.1314067"><ele>184.0</ele><time>2026-03-28T10:41:30.045Z</time></trkpt><trkpt lat="43.366305" lon="11.1313283"><ele>184.0</ele><time>2026-03-28T10:41:31.045Z</time></trkpt><trkpt lat="43.3663633" lon="11.13122"><ele>184.0</ele><time>2026-03-28T10:41:33.044Z</time></trkpt><trkpt lat="43.3663083" lon="11.1310817"><ele>184.0</ele><time>2026-03-28T10:41:36.045Z</time></trkpt><trkpt lat="43.366245" lon="11.1310217"><ele>184.0</ele><time>2026-03-28T10:41:37.045Z</time></trkpt><trkpt lat="43.36617" lon="11.1309517"><ele>184.0</ele><time>2026-03-28T10:41:38.045Z</time></trkpt><trkpt lat="43.36608" lon="11.1308567"><ele>184.0</ele><time>2026-03-28T10:41:39.045Z</time></trkpt><trkpt lat="43.365975" lon="11.1307417"><ele>184.0</ele><time>2026-03-28T10:41:40.044Z</time></trkpt><trkpt lat="43.3658617" lon="11.1306183"><ele>184.0</ele><time>2026-03-28T10:41:41.045Z</time></trkpt><trkpt lat="43.365735" lon="11.1304917"><ele>184.0</ele><time>2026-03-28T10:41:42.045Z</time></trkpt><trkpt lat="43.365605" lon="11.1303467"><ele>184.33333333333334</ele><time>2026-03-28T10:41:43.045Z</time></trkpt><trkpt lat="43.365465" lon="11.1302017"><ele>184.66666666666666</ele><time>2026-03-28T10:41:44.045Z</time></trkpt><trkpt lat="43.36533" lon="11.130055"><ele>185.0</ele><time>2026-03-28T10:41:45.045Z</time></trkpt><trkpt lat="43.3651833" lon="11.1299"><ele>185.0</ele><time>2026-03-28T10:41:46.045Z</time></trkpt><trkpt lat="43.36504" lon="11.1297317"><ele>185.0</ele><time>2026-03-28T10:41:47.045Z</time></trkpt><trkpt lat="43.364895" lon="11.1295617"><ele>185.0</ele><time>2026-03-28T10:41:48.045Z</time></trkpt><trkpt lat="43.3647417" lon="11.1293983"><ele>185.0</ele><time>2026-03-28T10:41:49.045Z</time></trkpt><trkpt lat="43.3645883" lon="11.1292467"><ele>185.0</ele><time>2026-03-28T10:41:50.045Z</time></trkpt><trkpt lat="43.3644417" lon="11.129085"><ele>185.0</ele><time>2026-03-28T10:41:51.045Z</time></trkpt><trkpt lat="43.364295" lon="11.128915"><ele>185.0</ele><time>2026-03-28T10:41:52.045Z</time></trkpt><trkpt lat="43.3641417" lon="11.1287533"><ele>185.0</ele><time>2026-03-28T10:41:53.045Z</time></trkpt><trkpt lat="43.3639917" lon="11.12859"><ele>185.0</ele><time>2026-03-28T10:41:54.044Z</time></trkpt><trkpt lat="43.3638417" lon="11.1284317"><ele>185.33333333333331</ele><time>2026-03-28T10:41:55.045Z</time></trkpt><trkpt lat="43.3636883" lon="11.1282667"><ele>185.66666666666666</ele><time>2026-03-28T10:41:56.045Z</time></trkpt><trkpt lat="43.363535" lon="11.1281"><ele>186.0</ele><time>2026-03-28T10:41:57.045Z</time></trkpt><trkpt lat="43.3633933" lon="11.12793"><ele>186.0</ele><time>2026-03-28T10:41:58.045Z</time></trkpt><trkpt lat="43.36324" lon="11.127765"><ele>186.0</ele><time>2026-03-28T10:41:59.045Z</time></trkpt><trkpt lat="43.3630817" lon="11.1276033"><ele>186.0</ele><time>2026-03-28T10:42:00.045Z</time></trkpt><trkpt lat="43.3629317" lon="11.127435"><ele>186.33333333333334</ele><time>2026-03-28T10:42:01.045Z</time></trkpt><trkpt lat="43.3628033" lon="11.1272767"><ele>186.66666666666669</ele><time>2026-03-28T10:42:02.045Z</time></trkpt><trkpt lat="43.3626667" lon="11.127135"><ele>187.0</ele><time>2026-03-28T10:42:03.045Z</time></trkpt><trkpt lat="43.3625483" lon="11.1269933"><ele>187.0</ele><time>2026-03-28T10:42:04.045Z</time></trkpt><trkpt lat="43.36242" lon="11.1268733"><ele>187.0</ele><time>2026-03-28T10:42:05.045Z</time></trkpt><trkpt lat="43.3623083" lon="11.1267483"><ele>187.0</ele><time>2026-03-28T10:42:06.045Z</time></trkpt><trkpt lat="43.362205" lon="11.12665"><ele>187.0</ele><time>2026-03-28T10:42:07.045Z</time></trkpt><trkpt lat="43.362115" lon="11.1265667"><ele>187.0</ele><time>2026-03-28T10:42:08.045Z</time></trkpt><trkpt lat="43.3620583" lon="11.1264883"><ele>187.0</ele><time>2026-03-28T10:42:09.044Z</time></trkpt><trkpt lat="43.361995" lon="11.12638"><ele>187.0</ele><time>2026-03-28T10:42:11.045Z</time></trkpt><trkpt lat="43.3620283" lon="11.1262917"><ele>187.0</ele><time>2026-03-28T10:42:13.045Z</time></trkpt><trkpt lat="43.3620867" lon="11.1262233"><ele>187.0</ele><time>2026-03-28T10:42:14.045Z</time></trkpt><trkpt lat="43.3621483" lon="11.12614"><ele>187.0</ele><time>2026-03-28T10:42:15.045Z</time></trkpt><trkpt lat="43.36222" lon="11.126025"><ele>187.0</ele><time>2026-03-28T10:42:16.045Z</time></trkpt><trkpt lat="43.362295" lon="11.1258967"><ele>187.0</ele><time>2026-03-28T10:42:17.045Z</time></trkpt><trkpt lat="43.3623833" lon="11.1257467"><ele>187.0</ele><time>2026-03-28T10:42:18.044Z</time></trkpt><trkpt lat="43.3624633" lon="11.1256"><ele>187.0</ele><time>2026-03-28T10:42:19.045Z</time></trkpt><trkpt lat="43.3625583" lon="11.12544"><ele>187.33333333333334</ele><time>2026-03-28T10:42:20.045Z</time></trkpt><trkpt lat="43.3626617" lon="11.1252683"><ele>187.66666666666666</ele><time>2026-03-28T10:42:21.045Z</time></trkpt><trkpt lat="43.36277" lon="11.1250783"><ele>188.0</ele><time>2026-03-28T10:42:22.044Z</time></trkpt><trkpt lat="43.362875" lon="11.1248933"><ele>187.66666666666666</ele><time>2026-03-28T10:42:23.045Z</time></trkpt><trkpt lat="43.3629867" lon="11.1246967"><ele>187.33333333333334</ele><time>2026-03-28T10:42:24.045Z</time></trkpt><trkpt lat="43.3630933" lon="11.1245017"><ele>187.0</ele><time>2026-03-28T10:42:25.045Z</time></trkpt><trkpt lat="43.36319" lon="11.12433"><ele>187.0</ele><time>2026-03-28T10:42:26.045Z</time></trkpt><trkpt lat="43.3632767" lon="11.12416"><ele>187.0</ele><time>2026-03-28T10:42:27.044Z</time></trkpt><trkpt lat="43.36337" lon="11.1240033"><ele>187.0</ele><time>2026-03-28T10:42:28.045Z</time></trkpt><trkpt lat="43.363455" lon="11.12386"><ele>187.0</ele><time>2026-03-28T10:42:29.045Z</time></trkpt><trkpt lat="43.3635283" lon="11.12374"><ele>187.16666666666669</ele><time>2026-03-28T10:42:30.045Z</time></trkpt><trkpt lat="43.36358" lon="11.1236467"><ele>187.33333333333334</ele><time>2026-03-28T10:42:31.045Z</time></trkpt><trkpt lat="43.3636317" lon="11.1235433"><ele>187.5</ele><time>2026-03-28T10:42:33.045Z</time></trkpt><trkpt lat="43.3636183" lon="11.1236483"><ele>187.66666666666666</ele><time>2026-03-28T10:42:59.045Z</time></trkpt><trkpt lat="43.3636783" lon="11.123675"><ele>187.83333333333331</ele><time>2026-03-28T10:43:02.045Z</time></trkpt><trkpt lat="43.3637333" lon="11.1235767"><ele>188.0</ele><time>2026-03-28T10:43:04.045Z</time></trkpt><trkpt lat="43.3637917" lon="11.1234917"><ele>188.0</ele><time>2026-03-28T10:43:06.045Z</time></trkpt><trkpt lat="43.3638317" lon="11.1234167"><ele>188.0</ele><time>2026-03-28T10:43:08.045Z</time></trkpt><trkpt lat="43.3638417" lon="11.12333"><ele>188.0</ele><time>2026-03-28T10:43:10.045Z</time></trkpt><trkpt lat="43.3638467" lon="11.1232383"><ele>188.0</ele><time>2026-03-28T10:43:12.045Z</time></trkpt><trkpt lat="43.3638133" lon="11.1231483"><ele>188.0</ele><time>2026-03-28T10:43:15.045Z</time></trkpt><trkpt lat="43.3637833" lon="11.123025"><ele>188.0</ele><time>2026-03-28T10:43:19.045Z</time></trkpt><trkpt lat="43.3637533" lon="11.12292"><ele>188.0</ele><time>2026-03-28T10:43:21.045Z</time></trkpt><trkpt lat="43.3637417" lon="11.1228167"><ele>187.66666666666666</ele><time>2026-03-28T10:43:23.045Z</time></trkpt><trkpt lat="43.3636717" lon="11.1228167"><ele>187.33333333333331</ele><time>2026-03-28T10:43:35.045Z</time></trkpt><trkpt lat="43.3635617" lon="11.122815"><ele>187.0</ele><time>2026-03-28T10:43:37.044Z</time></trkpt><trkpt lat="43.36349" lon="11.1227967"><ele>186.66666666666666</ele><time>2026-03-28T10:43:38.045Z</time></trkpt><trkpt lat="43.3634133" lon="11.1227717"><ele>186.33333333333334</ele><time>2026-03-28T10:43:39.045Z</time></trkpt><trkpt lat="43.3633317" lon="11.12274"><ele>186.0</ele><time>2026-03-28T10:43:40.045Z</time></trkpt><trkpt lat="43.36325" lon="11.1227017"><ele>186.0</ele><time>2026-03-28T10:43:41.045Z</time></trkpt><trkpt lat="43.363155" lon="11.12266"><ele>186.0</ele><time>2026-03-28T10:43:42.044Z</time></trkpt><trkpt lat="43.3630617" lon="11.1226067"><ele>186.0</ele><time>2026-03-28T10:43:43.045Z</time></trkpt><trkpt lat="43.3629683" lon="11.1225483"><ele>186.0</ele><time>2026-03-28T10:43:44.045Z</time></trkpt><trkpt lat="43.3628733" lon="11.1224883"><ele>186.0</ele><time>2026-03-28T10:43:45.045Z</time></trkpt><trkpt lat="43.36279" lon="11.12244"><ele>186.33333333333334</ele><time>2026-03-28T10:43:46.044Z</time></trkpt><trkpt lat="43.362705" lon="11.1223817"><ele>186.66666666666666</ele><time>2026-03-28T10:43:47.045Z</time></trkpt><trkpt lat="43.3626233" lon="11.1223367"><ele>187.0</ele><time>2026-03-28T10:43:48.045Z</time></trkpt><trkpt lat="43.3625367" lon="11.1223017"><ele>187.33333333333331</ele><time>2026-03-28T10:43:49.045Z</time></trkpt><trkpt lat="43.3624683" lon="11.1222983"><ele>187.66666666666666</ele><time>2026-03-28T10:43:50.045Z</time></trkpt><trkpt lat="43.3624033" lon="11.122315"><ele>188.0</ele><time>2026-03-28T10:43:51.045Z</time></trkpt><trkpt lat="43.36234" lon="11.1223633"><ele>188.2</ele><time>2026-03-28T10:43:52.045Z</time></trkpt><trkpt lat="43.3622817" lon="11.122425"><ele>188.4</ele><time>2026-03-28T10:43:53.045Z</time></trkpt><trkpt lat="43.3622167" lon="11.1224883"><ele>188.6</ele><time>2026-03-28T10:43:54.045Z</time></trkpt><trkpt lat="43.3621367" lon="11.12255"><ele>188.79999999999998</ele><time>2026-03-28T10:43:55.044Z</time></trkpt><trkpt lat="43.3620333" lon="11.1226117"><ele>189.0</ele><time>2026-03-28T10:43:56.045Z</time></trkpt><trkpt lat="43.3619117" lon="11.1226733"><ele>189.33333333333334</ele><time>2026-03-28T10:43:57.045Z</time></trkpt><trkpt lat="43.3617833" lon="11.12274"><ele>189.66666666666669</ele><time>2026-03-28T10:43:58.045Z</time></trkpt><trkpt lat="43.3616417" lon="11.12283"><ele>190.0</ele><time>2026-03-28T10:43:59.045Z</time></trkpt><trkpt lat="43.3614883" lon="11.122945"><ele>189.33333333333334</ele><time>2026-03-28T10:44:00.045Z</time></trkpt><trkpt lat="43.3613317" lon="11.123085"><ele>188.66666666666666</ele><time>2026-03-28T10:44:01.045Z</time></trkpt><trkpt lat="43.3611683" lon="11.1232283"><ele>188.0</ele><time>2026-03-28T10:44:02.045Z</time></trkpt><trkpt lat="43.36099" lon="11.123375"><ele>188.0</ele><time>2026-03-28T10:44:03.044Z</time></trkpt><trkpt lat="43.3608" lon="11.1235217"><ele>188.0</ele><time>2026-03-28T10:44:04.045Z</time></trkpt><trkpt lat="43.360595" lon="11.1236683"><ele>188.0</ele><time>2026-03-28T10:44:05.045Z</time></trkpt><trkpt lat="43.360385" lon="11.1238267"><ele>188.5</ele><time>2026-03-28T10:44:06.045Z</time></trkpt><trkpt lat="43.36017" lon="11.1240017"><ele>189.0</ele><time>2026-03-28T10:44:07.045Z</time></trkpt><trkpt lat="43.3599533" lon="11.1241867"><ele>189.5</ele><time>2026-03-28T10:44:08.044Z</time></trkpt><trkpt lat="43.3597467" lon="11.1243567"><ele>190.0</ele><time>2026-03-28T10:44:09.045Z</time></trkpt><trkpt lat="43.3595583" lon="11.1245083"><ele>190.33333333333334</ele><time>2026-03-28T10:44:10.045Z</time></trkpt><trkpt lat="43.3593783" lon="11.1246333"><ele>190.66666666666666</ele><time>2026-03-28T10:44:11.044Z</time></trkpt><trkpt lat="43.3592067" lon="11.124755"><ele>191.0</ele><time>2026-03-28T10:44:12.045Z</time></trkpt><trkpt lat="43.3590517" lon="11.1248517"><ele>191.33333333333331</ele><time>2026-03-28T10:44:13.045Z</time></trkpt><trkpt lat="43.3589017" lon="11.1249567"><ele>191.66666666666666</ele><time>2026-03-28T10:44:14.045Z</time></trkpt><trkpt lat="43.3587417" lon="11.1250283"><ele>192.0</ele><time>2026-03-28T10:44:15.045Z</time></trkpt><trkpt lat="43.3585783" lon="11.1250967"><ele>191.33333333333334</ele><time>2026-03-28T10:44:16.045Z</time></trkpt><trkpt lat="43.3584083" lon="11.1251367"><ele>190.66666666666669</ele><time>2026-03-28T10:44:17.044Z</time></trkpt><trkpt lat="43.3582283" lon="11.1251717"><ele>190.0</ele><time>2026-03-28T10:44:18.045Z</time></trkpt><trkpt lat="43.3580333" lon="11.12522"><ele>190.0</ele><time>2026-03-28T10:44:19.045Z</time></trkpt><trkpt lat="43.35784" lon="11.1252617"><ele>190.0</ele><time>2026-03-28T10:44:20.045Z</time></trkpt><trkpt lat="43.3576467" lon="11.1253133"><ele>190.0</ele><time>2026-03-28T10:44:21.045Z</time></trkpt><trkpt lat="43.3574683" lon="11.1253617"><ele>190.0</ele><time>2026-03-28T10:44:22.045Z</time></trkpt><trkpt lat="43.3573117" lon="11.1253967"><ele>190.0</ele><time>2026-03-28T10:44:23.045Z</time></trkpt><trkpt lat="43.3571683" lon="11.1254433"><ele>190.0</ele><time>2026-03-28T10:44:24.045Z</time></trkpt><trkpt lat="43.357055" lon="11.1255067"><ele>190.0</ele><time>2026-03-28T10:44:25.045Z</time></trkpt><trkpt lat="43.3569267" lon="11.1255967"><ele>190.33333333333334</ele><time>2026-03-28T10:44:26.045Z</time></trkpt><trkpt lat="43.356805" lon="11.1256967"><ele>190.66666666666666</ele><time>2026-03-28T10:44:27.045Z</time></trkpt><trkpt lat="43.3566733" lon="11.1258217"><ele>191.0</ele><time>2026-03-28T10:44:28.045Z</time></trkpt><trkpt lat="43.3565417" lon="11.125965"><ele>192.33333333333331</ele><time>2026-03-28T10:44:29.045Z</time></trkpt><trkpt lat="43.3563983" lon="11.126115"><ele>193.66666666666666</ele><time>2026-03-28T10:44:30.045Z</time></trkpt><trkpt lat="43.35626" lon="11.1262667"><ele>195.0</ele><time>2026-03-28T10:44:31.045Z</time></trkpt><trkpt lat="43.35611" lon="11.1264267"><ele>195.33333333333331</ele><time>2026-03-28T10:44:32.045Z</time></trkpt><trkpt lat="43.3559383" lon="11.1266083"><ele>195.66666666666666</ele><time>2026-03-28T10:44:33.045Z</time></trkpt><trkpt lat="43.3557583" lon="11.126795"><ele>196.0</ele><time>2026-03-28T10:44:34.044Z</time></trkpt><trkpt lat="43.35555" lon="11.1269933"><ele>197.0</ele><time>2026-03-28T10:44:35.045Z</time></trkpt><trkpt lat="43.355345" lon="11.127205"><ele>198.0</ele><time>2026-03-28T10:44:36.044Z</time></trkpt><trkpt lat="43.3551267" lon="11.12742"><ele>199.0</ele><time>2026-03-28T10:44:37.045Z</time></trkpt><trkpt lat="43.3549167" lon="11.1276317"><ele>200.0</ele><time>2026-03-28T10:44:38.045Z</time></trkpt><trkpt lat="43.3547067" lon="11.127845"><ele>200.0</ele><time>2026-03-28T10:44:39.045Z</time></trkpt><trkpt lat="43.3545183" lon="11.1280333"><ele>200.0</ele><time>2026-03-28T10:44:40.045Z</time></trkpt><trkpt lat="43.3543433" lon="11.1282067"><ele>200.0</ele><time>2026-03-28T10:44:41.044Z</time></trkpt><trkpt lat="43.3541833" lon="11.1283683"><ele>200.66666666666669</ele><time>2026-03-28T10:44:42.045Z</time></trkpt><trkpt lat="43.3540267" lon="11.12852"><ele>201.33333333333331</ele><time>2026-03-28T10:44:43.044Z</time></trkpt><trkpt lat="43.3538817" lon="11.1286583"><ele>202.0</ele><time>2026-03-28T10:44:44.045Z</time></trkpt><trkpt lat="43.3537533" lon="11.128785"><ele>202.0</ele><time>2026-03-28T10:44:45.045Z</time></trkpt><trkpt lat="43.353635" lon="11.128905"><ele>202.0</ele><time>2026-03-28T10:44:46.045Z</time></trkpt><trkpt lat="43.3535233" lon="11.1290083"><ele>202.0</ele><time>2026-03-28T10:44:47.045Z</time></trkpt><trkpt lat="43.3534167" lon="11.1291133"><ele>202.0</ele><time>2026-03-28T10:44:48.044Z</time></trkpt><trkpt lat="43.35332" lon="11.1292183"><ele>202.6</ele><time>2026-03-28T10:44:49.044Z</time></trkpt><trkpt lat="43.3532233" lon="11.12932"><ele>203.2</ele><time>2026-03-28T10:44:50.045Z</time></trkpt><trkpt lat="43.3531317" lon="11.129405"><ele>203.8</ele><time>2026-03-28T10:44:51.045Z</time></trkpt><trkpt lat="43.3530483" lon="11.129475"><ele>204.4</ele><time>2026-03-28T10:44:52.045Z</time></trkpt><trkpt lat="43.3529717" lon="11.1295433"><ele>205.0</ele><time>2026-03-28T10:44:53.045Z</time></trkpt><trkpt lat="43.352915" lon="11.1296033"><ele>205.0</ele><time>2026-03-28T10:44:54.045Z</time></trkpt><trkpt lat="43.3528333" lon="11.12967"><ele>205.0</ele><time>2026-03-28T10:44:56.044Z</time></trkpt><trkpt lat="43.352745" lon="11.1296667"><ele>205.0</ele><time>2026-03-28T10:44:58.045Z</time></trkpt><trkpt lat="43.352655" lon="11.129565"><ele>205.0</ele><time>2026-03-28T10:45:00.045Z</time></trkpt><trkpt lat="43.3526033" lon="11.1294683"><ele>205.0</ele><time>2026-03-28T10:45:01.045Z</time></trkpt><trkpt lat="43.352555" lon="11.1293417"><ele>204.99999999999997</ele><time>2026-03-28T10:45:02.045Z</time></trkpt><trkpt lat="43.3524933" lon="11.12922"><ele>205.0</ele><time>2026-03-28T10:45:03.045Z</time></trkpt><trkpt lat="43.3524383" lon="11.129135"><ele>205.0</ele><time>2026-03-28T10:45:04.045Z</time></trkpt><trkpt lat="43.3523783" lon="11.129095"><ele>205.0</ele><time>2026-03-28T10:45:05.045Z</time></trkpt><trkpt lat="43.352305" lon="11.1290733"><ele>204.99999999999997</ele><time>2026-03-28T10:45:06.045Z</time></trkpt><trkpt lat="43.35222" lon="11.1290717"><ele>205.0</ele><time>2026-03-28T10:45:07.045Z</time></trkpt><trkpt lat="43.3521217" lon="11.1290767"><ele>205.25</ele><time>2026-03-28T10:45:08.045Z</time></trkpt><trkpt lat="43.352005" lon="11.1290817"><ele>205.5</ele><time>2026-03-28T10:45:09.045Z</time></trkpt><trkpt lat="43.3518717" lon="11.12909"><ele>205.75</ele><time>2026-03-28T10:45:10.045Z</time></trkpt><trkpt lat="43.3517283" lon="11.1291017"><ele>206.0</ele><time>2026-03-28T10:45:11.045Z</time></trkpt><trkpt lat="43.3515767" lon="11.1291067"><ele>206.0</ele><time>2026-03-28T10:45:12.044Z</time></trkpt><trkpt lat="43.3514267" lon="11.129115"><ele>206.0</ele><time>2026-03-28T10:45:13.045Z</time></trkpt><trkpt lat="43.3512733" lon="11.1291217"><ele>206.0</ele><time>2026-03-28T10:45:14.045Z</time></trkpt><trkpt lat="43.35114" lon="11.1291183"><ele>206.0</ele><time>2026-03-28T10:45:15.045Z</time></trkpt><trkpt lat="43.3510017" lon="11.129115"><ele>206.75</ele><time>2026-03-28T10:45:16.045Z</time></trkpt><trkpt lat="43.35087" lon="11.129115"><ele>207.5</ele><time>2026-03-28T10:45:17.045Z</time></trkpt><trkpt lat="43.3507367" lon="11.129115"><ele>208.25</ele><time>2026-03-28T10:45:18.045Z</time></trkpt><trkpt lat="43.3506183" lon="11.1291217"><ele>209.0</ele><time>2026-03-28T10:45:19.045Z</time></trkpt><trkpt lat="43.3505217" lon="11.129105"><ele>209.0</ele><time>2026-03-28T10:45:20.044Z</time></trkpt><trkpt lat="43.3504283" lon="11.129095"><ele>209.0</ele><time>2026-03-28T10:45:21.045Z</time></trkpt><trkpt lat="43.3503567" lon="11.1290817"><ele>209.0</ele><time>2026-03-28T10:45:22.045Z</time></trkpt><trkpt lat="43.3502567" lon="11.1290267"><ele>209.0</ele><time>2026-03-28T10:45:24.045Z</time></trkpt><trkpt lat="43.3501833" lon="11.1289067"><ele>209.0</ele><time>2026-03-28T10:45:26.045Z</time></trkpt><trkpt lat="43.350175" lon="11.1288167"><ele>208.39999999999998</ele><time>2026-03-28T10:45:27.044Z</time></trkpt><trkpt lat="43.3502017" lon="11.1287133"><ele>207.8</ele><time>2026-03-28T10:45:28.045Z</time></trkpt><trkpt lat="43.3502417" lon="11.1285967"><ele>207.2</ele><time>2026-03-28T10:45:29.045Z</time></trkpt><trkpt lat="43.3502867" lon="11.1284633"><ele>206.60000000000002</ele><time>2026-03-28T10:45:30.045Z</time></trkpt><trkpt lat="43.3503233" lon="11.128325"><ele>206.0</ele><time>2026-03-28T10:45:31.045Z</time></trkpt><trkpt lat="43.3503567" lon="11.12817"><ele>206.0</ele><time>2026-03-28T10:45:32.044Z</time></trkpt><trkpt lat="43.3503817" lon="11.1280233"><ele>206.0</ele><time>2026-03-28T10:45:33.045Z</time></trkpt><trkpt lat="43.3504017" lon="11.1278783"><ele>206.0</ele><time>2026-03-28T10:45:34.045Z</time></trkpt><trkpt lat="43.3504167" lon="11.1277467"><ele>206.0</ele><time>2026-03-28T10:45:35.044Z</time></trkpt><trkpt lat="43.3504117" lon="11.1276083"><ele>206.0</ele><time>2026-03-28T10:45:36.045Z</time></trkpt><trkpt lat="43.3503883" lon="11.1274717"><ele>206.4</ele><time>2026-03-28T10:45:37.045Z</time></trkpt><trkpt lat="43.3503467" lon="11.1273517"><ele>206.8</ele><time>2026-03-28T10:45:38.045Z</time></trkpt><trkpt lat="43.3502817" lon="11.1272567"><ele>207.20000000000002</ele><time>2026-03-28T10:45:39.045Z</time></trkpt><trkpt lat="43.350205" lon="11.12716"><ele>207.60000000000002</ele><time>2026-03-28T10:45:40.045Z</time></trkpt><trkpt lat="43.3501217" lon="11.1270617"><ele>208.0</ele><time>2026-03-28T10:45:41.045Z</time></trkpt><trkpt lat="43.3500317" lon="11.1269483"><ele>208.0</ele><time>2026-03-28T10:45:42.044Z</time></trkpt><trkpt lat="43.3499383" lon="11.1268333"><ele>208.0</ele><time>2026-03-28T10:45:43.045Z</time></trkpt><trkpt lat="43.34984" lon="11.1267183"><ele>208.0</ele><time>2026-03-28T10:45:44.044Z</time></trkpt><trkpt lat="43.34974" lon="11.126595"><ele>208.0</ele><time>2026-03-28T10:45:45.045Z</time></trkpt><trkpt lat="43.3496517" lon="11.1264883"><ele>208.75</ele><time>2026-03-28T10:45:46.045Z</time></trkpt><trkpt lat="43.3495567" lon="11.126375"><ele>209.5</ele><time>2026-03-28T10:45:47.044Z</time></trkpt><trkpt lat="43.3494733" lon="11.1262583"><ele>210.25</ele><time>2026-03-28T10:45:48.045Z</time></trkpt><trkpt lat="43.34938" lon="11.1261417"><ele>211.0</ele><time>2026-03-28T10:45:49.045Z</time></trkpt><trkpt lat="43.3492867" lon="11.126035"><ele>210.99999999999997</ele><time>2026-03-28T10:45:50.045Z</time></trkpt><trkpt lat="43.3491983" lon="11.1259317"><ele>211.0</ele><time>2026-03-28T10:45:51.045Z</time></trkpt><trkpt lat="43.3491283" lon="11.1258433"><ele>211.0</ele><time>2026-03-28T10:45:52.045Z</time></trkpt><trkpt lat="43.3490767" lon="11.1257717"><ele>211.0</ele><time>2026-03-28T10:45:53.045Z</time></trkpt><trkpt lat="43.3490317" lon="11.1256867"><ele>210.99999999999997</ele><time>2026-03-28T10:45:54.045Z</time></trkpt><trkpt lat="43.3489867" lon="11.1256017"><ele>211.0</ele><time>2026-03-28T10:45:55.044Z</time></trkpt><trkpt lat="43.3489367" lon="11.1255067"><ele>213.8</ele><time>2026-03-28T10:45:56.045Z</time></trkpt><trkpt lat="43.3488733" lon="11.125415"><ele>216.60000000000002</ele><time>2026-03-28T10:45:57.045Z</time></trkpt><trkpt lat="43.3488083" lon="11.1253283"><ele>219.4</ele><time>2026-03-28T10:45:58.044Z</time></trkpt><trkpt lat="43.3487367" lon="11.1252483"><ele>222.2</ele><time>2026-03-28T10:45:59.045Z</time></trkpt><trkpt lat="43.3486667" lon="11.1251783"><ele>225.0</ele><time>2026-03-28T10:46:00.045Z</time></trkpt><trkpt lat="43.348585" lon="11.1251"><ele>225.0</ele><time>2026-03-28T10:46:01.044Z</time></trkpt><trkpt lat="43.3485033" lon="11.1250233"><ele>225.0</ele><time>2026-03-28T10:46:02.044Z</time></trkpt><trkpt lat="43.34843" lon="11.1249317"><ele>225.0</ele><time>2026-03-28T10:46:03.045Z</time></trkpt><trkpt lat="43.3483583" lon="11.1248433"><ele>225.0</ele><time>2026-03-28T10:46:04.045Z</time></trkpt><trkpt lat="43.348285" lon="11.124765"><ele>225.0</ele><time>2026-03-28T10:46:05.045Z</time></trkpt><trkpt lat="43.3482" lon="11.1246983"><ele>227.0</ele><time>2026-03-28T10:46:06.045Z</time></trkpt><trkpt lat="43.3481167" lon="11.1246533"><ele>229.0</ele><time>2026-03-28T10:46:07.045Z</time></trkpt><trkpt lat="43.3480417" lon="11.124605"><ele>231.0</ele><time>2026-03-28T10:46:08.045Z</time></trkpt><trkpt lat="43.3479717" lon="11.1245583"><ele>233.0</ele><time>2026-03-28T10:46:09.044Z</time></trkpt><trkpt lat="43.347895" lon="11.1245033"><ele>235.0</ele><time>2026-03-28T10:46:10.045Z</time></trkpt><trkpt lat="43.347825" lon="11.1244333"><ele>237.0</ele><time>2026-03-28T10:46:11.045Z</time></trkpt><trkpt lat="43.3477683" lon="11.1243617"><ele>237.0</ele><time>2026-03-28T10:46:12.045Z</time></trkpt><trkpt lat="43.34773" lon="11.1242783"><ele>237.0</ele><time>2026-03-28T10:46:13.044Z</time></trkpt><trkpt lat="43.34771" lon="11.1241917"><ele>237.0</ele><time>2026-03-28T10:46:14.045Z</time></trkpt><trkpt lat="43.3477283" lon="11.124005"><ele>237.0</ele><time>2026-03-28T10:46:16.045Z</time></trkpt><trkpt lat="43.34776" lon="11.1239033"><ele>237.0</ele><time>2026-03-28T10:46:17.045Z</time></trkpt><trkpt lat="43.3477783" lon="11.123785"><ele>237.0</ele><time>2026-03-28T10:46:18.044Z</time></trkpt><trkpt lat="43.3477933" lon="11.1236633"><ele>238.66666666666666</ele><time>2026-03-28T10:46:19.045Z</time></trkpt><trkpt lat="43.3478083" lon="11.12354"><ele>240.33333333333331</ele><time>2026-03-28T10:46:20.045Z</time></trkpt><trkpt lat="43.3478183" lon="11.1234167"><ele>242.0</ele><time>2026-03-28T10:46:21.044Z</time></trkpt><trkpt lat="43.3478283" lon="11.123295"><ele>243.66666666666666</ele><time>2026-03-28T10:46:22.045Z</time></trkpt><trkpt lat="43.34783" lon="11.1231783"><ele>245.33333333333331</ele><time>2026-03-28T10:46:23.045Z</time></trkpt><trkpt lat="43.34783" lon="11.1230667"><ele>247.0</ele><time>2026-03-28T10:46:24.045Z</time></trkpt><trkpt lat="43.34783" lon="11.1229633"><ele>249.16666666666666</ele><time>2026-03-28T10:46:25.045Z</time></trkpt><trkpt lat="43.3478283" lon="11.1228617"><ele>251.33333333333331</ele><time>2026-03-28T10:46:26.045Z</time></trkpt><trkpt lat="43.34783" lon="11.1227567"><ele>253.5</ele><time>2026-03-28T10:46:27.045Z</time></trkpt><trkpt lat="43.3478417" lon="11.122645"><ele>255.66666666666669</ele><time>2026-03-28T10:46:28.045Z</time></trkpt><trkpt lat="43.3478517" lon="11.1225317"><ele>257.83333333333337</ele><time>2026-03-28T10:46:29.045Z</time></trkpt><trkpt lat="43.3478617" lon="11.1224283"><ele>260.0</ele><time>2026-03-28T10:46:30.045Z</time></trkpt><trkpt lat="43.3478633" lon="11.122325"><ele>261.8</ele><time>2026-03-28T10:46:31.045Z</time></trkpt><trkpt lat="43.34787" lon="11.122175"><ele>263.6</ele><time>2026-03-28T10:46:33.045Z</time></trkpt><trkpt lat="43.3478667" lon="11.1220183"><ele>265.4</ele><time>2026-03-28T10:46:35.045Z</time></trkpt><trkpt lat="43.347875" lon="11.1219067"><ele>267.2</ele><time>2026-03-28T10:46:36.045Z</time></trkpt><trkpt lat="43.3478883" lon="11.1217917"><ele>269.0</ele><time>2026-03-28T10:46:37.044Z</time></trkpt><trkpt lat="43.3479067" lon="11.12167"><ele>269.59999999999997</ele><time>2026-03-28T10:46:38.045Z</time></trkpt><trkpt lat="43.347925" lon="11.1215533"><ele>270.2</ele><time>2026-03-28T10:46:39.045Z</time></trkpt><trkpt lat="43.3479383" lon="11.121435"><ele>270.79999999999995</ele><time>2026-03-28T10:46:40.045Z</time></trkpt><trkpt lat="43.3479567" lon="11.1213067"><ele>271.4</ele><time>2026-03-28T10:46:41.045Z</time></trkpt><trkpt lat="43.347965" lon="11.1211683"><ele>272.0</ele><time>2026-03-28T10:46:42.044Z</time></trkpt><trkpt lat="43.3479767" lon="11.1210283"><ele>272.0</ele><time>2026-03-28T10:46:43.045Z</time></trkpt><trkpt lat="43.3479717" lon="11.12087"><ele>272.0</ele><time>2026-03-28T10:46:44.044Z</time></trkpt><trkpt lat="43.34796" lon="11.120715"><ele>272.0</ele><time>2026-03-28T10:46:45.045Z</time></trkpt><trkpt lat="43.3479517" lon="11.1205633"><ele>272.0</ele><time>2026-03-28T10:46:46.045Z</time></trkpt><trkpt lat="43.3479417" lon="11.1204083"><ele>271.8</ele><time>2026-03-28T10:46:47.045Z</time></trkpt><trkpt lat="43.3479367" lon="11.1202767"><ele>271.6</ele><time>2026-03-28T10:46:48.045Z</time></trkpt><trkpt lat="43.3479333" lon="11.1201517"><ele>271.40000000000003</ele><time>2026-03-28T10:46:49.045Z</time></trkpt><trkpt lat="43.347925" lon="11.1200167"><ele>271.2</ele><time>2026-03-28T10:46:50.045Z</time></trkpt><trkpt lat="43.347925" lon="11.1198883"><ele>271.0</ele><time>2026-03-28T10:46:51.045Z</time></trkpt><trkpt lat="43.3479333" lon="11.119755"><ele>271.0</ele><time>2026-03-28T10:46:52.045Z</time></trkpt><trkpt lat="43.3479483" lon="11.1196267"><ele>271.0</ele><time>2026-03-28T10:46:53.045Z</time></trkpt><trkpt lat="43.3479567" lon="11.11951"><ele>271.0</ele><time>2026-03-28T10:46:54.045Z</time></trkpt><trkpt lat="43.347975" lon="11.1193917"><ele>271.0</ele><time>2026-03-28T10:46:55.045Z</time></trkpt><trkpt lat="43.3480033" lon="11.1192783"><ele>271.0</ele><time>2026-03-28T10:46:56.045Z</time></trkpt><trkpt lat="43.3480233" lon="11.119175"><ele>271.0</ele><time>2026-03-28T10:46:57.045Z</time></trkpt><trkpt lat="43.3480417" lon="11.1190717"><ele>270.2</ele><time>2026-03-28T10:46:58.045Z</time></trkpt><trkpt lat="43.3480533" lon="11.1189617"><ele>269.40000000000003</ele><time>2026-03-28T10:46:59.045Z</time></trkpt><trkpt lat="43.3480533" lon="11.1188333"><ele>268.6</ele><time>2026-03-28T10:47:00.045Z</time></trkpt><trkpt lat="43.3480633" lon="11.1187017"><ele>267.8</ele><time>2026-03-28T10:47:01.044Z</time></trkpt><trkpt lat="43.34807" lon="11.1185633"><ele>267.0</ele><time>2026-03-28T10:47:02.045Z</time></trkpt><trkpt lat="43.3480783" lon="11.11842"><ele>267.0</ele><time>2026-03-28T10:47:03.045Z</time></trkpt><trkpt lat="43.34809" lon="11.1182783"><ele>267.0</ele><time>2026-03-28T10:47:04.045Z</time></trkpt><trkpt lat="43.348105" lon="11.118135"><ele>267.0</ele><time>2026-03-28T10:47:05.045Z</time></trkpt><trkpt lat="43.348115" lon="11.1180267"><ele>267.0</ele><time>2026-03-28T10:47:06.044Z</time></trkpt><trkpt lat="43.348115" lon="11.1179383"><ele>267.0</ele><time>2026-03-28T10:47:07.045Z</time></trkpt><trkpt lat="43.3480667" lon="11.117835"><ele>267.0</ele><time>2026-03-28T10:47:09.045Z</time></trkpt><trkpt lat="43.348005" lon="11.1178133"><ele>268.5</ele><time>2026-03-28T10:47:10.045Z</time></trkpt><trkpt lat="43.34794" lon="11.1178083"><ele>270.0</ele><time>2026-03-28T10:47:11.045Z</time></trkpt><trkpt lat="43.3478633" lon="11.117805"><ele>271.5</ele><time>2026-03-28T10:47:12.044Z</time></trkpt><trkpt lat="43.3477833" lon="11.1178133"><ele>273.0</ele><time>2026-03-28T10:47:13.045Z</time></trkpt><trkpt lat="43.3476917" lon="11.11782"><ele>274.5</ele><time>2026-03-28T10:47:14.045Z</time></trkpt><trkpt lat="43.34759" lon="11.11783"><ele>276.0</ele><time>2026-03-28T10:47:15.045Z</time></trkpt><trkpt lat="43.347495" lon="11.1178317"><ele>276.0</ele><time>2026-03-28T10:47:16.045Z</time></trkpt><trkpt lat="43.3474083" lon="11.11785"><ele>276.0</ele><time>2026-03-28T10:47:17.044Z</time></trkpt><trkpt lat="43.3473267" lon="11.1178717"><ele>276.0</ele><time>2026-03-28T10:47:18.045Z</time></trkpt><trkpt lat="43.3472583" lon="11.11789"><ele>276.0</ele><time>2026-03-28T10:47:19.045Z</time></trkpt><trkpt lat="43.3471867" lon="11.11793"><ele>276.0</ele><time>2026-03-28T10:47:20.045Z</time></trkpt><trkpt lat="43.3471233" lon="11.1179667"><ele>276.0</ele><time>2026-03-28T10:47:21.045Z</time></trkpt><trkpt lat="43.34706" lon="11.1180033"><ele>277.40000000000003</ele><time>2026-03-28T10:47:22.045Z</time></trkpt><trkpt lat="43.3469433" lon="11.1180833"><ele>278.8</ele><time>2026-03-28T10:47:24.045Z</time></trkpt><trkpt lat="43.3468717" lon="11.1181367"><ele>280.20000000000005</ele><time>2026-03-28T10:47:25.045Z</time></trkpt><trkpt lat="43.3467983" lon="11.1181833"><ele>281.6</ele><time>2026-03-28T10:47:26.045Z</time></trkpt><trkpt lat="43.3467183" lon="11.1182367"><ele>283.0</ele><time>2026-03-28T10:47:27.045Z</time></trkpt><trkpt lat="43.34662" lon="11.1182883"><ele>283.75</ele><time>2026-03-28T10:47:28.045Z</time></trkpt><trkpt lat="43.34652" lon="11.1183417"><ele>284.5</ele><time>2026-03-28T10:47:29.045Z</time></trkpt><trkpt lat="43.3464117" lon="11.1183967"><ele>285.25</ele><time>2026-03-28T10:47:30.045Z</time></trkpt><trkpt lat="43.3463" lon="11.118455"><ele>286.0</ele><time>2026-03-28T10:47:31.045Z</time></trkpt><trkpt lat="43.34619" lon="11.1185067"><ele>287.40000000000003</ele><time>2026-03-28T10:47:32.045Z</time></trkpt><trkpt lat="43.3460817" lon="11.118565"><ele>288.8</ele><time>2026-03-28T10:47:33.045Z</time></trkpt><trkpt lat="43.345965" lon="11.118625"><ele>290.20000000000005</ele><time>2026-03-28T10:47:34.045Z</time></trkpt><trkpt lat="43.3458667" lon="11.1186667"><ele>291.6</ele><time>2026-03-28T10:47:35.044Z</time></trkpt><trkpt lat="43.3457783" lon="11.1187033"><ele>293.0</ele><time>2026-03-28T10:47:36.045Z</time></trkpt><trkpt lat="43.345705" lon="11.1187383"><ele>293.0</ele><time>2026-03-28T10:47:37.045Z</time></trkpt><trkpt lat="43.3456433" lon="11.1187633"><ele>293.0</ele><time>2026-03-28T10:47:38.044Z</time></trkpt><trkpt lat="43.3455767" lon="11.1187867"><ele>293.0</ele><time>2026-03-28T10:47:39.045Z</time></trkpt><trkpt lat="43.3454833" lon="11.118865"><ele>293.0</ele><time>2026-03-28T10:47:41.045Z</time></trkpt><trkpt lat="43.34546" lon="11.1190017"><ele>293.0</ele><time>2026-03-28T10:47:43.045Z</time></trkpt><trkpt lat="43.3454333" lon="11.119135"><ele>293.0</ele><time>2026-03-28T10:47:45.045Z</time></trkpt><trkpt lat="43.3453567" lon="11.119235"><ele>293.0</ele><time>2026-03-28T10:47:47.045Z</time></trkpt><trkpt lat="43.3452567" lon="11.119285"><ele>293.0</ele><time>2026-03-28T10:47:49.045Z</time></trkpt><trkpt lat="43.34515" lon="11.119265"><ele>293.0</ele><time>2026-03-28T10:47:51.045Z</time></trkpt><trkpt lat="43.3450517" lon="11.11916"><ele>293.0</ele><time>2026-03-28T10:47:53.045Z</time></trkpt><trkpt lat="43.3450083" lon="11.1190867"><ele>293.0</ele><time>2026-03-28T10:47:54.045Z</time></trkpt><trkpt lat="43.3449733" lon="11.119"><ele>293.0</ele><time>2026-03-28T10:47:55.045Z</time></trkpt><trkpt lat="43.3449433" lon="11.1188983"><ele>293.0</ele><time>2026-03-28T10:47:56.045Z</time></trkpt><trkpt lat="43.3449267" lon="11.118785"><ele>293.0</ele><time>2026-03-28T10:47:57.045Z</time></trkpt><trkpt lat="43.3449117" lon="11.1186683"><ele>293.0</ele><time>2026-03-28T10:47:58.045Z</time></trkpt><trkpt lat="43.344905" lon="11.118535"><ele>293.0</ele><time>2026-03-28T10:47:59.045Z</time></trkpt><trkpt lat="43.3448933" lon="11.1184017"><ele>293.0</ele><time>2026-03-28T10:48:00.045Z</time></trkpt><trkpt lat="43.3448767" lon="11.1182717"><ele>292.1666666666667</ele><time>2026-03-28T10:48:01.045Z</time></trkpt><trkpt lat="43.3448667" lon="11.11815"><ele>291.33333333333337</ele><time>2026-03-28T10:48:02.045Z</time></trkpt><trkpt lat="43.3448533" lon="11.1180367"><ele>290.5</ele><time>2026-03-28T10:48:03.044Z</time></trkpt><trkpt lat="43.3448333" lon="11.11794"><ele>289.6666666666667</ele><time>2026-03-28T10:48:04.045Z</time></trkpt><trkpt lat="43.3447933" lon="11.117855"><ele>288.8333333333333</ele><time>2026-03-28T10:48:05.045Z</time></trkpt><trkpt lat="43.34476" lon="11.11778"><ele>288.0</ele><time>2026-03-28T10:48:06.045Z</time></trkpt><trkpt lat="43.3447283" lon="11.1176967"><ele>286.6</ele><time>2026-03-28T10:48:07.045Z</time></trkpt><trkpt lat="43.3447083" lon="11.1175867"><ele>285.20000000000005</ele><time>2026-03-28T10:48:08.045Z</time></trkpt><trkpt lat="43.3446933" lon="11.117465"><ele>283.8</ele><time>2026-03-28T10:48:09.045Z</time></trkpt><trkpt lat="43.34468" lon="11.1173333"><ele>282.40000000000003</ele><time>2026-03-28T10:48:10.044Z</time></trkpt><trkpt lat="43.3446583" lon="11.1172"><ele>281.0</ele><time>2026-03-28T10:48:11.045Z</time></trkpt><trkpt lat="43.3446417" lon="11.1170817"><ele>281.0</ele><time>2026-03-28T10:48:12.045Z</time></trkpt><trkpt lat="43.3446267" lon="11.11698"><ele>281.0</ele><time>2026-03-28T10:48:13.045Z</time></trkpt><trkpt lat="43.3446083" lon="11.1168933"><ele>281.0</ele><time>2026-03-28T10:48:14.045Z</time></trkpt><trkpt lat="43.3445133" lon="11.1168767"><ele>281.0</ele><time>2026-03-28T10:48:17.045Z</time></trkpt><trkpt lat="43.34445" lon="11.11692"><ele>281.0</ele><time>2026-03-28T10:48:18.045Z</time></trkpt><trkpt lat="43.3443717" lon="11.11698"><ele>281.0</ele><time>2026-03-28T10:48:19.045Z</time></trkpt><trkpt lat="43.344285" lon="11.1170483"><ele>281.0</ele><time>2026-03-28T10:48:20.044Z</time></trkpt><trkpt lat="43.344185" lon="11.1171333"><ele>281.0</ele><time>2026-03-28T10:48:21.045Z</time></trkpt><trkpt lat="43.34409" lon="11.1172317"><ele>281.0</ele><time>2026-03-28T10:48:22.045Z</time></trkpt><trkpt lat="43.344005" lon="11.1173617"><ele>281.0</ele><time>2026-03-28T10:48:23.044Z</time></trkpt><trkpt lat="43.343905" lon="11.1174917"><ele>280.75</ele><time>2026-03-28T10:48:24.045Z</time></trkpt><trkpt lat="43.3438067" lon="11.1176167"><ele>280.5</ele><time>2026-03-28T10:48:25.045Z</time></trkpt><trkpt lat="43.3437283" lon="11.11774"><ele>280.25</ele><time>2026-03-28T10:48:26.045Z</time></trkpt><trkpt lat="43.3436467" lon="11.1178583"><ele>280.0</ele><time>2026-03-28T10:48:27.044Z</time></trkpt><trkpt lat="43.3435633" lon="11.1179817"><ele>280.0</ele><time>2026-03-28T10:48:28.045Z</time></trkpt><trkpt lat="43.3434933" lon="11.1180967"><ele>280.0</ele><time>2026-03-28T10:48:29.045Z</time></trkpt><trkpt lat="43.3434383" lon="11.1182267"><ele>280.0</ele><time>2026-03-28T10:48:30.044Z</time></trkpt><trkpt lat="43.3433967" lon="11.1183667"><ele>280.0</ele><time>2026-03-28T10:48:31.045Z</time></trkpt><trkpt lat="43.34337" lon="11.11852"><ele>280.0</ele><time>2026-03-28T10:48:32.045Z</time></trkpt><trkpt lat="43.343355" lon="11.118685"><ele>279.0</ele><time>2026-03-28T10:48:33.044Z</time></trkpt><trkpt lat="43.343335" lon="11.11886"><ele>278.0</ele><time>2026-03-28T10:48:34.045Z</time></trkpt><trkpt lat="43.3433083" lon="11.1190383"><ele>277.0</ele><time>2026-03-28T10:48:35.045Z</time></trkpt><trkpt lat="43.3432817" lon="11.1192067"><ele>276.0</ele><time>2026-03-28T10:48:36.045Z</time></trkpt><trkpt lat="43.34325" lon="11.1193467"><ele>275.2</ele><time>2026-03-28T10:48:37.044Z</time></trkpt><trkpt lat="43.3432133" lon="11.119475"><ele>274.40000000000003</ele><time>2026-03-28T10:48:38.044Z</time></trkpt><trkpt lat="43.343185" lon="11.11956"><ele>273.6</ele><time>2026-03-28T10:48:39.045Z</time></trkpt><trkpt lat="43.343085" lon="11.1196633"><ele>272.8</ele><time>2026-03-28T10:48:41.044Z</time></trkpt><trkpt lat="43.3430083" lon="11.119695"><ele>272.0</ele><time>2026-03-28T10:48:42.044Z</time></trkpt><trkpt lat="43.342925" lon="11.119745"><ele>272.0</ele><time>2026-03-28T10:48:43.044Z</time></trkpt><trkpt lat="43.34283" lon="11.1198183"><ele>272.0</ele><time>2026-03-28T10:48:44.045Z</time></trkpt><trkpt lat="43.34274" lon="11.11992"><ele>272.0</ele><time>2026-03-28T10:48:45.045Z</time></trkpt><trkpt lat="43.3426383" lon="11.120045"><ele>272.0</ele><time>2026-03-28T10:48:46.045Z</time></trkpt><trkpt lat="43.34253" lon="11.1201817"><ele>271.25</ele><time>2026-03-28T10:48:47.045Z</time></trkpt><trkpt lat="43.34243" lon="11.1203183"><ele>270.5</ele><time>2026-03-28T10:48:48.045Z</time></trkpt><trkpt lat="43.342325" lon="11.1204583"><ele>269.75</ele><time>2026-03-28T10:48:49.045Z</time></trkpt><trkpt lat="43.3422217" lon="11.120605"><ele>269.0</ele><time>2026-03-28T10:48:50.045Z</time></trkpt><trkpt lat="43.3421267" lon="11.1207617"><ele>265.5</ele><time>2026-03-28T10:48:51.044Z</time></trkpt><trkpt lat="43.3420317" lon="11.1209133"><ele>262.0</ele><time>2026-03-28T10:48:52.045Z</time></trkpt><trkpt lat="43.341935" lon="11.1210533"><ele>258.5</ele><time>2026-03-28T10:48:53.045Z</time></trkpt><trkpt lat="43.3418383" lon="11.1211733"><ele>255.0</ele><time>2026-03-28T10:48:54.045Z</time></trkpt><trkpt lat="43.3417367" lon="11.1213"><ele>255.0</ele><time>2026-03-28T10:48:55.045Z</time></trkpt><trkpt lat="43.3416433" lon="11.1214083"><ele>255.0</ele><time>2026-03-28T10:48:56.044Z</time></trkpt><trkpt lat="43.3415533" lon="11.121515"><ele>255.0</ele><time>2026-03-28T10:48:57.045Z</time></trkpt><trkpt lat="43.3414467" lon="11.1216083"><ele>255.0</ele><time>2026-03-28T10:48:58.044Z</time></trkpt><trkpt lat="43.341345" lon="11.12168"><ele>255.0</ele><time>2026-03-28T10:48:59.045Z</time></trkpt><trkpt lat="43.3412517" lon="11.1217533"><ele>255.0</ele><time>2026-03-28T10:49:00.045Z</time></trkpt><trkpt lat="43.3411817" lon="11.1217967"><ele>255.0</ele><time>2026-03-28T10:49:01.045Z</time></trkpt><trkpt lat="43.3411267" lon="11.12184"><ele>255.0</ele><time>2026-03-28T10:49:02.045Z</time></trkpt><trkpt lat="43.341015" lon="11.12195"><ele>255.0</ele><time>2026-03-28T10:49:04.044Z</time></trkpt><trkpt lat="43.3409533" lon="11.12206"><ele>255.0</ele><time>2026-03-28T10:49:05.044Z</time></trkpt><trkpt lat="43.3408967" lon="11.1221783"><ele>255.0</ele><time>2026-03-28T10:49:06.045Z</time></trkpt><trkpt lat="43.3408433" lon="11.122285"><ele>255.0</ele><time>2026-03-28T10:49:07.044Z</time></trkpt><trkpt lat="43.3407783" lon="11.1223867"><ele>255.0</ele><time>2026-03-28T10:49:08.045Z</time></trkpt><trkpt lat="43.3407033" lon="11.12248"><ele>255.0</ele><time>2026-03-28T10:49:09.045Z</time></trkpt><trkpt lat="43.3405983" lon="11.122555"><ele>256.25</ele><time>2026-03-28T10:49:10.045Z</time></trkpt><trkpt lat="43.340485" lon="11.1226217"><ele>257.5</ele><time>2026-03-28T10:49:11.045Z</time></trkpt><trkpt lat="43.3403767" lon="11.1226883"><ele>258.75</ele><time>2026-03-28T10:49:12.045Z</time></trkpt><trkpt lat="43.340275" lon="11.1227667"><ele>260.0</ele><time>2026-03-28T10:49:13.045Z</time></trkpt><trkpt lat="43.3401667" lon="11.1228433"><ele>260.0</ele><time>2026-03-28T10:49:14.045Z</time></trkpt><trkpt lat="43.3400383" lon="11.1228833"><ele>260.0</ele><time>2026-03-28T10:49:15.045Z</time></trkpt><trkpt lat="43.3399067" lon="11.122915"><ele>260.0</ele><time>2026-03-28T10:49:16.045Z</time></trkpt><trkpt lat="43.3398017" lon="11.1229517"><ele>260.0</ele><time>2026-03-28T10:49:17.045Z</time></trkpt><trkpt lat="43.339705" lon="11.1229933"><ele>260.0</ele><time>2026-03-28T10:49:18.045Z</time></trkpt><trkpt lat="43.3396083" lon="11.1230683"><ele>260.0</ele><time>2026-03-28T10:49:19.045Z</time></trkpt><trkpt lat="43.33951" lon="11.1231717"><ele>260.0</ele><time>2026-03-28T10:49:20.045Z</time></trkpt><trkpt lat="43.3394117" lon="11.1232967"><ele>260.0</ele><time>2026-03-28T10:49:21.045Z</time></trkpt><trkpt lat="43.339305" lon="11.1234317"><ele>260.0</ele><time>2026-03-28T10:49:22.044Z</time></trkpt><trkpt lat="43.3392017" lon="11.1235833"><ele>260.0</ele><time>2026-03-28T10:49:23.045Z</time></trkpt><trkpt lat="43.3391017" lon="11.1237367"><ele>260.0</ele><time>2026-03-28T10:49:24.045Z</time></trkpt><trkpt lat="43.3390233" lon="11.1238933"><ele>260.0</ele><time>2026-03-28T10:49:25.045Z</time></trkpt><trkpt lat="43.3389333" lon="11.1240483"><ele>260.4</ele><time>2026-03-28T10:49:26.045Z</time></trkpt><trkpt lat="43.3388517" lon="11.1241917"><ele>260.8</ele><time>2026-03-28T10:49:27.045Z</time></trkpt><trkpt lat="43.3387833" lon="11.1243217"><ele>261.2</ele><time>2026-03-28T10:49:28.045Z</time></trkpt><trkpt lat="43.3387133" lon="11.1244217"><ele>261.6</ele><time>2026-03-28T10:49:29.044Z</time></trkpt><trkpt lat="43.3386717" lon="11.1245183"><ele>262.0</ele><time>2026-03-28T10:49:30.045Z</time></trkpt><trkpt lat="43.3386417" lon="11.1246333"><ele>262.0</ele><time>2026-03-28T10:49:31.045Z</time></trkpt><trkpt lat="43.3386167" lon="11.124765"><ele>262.0</ele><time>2026-03-28T10:49:32.045Z</time></trkpt><trkpt lat="43.33858" lon="11.12491"><ele>262.0</ele><time>2026-03-28T10:49:33.045Z</time></trkpt><trkpt lat="43.3385383" lon="11.125065"><ele>262.0</ele><time>2026-03-28T10:49:34.045Z</time></trkpt><trkpt lat="43.3384967" lon="11.12523"><ele>263.6</ele><time>2026-03-28T10:49:35.045Z</time></trkpt><trkpt lat="43.3384567" lon="11.125385"><ele>265.2</ele><time>2026-03-28T10:49:36.045Z</time></trkpt><trkpt lat="43.3384133" lon="11.1255033"><ele>266.8</ele><time>2026-03-28T10:49:37.045Z</time></trkpt><trkpt lat="43.33834" lon="11.1256117"><ele>268.4</ele><time>2026-03-28T10:49:38.045Z</time></trkpt><trkpt lat="43.3382567" lon="11.12569"><ele>270.0</ele><time>2026-03-28T10:49:39.044Z</time></trkpt><trkpt lat="43.3381633" lon="11.1257433"><ele>269.75</ele><time>2026-03-28T10:49:40.045Z</time></trkpt><trkpt lat="43.3380367" lon="11.1257933"><ele>269.5</ele><time>2026-03-28T10:49:41.044Z</time></trkpt><trkpt lat="43.3379017" lon="11.1258333"><ele>269.25</ele><time>2026-03-28T10:49:42.045Z</time></trkpt><trkpt lat="43.3377733" lon="11.1258817"><ele>269.0</ele><time>2026-03-28T10:49:43.045Z</time></trkpt><trkpt lat="43.33765" lon="11.1259367"><ele>269.0</ele><time>2026-03-28T10:49:44.044Z</time></trkpt><trkpt lat="43.3375317" lon="11.1260017"><ele>269.0</ele><time>2026-03-28T10:49:45.045Z</time></trkpt><trkpt lat="43.3374267" lon="11.12606"><ele>269.0</ele><time>2026-03-28T10:49:46.044Z</time></trkpt><trkpt lat="43.3373183" lon="11.1261"><ele>269.0</ele><time>2026-03-28T10:49:47.044Z</time></trkpt><trkpt lat="43.3372217" lon="11.1261283"><ele>268.5</ele><time>2026-03-28T10:49:48.044Z</time></trkpt><trkpt lat="43.3371367" lon="11.126145"><ele>268.0</ele><time>2026-03-28T10:49:49.045Z</time></trkpt><trkpt lat="43.3370467" lon="11.1261483"><ele>267.5</ele><time>2026-03-28T10:49:50.045Z</time></trkpt><trkpt lat="43.3369633" lon="11.12616"><ele>267.0</ele><time>2026-03-28T10:49:51.045Z</time></trkpt><trkpt lat="43.3368933" lon="11.1261783"><ele>266.5</ele><time>2026-03-28T10:49:52.045Z</time></trkpt><trkpt lat="43.3367967" lon="11.1262217"><ele>266.0</ele><time>2026-03-28T10:49:54.044Z</time></trkpt><trkpt lat="43.3367517" lon="11.1263217"><ele>266.0</ele><time>2026-03-28T10:49:56.044Z</time></trkpt><trkpt lat="43.3366817" lon="11.1264833"><ele>266.0</ele><time>2026-03-28T10:49:58.045Z</time></trkpt><trkpt lat="43.3366283" lon="11.1265917"><ele>266.0</ele><time>2026-03-28T10:49:59.045Z</time></trkpt><trkpt lat="43.3365733" lon="11.12671"><ele>266.0</ele><time>2026-03-28T10:50:00.045Z</time></trkpt><trkpt lat="43.336515" lon="11.126835"><ele>266.0</ele><time>2026-03-28T10:50:01.044Z</time></trkpt><trkpt lat="43.336465" lon="11.126975"><ele>265.25</ele><time>2026-03-28T10:50:02.045Z</time></trkpt><trkpt lat="43.3364017" lon="11.1271267"><ele>264.5</ele><time>2026-03-28T10:50:03.045Z</time></trkpt><trkpt lat="43.33634" lon="11.1272833"><ele>263.75</ele><time>2026-03-28T10:50:04.044Z</time></trkpt><trkpt lat="43.33629" lon="11.12743"><ele>263.0</ele><time>2026-03-28T10:50:05.045Z</time></trkpt><trkpt lat="43.3362017" lon="11.1275733"><ele>265.75</ele><time>2026-03-28T10:50:06.045Z</time></trkpt><trkpt lat="43.3361117" lon="11.127715"><ele>268.5</ele><time>2026-03-28T10:50:07.045Z</time></trkpt><trkpt lat="43.3360433" lon="11.127855"><ele>271.25</ele><time>2026-03-28T10:50:08.045Z</time></trkpt><trkpt lat="43.3359733" lon="11.1279767"><ele>274.0</ele><time>2026-03-28T10:50:09.045Z</time></trkpt><trkpt lat="43.33591" lon="11.1280933"><ele>274.0</ele><time>2026-03-28T10:50:10.045Z</time></trkpt><trkpt lat="43.3358283" lon="11.1281983"><ele>274.0</ele><time>2026-03-28T10:50:11.045Z</time></trkpt><trkpt lat="43.335715" lon="11.1283083"><ele>274.0</ele><time>2026-03-28T10:50:12.045Z</time></trkpt><trkpt lat="43.3356083" lon="11.1284467"><ele>274.0</ele><time>2026-03-28T10:50:13.045Z</time></trkpt><trkpt lat="43.33552" lon="11.128605"><ele>273.0</ele><time>2026-03-28T10:50:14.045Z</time></trkpt><trkpt lat="43.33542" lon="11.1287683"><ele>272.0</ele><time>2026-03-28T10:50:15.045Z</time></trkpt><trkpt lat="43.3353333" lon="11.1289283"><ele>271.0</ele><time>2026-03-28T10:50:16.045Z</time></trkpt><trkpt lat="43.3352233" lon="11.1290983"><ele>273.75</ele><time>2026-03-28T10:50:17.045Z</time></trkpt><trkpt lat="43.3351133" lon="11.12926"><ele>276.5</ele><time>2026-03-28T10:50:18.045Z</time></trkpt><trkpt lat="43.3350183" lon="11.1294133"><ele>279.25</ele><time>2026-03-28T10:50:19.045Z</time></trkpt><trkpt lat="43.3349333" lon="11.1295483"><ele>282.0</ele><time>2026-03-28T10:50:20.045Z</time></trkpt><trkpt lat="43.3348567" lon="11.129675"><ele>282.0</ele><time>2026-03-28T10:50:21.045Z</time></trkpt><trkpt lat="43.3347717" lon="11.1297733"><ele>282.0</ele><time>2026-03-28T10:50:22.044Z</time></trkpt><trkpt lat="43.3346733" lon="11.1298683"><ele>282.0</ele><time>2026-03-28T10:50:23.045Z</time></trkpt><trkpt lat="43.3345717" lon="11.1299317"><ele>282.0</ele><time>2026-03-28T10:50:24.045Z</time></trkpt><trkpt lat="43.3344483" lon="11.1300017"><ele>282.0</ele><time>2026-03-28T10:50:25.045Z</time></trkpt><trkpt lat="43.3343233" lon="11.1300567"><ele>282.0</ele><time>2026-03-28T10:50:26.045Z</time></trkpt><trkpt lat="43.3341983" lon="11.13011"><ele>282.0</ele><time>2026-03-28T10:50:27.045Z</time></trkpt><trkpt lat="43.3340683" lon="11.13016"><ele>282.0</ele><time>2026-03-28T10:50:28.045Z</time></trkpt><trkpt lat="43.3339417" lon="11.130215"><ele>282.5</ele><time>2026-03-28T10:50:29.045Z</time></trkpt><trkpt lat="43.333825" lon="11.1302683"><ele>283.0</ele><time>2026-03-28T10:50:30.045Z</time></trkpt><trkpt lat="43.3337033" lon="11.1302967"><ele>283.5</ele><time>2026-03-28T10:50:31.045Z</time></trkpt><trkpt lat="43.3335967" lon="11.1302967"><ele>284.0</ele><time>2026-03-28T10:50:32.045Z</time></trkpt><trkpt lat="43.3334967" lon="11.130295"><ele>284.0</ele><time>2026-03-28T10:50:33.045Z</time></trkpt><trkpt lat="43.333405" lon="11.1303133"><ele>284.0</ele><time>2026-03-28T10:50:34.045Z</time></trkpt><trkpt lat="43.3333217" lon="11.1303517"><ele>284.0</ele><time>2026-03-28T10:50:35.045Z</time></trkpt><trkpt lat="43.3332433" lon="11.13041"><ele>284.0</ele><time>2026-03-28T10:50:36.045Z</time></trkpt><trkpt lat="43.3331533" lon="11.1304933"><ele>284.0</ele><time>2026-03-28T10:50:37.045Z</time></trkpt><trkpt lat="43.3330667" lon="11.1305817"><ele>284.1666666666667</ele><time>2026-03-28T10:50:38.045Z</time></trkpt><trkpt lat="43.3329883" lon="11.13065"><ele>284.33333333333337</ele><time>2026-03-28T10:50:39.045Z</time></trkpt><trkpt lat="43.3329233" lon="11.1307183"><ele>284.5</ele><time>2026-03-28T10:50:40.045Z</time></trkpt><trkpt lat="43.332875" lon="11.130805"><ele>284.6666666666667</ele><time>2026-03-28T10:50:41.045Z</time></trkpt><trkpt lat="43.33283" lon="11.1309217"><ele>284.8333333333333</ele><time>2026-03-28T10:50:42.044Z</time></trkpt><trkpt lat="43.332795" lon="11.1310333"><ele>285.0</ele><time>2026-03-28T10:50:43.045Z</time></trkpt><trkpt lat="43.3327717" lon="11.1311533"><ele>284.6</ele><time>2026-03-28T10:50:44.045Z</time></trkpt><trkpt lat="43.3327583" lon="11.131275"><ele>284.2</ele><time>2026-03-28T10:50:45.045Z</time></trkpt><trkpt lat="43.332765" lon="11.1314233"><ele>283.8</ele><time>2026-03-28T10:50:46.045Z</time></trkpt><trkpt lat="43.3327817" lon="11.131585"><ele>283.4</ele><time>2026-03-28T10:50:47.045Z</time></trkpt><trkpt lat="43.33279" lon="11.1317267"><ele>283.0</ele><time>2026-03-28T10:50:48.045Z</time></trkpt><trkpt lat="43.3327883" lon="11.1318567"><ele>284.0</ele><time>2026-03-28T10:50:49.044Z</time></trkpt><trkpt lat="43.3327783" lon="11.1319633"><ele>285.0</ele><time>2026-03-28T10:50:50.045Z</time></trkpt><trkpt lat="43.332725" lon="11.13209"><ele>286.0</ele><time>2026-03-28T10:50:52.045Z</time></trkpt><trkpt lat="43.3326133" lon="11.1320767"><ele>287.0</ele><time>2026-03-28T10:50:54.045Z</time></trkpt><trkpt lat="43.3325283" lon="11.1320283"><ele>288.0</ele><time>2026-03-28T10:50:55.045Z</time></trkpt><trkpt lat="43.3324283" lon="11.13196"><ele>288.0</ele><time>2026-03-28T10:50:56.045Z</time></trkpt><trkpt lat="43.3323117" lon="11.1318983"><ele>288.0</ele><time>2026-03-28T10:50:57.044Z</time></trkpt><trkpt lat="43.3322083" lon="11.1318517"><ele>288.0</ele><time>2026-03-28T10:50:58.045Z</time></trkpt><trkpt lat="43.332115" lon="11.1318333"><ele>288.0</ele><time>2026-03-28T10:50:59.044Z</time></trkpt><trkpt lat="43.3320317" lon="11.1318433"><ele>288.0</ele><time>2026-03-28T10:51:00.045Z</time></trkpt><trkpt lat="43.3319533" lon="11.1318833"><ele>286.75</ele><time>2026-03-28T10:51:01.045Z</time></trkpt><trkpt lat="43.33187" lon="11.1319517"><ele>285.5</ele><time>2026-03-28T10:51:02.045Z</time></trkpt><trkpt lat="43.3317617" lon="11.13204"><ele>284.25</ele><time>2026-03-28T10:51:03.045Z</time></trkpt><trkpt lat="43.3316433" lon="11.1321117"><ele>283.0</ele><time>2026-03-28T10:51:04.045Z</time></trkpt><trkpt lat="43.3315067" lon="11.1321617"><ele>282.5</ele><time>2026-03-28T10:51:05.045Z</time></trkpt><trkpt lat="43.3313767" lon="11.1322017"><ele>282.0</ele><time>2026-03-28T10:51:06.044Z</time></trkpt><trkpt lat="43.3312417" lon="11.1322367"><ele>281.5</ele><time>2026-03-28T10:51:07.045Z</time></trkpt><trkpt lat="43.331105" lon="11.1322667"><ele>281.0</ele><time>2026-03-28T10:51:08.045Z</time></trkpt><trkpt lat="43.3309633" lon="11.13229"><ele>281.0</ele><time>2026-03-28T10:51:09.045Z</time></trkpt><trkpt lat="43.33083" lon="11.1323067"><ele>281.0</ele><time>2026-03-28T10:51:10.045Z</time></trkpt><trkpt lat="43.3306983" lon="11.1323267"><ele>281.0</ele><time>2026-03-28T10:51:11.045Z</time></trkpt><trkpt lat="43.3305733" lon="11.132365"><ele>281.0</ele><time>2026-03-28T10:51:12.045Z</time></trkpt><trkpt lat="43.3304433" lon="11.1324167"><ele>283.0</ele><time>2026-03-28T10:51:13.044Z</time></trkpt><trkpt lat="43.33032" lon="11.1324717"><ele>285.0</ele><time>2026-03-28T10:51:14.045Z</time></trkpt><trkpt lat="43.3302017" lon="11.1325217"><ele>287.0</ele><time>2026-03-28T10:51:15.045Z</time></trkpt><trkpt lat="43.3300867" lon="11.13256"><ele>289.0</ele><time>2026-03-28T10:51:16.045Z</time></trkpt><trkpt lat="43.329985" lon="11.1326033"><ele>289.0</ele><time>2026-03-28T10:51:17.045Z</time></trkpt><trkpt lat="43.329885" lon="11.132635"><ele>289.0</ele><time>2026-03-28T10:51:18.044Z</time></trkpt><trkpt lat="43.3298017" lon="11.132665"><ele>289.0</ele><time>2026-03-28T10:51:19.044Z</time></trkpt><trkpt lat="43.32972" lon="11.132705"><ele>289.0</ele><time>2026-03-28T10:51:20.044Z</time></trkpt><trkpt lat="43.329645" lon="11.1327717"><ele>289.0</ele><time>2026-03-28T10:51:21.045Z</time></trkpt><trkpt lat="43.32957" lon="11.132865"><ele>287.4</ele><time>2026-03-28T10:51:22.045Z</time></trkpt><trkpt lat="43.3294967" lon="11.132975"><ele>285.79999999999995</ele><time>2026-03-28T10:51:23.044Z</time></trkpt><trkpt lat="43.32944" lon="11.1331"><ele>284.20000000000005</ele><time>2026-03-28T10:51:24.045Z</time></trkpt><trkpt lat="43.3293933" lon="11.133245"><ele>282.6</ele><time>2026-03-28T10:51:25.045Z</time></trkpt><trkpt lat="43.3293533" lon="11.1333867"><ele>281.0</ele><time>2026-03-28T10:51:26.045Z</time></trkpt><trkpt lat="43.329325" lon="11.1335283"><ele>281.0</ele><time>2026-03-28T10:51:27.045Z</time></trkpt><trkpt lat="43.3293017" lon="11.13369"><ele>281.0</ele><time>2026-03-28T10:51:28.045Z</time></trkpt><trkpt lat="43.32929" lon="11.133845"><ele>281.0</ele><time>2026-03-28T10:51:29.045Z</time></trkpt><trkpt lat="43.3292817" lon="11.1340133"><ele>281.0</ele><time>2026-03-28T10:51:30.045Z</time></trkpt><trkpt lat="43.3292583" lon="11.1341917"><ele>281.0</ele><time>2026-03-28T10:51:31.045Z</time></trkpt><trkpt lat="43.32925" lon="11.1343483"><ele>281.0</ele><time>2026-03-28T10:51:32.045Z</time></trkpt><trkpt lat="43.3292317" lon="11.1344983"><ele>281.0</ele><time>2026-03-28T10:51:33.045Z</time></trkpt><trkpt lat="43.329205" lon="11.134625"><ele>281.0</ele><time>2026-03-28T10:51:34.045Z</time></trkpt><trkpt lat="43.3291733" lon="11.1347417"><ele>281.0</ele><time>2026-03-28T10:51:35.045Z</time></trkpt><trkpt lat="43.3291383" lon="11.1348483"><ele>281.0</ele><time>2026-03-28T10:51:36.044Z</time></trkpt><trkpt lat="43.3290917" lon="11.13495"><ele>281.0</ele><time>2026-03-28T10:51:37.045Z</time></trkpt><trkpt lat="43.329015" lon="11.1350467"><ele>281.0</ele><time>2026-03-28T10:51:38.045Z</time></trkpt><trkpt lat="43.3289133" lon="11.13514"><ele>281.0</ele><time>2026-03-28T10:51:39.044Z</time></trkpt><trkpt lat="43.328795" lon="11.1352333"><ele>279.33333333333337</ele><time>2026-03-28T10:51:40.045Z</time></trkpt><trkpt lat="43.3286667" lon="11.1353317"><ele>277.6666666666667</ele><time>2026-03-28T10:51:41.045Z</time></trkpt><trkpt lat="43.32853" lon="11.135455"><ele>276.0</ele><time>2026-03-28T10:51:42.045Z</time></trkpt><trkpt lat="43.3283917" lon="11.13558"><ele>276.0</ele><time>2026-03-28T10:51:43.045Z</time></trkpt><trkpt lat="43.3282583" lon="11.13571"><ele>276.0</ele><time>2026-03-28T10:51:44.045Z</time></trkpt><trkpt lat="43.32813" lon="11.1358317"><ele>276.0</ele><time>2026-03-28T10:51:45.045Z</time></trkpt><trkpt lat="43.3280133" lon="11.1359383"><ele>278.5</ele><time>2026-03-28T10:51:46.045Z</time></trkpt><trkpt lat="43.3279067" lon="11.1360383"><ele>281.0</ele><time>2026-03-28T10:51:47.045Z</time></trkpt><trkpt lat="43.3278133" lon="11.1361333"><ele>283.5</ele><time>2026-03-28T10:51:48.045Z</time></trkpt><trkpt lat="43.3277117" lon="11.1361983"><ele>286.0</ele><time>2026-03-28T10:51:49.044Z</time></trkpt><trkpt lat="43.32762" lon="11.13622"><ele>286.0</ele><time>2026-03-28T10:51:50.045Z</time></trkpt><trkpt lat="43.327535" lon="11.13622"><ele>286.0</ele><time>2026-03-28T10:51:51.044Z</time></trkpt><trkpt lat="43.3274483" lon="11.1361967"><ele>286.0</ele><time>2026-03-28T10:51:52.045Z</time></trkpt><trkpt lat="43.3273483" lon="11.1361283"><ele>286.0</ele><time>2026-03-28T10:51:53.045Z</time></trkpt><trkpt lat="43.3272317" lon="11.13604"><ele>286.0</ele><time>2026-03-28T10:51:54.045Z</time></trkpt><trkpt lat="43.3271117" lon="11.1359517"><ele>289.0</ele><time>2026-03-28T10:51:55.045Z</time></trkpt><trkpt lat="43.3269733" lon="11.1358483"><ele>292.0</ele><time>2026-03-28T10:51:56.045Z</time></trkpt><trkpt lat="43.32683" lon="11.1357567"><ele>295.0</ele><time>2026-03-28T10:51:57.045Z</time></trkpt><trkpt lat="43.32667" lon="11.135665"><ele>295.0</ele><time>2026-03-28T10:51:58.045Z</time></trkpt><trkpt lat="43.32651" lon="11.1355667"><ele>295.0</ele><time>2026-03-28T10:51:59.044Z</time></trkpt><trkpt lat="43.3263517" lon="11.1354817"><ele>295.0</ele><time>2026-03-28T10:52:00.045Z</time></trkpt><trkpt lat="43.3262067" lon="11.1353883"><ele>295.25</ele><time>2026-03-28T10:52:01.045Z</time></trkpt><trkpt lat="43.3260667" lon="11.1353033"><ele>295.5</ele><time>2026-03-28T10:52:02.045Z</time></trkpt><trkpt lat="43.3259417" lon="11.1352233"><ele>295.75</ele><time>2026-03-28T10:52:03.045Z</time></trkpt><trkpt lat="43.3258067" lon="11.1351217"><ele>296.0</ele><time>2026-03-28T10:52:04.045Z</time></trkpt><trkpt lat="43.32567" lon="11.1350067"><ele>295.0</ele><time>2026-03-28T10:52:05.045Z</time></trkpt><trkpt lat="43.3255083" lon="11.1348983"><ele>294.0</ele><time>2026-03-28T10:52:06.045Z</time></trkpt><trkpt lat="43.325355" lon="11.1348083"><ele>293.0</ele><time>2026-03-28T10:52:07.045Z</time></trkpt><trkpt lat="43.325225" lon="11.1347233"><ele>292.6</ele><time>2026-03-28T10:52:08.045Z</time></trkpt><trkpt lat="43.3251183" lon="11.1346583"><ele>292.20000000000005</ele><time>2026-03-28T10:52:09.045Z</time></trkpt><trkpt lat="43.3250333" lon="11.134575"><ele>291.8</ele><time>2026-03-28T10:52:10.045Z</time></trkpt><trkpt lat="43.324975" lon="11.134465"><ele>291.40000000000003</ele><time>2026-03-28T10:52:11.045Z</time></trkpt><trkpt lat="43.32495" lon="11.1343217"><ele>291.0</ele><time>2026-03-28T10:52:12.045Z</time></trkpt><trkpt lat="43.324955" lon="11.1341517"><ele>291.0</ele><time>2026-03-28T10:52:13.045Z</time></trkpt><trkpt lat="43.325005" lon="11.1339483"><ele>291.0</ele><time>2026-03-28T10:52:14.045Z</time></trkpt><trkpt lat="43.3250517" lon="11.133735"><ele>291.0</ele><time>2026-03-28T10:52:15.045Z</time></trkpt><trkpt lat="43.3250767" lon="11.1335083"><ele>291.0</ele><time>2026-03-28T10:52:16.045Z</time></trkpt><trkpt lat="43.3250833" lon="11.1332817"><ele>291.0</ele><time>2026-03-28T10:52:17.045Z</time></trkpt><trkpt lat="43.3250883" lon="11.1330733"><ele>291.0</ele><time>2026-03-28T10:52:18.045Z</time></trkpt><trkpt lat="43.3250583" lon="11.13288"><ele>291.25</ele><time>2026-03-28T10:52:19.044Z</time></trkpt><trkpt lat="43.3249983" lon="11.1327383"><ele>291.5</ele><time>2026-03-28T10:52:20.045Z</time></trkpt><trkpt lat="43.3249183" lon="11.1326267"><ele>291.75</ele><time>2026-03-28T10:52:21.044Z</time></trkpt><trkpt lat="43.3248017" lon="11.1325517"><ele>292.0</ele><time>2026-03-28T10:52:22.045Z</time></trkpt><trkpt lat="43.3246683" lon="11.1325017"><ele>293.66666666666663</ele><time>2026-03-28T10:52:23.045Z</time></trkpt><trkpt lat="43.3245217" lon="11.1324517"><ele>295.3333333333333</ele><time>2026-03-28T10:52:24.045Z</time></trkpt><trkpt lat="43.324375" lon="11.1323883"><ele>297.0</ele><time>2026-03-28T10:52:25.045Z</time></trkpt><trkpt lat="43.3242167" lon="11.132325"><ele>297.0</ele><time>2026-03-28T10:52:26.044Z</time></trkpt><trkpt lat="43.3240683" lon="11.1322583"><ele>297.0</ele><time>2026-03-28T10:52:27.045Z</time></trkpt><trkpt lat="43.323925" lon="11.132205"><ele>297.0</ele><time>2026-03-28T10:52:28.044Z</time></trkpt><trkpt lat="43.3238017" lon="11.132145"><ele>297.0</ele><time>2026-03-28T10:52:29.044Z</time></trkpt><trkpt lat="43.3236867" lon="11.1321233"><ele>296.5</ele><time>2026-03-28T10:52:30.045Z</time></trkpt><trkpt lat="43.3235667" lon="11.1321283"><ele>296.0</ele><time>2026-03-28T10:52:31.045Z</time></trkpt><trkpt lat="43.3234283" lon="11.1321583"><ele>295.5</ele><time>2026-03-28T10:52:32.045Z</time></trkpt><trkpt lat="43.323285" lon="11.132195"><ele>295.0</ele><time>2026-03-28T10:52:33.045Z</time></trkpt><trkpt lat="43.3231267" lon="11.1322267"><ele>293.66666666666663</ele><time>2026-03-28T10:52:34.045Z</time></trkpt><trkpt lat="43.322955" lon="11.13227"><ele>292.3333333333333</ele><time>2026-03-28T10:52:35.045Z</time></trkpt><trkpt lat="43.3227917" lon="11.1323167"><ele>291.0</ele><time>2026-03-28T10:52:36.045Z</time></trkpt><trkpt lat="43.3226233" lon="11.13236"><ele>291.6666666666667</ele><time>2026-03-28T10:52:37.045Z</time></trkpt><trkpt lat="43.3224367" lon="11.1324033"><ele>292.33333333333337</ele><time>2026-03-28T10:52:38.045Z</time></trkpt><trkpt lat="43.3222717" lon="11.1324183"><ele>293.0</ele><time>2026-03-28T10:52:39.045Z</time></trkpt><trkpt lat="43.32212" lon="11.1324167"><ele>293.0</ele><time>2026-03-28T10:52:40.045Z</time></trkpt><trkpt lat="43.321965" lon="11.1324033"><ele>293.0</ele><time>2026-03-28T10:52:41.045Z</time></trkpt><trkpt lat="43.3218333" lon="11.1323667"><ele>293.0</ele><time>2026-03-28T10:52:42.045Z</time></trkpt><trkpt lat="43.32172" lon="11.1323183"><ele>293.0</ele><time>2026-03-28T10:52:43.045Z</time></trkpt><trkpt lat="43.321605" lon="11.132295"><ele>292.25</ele><time>2026-03-28T10:52:44.045Z</time></trkpt><trkpt lat="43.3214883" lon="11.1323"><ele>291.5</ele><time>2026-03-28T10:52:45.045Z</time></trkpt><trkpt lat="43.32136" lon="11.1323367"><ele>290.75</ele><time>2026-03-28T10:52:46.045Z</time></trkpt><trkpt lat="43.3212217" lon="11.132405"><ele>290.0</ele><time>2026-03-28T10:52:47.044Z</time></trkpt><trkpt lat="43.32107" lon="11.132485"><ele>290.0</ele><time>2026-03-28T10:52:48.045Z</time></trkpt><trkpt lat="43.3209117" lon="11.1325517"><ele>290.0</ele><time>2026-03-28T10:52:49.045Z</time></trkpt><trkpt lat="43.3207567" lon="11.1325783"><ele>290.0</ele><time>2026-03-28T10:52:50.044Z</time></trkpt><trkpt lat="43.3206133" lon="11.1325817"><ele>291.0</ele><time>2026-03-28T10:52:51.045Z</time></trkpt><trkpt lat="43.3204733" lon="11.13255"><ele>292.0</ele><time>2026-03-28T10:52:52.044Z</time></trkpt><trkpt lat="43.32033" lon="11.1325083"><ele>293.0</ele><time>2026-03-28T10:52:53.045Z</time></trkpt><trkpt lat="43.3201983" lon="11.1324667"><ele>294.0</ele><time>2026-03-28T10:52:54.044Z</time></trkpt><trkpt lat="43.3200783" lon="11.132455"><ele>294.0</ele><time>2026-03-28T10:52:55.045Z</time></trkpt><trkpt lat="43.3199383" lon="11.13248"><ele>294.0</ele><time>2026-03-28T10:52:56.045Z</time></trkpt><trkpt lat="43.31978" lon="11.1325167"><ele>294.0</ele><time>2026-03-28T10:52:57.045Z</time></trkpt><trkpt lat="43.3196233" lon="11.1325533"><ele>292.0</ele><time>2026-03-28T10:52:58.045Z</time></trkpt><trkpt lat="43.3194533" lon="11.1325983"><ele>290.0</ele><time>2026-03-28T10:52:59.045Z</time></trkpt><trkpt lat="43.3192783" lon="11.1326533"><ele>288.0</ele><time>2026-03-28T10:53:00.045Z</time></trkpt><trkpt lat="43.319095" lon="11.1327183"><ele>288.0</ele><time>2026-03-28T10:53:01.045Z</time></trkpt><trkpt lat="43.3189183" lon="11.1327967"><ele>288.0</ele><time>2026-03-28T10:53:02.044Z</time></trkpt><trkpt lat="43.3187617" lon="11.1328733"><ele>288.0</ele><time>2026-03-28T10:53:03.045Z</time></trkpt><trkpt lat="43.3185983" lon="11.1329617"><ele>286.0</ele><time>2026-03-28T10:53:04.045Z</time></trkpt><trkpt lat="43.31843" lon="11.1330317"><ele>284.0</ele><time>2026-03-28T10:53:05.045Z</time></trkpt><trkpt lat="43.318275" lon="11.13307"><ele>282.0</ele><time>2026-03-28T10:53:06.044Z</time></trkpt><trkpt lat="43.3181267" lon="11.133065"><ele>282.25</ele><time>2026-03-28T10:53:07.045Z</time></trkpt><trkpt lat="43.3179883" lon="11.1330017"><ele>282.5</ele><time>2026-03-28T10:53:08.045Z</time></trkpt><trkpt lat="43.3178533" lon="11.1329033"><ele>282.75</ele><time>2026-03-28T10:53:09.045Z</time></trkpt><trkpt lat="43.3177333" lon="11.13279"><ele>283.0</ele><time>2026-03-28T10:53:10.045Z</time></trkpt><trkpt lat="43.3176233" lon="11.1326917"><ele>283.0</ele><time>2026-03-28T10:53:11.045Z</time></trkpt><trkpt lat="43.3174983" lon="11.1326433"><ele>283.0</ele><time>2026-03-28T10:53:12.044Z</time></trkpt><trkpt lat="43.317365" lon="11.1326133"><ele>283.0</ele><time>2026-03-28T10:53:13.044Z</time></trkpt><trkpt lat="43.31722" lon="11.13261"><ele>283.0</ele><time>2026-03-28T10:53:14.045Z</time></trkpt><trkpt lat="43.317075" lon="11.132595"><ele>282.0</ele><time>2026-03-28T10:53:15.045Z</time></trkpt><trkpt lat="43.3169317" lon="11.1325517"><ele>281.0</ele><time>2026-03-28T10:53:16.045Z</time></trkpt><trkpt lat="43.3167633" lon="11.1325133"><ele>280.0</ele><time>2026-03-28T10:53:17.044Z</time></trkpt><trkpt lat="43.3165983" lon="11.1324783"><ele>280.0</ele><time>2026-03-28T10:53:18.045Z</time></trkpt><trkpt lat="43.31644" lon="11.1324483"><ele>280.0</ele><time>2026-03-28T10:53:19.045Z</time></trkpt><trkpt lat="43.3162817" lon="11.13241"><ele>280.0</ele><time>2026-03-28T10:53:20.045Z</time></trkpt><trkpt lat="43.3161233" lon="11.132375"><ele>276.66666666666663</ele><time>2026-03-28T10:53:21.045Z</time></trkpt><trkpt lat="43.3159667" lon="11.1323233"><ele>273.3333333333333</ele><time>2026-03-28T10:53:22.045Z</time></trkpt><trkpt lat="43.3158067" lon="11.132265"><ele>270.0</ele><time>2026-03-28T10:53:23.045Z</time></trkpt><trkpt lat="43.315645" lon="11.13221"><ele>271.6666666666667</ele><time>2026-03-28T10:53:24.045Z</time></trkpt><trkpt lat="43.3154867" lon="11.13215"><ele>273.33333333333337</ele><time>2026-03-28T10:53:25.045Z</time></trkpt><trkpt lat="43.3153283" lon="11.13209"><ele>275.0</ele><time>2026-03-28T10:53:26.045Z</time></trkpt><trkpt lat="43.3151717" lon="11.13202"><ele>275.0</ele><time>2026-03-28T10:53:27.045Z</time></trkpt><trkpt lat="43.315025" lon="11.13193"><ele>275.0</ele><time>2026-03-28T10:53:28.044Z</time></trkpt><trkpt lat="43.3149033" lon="11.1318017"><ele>275.0</ele><time>2026-03-28T10:53:29.045Z</time></trkpt><trkpt lat="43.3147717" lon="11.131675"><ele>275.5</ele><time>2026-03-28T10:53:30.045Z</time></trkpt><trkpt lat="43.3146533" lon="11.1315583"><ele>276.0</ele><time>2026-03-28T10:53:31.045Z</time></trkpt><trkpt lat="43.3145367" lon="11.1314633"><ele>276.5</ele><time>2026-03-28T10:53:32.045Z</time></trkpt><trkpt lat="43.3144117" lon="11.1313917"><ele>277.0</ele><time>2026-03-28T10:53:33.044Z</time></trkpt><trkpt lat="43.31428" lon="11.1313533"><ele>277.0</ele><time>2026-03-28T10:53:34.045Z</time></trkpt><trkpt lat="43.3141417" lon="11.1313333"><ele>277.0</ele><time>2026-03-28T10:53:35.044Z</time></trkpt><trkpt lat="43.3139967" lon="11.1313333"><ele>277.0</ele><time>2026-03-28T10:53:36.045Z</time></trkpt><trkpt lat="43.31385" lon="11.1313267"><ele>277.0</ele><time>2026-03-28T10:53:37.045Z</time></trkpt><trkpt lat="43.3136983" lon="11.1313217"><ele>276.25</ele><time>2026-03-28T10:53:38.044Z</time></trkpt><trkpt lat="43.313555" lon="11.1313133"><ele>275.5</ele><time>2026-03-28T10:53:39.044Z</time></trkpt><trkpt lat="43.31343" lon="11.131295"><ele>274.75</ele><time>2026-03-28T10:53:40.045Z</time></trkpt><trkpt lat="43.3133017" lon="11.1312933"><ele>274.0</ele><time>2026-03-28T10:53:41.045Z</time></trkpt><trkpt lat="43.3131767" lon="11.1313033"><ele>273.5</ele><time>2026-03-28T10:53:42.045Z</time></trkpt><trkpt lat="43.3130583" lon="11.131335"><ele>273.0</ele><time>2026-03-28T10:53:43.045Z</time></trkpt><trkpt lat="43.3129283" lon="11.1313917"><ele>272.5</ele><time>2026-03-28T10:53:44.045Z</time></trkpt><trkpt lat="43.3127883" lon="11.1314683"><ele>272.0</ele><time>2026-03-28T10:53:45.045Z</time></trkpt><trkpt lat="43.31264" lon="11.1315317"><ele>273.0</ele><time>2026-03-28T10:53:46.045Z</time></trkpt><trkpt lat="43.31249" lon="11.131595"><ele>274.0</ele><time>2026-03-28T10:53:47.044Z</time></trkpt><trkpt lat="43.3123433" lon="11.1316617"><ele>275.0</ele><time>2026-03-28T10:53:48.045Z</time></trkpt><trkpt lat="43.3121883" lon="11.1317567"><ele>275.0</ele><time>2026-03-28T10:53:49.045Z</time></trkpt><trkpt lat="43.3120333" lon="11.1318367"><ele>275.0</ele><time>2026-03-28T10:53:50.044Z</time></trkpt><trkpt lat="43.3118933" lon="11.1319117"><ele>275.0</ele><time>2026-03-28T10:53:51.045Z</time></trkpt><trkpt lat="43.3117533" lon="11.13198"><ele>275.0</ele><time>2026-03-28T10:53:52.045Z</time></trkpt><trkpt lat="43.3116217" lon="11.1320383"><ele>275.0</ele><time>2026-03-28T10:53:53.045Z</time></trkpt><trkpt lat="43.31148" lon="11.1320767"><ele>275.0</ele><time>2026-03-28T10:53:54.045Z</time></trkpt><trkpt lat="43.3113367" lon="11.1320967"><ele>275.0</ele><time>2026-03-28T10:53:55.045Z</time></trkpt><trkpt lat="43.31121" lon="11.132095"><ele>274.6</ele><time>2026-03-28T10:53:56.045Z</time></trkpt><trkpt lat="43.3111333" lon="11.1320717"><ele>274.2</ele><time>2026-03-28T10:53:57.045Z</time></trkpt><trkpt lat="43.3110733" lon="11.1320283"><ele>273.8</ele><time>2026-03-28T10:53:58.045Z</time></trkpt><trkpt lat="43.311" lon="11.1319767"><ele>273.4</ele><time>2026-03-28T10:53:59.044Z</time></trkpt><trkpt lat="43.3109167" lon="11.1318967"><ele>273.0</ele><time>2026-03-28T10:54:00.045Z</time></trkpt><trkpt lat="43.3108083" lon="11.131815"><ele>273.0</ele><time>2026-03-28T10:54:01.044Z</time></trkpt><trkpt lat="43.3107067" lon="11.131715"><ele>273.0</ele><time>2026-03-28T10:54:02.045Z</time></trkpt><trkpt lat="43.3106083" lon="11.131615"><ele>273.0</ele><time>2026-03-28T10:54:03.045Z</time></trkpt><trkpt lat="43.3105133" lon="11.131515"><ele>273.0</ele><time>2026-03-28T10:54:04.045Z</time></trkpt><trkpt lat="43.310425" lon="11.1314433"><ele>272.4</ele><time>2026-03-28T10:54:05.045Z</time></trkpt><trkpt lat="43.31035" lon="11.1313617"><ele>271.8</ele><time>2026-03-28T10:54:06.045Z</time></trkpt><trkpt lat="43.3102917" lon="11.1312667"><ele>271.2</ele><time>2026-03-28T10:54:07.044Z</time></trkpt><trkpt lat="43.3102333" lon="11.1311483"><ele>270.6</ele><time>2026-03-28T10:54:08.045Z</time></trkpt><trkpt lat="43.310175" lon="11.1310333"><ele>270.0</ele><time>2026-03-28T10:54:09.045Z</time></trkpt><trkpt lat="43.3101167" lon="11.13092"><ele>270.0</ele><time>2026-03-28T10:54:10.045Z</time></trkpt><trkpt lat="43.310065" lon="11.1308117"><ele>270.0</ele><time>2026-03-28T10:54:11.045Z</time></trkpt><trkpt lat="43.31002" lon="11.1307283"><ele>270.0</ele><time>2026-03-28T10:54:12.044Z</time></trkpt><trkpt lat="43.3099833" lon="11.1305817"><ele>270.0</ele><time>2026-03-28T10:54:14.044Z</time></trkpt><trkpt lat="43.31001" lon="11.13048"><ele>270.0</ele><time>2026-03-28T10:54:15.045Z</time></trkpt><trkpt lat="43.3100517" lon="11.1303467"><ele>269.5</ele><time>2026-03-28T10:54:16.045Z</time></trkpt><trkpt lat="43.3101133" lon="11.13018"><ele>269.0</ele><time>2026-03-28T10:54:17.045Z</time></trkpt><trkpt lat="43.3101817" lon="11.129995"><ele>268.5</ele><time>2026-03-28T10:54:18.044Z</time></trkpt><trkpt lat="43.3102367" lon="11.129805"><ele>268.0</ele><time>2026-03-28T10:54:19.044Z</time></trkpt><trkpt lat="43.3102933" lon="11.1296117"><ele>267.3333333333333</ele><time>2026-03-28T10:54:20.044Z</time></trkpt><trkpt lat="43.3103467" lon="11.1294133"><ele>266.6666666666667</ele><time>2026-03-28T10:54:21.045Z</time></trkpt><trkpt lat="43.3103983" lon="11.1292283"><ele>266.0</ele><time>2026-03-28T10:54:22.045Z</time></trkpt><trkpt lat="43.310435" lon="11.1290183"><ele>264.6666666666667</ele><time>2026-03-28T10:54:23.045Z</time></trkpt><trkpt lat="43.3104683" lon="11.1287967"><ele>263.3333333333333</ele><time>2026-03-28T10:54:24.045Z</time></trkpt><trkpt lat="43.3104683" lon="11.1285467"><ele>262.0</ele><time>2026-03-28T10:54:25.045Z</time></trkpt><trkpt lat="43.310455" lon="11.12828"><ele>261.3333333333333</ele><time>2026-03-28T10:54:26.045Z</time></trkpt><trkpt lat="43.3104283" lon="11.1280133"><ele>260.6666666666667</ele><time>2026-03-28T10:54:27.045Z</time></trkpt><trkpt lat="43.31038" lon="11.1277583"><ele>260.0</ele><time>2026-03-28T10:54:28.045Z</time></trkpt><trkpt lat="43.3103033" lon="11.127505"><ele>259.0</ele><time>2026-03-28T10:54:29.045Z</time></trkpt><trkpt lat="43.310225" lon="11.1272217"><ele>258.0</ele><time>2026-03-28T10:54:30.045Z</time></trkpt><trkpt lat="43.31014" lon="11.1269267"><ele>258.0</ele><time>2026-03-28T10:54:31.044Z</time></trkpt><trkpt lat="43.31006" lon="11.126585"><ele>258.0</ele><time>2026-03-28T10:54:32.045Z</time></trkpt><trkpt lat="43.309975" lon="11.1262217"><ele>257.0</ele><time>2026-03-28T10:54:33.045Z</time></trkpt><trkpt lat="43.3098833" lon="11.125835"><ele>256.0</ele><time>2026-03-28T10:54:34.045Z</time></trkpt><trkpt lat="43.3097883" lon="11.1254367"><ele>252.0</ele><time>2026-03-28T10:54:35.045Z</time></trkpt><trkpt lat="43.3097" lon="11.12506"><ele>248.0</ele><time>2026-03-28T10:54:36.044Z</time></trkpt><trkpt lat="43.30962" lon="11.124715"><ele>248.0</ele><time>2026-03-28T10:54:37.045Z</time></trkpt><trkpt lat="43.3095383" lon="11.1244"><ele>248.0</ele><time>2026-03-28T10:54:38.045Z</time></trkpt><trkpt lat="43.3094633" lon="11.1240883"><ele>247.66666666666669</ele><time>2026-03-28T10:54:39.045Z</time></trkpt><trkpt lat="43.3093917" lon="11.12379"><ele>247.33333333333331</ele><time>2026-03-28T10:54:40.044Z</time></trkpt><trkpt lat="43.3093133" lon="11.1235067"><ele>247.0</ele><time>2026-03-28T10:54:41.045Z</time></trkpt><trkpt lat="43.3092217" lon="11.1232167"><ele>245.5</ele><time>2026-03-28T10:54:42.045Z</time></trkpt><trkpt lat="43.309125" lon="11.1229317"><ele>244.0</ele><time>2026-03-28T10:54:43.045Z</time></trkpt><trkpt lat="43.3090317" lon="11.1226467"><ele>243.0</ele><time>2026-03-28T10:54:44.044Z</time></trkpt><trkpt lat="43.3089117" lon="11.1223583"><ele>242.0</ele><time>2026-03-28T10:54:45.045Z</time></trkpt><trkpt lat="43.3087883" lon="11.1220783"><ele>241.5</ele><time>2026-03-28T10:54:46.045Z</time></trkpt><trkpt lat="43.3086633" lon="11.121765"><ele>241.0</ele><time>2026-03-28T10:54:47.045Z</time></trkpt><trkpt lat="43.3085133" lon="11.121445"><ele>239.0</ele><time>2026-03-28T10:54:48.045Z</time></trkpt><trkpt lat="43.3083733" lon="11.1210917"><ele>237.0</ele><time>2026-03-28T10:54:49.045Z</time></trkpt><trkpt lat="43.3082283" lon="11.1207383"><ele>236.5</ele><time>2026-03-28T10:54:50.045Z</time></trkpt><trkpt lat="43.3080767" lon="11.1203667"><ele>236.0</ele><time>2026-03-28T10:54:51.045Z</time></trkpt><trkpt lat="43.3079217" lon="11.1199917"><ele>235.0</ele><time>2026-03-28T10:54:52.045Z</time></trkpt><trkpt lat="43.307775" lon="11.1196467"><ele>234.0</ele><time>2026-03-28T10:54:53.045Z</time></trkpt><trkpt lat="43.3076367" lon="11.1193233"><ele>232.0</ele><time>2026-03-28T10:54:54.045Z</time></trkpt><trkpt lat="43.3075083" lon="11.1190083"><ele>230.0</ele><time>2026-03-28T10:54:55.045Z</time></trkpt><trkpt lat="43.3073833" lon="11.1187467"><ele>230.0</ele><time>2026-03-28T10:54:56.045Z</time></trkpt><trkpt lat="43.3072767" lon="11.118495"><ele>230.0</ele><time>2026-03-28T10:54:57.045Z</time></trkpt><trkpt lat="43.3071733" lon="11.1182567"><ele>230.0</ele><time>2026-03-28T10:54:58.045Z</time></trkpt><trkpt lat="43.3070767" lon="11.1180383"><ele>230.0</ele><time>2026-03-28T10:54:59.045Z</time></trkpt><trkpt lat="43.3069867" lon="11.1178183"><ele>230.0</ele><time>2026-03-28T10:55:00.045Z</time></trkpt><trkpt lat="43.3068933" lon="11.117605"><ele>230.0</ele><time>2026-03-28T10:55:01.045Z</time></trkpt><trkpt lat="43.30681" lon="11.11737"><ele>230.0</ele><time>2026-03-28T10:55:02.045Z</time></trkpt><trkpt lat="43.30672" lon="11.1171467"><ele>230.0</ele><time>2026-03-28T10:55:03.045Z</time></trkpt><trkpt lat="43.3066233" lon="11.11692"><ele>230.0</ele><time>2026-03-28T10:55:04.044Z</time></trkpt><trkpt lat="43.3065333" lon="11.11669"><ele>230.0</ele><time>2026-03-28T10:55:05.045Z</time></trkpt><trkpt lat="43.3064383" lon="11.1164667"><ele>230.0</ele><time>2026-03-28T10:55:06.045Z</time></trkpt><trkpt lat="43.3063517" lon="11.1162433"><ele>230.0</ele><time>2026-03-28T10:55:07.045Z</time></trkpt><trkpt lat="43.306285" lon="11.116035"><ele>230.5</ele><time>2026-03-28T10:55:08.045Z</time></trkpt><trkpt lat="43.3062133" lon="11.1158517"><ele>231.0</ele><time>2026-03-28T10:55:09.044Z</time></trkpt><trkpt lat="43.3061367" lon="11.1157017"><ele>231.5</ele><time>2026-03-28T10:55:10.045Z</time></trkpt><trkpt lat="43.30607" lon="11.1155633"><ele>232.0</ele><time>2026-03-28T10:55:11.045Z</time></trkpt><trkpt lat="43.30602" lon="11.1154517"><ele>232.6</ele><time>2026-03-28T10:55:12.045Z</time></trkpt><trkpt lat="43.3059817" lon="11.1153483"><ele>233.2</ele><time>2026-03-28T10:55:13.045Z</time></trkpt><trkpt lat="43.3059517" lon="11.1152083"><ele>233.8</ele><time>2026-03-28T10:55:15.045Z</time></trkpt><trkpt lat="43.3060383" lon="11.1150983"><ele>234.4</ele><time>2026-03-28T10:55:18.045Z</time></trkpt><trkpt lat="43.306105" lon="11.1150417"><ele>235.0</ele><time>2026-03-28T10:55:19.044Z</time></trkpt><trkpt lat="43.306195" lon="11.114965"><ele>234.75</ele><time>2026-03-28T10:55:20.045Z</time></trkpt><trkpt lat="43.30629" lon="11.1148717"><ele>234.5</ele><time>2026-03-28T10:55:21.045Z</time></trkpt><trkpt lat="43.3063967" lon="11.1147617"><ele>234.25</ele><time>2026-03-28T10:55:22.045Z</time></trkpt><trkpt lat="43.3065217" lon="11.1146267"><ele>234.0</ele><time>2026-03-28T10:55:23.045Z</time></trkpt><trkpt lat="43.3066483" lon="11.1144867"><ele>233.25</ele><time>2026-03-28T10:55:24.045Z</time></trkpt><trkpt lat="43.3067683" lon="11.114375"><ele>232.5</ele><time>2026-03-28T10:55:25.045Z</time></trkpt><trkpt lat="43.3068633" lon="11.114275"><ele>231.75</ele><time>2026-03-28T10:55:26.045Z</time></trkpt><trkpt lat="43.3069417" lon="11.1141783"><ele>231.0</ele><time>2026-03-28T10:55:27.045Z</time></trkpt><trkpt lat="43.3069967" lon="11.1140883"><ele>231.60000000000002</ele><time>2026-03-28T10:55:28.044Z</time></trkpt><trkpt lat="43.3070117" lon="11.113995"><ele>232.20000000000002</ele><time>2026-03-28T10:55:29.045Z</time></trkpt><trkpt lat="43.3069783" lon="11.1139"><ele>232.79999999999998</ele><time>2026-03-28T10:55:30.045Z</time></trkpt><trkpt lat="43.306905" lon="11.1137933"><ele>233.39999999999998</ele><time>2026-03-28T10:55:31.045Z</time></trkpt><trkpt lat="43.3068083" lon="11.1136867"><ele>234.0</ele><time>2026-03-28T10:55:32.045Z</time></trkpt><trkpt lat="43.3067183" lon="11.11356"><ele>234.0</ele><time>2026-03-28T10:55:33.045Z</time></trkpt><trkpt lat="43.3066183" lon="11.113405"><ele>234.0</ele><time>2026-03-28T10:55:34.045Z</time></trkpt><trkpt lat="43.3065167" lon="11.1132233"><ele>234.0</ele><time>2026-03-28T10:55:35.045Z</time></trkpt><trkpt lat="43.3064133" lon="11.1130417"><ele>234.33333333333331</ele><time>2026-03-28T10:55:36.045Z</time></trkpt><trkpt lat="43.3063067" lon="11.11285"><ele>234.66666666666666</ele><time>2026-03-28T10:55:37.045Z</time></trkpt><trkpt lat="43.3061967" lon="11.1126417"><ele>235.0</ele><time>2026-03-28T10:55:38.045Z</time></trkpt><trkpt lat="43.30608" lon="11.112435"><ele>234.66666666666666</ele><time>2026-03-28T10:55:39.045Z</time></trkpt><trkpt lat="43.30596" lon="11.1122217"><ele>234.33333333333331</ele><time>2026-03-28T10:55:40.045Z</time></trkpt><trkpt lat="43.3058383" lon="11.1120083"><ele>234.0</ele><time>2026-03-28T10:55:41.044Z</time></trkpt><trkpt lat="43.3057133" lon="11.1117817"><ele>234.66666666666669</ele><time>2026-03-28T10:55:42.045Z</time></trkpt><trkpt lat="43.3055817" lon="11.1115467"><ele>235.33333333333334</ele><time>2026-03-28T10:55:43.044Z</time></trkpt><trkpt lat="43.30545" lon="11.111315"><ele>236.0</ele><time>2026-03-28T10:55:44.045Z</time></trkpt><trkpt lat="43.30531" lon="11.1110783"><ele>236.0</ele><time>2026-03-28T10:55:45.045Z</time></trkpt><trkpt lat="43.3051817" lon="11.110835"><ele>236.0</ele><time>2026-03-28T10:55:46.045Z</time></trkpt><trkpt lat="43.3050383" lon="11.1105917"><ele>236.0</ele><time>2026-03-28T10:55:47.045Z</time></trkpt><trkpt lat="43.3048967" lon="11.110355"><ele>236.0</ele><time>2026-03-28T10:55:48.045Z</time></trkpt><trkpt lat="43.304755" lon="11.1101267"><ele>236.0</ele><time>2026-03-28T10:55:49.045Z</time></trkpt><trkpt lat="43.304615" lon="11.109915"><ele>236.0</ele><time>2026-03-28T10:55:50.045Z</time></trkpt><trkpt lat="43.304485" lon="11.1097333"><ele>237.25</ele><time>2026-03-28T10:55:51.045Z</time></trkpt><trkpt lat="43.30437" lon="11.1095817"><ele>238.5</ele><time>2026-03-28T10:55:52.045Z</time></trkpt><trkpt lat="43.304275" lon="11.1094783"><ele>239.75</ele><time>2026-03-28T10:55:53.045Z</time></trkpt><trkpt lat="43.3042" lon="11.1093917"><ele>241.0</ele><time>2026-03-28T10:55:54.045Z</time></trkpt><trkpt lat="43.3041533" lon="11.109315"><ele>241.0</ele><time>2026-03-28T10:55:55.045Z</time></trkpt><trkpt lat="43.3041283" lon="11.10916"><ele>241.00000000000003</ele><time>2026-03-28T10:55:57.044Z</time></trkpt><trkpt lat="43.3041567" lon="11.1090583"><ele>241.00000000000003</ele><time>2026-03-28T10:55:58.045Z</time></trkpt><trkpt lat="43.3041883" lon="11.1089383"><ele>241.0</ele><time>2026-03-28T10:55:59.045Z</time></trkpt><trkpt lat="43.3042317" lon="11.1088083"><ele>241.0</ele><time>2026-03-28T10:56:00.045Z</time></trkpt><trkpt lat="43.304265" lon="11.1086717"><ele>240.8</ele><time>2026-03-28T10:56:01.045Z</time></trkpt><trkpt lat="43.3042883" lon="11.1085483"><ele>240.60000000000002</ele><time>2026-03-28T10:56:02.045Z</time></trkpt><trkpt lat="43.3043083" lon="11.1084217"><ele>240.4</ele><time>2026-03-28T10:56:03.045Z</time></trkpt><trkpt lat="43.304335" lon="11.1082783"><ele>240.2</ele><time>2026-03-28T10:56:04.045Z</time></trkpt><trkpt lat="43.3043567" lon="11.1081333"><ele>240.0</ele><time>2026-03-28T10:56:05.045Z</time></trkpt><trkpt lat="43.3043867" lon="11.1079917"><ele>240.33333333333334</ele><time>2026-03-28T10:56:06.045Z</time></trkpt><trkpt lat="43.30442" lon="11.107865"><ele>240.66666666666669</ele><time>2026-03-28T10:56:07.044Z</time></trkpt><trkpt lat="43.3044533" lon="11.1077467"><ele>241.0</ele><time>2026-03-28T10:56:08.044Z</time></trkpt><trkpt lat="43.3044733" lon="11.10763"><ele>241.33333333333334</ele><time>2026-03-28T10:56:09.044Z</time></trkpt><trkpt lat="43.3044883" lon="11.1075317"><ele>241.66666666666669</ele><time>2026-03-28T10:56:10.044Z</time></trkpt><trkpt lat="43.3045033" lon="11.1074367"><ele>242.0</ele><time>2026-03-28T10:56:11.043Z</time></trkpt><trkpt lat="43.30452" lon="11.10733"><ele>242.57142857142856</ele><time>2026-03-28T10:56:12.044Z</time></trkpt><trkpt lat="43.304535" lon="11.1072333"><ele>243.1428571428571</ele><time>2026-03-28T10:56:13.043Z</time></trkpt><trkpt lat="43.3045433" lon="11.1071367"><ele>243.71428571428572</ele><time>2026-03-28T10:56:14.043Z</time></trkpt><trkpt lat="43.3045517" lon="11.1070483"><ele>244.28571428571428</ele><time>2026-03-28T10:56:15.044Z</time></trkpt><trkpt lat="43.3045567" lon="11.106955"><ele>244.85714285714286</ele><time>2026-03-28T10:56:16.044Z</time></trkpt><trkpt lat="43.30457" lon="11.1068617"><ele>245.42857142857144</ele><time>2026-03-28T10:56:17.043Z</time></trkpt><trkpt lat="43.30458" lon="11.1067583"><ele>246.00000000000003</ele><time>2026-03-28T10:56:18.044Z</time></trkpt><trkpt lat="43.3045983" lon="11.1066617"><ele>246.5</ele><time>2026-03-28T10:56:19.044Z</time></trkpt><trkpt lat="43.3046117" lon="11.10657"><ele>247.0</ele><time>2026-03-28T10:56:20.044Z</time></trkpt><trkpt lat="43.3046267" lon="11.10648"><ele>247.5</ele><time>2026-03-28T10:56:21.044Z</time></trkpt><trkpt lat="43.3046817" lon="11.10637"><ele>248.0</ele><time>2026-03-28T10:56:23.044Z</time></trkpt><trkpt lat="43.3046567" lon="11.1062667"><ele>248.5</ele><time>2026-03-28T10:56:31.044Z</time></trkpt><trkpt lat="43.30456" lon="11.1062117"><ele>249.0</ele><time>2026-03-28T10:56:33.044Z</time></trkpt><trkpt lat="43.30445" lon="11.1061183"><ele>249.0</ele><time>2026-03-28T10:56:35.044Z</time></trkpt><trkpt lat="43.304395" lon="11.1060483"><ele>248.99999999999997</ele><time>2026-03-28T10:56:36.043Z</time></trkpt><trkpt lat="43.3043417" lon="11.10596"><ele>249.0</ele><time>2026-03-28T10:56:37.044Z</time></trkpt><trkpt lat="43.3042967" lon="11.1058717"><ele>249.0</ele><time>2026-03-28T10:56:38.044Z</time></trkpt><trkpt lat="43.30425" lon="11.1057967"><ele>248.99999999999997</ele><time>2026-03-28T10:56:39.044Z</time></trkpt><trkpt lat="43.3042033" lon="11.10573"><ele>249.0</ele><time>2026-03-28T10:56:40.044Z</time></trkpt><trkpt lat="43.3041483" lon="11.1056683"><ele>249.0</ele><time>2026-03-28T10:56:41.043Z</time></trkpt><trkpt lat="43.3040917" lon="11.1056017"><ele>248.83333333333334</ele><time>2026-03-28T10:56:42.044Z</time></trkpt><trkpt lat="43.3040283" lon="11.105515"><ele>248.66666666666669</ele><time>2026-03-28T10:56:43.044Z</time></trkpt><trkpt lat="43.303965" lon="11.105435"><ele>248.5</ele><time>2026-03-28T10:56:44.043Z</time></trkpt><trkpt lat="43.303895" lon="11.1053567"><ele>248.33333333333334</ele><time>2026-03-28T10:56:45.044Z</time></trkpt><trkpt lat="43.3038183" lon="11.1052983"><ele>248.16666666666669</ele><time>2026-03-28T10:56:46.044Z</time></trkpt><trkpt lat="43.303735" lon="11.1052567"><ele>248.0</ele><time>2026-03-28T10:56:47.044Z</time></trkpt><trkpt lat="43.30365" lon="11.10521"><ele>248.60000000000002</ele><time>2026-03-28T10:56:48.044Z</time></trkpt><trkpt lat="43.3035517" lon="11.105155"><ele>249.20000000000002</ele><time>2026-03-28T10:56:49.044Z</time></trkpt><trkpt lat="43.3034433" lon="11.1051167"><ele>249.8</ele><time>2026-03-28T10:56:50.044Z</time></trkpt><trkpt lat="43.303335" lon="11.10508"><ele>250.4</ele><time>2026-03-28T10:56:51.044Z</time></trkpt><trkpt lat="43.3032417" lon="11.1050333"><ele>251.0</ele><time>2026-03-28T10:56:52.044Z</time></trkpt><trkpt lat="43.30318" lon="11.104995"><ele>251.00000000000003</ele><time>2026-03-28T10:56:53.044Z</time></trkpt><trkpt lat="43.303135" lon="11.1049267"><ele>251.0</ele><time>2026-03-28T10:56:54.044Z</time></trkpt><trkpt lat="43.3031033" lon="11.1048467"><ele>251.0</ele><time>2026-03-28T10:56:55.044Z</time></trkpt><trkpt lat="43.30307" lon="11.104765"><ele>251.0</ele><time>2026-03-28T10:56:56.043Z</time></trkpt><trkpt lat="43.3030433" lon="11.1046617"><ele>251.00000000000003</ele><time>2026-03-28T10:56:57.044Z</time></trkpt><trkpt lat="43.3030267" lon="11.10454"><ele>251.0</ele><time>2026-03-28T10:56:58.043Z</time></trkpt><trkpt lat="43.3030067" lon="11.10442"><ele>251.50000000000003</ele><time>2026-03-28T10:56:59.044Z</time></trkpt><trkpt lat="43.3029867" lon="11.1043217"><ele>252.0</ele><time>2026-03-28T10:57:00.044Z</time></trkpt><trkpt lat="43.3029917" lon="11.1041867"><ele>252.5</ele><time>2026-03-28T10:57:26.044Z</time></trkpt><trkpt lat="43.3029983" lon="11.104085"><ele>253.0</ele><time>2026-03-28T10:57:28.044Z</time></trkpt><trkpt lat="43.30297" lon="11.1039333"><ele>253.50000000000003</ele><time>2026-03-28T10:57:30.044Z</time></trkpt><trkpt lat="43.3029467" lon="11.10384"><ele>254.0</ele><time>2026-03-28T10:57:31.044Z</time></trkpt><trkpt lat="43.302925" lon="11.1037567"><ele>254.00000000000003</ele><time>2026-03-28T10:57:32.044Z</time></trkpt><trkpt lat="43.3029033" lon="11.10367"><ele>254.0</ele><time>2026-03-28T10:57:33.044Z</time></trkpt><trkpt lat="43.3028567" lon="11.103545"><ele>254.0</ele><time>2026-03-28T10:57:35.044Z</time></trkpt><trkpt lat="43.3028117" lon="11.103455"><ele>254.0</ele><time>2026-03-28T10:57:37.044Z</time></trkpt><trkpt lat="43.3027717" lon="11.1033683"><ele>254.00000000000003</ele><time>2026-03-28T10:57:39.044Z</time></trkpt><trkpt lat="43.30274" lon="11.10323"><ele>254.0</ele><time>2026-03-28T10:57:41.044Z</time></trkpt><trkpt lat="43.3027367" lon="11.1031417"><ele>253.2</ele><time>2026-03-28T10:57:42.044Z</time></trkpt><trkpt lat="43.3027567" lon="11.1029767"><ele>252.39999999999998</ele><time>2026-03-28T10:57:44.044Z</time></trkpt><trkpt lat="43.30278" lon="11.1028367"><ele>251.6</ele><time>2026-03-28T10:57:46.044Z</time></trkpt><trkpt lat="43.30283" lon="11.1026733"><ele>250.8</ele><time>2026-03-28T10:57:48.044Z</time></trkpt><trkpt lat="43.3028583" lon="11.10258"><ele>250.0</ele><time>2026-03-28T10:57:49.043Z</time></trkpt><trkpt lat="43.3028733" lon="11.102495"><ele>250.2</ele><time>2026-03-28T10:57:50.044Z</time></trkpt><trkpt lat="43.3028967" lon="11.1023617"><ele>250.4</ele><time>2026-03-28T10:57:52.044Z</time></trkpt><trkpt lat="43.3029033" lon="11.102265"><ele>250.60000000000002</ele><time>2026-03-28T10:57:54.044Z</time></trkpt><trkpt lat="43.3028967" lon="11.10211"><ele>250.8</ele><time>2026-03-28T10:57:57.043Z</time></trkpt><trkpt lat="43.302875" lon="11.101945"><ele>251.0</ele><time>2026-03-28T10:57:59.044Z</time></trkpt><trkpt lat="43.3028733" lon="11.1018433"><ele>251.00000000000003</ele><time>2026-03-28T10:58:00.043Z</time></trkpt><trkpt lat="43.30288" lon="11.10174"><ele>251.0</ele><time>2026-03-28T10:58:01.044Z</time></trkpt><trkpt lat="43.3028817" lon="11.101645"><ele>251.0</ele><time>2026-03-28T10:58:02.044Z</time></trkpt><trkpt lat="43.3028983" lon="11.1015"><ele>251.0</ele><time>2026-03-28T10:58:04.043Z</time></trkpt><trkpt lat="43.3029283" lon="11.10136"><ele>251.00000000000003</ele><time>2026-03-28T10:58:06.044Z</time></trkpt><trkpt lat="43.3029517" lon="11.1012767"><ele>251.0</ele><time>2026-03-28T10:58:07.044Z</time></trkpt><trkpt lat="43.3030217" lon="11.1011233"><ele>251.16666666666669</ele><time>2026-03-28T10:58:09.044Z</time></trkpt><trkpt lat="43.303065" lon="11.1009883"><ele>251.33333333333334</ele><time>2026-03-28T10:58:11.044Z</time></trkpt><trkpt lat="43.303055" lon="11.1008617"><ele>251.5</ele><time>2026-03-28T10:58:14.044Z</time></trkpt><trkpt lat="43.3030217" lon="11.1007867"><ele>251.66666666666669</ele><time>2026-03-28T10:58:15.044Z</time></trkpt><trkpt lat="43.3029883" lon="11.100695"><ele>251.83333333333334</ele><time>2026-03-28T10:58:16.043Z</time></trkpt><trkpt lat="43.302945" lon="11.10058"><ele>252.0</ele><time>2026-03-28T10:58:17.044Z</time></trkpt><trkpt lat="43.3029167" lon="11.1004467"><ele>253.2</ele><time>2026-03-28T10:58:18.044Z</time></trkpt><trkpt lat="43.3028833" lon="11.1003167"><ele>254.39999999999998</ele><time>2026-03-28T10:58:19.043Z</time></trkpt><trkpt lat="43.3028533" lon="11.100185"><ele>255.60000000000002</ele><time>2026-03-28T10:58:20.043Z</time></trkpt><trkpt lat="43.3028333" lon="11.1000433"><ele>256.8</ele><time>2026-03-28T10:58:21.043Z</time></trkpt><trkpt lat="43.302815" lon="11.0999083"><ele>258.0</ele><time>2026-03-28T10:58:22.044Z</time></trkpt><trkpt lat="43.3028033" lon="11.0997867"><ele>259.0</ele><time>2026-03-28T10:58:23.044Z</time></trkpt><trkpt lat="43.3027917" lon="11.0996567"><ele>260.0</ele><time>2026-03-28T10:58:24.043Z</time></trkpt><trkpt lat="43.3027783" lon="11.09953"><ele>261.0</ele><time>2026-03-28T10:58:25.044Z</time></trkpt><trkpt lat="43.3027567" lon="11.0994083"><ele>262.0</ele><time>2026-03-28T10:58:26.044Z</time></trkpt><trkpt lat="43.3027417" lon="11.09928"><ele>263.0</ele><time>2026-03-28T10:58:27.044Z</time></trkpt><trkpt lat="43.30273" lon="11.099155"><ele>263.6666666666667</ele><time>2026-03-28T10:58:28.044Z</time></trkpt><trkpt lat="43.3027317" lon="11.099035"><ele>264.33333333333337</ele><time>2026-03-28T10:58:29.044Z</time></trkpt><trkpt lat="43.3027483" lon="11.0989317"><ele>265.0</ele><time>2026-03-28T10:58:30.044Z</time></trkpt><trkpt lat="43.302775" lon="11.098825"><ele>265.6666666666667</ele><time>2026-03-28T10:58:31.044Z</time></trkpt><trkpt lat="43.3028167" lon="11.0987233"><ele>266.3333333333333</ele><time>2026-03-28T10:58:32.044Z</time></trkpt><trkpt lat="43.302855" lon="11.0986183"><ele>267.0</ele><time>2026-03-28T10:58:33.043Z</time></trkpt><trkpt lat="43.3028883" lon="11.0985083"><ele>267.0</ele><time>2026-03-28T10:58:34.043Z</time></trkpt><trkpt lat="43.30295" lon="11.0983833"><ele>267.0</ele><time>2026-03-28T10:58:35.044Z</time></trkpt><trkpt lat="43.3030067" lon="11.0982517"><ele>267.0</ele><time>2026-03-28T10:58:36.043Z</time></trkpt><trkpt lat="43.303065" lon="11.0981217"><ele>267.0</ele><time>2026-03-28T10:58:37.044Z</time></trkpt><trkpt lat="43.3031267" lon="11.098005"><ele>267.0</ele><time>2026-03-28T10:58:38.044Z</time></trkpt><trkpt lat="43.30318" lon="11.0979017"><ele>266.6666666666667</ele><time>2026-03-28T10:58:39.044Z</time></trkpt><trkpt lat="43.303225" lon="11.0977967"><ele>266.3333333333333</ele><time>2026-03-28T10:58:40.044Z</time></trkpt><trkpt lat="43.30327" lon="11.0976883"><ele>266.0</ele><time>2026-03-28T10:58:41.044Z</time></trkpt><trkpt lat="43.303305" lon="11.0976033"><ele>265.66666666666663</ele><time>2026-03-28T10:58:42.044Z</time></trkpt><trkpt lat="43.3033433" lon="11.09746"><ele>265.3333333333333</ele><time>2026-03-28T10:58:44.043Z</time></trkpt><trkpt lat="43.3033233" lon="11.0973633"><ele>265.0</ele><time>2026-03-28T10:58:46.044Z</time></trkpt><trkpt lat="43.303225" lon="11.097335"><ele>265.0</ele><time>2026-03-28T10:58:48.044Z</time></trkpt><trkpt lat="43.3031433" lon="11.0973467"><ele>265.0</ele><time>2026-03-28T10:58:49.044Z</time></trkpt><trkpt lat="43.3030383" lon="11.097375"><ele>265.0</ele><time>2026-03-28T10:58:50.044Z</time></trkpt><trkpt lat="43.302925" lon="11.09739"><ele>265.0</ele><time>2026-03-28T10:58:51.043Z</time></trkpt><trkpt lat="43.3028" lon="11.09741"><ele>265.0</ele><time>2026-03-28T10:58:52.044Z</time></trkpt><trkpt lat="43.3026567" lon="11.0974233"><ele>267.0</ele><time>2026-03-28T10:58:53.044Z</time></trkpt><trkpt lat="43.3024967" lon="11.0974367"><ele>269.0</ele><time>2026-03-28T10:58:54.044Z</time></trkpt><trkpt lat="43.3023083" lon="11.0974567"><ele>271.0</ele><time>2026-03-28T10:58:55.044Z</time></trkpt><trkpt lat="43.3021" lon="11.0974833"><ele>271.66666666666663</ele><time>2026-03-28T10:58:56.044Z</time></trkpt><trkpt lat="43.301885" lon="11.0975083"><ele>272.3333333333333</ele><time>2026-03-28T10:58:57.044Z</time></trkpt><trkpt lat="43.30166" lon="11.09753"><ele>273.0</ele><time>2026-03-28T10:58:58.043Z</time></trkpt><trkpt lat="43.30143" lon="11.0975533"><ele>273.6666666666667</ele><time>2026-03-28T10:58:59.044Z</time></trkpt><trkpt lat="43.3011967" lon="11.0975767"><ele>274.33333333333337</ele><time>2026-03-28T10:59:00.044Z</time></trkpt><trkpt lat="43.3009833" lon="11.097585"><ele>275.0</ele><time>2026-03-28T10:59:01.044Z</time></trkpt><trkpt lat="43.300785" lon="11.0975817"><ele>275.0</ele><time>2026-03-28T10:59:02.044Z</time></trkpt><trkpt lat="43.3005933" lon="11.097595"><ele>275.0</ele><time>2026-03-28T10:59:03.043Z</time></trkpt><trkpt lat="43.3004083" lon="11.0975933"><ele>275.0</ele><time>2026-03-28T10:59:04.044Z</time></trkpt><trkpt lat="43.3002283" lon="11.0975983"><ele>276.33333333333337</ele><time>2026-03-28T10:59:05.044Z</time></trkpt><trkpt lat="43.3000317" lon="11.0976117"><ele>277.6666666666667</ele><time>2026-03-28T10:59:06.043Z</time></trkpt><trkpt lat="43.2998333" lon="11.09763"><ele>279.0</ele><time>2026-03-28T10:59:07.044Z</time></trkpt><trkpt lat="43.2996367" lon="11.0976483"><ele>280.3333333333333</ele><time>2026-03-28T10:59:08.044Z</time></trkpt><trkpt lat="43.2994433" lon="11.0976667"><ele>281.66666666666663</ele><time>2026-03-28T10:59:09.044Z</time></trkpt><trkpt lat="43.2992517" lon="11.0977"><ele>283.0</ele><time>2026-03-28T10:59:10.044Z</time></trkpt><trkpt lat="43.2990617" lon="11.09772"><ele>283.0</ele><time>2026-03-28T10:59:11.044Z</time></trkpt><trkpt lat="43.2988783" lon="11.0977383"><ele>283.0</ele><time>2026-03-28T10:59:12.043Z</time></trkpt><trkpt lat="43.2987017" lon="11.0977517"><ele>283.0</ele><time>2026-03-28T10:59:13.044Z</time></trkpt><trkpt lat="43.2985517" lon="11.0977817"><ele>283.0</ele><time>2026-03-28T10:59:14.044Z</time></trkpt><trkpt lat="43.298405" lon="11.097805"><ele>283.0</ele><time>2026-03-28T10:59:15.044Z</time></trkpt><trkpt lat="43.2982733" lon="11.0978483"><ele>283.0</ele><time>2026-03-28T10:59:16.044Z</time></trkpt><trkpt lat="43.2981333" lon="11.0979233"><ele>283.0</ele><time>2026-03-28T10:59:17.043Z</time></trkpt><trkpt lat="43.298005" lon="11.09802"><ele>284.0</ele><time>2026-03-28T10:59:18.044Z</time></trkpt><trkpt lat="43.297885" lon="11.0981333"><ele>285.0</ele><time>2026-03-28T10:59:19.044Z</time></trkpt><trkpt lat="43.2977733" lon="11.098245"><ele>286.0</ele><time>2026-03-28T10:59:20.044Z</time></trkpt><trkpt lat="43.29766" lon="11.09839"><ele>287.0</ele><time>2026-03-28T10:59:21.043Z</time></trkpt><trkpt lat="43.2975483" lon="11.0985383"><ele>287.0</ele><time>2026-03-28T10:59:22.043Z</time></trkpt><trkpt lat="43.297445" lon="11.0986917"><ele>287.0</ele><time>2026-03-28T10:59:23.044Z</time></trkpt><trkpt lat="43.2973417" lon="11.0988233"><ele>287.0</ele><time>2026-03-28T10:59:24.044Z</time></trkpt><trkpt lat="43.2972383" lon="11.0989467"><ele>287.0</ele><time>2026-03-28T10:59:25.044Z</time></trkpt><trkpt lat="43.2971383" lon="11.0990583"><ele>287.4</ele><time>2026-03-28T10:59:26.044Z</time></trkpt><trkpt lat="43.2970417" lon="11.0991633"><ele>287.79999999999995</ele><time>2026-03-28T10:59:27.044Z</time></trkpt><trkpt lat="43.2969467" lon="11.099245"><ele>288.2</ele><time>2026-03-28T10:59:28.044Z</time></trkpt><trkpt lat="43.296855" lon="11.0993067"><ele>288.59999999999997</ele><time>2026-03-28T10:59:29.044Z</time></trkpt><trkpt lat="43.29679" lon="11.0993417"><ele>289.0</ele><time>2026-03-28T10:59:30.043Z</time></trkpt><trkpt lat="43.2967067" lon="11.099435"><ele>289.0</ele><time>2026-03-28T10:59:32.043Z</time></trkpt><trkpt lat="43.2966767" lon="11.0995867"><ele>289.0</ele><time>2026-03-28T10:59:34.044Z</time></trkpt><trkpt lat="43.29663" lon="11.0997033"><ele>289.0</ele><time>2026-03-28T10:59:36.044Z</time></trkpt><trkpt lat="43.2965567" lon="11.0996683"><ele>289.0</ele><time>2026-03-28T10:59:41.044Z</time></trkpt><trkpt lat="43.29646" lon="11.099535"><ele>289.0</ele><time>2026-03-28T10:59:43.044Z</time></trkpt><trkpt lat="43.2963917" lon="11.099435"><ele>288.5</ele><time>2026-03-28T10:59:44.044Z</time></trkpt><trkpt lat="43.2963033" lon="11.0993233"><ele>288.0</ele><time>2026-03-28T10:59:45.044Z</time></trkpt><trkpt lat="43.296205" lon="11.0991967"><ele>287.5</ele><time>2026-03-28T10:59:46.044Z</time></trkpt><trkpt lat="43.2960917" lon="11.099065"><ele>287.0</ele><time>2026-03-28T10:59:47.044Z</time></trkpt><trkpt lat="43.2959733" lon="11.09892"><ele>288.33333333333337</ele><time>2026-03-28T10:59:48.044Z</time></trkpt><trkpt lat="43.2958483" lon="11.0987617"><ele>289.6666666666667</ele><time>2026-03-28T10:59:49.044Z</time></trkpt><trkpt lat="43.2957183" lon="11.0985983"><ele>291.0</ele><time>2026-03-28T10:59:50.044Z</time></trkpt><trkpt lat="43.2956067" lon="11.0984067"><ele>287.0</ele><time>2026-03-28T10:59:51.044Z</time></trkpt><trkpt lat="43.2955233" lon="11.0981883"><ele>283.0</ele><time>2026-03-28T10:59:52.044Z</time></trkpt><trkpt lat="43.295465" lon="11.0979333"><ele>279.0</ele><time>2026-03-28T10:59:53.044Z</time></trkpt><trkpt lat="43.2954167" lon="11.09766"><ele>279.0</ele><time>2026-03-28T10:59:54.044Z</time></trkpt><trkpt lat="43.2953883" lon="11.0973817"><ele>279.0</ele><time>2026-03-28T10:59:55.043Z</time></trkpt><trkpt lat="43.2953683" lon="11.0970967"><ele>279.0</ele><time>2026-03-28T10:59:56.044Z</time></trkpt><trkpt lat="43.295335" lon="11.096805"><ele>281.0</ele><time>2026-03-28T10:59:57.044Z</time></trkpt><trkpt lat="43.29531" lon="11.0964983"><ele>283.0</ele><time>2026-03-28T10:59:58.043Z</time></trkpt><trkpt lat="43.2952667" lon="11.0961983"><ele>285.0</ele><time>2026-03-28T10:59:59.044Z</time></trkpt><trkpt lat="43.2952183" lon="11.0958883"><ele>285.5</ele><time>2026-03-28T11:00:00.043Z</time></trkpt><trkpt lat="43.29519" lon="11.0955783"><ele>286.0</ele><time>2026-03-28T11:00:01.044Z</time></trkpt><trkpt lat="43.2951533" lon="11.095255"><ele>286.0</ele><time>2026-03-28T11:00:02.044Z</time></trkpt><trkpt lat="43.295095" lon="11.09495"><ele>286.0</ele><time>2026-03-28T11:00:03.044Z</time></trkpt><trkpt lat="43.295045" lon="11.0946333"><ele>284.0</ele><time>2026-03-28T11:00:04.044Z</time></trkpt><trkpt lat="43.2949933" lon="11.09433"><ele>282.0</ele><time>2026-03-28T11:00:05.044Z</time></trkpt><trkpt lat="43.29494" lon="11.0940083"><ele>280.0</ele><time>2026-03-28T11:00:06.044Z</time></trkpt><trkpt lat="43.2948883" lon="11.0936917"><ele>278.0</ele><time>2026-03-28T11:00:07.044Z</time></trkpt><trkpt lat="43.2948483" lon="11.09337"><ele>277.5</ele><time>2026-03-28T11:00:08.043Z</time></trkpt><trkpt lat="43.2948083" lon="11.09305"><ele>277.0</ele><time>2026-03-28T11:00:09.044Z</time></trkpt><trkpt lat="43.29477" lon="11.092725"><ele>282.0</ele><time>2026-03-28T11:00:10.044Z</time></trkpt><trkpt lat="43.294735" lon="11.0923917"><ele>287.0</ele><time>2026-03-28T11:00:11.044Z</time></trkpt><trkpt lat="43.29469" lon="11.092075"><ele>287.0</ele><time>2026-03-28T11:00:12.044Z</time></trkpt><trkpt lat="43.2946483" lon="11.091765"><ele>287.0</ele><time>2026-03-28T11:00:13.044Z</time></trkpt><trkpt lat="43.2946033" lon="11.091475"><ele>287.0</ele><time>2026-03-28T11:00:14.044Z</time></trkpt><trkpt lat="43.2945617" lon="11.0911667"><ele>285.5</ele><time>2026-03-28T11:00:15.044Z</time></trkpt><trkpt lat="43.2945067" lon="11.0908633"><ele>284.0</ele><time>2026-03-28T11:00:16.043Z</time></trkpt><trkpt lat="43.29446" lon="11.09056"><ele>283.6666666666667</ele><time>2026-03-28T11:00:17.044Z</time></trkpt><trkpt lat="43.294415" lon="11.0902583"><ele>283.3333333333333</ele><time>2026-03-28T11:00:18.043Z</time></trkpt><trkpt lat="43.2943783" lon="11.0899583"><ele>283.0</ele><time>2026-03-28T11:00:19.044Z</time></trkpt><trkpt lat="43.2943283" lon="11.0896617"><ele>284.0</ele><time>2026-03-28T11:00:20.044Z</time></trkpt><trkpt lat="43.2942783" lon="11.0893733"><ele>285.0</ele><time>2026-03-28T11:00:21.043Z</time></trkpt><trkpt lat="43.2942383" lon="11.089065"><ele>286.0</ele><time>2026-03-28T11:00:22.044Z</time></trkpt><trkpt lat="43.2941967" lon="11.0887417"><ele>288.0</ele><time>2026-03-28T11:00:23.044Z</time></trkpt><trkpt lat="43.2941667" lon="11.088425"><ele>290.0</ele><time>2026-03-28T11:00:24.044Z</time></trkpt><trkpt lat="43.294125" lon="11.0881133"><ele>293.0</ele><time>2026-03-28T11:00:25.044Z</time></trkpt><trkpt lat="43.2940717" lon="11.08782"><ele>296.0</ele><time>2026-03-28T11:00:26.043Z</time></trkpt><trkpt lat="43.2940267" lon="11.08752"><ele>299.0</ele><time>2026-03-28T11:00:27.044Z</time></trkpt><trkpt lat="43.2939817" lon="11.0872167"><ele>301.6666666666667</ele><time>2026-03-28T11:00:28.044Z</time></trkpt><trkpt lat="43.2939417" lon="11.0869217"><ele>304.3333333333333</ele><time>2026-03-28T11:00:29.043Z</time></trkpt><trkpt lat="43.2938917" lon="11.0866383"><ele>307.0</ele><time>2026-03-28T11:00:30.044Z</time></trkpt><trkpt lat="43.2938417" lon="11.0863583"><ele>308.0</ele><time>2026-03-28T11:00:31.043Z</time></trkpt><trkpt lat="43.2937883" lon="11.0860767"><ele>309.0</ele><time>2026-03-28T11:00:32.044Z</time></trkpt><trkpt lat="43.2937267" lon="11.0857883"><ele>310.0</ele><time>2026-03-28T11:00:33.044Z</time></trkpt><trkpt lat="43.2936733" lon="11.0854967"><ele>310.0</ele><time>2026-03-28T11:00:34.044Z</time></trkpt><trkpt lat="43.2936217" lon="11.0852"><ele>310.0</ele><time>2026-03-28T11:00:35.044Z</time></trkpt><trkpt lat="43.2935683" lon="11.0849017"><ele>310.0</ele><time>2026-03-28T11:00:36.044Z</time></trkpt><trkpt lat="43.2935183" lon="11.0846083"><ele>308.66666666666663</ele><time>2026-03-28T11:00:37.044Z</time></trkpt><trkpt lat="43.2934783" lon="11.0843283"><ele>307.3333333333333</ele><time>2026-03-28T11:00:38.043Z</time></trkpt><trkpt lat="43.2934433" lon="11.0840783"><ele>306.0</ele><time>2026-03-28T11:00:39.044Z</time></trkpt><trkpt lat="43.2934033" lon="11.08385"><ele>304.3333333333333</ele><time>2026-03-28T11:00:40.044Z</time></trkpt><trkpt lat="43.2933517" lon="11.08364"><ele>302.66666666666663</ele><time>2026-03-28T11:00:41.044Z</time></trkpt><trkpt lat="43.2932817" lon="11.08344"><ele>301.0</ele><time>2026-03-28T11:00:42.044Z</time></trkpt><trkpt lat="43.2932117" lon="11.0832567"><ele>300.0</ele><time>2026-03-28T11:00:43.044Z</time></trkpt><trkpt lat="43.293125" lon="11.0830817"><ele>299.0</ele><time>2026-03-28T11:00:44.044Z</time></trkpt><trkpt lat="43.2930367" lon="11.0829017"><ele>298.0</ele><time>2026-03-28T11:00:45.044Z</time></trkpt><trkpt lat="43.2929267" lon="11.082735"><ele>298.66666666666663</ele><time>2026-03-28T11:00:46.044Z</time></trkpt><trkpt lat="43.292805" lon="11.0825733"><ele>299.3333333333333</ele><time>2026-03-28T11:00:47.044Z</time></trkpt><trkpt lat="43.292655" lon="11.0824133"><ele>300.0</ele><time>2026-03-28T11:00:48.044Z</time></trkpt><trkpt lat="43.2925183" lon="11.0822817"><ele>300.0</ele><time>2026-03-28T11:00:49.044Z</time></trkpt><trkpt lat="43.2923617" lon="11.0821567"><ele>300.0</ele><time>2026-03-28T11:00:50.043Z</time></trkpt><trkpt lat="43.2921917" lon="11.082045"><ele>300.0</ele><time>2026-03-28T11:00:51.043Z</time></trkpt><trkpt lat="43.2920167" lon="11.081925"><ele>299.6666666666667</ele><time>2026-03-28T11:00:52.043Z</time></trkpt><trkpt lat="43.2918267" lon="11.081805"><ele>299.33333333333337</ele><time>2026-03-28T11:00:53.044Z</time></trkpt><trkpt lat="43.2916383" lon="11.0816733"><ele>299.0</ele><time>2026-03-28T11:00:54.043Z</time></trkpt><trkpt lat="43.2914467" lon="11.0815483"><ele>301.33333333333337</ele><time>2026-03-28T11:00:55.044Z</time></trkpt><trkpt lat="43.29126" lon="11.0814117"><ele>303.6666666666667</ele><time>2026-03-28T11:00:56.044Z</time></trkpt><trkpt lat="43.2910717" lon="11.08129"><ele>306.0</ele><time>2026-03-28T11:00:57.043Z</time></trkpt><trkpt lat="43.2908867" lon="11.0811733"><ele>306.0</ele><time>2026-03-28T11:00:58.044Z</time></trkpt><trkpt lat="43.2907117" lon="11.0810517"><ele>306.0</ele><time>2026-03-28T11:00:59.044Z</time></trkpt><trkpt lat="43.2905467" lon="11.0809217"><ele>306.0</ele><time>2026-03-28T11:01:00.044Z</time></trkpt><trkpt lat="43.2904267" lon="11.0807633"><ele>308.6666666666667</ele><time>2026-03-28T11:01:01.043Z</time></trkpt><trkpt lat="43.2903383" lon="11.08058"><ele>311.33333333333337</ele><time>2026-03-28T11:01:02.044Z</time></trkpt><trkpt lat="43.29028" lon="11.08039"><ele>314.0</ele><time>2026-03-28T11:01:03.044Z</time></trkpt><trkpt lat="43.2902483" lon="11.0801717"><ele>314.0</ele><time>2026-03-28T11:01:04.044Z</time></trkpt><trkpt lat="43.2902467" lon="11.0799367"><ele>314.0</ele><time>2026-03-28T11:01:05.044Z</time></trkpt><trkpt lat="43.2902867" lon="11.0797"><ele>314.0</ele><time>2026-03-28T11:01:06.044Z</time></trkpt><trkpt lat="43.29037" lon="11.0794867"><ele>314.0</ele><time>2026-03-28T11:01:07.044Z</time></trkpt><trkpt lat="43.290495" lon="11.0793083"><ele>314.0</ele><time>2026-03-28T11:01:08.044Z</time></trkpt><trkpt lat="43.290665" lon="11.0791517"><ele>314.0</ele><time>2026-03-28T11:01:09.044Z</time></trkpt><trkpt lat="43.29084" lon="11.0790117"><ele>316.6666666666667</ele><time>2026-03-28T11:01:10.044Z</time></trkpt><trkpt lat="43.2910067" lon="11.078885"><ele>319.3333333333333</ele><time>2026-03-28T11:01:11.043Z</time></trkpt><trkpt lat="43.2911783" lon="11.07875"><ele>322.0</ele><time>2026-03-28T11:01:12.044Z</time></trkpt><trkpt lat="43.2913467" lon="11.0785983"><ele>322.66666666666663</ele><time>2026-03-28T11:01:13.044Z</time></trkpt><trkpt lat="43.2915033" lon="11.0784333"><ele>323.3333333333333</ele><time>2026-03-28T11:01:14.044Z</time></trkpt><trkpt lat="43.2916417" lon="11.0782367"><ele>324.0</ele><time>2026-03-28T11:01:15.044Z</time></trkpt><trkpt lat="43.29173" lon="11.0780183"><ele>324.0</ele><time>2026-03-28T11:01:16.044Z</time></trkpt><trkpt lat="43.2917783" lon="11.0777767"><ele>324.0</ele><time>2026-03-28T11:01:17.044Z</time></trkpt><trkpt lat="43.2917933" lon="11.0775283"><ele>324.0</ele><time>2026-03-28T11:01:18.044Z</time></trkpt><trkpt lat="43.2917783" lon="11.0772767"><ele>325.3333333333333</ele><time>2026-03-28T11:01:19.044Z</time></trkpt><trkpt lat="43.2917283" lon="11.07704"><ele>326.66666666666663</ele><time>2026-03-28T11:01:20.044Z</time></trkpt><trkpt lat="43.29165" lon="11.0768233"><ele>328.0</ele><time>2026-03-28T11:01:21.044Z</time></trkpt><trkpt lat="43.2915217" lon="11.07664"><ele>331.0</ele><time>2026-03-28T11:01:22.044Z</time></trkpt><trkpt lat="43.2913767" lon="11.0764767"><ele>334.0</ele><time>2026-03-28T11:01:23.044Z</time></trkpt><trkpt lat="43.291215" lon="11.0763317"><ele>337.0</ele><time>2026-03-28T11:01:24.044Z</time></trkpt><trkpt lat="43.29105" lon="11.0761933"><ele>337.0</ele><time>2026-03-28T11:01:25.044Z</time></trkpt><trkpt lat="43.2908933" lon="11.076045"><ele>337.0</ele><time>2026-03-28T11:01:26.044Z</time></trkpt><trkpt lat="43.2907567" lon="11.0758917"><ele>337.0</ele><time>2026-03-28T11:01:27.044Z</time></trkpt><trkpt lat="43.290635" lon="11.075745"><ele>342.0</ele><time>2026-03-28T11:01:28.044Z</time></trkpt><trkpt lat="43.2905267" lon="11.0755983"><ele>347.0</ele><time>2026-03-28T11:01:29.043Z</time></trkpt><trkpt lat="43.29043" lon="11.075445"><ele>352.0</ele><time>2026-03-28T11:01:30.044Z</time></trkpt><trkpt lat="43.29034" lon="11.07528"><ele>352.0</ele><time>2026-03-28T11:01:31.044Z</time></trkpt><trkpt lat="43.2902533" lon="11.075115"><ele>352.0</ele><time>2026-03-28T11:01:32.044Z</time></trkpt><trkpt lat="43.2901867" lon="11.0749333"><ele>352.0</ele><time>2026-03-28T11:01:33.044Z</time></trkpt><trkpt lat="43.2901483" lon="11.0747317"><ele>352.0</ele><time>2026-03-28T11:01:34.043Z</time></trkpt><trkpt lat="43.2901267" lon="11.0745133"><ele>353.3333333333333</ele><time>2026-03-28T11:01:35.044Z</time></trkpt><trkpt lat="43.290125" lon="11.074285"><ele>354.6666666666667</ele><time>2026-03-28T11:01:36.044Z</time></trkpt><trkpt lat="43.2901383" lon="11.0740433"><ele>356.0</ele><time>2026-03-28T11:01:37.044Z</time></trkpt><trkpt lat="43.2901867" lon="11.0738083"><ele>358.33333333333337</ele><time>2026-03-28T11:01:38.044Z</time></trkpt><trkpt lat="43.290265" lon="11.0735617"><ele>360.6666666666667</ele><time>2026-03-28T11:01:39.044Z</time></trkpt><trkpt lat="43.2903633" lon="11.0733267"><ele>363.0</ele><time>2026-03-28T11:01:40.044Z</time></trkpt><trkpt lat="43.2904717" lon="11.0731183"><ele>360.6666666666667</ele><time>2026-03-28T11:01:41.044Z</time></trkpt><trkpt lat="43.29058" lon="11.072905"><ele>358.33333333333337</ele><time>2026-03-28T11:01:42.043Z</time></trkpt><trkpt lat="43.29067" lon="11.072715"><ele>356.0</ele><time>2026-03-28T11:01:43.044Z</time></trkpt><trkpt lat="43.290755" lon="11.0725217"><ele>358.33333333333337</ele><time>2026-03-28T11:01:44.044Z</time></trkpt><trkpt lat="43.29083" lon="11.072335"><ele>360.6666666666667</ele><time>2026-03-28T11:01:45.044Z</time></trkpt><trkpt lat="43.2909017" lon="11.0721533"><ele>363.0</ele><time>2026-03-28T11:01:46.044Z</time></trkpt><trkpt lat="43.2909683" lon="11.0719667"><ele>363.0</ele><time>2026-03-28T11:01:47.044Z</time></trkpt><trkpt lat="43.29104" lon="11.0717883"><ele>363.0</ele><time>2026-03-28T11:01:48.044Z</time></trkpt><trkpt lat="43.2911067" lon="11.0716167"><ele>363.0</ele><time>2026-03-28T11:01:49.044Z</time></trkpt><trkpt lat="43.2911733" lon="11.0714617"><ele>363.0</ele><time>2026-03-28T11:01:50.043Z</time></trkpt><trkpt lat="43.291235" lon="11.0712967"><ele>364.0</ele><time>2026-03-28T11:01:51.044Z</time></trkpt><trkpt lat="43.2912833" lon="11.07112"><ele>365.0</ele><time>2026-03-28T11:01:52.043Z</time></trkpt><trkpt lat="43.2912967" lon="11.0709633"><ele>366.0</ele><time>2026-03-28T11:01:53.044Z</time></trkpt><trkpt lat="43.2912967" lon="11.07083"><ele>367.0</ele><time>2026-03-28T11:01:54.044Z</time></trkpt><trkpt lat="43.291295" lon="11.070715"><ele>368.0</ele><time>2026-03-28T11:01:55.044Z</time></trkpt><trkpt lat="43.29128" lon="11.07063"><ele>368.0</ele><time>2026-03-28T11:01:56.044Z</time></trkpt><trkpt lat="43.2912433" lon="11.0705217"><ele>368.0</ele><time>2026-03-28T11:01:58.044Z</time></trkpt><trkpt lat="43.291295" lon="11.0706067"><ele>368.0</ele><time>2026-03-28T11:03:23.044Z</time></trkpt><trkpt lat="43.291325" lon="11.07074"><ele>368.0</ele><time>2026-03-28T11:03:25.044Z</time></trkpt><trkpt lat="43.2913333" lon="11.0708833"><ele>368.0</ele><time>2026-03-28T11:03:27.043Z</time></trkpt><trkpt lat="43.2913117" lon="11.0709833"><ele>368.0</ele><time>2026-03-28T11:03:29.044Z</time></trkpt><trkpt lat="43.2912467" lon="11.0711133"><ele>368.0</ele><time>2026-03-28T11:03:31.044Z</time></trkpt><trkpt lat="43.29121" lon="11.071215"><ele>368.0</ele><time>2026-03-28T11:03:32.043Z</time></trkpt><trkpt lat="43.2911733" lon="11.0713517"><ele>368.0</ele><time>2026-03-28T11:03:33.044Z</time></trkpt><trkpt lat="43.29112" lon="11.0715"><ele>368.0</ele><time>2026-03-28T11:03:34.044Z</time></trkpt><trkpt lat="43.2910533" lon="11.0716617"><ele>366.75</ele><time>2026-03-28T11:03:35.044Z</time></trkpt><trkpt lat="43.290985" lon="11.0718333"><ele>365.5</ele><time>2026-03-28T11:03:36.044Z</time></trkpt><trkpt lat="43.2909183" lon="11.072015"><ele>364.25</ele><time>2026-03-28T11:03:37.043Z</time></trkpt><trkpt lat="43.2908517" lon="11.0722083"><ele>363.0</ele><time>2026-03-28T11:03:38.044Z</time></trkpt><trkpt lat="43.2907733" lon="11.07241"><ele>360.6666666666667</ele><time>2026-03-28T11:03:39.044Z</time></trkpt><trkpt lat="43.2906983" lon="11.0726133"><ele>358.33333333333337</ele><time>2026-03-28T11:03:40.043Z</time></trkpt><trkpt lat="43.2906133" lon="11.0728167"><ele>356.0</ele><time>2026-03-28T11:03:41.044Z</time></trkpt><trkpt lat="43.2905183" lon="11.0730233"><ele>358.33333333333337</ele><time>2026-03-28T11:03:42.044Z</time></trkpt><trkpt lat="43.29043" lon="11.0732417"><ele>360.6666666666667</ele><time>2026-03-28T11:03:43.043Z</time></trkpt><trkpt lat="43.2903483" lon="11.073445"><ele>363.0</ele><time>2026-03-28T11:03:44.044Z</time></trkpt><trkpt lat="43.2902733" lon="11.073645"><ele>363.0</ele><time>2026-03-28T11:03:45.044Z</time></trkpt><trkpt lat="43.2902083" lon="11.07385"><ele>363.0</ele><time>2026-03-28T11:03:46.044Z</time></trkpt><trkpt lat="43.2901567" lon="11.074065"><ele>363.0</ele><time>2026-03-28T11:03:47.044Z</time></trkpt><trkpt lat="43.290125" lon="11.074295"><ele>360.6666666666667</ele><time>2026-03-28T11:03:48.044Z</time></trkpt><trkpt lat="43.2901167" lon="11.0745383"><ele>358.33333333333337</ele><time>2026-03-28T11:03:49.044Z</time></trkpt><trkpt lat="43.29014" lon="11.07478"><ele>356.0</ele><time>2026-03-28T11:03:50.044Z</time></trkpt><trkpt lat="43.2901833" lon="11.0750183"><ele>354.6666666666667</ele><time>2026-03-28T11:03:51.044Z</time></trkpt><trkpt lat="43.2902567" lon="11.0752433"><ele>353.3333333333333</ele><time>2026-03-28T11:03:52.044Z</time></trkpt><trkpt lat="43.2903467" lon="11.0754467"><ele>352.0</ele><time>2026-03-28T11:03:53.044Z</time></trkpt><trkpt lat="43.290465" lon="11.075625"><ele>347.0</ele><time>2026-03-28T11:03:54.044Z</time></trkpt><trkpt lat="43.2906117" lon="11.0758"><ele>342.0</ele><time>2026-03-28T11:03:55.044Z</time></trkpt><trkpt lat="43.2907667" lon="11.0759683"><ele>337.0</ele><time>2026-03-28T11:03:56.044Z</time></trkpt><trkpt lat="43.2909083" lon="11.07612"><ele>337.0</ele><time>2026-03-28T11:03:57.044Z</time></trkpt><trkpt lat="43.2910583" lon="11.0762767"><ele>337.0</ele><time>2026-03-28T11:03:58.043Z</time></trkpt><trkpt lat="43.2912117" lon="11.07642"><ele>337.0</ele><time>2026-03-28T11:03:59.044Z</time></trkpt><trkpt lat="43.2913517" lon="11.0765717"><ele>334.0</ele><time>2026-03-28T11:04:00.044Z</time></trkpt><trkpt lat="43.2914783" lon="11.0767167"><ele>331.0</ele><time>2026-03-28T11:04:01.044Z</time></trkpt><trkpt lat="43.29158" lon="11.0768783"><ele>328.0</ele><time>2026-03-28T11:04:02.043Z</time></trkpt><trkpt lat="43.2916517" lon="11.0770433"><ele>328.0</ele><time>2026-03-28T11:04:03.044Z</time></trkpt><trkpt lat="43.2917167" lon="11.0772183"><ele>328.0</ele><time>2026-03-28T11:04:04.044Z</time></trkpt><trkpt lat="43.2917533" lon="11.07741"><ele>328.0</ele><time>2026-03-28T11:04:05.044Z</time></trkpt><trkpt lat="43.2917583" lon="11.0775933"><ele>328.0</ele><time>2026-03-28T11:04:06.044Z</time></trkpt><trkpt lat="43.291735" lon="11.0777833"><ele>327.0</ele><time>2026-03-28T11:04:07.043Z</time></trkpt><trkpt lat="43.2917" lon="11.0779667"><ele>326.0</ele><time>2026-03-28T11:04:08.043Z</time></trkpt><trkpt lat="43.29164" lon="11.0781417"><ele>325.0</ele><time>2026-03-28T11:04:09.043Z</time></trkpt><trkpt lat="43.2915717" lon="11.0783117"><ele>324.0</ele><time>2026-03-28T11:04:10.044Z</time></trkpt><trkpt lat="43.29147" lon="11.0784733"><ele>323.3333333333333</ele><time>2026-03-28T11:04:11.043Z</time></trkpt><trkpt lat="43.291335" lon="11.0785983"><ele>322.66666666666663</ele><time>2026-03-28T11:04:12.044Z</time></trkpt><trkpt lat="43.2911817" lon="11.07871"><ele>322.0</ele><time>2026-03-28T11:04:13.044Z</time></trkpt><trkpt lat="43.2910267" lon="11.078825"><ele>322.0</ele><time>2026-03-28T11:04:14.044Z</time></trkpt><trkpt lat="43.290885" lon="11.0789383"><ele>322.0</ele><time>2026-03-28T11:04:15.044Z</time></trkpt><trkpt lat="43.290725" lon="11.079065"><ele>322.0</ele><time>2026-03-28T11:04:16.044Z</time></trkpt><trkpt lat="43.2905967" lon="11.0791817"><ele>321.0</ele><time>2026-03-28T11:04:17.043Z</time></trkpt><trkpt lat="43.2904833" lon="11.07931"><ele>320.0</ele><time>2026-03-28T11:04:18.043Z</time></trkpt><trkpt lat="43.290395" lon="11.0794333"><ele>319.0</ele><time>2026-03-28T11:04:19.044Z</time></trkpt><trkpt lat="43.2903167" lon="11.0795967"><ele>318.0</ele><time>2026-03-28T11:04:20.044Z</time></trkpt><trkpt lat="43.2902667" lon="11.0797667"><ele>317.0</ele><time>2026-03-28T11:04:21.044Z</time></trkpt><trkpt lat="43.290245" lon="11.079935"><ele>316.0</ele><time>2026-03-28T11:04:22.043Z</time></trkpt><trkpt lat="43.290235" lon="11.08015"><ele>315.0</ele><time>2026-03-28T11:04:23.044Z</time></trkpt><trkpt lat="43.2902467" lon="11.0803617"><ele>314.0</ele><time>2026-03-28T11:04:24.044Z</time></trkpt><trkpt lat="43.2903017" lon="11.0805683"><ele>314.0</ele><time>2026-03-28T11:04:25.044Z</time></trkpt><trkpt lat="43.2903983" lon="11.0807633"><ele>314.0</ele><time>2026-03-28T11:04:26.044Z</time></trkpt><trkpt lat="43.2905117" lon="11.08093"><ele>314.0</ele><time>2026-03-28T11:04:27.044Z</time></trkpt><trkpt lat="43.2906683" lon="11.0810617"><ele>311.33333333333337</ele><time>2026-03-28T11:04:28.044Z</time></trkpt><trkpt lat="43.2908317" lon="11.081195"><ele>308.6666666666667</ele><time>2026-03-28T11:04:29.043Z</time></trkpt><trkpt lat="43.2910233" lon="11.0813167"><ele>306.0</ele><time>2026-03-28T11:04:30.044Z</time></trkpt><trkpt lat="43.2912367" lon="11.08144"><ele>307.0</ele><time>2026-03-28T11:04:31.043Z</time></trkpt><trkpt lat="43.2914617" lon="11.0815833"><ele>308.0</ele><time>2026-03-28T11:04:32.044Z</time></trkpt><trkpt lat="43.29169" lon="11.0817467"><ele>308.0</ele><time>2026-03-28T11:04:33.044Z</time></trkpt><trkpt lat="43.291915" lon="11.0819183"><ele>308.0</ele><time>2026-03-28T11:04:34.044Z</time></trkpt><trkpt lat="43.2921283" lon="11.0820783"><ele>308.33333333333337</ele><time>2026-03-28T11:04:35.044Z</time></trkpt><trkpt lat="43.29232" lon="11.0822183"><ele>308.6666666666667</ele><time>2026-03-28T11:04:36.044Z</time></trkpt><trkpt lat="43.2925033" lon="11.082355"><ele>309.0</ele><time>2026-03-28T11:04:37.044Z</time></trkpt><trkpt lat="43.29268" lon="11.0824883"><ele>309.0</ele><time>2026-03-28T11:04:38.044Z</time></trkpt><trkpt lat="43.2928417" lon="11.0826333"><ele>309.0</ele><time>2026-03-28T11:04:39.044Z</time></trkpt><trkpt lat="43.29299" lon="11.082815"><ele>309.0</ele><time>2026-03-28T11:04:40.044Z</time></trkpt><trkpt lat="43.293125" lon="11.0830267"><ele>305.0</ele><time>2026-03-28T11:04:41.044Z</time></trkpt><trkpt lat="43.2932467" lon="11.0832767"><ele>301.0</ele><time>2026-03-28T11:04:42.043Z</time></trkpt><trkpt lat="43.2933483" lon="11.0835717"><ele>301.0</ele><time>2026-03-28T11:04:43.044Z</time></trkpt><trkpt lat="43.2934167" lon="11.083875"><ele>301.0</ele><time>2026-03-28T11:04:44.044Z</time></trkpt><trkpt lat="43.2934717" lon="11.0842"><ele>303.5</ele><time>2026-03-28T11:04:45.044Z</time></trkpt><trkpt lat="43.29353" lon="11.0845267"><ele>306.0</ele><time>2026-03-28T11:04:46.044Z</time></trkpt><trkpt lat="43.2935883" lon="11.084875"><ele>308.0</ele><time>2026-03-28T11:04:47.043Z</time></trkpt><trkpt lat="43.2936367" lon="11.0852267"><ele>310.0</ele><time>2026-03-28T11:04:48.044Z</time></trkpt><trkpt lat="43.2937017" lon="11.0855633"><ele>310.5</ele><time>2026-03-28T11:04:49.044Z</time></trkpt><trkpt lat="43.29377" lon="11.0858783"><ele>311.0</ele><time>2026-03-28T11:04:50.044Z</time></trkpt><trkpt lat="43.2938367" lon="11.0861883"><ele>311.0</ele><time>2026-03-28T11:04:51.044Z</time></trkpt><trkpt lat="43.29389" lon="11.0865083"><ele>311.0</ele><time>2026-03-28T11:04:52.044Z</time></trkpt><trkpt lat="43.2939383" lon="11.0868417"><ele>309.0</ele><time>2026-03-28T11:04:53.044Z</time></trkpt><trkpt lat="43.2939767" lon="11.0871917"><ele>307.0</ele><time>2026-03-28T11:04:54.044Z</time></trkpt><trkpt lat="43.2940167" lon="11.0875567"><ele>303.0</ele><time>2026-03-28T11:04:55.044Z</time></trkpt><trkpt lat="43.294065" lon="11.0879133"><ele>299.0</ele><time>2026-03-28T11:04:56.044Z</time></trkpt><trkpt lat="43.2941183" lon="11.088275"><ele>294.5</ele><time>2026-03-28T11:04:57.044Z</time></trkpt><trkpt lat="43.2941767" lon="11.0886483"><ele>290.0</ele><time>2026-03-28T11:04:58.043Z</time></trkpt><trkpt lat="43.29424" lon="11.089025"><ele>288.0</ele><time>2026-03-28T11:04:59.043Z</time></trkpt><trkpt lat="43.2942883" lon="11.0894117"><ele>286.0</ele><time>2026-03-28T11:05:00.044Z</time></trkpt><trkpt lat="43.29434" lon="11.0898083"><ele>284.5</ele><time>2026-03-28T11:05:01.044Z</time></trkpt><trkpt lat="43.2943883" lon="11.09022"><ele>283.0</ele><time>2026-03-28T11:05:02.044Z</time></trkpt><trkpt lat="43.2944483" lon="11.0906283"><ele>283.5</ele><time>2026-03-28T11:05:03.044Z</time></trkpt><trkpt lat="43.2945017" lon="11.0910333"><ele>284.0</ele><time>2026-03-28T11:05:04.043Z</time></trkpt><trkpt lat="43.294565" lon="11.091435"><ele>285.5</ele><time>2026-03-28T11:05:05.044Z</time></trkpt><trkpt lat="43.294625" lon="11.0918367"><ele>287.0</ele><time>2026-03-28T11:05:06.044Z</time></trkpt><trkpt lat="43.2946817" lon="11.0922367"><ele>286.0</ele><time>2026-03-28T11:05:07.044Z</time></trkpt><trkpt lat="43.2947383" lon="11.0926333"><ele>285.0</ele><time>2026-03-28T11:05:08.044Z</time></trkpt><trkpt lat="43.2947883" lon="11.0930267"><ele>281.5</ele><time>2026-03-28T11:05:09.044Z</time></trkpt><trkpt lat="43.29485" lon="11.0934283"><ele>278.0</ele><time>2026-03-28T11:05:10.044Z</time></trkpt><trkpt lat="43.29491" lon="11.09383"><ele>280.0</ele><time>2026-03-28T11:05:11.043Z</time></trkpt><trkpt lat="43.2949667" lon="11.09424"><ele>282.0</ele><time>2026-03-28T11:05:12.044Z</time></trkpt><trkpt lat="43.2950183" lon="11.0946517"><ele>284.0</ele><time>2026-03-28T11:05:13.044Z</time></trkpt><trkpt lat="43.2950667" lon="11.0950817"><ele>286.0</ele><time>2026-03-28T11:05:14.044Z</time></trkpt><trkpt lat="43.2951267" lon="11.0954933"><ele>285.5</ele><time>2026-03-28T11:05:15.043Z</time></trkpt><trkpt lat="43.295185" lon="11.095915"><ele>285.0</ele><time>2026-03-28T11:05:16.044Z</time></trkpt><trkpt lat="43.2952483" lon="11.0963317"><ele>282.0</ele><time>2026-03-28T11:05:17.044Z</time></trkpt><trkpt lat="43.2952983" lon="11.0967317"><ele>279.0</ele><time>2026-03-28T11:05:18.044Z</time></trkpt><trkpt lat="43.2953517" lon="11.097105"><ele>279.0</ele><time>2026-03-28T11:05:19.044Z</time></trkpt><trkpt lat="43.2953967" lon="11.0974417"><ele>279.0</ele><time>2026-03-28T11:05:20.044Z</time></trkpt><trkpt lat="43.29544" lon="11.0977467"><ele>279.0</ele><time>2026-03-28T11:05:21.044Z</time></trkpt><trkpt lat="43.2954867" lon="11.0980433"><ele>279.0</ele><time>2026-03-28T11:05:22.044Z</time></trkpt><trkpt lat="43.295565" lon="11.0983333"><ele>279.0</ele><time>2026-03-28T11:05:23.044Z</time></trkpt><trkpt lat="43.2956867" lon="11.0986117"><ele>283.0</ele><time>2026-03-28T11:05:24.044Z</time></trkpt><trkpt lat="43.295835" lon="11.0988717"><ele>287.0</ele><time>2026-03-28T11:05:25.044Z</time></trkpt><trkpt lat="43.2960133" lon="11.099115"><ele>287.0</ele><time>2026-03-28T11:05:26.044Z</time></trkpt><trkpt lat="43.29622" lon="11.0993367"><ele>287.0</ele><time>2026-03-28T11:05:27.044Z</time></trkpt><trkpt lat="43.2964417" lon="11.09958"><ele>288.0</ele><time>2026-03-28T11:05:28.044Z</time></trkpt><trkpt lat="43.29667" lon="11.0998467"><ele>289.0</ele><time>2026-03-28T11:05:29.043Z</time></trkpt><trkpt lat="43.2968967" lon="11.100135"><ele>289.0</ele><time>2026-03-28T11:05:30.044Z</time></trkpt><trkpt lat="43.2971267" lon="11.1004267"><ele>289.0</ele><time>2026-03-28T11:05:31.043Z</time></trkpt><trkpt lat="43.29737" lon="11.100735"><ele>286.5</ele><time>2026-03-28T11:05:32.044Z</time></trkpt><trkpt lat="43.2976217" lon="11.1010417"><ele>284.0</ele><time>2026-03-28T11:05:33.043Z</time></trkpt><trkpt lat="43.2978717" lon="11.1013633"><ele>281.5</ele><time>2026-03-28T11:05:34.044Z</time></trkpt><trkpt lat="43.29811" lon="11.1016683"><ele>279.0</ele><time>2026-03-28T11:05:35.043Z</time></trkpt><trkpt lat="43.2983283" lon="11.1019417"><ele>279.0</ele><time>2026-03-28T11:05:36.044Z</time></trkpt><trkpt lat="43.298525" lon="11.102205"><ele>279.0</ele><time>2026-03-28T11:05:37.044Z</time></trkpt><trkpt lat="43.2987217" lon="11.102455"><ele>277.5</ele><time>2026-03-28T11:05:38.043Z</time></trkpt><trkpt lat="43.2989183" lon="11.1027033"><ele>276.0</ele><time>2026-03-28T11:05:39.044Z</time></trkpt><trkpt lat="43.299125" lon="11.1029567"><ele>276.0</ele><time>2026-03-28T11:05:40.044Z</time></trkpt><trkpt lat="43.2993283" lon="11.1032183"><ele>276.0</ele><time>2026-03-28T11:05:41.044Z</time></trkpt><trkpt lat="43.299525" lon="11.1034783"><ele>273.0</ele><time>2026-03-28T11:05:42.043Z</time></trkpt><trkpt lat="43.2997233" lon="11.1037317"><ele>270.0</ele><time>2026-03-28T11:05:43.044Z</time></trkpt><trkpt lat="43.2999183" lon="11.1039783"><ele>268.5</ele><time>2026-03-28T11:05:44.043Z</time></trkpt><trkpt lat="43.300115" lon="11.10423"><ele>267.0</ele><time>2026-03-28T11:05:45.044Z</time></trkpt><trkpt lat="43.300305" lon="11.1044817"><ele>267.0</ele><time>2026-03-28T11:05:46.043Z</time></trkpt><trkpt lat="43.3005017" lon="11.1047267"><ele>267.0</ele><time>2026-03-28T11:05:47.044Z</time></trkpt><trkpt lat="43.3006983" lon="11.1049733"><ele>264.0</ele><time>2026-03-28T11:05:48.044Z</time></trkpt><trkpt lat="43.3008867" lon="11.1052283"><ele>261.0</ele><time>2026-03-28T11:05:49.044Z</time></trkpt><trkpt lat="43.30109" lon="11.1054733"><ele>261.0</ele><time>2026-03-28T11:05:50.044Z</time></trkpt><trkpt lat="43.3013" lon="11.1057283"><ele>261.0</ele><time>2026-03-28T11:05:51.043Z</time></trkpt><trkpt lat="43.301505" lon="11.1059867"><ele>259.5</ele><time>2026-03-28T11:05:52.044Z</time></trkpt><trkpt lat="43.3017183" lon="11.1062517"><ele>258.0</ele><time>2026-03-28T11:05:53.043Z</time></trkpt><trkpt lat="43.3019233" lon="11.1065067"><ele>255.5</ele><time>2026-03-28T11:05:54.043Z</time></trkpt><trkpt lat="43.30213" lon="11.1067633"><ele>253.0</ele><time>2026-03-28T11:05:55.044Z</time></trkpt><trkpt lat="43.30233" lon="11.1070317"><ele>251.5</ele><time>2026-03-28T11:05:56.044Z</time></trkpt><trkpt lat="43.3025367" lon="11.1072933"><ele>250.0</ele><time>2026-03-28T11:05:57.043Z</time></trkpt><trkpt lat="43.3027467" lon="11.1075683"><ele>250.0</ele><time>2026-03-28T11:05:58.044Z</time></trkpt><trkpt lat="43.30296" lon="11.1078333"><ele>250.0</ele><time>2026-03-28T11:05:59.043Z</time></trkpt><trkpt lat="43.3031733" lon="11.1080967"><ele>247.5</ele><time>2026-03-28T11:06:00.044Z</time></trkpt><trkpt lat="43.303385" lon="11.10835"><ele>245.0</ele><time>2026-03-28T11:06:01.043Z</time></trkpt><trkpt lat="43.3035917" lon="11.1086133"><ele>245.0</ele><time>2026-03-28T11:06:02.044Z</time></trkpt><trkpt lat="43.3037867" lon="11.1088633"><ele>245.0</ele><time>2026-03-28T11:06:03.044Z</time></trkpt><trkpt lat="43.3039783" lon="11.1091133"><ele>243.0</ele><time>2026-03-28T11:06:04.044Z</time></trkpt><trkpt lat="43.3041683" lon="11.1093633"><ele>241.0</ele><time>2026-03-28T11:06:05.044Z</time></trkpt><trkpt lat="43.3043617" lon="11.109605"><ele>241.0</ele><time>2026-03-28T11:06:06.043Z</time></trkpt><trkpt lat="43.3045533" lon="11.1098333"><ele>241.0</ele><time>2026-03-28T11:06:07.043Z</time></trkpt><trkpt lat="43.304735" lon="11.1100817"><ele>238.5</ele><time>2026-03-28T11:06:08.044Z</time></trkpt><trkpt lat="43.3048967" lon="11.1103417"><ele>236.0</ele><time>2026-03-28T11:06:09.044Z</time></trkpt><trkpt lat="43.3050533" lon="11.1106233"><ele>236.0</ele><time>2026-03-28T11:06:10.044Z</time></trkpt><trkpt lat="43.3052067" lon="11.1108867"><ele>236.0</ele><time>2026-03-28T11:06:11.044Z</time></trkpt><trkpt lat="43.30536" lon="11.1111617"><ele>236.0</ele><time>2026-03-28T11:06:12.043Z</time></trkpt><trkpt lat="43.3055067" lon="11.1114367"><ele>236.0</ele><time>2026-03-28T11:06:13.044Z</time></trkpt><trkpt lat="43.305645" lon="11.1116967"><ele>235.33333333333334</ele><time>2026-03-28T11:06:14.044Z</time></trkpt><trkpt lat="43.30578" lon="11.1119367"><ele>234.66666666666669</ele><time>2026-03-28T11:06:15.043Z</time></trkpt><trkpt lat="43.30591" lon="11.1121733"><ele>234.0</ele><time>2026-03-28T11:06:16.044Z</time></trkpt><trkpt lat="43.30603" lon="11.1124033"><ele>234.33333333333331</ele><time>2026-03-28T11:06:17.044Z</time></trkpt><trkpt lat="43.306145" lon="11.1126183"><ele>234.66666666666666</ele><time>2026-03-28T11:06:18.044Z</time></trkpt><trkpt lat="43.30626" lon="11.112835"><ele>235.0</ele><time>2026-03-28T11:06:19.044Z</time></trkpt><trkpt lat="43.306365" lon="11.1130317"><ele>235.33333333333331</ele><time>2026-03-28T11:06:20.044Z</time></trkpt><trkpt lat="43.3064767" lon="11.1132167"><ele>235.66666666666669</ele><time>2026-03-28T11:06:21.043Z</time></trkpt><trkpt lat="43.30658" lon="11.1134033"><ele>236.0</ele><time>2026-03-28T11:06:22.044Z</time></trkpt><trkpt lat="43.3066767" lon="11.11357"><ele>235.60000000000002</ele><time>2026-03-28T11:06:23.044Z</time></trkpt><trkpt lat="43.3067467" lon="11.11372"><ele>235.20000000000002</ele><time>2026-03-28T11:06:24.044Z</time></trkpt><trkpt lat="43.3067917" lon="11.1138517"><ele>234.79999999999998</ele><time>2026-03-28T11:06:25.044Z</time></trkpt><trkpt lat="43.3068217" lon="11.1139417"><ele>234.39999999999998</ele><time>2026-03-28T11:06:26.043Z</time></trkpt><trkpt lat="43.3068717" lon="11.1140633"><ele>234.0</ele><time>2026-03-28T11:06:28.044Z</time></trkpt><trkpt lat="43.3069283" lon="11.1141183"><ele>234.0</ele><time>2026-03-28T11:06:38.044Z</time></trkpt><trkpt lat="43.3070333" lon="11.1141017"><ele>234.0</ele><time>2026-03-28T11:06:41.044Z</time></trkpt><trkpt lat="43.307105" lon="11.114045"><ele>234.0</ele><time>2026-03-28T11:06:42.044Z</time></trkpt><trkpt lat="43.307195" lon="11.113945"><ele>234.0</ele><time>2026-03-28T11:06:43.044Z</time></trkpt><trkpt lat="43.3073083" lon="11.113815"><ele>232.66666666666669</ele><time>2026-03-28T11:06:44.044Z</time></trkpt><trkpt lat="43.3074317" lon="11.1136817"><ele>231.33333333333334</ele><time>2026-03-28T11:06:45.044Z</time></trkpt><trkpt lat="43.3075567" lon="11.1135483"><ele>230.0</ele><time>2026-03-28T11:06:46.044Z</time></trkpt><trkpt lat="43.3076767" lon="11.1134283"><ele>230.0</ele><time>2026-03-28T11:06:47.044Z</time></trkpt><trkpt lat="43.3077767" lon="11.1133367"><ele>230.0</ele><time>2026-03-28T11:06:48.044Z</time></trkpt><trkpt lat="43.3078633" lon="11.1132517"><ele>230.0</ele><time>2026-03-28T11:06:49.044Z</time></trkpt><trkpt lat="43.3079133" lon="11.11316"><ele>230.0</ele><time>2026-03-28T11:06:50.044Z</time></trkpt><trkpt lat="43.307945" lon="11.1130717"><ele>230.0</ele><time>2026-03-28T11:06:51.044Z</time></trkpt><trkpt lat="43.30797" lon="11.1129733"><ele>230.16666666666669</ele><time>2026-03-28T11:06:53.044Z</time></trkpt><trkpt lat="43.3080267" lon="11.1129017"><ele>230.33333333333334</ele><time>2026-03-28T11:06:56.044Z</time></trkpt><trkpt lat="43.3080333" lon="11.1128083"><ele>230.5</ele><time>2026-03-28T11:06:59.044Z</time></trkpt><trkpt lat="43.3079567" lon="11.1128933"><ele>230.66666666666669</ele><time>2026-03-28T11:07:08.044Z</time></trkpt><trkpt lat="43.3080217" lon="11.112875"><ele>230.83333333333334</ele><time>2026-03-28T11:07:12.044Z</time></trkpt><trkpt lat="43.3079667" lon="11.1128133"><ele>231.0</ele><time>2026-03-28T11:07:16.044Z</time></trkpt><trkpt lat="43.3079467" lon="11.1129233"><ele>231.0</ele><time>2026-03-28T11:12:59.043Z</time></trkpt><trkpt lat="43.307895" lon="11.113015"><ele>231.00000000000003</ele><time>2026-03-28T11:13:01.044Z</time></trkpt><trkpt lat="43.3078533" lon="11.1130967"><ele>231.00000000000003</ele><time>2026-03-28T11:13:02.044Z</time></trkpt><trkpt lat="43.3078" lon="11.1131983"><ele>231.0</ele><time>2026-03-28T11:13:03.044Z</time></trkpt><trkpt lat="43.3077283" lon="11.113295"><ele>231.0</ele><time>2026-03-28T11:13:04.044Z</time></trkpt><trkpt lat="43.307635" lon="11.1133883"><ele>230.75</ele><time>2026-03-28T11:13:05.044Z</time></trkpt><trkpt lat="43.30753" lon="11.1134917"><ele>230.5</ele><time>2026-03-28T11:13:06.044Z</time></trkpt><trkpt lat="43.3074133" lon="11.11362"><ele>230.25</ele><time>2026-03-28T11:13:07.044Z</time></trkpt><trkpt lat="43.3072983" lon="11.1137383"><ele>230.0</ele><time>2026-03-28T11:13:08.044Z</time></trkpt><trkpt lat="43.3071967" lon="11.1138467"><ele>230.66666666666669</ele><time>2026-03-28T11:13:09.044Z</time></trkpt><trkpt lat="43.3071067" lon="11.113915"><ele>231.33333333333334</ele><time>2026-03-28T11:13:10.044Z</time></trkpt><trkpt lat="43.3070267" lon="11.11394"><ele>232.0</ele><time>2026-03-28T11:13:11.044Z</time></trkpt><trkpt lat="43.30695" lon="11.1139067"><ele>232.66666666666669</ele><time>2026-03-28T11:13:12.044Z</time></trkpt><trkpt lat="43.3068783" lon="11.1138433"><ele>233.33333333333334</ele><time>2026-03-28T11:13:13.043Z</time></trkpt><trkpt lat="43.3068133" lon="11.1137433"><ele>234.0</ele><time>2026-03-28T11:13:14.044Z</time></trkpt><trkpt lat="43.3067567" lon="11.1135983"><ele>234.0</ele><time>2026-03-28T11:13:15.044Z</time></trkpt><trkpt lat="43.3066783" lon="11.1134417"><ele>234.0</ele><time>2026-03-28T11:13:16.043Z</time></trkpt><trkpt lat="43.3065933" lon="11.11328"><ele>234.0</ele><time>2026-03-28T11:13:17.044Z</time></trkpt><trkpt lat="43.3065" lon="11.1131367"><ele>234.0</ele><time>2026-03-28T11:13:18.044Z</time></trkpt><trkpt lat="43.30641" lon="11.1129817"><ele>234.33333333333331</ele><time>2026-03-28T11:13:19.044Z</time></trkpt><trkpt lat="43.3063183" lon="11.1128117"><ele>234.66666666666666</ele><time>2026-03-28T11:13:20.044Z</time></trkpt><trkpt lat="43.3062133" lon="11.1126217"><ele>235.0</ele><time>2026-03-28T11:13:21.044Z</time></trkpt><trkpt lat="43.3060917" lon="11.1124133"><ele>234.66666666666666</ele><time>2026-03-28T11:13:22.043Z</time></trkpt><trkpt lat="43.3059817" lon="11.1122083"><ele>234.33333333333331</ele><time>2026-03-28T11:13:23.044Z</time></trkpt><trkpt lat="43.3058633" lon="11.11201"><ele>234.0</ele><time>2026-03-28T11:13:24.044Z</time></trkpt><trkpt lat="43.3057517" lon="11.1118067"><ele>234.0</ele><time>2026-03-28T11:13:25.043Z</time></trkpt><trkpt lat="43.3056283" lon="11.1115917"><ele>234.0</ele><time>2026-03-28T11:13:26.044Z</time></trkpt><trkpt lat="43.3055067" lon="11.111365"><ele>234.0</ele><time>2026-03-28T11:13:27.044Z</time></trkpt><trkpt lat="43.30538" lon="11.1111383"><ele>234.66666666666669</ele><time>2026-03-28T11:13:28.044Z</time></trkpt><trkpt lat="43.3052483" lon="11.1109267"><ele>235.33333333333334</ele><time>2026-03-28T11:13:29.044Z</time></trkpt><trkpt lat="43.3051283" lon="11.1107083"><ele>236.0</ele><time>2026-03-28T11:13:30.044Z</time></trkpt><trkpt lat="43.304995" lon="11.1104717"><ele>236.0</ele><time>2026-03-28T11:13:31.044Z</time></trkpt><trkpt lat="43.3048617" lon="11.11024"><ele>236.0</ele><time>2026-03-28T11:13:32.044Z</time></trkpt><trkpt lat="43.3047217" lon="11.1100117"><ele>236.0</ele><time>2026-03-28T11:13:33.044Z</time></trkpt><trkpt lat="43.30457" lon="11.109795"><ele>238.5</ele><time>2026-03-28T11:13:34.044Z</time></trkpt><trkpt lat="43.304415" lon="11.1095733"><ele>241.0</ele><time>2026-03-28T11:13:35.044Z</time></trkpt><trkpt lat="43.30424" lon="11.10934"><ele>241.0</ele><time>2026-03-28T11:13:36.044Z</time></trkpt><trkpt lat="43.3040683" lon="11.10913"><ele>241.0</ele><time>2026-03-28T11:13:37.044Z</time></trkpt><trkpt lat="43.3038833" lon="11.108925"><ele>243.0</ele><time>2026-03-28T11:13:38.044Z</time></trkpt><trkpt lat="43.3036967" lon="11.1087133"><ele>245.0</ele><time>2026-03-28T11:13:39.044Z</time></trkpt><trkpt lat="43.3035067" lon="11.1084883"><ele>245.0</ele><time>2026-03-28T11:13:40.043Z</time></trkpt><trkpt lat="43.3033383" lon="11.108255"><ele>245.0</ele><time>2026-03-28T11:13:41.044Z</time></trkpt><trkpt lat="43.30316" lon="11.108015"><ele>247.5</ele><time>2026-03-28T11:13:42.044Z</time></trkpt><trkpt lat="43.3029617" lon="11.1077683"><ele>250.0</ele><time>2026-03-28T11:13:43.043Z</time></trkpt><trkpt lat="43.3027733" lon="11.1075167"><ele>250.0</ele><time>2026-03-28T11:13:44.043Z</time></trkpt><trkpt lat="43.3025783" lon="11.107275"><ele>250.0</ele><time>2026-03-28T11:13:45.043Z</time></trkpt><trkpt lat="43.3023817" lon="11.1070167"><ele>251.5</ele><time>2026-03-28T11:13:46.044Z</time></trkpt><trkpt lat="43.3021683" lon="11.106755"><ele>253.0</ele><time>2026-03-28T11:13:47.044Z</time></trkpt><trkpt lat="43.301955" lon="11.1064867"><ele>255.5</ele><time>2026-03-28T11:13:48.044Z</time></trkpt><trkpt lat="43.3017483" lon="11.1062283"><ele>258.0</ele><time>2026-03-28T11:13:49.044Z</time></trkpt><trkpt lat="43.3015283" lon="11.1059717"><ele>259.5</ele><time>2026-03-28T11:13:50.044Z</time></trkpt><trkpt lat="43.3013133" lon="11.1057133"><ele>261.0</ele><time>2026-03-28T11:13:51.044Z</time></trkpt><trkpt lat="43.3011" lon="11.1054517"><ele>261.0</ele><time>2026-03-28T11:13:52.044Z</time></trkpt><trkpt lat="43.300895" lon="11.1051683"><ele>261.0</ele><time>2026-03-28T11:13:53.043Z</time></trkpt><trkpt lat="43.3006967" lon="11.1048983"><ele>264.0</ele><time>2026-03-28T11:13:54.044Z</time></trkpt><trkpt lat="43.3004917" lon="11.1046367"><ele>267.0</ele><time>2026-03-28T11:13:55.043Z</time></trkpt><trkpt lat="43.3002967" lon="11.104375"><ele>267.0</ele><time>2026-03-28T11:13:56.044Z</time></trkpt><trkpt lat="43.3000883" lon="11.1041133"><ele>267.0</ele><time>2026-03-28T11:13:57.044Z</time></trkpt><trkpt lat="43.2998867" lon="11.1038567"><ele>268.5</ele><time>2026-03-28T11:13:58.043Z</time></trkpt><trkpt lat="43.2996767" lon="11.103575"><ele>270.0</ele><time>2026-03-28T11:13:59.044Z</time></trkpt><trkpt lat="43.2994633" lon="11.103305"><ele>273.0</ele><time>2026-03-28T11:14:00.043Z</time></trkpt><trkpt lat="43.2992517" lon="11.1030317"><ele>276.0</ele><time>2026-03-28T11:14:01.043Z</time></trkpt><trkpt lat="43.29904" lon="11.102765"><ele>275.0</ele><time>2026-03-28T11:14:02.044Z</time></trkpt><trkpt lat="43.2988283" lon="11.10251"><ele>274.0</ele><time>2026-03-28T11:14:03.044Z</time></trkpt><trkpt lat="43.2986133" lon="11.1022383"><ele>276.5</ele><time>2026-03-28T11:14:04.044Z</time></trkpt><trkpt lat="43.298395" lon="11.101985"><ele>279.0</ele><time>2026-03-28T11:14:05.044Z</time></trkpt><trkpt lat="43.29819" lon="11.101715"><ele>281.5</ele><time>2026-03-28T11:14:06.044Z</time></trkpt><trkpt lat="43.2979767" lon="11.101445"><ele>284.0</ele><time>2026-03-28T11:14:07.044Z</time></trkpt><trkpt lat="43.2977717" lon="11.101175"><ele>284.0</ele><time>2026-03-28T11:14:08.043Z</time></trkpt><trkpt lat="43.29757" lon="11.1009233"><ele>284.0</ele><time>2026-03-28T11:14:09.044Z</time></trkpt><trkpt lat="43.2973933" lon="11.1006967"><ele>284.33333333333337</ele><time>2026-03-28T11:14:10.044Z</time></trkpt><trkpt lat="43.2972283" lon="11.10051"><ele>284.6666666666667</ele><time>2026-03-28T11:14:11.044Z</time></trkpt><trkpt lat="43.29706" lon="11.1003233"><ele>285.0</ele><time>2026-03-28T11:14:12.043Z</time></trkpt><trkpt lat="43.296905" lon="11.1001167"><ele>286.3333333333333</ele><time>2026-03-28T11:14:13.044Z</time></trkpt><trkpt lat="43.2967383" lon="11.0999117"><ele>287.66666666666663</ele><time>2026-03-28T11:14:14.044Z</time></trkpt><trkpt lat="43.2965783" lon="11.0997017"><ele>289.0</ele><time>2026-03-28T11:14:15.044Z</time></trkpt><trkpt lat="43.2964367" lon="11.0995067"><ele>288.3333333333333</ele><time>2026-03-28T11:14:16.044Z</time></trkpt><trkpt lat="43.296285" lon="11.099305"><ele>287.6666666666667</ele><time>2026-03-28T11:14:17.044Z</time></trkpt><trkpt lat="43.29612" lon="11.0991233"><ele>287.0</ele><time>2026-03-28T11:14:18.044Z</time></trkpt><trkpt lat="43.29596" lon="11.0989167"><ele>288.33333333333337</ele><time>2026-03-28T11:14:19.044Z</time></trkpt><trkpt lat="43.2958183" lon="11.098725"><ele>289.6666666666667</ele><time>2026-03-28T11:14:20.044Z</time></trkpt><trkpt lat="43.2956867" lon="11.09852"><ele>291.0</ele><time>2026-03-28T11:14:21.044Z</time></trkpt><trkpt lat="43.295575" lon="11.09829"><ele>287.0</ele><time>2026-03-28T11:14:22.043Z</time></trkpt><trkpt lat="43.2954917" lon="11.0980417"><ele>283.0</ele><time>2026-03-28T11:14:23.044Z</time></trkpt><trkpt lat="43.2954467" lon="11.09775"><ele>279.0</ele><time>2026-03-28T11:14:24.044Z</time></trkpt><trkpt lat="43.2953933" lon="11.09744"><ele>279.0</ele><time>2026-03-28T11:14:25.043Z</time></trkpt><trkpt lat="43.2953567" lon="11.0971"><ele>279.0</ele><time>2026-03-28T11:14:26.044Z</time></trkpt><trkpt lat="43.2953183" lon="11.096765"><ele>282.0</ele><time>2026-03-28T11:14:27.044Z</time></trkpt><trkpt lat="43.2952817" lon="11.0964117"><ele>285.0</ele><time>2026-03-28T11:14:28.044Z</time></trkpt><trkpt lat="43.2952433" lon="11.0960533"><ele>285.5</ele><time>2026-03-28T11:14:29.044Z</time></trkpt><trkpt lat="43.2951983" lon="11.095695"><ele>286.0</ele><time>2026-03-28T11:14:30.044Z</time></trkpt><trkpt lat="43.295135" lon="11.0953267"><ele>286.0</ele><time>2026-03-28T11:14:31.044Z</time></trkpt><trkpt lat="43.29508" lon="11.0949433"><ele>286.0</ele><time>2026-03-28T11:14:32.044Z</time></trkpt><trkpt lat="43.2950367" lon="11.0945667"><ele>284.0</ele><time>2026-03-28T11:14:33.044Z</time></trkpt><trkpt lat="43.2949883" lon="11.0941783"><ele>282.0</ele><time>2026-03-28T11:14:34.043Z</time></trkpt><trkpt lat="43.2949367" lon="11.0937933"><ele>280.0</ele><time>2026-03-28T11:14:35.044Z</time></trkpt><trkpt lat="43.2948817" lon="11.09341"><ele>278.0</ele><time>2026-03-28T11:14:36.044Z</time></trkpt><trkpt lat="43.2948283" lon="11.0930217"><ele>281.5</ele><time>2026-03-28T11:14:37.043Z</time></trkpt><trkpt lat="43.2947517" lon="11.0926383"><ele>285.0</ele><time>2026-03-28T11:14:38.044Z</time></trkpt><trkpt lat="43.2946967" lon="11.0922517"><ele>284.5</ele><time>2026-03-28T11:14:39.044Z</time></trkpt><trkpt lat="43.2946383" lon="11.0918567"><ele>284.0</ele><time>2026-03-28T11:14:40.044Z</time></trkpt><trkpt lat="43.2945867" lon="11.0914633"><ele>284.0</ele><time>2026-03-28T11:14:41.044Z</time></trkpt><trkpt lat="43.294535" lon="11.0910667"><ele>284.0</ele><time>2026-03-28T11:14:42.043Z</time></trkpt><trkpt lat="43.294485" lon="11.0906667"><ele>283.5</ele><time>2026-03-28T11:14:43.044Z</time></trkpt><trkpt lat="43.29442" lon="11.0902883"><ele>283.0</ele><time>2026-03-28T11:14:44.044Z</time></trkpt><trkpt lat="43.2943733" lon="11.0898867"><ele>284.5</ele><time>2026-03-28T11:14:45.043Z</time></trkpt><trkpt lat="43.2943183" lon="11.0894833"><ele>286.0</ele><time>2026-03-28T11:14:46.044Z</time></trkpt><trkpt lat="43.29426" lon="11.0891"><ele>288.0</ele><time>2026-03-28T11:14:47.044Z</time></trkpt><trkpt lat="43.2942083" lon="11.088735"><ele>290.0</ele><time>2026-03-28T11:14:48.043Z</time></trkpt><trkpt lat="43.2941683" lon="11.0883933"><ele>294.5</ele><time>2026-03-28T11:14:49.044Z</time></trkpt><trkpt lat="43.2941133" lon="11.088075"><ele>299.0</ele><time>2026-03-28T11:14:50.044Z</time></trkpt><trkpt lat="43.2940717" lon="11.0877567"><ele>299.0</ele><time>2026-03-28T11:14:51.044Z</time></trkpt><trkpt lat="43.29403" lon="11.0874417"><ele>299.0</ele><time>2026-03-28T11:14:52.044Z</time></trkpt><trkpt lat="43.2939933" lon="11.0871417"><ele>301.6666666666667</ele><time>2026-03-28T11:14:53.043Z</time></trkpt><trkpt lat="43.29395" lon="11.0868433"><ele>304.3333333333333</ele><time>2026-03-28T11:14:54.044Z</time></trkpt><trkpt lat="43.29391" lon="11.0865567"><ele>307.0</ele><time>2026-03-28T11:14:55.044Z</time></trkpt><trkpt lat="43.2938667" lon="11.08628"><ele>308.0</ele><time>2026-03-28T11:14:56.044Z</time></trkpt><trkpt lat="43.2938233" lon="11.0860067"><ele>309.0</ele><time>2026-03-28T11:14:57.044Z</time></trkpt><trkpt lat="43.2937733" lon="11.0857233"><ele>310.0</ele><time>2026-03-28T11:14:58.043Z</time></trkpt><trkpt lat="43.293715" lon="11.0854317"><ele>310.0</ele><time>2026-03-28T11:14:59.044Z</time></trkpt><trkpt lat="43.2936533" lon="11.0851317"><ele>310.0</ele><time>2026-03-28T11:15:00.044Z</time></trkpt><trkpt lat="43.29359" lon="11.084815"><ele>308.66666666666663</ele><time>2026-03-28T11:15:01.044Z</time></trkpt><trkpt lat="43.2935267" lon="11.0845183"><ele>307.3333333333333</ele><time>2026-03-28T11:15:02.044Z</time></trkpt><trkpt lat="43.2934717" lon="11.0842283"><ele>306.0</ele><time>2026-03-28T11:15:03.044Z</time></trkpt><trkpt lat="43.293425" lon="11.0839517"><ele>304.3333333333333</ele><time>2026-03-28T11:15:04.044Z</time></trkpt><trkpt lat="43.2933617" lon="11.0836933"><ele>302.66666666666663</ele><time>2026-03-28T11:15:05.044Z</time></trkpt><trkpt lat="43.29328" lon="11.083435"><ele>301.0</ele><time>2026-03-28T11:15:06.044Z</time></trkpt><trkpt lat="43.2931967" lon="11.08318"><ele>303.66666666666663</ele><time>2026-03-28T11:15:07.044Z</time></trkpt><trkpt lat="43.293075" lon="11.0829433"><ele>306.3333333333333</ele><time>2026-03-28T11:15:08.044Z</time></trkpt><trkpt lat="43.29293" lon="11.08272"><ele>309.0</ele><time>2026-03-28T11:15:09.044Z</time></trkpt><trkpt lat="43.2927917" lon="11.0825333"><ele>306.75</ele><time>2026-03-28T11:15:10.043Z</time></trkpt><trkpt lat="43.2926633" lon="11.082415"><ele>304.5</ele><time>2026-03-28T11:15:11.044Z</time></trkpt><trkpt lat="43.2925617" lon="11.082325"><ele>302.25</ele><time>2026-03-28T11:15:12.043Z</time></trkpt><trkpt lat="43.2924867" lon="11.0822683"><ele>300.0</ele><time>2026-03-28T11:15:13.043Z</time></trkpt><trkpt lat="43.2923883" lon="11.082225"><ele>300.0</ele><time>2026-03-28T11:15:15.043Z</time></trkpt><trkpt lat="43.2923367" lon="11.0822883"><ele>300.0</ele><time>2026-03-28T11:15:17.044Z</time></trkpt><trkpt lat="43.2923583" lon="11.0823733"><ele>300.0</ele><time>2026-03-28T11:15:19.044Z</time></trkpt><trkpt lat="43.2923633" lon="11.0822833"><ele>300.0</ele><time>2026-03-28T11:15:29.044Z</time></trkpt><trkpt lat="43.292325" lon="11.0822067"><ele>300.0</ele><time>2026-03-28T11:15:31.044Z</time></trkpt><trkpt lat="43.29222" lon="11.0820867"><ele>300.0</ele><time>2026-03-28T11:15:33.044Z</time></trkpt><trkpt lat="43.29214" lon="11.0820233"><ele>302.0</ele><time>2026-03-28T11:15:34.044Z</time></trkpt><trkpt lat="43.2920433" lon="11.0819567"><ele>304.0</ele><time>2026-03-28T11:15:35.044Z</time></trkpt><trkpt lat="43.2919383" lon="11.08189"><ele>306.0</ele><time>2026-03-28T11:15:36.044Z</time></trkpt><trkpt lat="43.2918267" lon="11.0818017"><ele>308.0</ele><time>2026-03-28T11:15:37.044Z</time></trkpt><trkpt lat="43.2916967" lon="11.081705"><ele>308.0</ele><time>2026-03-28T11:15:38.044Z</time></trkpt><trkpt lat="43.2915433" lon="11.0816117"><ele>308.0</ele><time>2026-03-28T11:15:39.043Z</time></trkpt><trkpt lat="43.29141" lon="11.0815067"><ele>308.0</ele><time>2026-03-28T11:15:40.044Z</time></trkpt><trkpt lat="43.2912533" lon="11.0813983"><ele>307.33333333333337</ele><time>2026-03-28T11:15:41.044Z</time></trkpt><trkpt lat="43.2911" lon="11.0812783"><ele>306.6666666666667</ele><time>2026-03-28T11:15:42.044Z</time></trkpt><trkpt lat="43.2909367" lon="11.0811617"><ele>306.0</ele><time>2026-03-28T11:15:43.044Z</time></trkpt><trkpt lat="43.2907817" lon="11.0810483"><ele>306.0</ele><time>2026-03-28T11:15:44.044Z</time></trkpt><trkpt lat="43.29063" lon="11.0809333"><ele>306.0</ele><time>2026-03-28T11:15:45.044Z</time></trkpt><trkpt lat="43.290495" lon="11.08081"><ele>306.0</ele><time>2026-03-28T11:15:46.044Z</time></trkpt><trkpt lat="43.2903833" lon="11.080665"><ele>308.6666666666667</ele><time>2026-03-28T11:15:47.044Z</time></trkpt><trkpt lat="43.2903067" lon="11.0804833"><ele>311.33333333333337</ele><time>2026-03-28T11:15:48.044Z</time></trkpt><trkpt lat="43.2902583" lon="11.0802733"><ele>314.0</ele><time>2026-03-28T11:15:49.044Z</time></trkpt><trkpt lat="43.2902433" lon="11.0800617"><ele>315.33333333333337</ele><time>2026-03-28T11:15:50.044Z</time></trkpt><trkpt lat="43.2902617" lon="11.0798633"><ele>316.6666666666667</ele><time>2026-03-28T11:15:51.044Z</time></trkpt><trkpt lat="43.2903117" lon="11.0796567"><ele>318.0</ele><time>2026-03-28T11:15:52.044Z</time></trkpt><trkpt lat="43.2904017" lon="11.0794733"><ele>318.0</ele><time>2026-03-28T11:15:53.044Z</time></trkpt><trkpt lat="43.2904967" lon="11.0793217"><ele>318.0</ele><time>2026-03-28T11:15:54.044Z</time></trkpt><trkpt lat="43.29061" lon="11.079205"><ele>318.0</ele><time>2026-03-28T11:15:55.044Z</time></trkpt><trkpt lat="43.2907383" lon="11.079095"><ele>318.0</ele><time>2026-03-28T11:15:56.044Z</time></trkpt><trkpt lat="43.2908833" lon="11.07898"><ele>319.3333333333333</ele><time>2026-03-28T11:15:57.044Z</time></trkpt><trkpt lat="43.291025" lon="11.0788633"><ele>320.66666666666663</ele><time>2026-03-28T11:15:58.044Z</time></trkpt><trkpt lat="43.2911783" lon="11.07874"><ele>322.0</ele><time>2026-03-28T11:15:59.044Z</time></trkpt><trkpt lat="43.2913317" lon="11.07861"><ele>322.66666666666663</ele><time>2026-03-28T11:16:00.044Z</time></trkpt><trkpt lat="43.2914883" lon="11.0784633"><ele>323.3333333333333</ele><time>2026-03-28T11:16:01.044Z</time></trkpt><trkpt lat="43.2916167" lon="11.0782933"><ele>324.0</ele><time>2026-03-28T11:16:02.043Z</time></trkpt><trkpt lat="43.2917167" lon="11.078105"><ele>324.0</ele><time>2026-03-28T11:16:03.044Z</time></trkpt><trkpt lat="43.2917733" lon="11.077875"><ele>324.0</ele><time>2026-03-28T11:16:04.044Z</time></trkpt><trkpt lat="43.2918" lon="11.0776217"><ele>324.0</ele><time>2026-03-28T11:16:05.044Z</time></trkpt><trkpt lat="43.2917867" lon="11.07739"><ele>325.3333333333333</ele><time>2026-03-28T11:16:06.044Z</time></trkpt><trkpt lat="43.29175" lon="11.0771633"><ele>326.66666666666663</ele><time>2026-03-28T11:16:07.044Z</time></trkpt><trkpt lat="43.2916883" lon="11.0769383"><ele>328.0</ele><time>2026-03-28T11:16:08.044Z</time></trkpt><trkpt lat="43.291595" lon="11.07674"><ele>327.3333333333333</ele><time>2026-03-28T11:16:09.044Z</time></trkpt><trkpt lat="43.2914783" lon="11.0765567"><ele>326.6666666666667</ele><time>2026-03-28T11:16:10.044Z</time></trkpt><trkpt lat="43.29132" lon="11.0764067"><ele>326.0</ele><time>2026-03-28T11:16:11.043Z</time></trkpt><trkpt lat="43.2911567" lon="11.0762583"><ele>329.6666666666667</ele><time>2026-03-28T11:16:12.044Z</time></trkpt><trkpt lat="43.2909817" lon="11.076085"><ele>333.3333333333333</ele><time>2026-03-28T11:16:13.044Z</time></trkpt><trkpt lat="43.290805" lon="11.0758983"><ele>337.0</ele><time>2026-03-28T11:16:14.044Z</time></trkpt><trkpt lat="43.29063" lon="11.07571"><ele>342.0</ele><time>2026-03-28T11:16:15.044Z</time></trkpt><trkpt lat="43.29049" lon="11.07551"><ele>347.0</ele><time>2026-03-28T11:16:16.044Z</time></trkpt><trkpt lat="43.290355" lon="11.0753117"><ele>352.0</ele><time>2026-03-28T11:16:17.043Z</time></trkpt><trkpt lat="43.2902483" lon="11.0750883"><ele>353.3333333333333</ele><time>2026-03-28T11:16:18.044Z</time></trkpt><trkpt lat="43.2901683" lon="11.0748483"><ele>354.6666666666667</ele><time>2026-03-28T11:16:19.043Z</time></trkpt><trkpt lat="43.2901167" lon="11.0745883"><ele>356.0</ele><time>2026-03-28T11:16:20.044Z</time></trkpt><trkpt lat="43.2901117" lon="11.0743033"><ele>358.33333333333337</ele><time>2026-03-28T11:16:21.044Z</time></trkpt><trkpt lat="43.2901267" lon="11.0740233"><ele>360.6666666666667</ele><time>2026-03-28T11:16:22.043Z</time></trkpt><trkpt lat="43.2901883" lon="11.0737417"><ele>363.0</ele><time>2026-03-28T11:16:23.044Z</time></trkpt><trkpt lat="43.29029" lon="11.073465"><ele>367.5</ele><time>2026-03-28T11:16:24.044Z</time></trkpt><trkpt lat="43.2904117" lon="11.073195"><ele>372.0</ele><time>2026-03-28T11:16:25.044Z</time></trkpt><trkpt lat="43.29054" lon="11.0729133"><ele>369.0</ele><time>2026-03-28T11:16:26.044Z</time></trkpt><trkpt lat="43.2906583" lon="11.072645"><ele>366.0</ele><time>2026-03-28T11:16:27.043Z</time></trkpt><trkpt lat="43.2907733" lon="11.0723933"><ele>363.0</ele><time>2026-03-28T11:16:28.044Z</time></trkpt><trkpt lat="43.2908733" lon="11.0721633"><ele>363.0</ele><time>2026-03-28T11:16:29.043Z</time></trkpt><trkpt lat="43.2909617" lon="11.07195"><ele>363.0</ele><time>2026-03-28T11:16:30.044Z</time></trkpt><trkpt lat="43.2910383" lon="11.0717533"><ele>363.0</ele><time>2026-03-28T11:16:31.044Z</time></trkpt><trkpt lat="43.2911083" lon="11.0715717"><ele>364.25</ele><time>2026-03-28T11:16:32.044Z</time></trkpt><trkpt lat="43.2911783" lon="11.0714"><ele>365.5</ele><time>2026-03-28T11:16:33.044Z</time></trkpt><trkpt lat="43.291245" lon="11.0712217"><ele>366.75</ele><time>2026-03-28T11:16:34.044Z</time></trkpt><trkpt lat="43.29129" lon="11.0710483"><ele>368.0</ele><time>2026-03-28T11:16:35.044Z</time></trkpt><trkpt lat="43.2912967" lon="11.0709017"><ele>368.0</ele><time>2026-03-28T11:16:36.044Z</time></trkpt><trkpt lat="43.2912867" lon="11.0707817"><ele>368.0</ele><time>2026-03-28T11:16:37.044Z</time></trkpt><trkpt lat="43.2912633" lon="11.070665"><ele>368.0</ele><time>2026-03-28T11:16:38.044Z</time></trkpt><trkpt lat="43.2912183" lon="11.0705417"><ele>368.0</ele><time>2026-03-28T11:16:39.044Z</time></trkpt><trkpt lat="43.2911533" lon="11.0704117"><ele>368.0</ele><time>2026-03-28T11:16:40.044Z</time></trkpt><trkpt lat="43.29106" lon="11.0702817"><ele>368.6666666666667</ele><time>2026-03-28T11:16:41.044Z</time></trkpt><trkpt lat="43.2909417" lon="11.0701633"><ele>369.3333333333333</ele><time>2026-03-28T11:16:42.044Z</time></trkpt><trkpt lat="43.2908017" lon="11.0700733"><ele>370.0</ele><time>2026-03-28T11:16:43.044Z</time></trkpt><trkpt lat="43.2906467" lon="11.0700167"><ele>368.66666666666663</ele><time>2026-03-28T11:16:44.044Z</time></trkpt><trkpt lat="43.2904817" lon="11.0700083"><ele>367.3333333333333</ele><time>2026-03-28T11:16:45.044Z</time></trkpt><trkpt lat="43.2903133" lon="11.0700717"><ele>366.0</ele><time>2026-03-28T11:16:46.044Z</time></trkpt><trkpt lat="43.2901633" lon="11.0701933"><ele>366.0</ele><time>2026-03-28T11:16:47.044Z</time></trkpt><trkpt lat="43.2900083" lon="11.0703333"><ele>366.0</ele><time>2026-03-28T11:16:48.043Z</time></trkpt><trkpt lat="43.289845" lon="11.070465"><ele>366.0</ele><time>2026-03-28T11:16:49.044Z</time></trkpt><trkpt lat="43.2896917" lon="11.070585"><ele>364.3333333333333</ele><time>2026-03-28T11:16:50.044Z</time></trkpt><trkpt lat="43.2895317" lon="11.0706667"><ele>362.66666666666663</ele><time>2026-03-28T11:16:51.044Z</time></trkpt><trkpt lat="43.2893367" lon="11.0707333"><ele>361.0</ele><time>2026-03-28T11:16:52.044Z</time></trkpt><trkpt lat="43.2891517" lon="11.0707917"><ele>364.66666666666663</ele><time>2026-03-28T11:16:53.043Z</time></trkpt><trkpt lat="43.2889733" lon="11.070885"><ele>368.3333333333333</ele><time>2026-03-28T11:16:54.044Z</time></trkpt><trkpt lat="43.2888083" lon="11.0710267"><ele>372.0</ele><time>2026-03-28T11:16:55.044Z</time></trkpt><trkpt lat="43.2886767" lon="11.0711883"><ele>372.0</ele><time>2026-03-28T11:16:56.044Z</time></trkpt><trkpt lat="43.2885483" lon="11.07133"><ele>372.0</ele><time>2026-03-28T11:16:57.044Z</time></trkpt><trkpt lat="43.2884217" lon="11.0714417"><ele>372.0</ele><time>2026-03-28T11:16:58.044Z</time></trkpt><trkpt lat="43.288305" lon="11.0715117"><ele>372.0</ele><time>2026-03-28T11:16:59.044Z</time></trkpt><trkpt lat="43.2881733" lon="11.07151"><ele>376.25</ele><time>2026-03-28T11:17:00.044Z</time></trkpt><trkpt lat="43.288055" lon="11.0714317"><ele>380.5</ele><time>2026-03-28T11:17:01.044Z</time></trkpt><trkpt lat="43.2879517" lon="11.0713117"><ele>384.75</ele><time>2026-03-28T11:17:02.044Z</time></trkpt><trkpt lat="43.28788" lon="11.0711483"><ele>389.0</ele><time>2026-03-28T11:17:03.044Z</time></trkpt><trkpt lat="43.2878433" lon="11.0709367"><ele>390.0</ele><time>2026-03-28T11:17:04.044Z</time></trkpt><trkpt lat="43.2878683" lon="11.0707067"><ele>391.0</ele><time>2026-03-28T11:17:05.044Z</time></trkpt><trkpt lat="43.28795" lon="11.0704567"><ele>392.0</ele><time>2026-03-28T11:17:06.044Z</time></trkpt><trkpt lat="43.2880417" lon="11.0701967"><ele>385.66666666666663</ele><time>2026-03-28T11:17:07.044Z</time></trkpt><trkpt lat="43.2881183" lon="11.0699333"><ele>379.3333333333333</ele><time>2026-03-28T11:17:08.044Z</time></trkpt><trkpt lat="43.2881733" lon="11.06966"><ele>373.0</ele><time>2026-03-28T11:17:09.044Z</time></trkpt><trkpt lat="43.2881833" lon="11.0693867"><ele>372.66666666666663</ele><time>2026-03-28T11:17:10.043Z</time></trkpt><trkpt lat="43.288175" lon="11.0690967"><ele>372.3333333333333</ele><time>2026-03-28T11:17:11.044Z</time></trkpt><trkpt lat="43.2881567" lon="11.0687933"><ele>372.0</ele><time>2026-03-28T11:17:12.043Z</time></trkpt><trkpt lat="43.2881283" lon="11.068495"><ele>373.6666666666667</ele><time>2026-03-28T11:17:13.044Z</time></trkpt><trkpt lat="43.2881417" lon="11.068195"><ele>375.33333333333337</ele><time>2026-03-28T11:17:14.044Z</time></trkpt><trkpt lat="43.2881917" lon="11.0679167"><ele>377.0</ele><time>2026-03-28T11:17:15.044Z</time></trkpt><trkpt lat="43.2882533" lon="11.06763"><ele>376.33333333333337</ele><time>2026-03-28T11:17:16.044Z</time></trkpt><trkpt lat="43.2883" lon="11.0673417"><ele>375.6666666666667</ele><time>2026-03-28T11:17:17.044Z</time></trkpt><trkpt lat="43.28831" lon="11.06704"><ele>375.0</ele><time>2026-03-28T11:17:18.044Z</time></trkpt><trkpt lat="43.28829" lon="11.0667467"><ele>373.6666666666667</ele><time>2026-03-28T11:17:19.044Z</time></trkpt><trkpt lat="43.288255" lon="11.066455"><ele>372.33333333333337</ele><time>2026-03-28T11:17:20.044Z</time></trkpt><trkpt lat="43.2882033" lon="11.066165"><ele>371.0</ele><time>2026-03-28T11:17:21.044Z</time></trkpt><trkpt lat="43.288125" lon="11.06588"><ele>374.0</ele><time>2026-03-28T11:17:22.044Z</time></trkpt><trkpt lat="43.2880483" lon="11.065595"><ele>377.0</ele><time>2026-03-28T11:17:23.044Z</time></trkpt><trkpt lat="43.287975" lon="11.065305"><ele>380.0</ele><time>2026-03-28T11:17:24.044Z</time></trkpt><trkpt lat="43.2879117" lon="11.0650183"><ele>380.33333333333337</ele><time>2026-03-28T11:17:25.044Z</time></trkpt><trkpt lat="43.2878417" lon="11.0647217"><ele>380.6666666666667</ele><time>2026-03-28T11:17:26.044Z</time></trkpt><trkpt lat="43.2877917" lon="11.064435"><ele>381.0</ele><time>2026-03-28T11:17:27.044Z</time></trkpt><trkpt lat="43.2877233" lon="11.064155"><ele>379.6666666666667</ele><time>2026-03-28T11:17:28.043Z</time></trkpt><trkpt lat="43.28766" lon="11.0638867"><ele>378.33333333333337</ele><time>2026-03-28T11:17:29.044Z</time></trkpt><trkpt lat="43.2875967" lon="11.06363"><ele>377.0</ele><time>2026-03-28T11:17:30.044Z</time></trkpt><trkpt lat="43.2875267" lon="11.0633783"><ele>378.0</ele><time>2026-03-28T11:17:31.044Z</time></trkpt><trkpt lat="43.2874283" lon="11.0631317"><ele>379.0</ele><time>2026-03-28T11:17:32.044Z</time></trkpt><trkpt lat="43.2873133" lon="11.0628983"><ele>380.0</ele><time>2026-03-28T11:17:33.044Z</time></trkpt><trkpt lat="43.2871833" lon="11.0626733"><ele>380.0</ele><time>2026-03-28T11:17:34.044Z</time></trkpt><trkpt lat="43.2870317" lon="11.0624733"><ele>380.0</ele><time>2026-03-28T11:17:35.043Z</time></trkpt><trkpt lat="43.2868783" lon="11.0622983"><ele>380.0</ele><time>2026-03-28T11:17:36.044Z</time></trkpt><trkpt lat="43.2867" lon="11.0621483"><ele>379.6666666666667</ele><time>2026-03-28T11:17:37.044Z</time></trkpt><trkpt lat="43.2865117" lon="11.062015"><ele>379.3333333333333</ele><time>2026-03-28T11:17:38.044Z</time></trkpt><trkpt lat="43.28632" lon="11.061895"><ele>379.0</ele><time>2026-03-28T11:17:39.043Z</time></trkpt><trkpt lat="43.2861333" lon="11.06176"><ele>377.0</ele><time>2026-03-28T11:17:40.044Z</time></trkpt><trkpt lat="43.2859517" lon="11.061605"><ele>375.0</ele><time>2026-03-28T11:17:41.044Z</time></trkpt><trkpt lat="43.285785" lon="11.0614283"><ele>373.0</ele><time>2026-03-28T11:17:42.044Z</time></trkpt><trkpt lat="43.2856367" lon="11.0612283"><ele>374.66666666666663</ele><time>2026-03-28T11:17:43.043Z</time></trkpt><trkpt lat="43.2855" lon="11.06101"><ele>376.3333333333333</ele><time>2026-03-28T11:17:44.044Z</time></trkpt><trkpt lat="43.2853733" lon="11.06077"><ele>378.0</ele><time>2026-03-28T11:17:45.044Z</time></trkpt><trkpt lat="43.2852583" lon="11.0605233"><ele>378.0</ele><time>2026-03-28T11:17:46.043Z</time></trkpt><trkpt lat="43.28515" lon="11.0602733"><ele>378.0</ele><time>2026-03-28T11:17:47.044Z</time></trkpt><trkpt lat="43.28505" lon="11.0600217"><ele>378.0</ele><time>2026-03-28T11:17:48.044Z</time></trkpt><trkpt lat="43.2849467" lon="11.05979"><ele>378.6666666666667</ele><time>2026-03-28T11:17:49.044Z</time></trkpt><trkpt lat="43.2848367" lon="11.0595717"><ele>379.33333333333337</ele><time>2026-03-28T11:17:50.044Z</time></trkpt><trkpt lat="43.2847383" lon="11.0593717"><ele>380.0</ele><time>2026-03-28T11:17:51.043Z</time></trkpt><trkpt lat="43.2846517" lon="11.05922"><ele>380.0</ele><time>2026-03-28T11:17:52.044Z</time></trkpt><trkpt lat="43.2845733" lon="11.0591317"><ele>380.0</ele><time>2026-03-28T11:17:53.043Z</time></trkpt><trkpt lat="43.28448" lon="11.0591"><ele>380.0</ele><time>2026-03-28T11:17:54.044Z</time></trkpt><trkpt lat="43.2843667" lon="11.0591117"><ele>380.0</ele><time>2026-03-28T11:17:55.044Z</time></trkpt><trkpt lat="43.2842333" lon="11.05912"><ele>380.0</ele><time>2026-03-28T11:17:56.044Z</time></trkpt><trkpt lat="43.28409" lon="11.0590917"><ele>379.25</ele><time>2026-03-28T11:17:57.044Z</time></trkpt><trkpt lat="43.2839483" lon="11.0590167"><ele>378.5</ele><time>2026-03-28T11:17:58.044Z</time></trkpt><trkpt lat="43.2838233" lon="11.0589117"><ele>377.75</ele><time>2026-03-28T11:17:59.044Z</time></trkpt><trkpt lat="43.2837117" lon="11.058795"><ele>377.0</ele><time>2026-03-28T11:18:00.044Z</time></trkpt><trkpt lat="43.283635" lon="11.058665"><ele>377.0</ele><time>2026-03-28T11:18:01.044Z</time></trkpt><trkpt lat="43.2835817" lon="11.05852"><ele>377.0</ele><time>2026-03-28T11:18:02.044Z</time></trkpt><trkpt lat="43.2835467" lon="11.0583833"><ele>377.0</ele><time>2026-03-28T11:18:03.044Z</time></trkpt><trkpt lat="43.283525" lon="11.0582783"><ele>377.0</ele><time>2026-03-28T11:18:04.044Z</time></trkpt><trkpt lat="43.28351" lon="11.0581733"><ele>377.0</ele><time>2026-03-28T11:18:05.044Z</time></trkpt><trkpt lat="43.283485" lon="11.0580817"><ele>376.40000000000003</ele><time>2026-03-28T11:18:06.044Z</time></trkpt><trkpt lat="43.283405" lon="11.057935"><ele>375.8</ele><time>2026-03-28T11:18:08.044Z</time></trkpt><trkpt lat="43.2833367" lon="11.0578867"><ele>375.2</ele><time>2026-03-28T11:18:09.043Z</time></trkpt><trkpt lat="43.2832483" lon="11.0578767"><ele>374.6</ele><time>2026-03-28T11:18:10.044Z</time></trkpt><trkpt lat="43.2831683" lon="11.0578717"><ele>374.0</ele><time>2026-03-28T11:18:11.044Z</time></trkpt><trkpt lat="43.2830933" lon="11.0578483"><ele>374.0</ele><time>2026-03-28T11:18:12.044Z</time></trkpt><trkpt lat="43.2830217" lon="11.05781"><ele>374.0</ele><time>2026-03-28T11:18:13.044Z</time></trkpt><trkpt lat="43.28296" lon="11.0577617"><ele>374.0</ele><time>2026-03-28T11:18:14.044Z</time></trkpt><trkpt lat="43.2829167" lon="11.057685"><ele>374.0</ele><time>2026-03-28T11:18:15.044Z</time></trkpt><trkpt lat="43.2828883" lon="11.0575933"><ele>374.0</ele><time>2026-03-28T11:18:16.044Z</time></trkpt><trkpt lat="43.2828783" lon="11.0574917"><ele>374.0</ele><time>2026-03-28T11:18:17.044Z</time></trkpt><trkpt lat="43.2828767" lon="11.0573917"><ele>374.0</ele><time>2026-03-28T11:18:18.043Z</time></trkpt><trkpt lat="43.28289" lon="11.057295"><ele>370.6</ele><time>2026-03-28T11:18:19.043Z</time></trkpt><trkpt lat="43.2829167" lon="11.0572083"><ele>367.2</ele><time>2026-03-28T11:18:20.044Z</time></trkpt><trkpt lat="43.2829767" lon="11.057095"><ele>363.8</ele><time>2026-03-28T11:18:21.044Z</time></trkpt><trkpt lat="43.2830383" lon="11.0569667"><ele>360.40000000000003</ele><time>2026-03-28T11:18:22.044Z</time></trkpt><trkpt lat="43.2831017" lon="11.056815"><ele>357.0</ele><time>2026-03-28T11:18:23.044Z</time></trkpt><trkpt lat="43.2831567" lon="11.05666"><ele>355.0</ele><time>2026-03-28T11:18:24.044Z</time></trkpt><trkpt lat="43.2831867" lon="11.0565067"><ele>353.0</ele><time>2026-03-28T11:18:25.044Z</time></trkpt><trkpt lat="43.2832017" lon="11.05635"><ele>351.0</ele><time>2026-03-28T11:18:26.044Z</time></trkpt><trkpt lat="43.2832183" lon="11.0561967"><ele>349.0</ele><time>2026-03-28T11:18:27.044Z</time></trkpt><trkpt lat="43.2832367" lon="11.0560583"><ele>347.0</ele><time>2026-03-28T11:18:28.044Z</time></trkpt><trkpt lat="43.2832433" lon="11.05594"><ele>347.0</ele><time>2026-03-28T11:18:29.043Z</time></trkpt><trkpt lat="43.2832333" lon="11.0558333"><ele>347.0</ele><time>2026-03-28T11:18:30.044Z</time></trkpt><trkpt lat="43.2831883" lon="11.05574"><ele>347.0</ele><time>2026-03-28T11:18:31.044Z</time></trkpt><trkpt lat="43.28311" lon="11.0556583"><ele>347.0</ele><time>2026-03-28T11:18:32.044Z</time></trkpt><trkpt lat="43.2830117" lon="11.0555617"><ele>347.0</ele><time>2026-03-28T11:18:33.044Z</time></trkpt><trkpt lat="43.2829067" lon="11.05546"><ele>344.5</ele><time>2026-03-28T11:18:34.044Z</time></trkpt><trkpt lat="43.2827867" lon="11.0553667"><ele>342.0</ele><time>2026-03-28T11:18:35.043Z</time></trkpt><trkpt lat="43.282675" lon="11.05527"><ele>339.5</ele><time>2026-03-28T11:18:36.044Z</time></trkpt><trkpt lat="43.2825683" lon="11.05517"><ele>337.0</ele><time>2026-03-28T11:18:37.044Z</time></trkpt><trkpt lat="43.2824733" lon="11.0550733"><ele>337.0</ele><time>2026-03-28T11:18:38.044Z</time></trkpt><trkpt lat="43.2824017" lon="11.0549933"><ele>337.0</ele><time>2026-03-28T11:18:39.044Z</time></trkpt><trkpt lat="43.2823433" lon="11.05491"><ele>337.0</ele><time>2026-03-28T11:18:40.044Z</time></trkpt><trkpt lat="43.2823183" lon="11.054825"><ele>337.0</ele><time>2026-03-28T11:18:41.044Z</time></trkpt><trkpt lat="43.2823083" lon="11.0547317"><ele>337.0</ele><time>2026-03-28T11:18:42.043Z</time></trkpt><trkpt lat="43.28232" lon="11.0546317"><ele>337.0</ele><time>2026-03-28T11:18:43.044Z</time></trkpt><trkpt lat="43.2823467" lon="11.0545317"><ele>335.3333333333333</ele><time>2026-03-28T11:18:44.044Z</time></trkpt><trkpt lat="43.282375" lon="11.0544317"><ele>333.66666666666663</ele><time>2026-03-28T11:18:45.044Z</time></trkpt><trkpt lat="43.282405" lon="11.0543167"><ele>332.0</ele><time>2026-03-28T11:18:46.044Z</time></trkpt><trkpt lat="43.2824217" lon="11.0541933"><ele>330.3333333333333</ele><time>2026-03-28T11:18:47.044Z</time></trkpt><trkpt lat="43.28241" lon="11.0540733"><ele>328.6666666666667</ele><time>2026-03-28T11:18:48.044Z</time></trkpt><trkpt lat="43.2823683" lon="11.05396"><ele>327.0</ele><time>2026-03-28T11:18:49.044Z</time></trkpt><trkpt lat="43.2822933" lon="11.0538483"><ele>324.25</ele><time>2026-03-28T11:18:50.044Z</time></trkpt><trkpt lat="43.2821983" lon="11.0537267"><ele>321.5</ele><time>2026-03-28T11:18:51.044Z</time></trkpt><trkpt lat="43.2820967" lon="11.0536283"><ele>318.75</ele><time>2026-03-28T11:18:52.044Z</time></trkpt><trkpt lat="43.2820067" lon="11.0535283"><ele>316.0</ele><time>2026-03-28T11:18:53.044Z</time></trkpt><trkpt lat="43.2819133" lon="11.053435"><ele>316.0</ele><time>2026-03-28T11:18:54.044Z</time></trkpt><trkpt lat="43.2817917" lon="11.0533533"><ele>316.0</ele><time>2026-03-28T11:18:55.044Z</time></trkpt><trkpt lat="43.2816667" lon="11.0532767"><ele>316.0</ele><time>2026-03-28T11:18:56.044Z</time></trkpt><trkpt lat="43.2815683" lon="11.0531967"><ele>316.0</ele><time>2026-03-28T11:18:57.043Z</time></trkpt><trkpt lat="43.2814983" lon="11.053095"><ele>315.0</ele><time>2026-03-28T11:18:58.044Z</time></trkpt><trkpt lat="43.2814517" lon="11.0529633"><ele>314.0</ele><time>2026-03-28T11:18:59.043Z</time></trkpt><trkpt lat="43.2814083" lon="11.052805"><ele>313.0</ele><time>2026-03-28T11:19:00.044Z</time></trkpt><trkpt lat="43.281345" lon="11.0526317"><ele>312.0</ele><time>2026-03-28T11:19:01.043Z</time></trkpt><trkpt lat="43.2812667" lon="11.0524417"><ele>310.0</ele><time>2026-03-28T11:19:02.044Z</time></trkpt><trkpt lat="43.28118" lon="11.05225"><ele>308.0</ele><time>2026-03-28T11:19:03.044Z</time></trkpt><trkpt lat="43.2810867" lon="11.0520717"><ele>306.0</ele><time>2026-03-28T11:19:04.044Z</time></trkpt><trkpt lat="43.2809917" lon="11.05189"><ele>306.0</ele><time>2026-03-28T11:19:05.044Z</time></trkpt><trkpt lat="43.2809017" lon="11.0517317"><ele>306.0</ele><time>2026-03-28T11:19:06.043Z</time></trkpt><trkpt lat="43.2808083" lon="11.0516017"><ele>306.0</ele><time>2026-03-28T11:19:07.044Z</time></trkpt><trkpt lat="43.28069" lon="11.0514983"><ele>306.0</ele><time>2026-03-28T11:19:08.044Z</time></trkpt><trkpt lat="43.2805567" lon="11.0513817"><ele>304.5</ele><time>2026-03-28T11:19:09.044Z</time></trkpt><trkpt lat="43.2804333" lon="11.05126"><ele>303.0</ele><time>2026-03-28T11:19:10.044Z</time></trkpt><trkpt lat="43.280315" lon="11.0511383"><ele>301.5</ele><time>2026-03-28T11:19:11.044Z</time></trkpt><trkpt lat="43.2802067" lon="11.0510183"><ele>300.0</ele><time>2026-03-28T11:19:12.044Z</time></trkpt><trkpt lat="43.2800917" lon="11.0509133"><ele>300.0</ele><time>2026-03-28T11:19:13.043Z</time></trkpt><trkpt lat="43.2799917" lon="11.05082"><ele>300.0</ele><time>2026-03-28T11:19:14.044Z</time></trkpt><trkpt lat="43.2798883" lon="11.0507283"><ele>300.0</ele><time>2026-03-28T11:19:15.044Z</time></trkpt><trkpt lat="43.2797983" lon="11.0506633"><ele>300.0</ele><time>2026-03-28T11:19:16.044Z</time></trkpt><trkpt lat="43.2796967" lon="11.050625"><ele>298.6666666666667</ele><time>2026-03-28T11:19:17.044Z</time></trkpt><trkpt lat="43.2796017" lon="11.0506133"><ele>297.3333333333333</ele><time>2026-03-28T11:19:18.044Z</time></trkpt><trkpt lat="43.279515" lon="11.05061"><ele>296.0</ele><time>2026-03-28T11:19:19.044Z</time></trkpt><trkpt lat="43.27944" lon="11.050605"><ele>294.66666666666663</ele><time>2026-03-28T11:19:20.044Z</time></trkpt><trkpt lat="43.2793667" lon="11.0505817"><ele>293.3333333333333</ele><time>2026-03-28T11:19:21.044Z</time></trkpt><trkpt lat="43.2793083" lon="11.0505283"><ele>292.0</ele><time>2026-03-28T11:19:22.044Z</time></trkpt><trkpt lat="43.2792583" lon="11.0504483"><ele>292.0</ele><time>2026-03-28T11:19:23.044Z</time></trkpt><trkpt lat="43.2792317" lon="11.0503317"><ele>292.0</ele><time>2026-03-28T11:19:24.044Z</time></trkpt><trkpt lat="43.2792283" lon="11.0501817"><ele>292.0</ele><time>2026-03-28T11:19:25.044Z</time></trkpt><trkpt lat="43.27923" lon="11.0499933"><ele>292.0</ele><time>2026-03-28T11:19:26.043Z</time></trkpt><trkpt lat="43.2792233" lon="11.0498033"><ele>289.75</ele><time>2026-03-28T11:19:27.044Z</time></trkpt><trkpt lat="43.2792117" lon="11.0496183"><ele>287.5</ele><time>2026-03-28T11:19:28.044Z</time></trkpt><trkpt lat="43.2791967" lon="11.0494583"><ele>285.25</ele><time>2026-03-28T11:19:29.043Z</time></trkpt><trkpt lat="43.279195" lon="11.0492983"><ele>283.0</ele><time>2026-03-28T11:19:30.044Z</time></trkpt><trkpt lat="43.2792017" lon="11.0491667"><ele>281.0</ele><time>2026-03-28T11:19:31.044Z</time></trkpt><trkpt lat="43.279225" lon="11.049045"><ele>279.0</ele><time>2026-03-28T11:19:32.044Z</time></trkpt><trkpt lat="43.2792567" lon="11.0489167"><ele>277.0</ele><time>2026-03-28T11:19:33.044Z</time></trkpt><trkpt lat="43.27928" lon="11.0487983"><ele>275.0</ele><time>2026-03-28T11:19:34.044Z</time></trkpt><trkpt lat="43.2793083" lon="11.0486667"><ele>273.0</ele><time>2026-03-28T11:19:35.044Z</time></trkpt><trkpt lat="43.2793233" lon="11.0485433"><ele>273.0</ele><time>2026-03-28T11:19:36.044Z</time></trkpt><trkpt lat="43.2793133" lon="11.0484067"><ele>273.0</ele><time>2026-03-28T11:19:37.044Z</time></trkpt><trkpt lat="43.2792667" lon="11.04826"><ele>273.0</ele><time>2026-03-28T11:19:38.044Z</time></trkpt><trkpt lat="43.27921" lon="11.0481117"><ele>273.0</ele><time>2026-03-28T11:19:39.044Z</time></trkpt><trkpt lat="43.279165" lon="11.0479717"><ele>272.0</ele><time>2026-03-28T11:19:40.044Z</time></trkpt><trkpt lat="43.2791317" lon="11.0478483"><ele>271.0</ele><time>2026-03-28T11:19:41.044Z</time></trkpt><trkpt lat="43.2791017" lon="11.0477633"><ele>270.0</ele><time>2026-03-28T11:19:42.043Z</time></trkpt><trkpt lat="43.2790167" lon="11.04767"><ele>269.0</ele><time>2026-03-28T11:19:44.044Z</time></trkpt><trkpt lat="43.27889" lon="11.0476717"><ele>268.0</ele><time>2026-03-28T11:19:46.043Z</time></trkpt><trkpt lat="43.2788" lon="11.0477017"><ele>266.0</ele><time>2026-03-28T11:19:47.044Z</time></trkpt><trkpt lat="43.2787033" lon="11.0477133"><ele>264.0</ele><time>2026-03-28T11:19:48.044Z</time></trkpt><trkpt lat="43.2785817" lon="11.047725"><ele>262.0</ele><time>2026-03-28T11:19:49.044Z</time></trkpt><trkpt lat="43.2784433" lon="11.0477133"><ele>260.0</ele><time>2026-03-28T11:19:50.044Z</time></trkpt><trkpt lat="43.2783183" lon="11.0476883"><ele>260.0</ele><time>2026-03-28T11:19:51.043Z</time></trkpt><trkpt lat="43.2781967" lon="11.0476733"><ele>260.0</ele><time>2026-03-28T11:19:52.044Z</time></trkpt><trkpt lat="43.2780933" lon="11.047665"><ele>260.0</ele><time>2026-03-28T11:19:53.044Z</time></trkpt><trkpt lat="43.2779917" lon="11.04767"><ele>260.0</ele><time>2026-03-28T11:19:54.044Z</time></trkpt><trkpt lat="43.2778983" lon="11.047665"><ele>260.0</ele><time>2026-03-28T11:19:55.044Z</time></trkpt><trkpt lat="43.2778117" lon="11.0476333"><ele>258.0</ele><time>2026-03-28T11:19:56.044Z</time></trkpt><trkpt lat="43.2777267" lon="11.0475583"><ele>256.0</ele><time>2026-03-28T11:19:57.044Z</time></trkpt><trkpt lat="43.2776433" lon="11.0474467"><ele>254.0</ele><time>2026-03-28T11:19:58.044Z</time></trkpt><trkpt lat="43.2775417" lon="11.04733"><ele>252.0</ele><time>2026-03-28T11:19:59.044Z</time></trkpt><trkpt lat="43.2774417" lon="11.0472017"><ele>252.0</ele><time>2026-03-28T11:20:00.044Z</time></trkpt><trkpt lat="43.2773483" lon="11.047085"><ele>252.0</ele><time>2026-03-28T11:20:01.044Z</time></trkpt><trkpt lat="43.2772567" lon="11.0469917"><ele>252.0</ele><time>2026-03-28T11:20:02.044Z</time></trkpt><trkpt lat="43.2771683" lon="11.0469217"><ele>252.0</ele><time>2026-03-28T11:20:03.044Z</time></trkpt><trkpt lat="43.2770733" lon="11.0468667"><ele>252.0</ele><time>2026-03-28T11:20:04.044Z</time></trkpt><trkpt lat="43.2769833" lon="11.0468283"><ele>250.66666666666666</ele><time>2026-03-28T11:20:05.044Z</time></trkpt><trkpt lat="43.276895" lon="11.0468033"><ele>249.33333333333331</ele><time>2026-03-28T11:20:06.044Z</time></trkpt><trkpt lat="43.27681" lon="11.0467767"><ele>248.0</ele><time>2026-03-28T11:20:07.044Z</time></trkpt><trkpt lat="43.2767417" lon="11.0467417"><ele>246.66666666666666</ele><time>2026-03-28T11:20:08.044Z</time></trkpt><trkpt lat="43.2766967" lon="11.0466767"><ele>245.33333333333331</ele><time>2026-03-28T11:20:09.044Z</time></trkpt><trkpt lat="43.27668" lon="11.0465083"><ele>244.0</ele><time>2026-03-28T11:20:11.044Z</time></trkpt><trkpt lat="43.2766917" lon="11.046395"><ele>243.6</ele><time>2026-03-28T11:20:12.044Z</time></trkpt><trkpt lat="43.2767167" lon="11.046255"><ele>243.2</ele><time>2026-03-28T11:20:13.043Z</time></trkpt><trkpt lat="43.27675" lon="11.0460983"><ele>242.79999999999998</ele><time>2026-03-28T11:20:14.044Z</time></trkpt><trkpt lat="43.2767833" lon="11.0459383"><ele>242.39999999999998</ele><time>2026-03-28T11:20:15.044Z</time></trkpt><trkpt lat="43.276815" lon="11.045805"><ele>242.0</ele><time>2026-03-28T11:20:16.044Z</time></trkpt><trkpt lat="43.276825" lon="11.0457017"><ele>241.83333333333334</ele><time>2026-03-28T11:20:17.044Z</time></trkpt><trkpt lat="43.2768083" lon="11.0456067"><ele>241.66666666666669</ele><time>2026-03-28T11:20:18.043Z</time></trkpt><trkpt lat="43.2767733" lon="11.0455017"><ele>241.5</ele><time>2026-03-28T11:20:19.044Z</time></trkpt><trkpt lat="43.276745" lon="11.0453967"><ele>241.33333333333331</ele><time>2026-03-28T11:20:20.044Z</time></trkpt><trkpt lat="43.2767333" lon="11.04527"><ele>241.16666666666666</ele><time>2026-03-28T11:20:21.044Z</time></trkpt><trkpt lat="43.27674" lon="11.045115"><ele>241.0</ele><time>2026-03-28T11:20:22.044Z</time></trkpt><trkpt lat="43.276745" lon="11.04493"><ele>240.5</ele><time>2026-03-28T11:20:23.044Z</time></trkpt><trkpt lat="43.2767333" lon="11.0447633"><ele>240.0</ele><time>2026-03-28T11:20:24.044Z</time></trkpt><trkpt lat="43.2767233" lon="11.0446017"><ele>239.5</ele><time>2026-03-28T11:20:25.044Z</time></trkpt><trkpt lat="43.2767283" lon="11.0444483"><ele>239.0</ele><time>2026-03-28T11:20:26.043Z</time></trkpt><trkpt lat="43.276725" lon="11.0443117"><ele>239.0</ele><time>2026-03-28T11:20:27.044Z</time></trkpt><trkpt lat="43.27673" lon="11.0442117"><ele>238.99999999999997</ele><time>2026-03-28T11:20:28.044Z</time></trkpt><trkpt lat="43.2766983" lon="11.044045"><ele>238.99999999999997</ele><time>2026-03-28T11:20:30.044Z</time></trkpt><trkpt lat="43.2766483" lon="11.0438867"><ele>239.0</ele><time>2026-03-28T11:20:32.044Z</time></trkpt><trkpt lat="43.2766367" lon="11.0437883"><ele>239.0</ele><time>2026-03-28T11:20:33.044Z</time></trkpt><trkpt lat="43.2766317" lon="11.043675"><ele>238.83333333333334</ele><time>2026-03-28T11:20:34.044Z</time></trkpt><trkpt lat="43.276625" lon="11.0435767"><ele>238.66666666666669</ele><time>2026-03-28T11:20:35.044Z</time></trkpt><trkpt lat="43.276575" lon="11.0434433"><ele>238.5</ele><time>2026-03-28T11:20:37.044Z</time></trkpt><trkpt lat="43.2765117" lon="11.0433983"><ele>238.33333333333331</ele><time>2026-03-28T11:20:38.044Z</time></trkpt><trkpt lat="43.276435" lon="11.0433517"><ele>238.16666666666666</ele><time>2026-03-28T11:20:39.044Z</time></trkpt><trkpt lat="43.2763367" lon="11.0433133"><ele>238.0</ele><time>2026-03-28T11:20:40.044Z</time></trkpt><trkpt lat="43.27623" lon="11.0432767"><ele>237.49999999999997</ele><time>2026-03-28T11:20:41.044Z</time></trkpt><trkpt lat="43.2761317" lon="11.043235"><ele>237.0</ele><time>2026-03-28T11:20:42.044Z</time></trkpt><trkpt lat="43.276045" lon="11.043175"><ele>236.5</ele><time>2026-03-28T11:20:43.044Z</time></trkpt><trkpt lat="43.27598" lon="11.0430883"><ele>236.0</ele><time>2026-03-28T11:20:44.044Z</time></trkpt><trkpt lat="43.2759233" lon="11.0429967"><ele>235.49999999999997</ele><time>2026-03-28T11:20:45.044Z</time></trkpt><trkpt lat="43.2758817" lon="11.04292"><ele>235.0</ele><time>2026-03-28T11:20:46.044Z</time></trkpt><trkpt lat="43.2758367" lon="11.0428267"><ele>235.0</ele><time>2026-03-28T11:20:48.044Z</time></trkpt><trkpt lat="43.2757767" lon="11.042785"><ele>235.0</ele><time>2026-03-28T11:20:55.044Z</time></trkpt><trkpt lat="43.2756767" lon="11.04276"><ele>235.0</ele><time>2026-03-28T11:20:57.043Z</time></trkpt><trkpt lat="43.2755917" lon="11.0427117"><ele>235.0</ele><time>2026-03-28T11:20:59.044Z</time></trkpt><trkpt lat="43.27557" lon="11.0426133"><ele>235.0</ele><time>2026-03-28T11:21:01.044Z</time></trkpt><trkpt lat="43.2755517" lon="11.042435"><ele>236.66666666666666</ele><time>2026-03-28T11:21:03.043Z</time></trkpt><trkpt lat="43.2755417" lon="11.0423317"><ele>238.33333333333331</ele><time>2026-03-28T11:21:04.043Z</time></trkpt><trkpt lat="43.2755383" lon="11.0422433"><ele>240.0</ele><time>2026-03-28T11:21:05.044Z</time></trkpt><trkpt lat="43.2755383" lon="11.04212"><ele>241.66666666666669</ele><time>2026-03-28T11:21:07.044Z</time></trkpt><trkpt lat="43.27552" lon="11.0419867"><ele>243.33333333333334</ele><time>2026-03-28T11:21:09.044Z</time></trkpt><trkpt lat="43.27551" lon="11.041835"><ele>245.0</ele><time>2026-03-28T11:21:11.044Z</time></trkpt><trkpt lat="43.27551" lon="11.0417417"><ele>244.50000000000003</ele><time>2026-03-28T11:21:12.044Z</time></trkpt><trkpt lat="43.2755117" lon="11.0416283"><ele>244.0</ele><time>2026-03-28T11:21:13.044Z</time></trkpt><trkpt lat="43.2755117" lon="11.041525"><ele>243.5</ele><time>2026-03-28T11:21:14.044Z</time></trkpt><trkpt lat="43.2755233" lon="11.04137"><ele>243.0</ele><time>2026-03-28T11:21:16.044Z</time></trkpt><trkpt lat="43.27555" lon="11.0412617"><ele>242.50000000000003</ele><time>2026-03-28T11:21:18.044Z</time></trkpt><trkpt lat="43.275555" lon="11.0411617"><ele>242.0</ele><time>2026-03-28T11:21:20.044Z</time></trkpt><trkpt lat="43.275535" lon="11.0410583"><ele>242.0</ele><time>2026-03-28T11:21:22.044Z</time></trkpt><trkpt lat="43.27547" lon="11.041035"><ele>242.0</ele><time>2026-03-28T11:21:24.044Z</time></trkpt><trkpt lat="43.2754167" lon="11.0411467"><ele>242.0</ele><time>2026-03-28T11:21:26.044Z</time></trkpt><trkpt lat="43.275365" lon="11.0412767"><ele>242.0</ele><time>2026-03-28T11:21:28.044Z</time></trkpt><trkpt lat="43.27529" lon="11.0413917"><ele>242.0</ele><time>2026-03-28T11:21:30.044Z</time></trkpt><trkpt lat="43.2752" lon="11.0415183"><ele>242.00000000000003</ele><time>2026-03-28T11:21:32.044Z</time></trkpt><trkpt lat="43.275155" lon="11.0415917"><ele>242.0</ele><time>2026-03-28T11:21:33.044Z</time></trkpt><trkpt lat="43.2751167" lon="11.0416633"><ele>242.0</ele><time>2026-03-28T11:21:34.043Z</time></trkpt><trkpt lat="43.2750633" lon="11.0417667"><ele>242.0</ele><time>2026-03-28T11:21:36.044Z</time></trkpt><trkpt lat="43.2749983" lon="11.04187"><ele>242.00000000000003</ele><time>2026-03-28T11:21:38.044Z</time></trkpt><trkpt lat="43.2749167" lon="11.0419817"><ele>242.0</ele><time>2026-03-28T11:21:40.043Z</time></trkpt><trkpt lat="43.2748417" lon="11.042055"><ele>242.6</ele><time>2026-03-28T11:21:42.044Z</time></trkpt><trkpt lat="43.2747833" lon="11.0421467"><ele>243.2</ele><time>2026-03-28T11:21:44.044Z</time></trkpt><trkpt lat="43.2747183" lon="11.0422167"><ele>243.8</ele><time>2026-03-28T11:21:46.044Z</time></trkpt><trkpt lat="43.2746433" lon="11.0423183"><ele>244.4</ele><time>2026-03-28T11:21:48.044Z</time></trkpt><trkpt lat="43.2745967" lon="11.0423833"><ele>245.0</ele><time>2026-03-28T11:21:49.044Z</time></trkpt><trkpt lat="43.2744967" lon="11.0424967"><ele>246.6</ele><time>2026-03-28T11:21:51.044Z</time></trkpt><trkpt lat="43.2744433" lon="11.0425633"><ele>248.2</ele><time>2026-03-28T11:21:52.044Z</time></trkpt><trkpt lat="43.2743517" lon="11.0426617"><ele>249.8</ele><time>2026-03-28T11:21:54.044Z</time></trkpt><trkpt lat="43.274255" lon="11.0427817"><ele>251.4</ele><time>2026-03-28T11:21:56.044Z</time></trkpt><trkpt lat="43.2741933" lon="11.0428433"><ele>253.0</ele><time>2026-03-28T11:21:57.044Z</time></trkpt><trkpt lat="43.2741283" lon="11.04292"><ele>252.99999999999997</ele><time>2026-03-28T11:21:58.044Z</time></trkpt><trkpt lat="43.27406" lon="11.0429767"><ele>253.0</ele><time>2026-03-28T11:21:59.043Z</time></trkpt><trkpt lat="43.2739933" lon="11.0430417"><ele>253.0</ele><time>2026-03-28T11:22:00.044Z</time></trkpt><trkpt lat="43.273925" lon="11.0431017"><ele>253.0</ele><time>2026-03-28T11:22:01.044Z</time></trkpt><trkpt lat="43.2738583" lon="11.0431617"><ele>252.99999999999997</ele><time>2026-03-28T11:22:02.044Z</time></trkpt><trkpt lat="43.27379" lon="11.04324"><ele>253.0</ele><time>2026-03-28T11:22:03.043Z</time></trkpt><trkpt lat="43.27371" lon="11.04332"><ele>254.66666666666666</ele><time>2026-03-28T11:22:04.044Z</time></trkpt><trkpt lat="43.27363" lon="11.04339"><ele>256.3333333333333</ele><time>2026-03-28T11:22:05.043Z</time></trkpt><trkpt lat="43.2735517" lon="11.0434633"><ele>258.0</ele><time>2026-03-28T11:22:06.044Z</time></trkpt><trkpt lat="43.2734767" lon="11.0435333"><ele>259.6666666666667</ele><time>2026-03-28T11:22:07.044Z</time></trkpt><trkpt lat="43.2734067" lon="11.0435883"><ele>261.33333333333337</ele><time>2026-03-28T11:22:08.044Z</time></trkpt><trkpt lat="43.273335" lon="11.0436283"><ele>263.0</ele><time>2026-03-28T11:22:09.044Z</time></trkpt><trkpt lat="43.2732467" lon="11.04366"><ele>263.0</ele><time>2026-03-28T11:22:10.044Z</time></trkpt><trkpt lat="43.2731733" lon="11.04367"><ele>263.0</ele><time>2026-03-28T11:22:11.044Z</time></trkpt><trkpt lat="43.2731" lon="11.0436683"><ele>263.0</ele><time>2026-03-28T11:22:12.044Z</time></trkpt><trkpt lat="43.2730183" lon="11.0436533"><ele>263.0</ele><time>2026-03-28T11:22:13.044Z</time></trkpt><trkpt lat="43.2729417" lon="11.043635"><ele>263.0</ele><time>2026-03-28T11:22:14.044Z</time></trkpt><trkpt lat="43.2728617" lon="11.0436083"><ele>263.0</ele><time>2026-03-28T11:22:15.044Z</time></trkpt><trkpt lat="43.2727767" lon="11.0435917"><ele>264.1666666666667</ele><time>2026-03-28T11:22:16.044Z</time></trkpt><trkpt lat="43.2726967" lon="11.0435767"><ele>265.33333333333337</ele><time>2026-03-28T11:22:17.044Z</time></trkpt><trkpt lat="43.27262" lon="11.04355"><ele>266.5</ele><time>2026-03-28T11:22:18.044Z</time></trkpt><trkpt lat="43.2725383" lon="11.0435233"><ele>267.6666666666667</ele><time>2026-03-28T11:22:19.044Z</time></trkpt><trkpt lat="43.27245" lon="11.043505"><ele>268.8333333333333</ele><time>2026-03-28T11:22:20.044Z</time></trkpt><trkpt lat="43.2723683" lon="11.0434867"><ele>270.0</ele><time>2026-03-28T11:22:21.044Z</time></trkpt><trkpt lat="43.27229" lon="11.0434767"><ele>271.8333333333333</ele><time>2026-03-28T11:22:22.044Z</time></trkpt><trkpt lat="43.2722117" lon="11.0434667"><ele>273.6666666666667</ele><time>2026-03-28T11:22:23.044Z</time></trkpt><trkpt lat="43.2721417" lon="11.0434717"><ele>275.5</ele><time>2026-03-28T11:22:24.043Z</time></trkpt><trkpt lat="43.2720733" lon="11.0434883"><ele>277.33333333333337</ele><time>2026-03-28T11:22:25.044Z</time></trkpt><trkpt lat="43.2720033" lon="11.043495"><ele>279.1666666666667</ele><time>2026-03-28T11:22:26.044Z</time></trkpt><trkpt lat="43.2719017" lon="11.0434867"><ele>281.0</ele><time>2026-03-28T11:22:28.043Z</time></trkpt><trkpt lat="43.2718067" lon="11.043455"><ele>281.0</ele><time>2026-03-28T11:22:30.044Z</time></trkpt><trkpt lat="43.2716883" lon="11.043405"><ele>281.0</ele><time>2026-03-28T11:22:32.044Z</time></trkpt><trkpt lat="43.2715717" lon="11.0433483"><ele>281.0</ele><time>2026-03-28T11:22:34.044Z</time></trkpt><trkpt lat="43.2714767" lon="11.043315"><ele>281.0</ele><time>2026-03-28T11:22:36.043Z</time></trkpt><trkpt lat="43.2714267" lon="11.0432067"><ele>281.0</ele><time>2026-03-28T11:22:38.044Z</time></trkpt><trkpt lat="43.271425" lon="11.0431033"><ele>282.33333333333337</ele><time>2026-03-28T11:22:40.044Z</time></trkpt><trkpt lat="43.2715233" lon="11.0430117"><ele>283.6666666666667</ele><time>2026-03-28T11:22:42.044Z</time></trkpt><trkpt lat="43.2715783" lon="11.04295"><ele>285.0</ele><time>2026-03-28T11:22:43.044Z</time></trkpt><trkpt lat="43.2716367" lon="11.042885"><ele>286.3333333333333</ele><time>2026-03-28T11:22:44.044Z</time></trkpt><trkpt lat="43.2716917" lon="11.0428267"><ele>287.66666666666663</ele><time>2026-03-28T11:22:45.044Z</time></trkpt><trkpt lat="43.271735" lon="11.0427633"><ele>289.0</ele><time>2026-03-28T11:22:46.044Z</time></trkpt><trkpt lat="43.27177" lon="11.04269"><ele>289.0</ele><time>2026-03-28T11:22:47.043Z</time></trkpt><trkpt lat="43.271795" lon="11.0426033"><ele>289.0</ele><time>2026-03-28T11:22:48.044Z</time></trkpt><trkpt lat="43.2718067" lon="11.04245"><ele>289.0</ele><time>2026-03-28T11:22:50.044Z</time></trkpt><trkpt lat="43.27179" lon="11.0422767"><ele>289.0</ele><time>2026-03-28T11:22:52.044Z</time></trkpt><trkpt lat="43.2717267" lon="11.042135"><ele>289.0</ele><time>2026-03-28T11:22:54.043Z</time></trkpt><trkpt lat="43.2716383" lon="11.04208"><ele>288.8333333333333</ele><time>2026-03-28T11:22:56.044Z</time></trkpt><trkpt lat="43.2715633" lon="11.0421367"><ele>288.66666666666663</ele><time>2026-03-28T11:22:58.043Z</time></trkpt><trkpt lat="43.2714583" lon="11.0422083"><ele>288.5</ele><time>2026-03-28T11:23:00.043Z</time></trkpt><trkpt lat="43.271395" lon="11.042235"><ele>288.3333333333333</ele><time>2026-03-28T11:23:01.043Z</time></trkpt><trkpt lat="43.2713217" lon="11.042265"><ele>288.1666666666667</ele><time>2026-03-28T11:23:02.044Z</time></trkpt><trkpt lat="43.271255" lon="11.042285"><ele>288.0</ele><time>2026-03-28T11:23:03.044Z</time></trkpt><trkpt lat="43.2711833" lon="11.042295"><ele>290.1666666666667</ele><time>2026-03-28T11:23:04.044Z</time></trkpt><trkpt lat="43.2710633" lon="11.0422933"><ele>292.3333333333333</ele><time>2026-03-28T11:23:06.044Z</time></trkpt><trkpt lat="43.2709533" lon="11.04225"><ele>294.5</ele><time>2026-03-28T11:23:08.044Z</time></trkpt><trkpt lat="43.2708867" lon="11.0422217"><ele>296.66666666666663</ele><time>2026-03-28T11:23:09.043Z</time></trkpt><trkpt lat="43.2708233" lon="11.0421983"><ele>298.8333333333333</ele><time>2026-03-28T11:23:10.043Z</time></trkpt><trkpt lat="43.2707567" lon="11.0421783"><ele>301.0</ele><time>2026-03-28T11:23:11.044Z</time></trkpt><trkpt lat="43.27069" lon="11.0421583"><ele>301.0</ele><time>2026-03-28T11:23:12.043Z</time></trkpt><trkpt lat="43.27063" lon="11.0421283"><ele>301.0</ele><time>2026-03-28T11:23:13.044Z</time></trkpt><trkpt lat="43.2705733" lon="11.0420883"><ele>301.0</ele><time>2026-03-28T11:23:14.044Z</time></trkpt><trkpt lat="43.2705233" lon="11.0420317"><ele>301.0</ele><time>2026-03-28T11:23:15.044Z</time></trkpt><trkpt lat="43.2704767" lon="11.0419733"><ele>301.0</ele><time>2026-03-28T11:23:16.044Z</time></trkpt><trkpt lat="43.2703967" lon="11.0418633"><ele>301.0</ele><time>2026-03-28T11:23:18.043Z</time></trkpt><trkpt lat="43.2703467" lon="11.0417617"><ele>304.8</ele><time>2026-03-28T11:23:20.043Z</time></trkpt><trkpt lat="43.270305" lon="11.041615"><ele>308.6</ele><time>2026-03-28T11:23:22.043Z</time></trkpt><trkpt lat="43.2702867" lon="11.0415317"><ele>312.4</ele><time>2026-03-28T11:23:23.043Z</time></trkpt><trkpt lat="43.2702483" lon="11.041385"><ele>316.2</ele><time>2026-03-28T11:23:25.044Z</time></trkpt><trkpt lat="43.2702133" lon="11.041265"><ele>320.0</ele><time>2026-03-28T11:23:27.043Z</time></trkpt><trkpt lat="43.2701667" lon="11.041185"><ele>320.0</ele><time>2026-03-28T11:23:29.044Z</time></trkpt><trkpt lat="43.2701033" lon="11.04108"><ele>320.0</ele><time>2026-03-28T11:23:31.044Z</time></trkpt><trkpt lat="43.27003" lon="11.04097"><ele>320.0</ele><time>2026-03-28T11:23:33.044Z</time></trkpt><trkpt lat="43.2699583" lon="11.0408533"><ele>320.0</ele><time>2026-03-28T11:23:35.043Z</time></trkpt><trkpt lat="43.2698883" lon="11.0407217"><ele>320.0</ele><time>2026-03-28T11:23:37.044Z</time></trkpt><trkpt lat="43.2698533" lon="11.0406433"><ele>320.0</ele><time>2026-03-28T11:23:38.044Z</time></trkpt><trkpt lat="43.269805" lon="11.04057"><ele>320.0</ele><time>2026-03-28T11:23:40.044Z</time></trkpt><trkpt lat="43.2697483" lon="11.0406117"><ele>320.0</ele><time>2026-03-28T11:23:43.044Z</time></trkpt><trkpt lat="43.2697583" lon="11.0407167"><ele>320.0</ele><time>2026-03-28T11:23:46.044Z</time></trkpt><trkpt lat="43.2697967" lon="11.040835"><ele>320.0</ele><time>2026-03-28T11:23:48.044Z</time></trkpt><trkpt lat="43.2698317" lon="11.0409467"><ele>320.0</ele><time>2026-03-28T11:23:50.044Z</time></trkpt><trkpt lat="43.269835" lon="11.0410917"><ele>320.0</ele><time>2026-03-28T11:23:52.044Z</time></trkpt><trkpt lat="43.26982" lon="11.0412217"><ele>320.0</ele><time>2026-03-28T11:23:54.044Z</time></trkpt><trkpt lat="43.2697833" lon="11.0413367"><ele>320.0</ele><time>2026-03-28T11:23:56.043Z</time></trkpt><trkpt lat="43.2697267" lon="11.04144"><ele>320.0</ele><time>2026-03-28T11:23:58.044Z</time></trkpt><trkpt lat="43.2696333" lon="11.0415133"><ele>320.0</ele><time>2026-03-28T11:24:00.044Z</time></trkpt><trkpt lat="43.2695083" lon="11.0415467"><ele>324.33333333333337</ele><time>2026-03-28T11:24:02.044Z</time></trkpt><trkpt lat="43.2694417" lon="11.04156"><ele>328.6666666666667</ele><time>2026-03-28T11:24:03.044Z</time></trkpt><trkpt lat="43.2693417" lon="11.041535"><ele>333.0</ele><time>2026-03-28T11:24:05.044Z</time></trkpt><trkpt lat="43.2692883" lon="11.0414267"><ele>337.3333333333333</ele><time>2026-03-28T11:24:07.044Z</time></trkpt><trkpt lat="43.2692767" lon="11.0413417"><ele>341.66666666666663</ele><time>2026-03-28T11:24:08.044Z</time></trkpt><trkpt lat="43.2692883" lon="11.0412517"><ele>346.0</ele><time>2026-03-28T11:24:09.043Z</time></trkpt><trkpt lat="43.26931" lon="11.0411667"><ele>346.0</ele><time>2026-03-28T11:24:10.044Z</time></trkpt><trkpt lat="43.2693383" lon="11.041085"><ele>346.0</ele><time>2026-03-28T11:24:11.044Z</time></trkpt><trkpt lat="43.269365" lon="11.0409983"><ele>346.0</ele><time>2026-03-28T11:24:12.044Z</time></trkpt><trkpt lat="43.2693867" lon="11.0409017"><ele>346.0</ele><time>2026-03-28T11:24:13.044Z</time></trkpt><trkpt lat="43.2693883" lon="11.0408067"><ele>346.0</ele><time>2026-03-28T11:24:14.044Z</time></trkpt><trkpt lat="43.26938" lon="11.040695"><ele>346.0</ele><time>2026-03-28T11:24:15.043Z</time></trkpt><trkpt lat="43.2693483" lon="11.0405883"><ele>346.0</ele><time>2026-03-28T11:24:16.044Z</time></trkpt><trkpt lat="43.2692983" lon="11.0404933"><ele>346.20000000000005</ele><time>2026-03-28T11:24:17.044Z</time></trkpt><trkpt lat="43.269265" lon="11.0403883"><ele>346.40000000000003</ele><time>2026-03-28T11:24:18.044Z</time></trkpt><trkpt lat="43.26923" lon="11.040275"><ele>346.6</ele><time>2026-03-28T11:24:19.044Z</time></trkpt><trkpt lat="43.2692033" lon="11.0401483"><ele>346.8</ele><time>2026-03-28T11:24:20.044Z</time></trkpt><trkpt lat="43.269185" lon="11.04001"><ele>347.0</ele><time>2026-03-28T11:24:21.044Z</time></trkpt><trkpt lat="43.2691717" lon="11.039855"><ele>347.8</ele><time>2026-03-28T11:24:22.044Z</time></trkpt><trkpt lat="43.2691583" lon="11.0396983"><ele>348.6</ele><time>2026-03-28T11:24:23.044Z</time></trkpt><trkpt lat="43.2691433" lon="11.0395667"><ele>349.40000000000003</ele><time>2026-03-28T11:24:24.044Z</time></trkpt><trkpt lat="43.2691283" lon="11.03947"><ele>350.20000000000005</ele><time>2026-03-28T11:24:25.043Z</time></trkpt><trkpt lat="43.2690367" lon="11.039375"><ele>351.0</ele><time>2026-03-28T11:24:27.044Z</time></trkpt><trkpt lat="43.26891" lon="11.03937"><ele>351.0</ele><time>2026-03-28T11:24:29.044Z</time></trkpt><trkpt lat="43.2688317" lon="11.0393867"><ele>351.0</ele><time>2026-03-28T11:24:30.044Z</time></trkpt><trkpt lat="43.2687517" lon="11.0393883"><ele>351.0</ele><time>2026-03-28T11:24:31.044Z</time></trkpt><trkpt lat="43.2686783" lon="11.0393633"><ele>351.0</ele><time>2026-03-28T11:24:32.043Z</time></trkpt><trkpt lat="43.2686133" lon="11.0392933"><ele>351.0</ele><time>2026-03-28T11:24:33.044Z</time></trkpt><trkpt lat="43.2685583" lon="11.0392367"><ele>351.0</ele><time>2026-03-28T11:24:34.044Z</time></trkpt><trkpt lat="43.2684717" lon="11.0392"><ele>351.0</ele><time>2026-03-28T11:24:36.044Z</time></trkpt><trkpt lat="43.2684217" lon="11.0392917"><ele>351.0</ele><time>2026-03-28T11:24:38.043Z</time></trkpt><trkpt lat="43.2684517" lon="11.0394233"><ele>351.0</ele><time>2026-03-28T11:24:40.044Z</time></trkpt><trkpt lat="43.2685183" lon="11.0394833"><ele>351.0</ele><time>2026-03-28T11:24:41.044Z</time></trkpt><trkpt lat="43.26859" lon="11.0395583"><ele>351.0</ele><time>2026-03-28T11:24:42.043Z</time></trkpt><trkpt lat="43.2686367" lon="11.0396267"><ele>351.0</ele><time>2026-03-28T11:24:43.044Z</time></trkpt><trkpt lat="43.26867" lon="11.0397317"><ele>351.0</ele><time>2026-03-28T11:24:45.043Z</time></trkpt><trkpt lat="43.268605" lon="11.03983"><ele>351.0</ele><time>2026-03-28T11:24:47.043Z</time></trkpt><trkpt lat="43.2685083" lon="11.039895"><ele>351.0</ele><time>2026-03-28T11:24:49.043Z</time></trkpt><trkpt lat="43.268415" lon="11.0399767"><ele>351.0</ele><time>2026-03-28T11:24:51.044Z</time></trkpt><trkpt lat="43.2683617" lon="11.0401167"><ele>351.0</ele><time>2026-03-28T11:24:53.044Z</time></trkpt><trkpt lat="43.268325" lon="11.0402733"><ele>353.1666666666667</ele><time>2026-03-28T11:24:55.044Z</time></trkpt><trkpt lat="43.2683" lon="11.04036"><ele>355.3333333333333</ele><time>2026-03-28T11:24:56.044Z</time></trkpt><trkpt lat="43.26827" lon="11.040455"><ele>357.5</ele><time>2026-03-28T11:24:57.043Z</time></trkpt><trkpt lat="43.26825" lon="11.0405483"><ele>359.66666666666663</ele><time>2026-03-28T11:24:58.044Z</time></trkpt><trkpt lat="43.2682283" lon="11.04063"><ele>361.8333333333333</ele><time>2026-03-28T11:24:59.044Z</time></trkpt><trkpt lat="43.26818" lon="11.04077"><ele>364.0</ele><time>2026-03-28T11:25:01.044Z</time></trkpt><trkpt lat="43.268115" lon="11.0408367"><ele>365.79999999999995</ele><time>2026-03-28T11:25:03.043Z</time></trkpt><trkpt lat="43.2679967" lon="11.0407817"><ele>367.59999999999997</ele><time>2026-03-28T11:25:05.044Z</time></trkpt><trkpt lat="43.26791" lon="11.0407383"><ele>369.4</ele><time>2026-03-28T11:25:06.044Z</time></trkpt><trkpt lat="43.2678117" lon="11.0406933"><ele>371.2</ele><time>2026-03-28T11:25:07.044Z</time></trkpt><trkpt lat="43.2677067" lon="11.0406467"><ele>373.0</ele><time>2026-03-28T11:25:08.044Z</time></trkpt><trkpt lat="43.267605" lon="11.0406083"><ele>373.0</ele><time>2026-03-28T11:25:09.044Z</time></trkpt><trkpt lat="43.2675067" lon="11.0405633"><ele>373.0</ele><time>2026-03-28T11:25:10.044Z</time></trkpt><trkpt lat="43.267405" lon="11.04053"><ele>373.0</ele><time>2026-03-28T11:25:11.043Z</time></trkpt><trkpt lat="43.267305" lon="11.0404933"><ele>373.0</ele><time>2026-03-28T11:25:12.043Z</time></trkpt><trkpt lat="43.2671983" lon="11.04046"><ele>373.0</ele><time>2026-03-28T11:25:13.044Z</time></trkpt><trkpt lat="43.2670967" lon="11.0404333"><ele>374.0</ele><time>2026-03-28T11:25:14.044Z</time></trkpt><trkpt lat="43.267" lon="11.04042"><ele>375.0</ele><time>2026-03-28T11:25:15.044Z</time></trkpt><trkpt lat="43.2669067" lon="11.040405"><ele>376.0</ele><time>2026-03-28T11:25:16.043Z</time></trkpt><trkpt lat="43.26682" lon="11.04039"><ele>377.0</ele><time>2026-03-28T11:25:17.044Z</time></trkpt><trkpt lat="43.266735" lon="11.0403583"><ele>378.0</ele><time>2026-03-28T11:25:18.044Z</time></trkpt><trkpt lat="43.2666583" lon="11.0402983"><ele>378.0</ele><time>2026-03-28T11:25:19.043Z</time></trkpt><trkpt lat="43.2666033" lon="11.04021"><ele>378.0</ele><time>2026-03-28T11:25:20.044Z</time></trkpt><trkpt lat="43.2665517" lon="11.0401067"><ele>378.0</ele><time>2026-03-28T11:25:21.044Z</time></trkpt><trkpt lat="43.26648" lon="11.0400067"><ele>378.0</ele><time>2026-03-28T11:25:22.044Z</time></trkpt><trkpt lat="43.266415" lon="11.039915"><ele>378.0</ele><time>2026-03-28T11:25:23.043Z</time></trkpt><trkpt lat="43.2663333" lon="11.0398367"><ele>376.59999999999997</ele><time>2026-03-28T11:25:24.044Z</time></trkpt><trkpt lat="43.2662383" lon="11.0397867"><ele>375.2</ele><time>2026-03-28T11:25:25.044Z</time></trkpt><trkpt lat="43.2661267" lon="11.0397633"><ele>373.8</ele><time>2026-03-28T11:25:26.044Z</time></trkpt><trkpt lat="43.2660167" lon="11.0397567"><ele>372.4</ele><time>2026-03-28T11:25:27.044Z</time></trkpt><trkpt lat="43.2659183" lon="11.0397733"><ele>371.0</ele><time>2026-03-28T11:25:28.044Z</time></trkpt><trkpt lat="43.265815" lon="11.0398033"><ele>371.0</ele><time>2026-03-28T11:25:29.044Z</time></trkpt><trkpt lat="43.2657083" lon="11.0398517"><ele>371.0</ele><time>2026-03-28T11:25:30.044Z</time></trkpt><trkpt lat="43.2656" lon="11.039905"><ele>371.0</ele><time>2026-03-28T11:25:31.044Z</time></trkpt><trkpt lat="43.2654933" lon="11.0399467"><ele>371.0</ele><time>2026-03-28T11:25:32.044Z</time></trkpt><trkpt lat="43.2653817" lon="11.03998"><ele>377.75</ele><time>2026-03-28T11:25:33.043Z</time></trkpt><trkpt lat="43.2652733" lon="11.0400067"><ele>384.5</ele><time>2026-03-28T11:25:34.043Z</time></trkpt><trkpt lat="43.2651583" lon="11.0400367"><ele>391.25</ele><time>2026-03-28T11:25:35.044Z</time></trkpt><trkpt lat="43.26505" lon="11.0400683"><ele>398.0</ele><time>2026-03-28T11:25:36.044Z</time></trkpt><trkpt lat="43.2649333" lon="11.0400983"><ele>398.0</ele><time>2026-03-28T11:25:37.044Z</time></trkpt><trkpt lat="43.26482" lon="11.0401083"><ele>398.0</ele><time>2026-03-28T11:25:38.044Z</time></trkpt><trkpt lat="43.2647167" lon="11.0401033"><ele>398.0</ele><time>2026-03-28T11:25:39.044Z</time></trkpt><trkpt lat="43.2646217" lon="11.0400733"><ele>398.0</ele><time>2026-03-28T11:25:40.044Z</time></trkpt><trkpt lat="43.2645283" lon="11.04001"><ele>398.0</ele><time>2026-03-28T11:25:41.044Z</time></trkpt><trkpt lat="43.264435" lon="11.0399267"><ele>399.4</ele><time>2026-03-28T11:25:42.044Z</time></trkpt><trkpt lat="43.2643367" lon="11.0398417"><ele>400.79999999999995</ele><time>2026-03-28T11:25:43.044Z</time></trkpt><trkpt lat="43.2642517" lon="11.0397467"><ele>402.2</ele><time>2026-03-28T11:25:44.044Z</time></trkpt><trkpt lat="43.2641867" lon="11.0396467"><ele>403.6</ele><time>2026-03-28T11:25:45.044Z</time></trkpt><trkpt lat="43.264135" lon="11.03954"><ele>405.0</ele><time>2026-03-28T11:25:46.043Z</time></trkpt><trkpt lat="43.26412" lon="11.03937"><ele>405.0</ele><time>2026-03-28T11:25:48.043Z</time></trkpt><trkpt lat="43.2641317" lon="11.0392667"><ele>405.0</ele><time>2026-03-28T11:25:49.044Z</time></trkpt><trkpt lat="43.2641567" lon="11.039155"><ele>405.0</ele><time>2026-03-28T11:25:50.044Z</time></trkpt><trkpt lat="43.2641917" lon="11.03904"><ele>405.0</ele><time>2026-03-28T11:25:51.044Z</time></trkpt><trkpt lat="43.264225" lon="11.0389167"><ele>405.0</ele><time>2026-03-28T11:25:52.044Z</time></trkpt><trkpt lat="43.2642617" lon="11.038775"><ele>406.25</ele><time>2026-03-28T11:25:53.044Z</time></trkpt><trkpt lat="43.2642983" lon="11.0386233"><ele>407.5</ele><time>2026-03-28T11:25:54.044Z</time></trkpt><trkpt lat="43.2643433" lon="11.0384667"><ele>408.75</ele><time>2026-03-28T11:25:55.044Z</time></trkpt><trkpt lat="43.2644017" lon="11.038305"><ele>410.0</ele><time>2026-03-28T11:25:56.044Z</time></trkpt><trkpt lat="43.26445" lon="11.0381467"><ele>410.0</ele><time>2026-03-28T11:25:57.044Z</time></trkpt><trkpt lat="43.2644767" lon="11.0380017"><ele>410.0</ele><time>2026-03-28T11:25:58.044Z</time></trkpt><trkpt lat="43.26449" lon="11.03785"><ele>410.0</ele><time>2026-03-28T11:25:59.044Z</time></trkpt><trkpt lat="43.2644917" lon="11.0377"><ele>410.0</ele><time>2026-03-28T11:26:00.044Z</time></trkpt><trkpt lat="43.2644783" lon="11.0375633"><ele>410.0</ele><time>2026-03-28T11:26:01.044Z</time></trkpt><trkpt lat="43.2644483" lon="11.0374283"><ele>407.66666666666663</ele><time>2026-03-28T11:26:02.044Z</time></trkpt><trkpt lat="43.2644067" lon="11.0373117"><ele>405.3333333333333</ele><time>2026-03-28T11:26:03.043Z</time></trkpt><trkpt lat="43.2643583" lon="11.037215"><ele>403.0</ele><time>2026-03-28T11:26:04.043Z</time></trkpt><trkpt lat="43.2643117" lon="11.037145"><ele>400.66666666666663</ele><time>2026-03-28T11:26:05.044Z</time></trkpt><trkpt lat="43.2642617" lon="11.0370883"><ele>398.3333333333333</ele><time>2026-03-28T11:26:06.044Z</time></trkpt><trkpt lat="43.2641367" lon="11.03707"><ele>396.0</ele><time>2026-03-28T11:26:08.044Z</time></trkpt><trkpt lat="43.2640417" lon="11.037105"><ele>396.0</ele><time>2026-03-28T11:26:09.044Z</time></trkpt><trkpt lat="43.2639483" lon="11.03714"><ele>396.0</ele><time>2026-03-28T11:26:10.044Z</time></trkpt><trkpt lat="43.2638483" lon="11.0371733"><ele>396.0</ele><time>2026-03-28T11:26:11.044Z</time></trkpt><trkpt lat="43.2637417" lon="11.037205"><ele>396.0</ele><time>2026-03-28T11:26:12.044Z</time></trkpt><trkpt lat="43.263635" lon="11.0372333"><ele>396.0</ele><time>2026-03-28T11:26:13.043Z</time></trkpt><trkpt lat="43.2635233" lon="11.0372683"><ele>395.8</ele><time>2026-03-28T11:26:14.043Z</time></trkpt><trkpt lat="43.2634283" lon="11.0373067"><ele>395.6</ele><time>2026-03-28T11:26:15.044Z</time></trkpt><trkpt lat="43.26333" lon="11.03736"><ele>395.4</ele><time>2026-03-28T11:26:16.044Z</time></trkpt><trkpt lat="43.2632317" lon="11.0374367"><ele>395.2</ele><time>2026-03-28T11:26:17.044Z</time></trkpt><trkpt lat="43.2631367" lon="11.03751"><ele>395.0</ele><time>2026-03-28T11:26:18.044Z</time></trkpt><trkpt lat="43.2630267" lon="11.0375717"><ele>400.75</ele><time>2026-03-28T11:26:19.044Z</time></trkpt><trkpt lat="43.262915" lon="11.037645"><ele>406.5</ele><time>2026-03-28T11:26:20.044Z</time></trkpt><trkpt lat="43.2628067" lon="11.0377217"><ele>412.25</ele><time>2026-03-28T11:26:21.044Z</time></trkpt><trkpt lat="43.262695" lon="11.0378033"><ele>418.0</ele><time>2026-03-28T11:26:22.043Z</time></trkpt><trkpt lat="43.2625933" lon="11.0378767"><ele>418.0</ele><time>2026-03-28T11:26:23.044Z</time></trkpt><trkpt lat="43.2624833" lon="11.0379683"><ele>418.0</ele><time>2026-03-28T11:26:24.044Z</time></trkpt><trkpt lat="43.26238" lon="11.0380417"><ele>418.0</ele><time>2026-03-28T11:26:25.044Z</time></trkpt><trkpt lat="43.2622733" lon="11.0381017"><ele>418.0</ele><time>2026-03-28T11:26:26.043Z</time></trkpt><trkpt lat="43.26218" lon="11.0381483"><ele>420.2</ele><time>2026-03-28T11:26:27.044Z</time></trkpt><trkpt lat="43.2620917" lon="11.03818"><ele>422.4</ele><time>2026-03-28T11:26:28.044Z</time></trkpt><trkpt lat="43.2620233" lon="11.038195"><ele>424.59999999999997</ele><time>2026-03-28T11:26:29.044Z</time></trkpt><trkpt lat="43.2619417" lon="11.0381233"><ele>426.79999999999995</ele><time>2026-03-28T11:26:31.044Z</time></trkpt><trkpt lat="43.261915" lon="11.0379333"><ele>429.0</ele><time>2026-03-28T11:26:33.044Z</time></trkpt><trkpt lat="43.261915" lon="11.0378"><ele>429.0</ele><time>2026-03-28T11:26:34.044Z</time></trkpt><trkpt lat="43.261925" lon="11.0376467"><ele>429.0</ele><time>2026-03-28T11:26:35.044Z</time></trkpt><trkpt lat="43.26193" lon="11.037475"><ele>429.0</ele><time>2026-03-28T11:26:36.044Z</time></trkpt><trkpt lat="43.26192" lon="11.0372967"><ele>429.0</ele><time>2026-03-28T11:26:37.044Z</time></trkpt><trkpt lat="43.2618633" lon="11.03716"><ele>426.2</ele><time>2026-03-28T11:26:38.044Z</time></trkpt><trkpt lat="43.2617917" lon="11.0370367"><ele>423.4</ele><time>2026-03-28T11:26:39.044Z</time></trkpt><trkpt lat="43.2617" lon="11.036965"><ele>420.6</ele><time>2026-03-28T11:26:40.044Z</time></trkpt><trkpt lat="43.2616067" lon="11.0369583"><ele>417.8</ele><time>2026-03-28T11:26:41.044Z</time></trkpt><trkpt lat="43.261485" lon="11.0370033"><ele>415.0</ele><time>2026-03-28T11:26:42.044Z</time></trkpt><trkpt lat="43.2613517" lon="11.037095"><ele>412.33333333333337</ele><time>2026-03-28T11:26:43.044Z</time></trkpt><trkpt lat="43.2612167" lon="11.0371767"><ele>409.66666666666663</ele><time>2026-03-28T11:26:44.044Z</time></trkpt><trkpt lat="43.2610633" lon="11.0372267"><ele>407.0</ele><time>2026-03-28T11:26:45.044Z</time></trkpt><trkpt lat="43.26089" lon="11.0372633"><ele>407.0</ele><time>2026-03-28T11:26:46.044Z</time></trkpt><trkpt lat="43.26073" lon="11.0372733"><ele>407.0</ele><time>2026-03-28T11:26:47.044Z</time></trkpt><trkpt lat="43.2605733" lon="11.0372533"><ele>407.0</ele><time>2026-03-28T11:26:48.044Z</time></trkpt><trkpt lat="43.2604233" lon="11.0371917"><ele>408.0</ele><time>2026-03-28T11:26:49.043Z</time></trkpt><trkpt lat="43.2602983" lon="11.0370817"><ele>409.0</ele><time>2026-03-28T11:26:50.043Z</time></trkpt><trkpt lat="43.2602033" lon="11.03695"><ele>410.0</ele><time>2026-03-28T11:26:51.044Z</time></trkpt><trkpt lat="43.2601133" lon="11.0367967"><ele>411.0</ele><time>2026-03-28T11:26:52.044Z</time></trkpt><trkpt lat="43.26004" lon="11.036645"><ele>409.0</ele><time>2026-03-28T11:26:53.044Z</time></trkpt><trkpt lat="43.25997" lon="11.036495"><ele>407.0</ele><time>2026-03-28T11:26:54.044Z</time></trkpt><trkpt lat="43.2599117" lon="11.0363367"><ele>405.0</ele><time>2026-03-28T11:26:55.044Z</time></trkpt><trkpt lat="43.259875" lon="11.0361667"><ele>403.0</ele><time>2026-03-28T11:26:56.043Z</time></trkpt><trkpt lat="43.259845" lon="11.0359883"><ele>403.0</ele><time>2026-03-28T11:26:57.044Z</time></trkpt><trkpt lat="43.2598067" lon="11.03582"><ele>403.0</ele><time>2026-03-28T11:26:58.043Z</time></trkpt><trkpt lat="43.2597683" lon="11.0356667"><ele>403.0</ele><time>2026-03-28T11:26:59.044Z</time></trkpt><trkpt lat="43.25972" lon="11.0355383"><ele>403.0</ele><time>2026-03-28T11:27:00.044Z</time></trkpt><trkpt lat="43.2596383" lon="11.0354417"><ele>400.5</ele><time>2026-03-28T11:27:01.044Z</time></trkpt><trkpt lat="43.2595233" lon="11.035365"><ele>398.0</ele><time>2026-03-28T11:27:02.044Z</time></trkpt><trkpt lat="43.2593967" lon="11.0353217"><ele>395.5</ele><time>2026-03-28T11:27:03.044Z</time></trkpt><trkpt lat="43.2592617" lon="11.0353167"><ele>393.0</ele><time>2026-03-28T11:27:04.044Z</time></trkpt><trkpt lat="43.2591033" lon="11.0353467"><ele>394.0</ele><time>2026-03-28T11:27:05.044Z</time></trkpt><trkpt lat="43.2589417" lon="11.035375"><ele>395.0</ele><time>2026-03-28T11:27:06.044Z</time></trkpt><trkpt lat="43.2587867" lon="11.0353783"><ele>396.0</ele><time>2026-03-28T11:27:07.044Z</time></trkpt><trkpt lat="43.25865" lon="11.0353283"><ele>396.0</ele><time>2026-03-28T11:27:08.044Z</time></trkpt><trkpt lat="43.2585283" lon="11.03522"><ele>396.0</ele><time>2026-03-28T11:27:09.043Z</time></trkpt><trkpt lat="43.2584067" lon="11.0350683"><ele>396.0</ele><time>2026-03-28T11:27:10.044Z</time></trkpt><trkpt lat="43.2582633" lon="11.03497"><ele>389.6666666666667</ele><time>2026-03-28T11:27:11.044Z</time></trkpt><trkpt lat="43.2581" lon="11.034905"><ele>383.33333333333337</ele><time>2026-03-28T11:27:12.044Z</time></trkpt><trkpt lat="43.257925" lon="11.0348617"><ele>377.0</ele><time>2026-03-28T11:27:13.044Z</time></trkpt><trkpt lat="43.2577467" lon="11.0348233"><ele>377.0</ele><time>2026-03-28T11:27:14.044Z</time></trkpt><trkpt lat="43.257585" lon="11.0347733"><ele>377.0</ele><time>2026-03-28T11:27:15.044Z</time></trkpt><trkpt lat="43.2574167" lon="11.03475"><ele>377.0</ele><time>2026-03-28T11:27:16.044Z</time></trkpt><trkpt lat="43.25726" lon="11.03473"><ele>377.20000000000005</ele><time>2026-03-28T11:27:17.044Z</time></trkpt><trkpt lat="43.257125" lon="11.0347267"><ele>377.4</ele><time>2026-03-28T11:27:18.044Z</time></trkpt><trkpt lat="43.257" lon="11.0347483"><ele>377.6</ele><time>2026-03-28T11:27:19.044Z</time></trkpt><trkpt lat="43.256915" lon="11.0347683"><ele>377.79999999999995</ele><time>2026-03-28T11:27:20.044Z</time></trkpt><trkpt lat="43.2568533" lon="11.0347967"><ele>378.0</ele><time>2026-03-28T11:27:21.044Z</time></trkpt><trkpt lat="43.2568" lon="11.03472"><ele>378.0</ele><time>2026-03-28T11:27:24.044Z</time></trkpt><trkpt lat="43.2568233" lon="11.0345867"><ele>378.0</ele><time>2026-03-28T11:27:26.044Z</time></trkpt><trkpt lat="43.256845" lon="11.0344533"><ele>378.0</ele><time>2026-03-28T11:27:28.043Z</time></trkpt><trkpt lat="43.25684" lon="11.0342983"><ele>378.0</ele><time>2026-03-28T11:27:30.044Z</time></trkpt><trkpt lat="43.2568283" lon="11.0341317"><ele>378.0</ele><time>2026-03-28T11:27:32.044Z</time></trkpt><trkpt lat="43.2568333" lon="11.0340433"><ele>374.4</ele><time>2026-03-28T11:27:33.044Z</time></trkpt><trkpt lat="43.2568717" lon="11.0339"><ele>370.79999999999995</ele><time>2026-03-28T11:27:35.044Z</time></trkpt><trkpt lat="43.2569517" lon="11.0337767"><ele>367.2</ele><time>2026-03-28T11:27:37.044Z</time></trkpt><trkpt lat="43.2570483" lon="11.0336733"><ele>363.6</ele><time>2026-03-28T11:27:39.044Z</time></trkpt><trkpt lat="43.2571067" lon="11.0336217"><ele>360.0</ele><time>2026-03-28T11:27:40.044Z</time></trkpt><trkpt lat="43.2571733" lon="11.0335633"><ele>360.0</ele><time>2026-03-28T11:27:41.044Z</time></trkpt><trkpt lat="43.2572533" lon="11.0335117"><ele>360.0</ele><time>2026-03-28T11:27:42.044Z</time></trkpt><trkpt lat="43.25734" lon="11.03347"><ele>360.0</ele><time>2026-03-28T11:27:43.044Z</time></trkpt><trkpt lat="43.2574317" lon="11.0334467"><ele>360.0</ele><time>2026-03-28T11:27:44.044Z</time></trkpt><trkpt lat="43.2575233" lon="11.03345"><ele>360.0</ele><time>2026-03-28T11:27:45.043Z</time></trkpt><trkpt lat="43.2576283" lon="11.0334617"><ele>360.75</ele><time>2026-03-28T11:27:46.044Z</time></trkpt><trkpt lat="43.2577417" lon="11.03348"><ele>361.5</ele><time>2026-03-28T11:27:47.044Z</time></trkpt><trkpt lat="43.2578533" lon="11.0335"><ele>362.25</ele><time>2026-03-28T11:27:48.044Z</time></trkpt><trkpt lat="43.257965" lon="11.0335217"><ele>363.0</ele><time>2026-03-28T11:27:49.043Z</time></trkpt><trkpt lat="43.25808" lon="11.0335417"><ele>360.59999999999997</ele><time>2026-03-28T11:27:50.044Z</time></trkpt><trkpt lat="43.258195" lon="11.0335567"><ele>358.2</ele><time>2026-03-28T11:27:51.044Z</time></trkpt><trkpt lat="43.2583117" lon="11.0335733"><ele>355.8</ele><time>2026-03-28T11:27:52.044Z</time></trkpt><trkpt lat="43.25842" lon="11.033595"><ele>353.4</ele><time>2026-03-28T11:27:53.044Z</time></trkpt><trkpt lat="43.25852" lon="11.03361"><ele>351.0</ele><time>2026-03-28T11:27:54.044Z</time></trkpt><trkpt lat="43.2586167" lon="11.0336217"><ele>351.0</ele><time>2026-03-28T11:27:55.044Z</time></trkpt><trkpt lat="43.2587167" lon="11.033635"><ele>351.0</ele><time>2026-03-28T11:27:56.044Z</time></trkpt><trkpt lat="43.25882" lon="11.0336567"><ele>351.0</ele><time>2026-03-28T11:27:57.044Z</time></trkpt><trkpt lat="43.258915" lon="11.0336833"><ele>351.0</ele><time>2026-03-28T11:27:58.044Z</time></trkpt><trkpt lat="43.2589833" lon="11.033735"><ele>351.0</ele><time>2026-03-28T11:27:59.044Z</time></trkpt><trkpt lat="43.2590483" lon="11.0337833"><ele>350.3333333333333</ele><time>2026-03-28T11:28:00.044Z</time></trkpt><trkpt lat="43.2591117" lon="11.03381"><ele>349.6666666666667</ele><time>2026-03-28T11:28:01.044Z</time></trkpt><trkpt lat="43.2592133" lon="11.033805"><ele>349.0</ele><time>2026-03-28T11:28:03.044Z</time></trkpt><trkpt lat="43.2592683" lon="11.0337417"><ele>348.33333333333337</ele><time>2026-03-28T11:28:04.044Z</time></trkpt><trkpt lat="43.2593333" lon="11.0336617"><ele>347.6666666666667</ele><time>2026-03-28T11:28:05.044Z</time></trkpt><trkpt lat="43.2594183" lon="11.0335483"><ele>347.0</ele><time>2026-03-28T11:28:06.044Z</time></trkpt><trkpt lat="43.2595133" lon="11.033455"><ele>347.0</ele><time>2026-03-28T11:28:07.044Z</time></trkpt><trkpt lat="43.259585" lon="11.0333283"><ele>347.0</ele><time>2026-03-28T11:28:08.044Z</time></trkpt><trkpt lat="43.2596583" lon="11.033235"><ele>347.0</ele><time>2026-03-28T11:28:09.044Z</time></trkpt><trkpt lat="43.2597433" lon="11.0331567"><ele>347.0</ele><time>2026-03-28T11:28:10.044Z</time></trkpt><trkpt lat="43.259855" lon="11.0331033"><ele>347.0</ele><time>2026-03-28T11:28:11.044Z</time></trkpt><trkpt lat="43.259965" lon="11.033065"><ele>345.6666666666667</ele><time>2026-03-28T11:28:12.044Z</time></trkpt><trkpt lat="43.2600467" lon="11.0330333"><ele>344.33333333333337</ele><time>2026-03-28T11:28:13.044Z</time></trkpt><trkpt lat="43.2601133" lon="11.0329833"><ele>343.0</ele><time>2026-03-28T11:28:14.044Z</time></trkpt><trkpt lat="43.26016" lon="11.03291"><ele>341.6666666666667</ele><time>2026-03-28T11:28:15.044Z</time></trkpt><trkpt lat="43.2601867" lon="11.0328133"><ele>340.3333333333333</ele><time>2026-03-28T11:28:16.044Z</time></trkpt><trkpt lat="43.2601967" lon="11.0326967"><ele>339.0</ele><time>2026-03-28T11:28:17.044Z</time></trkpt><trkpt lat="43.2601983" lon="11.0325633"><ele>337.0</ele><time>2026-03-28T11:28:18.044Z</time></trkpt><trkpt lat="43.260195" lon="11.0324017"><ele>335.0</ele><time>2026-03-28T11:28:19.044Z</time></trkpt><trkpt lat="43.2601917" lon="11.032235"><ele>333.0</ele><time>2026-03-28T11:28:20.044Z</time></trkpt><trkpt lat="43.260185" lon="11.03206"><ele>331.0</ele><time>2026-03-28T11:28:21.044Z</time></trkpt><trkpt lat="43.2601767" lon="11.031895"><ele>331.0</ele><time>2026-03-28T11:28:22.044Z</time></trkpt><trkpt lat="43.2601783" lon="11.0317233"><ele>331.0</ele><time>2026-03-28T11:28:23.044Z</time></trkpt><trkpt lat="43.2601867" lon="11.031565"><ele>331.0</ele><time>2026-03-28T11:28:24.044Z</time></trkpt><trkpt lat="43.2601883" lon="11.0314083"><ele>331.0</ele><time>2026-03-28T11:28:25.044Z</time></trkpt><trkpt lat="43.2601917" lon="11.0312733"><ele>328.8333333333333</ele><time>2026-03-28T11:28:26.044Z</time></trkpt><trkpt lat="43.260195" lon="11.0311633"><ele>326.66666666666663</ele><time>2026-03-28T11:28:27.044Z</time></trkpt><trkpt lat="43.2602" lon="11.0310717"><ele>324.5</ele><time>2026-03-28T11:28:28.044Z</time></trkpt><trkpt lat="43.26023" lon="11.0309833"><ele>322.3333333333333</ele><time>2026-03-28T11:28:30.044Z</time></trkpt><trkpt lat="43.2602917" lon="11.0309567"><ele>320.1666666666667</ele><time>2026-03-28T11:28:32.044Z</time></trkpt><trkpt lat="43.2603983" lon="11.030855"><ele>318.0</ele><time>2026-03-28T11:28:34.043Z</time></trkpt><trkpt lat="43.260465" lon="11.0307517"><ele>317.75</ele><time>2026-03-28T11:28:35.044Z</time></trkpt><trkpt lat="43.26053" lon="11.030625"><ele>317.5</ele><time>2026-03-28T11:28:36.044Z</time></trkpt><trkpt lat="43.2605883" lon="11.0304883"><ele>317.25</ele><time>2026-03-28T11:28:37.043Z</time></trkpt><trkpt lat="43.2606417" lon="11.0303367"><ele>317.0</ele><time>2026-03-28T11:28:38.044Z</time></trkpt><trkpt lat="43.2606933" lon="11.0301967"><ele>317.0</ele><time>2026-03-28T11:28:39.043Z</time></trkpt><trkpt lat="43.2607417" lon="11.03006"><ele>317.0</ele><time>2026-03-28T11:28:40.044Z</time></trkpt><trkpt lat="43.2608" lon="11.0299017"><ele>317.0</ele><time>2026-03-28T11:28:41.044Z</time></trkpt><trkpt lat="43.2608583" lon="11.0297567"><ele>317.0</ele><time>2026-03-28T11:28:42.044Z</time></trkpt><trkpt lat="43.260915" lon="11.0296067"><ele>316.8</ele><time>2026-03-28T11:28:43.044Z</time></trkpt><trkpt lat="43.2609517" lon="11.0294633"><ele>316.6</ele><time>2026-03-28T11:28:44.044Z</time></trkpt><trkpt lat="43.2609917" lon="11.0293283"><ele>316.40000000000003</ele><time>2026-03-28T11:28:45.044Z</time></trkpt><trkpt lat="43.2610233" lon="11.0292033"><ele>316.2</ele><time>2026-03-28T11:28:46.044Z</time></trkpt><trkpt lat="43.26105" lon="11.0290883"><ele>316.0</ele><time>2026-03-28T11:28:47.044Z</time></trkpt><trkpt lat="43.2610617" lon="11.028975"><ele>315.66666666666663</ele><time>2026-03-28T11:28:48.044Z</time></trkpt><trkpt lat="43.2610567" lon="11.028875"><ele>315.3333333333333</ele><time>2026-03-28T11:28:49.044Z</time></trkpt><trkpt lat="43.2610283" lon="11.028795"><ele>315.0</ele><time>2026-03-28T11:28:50.043Z</time></trkpt><trkpt lat="43.2609783" lon="11.0287217"><ele>314.6666666666667</ele><time>2026-03-28T11:28:51.044Z</time></trkpt><trkpt lat="43.2609217" lon="11.0286467"><ele>314.33333333333337</ele><time>2026-03-28T11:28:52.044Z</time></trkpt><trkpt lat="43.2608867" lon="11.0285683"><ele>314.0</ele><time>2026-03-28T11:28:53.044Z</time></trkpt><trkpt lat="43.2608733" lon="11.028395"><ele>314.25</ele><time>2026-03-28T11:28:55.044Z</time></trkpt><trkpt lat="43.2609" lon="11.0282683"><ele>314.5</ele><time>2026-03-28T11:28:56.044Z</time></trkpt><trkpt lat="43.2609333" lon="11.028125"><ele>314.75</ele><time>2026-03-28T11:28:57.043Z</time></trkpt><trkpt lat="43.2609633" lon="11.0279617"><ele>315.0</ele><time>2026-03-28T11:28:58.044Z</time></trkpt><trkpt lat="43.2609983" lon="11.0277967"><ele>315.0</ele><time>2026-03-28T11:28:59.044Z</time></trkpt><trkpt lat="43.261025" lon="11.0276333"><ele>315.0</ele><time>2026-03-28T11:29:00.044Z</time></trkpt><trkpt lat="43.2610467" lon="11.02748"><ele>315.0</ele><time>2026-03-28T11:29:01.044Z</time></trkpt><trkpt lat="43.2610683" lon="11.0273333"><ele>315.0</ele><time>2026-03-28T11:29:02.043Z</time></trkpt><trkpt lat="43.261095" lon="11.027175"><ele>314.8333333333333</ele><time>2026-03-28T11:29:03.043Z</time></trkpt><trkpt lat="43.2611267" lon="11.0270283"><ele>314.6666666666667</ele><time>2026-03-28T11:29:04.044Z</time></trkpt><trkpt lat="43.26116" lon="11.0268967"><ele>314.5</ele><time>2026-03-28T11:29:05.043Z</time></trkpt><trkpt lat="43.2611817" lon="11.0267883"><ele>314.33333333333337</ele><time>2026-03-28T11:29:06.044Z</time></trkpt><trkpt lat="43.2611783" lon="11.0266983"><ele>314.1666666666667</ele><time>2026-03-28T11:29:07.043Z</time></trkpt><trkpt lat="43.2611667" lon="11.0266067"><ele>314.0</ele><time>2026-03-28T11:29:08.043Z</time></trkpt><trkpt lat="43.2611683" lon="11.02652"><ele>313.0</ele><time>2026-03-28T11:29:09.043Z</time></trkpt><trkpt lat="43.261175" lon="11.0264167"><ele>312.0</ele><time>2026-03-28T11:29:10.044Z</time></trkpt><trkpt lat="43.261195" lon="11.0263083"><ele>311.0</ele><time>2026-03-28T11:29:11.043Z</time></trkpt><trkpt lat="43.261225" lon="11.02619"><ele>310.0</ele><time>2026-03-28T11:29:12.044Z</time></trkpt><trkpt lat="43.26126" lon="11.02609"><ele>309.0</ele><time>2026-03-28T11:29:13.044Z</time></trkpt><trkpt lat="43.2612917" lon="11.0260117"><ele>308.0</ele><time>2026-03-28T11:29:14.044Z</time></trkpt><trkpt lat="43.2613483" lon="11.0258567"><ele>307.6666666666667</ele><time>2026-03-28T11:29:16.044Z</time></trkpt><trkpt lat="43.2613817" lon="11.02577"><ele>307.33333333333337</ele><time>2026-03-28T11:29:17.043Z</time></trkpt><trkpt lat="43.26142" lon="11.02567"><ele>307.0</ele><time>2026-03-28T11:29:18.044Z</time></trkpt><trkpt lat="43.261465" lon="11.0255733"><ele>306.6666666666667</ele><time>2026-03-28T11:29:19.044Z</time></trkpt><trkpt lat="43.2615217" lon="11.02548"><ele>306.3333333333333</ele><time>2026-03-28T11:29:20.044Z</time></trkpt><trkpt lat="43.261585" lon="11.02538"><ele>306.0</ele><time>2026-03-28T11:29:21.043Z</time></trkpt><trkpt lat="43.261645" lon="11.0252883"><ele>306.0</ele><time>2026-03-28T11:29:22.044Z</time></trkpt><trkpt lat="43.261715" lon="11.025195"><ele>306.0</ele><time>2026-03-28T11:29:23.044Z</time></trkpt><trkpt lat="43.261785" lon="11.025105"><ele>306.0</ele><time>2026-03-28T11:29:24.044Z</time></trkpt><trkpt lat="43.2618567" lon="11.02501"><ele>306.0</ele><time>2026-03-28T11:29:25.044Z</time></trkpt><trkpt lat="43.2619267" lon="11.0249083"><ele>306.0</ele><time>2026-03-28T11:29:26.044Z</time></trkpt><trkpt lat="43.26198" lon="11.024815"><ele>303.2</ele><time>2026-03-28T11:29:27.044Z</time></trkpt><trkpt lat="43.2620283" lon="11.0247083"><ele>300.40000000000003</ele><time>2026-03-28T11:29:28.044Z</time></trkpt><trkpt lat="43.262065" lon="11.0245933"><ele>297.6</ele><time>2026-03-28T11:29:29.044Z</time></trkpt><trkpt lat="43.2620967" lon="11.0244583"><ele>294.8</ele><time>2026-03-28T11:29:30.044Z</time></trkpt><trkpt lat="43.26212" lon="11.0243183"><ele>292.0</ele><time>2026-03-28T11:29:31.043Z</time></trkpt><trkpt lat="43.26214" lon="11.0241817"><ele>293.4</ele><time>2026-03-28T11:29:32.044Z</time></trkpt><trkpt lat="43.2621683" lon="11.0240517"><ele>294.79999999999995</ele><time>2026-03-28T11:29:33.044Z</time></trkpt><trkpt lat="43.2622017" lon="11.0239383"><ele>296.2</ele><time>2026-03-28T11:29:34.044Z</time></trkpt><trkpt lat="43.26225" lon="11.0238283"><ele>297.59999999999997</ele><time>2026-03-28T11:29:35.044Z</time></trkpt><trkpt lat="43.2622933" lon="11.023715"><ele>299.0</ele><time>2026-03-28T11:29:36.044Z</time></trkpt><trkpt lat="43.2623367" lon="11.0236067"><ele>299.0</ele><time>2026-03-28T11:29:37.044Z</time></trkpt><trkpt lat="43.2623733" lon="11.0234983"><ele>299.0</ele><time>2026-03-28T11:29:38.044Z</time></trkpt><trkpt lat="43.2624217" lon="11.0233883"><ele>299.0</ele><time>2026-03-28T11:29:39.044Z</time></trkpt><trkpt lat="43.2624817" lon="11.0232767"><ele>299.0</ele><time>2026-03-28T11:29:40.044Z</time></trkpt><trkpt lat="43.2625533" lon="11.0231567"><ele>299.0</ele><time>2026-03-28T11:29:41.044Z</time></trkpt><trkpt lat="43.26261" lon="11.02305"><ele>298.2</ele><time>2026-03-28T11:29:42.044Z</time></trkpt><trkpt lat="43.262665" lon="11.0229433"><ele>297.4</ele><time>2026-03-28T11:29:43.043Z</time></trkpt><trkpt lat="43.2627117" lon="11.0228167"><ele>296.6</ele><time>2026-03-28T11:29:44.044Z</time></trkpt><trkpt lat="43.2627533" lon="11.02268"><ele>295.8</ele><time>2026-03-28T11:29:45.044Z</time></trkpt><trkpt lat="43.2627967" lon="11.0225367"><ele>295.0</ele><time>2026-03-28T11:29:46.044Z</time></trkpt><trkpt lat="43.262845" lon="11.0223917"><ele>294.0</ele><time>2026-03-28T11:29:47.044Z</time></trkpt><trkpt lat="43.262885" lon="11.0222567"><ele>293.0</ele><time>2026-03-28T11:29:48.044Z</time></trkpt><trkpt lat="43.26293" lon="11.02212"><ele>292.0</ele><time>2026-03-28T11:29:49.044Z</time></trkpt><trkpt lat="43.2629733" lon="11.022"><ele>291.0</ele><time>2026-03-28T11:29:50.044Z</time></trkpt><trkpt lat="43.2630183" lon="11.0218883"><ele>290.0</ele><time>2026-03-28T11:29:51.044Z</time></trkpt><trkpt lat="43.2630683" lon="11.0217933"><ele>292.0</ele><time>2026-03-28T11:29:52.044Z</time></trkpt><trkpt lat="43.263125" lon="11.021725"><ele>294.0</ele><time>2026-03-28T11:29:53.044Z</time></trkpt><trkpt lat="43.2631883" lon="11.021675"><ele>296.0</ele><time>2026-03-28T11:29:54.044Z</time></trkpt><trkpt lat="43.2632667" lon="11.021655"><ele>298.0</ele><time>2026-03-28T11:29:55.044Z</time></trkpt><trkpt lat="43.2633567" lon="11.0216567"><ele>300.0</ele><time>2026-03-28T11:29:56.044Z</time></trkpt><trkpt lat="43.2634633" lon="11.0216717"><ele>302.0</ele><time>2026-03-28T11:29:57.044Z</time></trkpt><trkpt lat="43.2635833" lon="11.0216817"><ele>302.0</ele><time>2026-03-28T11:29:58.044Z</time></trkpt><trkpt lat="43.263705" lon="11.0216917"><ele>302.0</ele><time>2026-03-28T11:29:59.044Z</time></trkpt><trkpt lat="43.2638267" lon="11.0216917"><ele>302.0</ele><time>2026-03-28T11:30:00.044Z</time></trkpt><trkpt lat="43.2639433" lon="11.0216883"><ele>302.0</ele><time>2026-03-28T11:30:01.044Z</time></trkpt><trkpt lat="43.2640533" lon="11.0216867"><ele>300.6</ele><time>2026-03-28T11:30:02.044Z</time></trkpt><trkpt lat="43.2641667" lon="11.0216817"><ele>299.2</ele><time>2026-03-28T11:30:03.044Z</time></trkpt><trkpt lat="43.2642717" lon="11.0216783"><ele>297.8</ele><time>2026-03-28T11:30:04.044Z</time></trkpt><trkpt lat="43.2643783" lon="11.02167"><ele>296.4</ele><time>2026-03-28T11:30:05.044Z</time></trkpt><trkpt lat="43.2644733" lon="11.0216733"><ele>295.0</ele><time>2026-03-28T11:30:06.044Z</time></trkpt><trkpt lat="43.2645633" lon="11.0216667"><ele>295.0</ele><time>2026-03-28T11:30:07.044Z</time></trkpt><trkpt lat="43.264645" lon="11.0216567"><ele>295.0</ele><time>2026-03-28T11:30:08.044Z</time></trkpt><trkpt lat="43.2647233" lon="11.0216467"><ele>295.0</ele><time>2026-03-28T11:30:09.044Z</time></trkpt><trkpt lat="43.264795" lon="11.0216217"><ele>295.0</ele><time>2026-03-28T11:30:10.043Z</time></trkpt><trkpt lat="43.26487" lon="11.0215883"><ele>295.0</ele><time>2026-03-28T11:30:11.044Z</time></trkpt><trkpt lat="43.264935" lon="11.02155"><ele>295.0</ele><time>2026-03-28T11:30:12.044Z</time></trkpt><trkpt lat="43.264995" lon="11.0215117"><ele>292.66666666666663</ele><time>2026-03-28T11:30:13.044Z</time></trkpt><trkpt lat="43.265095" lon="11.0213967"><ele>290.3333333333333</ele><time>2026-03-28T11:30:15.044Z</time></trkpt><trkpt lat="43.2651567" lon="11.0213183"><ele>288.0</ele><time>2026-03-28T11:30:16.044Z</time></trkpt><trkpt lat="43.2652167" lon="11.02124"><ele>285.6666666666667</ele><time>2026-03-28T11:30:17.044Z</time></trkpt><trkpt lat="43.265275" lon="11.0211717"><ele>283.33333333333337</ele><time>2026-03-28T11:30:18.044Z</time></trkpt><trkpt lat="43.265325" lon="11.0211167"><ele>281.0</ele><time>2026-03-28T11:30:19.044Z</time></trkpt><trkpt lat="43.265385" lon="11.0210883"><ele>281.0</ele><time>2026-03-28T11:30:20.044Z</time></trkpt><trkpt lat="43.26544" lon="11.0211733"><ele>281.0</ele><time>2026-03-28T11:30:22.044Z</time></trkpt><trkpt lat="43.265455" lon="11.0213133"><ele>281.0</ele><time>2026-03-28T11:30:24.044Z</time></trkpt><trkpt lat="43.265475" lon="11.0214483"><ele>281.0</ele><time>2026-03-28T11:30:26.043Z</time></trkpt><trkpt lat="43.2655233" lon="11.0215217"><ele>281.0</ele><time>2026-03-28T11:30:28.044Z</time></trkpt><trkpt lat="43.265585" lon="11.021545"><ele>281.0</ele><time>2026-03-28T11:30:30.044Z</time></trkpt><trkpt lat="43.2656767" lon="11.02146"><ele>280.8</ele><time>2026-03-28T11:30:32.044Z</time></trkpt><trkpt lat="43.265735" lon="11.0213933"><ele>280.6</ele><time>2026-03-28T11:30:33.044Z</time></trkpt><trkpt lat="43.2658067" lon="11.0213183"><ele>280.4</ele><time>2026-03-28T11:30:34.043Z</time></trkpt><trkpt lat="43.265885" lon="11.0212333"><ele>280.2</ele><time>2026-03-28T11:30:35.043Z</time></trkpt><trkpt lat="43.2659567" lon="11.0211433"><ele>280.0</ele><time>2026-03-28T11:30:36.044Z</time></trkpt><trkpt lat="43.2660317" lon="11.0210633"><ele>280.0</ele><time>2026-03-28T11:30:37.044Z</time></trkpt><trkpt lat="43.2661067" lon="11.02097"><ele>280.0</ele><time>2026-03-28T11:30:38.044Z</time></trkpt><trkpt lat="43.2661733" lon="11.0208817"><ele>280.0</ele><time>2026-03-28T11:30:39.044Z</time></trkpt><trkpt lat="43.266235" lon="11.0207967"><ele>280.0</ele><time>2026-03-28T11:30:40.043Z</time></trkpt><trkpt lat="43.2662983" lon="11.0207117"><ele>280.0</ele><time>2026-03-28T11:30:41.044Z</time></trkpt><trkpt lat="43.26636" lon="11.0206333"><ele>279.6</ele><time>2026-03-28T11:30:42.043Z</time></trkpt><trkpt lat="43.2664267" lon="11.0205483"><ele>279.2</ele><time>2026-03-28T11:30:43.044Z</time></trkpt><trkpt lat="43.2665" lon="11.02045"><ele>278.8</ele><time>2026-03-28T11:30:44.044Z</time></trkpt><trkpt lat="43.266585" lon="11.0203483"><ele>278.4</ele><time>2026-03-28T11:30:45.044Z</time></trkpt><trkpt lat="43.266675" lon="11.0202333"><ele>278.0</ele><time>2026-03-28T11:30:46.044Z</time></trkpt><trkpt lat="43.2667567" lon="11.0201217"><ele>278.0</ele><time>2026-03-28T11:30:47.044Z</time></trkpt><trkpt lat="43.266835" lon="11.0200167"><ele>278.0</ele><time>2026-03-28T11:30:48.043Z</time></trkpt><trkpt lat="43.2669183" lon="11.019915"><ele>278.0</ele><time>2026-03-28T11:30:49.044Z</time></trkpt><trkpt lat="43.2670033" lon="11.0198133"><ele>278.0</ele><time>2026-03-28T11:30:50.044Z</time></trkpt><trkpt lat="43.2670833" lon="11.0197183"><ele>278.0</ele><time>2026-03-28T11:30:51.044Z</time></trkpt><trkpt lat="43.2671467" lon="11.01964"><ele>278.5</ele><time>2026-03-28T11:30:52.044Z</time></trkpt><trkpt lat="43.2672033" lon="11.0195667"><ele>279.0</ele><time>2026-03-28T11:30:53.044Z</time></trkpt><trkpt lat="43.267245" lon="11.0194967"><ele>279.5</ele><time>2026-03-28T11:30:54.044Z</time></trkpt><trkpt lat="43.267275" lon="11.0194183"><ele>280.0</ele><time>2026-03-28T11:30:55.044Z</time></trkpt><trkpt lat="43.2672983" lon="11.019255"><ele>280.5</ele><time>2026-03-28T11:30:57.044Z</time></trkpt><trkpt lat="43.267305" lon="11.01916"><ele>281.0</ele><time>2026-03-28T11:30:58.044Z</time></trkpt><trkpt lat="43.267325" lon="11.019065"><ele>281.0</ele><time>2026-03-28T11:30:59.044Z</time></trkpt><trkpt lat="43.267345" lon="11.018905"><ele>281.0</ele><time>2026-03-28T11:31:01.044Z</time></trkpt><trkpt lat="43.2673367" lon="11.018725"><ele>281.0</ele><time>2026-03-28T11:31:03.044Z</time></trkpt><trkpt lat="43.267335" lon="11.018625"><ele>281.0</ele><time>2026-03-28T11:31:04.044Z</time></trkpt><trkpt lat="43.2673283" lon="11.0185183"><ele>281.0</ele><time>2026-03-28T11:31:06.044Z</time></trkpt><trkpt lat="43.267295" lon="11.0184383"><ele>278.40000000000003</ele><time>2026-03-28T11:40:01.043Z</time></trkpt><trkpt lat="43.267265" lon="11.01833"><ele>275.8</ele><time>2026-03-28T11:40:03.042Z</time></trkpt><trkpt lat="43.2672167" lon="11.0182033"><ele>273.20000000000005</ele><time>2026-03-28T11:40:05.042Z</time></trkpt><trkpt lat="43.2671933" lon="11.0180633"><ele>270.6</ele><time>2026-03-28T11:40:07.043Z</time></trkpt><trkpt lat="43.2671883" lon="11.0178983"><ele>268.0</ele><time>2026-03-28T11:40:09.043Z</time></trkpt><trkpt lat="43.26717" lon="11.0177417"><ele>267.8333333333333</ele><time>2026-03-28T11:40:11.043Z</time></trkpt><trkpt lat="43.267145" lon="11.01758"><ele>267.66666666666663</ele><time>2026-03-28T11:40:13.043Z</time></trkpt><trkpt lat="43.2671267" lon="11.0174967"><ele>267.5</ele><time>2026-03-28T11:40:14.043Z</time></trkpt><trkpt lat="43.26711" lon="11.0173617"><ele>267.3333333333333</ele><time>2026-03-28T11:40:16.042Z</time></trkpt><trkpt lat="43.2670883" lon="11.0172783"><ele>267.1666666666667</ele><time>2026-03-28T11:40:18.043Z</time></trkpt><trkpt lat="43.2670483" lon="11.0171917"><ele>267.0</ele><time>2026-03-28T11:40:20.043Z</time></trkpt><trkpt lat="43.2670083" lon="11.0171083"><ele>267.3333333333333</ele><time>2026-03-28T11:40:22.043Z</time></trkpt><trkpt lat="43.2669767" lon="11.016965"><ele>267.6666666666667</ele><time>2026-03-28T11:40:24.043Z</time></trkpt><trkpt lat="43.2669633" lon="11.0168717"><ele>268.0</ele><time>2026-03-28T11:40:25.043Z</time></trkpt><trkpt lat="43.2669483" lon="11.016765"><ele>268.33333333333337</ele><time>2026-03-28T11:40:26.042Z</time></trkpt><trkpt lat="43.2669333" lon="11.01664"><ele>268.6666666666667</ele><time>2026-03-28T11:40:27.043Z</time></trkpt><trkpt lat="43.2669233" lon="11.0165217"><ele>269.0</ele><time>2026-03-28T11:40:28.043Z</time></trkpt><trkpt lat="43.2669133" lon="11.0164217"><ele>269.0</ele><time>2026-03-28T11:40:29.043Z</time></trkpt><trkpt lat="43.2669133" lon="11.016325"><ele>269.0</ele><time>2026-03-28T11:40:30.042Z</time></trkpt><trkpt lat="43.2669133" lon="11.0162317"><ele>269.0</ele><time>2026-03-28T11:40:31.043Z</time></trkpt><trkpt lat="43.2668833" lon="11.0160733"><ele>269.0</ele><time>2026-03-28T11:40:33.043Z</time></trkpt><trkpt lat="43.2668333" lon="11.015925"><ele>269.0</ele><time>2026-03-28T11:40:35.042Z</time></trkpt><trkpt lat="43.2668017" lon="11.0157567"><ele>267.59999999999997</ele><time>2026-03-28T11:40:37.043Z</time></trkpt><trkpt lat="43.266785" lon="11.0156667"><ele>266.2</ele><time>2026-03-28T11:40:38.043Z</time></trkpt><trkpt lat="43.2667483" lon="11.0155117"><ele>264.79999999999995</ele><time>2026-03-28T11:40:40.043Z</time></trkpt><trkpt lat="43.2667233" lon="11.015365"><ele>263.4</ele><time>2026-03-28T11:40:42.043Z</time></trkpt><trkpt lat="43.2667117" lon="11.0152533"><ele>262.0</ele><time>2026-03-28T11:40:44.043Z</time></trkpt><trkpt lat="43.2667517" lon="11.01514"><ele>262.0</ele><time>2026-03-28T11:40:46.043Z</time></trkpt><trkpt lat="43.266835" lon="11.0150067"><ele>262.0</ele><time>2026-03-28T11:40:48.043Z</time></trkpt><trkpt lat="43.2668817" lon="11.0149133"><ele>262.0</ele><time>2026-03-28T11:40:49.043Z</time></trkpt><trkpt lat="43.2669283" lon="11.0148067"><ele>262.0</ele><time>2026-03-28T11:40:50.043Z</time></trkpt><trkpt lat="43.2669783" lon="11.0146767"><ele>262.0</ele><time>2026-03-28T11:40:51.043Z</time></trkpt><trkpt lat="43.2670317" lon="11.0145333"><ele>258.75</ele><time>2026-03-28T11:40:52.043Z</time></trkpt><trkpt lat="43.267085" lon="11.0143733"><ele>255.5</ele><time>2026-03-28T11:40:53.043Z</time></trkpt><trkpt lat="43.2671417" lon="11.0142117"><ele>252.25</ele><time>2026-03-28T11:40:54.043Z</time></trkpt><trkpt lat="43.2671883" lon="11.0140733"><ele>249.0</ele><time>2026-03-28T11:40:55.043Z</time></trkpt><trkpt lat="43.267235" lon="11.013925"><ele>248.39999999999998</ele><time>2026-03-28T11:40:56.042Z</time></trkpt><trkpt lat="43.267275" lon="11.013795"><ele>247.79999999999998</ele><time>2026-03-28T11:40:57.043Z</time></trkpt><trkpt lat="43.26732" lon="11.0136633"><ele>247.20000000000002</ele><time>2026-03-28T11:40:58.042Z</time></trkpt><trkpt lat="43.267365" lon="11.0135533"><ele>246.60000000000002</ele><time>2026-03-28T11:40:59.043Z</time></trkpt><trkpt lat="43.2674217" lon="11.0134467"><ele>246.0</ele><time>2026-03-28T11:41:00.043Z</time></trkpt><trkpt lat="43.267485" lon="11.0133517"><ele>243.0</ele><time>2026-03-28T11:41:01.043Z</time></trkpt><trkpt lat="43.2675717" lon="11.0132617"><ele>240.00000000000003</ele><time>2026-03-28T11:41:02.043Z</time></trkpt><trkpt lat="43.2676633" lon="11.0131917"><ele>237.00000000000003</ele><time>2026-03-28T11:41:03.042Z</time></trkpt><trkpt lat="43.267765" lon="11.0131183"><ele>234.0</ele><time>2026-03-28T11:41:04.043Z</time></trkpt><trkpt lat="43.2678683" lon="11.0130317"><ele>231.0</ele><time>2026-03-28T11:41:05.043Z</time></trkpt><trkpt lat="43.2679867" lon="11.0129217"><ele>231.0</ele><time>2026-03-28T11:41:06.042Z</time></trkpt><trkpt lat="43.268085" lon="11.01283"><ele>231.0</ele><time>2026-03-28T11:41:07.043Z</time></trkpt><trkpt lat="43.2681833" lon="11.0127283"><ele>231.0</ele><time>2026-03-28T11:41:08.043Z</time></trkpt><trkpt lat="43.2682633" lon="11.01263"><ele>231.0</ele><time>2026-03-28T11:41:09.043Z</time></trkpt><trkpt lat="43.268345" lon="11.01254"><ele>229.5</ele><time>2026-03-28T11:41:10.043Z</time></trkpt><trkpt lat="43.2684333" lon="11.0124417"><ele>228.0</ele><time>2026-03-28T11:41:11.042Z</time></trkpt><trkpt lat="43.26853" lon="11.0123333"><ele>226.5</ele><time>2026-03-28T11:41:12.043Z</time></trkpt><trkpt lat="43.26863" lon="11.01223"><ele>225.0</ele><time>2026-03-28T11:41:13.042Z</time></trkpt><trkpt lat="43.2687233" lon="11.01213"><ele>225.0</ele><time>2026-03-28T11:41:14.041Z</time></trkpt><trkpt lat="43.2688233" lon="11.012045"><ele>225.0</ele><time>2026-03-28T11:41:15.042Z</time></trkpt><trkpt lat="43.2689217" lon="11.011965"><ele>225.0</ele><time>2026-03-28T11:41:16.041Z</time></trkpt><trkpt lat="43.26902" lon="11.01189"><ele>225.0</ele><time>2026-03-28T11:41:17.042Z</time></trkpt><trkpt lat="43.269115" lon="11.011815"><ele>224.0</ele><time>2026-03-28T11:41:18.042Z</time></trkpt><trkpt lat="43.2692167" lon="11.0117517"><ele>223.0</ele><time>2026-03-28T11:41:19.041Z</time></trkpt><trkpt lat="43.269315" lon="11.0116867"><ele>222.0</ele><time>2026-03-28T11:41:20.042Z</time></trkpt><trkpt lat="43.269415" lon="11.0116133"><ele>221.0</ele><time>2026-03-28T11:41:21.042Z</time></trkpt><trkpt lat="43.26952" lon="11.0115517"><ele>220.0</ele><time>2026-03-28T11:41:22.042Z</time></trkpt><trkpt lat="43.2696133" lon="11.0115017"><ele>220.0</ele><time>2026-03-28T11:41:23.042Z</time></trkpt><trkpt lat="43.26971" lon="11.0114467"><ele>220.0</ele><time>2026-03-28T11:41:24.042Z</time></trkpt><trkpt lat="43.26981" lon="11.011385"><ele>220.0</ele><time>2026-03-28T11:41:25.042Z</time></trkpt><trkpt lat="43.2699033" lon="11.01133"><ele>220.0</ele><time>2026-03-28T11:41:26.042Z</time></trkpt><trkpt lat="43.2699917" lon="11.0112767"><ele>220.0</ele><time>2026-03-28T11:41:27.041Z</time></trkpt><trkpt lat="43.270065" lon="11.011225"><ele>219.33333333333331</ele><time>2026-03-28T11:41:28.042Z</time></trkpt><trkpt lat="43.2701367" lon="11.0111633"><ele>218.66666666666666</ele><time>2026-03-28T11:41:29.041Z</time></trkpt><trkpt lat="43.2701933" lon="11.011095"><ele>218.0</ele><time>2026-03-28T11:41:30.042Z</time></trkpt><trkpt lat="43.2702483" lon="11.0110033"><ele>217.33333333333331</ele><time>2026-03-28T11:41:31.042Z</time></trkpt><trkpt lat="43.2702717" lon="11.01089"><ele>216.66666666666666</ele><time>2026-03-28T11:41:32.042Z</time></trkpt><trkpt lat="43.2702783" lon="11.0107617"><ele>216.0</ele><time>2026-03-28T11:41:33.042Z</time></trkpt><trkpt lat="43.2702667" lon="11.010655"><ele>215.0</ele><time>2026-03-28T11:41:34.042Z</time></trkpt><trkpt lat="43.27025" lon="11.010565"><ele>214.0</ele><time>2026-03-28T11:41:35.041Z</time></trkpt><trkpt lat="43.2702217" lon="11.0104383"><ele>213.0</ele><time>2026-03-28T11:41:37.042Z</time></trkpt><trkpt lat="43.2701517" lon="11.010345"><ele>212.0</ele><time>2026-03-28T11:41:56.042Z</time></trkpt><trkpt lat="43.27012" lon="11.0102583"><ele>211.0</ele><time>2026-03-28T11:41:57.041Z</time></trkpt><trkpt lat="43.2700683" lon="11.0101717"><ele>210.0</ele><time>2026-03-28T11:41:58.042Z</time></trkpt><trkpt lat="43.2700017" lon="11.0100967"><ele>210.0</ele><time>2026-03-28T11:41:59.042Z</time></trkpt><trkpt lat="43.2699267" lon="11.0100433"><ele>210.0</ele><time>2026-03-28T11:42:00.041Z</time></trkpt><trkpt lat="43.269855" lon="11.0100217"><ele>210.0</ele><time>2026-03-28T11:42:01.042Z</time></trkpt><trkpt lat="43.2697933" lon="11.0099867"><ele>210.0</ele><time>2026-03-28T11:42:02.042Z</time></trkpt><trkpt lat="43.269715" lon="11.0098633"><ele>210.0</ele><time>2026-03-28T11:42:04.042Z</time></trkpt><trkpt lat="43.2696983" lon="11.0097183"><ele>207.33333333333334</ele><time>2026-03-28T11:42:06.041Z</time></trkpt><trkpt lat="43.269765" lon="11.0095967"><ele>204.66666666666669</ele><time>2026-03-28T11:42:08.042Z</time></trkpt><trkpt lat="43.2698233" lon="11.0095583"><ele>202.0</ele><time>2026-03-28T11:42:09.042Z</time></trkpt><trkpt lat="43.2699017" lon="11.0095383"><ele>199.33333333333334</ele><time>2026-03-28T11:42:10.041Z</time></trkpt><trkpt lat="43.26999" lon="11.0095367"><ele>196.66666666666669</ele><time>2026-03-28T11:42:11.042Z</time></trkpt><trkpt lat="43.2700833" lon="11.0095583"><ele>194.0</ele><time>2026-03-28T11:42:12.042Z</time></trkpt><trkpt lat="43.2701917" lon="11.0095867"><ele>194.0</ele><time>2026-03-28T11:42:13.042Z</time></trkpt><trkpt lat="43.270305" lon="11.009625"><ele>194.0</ele><time>2026-03-28T11:42:14.042Z</time></trkpt><trkpt lat="43.2704283" lon="11.0096667"><ele>194.0</ele><time>2026-03-28T11:42:15.042Z</time></trkpt><trkpt lat="43.2705517" lon="11.0097033"><ele>194.0</ele><time>2026-03-28T11:42:16.042Z</time></trkpt><trkpt lat="43.270675" lon="11.0097517"><ele>192.79999999999998</ele><time>2026-03-28T11:42:17.042Z</time></trkpt><trkpt lat="43.270785" lon="11.009795"><ele>191.6</ele><time>2026-03-28T11:42:18.042Z</time></trkpt><trkpt lat="43.270895" lon="11.0098267"><ele>190.4</ele><time>2026-03-28T11:42:19.042Z</time></trkpt><trkpt lat="43.271" lon="11.0098483"><ele>189.2</ele><time>2026-03-28T11:42:20.042Z</time></trkpt><trkpt lat="43.2711033" lon="11.009845"><ele>188.0</ele><time>2026-03-28T11:42:21.041Z</time></trkpt><trkpt lat="43.2712033" lon="11.009825"><ele>188.0</ele><time>2026-03-28T11:42:22.042Z</time></trkpt><trkpt lat="43.2712967" lon="11.009785"><ele>188.0</ele><time>2026-03-28T11:42:23.041Z</time></trkpt><trkpt lat="43.27139" lon="11.00974"><ele>188.0</ele><time>2026-03-28T11:42:24.042Z</time></trkpt><trkpt lat="43.2714783" lon="11.009705"><ele>188.0</ele><time>2026-03-28T11:42:25.041Z</time></trkpt><trkpt lat="43.271565" lon="11.0096683"><ele>188.0</ele><time>2026-03-28T11:42:26.042Z</time></trkpt><trkpt lat="43.2716433" lon="11.0096583"><ele>187.4</ele><time>2026-03-28T11:42:27.042Z</time></trkpt><trkpt lat="43.2717117" lon="11.0096383"><ele>186.8</ele><time>2026-03-28T11:42:28.042Z</time></trkpt><trkpt lat="43.2717917" lon="11.0096167"><ele>186.2</ele><time>2026-03-28T11:42:30.042Z</time></trkpt><trkpt lat="43.2718133" lon="11.0095033"><ele>185.6</ele><time>2026-03-28T11:42:33.042Z</time></trkpt><trkpt lat="43.2717517" lon="11.009335"><ele>185.0</ele><time>2026-03-28T11:42:35.042Z</time></trkpt><trkpt lat="43.271715" lon="11.0092283"><ele>185.0</ele><time>2026-03-28T11:42:36.042Z</time></trkpt><trkpt lat="43.2716583" lon="11.0091033"><ele>185.0</ele><time>2026-03-28T11:42:37.042Z</time></trkpt><trkpt lat="43.2716033" lon="11.008975"><ele>185.0</ele><time>2026-03-28T11:42:38.042Z</time></trkpt><trkpt lat="43.2715483" lon="11.0088483"><ele>185.0</ele><time>2026-03-28T11:42:39.041Z</time></trkpt><trkpt lat="43.271485" lon="11.0087267"><ele>185.0</ele><time>2026-03-28T11:42:40.042Z</time></trkpt><trkpt lat="43.2714217" lon="11.0086133"><ele>185.0</ele><time>2026-03-28T11:42:41.042Z</time></trkpt><trkpt lat="43.271365" lon="11.0085083"><ele>185.0</ele><time>2026-03-28T11:42:42.041Z</time></trkpt><trkpt lat="43.2712933" lon="11.0084117"><ele>185.0</ele><time>2026-03-28T11:42:43.041Z</time></trkpt><trkpt lat="43.2712167" lon="11.0083333"><ele>185.0</ele><time>2026-03-28T11:42:44.042Z</time></trkpt><trkpt lat="43.27115" lon="11.0082667"><ele>185.0</ele><time>2026-03-28T11:42:45.042Z</time></trkpt><trkpt lat="43.27107" lon="11.008195"><ele>185.0</ele><time>2026-03-28T11:42:46.042Z</time></trkpt><trkpt lat="43.270985" lon="11.0081167"><ele>185.0</ele><time>2026-03-28T11:42:47.042Z</time></trkpt><trkpt lat="43.2709033" lon="11.0080333"><ele>185.0</ele><time>2026-03-28T11:42:48.042Z</time></trkpt><trkpt lat="43.2708283" lon="11.00795"><ele>185.0</ele><time>2026-03-28T11:42:49.042Z</time></trkpt><trkpt lat="43.27076" lon="11.0078633"><ele>185.0</ele><time>2026-03-28T11:42:50.042Z</time></trkpt><trkpt lat="43.2707117" lon="11.00776"><ele>185.0</ele><time>2026-03-28T11:42:51.042Z</time></trkpt><trkpt lat="43.270685" lon="11.0076467"><ele>185.0</ele><time>2026-03-28T11:42:52.042Z</time></trkpt><trkpt lat="43.27068" lon="11.0075283"><ele>185.0</ele><time>2026-03-28T11:42:53.042Z</time></trkpt><trkpt lat="43.2707033" lon="11.0074"><ele>185.0</ele><time>2026-03-28T11:42:54.041Z</time></trkpt><trkpt lat="43.27073" lon="11.0072933"><ele>185.0</ele><time>2026-03-28T11:42:55.041Z</time></trkpt><trkpt lat="43.2707867" lon="11.0071983"><ele>185.0</ele><time>2026-03-28T11:42:56.041Z</time></trkpt><trkpt lat="43.2708633" lon="11.007115"><ele>185.4</ele><time>2026-03-28T11:42:57.042Z</time></trkpt><trkpt lat="43.2709617" lon="11.0070617"><ele>185.8</ele><time>2026-03-28T11:42:58.041Z</time></trkpt><trkpt lat="43.2710783" lon="11.0070333"><ele>186.2</ele><time>2026-03-28T11:42:59.042Z</time></trkpt><trkpt lat="43.271195" lon="11.0070383"><ele>186.6</ele><time>2026-03-28T11:43:00.042Z</time></trkpt><trkpt lat="43.2713017" lon="11.0070583"><ele>187.0</ele><time>2026-03-28T11:43:01.042Z</time></trkpt><trkpt lat="43.27141" lon="11.0070783"><ele>186.25</ele><time>2026-03-28T11:43:02.042Z</time></trkpt><trkpt lat="43.2715217" lon="11.0071017"><ele>185.5</ele><time>2026-03-28T11:43:03.042Z</time></trkpt><trkpt lat="43.2716333" lon="11.0071133"><ele>184.75</ele><time>2026-03-28T11:43:04.042Z</time></trkpt><trkpt lat="43.2717467" lon="11.0071133"><ele>184.0</ele><time>2026-03-28T11:43:05.041Z</time></trkpt><trkpt lat="43.2718633" lon="11.0071217"><ele>184.0</ele><time>2026-03-28T11:43:06.042Z</time></trkpt><trkpt lat="43.27198" lon="11.0071217"><ele>184.0</ele><time>2026-03-28T11:43:07.042Z</time></trkpt><trkpt lat="43.272085" lon="11.00711"><ele>184.0</ele><time>2026-03-28T11:43:08.042Z</time></trkpt><trkpt lat="43.2721767" lon="11.0071167"><ele>184.0</ele><time>2026-03-28T11:43:09.041Z</time></trkpt><trkpt lat="43.2722583" lon="11.00712"><ele>184.0</ele><time>2026-03-28T11:43:10.042Z</time></trkpt><trkpt lat="43.2723333" lon="11.0071217"><ele>183.66666666666669</ele><time>2026-03-28T11:43:11.042Z</time></trkpt><trkpt lat="43.2724" lon="11.0071183"><ele>183.33333333333334</ele><time>2026-03-28T11:43:12.042Z</time></trkpt><trkpt lat="43.2725033" lon="11.0071"><ele>183.0</ele><time>2026-03-28T11:43:14.041Z</time></trkpt><trkpt lat="43.2725833" lon="11.0070783"><ele>182.66666666666666</ele><time>2026-03-28T11:43:16.042Z</time></trkpt><trkpt lat="43.2726567" lon="11.0070717"><ele>182.33333333333331</ele><time>2026-03-28T11:43:18.042Z</time></trkpt><trkpt lat="43.2727383" lon="11.007055"><ele>182.0</ele><time>2026-03-28T11:43:20.041Z</time></trkpt><trkpt lat="43.2727983" lon="11.0070233"><ele>182.0</ele><time>2026-03-28T11:43:21.042Z</time></trkpt><trkpt lat="43.2728567" lon="11.00699"><ele>182.0</ele><time>2026-03-28T11:43:22.042Z</time></trkpt><trkpt lat="43.272975" lon="11.006935"><ele>182.0</ele><time>2026-03-28T11:43:24.042Z</time></trkpt><trkpt lat="43.2730467" lon="11.006885"><ele>182.0</ele><time>2026-03-28T11:43:25.042Z</time></trkpt><trkpt lat="43.27313" lon="11.0068217"><ele>182.0</ele><time>2026-03-28T11:43:26.042Z</time></trkpt><trkpt lat="43.2732167" lon="11.0067633"><ele>181.83333333333331</ele><time>2026-03-28T11:43:27.042Z</time></trkpt><trkpt lat="43.2732917" lon="11.0067117"><ele>181.66666666666666</ele><time>2026-03-28T11:43:28.042Z</time></trkpt><trkpt lat="43.27336" lon="11.0066683"><ele>181.5</ele><time>2026-03-28T11:43:29.042Z</time></trkpt><trkpt lat="43.2734267" lon="11.0066183"><ele>181.33333333333334</ele><time>2026-03-28T11:43:30.042Z</time></trkpt><trkpt lat="43.2734933" lon="11.006585"><ele>181.16666666666669</ele><time>2026-03-28T11:43:31.042Z</time></trkpt><trkpt lat="43.2735667" lon="11.0065433"><ele>181.0</ele><time>2026-03-28T11:43:32.042Z</time></trkpt><trkpt lat="43.2736517" lon="11.0065"><ele>180.85714285714286</ele><time>2026-03-28T11:43:33.041Z</time></trkpt><trkpt lat="43.2737333" lon="11.0064617"><ele>180.71428571428572</ele><time>2026-03-28T11:43:34.042Z</time></trkpt><trkpt lat="43.2738033" lon="11.00645"><ele>180.57142857142856</ele><time>2026-03-28T11:43:35.042Z</time></trkpt><trkpt lat="43.2738667" lon="11.0064317"><ele>180.42857142857144</ele><time>2026-03-28T11:43:36.041Z</time></trkpt><trkpt lat="43.2739367" lon="11.0064133"><ele>180.2857142857143</ele><time>2026-03-28T11:43:37.042Z</time></trkpt><trkpt lat="43.2740033" lon="11.0063933"><ele>180.14285714285714</ele><time>2026-03-28T11:43:38.042Z</time></trkpt><trkpt lat="43.2740717" lon="11.0063733"><ele>180.0</ele><time>2026-03-28T11:43:39.042Z</time></trkpt><trkpt lat="43.2741467" lon="11.0063583"><ele>179.83333333333334</ele><time>2026-03-28T11:43:40.041Z</time></trkpt><trkpt lat="43.27423" lon="11.0063333"><ele>179.66666666666666</ele><time>2026-03-28T11:43:41.042Z</time></trkpt><trkpt lat="43.274315" lon="11.006315"><ele>179.5</ele><time>2026-03-28T11:43:42.042Z</time></trkpt><trkpt lat="43.2744" lon="11.0062883"><ele>179.33333333333331</ele><time>2026-03-28T11:43:43.042Z</time></trkpt><trkpt lat="43.2744933" lon="11.0062733"><ele>179.16666666666666</ele><time>2026-03-28T11:43:44.042Z</time></trkpt><trkpt lat="43.2745867" lon="11.00626"><ele>179.0</ele><time>2026-03-28T11:43:45.042Z</time></trkpt><trkpt lat="43.27469" lon="11.0062417"><ele>179.0</ele><time>2026-03-28T11:43:46.042Z</time></trkpt><trkpt lat="43.2748" lon="11.0062183"><ele>179.0</ele><time>2026-03-28T11:43:47.042Z</time></trkpt><trkpt lat="43.2749133" lon="11.006205"><ele>179.0</ele><time>2026-03-28T11:43:48.041Z</time></trkpt><trkpt lat="43.2750367" lon="11.00619"><ele>179.0</ele><time>2026-03-28T11:43:49.042Z</time></trkpt><trkpt lat="43.27515" lon="11.0061917"><ele>179.0</ele><time>2026-03-28T11:43:50.042Z</time></trkpt><trkpt lat="43.275245" lon="11.0062"><ele>179.0</ele><time>2026-03-28T11:43:51.042Z</time></trkpt><trkpt lat="43.2753483" lon="11.0062017"><ele>179.0</ele><time>2026-03-28T11:43:52.042Z</time></trkpt><trkpt lat="43.2754483" lon="11.0062067"><ele>179.0</ele><time>2026-03-28T11:43:53.042Z</time></trkpt><trkpt lat="43.2755583" lon="11.0062083"><ele>179.0</ele><time>2026-03-28T11:43:54.041Z</time></trkpt><trkpt lat="43.275675" lon="11.00621"><ele>178.6</ele><time>2026-03-28T11:43:55.042Z</time></trkpt><trkpt lat="43.275785" lon="11.006215"><ele>178.2</ele><time>2026-03-28T11:43:56.042Z</time></trkpt><trkpt lat="43.2758817" lon="11.0062183"><ele>177.79999999999998</ele><time>2026-03-28T11:43:57.041Z</time></trkpt><trkpt lat="43.2759633" lon="11.006215"><ele>177.39999999999998</ele><time>2026-03-28T11:43:58.042Z</time></trkpt><trkpt lat="43.27605" lon="11.00619"><ele>177.0</ele><time>2026-03-28T11:43:59.042Z</time></trkpt><trkpt lat="43.27615" lon="11.0061533"><ele>177.0</ele><time>2026-03-28T11:44:00.042Z</time></trkpt><trkpt lat="43.2762567" lon="11.0061267"><ele>177.0</ele><time>2026-03-28T11:44:01.041Z</time></trkpt><trkpt lat="43.276375" lon="11.006125"><ele>177.0</ele><time>2026-03-28T11:44:02.042Z</time></trkpt><trkpt lat="43.27648" lon="11.006155"><ele>177.0</ele><time>2026-03-28T11:44:03.042Z</time></trkpt><trkpt lat="43.2765833" lon="11.0062133"><ele>177.0</ele><time>2026-03-28T11:44:04.042Z</time></trkpt><trkpt lat="43.276685" lon="11.0062867"><ele>180.0</ele><time>2026-03-28T11:44:05.041Z</time></trkpt><trkpt lat="43.2738033" lon="11.00645"><ele>180.0</ele><time>2026-03-28T11:43:35.042Z</time></trkpt><trkpt lat="43.2738667" lon="11.0064317"><ele>180.0</ele><time>2026-03-28T11:43:36.041Z</time></trkpt><trkpt lat="43.2739367" lon="11.0064133"><ele>180.0</ele><time>2026-03-28T11:43:37.042Z</time></trkpt><trkpt lat="43.2740033" lon="11.0063933"><ele>180.0</ele><time>2026-03-28T11:43:38.042Z</time></trkpt><trkpt lat="43.2740717" lon="11.0063733"><ele>180.0</ele><time>2026-03-28T11:43:39.042Z</time></trkpt><trkpt lat="43.2741467" lon="11.0063583"><ele>180.0</ele><time>2026-03-28T11:43:40.041Z</time></trkpt><trkpt lat="43.27423" lon="11.0063333"><ele>180.0</ele><time>2026-03-28T11:43:41.042Z</time></trkpt><trkpt lat="43.274315" lon="11.006315"><ele>179.8</ele><time>2026-03-28T11:43:42.042Z</time></trkpt><trkpt lat="43.2744" lon="11.0062883"><ele>179.6</ele><time>2026-03-28T11:43:43.042Z</time></trkpt><trkpt lat="43.2744933" lon="11.0062733"><ele>179.39999999999998</ele><time>2026-03-28T11:43:44.042Z</time></trkpt><trkpt lat="43.2745867" lon="11.00626"><ele>179.2</ele><time>2026-03-28T11:43:45.042Z</time></trkpt><trkpt lat="43.27469" lon="11.0062417"><ele>179.0</ele><time>2026-03-28T11:43:46.042Z</time></trkpt><trkpt lat="43.2748" lon="11.0062183"><ele>179.0</ele><time>2026-03-28T11:43:47.042Z</time></trkpt><trkpt lat="43.2749133" lon="11.006205"><ele>179.0</ele><time>2026-03-28T11:43:48.041Z</time></trkpt><trkpt lat="43.2750367" lon="11.00619"><ele>179.0</ele><time>2026-03-28T11:43:49.042Z</time></trkpt><trkpt lat="43.27515" lon="11.0061917"><ele>179.0</ele><time>2026-03-28T11:43:50.042Z</time></trkpt><trkpt lat="43.275245" lon="11.0062"><ele>179.0</ele><time>2026-03-28T11:43:51.042Z</time></trkpt><trkpt lat="43.2753483" lon="11.0062017"><ele>179.0</ele><time>2026-03-28T11:43:52.042Z</time></trkpt><trkpt lat="43.2754483" lon="11.0062067"><ele>179.0</ele><time>2026-03-28T11:43:53.042Z</time></trkpt><trkpt lat="43.2755583" lon="11.0062083"><ele>179.0</ele><time>2026-03-28T11:43:54.041Z</time></trkpt><trkpt lat="43.275675" lon="11.00621"><ele>179.0</ele><time>2026-03-28T11:43:55.042Z</time></trkpt><trkpt lat="43.275785" lon="11.006215"><ele>179.0</ele><time>2026-03-28T11:43:56.042Z</time></trkpt><trkpt lat="43.2758817" lon="11.0062183"><ele>178.6</ele><time>2026-03-28T11:43:57.041Z</time></trkpt><trkpt lat="43.2759633" lon="11.006215"><ele>178.2</ele><time>2026-03-28T11:43:58.042Z</time></trkpt><trkpt lat="43.27605" lon="11.00619"><ele>177.79999999999998</ele><time>2026-03-28T11:43:59.042Z</time></trkpt><trkpt lat="43.27615" lon="11.0061533"><ele>177.39999999999998</ele><time>2026-03-28T11:44:00.042Z</time></trkpt><trkpt lat="43.2762567" lon="11.0061267"><ele>177.0</ele><time>2026-03-28T11:44:01.041Z</time></trkpt><trkpt lat="43.276375" lon="11.006125"><ele>176.8</ele><time>2026-03-28T11:44:02.042Z</time></trkpt><trkpt lat="43.27648" lon="11.006155"><ele>176.6</ele><time>2026-03-28T11:44:03.042Z</time></trkpt><trkpt lat="43.2765833" lon="11.0062133"><ele>176.4</ele><time>2026-03-28T11:44:04.042Z</time></trkpt><trkpt lat="43.276685" lon="11.0062867"><ele>176.20000000000002</ele><time>2026-03-28T11:44:05.041Z</time></trkpt><trkpt lat="43.2767833" lon="11.0063517"><ele>176.0</ele><time>2026-03-28T11:44:06.041Z</time></trkpt><trkpt lat="43.27689" lon="11.006405"><ele>176.0</ele><time>2026-03-28T11:44:07.042Z</time></trkpt><trkpt lat="43.2769983" lon="11.0064633"><ele>176.0</ele><time>2026-03-28T11:44:08.041Z</time></trkpt><trkpt lat="43.2770917" lon="11.00653"><ele>176.0</ele><time>2026-03-28T11:44:09.042Z</time></trkpt><trkpt lat="43.2771767" lon="11.00659"><ele>176.0</ele><time>2026-03-28T11:44:10.042Z</time></trkpt><trkpt lat="43.2772317" lon="11.0066367"><ele>176.0</ele><time>2026-03-28T11:44:11.042Z</time></trkpt><trkpt lat="43.2773067" lon="11.0066633"><ele>176.0</ele><time>2026-03-28T11:44:12.042Z</time></trkpt><trkpt lat="43.277375" lon="11.0066683"><ele>176.0</ele><time>2026-03-28T11:44:13.042Z</time></trkpt><trkpt lat="43.2774417" lon="11.0066483"><ele>176.0</ele><time>2026-03-28T11:44:14.041Z</time></trkpt><trkpt lat="43.27752" lon="11.0065667"><ele>176.0</ele><time>2026-03-28T11:44:16.042Z</time></trkpt><trkpt lat="43.27743" lon="11.006555"><ele>176.0</ele><time>2026-03-28T11:46:37.042Z</time></trkpt><trkpt lat="43.2773333" lon="11.0066117"><ele>176.0</ele><time>2026-03-28T11:46:39.042Z</time></trkpt><trkpt lat="43.27722" lon="11.0066367"><ele>176.0</ele><time>2026-03-28T11:46:41.042Z</time></trkpt><trkpt lat="43.2771167" lon="11.0066083"><ele>176.0</ele><time>2026-03-28T11:46:43.041Z</time></trkpt><trkpt lat="43.277055" lon="11.0065433"><ele>176.0</ele><time>2026-03-28T11:46:44.042Z</time></trkpt><trkpt lat="43.2769833" lon="11.0064817"><ele>176.0</ele><time>2026-03-28T11:46:45.042Z</time></trkpt><trkpt lat="43.2769017" lon="11.00642"><ele>176.0</ele><time>2026-03-28T11:46:46.042Z</time></trkpt><trkpt lat="43.2768083" lon="11.0063667"><ele>176.0</ele><time>2026-03-28T11:46:47.042Z</time></trkpt><trkpt lat="43.2767183" lon="11.00631"><ele>176.0</ele><time>2026-03-28T11:46:48.042Z</time></trkpt><trkpt lat="43.2766283" lon="11.0062667"><ele>176.0</ele><time>2026-03-28T11:46:49.041Z</time></trkpt><trkpt lat="43.2765333" lon="11.006215"><ele>176.0</ele><time>2026-03-28T11:46:50.042Z</time></trkpt><trkpt lat="43.2764467" lon="11.0061667"><ele>176.0</ele><time>2026-03-28T11:46:51.042Z</time></trkpt><trkpt lat="43.2763617" lon="11.00612"><ele>176.20000000000002</ele><time>2026-03-28T11:46:52.042Z</time></trkpt><trkpt lat="43.2762683" lon="11.0061"><ele>176.4</ele><time>2026-03-28T11:46:53.042Z</time></trkpt><trkpt lat="43.2761833" lon="11.0061033"><ele>176.6</ele><time>2026-03-28T11:46:54.042Z</time></trkpt><trkpt lat="43.2760967" lon="11.0061183"><ele>176.8</ele><time>2026-03-28T11:46:55.042Z</time></trkpt><trkpt lat="43.2760067" lon="11.0061567"><ele>177.0</ele><time>2026-03-28T11:46:56.042Z</time></trkpt><trkpt lat="43.2759167" lon="11.0061883"><ele>177.0</ele><time>2026-03-28T11:46:57.042Z</time></trkpt><trkpt lat="43.27583" lon="11.0061917"><ele>177.0</ele><time>2026-03-28T11:46:58.042Z</time></trkpt><trkpt lat="43.275735" lon="11.0061917"><ele>177.0</ele><time>2026-03-28T11:46:59.042Z</time></trkpt><trkpt lat="43.2756383" lon="11.006195"><ele>177.0</ele><time>2026-03-28T11:47:00.042Z</time></trkpt><trkpt lat="43.2755383" lon="11.0061967"><ele>177.0</ele><time>2026-03-28T11:47:01.041Z</time></trkpt><trkpt lat="43.2754367" lon="11.0061983"><ele>177.39999999999998</ele><time>2026-03-28T11:47:02.041Z</time></trkpt><trkpt lat="43.2753383" lon="11.006205"><ele>177.79999999999998</ele><time>2026-03-28T11:47:03.04Z</time></trkpt><trkpt lat="43.2752533" lon="11.006205"><ele>178.2</ele><time>2026-03-28T11:47:04.041Z</time></trkpt><trkpt lat="43.275165" lon="11.0062017"><ele>178.6</ele><time>2026-03-28T11:47:05.041Z</time></trkpt><trkpt lat="43.2750733" lon="11.0062033"><ele>179.0</ele><time>2026-03-28T11:47:06.041Z</time></trkpt><trkpt lat="43.2749717" lon="11.00621"><ele>179.0</ele><time>2026-03-28T11:47:07.041Z</time></trkpt><trkpt lat="43.2748783" lon="11.00621"><ele>179.0</ele><time>2026-03-28T11:47:08.041Z</time></trkpt><trkpt lat="43.2747817" lon="11.00623"><ele>179.0</ele><time>2026-03-28T11:47:09.041Z</time></trkpt><trkpt lat="43.27468" lon="11.00625"><ele>179.0</ele><time>2026-03-28T11:47:10.041Z</time></trkpt><trkpt lat="43.2745783" lon="11.0062867"><ele>179.0</ele><time>2026-03-28T11:47:11.04Z</time></trkpt><trkpt lat="43.2744883" lon="11.006305"><ele>179.0</ele><time>2026-03-28T11:47:12.04Z</time></trkpt><trkpt lat="43.2744133" lon="11.006325"><ele>179.0</ele><time>2026-03-28T11:47:13.041Z</time></trkpt><trkpt lat="43.27433" lon="11.00634"><ele>179.0</ele><time>2026-03-28T11:47:14.041Z</time></trkpt><trkpt lat="43.2742633" lon="11.0063583"><ele>179.0</ele><time>2026-03-28T11:47:15.041Z</time></trkpt><trkpt lat="43.274185" lon="11.00638"><ele>179.0</ele><time>2026-03-28T11:47:16.041Z</time></trkpt><trkpt lat="43.2741" lon="11.0063933"><ele>179.0</ele><time>2026-03-28T11:47:17.041Z</time></trkpt><trkpt lat="43.2740317" lon="11.0064183"><ele>179.0</ele><time>2026-03-28T11:47:18.04Z</time></trkpt><trkpt lat="43.273965" lon="11.0064483"><ele>179.0</ele><time>2026-03-28T11:47:19.041Z</time></trkpt><trkpt lat="43.2739" lon="11.0064633"><ele>179.0</ele><time>2026-03-28T11:47:20.041Z</time></trkpt><trkpt lat="43.2738317" lon="11.00648"><ele>179.0</ele><time>2026-03-28T11:47:21.041Z</time></trkpt><trkpt lat="43.2737117" lon="11.006505"><ele>179.0</ele><time>2026-03-28T11:47:23.041Z</time></trkpt><trkpt lat="43.2736483" lon="11.00652"><ele>179.0</ele><time>2026-03-28T11:47:24.041Z</time></trkpt><trkpt lat="43.2735917" lon="11.0065717"><ele>179.16666666666666</ele><time>2026-03-28T11:47:25.041Z</time></trkpt><trkpt lat="43.2735233" lon="11.0066217"><ele>179.33333333333331</ele><time>2026-03-28T11:47:26.04Z</time></trkpt><trkpt lat="43.27345" lon="11.0066533"><ele>179.5</ele><time>2026-03-28T11:47:27.041Z</time></trkpt><trkpt lat="43.2733833" lon="11.0066867"><ele>179.66666666666666</ele><time>2026-03-28T11:47:28.041Z</time></trkpt><trkpt lat="43.2733117" lon="11.0067233"><ele>179.83333333333334</ele><time>2026-03-28T11:47:29.04Z</time></trkpt><trkpt lat="43.2732233" lon="11.00677"><ele>180.0</ele><time>2026-03-28T11:47:30.041Z</time></trkpt><trkpt lat="43.273135" lon="11.00683"><ele>180.33333333333334</ele><time>2026-03-28T11:47:31.041Z</time></trkpt><trkpt lat="43.2730617" lon="11.0069"><ele>180.66666666666666</ele><time>2026-03-28T11:47:32.041Z</time></trkpt><trkpt lat="43.273" lon="11.0069367"><ele>181.0</ele><time>2026-03-28T11:47:33.041Z</time></trkpt><trkpt lat="43.27294" lon="11.0069683"><ele>181.33333333333331</ele><time>2026-03-28T11:47:34.041Z</time></trkpt><trkpt lat="43.2728783" lon="11.007005"><ele>181.66666666666666</ele><time>2026-03-28T11:47:35.041Z</time></trkpt><trkpt lat="43.2727467" lon="11.0070483"><ele>182.0</ele><time>2026-03-28T11:47:37.04Z</time></trkpt><trkpt lat="43.272665" lon="11.0070783"><ele>182.0</ele><time>2026-03-28T11:47:38.041Z</time></trkpt><trkpt lat="43.2725517" lon="11.0071067"><ele>182.0</ele><time>2026-03-28T11:47:40.041Z</time></trkpt><trkpt lat="43.2724333" lon="11.0071517"><ele>182.0</ele><time>2026-03-28T11:47:42.041Z</time></trkpt><trkpt lat="43.2723333" lon="11.0071567"><ele>182.0</ele><time>2026-03-28T11:47:44.041Z</time></trkpt><trkpt lat="43.27223" lon="11.0071683"><ele>182.0</ele><time>2026-03-28T11:47:46.041Z</time></trkpt><trkpt lat="43.2721583" lon="11.0071783"><ele>182.33333333333331</ele><time>2026-03-28T11:47:47.041Z</time></trkpt><trkpt lat="43.2720767" lon="11.0071817"><ele>182.66666666666666</ele><time>2026-03-28T11:47:48.041Z</time></trkpt><trkpt lat="43.27199" lon="11.0071783"><ele>183.0</ele><time>2026-03-28T11:47:49.041Z</time></trkpt><trkpt lat="43.2719067" lon="11.0071717"><ele>183.33333333333334</ele><time>2026-03-28T11:47:50.04Z</time></trkpt><trkpt lat="43.271815" lon="11.00717"><ele>183.66666666666669</ele><time>2026-03-28T11:47:51.041Z</time></trkpt><trkpt lat="43.2717233" lon="11.00717"><ele>184.0</ele><time>2026-03-28T11:47:52.041Z</time></trkpt><trkpt lat="43.2716267" lon="11.0071667"><ele>184.0</ele><time>2026-03-28T11:47:53.041Z</time></trkpt><trkpt lat="43.271525" lon="11.0071583"><ele>184.0</ele><time>2026-03-28T11:47:54.041Z</time></trkpt><trkpt lat="43.2714" lon="11.0071333"><ele>184.0</ele><time>2026-03-28T11:47:55.04Z</time></trkpt><trkpt lat="43.2712883" lon="11.0070933"><ele>184.0</ele><time>2026-03-28T11:47:56.041Z</time></trkpt><trkpt lat="43.2712033" lon="11.0070667"><ele>184.0</ele><time>2026-03-28T11:47:57.041Z</time></trkpt><trkpt lat="43.2711167" lon="11.0070583"><ele>184.5</ele><time>2026-03-28T11:47:58.041Z</time></trkpt><trkpt lat="43.2710333" lon="11.0070783"><ele>185.0</ele><time>2026-03-28T11:47:59.04Z</time></trkpt><trkpt lat="43.270945" lon="11.007125"><ele>185.5</ele><time>2026-03-28T11:48:00.041Z</time></trkpt><trkpt lat="43.2708667" lon="11.0071967"><ele>186.0</ele><time>2026-03-28T11:48:01.041Z</time></trkpt><trkpt lat="43.2708017" lon="11.0072817"><ele>186.5</ele><time>2026-03-28T11:48:02.041Z</time></trkpt><trkpt lat="43.27075" lon="11.0073667"><ele>187.0</ele><time>2026-03-28T11:48:03.041Z</time></trkpt><trkpt lat="43.2707133" lon="11.0074567"><ele>186.66666666666669</ele><time>2026-03-28T11:48:04.04Z</time></trkpt><trkpt lat="43.270705" lon="11.0075567"><ele>186.33333333333334</ele><time>2026-03-28T11:48:05.041Z</time></trkpt><trkpt lat="43.27071" lon="11.00766"><ele>186.0</ele><time>2026-03-28T11:48:06.041Z</time></trkpt><trkpt lat="43.2707317" lon="11.00776"><ele>185.66666666666666</ele><time>2026-03-28T11:48:07.041Z</time></trkpt><trkpt lat="43.270765" lon="11.007855"><ele>185.33333333333331</ele><time>2026-03-28T11:48:08.041Z</time></trkpt><trkpt lat="43.270815" lon="11.0079417"><ele>185.0</ele><time>2026-03-28T11:48:09.04Z</time></trkpt><trkpt lat="43.2708817" lon="11.0080183"><ele>185.0</ele><time>2026-03-28T11:48:10.04Z</time></trkpt><trkpt lat="43.2709533" lon="11.008085"><ele>185.0</ele><time>2026-03-28T11:48:11.041Z</time></trkpt><trkpt lat="43.2710267" lon="11.0081533"><ele>185.0</ele><time>2026-03-28T11:48:12.04Z</time></trkpt><trkpt lat="43.2710883" lon="11.0082083"><ele>185.0</ele><time>2026-03-28T11:48:13.041Z</time></trkpt><trkpt lat="43.2711433" lon="11.00826"><ele>185.0</ele><time>2026-03-28T11:48:14.041Z</time></trkpt><trkpt lat="43.2712017" lon="11.0083067"><ele>185.0</ele><time>2026-03-28T11:48:15.041Z</time></trkpt><trkpt lat="43.27126" lon="11.00836"><ele>185.0</ele><time>2026-03-28T11:48:16.041Z</time></trkpt><trkpt lat="43.2713233" lon="11.008425"><ele>185.0</ele><time>2026-03-28T11:48:17.041Z</time></trkpt><trkpt lat="43.2713817" lon="11.0084983"><ele>185.0</ele><time>2026-03-28T11:48:18.041Z</time></trkpt><trkpt lat="43.2714333" lon="11.008585"><ele>185.0</ele><time>2026-03-28T11:48:19.041Z</time></trkpt><trkpt lat="43.2714883" lon="11.0086917"><ele>185.0</ele><time>2026-03-28T11:48:20.041Z</time></trkpt><trkpt lat="43.27154" lon="11.0088033"><ele>185.0</ele><time>2026-03-28T11:48:21.04Z</time></trkpt><trkpt lat="43.271585" lon="11.008905"><ele>185.0</ele><time>2026-03-28T11:48:22.04Z</time></trkpt><trkpt lat="43.27162" lon="11.0090033"><ele>185.0</ele><time>2026-03-28T11:48:23.041Z</time></trkpt><trkpt lat="43.2716633" lon="11.0090883"><ele>185.0</ele><time>2026-03-28T11:48:24.04Z</time></trkpt><trkpt lat="43.2717083" lon="11.009205"><ele>185.0</ele><time>2026-03-28T11:48:25.041Z</time></trkpt><trkpt lat="43.2717483" lon="11.0093283"><ele>185.0</ele><time>2026-03-28T11:48:26.041Z</time></trkpt><trkpt lat="43.27177" lon="11.0094533"><ele>185.0</ele><time>2026-03-28T11:48:27.04Z</time></trkpt><trkpt lat="43.27178" lon="11.0095433"><ele>185.0</ele><time>2026-03-28T11:48:28.041Z</time></trkpt><trkpt lat="43.2718117" lon="11.0096467"><ele>185.0</ele><time>2026-03-28T11:48:30.041Z</time></trkpt><trkpt lat="43.271895" lon="11.0096833"><ele>185.0</ele><time>2026-03-28T11:48:32.041Z</time></trkpt><trkpt lat="43.2719617" lon="11.0096933"><ele>185.0</ele><time>2026-03-28T11:48:33.041Z</time></trkpt><trkpt lat="43.2720633" lon="11.0096983"><ele>185.0</ele><time>2026-03-28T11:48:34.041Z</time></trkpt><trkpt lat="43.272185" lon="11.0097067"><ele>185.25</ele><time>2026-03-28T11:48:35.041Z</time></trkpt><trkpt lat="43.272325" lon="11.0097167"><ele>185.5</ele><time>2026-03-28T11:48:36.041Z</time></trkpt><trkpt lat="43.2724717" lon="11.009735"><ele>185.75</ele><time>2026-03-28T11:48:37.041Z</time></trkpt><trkpt lat="43.2726233" lon="11.009745"><ele>186.0</ele><time>2026-03-28T11:48:38.041Z</time></trkpt><trkpt lat="43.2727683" lon="11.0097733"><ele>186.0</ele><time>2026-03-28T11:48:39.041Z</time></trkpt><trkpt lat="43.272925" lon="11.00979"><ele>186.0</ele><time>2026-03-28T11:48:40.041Z</time></trkpt><trkpt lat="43.27307" lon="11.00981"><ele>186.0</ele><time>2026-03-28T11:48:41.04Z</time></trkpt><trkpt lat="43.2732033" lon="11.0098317"><ele>186.0</ele><time>2026-03-28T11:48:42.041Z</time></trkpt><trkpt lat="43.2733383" lon="11.0098333"><ele>186.8</ele><time>2026-03-28T11:48:43.04Z</time></trkpt><trkpt lat="43.27347" lon="11.0098333"><ele>187.60000000000002</ele><time>2026-03-28T11:48:44.041Z</time></trkpt><trkpt lat="43.2735867" lon="11.0098383"><ele>188.4</ele><time>2026-03-28T11:48:45.041Z</time></trkpt><trkpt lat="43.27368" lon="11.0098517"><ele>189.2</ele><time>2026-03-28T11:48:46.041Z</time></trkpt><trkpt lat="43.2737667" lon="11.00988"><ele>190.0</ele><time>2026-03-28T11:48:47.041Z</time></trkpt><trkpt lat="43.2738317" lon="11.0099383"><ele>190.6</ele><time>2026-03-28T11:48:48.041Z</time></trkpt><trkpt lat="43.2738783" lon="11.0100317"><ele>191.2</ele><time>2026-03-28T11:48:49.04Z</time></trkpt><trkpt lat="43.2739067" lon="11.0101567"><ele>191.8</ele><time>2026-03-28T11:48:50.04Z</time></trkpt><trkpt lat="43.2739167" lon="11.0102967"><ele>192.4</ele><time>2026-03-28T11:48:51.04Z</time></trkpt><trkpt lat="43.2739133" lon="11.0104417"><ele>193.0</ele><time>2026-03-28T11:48:52.041Z</time></trkpt><trkpt lat="43.2739083" lon="11.01059"><ele>193.0</ele><time>2026-03-28T11:48:53.041Z</time></trkpt><trkpt lat="43.273915" lon="11.01072"><ele>193.0</ele><time>2026-03-28T11:48:54.041Z</time></trkpt><trkpt lat="43.2739467" lon="11.0108217"><ele>193.0</ele><time>2026-03-28T11:48:55.041Z</time></trkpt><trkpt lat="43.2739967" lon="11.0109217"><ele>193.0</ele><time>2026-03-28T11:48:56.041Z</time></trkpt><trkpt lat="43.2740683" lon="11.0110333"><ele>193.0</ele><time>2026-03-28T11:48:57.041Z</time></trkpt><trkpt lat="43.2741483" lon="11.0111383"><ele>198.25</ele><time>2026-03-28T11:48:58.04Z</time></trkpt><trkpt lat="43.2742267" lon="11.0112517"><ele>203.5</ele><time>2026-03-28T11:48:59.041Z</time></trkpt><trkpt lat="43.27431" lon="11.0113683"><ele>208.75</ele><time>2026-03-28T11:49:00.041Z</time></trkpt><trkpt lat="43.2744033" lon="11.01149"><ele>214.0</ele><time>2026-03-28T11:49:01.04Z</time></trkpt><trkpt lat="43.274495" lon="11.0116283"><ele>213.25</ele><time>2026-03-28T11:49:02.041Z</time></trkpt><trkpt lat="43.2745933" lon="11.0117683"><ele>212.5</ele><time>2026-03-28T11:49:03.041Z</time></trkpt><trkpt lat="43.27468" lon="11.0118983"><ele>211.75</ele><time>2026-03-28T11:49:04.04Z</time></trkpt><trkpt lat="43.2747767" lon="11.0120167"><ele>211.0</ele><time>2026-03-28T11:49:05.041Z</time></trkpt><trkpt lat="43.2748817" lon="11.012135"><ele>214.75</ele><time>2026-03-28T11:49:06.041Z</time></trkpt><trkpt lat="43.2749883" lon="11.012245"><ele>218.5</ele><time>2026-03-28T11:49:07.041Z</time></trkpt><trkpt lat="43.2751017" lon="11.0123633"><ele>222.25</ele><time>2026-03-28T11:49:08.04Z</time></trkpt><trkpt lat="43.2752167" lon="11.0124683"><ele>226.0</ele><time>2026-03-28T11:49:09.041Z</time></trkpt><trkpt lat="43.275325" lon="11.0125733"><ele>226.0</ele><time>2026-03-28T11:49:10.041Z</time></trkpt><trkpt lat="43.2754283" lon="11.012685"><ele>226.0</ele><time>2026-03-28T11:49:11.041Z</time></trkpt><trkpt lat="43.2755117" lon="11.0127983"><ele>226.0</ele><time>2026-03-28T11:49:12.041Z</time></trkpt><trkpt lat="43.2755717" lon="11.0129183"><ele>226.0</ele><time>2026-03-28T11:49:13.041Z</time></trkpt><trkpt lat="43.27562" lon="11.0130367"><ele>229.83333333333331</ele><time>2026-03-28T11:49:14.041Z</time></trkpt><trkpt lat="43.2756617" lon="11.0131383"><ele>233.66666666666666</ele><time>2026-03-28T11:49:15.041Z</time></trkpt><trkpt lat="43.275705" lon="11.0132167"><ele>237.5</ele><time>2026-03-28T11:49:16.041Z</time></trkpt><trkpt lat="43.2757817" lon="11.013275"><ele>241.33333333333331</ele><time>2026-03-28T11:49:18.041Z</time></trkpt><trkpt lat="43.2758683" lon="11.013205"><ele>245.16666666666666</ele><time>2026-03-28T11:49:20.041Z</time></trkpt><trkpt lat="43.2758933" lon="11.013105"><ele>249.0</ele><time>2026-03-28T11:49:21.04Z</time></trkpt><trkpt lat="43.2759033" lon="11.0129817"><ele>249.0</ele><time>2026-03-28T11:49:22.041Z</time></trkpt><trkpt lat="43.2758967" lon="11.012835"><ele>249.0</ele><time>2026-03-28T11:49:23.041Z</time></trkpt><trkpt lat="43.2758833" lon="11.0126833"><ele>249.0</ele><time>2026-03-28T11:49:24.041Z</time></trkpt><trkpt lat="43.2758583" lon="11.0125067"><ele>249.0</ele><time>2026-03-28T11:49:25.04Z</time></trkpt><trkpt lat="43.27584" lon="11.0123233"><ele>248.79999999999998</ele><time>2026-03-28T11:49:26.04Z</time></trkpt><trkpt lat="43.2758233" lon="11.0121567"><ele>248.59999999999997</ele><time>2026-03-28T11:49:27.041Z</time></trkpt><trkpt lat="43.27582" lon="11.012005"><ele>248.4</ele><time>2026-03-28T11:49:28.041Z</time></trkpt><trkpt lat="43.275825" lon="11.0118683"><ele>248.2</ele><time>2026-03-28T11:49:29.041Z</time></trkpt><trkpt lat="43.275845" lon="11.0117533"><ele>248.0</ele><time>2026-03-28T11:49:30.041Z</time></trkpt><trkpt lat="43.2759083" lon="11.01164"><ele>248.0</ele><time>2026-03-28T11:49:32.041Z</time></trkpt><trkpt lat="43.2760233" lon="11.0116467"><ele>248.0</ele><time>2026-03-28T11:49:34.041Z</time></trkpt><trkpt lat="43.2760883" lon="11.0116983"><ele>248.0</ele><time>2026-03-28T11:49:35.041Z</time></trkpt><trkpt lat="43.2761633" lon="11.0117717"><ele>248.0</ele><time>2026-03-28T11:49:36.041Z</time></trkpt><trkpt lat="43.27624" lon="11.0118433"><ele>248.0</ele><time>2026-03-28T11:49:37.041Z</time></trkpt><trkpt lat="43.276325" lon="11.01191"><ele>248.0</ele><time>2026-03-28T11:49:38.041Z</time></trkpt><trkpt lat="43.2764167" lon="11.01197"><ele>248.0</ele><time>2026-03-28T11:49:39.041Z</time></trkpt><trkpt lat="43.27652" lon="11.012025"><ele>248.0</ele><time>2026-03-28T11:49:40.041Z</time></trkpt><trkpt lat="43.2766217" lon="11.0120867"><ele>248.0</ele><time>2026-03-28T11:49:41.041Z</time></trkpt><trkpt lat="43.2767383" lon="11.0121383"><ele>248.0</ele><time>2026-03-28T11:49:42.041Z</time></trkpt><trkpt lat="43.2768433" lon="11.0121833"><ele>249.0</ele><time>2026-03-28T11:49:43.041Z</time></trkpt><trkpt lat="43.2769333" lon="11.0122367"><ele>250.0</ele><time>2026-03-28T11:49:44.041Z</time></trkpt><trkpt lat="43.2770067" lon="11.01232"><ele>251.0</ele><time>2026-03-28T11:49:45.041Z</time></trkpt><trkpt lat="43.2770683" lon="11.0124183"><ele>252.0</ele><time>2026-03-28T11:49:46.041Z</time></trkpt><trkpt lat="43.277125" lon="11.0125283"><ele>253.0</ele><time>2026-03-28T11:49:47.041Z</time></trkpt><trkpt lat="43.2771767" lon="11.01264"><ele>255.60000000000002</ele><time>2026-03-28T11:49:48.041Z</time></trkpt><trkpt lat="43.2772367" lon="11.0127133"><ele>258.20000000000005</ele><time>2026-03-28T11:49:49.041Z</time></trkpt><trkpt lat="43.2773267" lon="11.012765"><ele>260.8</ele><time>2026-03-28T11:49:51.041Z</time></trkpt><trkpt lat="43.2774183" lon="11.0127233"><ele>263.40000000000003</ele><time>2026-03-28T11:49:53.041Z</time></trkpt><trkpt lat="43.2775083" lon="11.0125883"><ele>266.0</ele><time>2026-03-28T11:49:55.041Z</time></trkpt><trkpt lat="43.277565" lon="11.0125133"><ele>265.5</ele><time>2026-03-28T11:49:56.041Z</time></trkpt><trkpt lat="43.27762" lon="11.012435"><ele>265.0</ele><time>2026-03-28T11:49:57.041Z</time></trkpt><trkpt lat="43.2776883" lon="11.0123633"><ele>264.5</ele><time>2026-03-28T11:49:58.041Z</time></trkpt><trkpt lat="43.2777633" lon="11.01229"><ele>264.0</ele><time>2026-03-28T11:49:59.041Z</time></trkpt><trkpt lat="43.2778467" lon="11.0122283"><ele>263.5</ele><time>2026-03-28T11:50:00.041Z</time></trkpt><trkpt lat="43.2779333" lon="11.0121733"><ele>263.0</ele><time>2026-03-28T11:50:01.04Z</time></trkpt><trkpt lat="43.2780317" lon="11.0121383"><ele>265.5</ele><time>2026-03-28T11:50:02.041Z</time></trkpt><trkpt lat="43.2781383" lon="11.01213"><ele>268.0</ele><time>2026-03-28T11:50:03.04Z</time></trkpt><trkpt lat="43.2782467" lon="11.0121333"><ele>270.5</ele><time>2026-03-28T11:50:04.041Z</time></trkpt><trkpt lat="43.278355" lon="11.0121667"><ele>273.0</ele><time>2026-03-28T11:50:05.04Z</time></trkpt><trkpt lat="43.2784783" lon="11.0122117"><ele>273.0</ele><time>2026-03-28T11:50:06.041Z</time></trkpt><trkpt lat="43.27861" lon="11.012265"><ele>273.0</ele><time>2026-03-28T11:50:07.041Z</time></trkpt><trkpt lat="43.2787417" lon="11.012305"><ele>273.0</ele><time>2026-03-28T11:50:08.041Z</time></trkpt><trkpt lat="43.2788767" lon="11.01235"><ele>273.0</ele><time>2026-03-28T11:50:09.041Z</time></trkpt><trkpt lat="43.2790117" lon="11.0124033"><ele>272.5</ele><time>2026-03-28T11:50:10.041Z</time></trkpt><trkpt lat="43.2791633" lon="11.01247"><ele>272.0</ele><time>2026-03-28T11:50:11.041Z</time></trkpt><trkpt lat="43.2792917" lon="11.0125417"><ele>271.5</ele><time>2026-03-28T11:50:12.041Z</time></trkpt><trkpt lat="43.2794" lon="11.0125917"><ele>271.0</ele><time>2026-03-28T11:50:13.041Z</time></trkpt><trkpt lat="43.279505" lon="11.0126617"><ele>272.75</ele><time>2026-03-28T11:50:14.041Z</time></trkpt><trkpt lat="43.2796217" lon="11.01272"><ele>274.5</ele><time>2026-03-28T11:50:15.041Z</time></trkpt><trkpt lat="43.2797367" lon="11.0127733"><ele>276.25</ele><time>2026-03-28T11:50:16.041Z</time></trkpt><trkpt lat="43.279855" lon="11.0128333"><ele>278.0</ele><time>2026-03-28T11:50:17.041Z</time></trkpt><trkpt lat="43.279995" lon="11.0129083"><ele>278.0</ele><time>2026-03-28T11:50:18.041Z</time></trkpt><trkpt lat="43.280145" lon="11.0129833"><ele>278.0</ele><time>2026-03-28T11:50:19.041Z</time></trkpt><trkpt lat="43.2802933" lon="11.01305"><ele>278.0</ele><time>2026-03-28T11:50:20.041Z</time></trkpt><trkpt lat="43.2804317" lon="11.0131133"><ele>278.0</ele><time>2026-03-28T11:50:21.041Z</time></trkpt><trkpt lat="43.280565" lon="11.0131817"><ele>278.0</ele><time>2026-03-28T11:50:22.041Z</time></trkpt><trkpt lat="43.2806883" lon="11.0132433"><ele>278.0</ele><time>2026-03-28T11:50:23.041Z</time></trkpt><trkpt lat="43.2808" lon="11.0132783"><ele>278.0</ele><time>2026-03-28T11:50:24.041Z</time></trkpt><trkpt lat="43.2809217" lon="11.0132883"><ele>278.5</ele><time>2026-03-28T11:50:25.041Z</time></trkpt><trkpt lat="43.2810417" lon="11.0132817"><ele>279.0</ele><time>2026-03-28T11:50:26.04Z</time></trkpt><trkpt lat="43.281165" lon="11.01326"><ele>279.5</ele><time>2026-03-28T11:50:27.041Z</time></trkpt><trkpt lat="43.2812917" lon="11.0132133"><ele>280.0</ele><time>2026-03-28T11:50:28.041Z</time></trkpt><trkpt lat="43.281425" lon="11.013155"><ele>285.0</ele><time>2026-03-28T11:50:29.041Z</time></trkpt><trkpt lat="43.2815633" lon="11.013085"><ele>290.0</ele><time>2026-03-28T11:50:30.04Z</time></trkpt><trkpt lat="43.281715" lon="11.0130167"><ele>295.0</ele><time>2026-03-28T11:50:31.041Z</time></trkpt><trkpt lat="43.2818667" lon="11.0129483"><ele>295.0</ele><time>2026-03-28T11:50:32.041Z</time></trkpt><trkpt lat="43.282015" lon="11.0128783"><ele>295.0</ele><time>2026-03-28T11:50:33.041Z</time></trkpt><trkpt lat="43.2821583" lon="11.0128117"><ele>295.0</ele><time>2026-03-28T11:50:34.04Z</time></trkpt><trkpt lat="43.282285" lon="11.0127583"><ele>295.0</ele><time>2026-03-28T11:50:35.041Z</time></trkpt><trkpt lat="43.2824017" lon="11.0127183"><ele>296.5</ele><time>2026-03-28T11:50:36.041Z</time></trkpt><trkpt lat="43.282515" lon="11.012705"><ele>298.0</ele><time>2026-03-28T11:50:37.04Z</time></trkpt><trkpt lat="43.28264" lon="11.0127017"><ele>299.5</ele><time>2026-03-28T11:50:38.041Z</time></trkpt><trkpt lat="43.282765" lon="11.012705"><ele>301.0</ele><time>2026-03-28T11:50:39.041Z</time></trkpt><trkpt lat="43.2828883" lon="11.0127117"><ele>301.0</ele><time>2026-03-28T11:50:40.041Z</time></trkpt><trkpt lat="43.2829917" lon="11.0127133"><ele>301.0</ele><time>2026-03-28T11:50:41.041Z</time></trkpt><trkpt lat="43.2830833" lon="11.0127133"><ele>301.0</ele><time>2026-03-28T11:50:42.041Z</time></trkpt><trkpt lat="43.28317" lon="11.0127283"><ele>301.0</ele><time>2026-03-28T11:50:43.041Z</time></trkpt><trkpt lat="43.2832467" lon="11.012755"><ele>301.0</ele><time>2026-03-28T11:50:44.04Z</time></trkpt><trkpt lat="43.2833333" lon="11.01279"><ele>299.25</ele><time>2026-03-28T11:50:45.041Z</time></trkpt><trkpt lat="43.2834233" lon="11.0128583"><ele>297.5</ele><time>2026-03-28T11:50:46.041Z</time></trkpt><trkpt lat="43.2835133" lon="11.0129717"><ele>295.75</ele><time>2026-03-28T11:50:47.041Z</time></trkpt><trkpt lat="43.2836217" lon="11.0131333"><ele>294.0</ele><time>2026-03-28T11:50:48.041Z</time></trkpt><trkpt lat="43.2837417" lon="11.0132767"><ele>295.3333333333333</ele><time>2026-03-28T11:50:49.041Z</time></trkpt><trkpt lat="43.2838683" lon="11.013415"><ele>296.66666666666663</ele><time>2026-03-28T11:50:50.041Z</time></trkpt><trkpt lat="43.2839917" lon="11.013545"><ele>298.0</ele><time>2026-03-28T11:50:51.041Z</time></trkpt><trkpt lat="43.284105" lon="11.013665"><ele>298.0</ele><time>2026-03-28T11:50:52.041Z</time></trkpt><trkpt lat="43.2842117" lon="11.013755"><ele>298.0</ele><time>2026-03-28T11:50:53.041Z</time></trkpt><trkpt lat="43.2843233" lon="11.01383"><ele>298.0</ele><time>2026-03-28T11:50:54.04Z</time></trkpt><trkpt lat="43.2844117" lon="11.0139"><ele>298.0</ele><time>2026-03-28T11:50:55.041Z</time></trkpt><trkpt lat="43.2845217" lon="11.013955"><ele>298.0</ele><time>2026-03-28T11:50:56.041Z</time></trkpt><trkpt lat="43.2846483" lon="11.0139867"><ele>298.0</ele><time>2026-03-28T11:50:57.041Z</time></trkpt><trkpt lat="43.2847683" lon="11.014035"><ele>298.0</ele><time>2026-03-28T11:50:58.041Z</time></trkpt><trkpt lat="43.2849" lon="11.0140867"><ele>298.0</ele><time>2026-03-28T11:50:59.041Z</time></trkpt><trkpt lat="43.28505" lon="11.0141433"><ele>299.25</ele><time>2026-03-28T11:51:00.041Z</time></trkpt><trkpt lat="43.2851883" lon="11.0142183"><ele>300.5</ele><time>2026-03-28T11:51:01.041Z</time></trkpt><trkpt lat="43.2853217" lon="11.0142917"><ele>301.75</ele><time>2026-03-28T11:51:02.041Z</time></trkpt><trkpt lat="43.285465" lon="11.0143417"><ele>303.0</ele><time>2026-03-28T11:51:03.04Z</time></trkpt><trkpt lat="43.28561" lon="11.0143667"><ele>304.3333333333333</ele><time>2026-03-28T11:51:04.041Z</time></trkpt><trkpt lat="43.2857533" lon="11.014365"><ele>305.66666666666663</ele><time>2026-03-28T11:51:05.041Z</time></trkpt><trkpt lat="43.2859017" lon="11.0143367"><ele>307.0</ele><time>2026-03-28T11:51:06.04Z</time></trkpt><trkpt lat="43.2860533" lon="11.0142783"><ele>307.0</ele><time>2026-03-28T11:51:07.041Z</time></trkpt><trkpt lat="43.2861917" lon="11.01422"><ele>307.0</ele><time>2026-03-28T11:51:08.041Z</time></trkpt><trkpt lat="43.2863367" lon="11.0141517"><ele>307.0</ele><time>2026-03-28T11:51:09.041Z</time></trkpt><trkpt lat="43.2864783" lon="11.0140683"><ele>306.6</ele><time>2026-03-28T11:51:10.041Z</time></trkpt><trkpt lat="43.2866033" lon="11.0140033"><ele>306.2</ele><time>2026-03-28T11:51:11.041Z</time></trkpt><trkpt lat="43.2867" lon="11.0139817"><ele>305.8</ele><time>2026-03-28T11:51:12.041Z</time></trkpt><trkpt lat="43.2867967" lon="11.0139683"><ele>305.4</ele><time>2026-03-28T11:51:13.041Z</time></trkpt><trkpt lat="43.2868917" lon="11.0139683"><ele>305.0</ele><time>2026-03-28T11:51:14.041Z</time></trkpt><trkpt lat="43.2869983" lon="11.0139717"><ele>305.0</ele><time>2026-03-28T11:51:15.041Z</time></trkpt><trkpt lat="43.2871133" lon="11.0139933"><ele>305.0</ele><time>2026-03-28T11:51:16.041Z</time></trkpt><trkpt lat="43.28722" lon="11.0140317"><ele>305.0</ele><time>2026-03-28T11:51:17.041Z</time></trkpt><trkpt lat="43.2873233" lon="11.0140783"><ele>305.0</ele><time>2026-03-28T11:51:18.041Z</time></trkpt><trkpt lat="43.2874283" lon="11.014135"><ele>305.0</ele><time>2026-03-28T11:51:19.041Z</time></trkpt><trkpt lat="43.2875333" lon="11.0142017"><ele>308.5</ele><time>2026-03-28T11:51:20.041Z</time></trkpt><trkpt lat="43.2876467" lon="11.0142583"><ele>312.0</ele><time>2026-03-28T11:51:21.041Z</time></trkpt><trkpt lat="43.2877717" lon="11.014285"><ele>315.5</ele><time>2026-03-28T11:51:22.04Z</time></trkpt><trkpt lat="43.2879017" lon="11.0142983"><ele>319.0</ele><time>2026-03-28T11:51:23.04Z</time></trkpt><trkpt lat="43.2880383" lon="11.014295"><ele>319.25</ele><time>2026-03-28T11:51:24.041Z</time></trkpt><trkpt lat="43.2881667" lon="11.0142817"><ele>319.5</ele><time>2026-03-28T11:51:25.041Z</time></trkpt><trkpt lat="43.288295" lon="11.01427"><ele>319.75</ele><time>2026-03-28T11:51:26.04Z</time></trkpt><trkpt lat="43.2884283" lon="11.0142517"><ele>320.0</ele><time>2026-03-28T11:51:27.041Z</time></trkpt><trkpt lat="43.288565" lon="11.014235"><ele>320.0</ele><time>2026-03-28T11:51:28.041Z</time></trkpt><trkpt lat="43.2887117" lon="11.0142083"><ele>320.0</ele><time>2026-03-28T11:51:29.041Z</time></trkpt><trkpt lat="43.288845" lon="11.0141867"><ele>320.0</ele><time>2026-03-28T11:51:30.041Z</time></trkpt><trkpt lat="43.288955" lon="11.0141733"><ele>320.0</ele><time>2026-03-28T11:51:31.041Z</time></trkpt><trkpt lat="43.2890467" lon="11.01417"><ele>320.1666666666667</ele><time>2026-03-28T11:51:32.04Z</time></trkpt><trkpt lat="43.2891217" lon="11.01417"><ele>320.33333333333337</ele><time>2026-03-28T11:51:33.041Z</time></trkpt><trkpt lat="43.289185" lon="11.01417"><ele>320.5</ele><time>2026-03-28T11:51:34.041Z</time></trkpt><trkpt lat="43.2892983" lon="11.014155"><ele>320.6666666666667</ele><time>2026-03-28T11:51:36.041Z</time></trkpt><trkpt lat="43.2893633" lon="11.0141467"><ele>320.8333333333333</ele><time>2026-03-28T11:51:37.041Z</time></trkpt><trkpt lat="43.2894333" lon="11.0141483"><ele>321.0</ele><time>2026-03-28T11:51:38.041Z</time></trkpt><trkpt lat="43.2894967" lon="11.014145"><ele>320.1666666666667</ele><time>2026-03-28T11:51:39.041Z</time></trkpt><trkpt lat="43.28956" lon="11.014145"><ele>319.3333333333333</ele><time>2026-03-28T11:51:40.041Z</time></trkpt><trkpt lat="43.289635" lon="11.014145"><ele>318.5</ele><time>2026-03-28T11:51:41.041Z</time></trkpt><trkpt lat="43.2897133" lon="11.01414"><ele>317.66666666666663</ele><time>2026-03-28T11:51:42.041Z</time></trkpt><trkpt lat="43.2898" lon="11.0141217"><ele>316.8333333333333</ele><time>2026-03-28T11:51:43.041Z</time></trkpt><trkpt lat="43.2898833" lon="11.0141"><ele>316.0</ele><time>2026-03-28T11:51:44.04Z</time></trkpt><trkpt lat="43.2899867" lon="11.0140633"><ele>315.75</ele><time>2026-03-28T11:51:45.04Z</time></trkpt><trkpt lat="43.29011" lon="11.0139967"><ele>315.5</ele><time>2026-03-28T11:51:46.04Z</time></trkpt><trkpt lat="43.2902267" lon="11.01391"><ele>315.25</ele><time>2026-03-28T11:51:47.041Z</time></trkpt><trkpt lat="43.2903183" lon="11.013835"><ele>315.0</ele><time>2026-03-28T11:51:48.041Z</time></trkpt><trkpt lat="43.2903983" lon="11.01377"><ele>315.0</ele><time>2026-03-28T11:51:49.041Z</time></trkpt><trkpt lat="43.290465" lon="11.0137117"><ele>315.0</ele><time>2026-03-28T11:51:50.041Z</time></trkpt><trkpt lat="43.2905333" lon="11.0136467"><ele>315.0</ele><time>2026-03-28T11:51:51.041Z</time></trkpt><trkpt lat="43.2906117" lon="11.0135783"><ele>315.0</ele><time>2026-03-28T11:51:52.04Z</time></trkpt><trkpt lat="43.2907" lon="11.0135117"><ele>315.0</ele><time>2026-03-28T11:51:53.041Z</time></trkpt><trkpt lat="43.2907967" lon="11.0134417"><ele>314.75</ele><time>2026-03-28T11:51:54.041Z</time></trkpt><trkpt lat="43.2909033" lon="11.01337"><ele>314.5</ele><time>2026-03-28T11:51:55.041Z</time></trkpt><trkpt lat="43.29102" lon="11.0132933"><ele>314.25</ele><time>2026-03-28T11:51:56.041Z</time></trkpt><trkpt lat="43.29115" lon="11.0132183"><ele>314.0</ele><time>2026-03-28T11:51:57.041Z</time></trkpt><trkpt lat="43.291275" lon="11.0131433"><ele>314.0</ele><time>2026-03-28T11:51:58.04Z</time></trkpt><trkpt lat="43.291395" lon="11.0130733"><ele>314.0</ele><time>2026-03-28T11:51:59.041Z</time></trkpt><trkpt lat="43.291525" lon="11.0129983"><ele>314.0</ele><time>2026-03-28T11:52:00.041Z</time></trkpt><trkpt lat="43.2916483" lon="11.0129217"><ele>314.0</ele><time>2026-03-28T11:52:01.041Z</time></trkpt><trkpt lat="43.2917717" lon="11.0128433"><ele>316.25</ele><time>2026-03-28T11:52:02.041Z</time></trkpt><trkpt lat="43.29189" lon="11.01277"><ele>318.5</ele><time>2026-03-28T11:52:03.041Z</time></trkpt><trkpt lat="43.2919983" lon="11.0127117"><ele>320.75</ele><time>2026-03-28T11:52:04.041Z</time></trkpt><trkpt lat="43.2921017" lon="11.01267"><ele>323.0</ele><time>2026-03-28T11:52:05.041Z</time></trkpt><trkpt lat="43.2922067" lon="11.01265"><ele>324.59999999999997</ele><time>2026-03-28T11:52:06.041Z</time></trkpt><trkpt lat="43.2923017" lon="11.0126617"><ele>326.2</ele><time>2026-03-28T11:52:07.041Z</time></trkpt><trkpt lat="43.2924167" lon="11.0126767"><ele>327.8</ele><time>2026-03-28T11:52:08.041Z</time></trkpt><trkpt lat="43.2925217" lon="11.0126817"><ele>329.4</ele><time>2026-03-28T11:52:09.041Z</time></trkpt><trkpt lat="43.292625" lon="11.012675"><ele>331.0</ele><time>2026-03-28T11:52:10.041Z</time></trkpt><trkpt lat="43.2927117" lon="11.0126433"><ele>331.0</ele><time>2026-03-28T11:52:11.041Z</time></trkpt><trkpt lat="43.2927833" lon="11.01261"><ele>331.0</ele><time>2026-03-28T11:52:12.041Z</time></trkpt><trkpt lat="43.2928583" lon="11.012555"><ele>331.0</ele><time>2026-03-28T11:52:13.041Z</time></trkpt><trkpt lat="43.292935" lon="11.0124883"><ele>331.0</ele><time>2026-03-28T11:52:14.041Z</time></trkpt><trkpt lat="43.29301" lon="11.012415"><ele>331.0</ele><time>2026-03-28T11:52:15.041Z</time></trkpt><trkpt lat="43.2930767" lon="11.01233"><ele>331.0</ele><time>2026-03-28T11:52:16.041Z</time></trkpt><trkpt lat="43.2931267" lon="11.0122383"><ele>333.4</ele><time>2026-03-28T11:52:17.041Z</time></trkpt><trkpt lat="43.2931717" lon="11.01214"><ele>335.8</ele><time>2026-03-28T11:52:18.04Z</time></trkpt><trkpt lat="43.29322" lon="11.0120033"><ele>338.2</ele><time>2026-03-28T11:52:19.041Z</time></trkpt><trkpt lat="43.2932733" lon="11.0118883"><ele>340.59999999999997</ele><time>2026-03-28T11:52:20.041Z</time></trkpt><trkpt lat="43.2933383" lon="11.0117867"><ele>343.0</ele><time>2026-03-28T11:52:21.041Z</time></trkpt><trkpt lat="43.2934133" lon="11.0117217"><ele>343.0</ele><time>2026-03-28T11:52:22.041Z</time></trkpt><trkpt lat="43.2934883" lon="11.0116917"><ele>343.0</ele><time>2026-03-28T11:52:23.041Z</time></trkpt><trkpt lat="43.29356" lon="11.0116883"><ele>343.0</ele><time>2026-03-28T11:52:24.04Z</time></trkpt><trkpt lat="43.2936333" lon="11.0117033"><ele>343.0</ele><time>2026-03-28T11:52:25.041Z</time></trkpt><trkpt lat="43.2937183" lon="11.0117383"><ele>343.0</ele><time>2026-03-28T11:52:26.041Z</time></trkpt><trkpt lat="43.2938033" lon="11.0117767"><ele>343.0</ele><time>2026-03-28T11:52:27.041Z</time></trkpt><trkpt lat="43.2939" lon="11.0118383"><ele>345.2</ele><time>2026-03-28T11:52:28.041Z</time></trkpt><trkpt lat="43.2939917" lon="11.0118917"><ele>347.4</ele><time>2026-03-28T11:52:29.041Z</time></trkpt><trkpt lat="43.2940967" lon="11.01195"><ele>349.59999999999997</ele><time>2026-03-28T11:52:30.041Z</time></trkpt><trkpt lat="43.2942017" lon="11.0120017"><ele>351.79999999999995</ele><time>2026-03-28T11:52:31.04Z</time></trkpt><trkpt lat="43.2942983" lon="11.0120433"><ele>354.0</ele><time>2026-03-28T11:52:32.041Z</time></trkpt><trkpt lat="43.2943783" lon="11.0120683"><ele>354.0</ele><time>2026-03-28T11:52:33.041Z</time></trkpt><trkpt lat="43.2944483" lon="11.0120633"><ele>354.0</ele><time>2026-03-28T11:52:34.041Z</time></trkpt><trkpt lat="43.2945233" lon="11.01204"><ele>354.0</ele><time>2026-03-28T11:52:35.041Z</time></trkpt><trkpt lat="43.2945867" lon="11.0120017"><ele>354.0</ele><time>2026-03-28T11:52:36.041Z</time></trkpt><trkpt lat="43.2946483" lon="11.011945"><ele>354.0</ele><time>2026-03-28T11:52:37.041Z</time></trkpt><trkpt lat="43.2946983" lon="11.011865"><ele>354.0</ele><time>2026-03-28T11:52:38.041Z</time></trkpt><trkpt lat="43.2947433" lon="11.01177"><ele>355.6666666666667</ele><time>2026-03-28T11:52:39.04Z</time></trkpt><trkpt lat="43.29479" lon="11.0116683"><ele>357.3333333333333</ele><time>2026-03-28T11:52:40.041Z</time></trkpt><trkpt lat="43.2948367" lon="11.01156"><ele>359.0</ele><time>2026-03-28T11:52:41.041Z</time></trkpt><trkpt lat="43.2948833" lon="11.01145"><ele>360.66666666666663</ele><time>2026-03-28T11:52:42.04Z</time></trkpt><trkpt lat="43.2949317" lon="11.0113533"><ele>362.3333333333333</ele><time>2026-03-28T11:52:43.041Z</time></trkpt><trkpt lat="43.2949933" lon="11.0112717"><ele>364.0</ele><time>2026-03-28T11:52:44.041Z</time></trkpt><trkpt lat="43.2950633" lon="11.0111867"><ele>364.16666666666663</ele><time>2026-03-28T11:52:45.041Z</time></trkpt><trkpt lat="43.29514" lon="11.0110883"><ele>364.3333333333333</ele><time>2026-03-28T11:52:46.041Z</time></trkpt><trkpt lat="43.29522" lon="11.0109883"><ele>364.5</ele><time>2026-03-28T11:52:47.041Z</time></trkpt><trkpt lat="43.2952917" lon="11.0109067"><ele>364.6666666666667</ele><time>2026-03-28T11:52:48.041Z</time></trkpt><trkpt lat="43.2953417" lon="11.0108383"><ele>364.83333333333337</ele><time>2026-03-28T11:52:49.041Z</time></trkpt><trkpt lat="43.29537" lon="11.0107583"><ele>365.0</ele><time>2026-03-28T11:52:51.041Z</time></trkpt><trkpt lat="43.2953317" lon="11.0106683"><ele>365.0</ele><time>2026-03-28T11:52:53.041Z</time></trkpt><trkpt lat="43.2952783" lon="11.0105883"><ele>365.0</ele><time>2026-03-28T11:52:54.041Z</time></trkpt><trkpt lat="43.2952117" lon="11.0104933"><ele>365.0</ele><time>2026-03-28T11:52:55.041Z</time></trkpt><trkpt lat="43.2951417" lon="11.010375"><ele>365.0</ele><time>2026-03-28T11:52:56.041Z</time></trkpt><trkpt lat="43.2950617" lon="11.0102417"><ele>365.0</ele><time>2026-03-28T11:52:57.04Z</time></trkpt><trkpt lat="43.2949917" lon="11.0100917"><ele>365.25</ele><time>2026-03-28T11:52:58.04Z</time></trkpt><trkpt lat="43.29493" lon="11.0099567"><ele>365.5</ele><time>2026-03-28T11:52:59.04Z</time></trkpt><trkpt lat="43.2948733" lon="11.0098233"><ele>365.75</ele><time>2026-03-28T11:53:00.039Z</time></trkpt><trkpt lat="43.2948233" lon="11.009675"><ele>366.0</ele><time>2026-03-28T11:53:01.04Z</time></trkpt><trkpt lat="43.2948" lon="11.0095233"><ele>366.0</ele><time>2026-03-28T11:53:02.04Z</time></trkpt><trkpt lat="43.2947767" lon="11.0093833"><ele>366.0</ele><time>2026-03-28T11:53:03.039Z</time></trkpt><trkpt lat="43.29476" lon="11.0092317"><ele>366.0</ele><time>2026-03-28T11:53:04.04Z</time></trkpt><trkpt lat="43.2947567" lon="11.009095"><ele>366.0</ele><time>2026-03-28T11:53:05.04Z</time></trkpt><trkpt lat="43.29475" lon="11.0089733"><ele>366.0</ele><time>2026-03-28T11:53:06.04Z</time></trkpt><trkpt lat="43.2947433" lon="11.0088717"><ele>362.3333333333333</ele><time>2026-03-28T11:53:07.04Z</time></trkpt><trkpt lat="43.29474" lon="11.0087717"><ele>358.6666666666667</ele><time>2026-03-28T11:53:08.04Z</time></trkpt><trkpt lat="43.2947383" lon="11.0086833"><ele>355.0</ele><time>2026-03-28T11:53:09.04Z</time></trkpt><trkpt lat="43.294725" lon="11.008565"><ele>351.33333333333337</ele><time>2026-03-28T11:53:11.04Z</time></trkpt><trkpt lat="43.2947383" lon="11.0084283"><ele>347.6666666666667</ele><time>2026-03-28T11:54:07.04Z</time></trkpt><trkpt lat="43.2947233" lon="11.008325"><ele>344.0</ele><time>2026-03-28T11:54:08.039Z</time></trkpt><trkpt lat="43.2947" lon="11.0081933"><ele>343.75</ele><time>2026-03-28T11:54:09.04Z</time></trkpt><trkpt lat="43.2946733" lon="11.00803"><ele>343.5</ele><time>2026-03-28T11:54:10.04Z</time></trkpt><trkpt lat="43.294655" lon="11.0078317"><ele>343.25</ele><time>2026-03-28T11:54:11.04Z</time></trkpt><trkpt lat="43.29464" lon="11.007615"><ele>343.0</ele><time>2026-03-28T11:54:12.04Z</time></trkpt><trkpt lat="43.2946233" lon="11.0073967"><ele>342.66666666666663</ele><time>2026-03-28T11:54:13.039Z</time></trkpt><trkpt lat="43.2946033" lon="11.0071633"><ele>342.3333333333333</ele><time>2026-03-28T11:54:14.04Z</time></trkpt><trkpt lat="43.29458" lon="11.00695"><ele>342.0</ele><time>2026-03-28T11:54:15.04Z</time></trkpt><trkpt lat="43.2945483" lon="11.0067467"><ele>342.0</ele><time>2026-03-28T11:54:16.04Z</time></trkpt><trkpt lat="43.2945033" lon="11.0065433"><ele>342.0</ele><time>2026-03-28T11:54:17.04Z</time></trkpt><trkpt lat="43.2944367" lon="11.0063383"><ele>342.0</ele><time>2026-03-28T11:54:18.04Z</time></trkpt><trkpt lat="43.2943633" lon="11.0061283"><ele>342.0</ele><time>2026-03-28T11:54:19.04Z</time></trkpt><trkpt lat="43.2942933" lon="11.0059083"><ele>342.0</ele><time>2026-03-28T11:54:20.039Z</time></trkpt><trkpt lat="43.2942433" lon="11.005695"><ele>342.0</ele><time>2026-03-28T11:54:21.04Z</time></trkpt><trkpt lat="43.2942367" lon="11.0054917"><ele>341.0</ele><time>2026-03-28T11:54:22.04Z</time></trkpt><trkpt lat="43.2942567" lon="11.0052917"><ele>340.0</ele><time>2026-03-28T11:54:23.04Z</time></trkpt><trkpt lat="43.294315" lon="11.005075"><ele>339.0</ele><time>2026-03-28T11:54:24.04Z</time></trkpt><trkpt lat="43.294355" lon="11.0048517"><ele>336.6666666666667</ele><time>2026-03-28T11:54:25.04Z</time></trkpt><trkpt lat="43.2944017" lon="11.0045983"><ele>334.33333333333337</ele><time>2026-03-28T11:54:26.04Z</time></trkpt><trkpt lat="43.2944167" lon="11.0043467"><ele>332.0</ele><time>2026-03-28T11:54:27.04Z</time></trkpt><trkpt lat="43.2944467" lon="11.0041083"><ele>328.33333333333337</ele><time>2026-03-28T11:54:28.04Z</time></trkpt><trkpt lat="43.29448" lon="11.0039017"><ele>324.6666666666667</ele><time>2026-03-28T11:54:29.04Z</time></trkpt><trkpt lat="43.2945317" lon="11.0037133"><ele>321.0</ele><time>2026-03-28T11:54:30.04Z</time></trkpt><trkpt lat="43.2946117" lon="11.0035133"><ele>320.3333333333333</ele><time>2026-03-28T11:54:31.04Z</time></trkpt><trkpt lat="43.29472" lon="11.003305"><ele>319.66666666666663</ele><time>2026-03-28T11:54:32.04Z</time></trkpt><trkpt lat="43.2948383" lon="11.003085"><ele>319.0</ele><time>2026-03-28T11:54:33.04Z</time></trkpt><trkpt lat="43.294955" lon="11.0028717"><ele>319.0</ele><time>2026-03-28T11:54:34.039Z</time></trkpt><trkpt lat="43.2950617" lon="11.0026817"><ele>319.0</ele><time>2026-03-28T11:54:35.04Z</time></trkpt><trkpt lat="43.295175" lon="11.0025267"><ele>319.0</ele><time>2026-03-28T11:54:36.04Z</time></trkpt><trkpt lat="43.295285" lon="11.0024"><ele>314.75</ele><time>2026-03-28T11:54:37.04Z</time></trkpt><trkpt lat="43.295415" lon="11.002315"><ele>310.5</ele><time>2026-03-28T11:54:38.04Z</time></trkpt><trkpt lat="43.29556" lon="11.0022783"><ele>306.25</ele><time>2026-03-28T11:54:39.04Z</time></trkpt><trkpt lat="43.2957117" lon="11.0023083"><ele>302.0</ele><time>2026-03-28T11:54:40.04Z</time></trkpt><trkpt lat="43.2958633" lon="11.0024183"><ele>307.33333333333337</ele><time>2026-03-28T11:54:41.04Z</time></trkpt><trkpt lat="43.2960117" lon="11.00252"><ele>312.6666666666667</ele><time>2026-03-28T11:54:42.04Z</time></trkpt><trkpt lat="43.2961733" lon="11.002585"><ele>318.0</ele><time>2026-03-28T11:54:43.04Z</time></trkpt><trkpt lat="43.296345" lon="11.0025967"><ele>317.6666666666667</ele><time>2026-03-28T11:54:44.04Z</time></trkpt><trkpt lat="43.2965117" lon="11.00256"><ele>317.33333333333337</ele><time>2026-03-28T11:54:45.04Z</time></trkpt><trkpt lat="43.2966783" lon="11.0024983"><ele>317.0</ele><time>2026-03-28T11:54:46.04Z</time></trkpt><trkpt lat="43.2968317" lon="11.0024083"><ele>311.33333333333337</ele><time>2026-03-28T11:54:47.04Z</time></trkpt><trkpt lat="43.2969717" lon="11.002275"><ele>305.6666666666667</ele><time>2026-03-28T11:54:48.039Z</time></trkpt><trkpt lat="43.297105" lon="11.0021083"><ele>300.0</ele><time>2026-03-28T11:54:49.04Z</time></trkpt><trkpt lat="43.2972233" lon="11.0019067"><ele>300.3333333333333</ele><time>2026-03-28T11:54:50.039Z</time></trkpt><trkpt lat="43.2973233" lon="11.0016867"><ele>300.66666666666663</ele><time>2026-03-28T11:54:51.04Z</time></trkpt><trkpt lat="43.2973967" lon="11.001455"><ele>301.0</ele><time>2026-03-28T11:54:52.039Z</time></trkpt><trkpt lat="43.2974317" lon="11.0012283"><ele>301.0</ele><time>2026-03-28T11:54:53.04Z</time></trkpt><trkpt lat="43.29743" lon="11.001005"><ele>301.0</ele><time>2026-03-28T11:54:54.04Z</time></trkpt><trkpt lat="43.2974233" lon="11.0007633"><ele>301.0</ele><time>2026-03-28T11:54:55.04Z</time></trkpt><trkpt lat="43.2974267" lon="11.0005367"><ele>299.0</ele><time>2026-03-28T11:54:56.04Z</time></trkpt><trkpt lat="43.29744" lon="11.00033"><ele>297.0</ele><time>2026-03-28T11:54:57.04Z</time></trkpt><trkpt lat="43.2974767" lon="11.0001683"><ele>295.0</ele><time>2026-03-28T11:54:58.04Z</time></trkpt><trkpt lat="43.2975517" lon="11.0000333"><ele>293.0</ele><time>2026-03-28T11:54:59.039Z</time></trkpt><trkpt lat="43.2976683" lon="10.999905"><ele>293.0</ele><time>2026-03-28T11:55:00.039Z</time></trkpt><trkpt lat="43.2978133" lon="10.999805"><ele>293.0</ele><time>2026-03-28T11:55:01.04Z</time></trkpt><trkpt lat="43.297965" lon="10.9997717"><ele>293.0</ele><time>2026-03-28T11:55:02.039Z</time></trkpt><trkpt lat="43.2981117" lon="10.9997933"><ele>292.33333333333337</ele><time>2026-03-28T11:55:03.04Z</time></trkpt><trkpt lat="43.2982483" lon="10.999875"><ele>291.6666666666667</ele><time>2026-03-28T11:55:04.04Z</time></trkpt><trkpt lat="43.2983717" lon="11.0000133"><ele>291.0</ele><time>2026-03-28T11:55:05.04Z</time></trkpt><trkpt lat="43.2984733" lon="11.00021"><ele>291.0</ele><time>2026-03-28T11:55:06.039Z</time></trkpt><trkpt lat="43.2985833" lon="11.0003917"><ele>291.0</ele><time>2026-03-28T11:55:07.04Z</time></trkpt><trkpt lat="43.2987" lon="11.0005417"><ele>291.0</ele><time>2026-03-28T11:55:08.04Z</time></trkpt><trkpt lat="43.2988217" lon="11.0006267"><ele>288.0</ele><time>2026-03-28T11:55:09.04Z</time></trkpt><trkpt lat="43.2989333" lon="11.000645"><ele>285.0</ele><time>2026-03-28T11:55:10.04Z</time></trkpt><trkpt lat="43.2990133" lon="11.0005783"><ele>282.0</ele><time>2026-03-28T11:55:11.04Z</time></trkpt><trkpt lat="43.2990733" lon="11.0004333"><ele>279.0</ele><time>2026-03-28T11:55:12.04Z</time></trkpt><trkpt lat="43.299115" lon="11.0002333"><ele>279.0</ele><time>2026-03-28T11:55:13.04Z</time></trkpt><trkpt lat="43.29915" lon="10.9999983"><ele>279.0</ele><time>2026-03-28T11:55:14.04Z</time></trkpt><trkpt lat="43.299175" lon="10.99976"><ele>279.0</ele><time>2026-03-28T11:55:15.04Z</time></trkpt><trkpt lat="43.29921" lon="10.9995117"><ele>279.0</ele><time>2026-03-28T11:55:16.039Z</time></trkpt><trkpt lat="43.2992317" lon="10.9992533"><ele>279.0</ele><time>2026-03-28T11:55:17.04Z</time></trkpt><trkpt lat="43.2992567" lon="10.9989883"><ele>279.0</ele><time>2026-03-28T11:55:18.039Z</time></trkpt><trkpt lat="43.2992717" lon="10.9987083"><ele>277.6666666666667</ele><time>2026-03-28T11:55:19.04Z</time></trkpt><trkpt lat="43.2992833" lon="10.998415"><ele>276.33333333333337</ele><time>2026-03-28T11:55:20.04Z</time></trkpt><trkpt lat="43.2992867" lon="10.9981117"><ele>275.0</ele><time>2026-03-28T11:55:21.04Z</time></trkpt><trkpt lat="43.29929" lon="10.9978083"><ele>272.6666666666667</ele><time>2026-03-28T11:55:22.039Z</time></trkpt><trkpt lat="43.2992917" lon="10.9975117"><ele>270.3333333333333</ele><time>2026-03-28T11:55:23.04Z</time></trkpt><trkpt lat="43.2993033" lon="10.9972217"><ele>268.0</ele><time>2026-03-28T11:55:24.04Z</time></trkpt><trkpt lat="43.29931" lon="10.9969483"><ele>266.3333333333333</ele><time>2026-03-28T11:55:25.04Z</time></trkpt><trkpt lat="43.2993167" lon="10.996675"><ele>264.6666666666667</ele><time>2026-03-28T11:55:26.04Z</time></trkpt><trkpt lat="43.29933" lon="10.99641"><ele>263.0</ele><time>2026-03-28T11:55:27.04Z</time></trkpt><trkpt lat="43.299355" lon="10.9961717"><ele>261.33333333333337</ele><time>2026-03-28T11:55:28.04Z</time></trkpt><trkpt lat="43.2993883" lon="10.9959317"><ele>259.6666666666667</ele><time>2026-03-28T11:55:29.04Z</time></trkpt><trkpt lat="43.2994483" lon="10.9957133"><ele>258.0</ele><time>2026-03-28T11:55:30.04Z</time></trkpt><trkpt lat="43.2995283" lon="10.9955367"><ele>257.0</ele><time>2026-03-28T11:55:31.04Z</time></trkpt><trkpt lat="43.29962" lon="10.9953717"><ele>256.0</ele><time>2026-03-28T11:55:32.04Z</time></trkpt><trkpt lat="43.2996767" lon="10.9952183"><ele>255.0</ele><time>2026-03-28T11:55:33.039Z</time></trkpt><trkpt lat="43.2996783" lon="10.9950483"><ele>254.0</ele><time>2026-03-28T11:55:34.039Z</time></trkpt><trkpt lat="43.2996417" lon="10.9949017"><ele>252.75</ele><time>2026-03-28T11:55:35.04Z</time></trkpt><trkpt lat="43.2995467" lon="10.9947783"><ele>251.5</ele><time>2026-03-28T11:55:36.039Z</time></trkpt><trkpt lat="43.2994283" lon="10.9946933"><ele>250.25</ele><time>2026-03-28T11:55:37.04Z</time></trkpt><trkpt lat="43.2992867" lon="10.9946783"><ele>249.0</ele><time>2026-03-28T11:55:38.04Z</time></trkpt><trkpt lat="43.29915" lon="10.9947217"><ele>249.0</ele><time>2026-03-28T11:55:39.04Z</time></trkpt><trkpt lat="43.2990133" lon="10.9948083"><ele>249.0</ele><time>2026-03-28T11:55:40.04Z</time></trkpt><trkpt lat="43.2988733" lon="10.9949033"><ele>249.0</ele><time>2026-03-28T11:55:41.04Z</time></trkpt><trkpt lat="43.2987333" lon="10.9949567"><ele>246.5</ele><time>2026-03-28T11:55:42.039Z</time></trkpt><trkpt lat="43.2986033" lon="10.9949517"><ele>244.0</ele><time>2026-03-28T11:55:43.04Z</time></trkpt><trkpt lat="43.298485" lon="10.9948767"><ele>241.5</ele><time>2026-03-28T11:55:44.039Z</time></trkpt><trkpt lat="43.2984017" lon="10.9947267"><ele>239.0</ele><time>2026-03-28T11:55:45.04Z</time></trkpt><trkpt lat="43.2983583" lon="10.9945533"><ele>239.0</ele><time>2026-03-28T11:55:46.04Z</time></trkpt><trkpt lat="43.298355" lon="10.9943667"><ele>239.0</ele><time>2026-03-28T11:55:47.04Z</time></trkpt><trkpt lat="43.2983783" lon="10.9941833"><ele>239.0</ele><time>2026-03-28T11:55:48.04Z</time></trkpt><trkpt lat="43.2984517" lon="10.9939583"><ele>238.33333333333334</ele><time>2026-03-28T11:55:49.04Z</time></trkpt><trkpt lat="43.298555" lon="10.9937317"><ele>237.66666666666669</ele><time>2026-03-28T11:55:50.04Z</time></trkpt><trkpt lat="43.2986567" lon="10.9935167"><ele>237.0</ele><time>2026-03-28T11:55:51.04Z</time></trkpt><trkpt lat="43.29874" lon="10.993325"><ele>235.5</ele><time>2026-03-28T11:55:52.04Z</time></trkpt><trkpt lat="43.2987883" lon="10.99313"><ele>234.0</ele><time>2026-03-28T11:55:53.039Z</time></trkpt><trkpt lat="43.29879" lon="10.992935"><ele>232.5</ele><time>2026-03-28T11:55:54.04Z</time></trkpt><trkpt lat="43.29875" lon="10.9927417"><ele>231.0</ele><time>2026-03-28T11:55:55.04Z</time></trkpt><trkpt lat="43.298665" lon="10.99255"><ele>230.0</ele><time>2026-03-28T11:55:56.04Z</time></trkpt><trkpt lat="43.2985467" lon="10.9924067"><ele>229.0</ele><time>2026-03-28T11:55:57.04Z</time></trkpt><trkpt lat="43.29839" lon="10.9922717"><ele>228.0</ele><time>2026-03-28T11:55:58.04Z</time></trkpt><trkpt lat="43.2982283" lon="10.9921283"><ele>225.0</ele><time>2026-03-28T11:55:59.04Z</time></trkpt><trkpt lat="43.298045" lon="10.9919767"><ele>222.0</ele><time>2026-03-28T11:56:00.04Z</time></trkpt><trkpt lat="43.2978767" lon="10.9918367"><ele>219.0</ele><time>2026-03-28T11:56:01.04Z</time></trkpt><trkpt lat="43.2977033" lon="10.9917133"><ele>218.33333333333331</ele><time>2026-03-28T11:56:02.04Z</time></trkpt><trkpt lat="43.297515" lon="10.9916067"><ele>217.66666666666666</ele><time>2026-03-28T11:56:03.04Z</time></trkpt><trkpt lat="43.2973117" lon="10.9915083"><ele>217.0</ele><time>2026-03-28T11:56:04.04Z</time></trkpt><trkpt lat="43.297095" lon="10.9914233"><ele>217.0</ele><time>2026-03-28T11:56:05.039Z</time></trkpt><trkpt lat="43.2968767" lon="10.99134"><ele>217.0</ele><time>2026-03-28T11:56:06.04Z</time></trkpt><trkpt lat="43.29666" lon="10.99126"><ele>217.0</ele><time>2026-03-28T11:56:07.04Z</time></trkpt><trkpt lat="43.29645" lon="10.9911833"><ele>217.0</ele><time>2026-03-28T11:56:08.04Z</time></trkpt><trkpt lat="43.2962517" lon="10.991115"><ele>217.0</ele><time>2026-03-28T11:56:09.04Z</time></trkpt><trkpt lat="43.296095" lon="10.991"><ele>216.33333333333331</ele><time>2026-03-28T11:56:10.04Z</time></trkpt><trkpt lat="43.295965" lon="10.9908533"><ele>215.66666666666669</ele><time>2026-03-28T11:56:11.04Z</time></trkpt><trkpt lat="43.29585" lon="10.9906567"><ele>215.0</ele><time>2026-03-28T11:56:12.04Z</time></trkpt><trkpt lat="43.2957517" lon="10.9904133"><ele>215.0</ele><time>2026-03-28T11:56:13.039Z</time></trkpt><trkpt lat="43.295655" lon="10.990135"><ele>215.0</ele><time>2026-03-28T11:56:14.04Z</time></trkpt><trkpt lat="43.29555" lon="10.98984"><ele>209.5</ele><time>2026-03-28T11:56:15.04Z</time></trkpt><trkpt lat="43.2954283" lon="10.9895467"><ele>204.0</ele><time>2026-03-28T11:56:16.04Z</time></trkpt><trkpt lat="43.2953117" lon="10.9892567"><ele>204.5</ele><time>2026-03-28T11:56:17.039Z</time></trkpt><trkpt lat="43.2951683" lon="10.9889733"><ele>205.0</ele><time>2026-03-28T11:56:18.04Z</time></trkpt><trkpt lat="43.2950083" lon="10.988695"><ele>205.0</ele><time>2026-03-28T11:56:19.04Z</time></trkpt><trkpt lat="43.2948483" lon="10.9884167"><ele>205.0</ele><time>2026-03-28T11:56:20.04Z</time></trkpt><trkpt lat="43.2946867" lon="10.9881317"><ele>201.0</ele><time>2026-03-28T11:56:21.04Z</time></trkpt><trkpt lat="43.29453" lon="10.9878333"><ele>197.0</ele><time>2026-03-28T11:56:22.04Z</time></trkpt><trkpt lat="43.2943833" lon="10.9875533"><ele>200.5</ele><time>2026-03-28T11:56:23.04Z</time></trkpt><trkpt lat="43.2942333" lon="10.987285"><ele>204.0</ele><time>2026-03-28T11:56:24.039Z</time></trkpt><trkpt lat="43.294095" lon="10.9870317"><ele>204.0</ele><time>2026-03-28T11:56:25.04Z</time></trkpt><trkpt lat="43.293955" lon="10.9868067"><ele>204.0</ele><time>2026-03-28T11:56:26.04Z</time></trkpt><trkpt lat="43.29383" lon="10.9865817"><ele>204.0</ele><time>2026-03-28T11:56:27.04Z</time></trkpt><trkpt lat="43.29372" lon="10.9863683"><ele>203.33333333333331</ele><time>2026-03-28T11:56:28.04Z</time></trkpt><trkpt lat="43.293635" lon="10.9861617"><ele>202.66666666666666</ele><time>2026-03-28T11:56:29.04Z</time></trkpt><trkpt lat="43.2935733" lon="10.9859417"><ele>202.0</ele><time>2026-03-28T11:56:30.039Z</time></trkpt><trkpt lat="43.2935133" lon="10.9856867"><ele>202.0</ele><time>2026-03-28T11:56:31.04Z</time></trkpt><trkpt lat="43.2934633" lon="10.9854117"><ele>202.0</ele><time>2026-03-28T11:56:32.04Z</time></trkpt><trkpt lat="43.293415" lon="10.9851333"><ele>202.0</ele><time>2026-03-28T11:56:33.039Z</time></trkpt><trkpt lat="43.293365" lon="10.9848617"><ele>201.33333333333331</ele><time>2026-03-28T11:56:34.04Z</time></trkpt><trkpt lat="43.2933217" lon="10.9846183"><ele>200.66666666666669</ele><time>2026-03-28T11:56:35.04Z</time></trkpt><trkpt lat="43.2932733" lon="10.984405"><ele>200.0</ele><time>2026-03-28T11:56:36.04Z</time></trkpt><trkpt lat="43.2932433" lon="10.984215"><ele>199.0</ele><time>2026-03-28T11:56:37.04Z</time></trkpt><trkpt lat="43.29319" lon="10.9840483"><ele>198.0</ele><time>2026-03-28T11:56:38.04Z</time></trkpt><trkpt lat="43.2931033" lon="10.983895"><ele>197.0</ele><time>2026-03-28T11:56:39.04Z</time></trkpt><trkpt lat="43.2929633" lon="10.98376"><ele>196.0</ele><time>2026-03-28T11:56:40.04Z</time></trkpt><trkpt lat="43.2927967" lon="10.98363"><ele>194.66666666666666</ele><time>2026-03-28T11:56:41.04Z</time></trkpt><trkpt lat="43.2926533" lon="10.983505"><ele>193.33333333333331</ele><time>2026-03-28T11:56:42.039Z</time></trkpt><trkpt lat="43.2925317" lon="10.9833433"><ele>192.0</ele><time>2026-03-28T11:56:43.04Z</time></trkpt><trkpt lat="43.2924317" lon="10.983155"><ele>191.33333333333334</ele><time>2026-03-28T11:56:44.039Z</time></trkpt><trkpt lat="43.2923417" lon="10.9829467"><ele>190.66666666666669</ele><time>2026-03-28T11:56:45.04Z</time></trkpt><trkpt lat="43.292275" lon="10.9827133"><ele>190.0</ele><time>2026-03-28T11:56:46.04Z</time></trkpt><trkpt lat="43.29226" lon="10.9824467"><ele>190.0</ele><time>2026-03-28T11:56:47.04Z</time></trkpt><trkpt lat="43.2922517" lon="10.9822"><ele>190.0</ele><time>2026-03-28T11:56:48.04Z</time></trkpt><trkpt lat="43.2922483" lon="10.9819617"><ele>190.0</ele><time>2026-03-28T11:56:49.04Z</time></trkpt><trkpt lat="43.2922633" lon="10.9817217"><ele>189.66666666666669</ele><time>2026-03-28T11:56:50.04Z</time></trkpt><trkpt lat="43.2923183" lon="10.9814533"><ele>189.33333333333334</ele><time>2026-03-28T11:56:51.04Z</time></trkpt><trkpt lat="43.2923883" lon="10.9812"><ele>189.0</ele><time>2026-03-28T11:56:52.04Z</time></trkpt><trkpt lat="43.2924667" lon="10.9809483"><ele>185.66666666666666</ele><time>2026-03-28T11:56:53.04Z</time></trkpt><trkpt lat="43.2925267" lon="10.9807217"><ele>182.33333333333331</ele><time>2026-03-28T11:56:54.04Z</time></trkpt><trkpt lat="43.2925433" lon="10.98051"><ele>179.0</ele><time>2026-03-28T11:56:55.04Z</time></trkpt><trkpt lat="43.2925383" lon="10.980305"><ele>179.0</ele><time>2026-03-28T11:56:56.04Z</time></trkpt><trkpt lat="43.2924867" lon="10.9801333"><ele>179.0</ele><time>2026-03-28T11:56:57.04Z</time></trkpt><trkpt lat="43.2924083" lon="10.9799783"><ele>179.0</ele><time>2026-03-28T11:56:58.039Z</time></trkpt><trkpt lat="43.29231" lon="10.979855"><ele>179.0</ele><time>2026-03-28T11:56:59.04Z</time></trkpt><trkpt lat="43.29218" lon="10.9797867"><ele>176.33333333333331</ele><time>2026-03-28T11:57:00.04Z</time></trkpt><trkpt lat="43.2920433" lon="10.9797733"><ele>173.66666666666666</ele><time>2026-03-28T11:57:01.04Z</time></trkpt><trkpt lat="43.2918583" lon="10.9798333"><ele>171.0</ele><time>2026-03-28T11:57:02.04Z</time></trkpt><trkpt lat="43.29167" lon="10.9799017"><ele>171.0</ele><time>2026-03-28T11:57:03.04Z</time></trkpt><trkpt lat="43.291505" lon="10.97991"><ele>171.0</ele><time>2026-03-28T11:57:04.04Z</time></trkpt><trkpt lat="43.291335" lon="10.979875"><ele>171.0</ele><time>2026-03-28T11:57:05.04Z</time></trkpt><trkpt lat="43.2911633" lon="10.979775"><ele>168.0</ele><time>2026-03-28T11:57:06.04Z</time></trkpt><trkpt lat="43.2910167" lon="10.9796417"><ele>165.0</ele><time>2026-03-28T11:57:07.039Z</time></trkpt><trkpt lat="43.290855" lon="10.9795183"><ele>162.0</ele><time>2026-03-28T11:57:08.04Z</time></trkpt><trkpt lat="43.2907" lon="10.979415"><ele>161.0</ele><time>2026-03-28T11:57:09.039Z</time></trkpt><trkpt lat="43.2905567" lon="10.9793217"><ele>160.0</ele><time>2026-03-28T11:57:10.04Z</time></trkpt><trkpt lat="43.2904233" lon="10.979225"><ele>159.0</ele><time>2026-03-28T11:57:11.04Z</time></trkpt><trkpt lat="43.2902933" lon="10.9791283"><ele>159.0</ele><time>2026-03-28T11:57:12.04Z</time></trkpt><trkpt lat="43.2901567" lon="10.97903"><ele>159.0</ele><time>2026-03-28T11:57:13.04Z</time></trkpt><trkpt lat="43.2900117" lon="10.9789383"><ele>159.0</ele><time>2026-03-28T11:57:14.04Z</time></trkpt><trkpt lat="43.289875" lon="10.97884"><ele>160.33333333333334</ele><time>2026-03-28T11:57:15.039Z</time></trkpt><trkpt lat="43.28974" lon="10.97874"><ele>161.66666666666669</ele><time>2026-03-28T11:57:16.04Z</time></trkpt><trkpt lat="43.28961" lon="10.9786467"><ele>163.0</ele><time>2026-03-28T11:57:17.04Z</time></trkpt><trkpt lat="43.28946" lon="10.9785533"><ele>163.0</ele><time>2026-03-28T11:57:18.04Z</time></trkpt><trkpt lat="43.2893083" lon="10.9784583"><ele>163.0</ele><time>2026-03-28T11:57:19.04Z</time></trkpt><trkpt lat="43.2891717" lon="10.9783767"><ele>163.0</ele><time>2026-03-28T11:57:20.04Z</time></trkpt><trkpt lat="43.2890533" lon="10.9783483"><ele>163.0</ele><time>2026-03-28T11:57:21.04Z</time></trkpt><trkpt lat="43.28893" lon="10.9783883"><ele>165.25</ele><time>2026-03-28T11:57:22.039Z</time></trkpt><trkpt lat="43.28881" lon="10.9784817"><ele>167.5</ele><time>2026-03-28T11:57:23.04Z</time></trkpt><trkpt lat="43.2886983" lon="10.9786233"><ele>169.75</ele><time>2026-03-28T11:57:24.039Z</time></trkpt><trkpt lat="43.2886267" lon="10.9787467"><ele>172.0</ele><time>2026-03-28T11:57:25.039Z</time></trkpt><trkpt lat="43.288575" lon="10.9788483"><ele>172.0</ele><time>2026-03-28T11:57:26.04Z</time></trkpt><trkpt lat="43.2885183" lon="10.978925"><ele>172.0</ele><time>2026-03-28T11:57:27.04Z</time></trkpt><trkpt lat="43.2884733" lon="10.9789917"><ele>172.0</ele><time>2026-03-28T11:57:28.04Z</time></trkpt><trkpt lat="43.2884067" lon="10.979105"><ele>172.0</ele><time>2026-03-28T11:57:30.04Z</time></trkpt><trkpt lat="43.2883533" lon="10.9792033"><ele>172.0</ele><time>2026-03-28T11:57:32.039Z</time></trkpt><trkpt lat="43.2883067" lon="10.97927"><ele>172.0</ele><time>2026-03-28T11:57:34.04Z</time></trkpt><trkpt lat="43.2882883" lon="10.9793667"><ele>172.0</ele><time>2026-03-28T11:57:38.04Z</time></trkpt><trkpt lat="43.2883617" lon="10.9792817"><ele>172.0</ele><time>2026-03-28T11:57:41.04Z</time></trkpt><trkpt lat="43.2883983" lon="10.9792083"><ele>172.0</ele><time>2026-03-28T11:57:42.04Z</time></trkpt><trkpt lat="43.2884483" lon="10.9791133"><ele>172.0</ele><time>2026-03-28T11:57:43.04Z</time></trkpt><trkpt lat="43.2885117" lon="10.9790067"><ele>172.0</ele><time>2026-03-28T11:57:44.04Z</time></trkpt><trkpt lat="43.28859" lon="10.978895"><ele>172.0</ele><time>2026-03-28T11:57:45.04Z</time></trkpt><trkpt lat="43.2886617" lon="10.9787767"><ele>172.0</ele><time>2026-03-28T11:57:46.039Z</time></trkpt><trkpt lat="43.2887233" lon="10.9786867"><ele>172.0</ele><time>2026-03-28T11:57:47.04Z</time></trkpt><trkpt lat="43.2887967" lon="10.9786183"><ele>172.0</ele><time>2026-03-28T11:57:49.04Z</time></trkpt><trkpt lat="43.2888633" lon="10.978665"><ele>172.0</ele><time>2026-03-28T11:57:52.04Z</time></trkpt><trkpt lat="43.2889217" lon="10.9787733"><ele>170.83333333333334</ele><time>2026-03-28T11:57:54.04Z</time></trkpt><trkpt lat="43.28896" lon="10.9788567"><ele>169.66666666666669</ele><time>2026-03-28T11:57:55.039Z</time></trkpt><trkpt lat="43.288995" lon="10.978945"><ele>168.5</ele><time>2026-03-28T11:57:56.04Z</time></trkpt><trkpt lat="43.2890133" lon="10.9790283"><ele>167.33333333333334</ele><time>2026-03-28T11:57:57.04Z</time></trkpt><trkpt lat="43.2890033" lon="10.97917"><ele>166.16666666666666</ele><time>2026-03-28T11:57:59.04Z</time></trkpt><trkpt lat="43.28892" lon="10.9792833"><ele>165.0</ele><time>2026-03-28T11:58:01.039Z</time></trkpt><trkpt lat="43.2888617" lon="10.9793267"><ele>165.0</ele><time>2026-03-28T11:58:02.04Z</time></trkpt><trkpt lat="43.28878" lon="10.97937"><ele>165.0</ele><time>2026-03-28T11:58:03.04Z</time></trkpt><trkpt lat="43.28868" lon="10.9794383"><ele>165.0</ele><time>2026-03-28T11:58:04.04Z</time></trkpt><trkpt lat="43.2885833" lon="10.979535"><ele>165.0</ele><time>2026-03-28T11:58:05.04Z</time></trkpt><trkpt lat="43.2885017" lon="10.9796383"><ele>165.0</ele><time>2026-03-28T11:58:06.04Z</time></trkpt><trkpt lat="43.2884217" lon="10.9797367"><ele>165.0</ele><time>2026-03-28T11:58:07.039Z</time></trkpt><trkpt lat="43.2883467" lon="10.9798333"><ele>165.0</ele><time>2026-03-28T11:58:08.04Z</time></trkpt><trkpt lat="43.288265" lon="10.979915"><ele>165.0</ele><time>2026-03-28T11:58:09.04Z</time></trkpt><trkpt lat="43.2881917" lon="10.97999"><ele>165.0</ele><time>2026-03-28T11:58:10.04Z</time></trkpt><trkpt lat="43.288125" lon="10.9800533"><ele>165.0</ele><time>2026-03-28T11:58:11.039Z</time></trkpt><trkpt lat="43.2880783" lon="10.9801233"><ele>165.0</ele><time>2026-03-28T11:58:12.04Z</time></trkpt><trkpt lat="43.2880383" lon="10.9801983"><ele>165.5</ele><time>2026-03-28T11:58:13.04Z</time></trkpt><trkpt lat="43.2880117" lon="10.9802883"><ele>166.0</ele><time>2026-03-28T11:58:14.039Z</time></trkpt><trkpt lat="43.2879983" lon="10.9803867"><ele>166.5</ele><time>2026-03-28T11:58:15.04Z</time></trkpt><trkpt lat="43.2879833" lon="10.9804767"><ele>167.0</ele><time>2026-03-28T11:58:16.04Z</time></trkpt><trkpt lat="43.28794" lon="10.9806217"><ele>167.5</ele><time>2026-03-28T11:58:18.039Z</time></trkpt><trkpt lat="43.28785" lon="10.9807317"><ele>168.0</ele><time>2026-03-28T11:58:20.04Z</time></trkpt><trkpt lat="43.287805" lon="10.9808083"><ele>167.33333333333334</ele><time>2026-03-28T11:58:21.04Z</time></trkpt><trkpt lat="43.2877467" lon="10.980885"><ele>166.66666666666666</ele><time>2026-03-28T11:58:22.04Z</time></trkpt><trkpt lat="43.287685" lon="10.980935"><ele>166.0</ele><time>2026-03-28T11:58:23.039Z</time></trkpt><trkpt lat="43.28762" lon="10.98097"><ele>165.33333333333331</ele><time>2026-03-28T11:58:24.04Z</time></trkpt><trkpt lat="43.2875233" lon="10.9810617"><ele>164.66666666666666</ele><time>2026-03-28T11:58:26.04Z</time></trkpt><trkpt lat="43.28748" lon="10.98116"><ele>164.0</ele><time>2026-03-28T11:58:27.04Z</time></trkpt><trkpt lat="43.2874433" lon="10.98126"><ele>164.0</ele><time>2026-03-28T11:58:28.039Z</time></trkpt><trkpt lat="43.2874033" lon="10.9813633"><ele>164.0</ele><time>2026-03-28T11:58:29.04Z</time></trkpt><trkpt lat="43.2873683" lon="10.98147"><ele>164.0</ele><time>2026-03-28T11:58:30.04Z</time></trkpt><trkpt lat="43.2873233" lon="10.9815733"><ele>164.0</ele><time>2026-03-28T11:58:31.04Z</time></trkpt><trkpt lat="43.287265" lon="10.981685"><ele>164.0</ele><time>2026-03-28T11:58:32.039Z</time></trkpt><trkpt lat="43.2871983" lon="10.9818017"><ele>165.25</ele><time>2026-03-28T11:58:33.04Z</time></trkpt><trkpt lat="43.287125" lon="10.9819317"><ele>166.5</ele><time>2026-03-28T11:58:34.04Z</time></trkpt><trkpt lat="43.28707" lon="10.9821067"><ele>167.75</ele><time>2026-03-28T11:58:35.04Z</time></trkpt><trkpt lat="43.287025" lon="10.98229"><ele>169.0</ele><time>2026-03-28T11:58:36.04Z</time></trkpt><trkpt lat="43.2870067" lon="10.98247"><ele>167.6</ele><time>2026-03-28T11:58:37.039Z</time></trkpt><trkpt lat="43.2870017" lon="10.982645"><ele>166.2</ele><time>2026-03-28T11:58:38.04Z</time></trkpt><trkpt lat="43.2870083" lon="10.9828067"><ele>164.79999999999998</ele><time>2026-03-28T11:58:39.04Z</time></trkpt><trkpt lat="43.287" lon="10.9829533"><ele>163.39999999999998</ele><time>2026-03-28T11:58:40.04Z</time></trkpt><trkpt lat="43.2870133" lon="10.9830817"><ele>162.0</ele><time>2026-03-28T11:58:41.04Z</time></trkpt><trkpt lat="43.2870483" lon="10.9831983"><ele>162.0</ele><time>2026-03-28T11:58:42.04Z</time></trkpt><trkpt lat="43.2870983" lon="10.9833083"><ele>162.0</ele><time>2026-03-28T11:58:43.04Z</time></trkpt><trkpt lat="43.2871533" lon="10.9833983"><ele>162.0</ele><time>2026-03-28T11:58:44.04Z</time></trkpt><trkpt lat="43.28721" lon="10.9834917"><ele>162.0</ele><time>2026-03-28T11:58:45.04Z</time></trkpt><trkpt lat="43.2872517" lon="10.9835733"><ele>162.0</ele><time>2026-03-28T11:58:46.04Z</time></trkpt><trkpt lat="43.2872767" lon="10.98368"><ele>162.0</ele><time>2026-03-28T11:58:47.04Z</time></trkpt><trkpt lat="43.2872883" lon="10.9838033"><ele>161.8</ele><time>2026-03-28T11:58:48.039Z</time></trkpt><trkpt lat="43.287295" lon="10.9839483"><ele>161.6</ele><time>2026-03-28T11:58:49.04Z</time></trkpt><trkpt lat="43.2873017" lon="10.98411"><ele>161.4</ele><time>2026-03-28T11:58:50.04Z</time></trkpt><trkpt lat="43.28731" lon="10.98426"><ele>161.20000000000002</ele><time>2026-03-28T11:58:51.04Z</time></trkpt><trkpt lat="43.2873" lon="10.9843833"><ele>161.0</ele><time>2026-03-28T11:58:52.04Z</time></trkpt><trkpt lat="43.2872817" lon="10.98449"><ele>161.5</ele><time>2026-03-28T11:58:53.039Z</time></trkpt><trkpt lat="43.28726" lon="10.9846"><ele>162.0</ele><time>2026-03-28T11:58:54.04Z</time></trkpt><trkpt lat="43.287235" lon="10.9846983"><ele>162.5</ele><time>2026-03-28T11:58:55.04Z</time></trkpt><trkpt lat="43.2872217" lon="10.9847867"><ele>163.0</ele><time>2026-03-28T11:58:56.04Z</time></trkpt><trkpt lat="43.287195" lon="10.9849617"><ele>163.5</ele><time>2026-03-28T11:58:58.04Z</time></trkpt><trkpt lat="43.2871783" lon="10.9850617"><ele>164.0</ele><time>2026-03-28T11:58:59.04Z</time></trkpt><trkpt lat="43.287165" lon="10.9851583"><ele>164.0</ele><time>2026-03-28T11:59:00.04Z</time></trkpt><trkpt lat="43.2871417" lon="10.9853083"><ele>164.0</ele><time>2026-03-28T11:59:02.04Z</time></trkpt><trkpt lat="43.28711" lon="10.9854583"><ele>164.0</ele><time>2026-03-28T11:59:04.04Z</time></trkpt><trkpt lat="43.2870633" lon="10.9856083"><ele>164.0</ele><time>2026-03-28T11:59:06.04Z</time></trkpt><trkpt lat="43.2870317" lon="10.9857183"><ele>164.0</ele><time>2026-03-28T11:59:08.04Z</time></trkpt><trkpt lat="43.2870617" lon="10.98563"><ele>163.99999999999997</ele><time>2026-03-28T11:59:45.039Z</time></trkpt><trkpt lat="43.287085" lon="10.985505"><ele>164.0</ele><time>2026-03-28T11:59:47.04Z</time></trkpt><trkpt lat="43.28711" lon="10.9854217"><ele>164.0</ele><time>2026-03-28T11:59:48.04Z</time></trkpt><trkpt lat="43.2871367" lon="10.98533"><ele>164.0</ele><time>2026-03-28T11:59:49.04Z</time></trkpt><trkpt lat="43.2871567" lon="10.9852333"><ele>164.0</ele><time>2026-03-28T11:59:50.039Z</time></trkpt><trkpt lat="43.28717" lon="10.9851367"><ele>163.99999999999997</ele><time>2026-03-28T11:59:51.04Z</time></trkpt><trkpt lat="43.28718" lon="10.9850433"><ele>164.0</ele><time>2026-03-28T11:59:52.04Z</time></trkpt><trkpt lat="43.287195" lon="10.98494"><ele>164.0</ele><time>2026-03-28T11:59:53.04Z</time></trkpt><trkpt lat="43.2872133" lon="10.9848333"><ele>164.0</ele><time>2026-03-28T11:59:54.04Z</time></trkpt><trkpt lat="43.2872283" lon="10.9847183"><ele>164.0</ele><time>2026-03-28T11:59:55.04Z</time></trkpt><trkpt lat="43.2872417" lon="10.9846033"><ele>164.0</ele><time>2026-03-28T11:59:56.04Z</time></trkpt><trkpt lat="43.2872633" lon="10.9844917"><ele>164.0</ele><time>2026-03-28T11:59:57.04Z</time></trkpt><trkpt lat="43.2872767" lon="10.9843867"><ele>164.0</ele><time>2026-03-28T11:59:58.04Z</time></trkpt><trkpt lat="43.28729" lon="10.9842717"><ele>163.6</ele><time>2026-03-28T11:59:59.04Z</time></trkpt><trkpt lat="43.2872883" lon="10.9841533"><ele>163.2</ele><time>2026-03-28T12:00:00.04Z</time></trkpt><trkpt lat="43.2872817" lon="10.9840167"><ele>162.79999999999998</ele><time>2026-03-28T12:00:01.04Z</time></trkpt><trkpt lat="43.2872733" lon="10.983875"><ele>162.39999999999998</ele><time>2026-03-28T12:00:02.04Z</time></trkpt><trkpt lat="43.2872583" lon="10.983735"><ele>162.0</ele><time>2026-03-28T12:00:03.04Z</time></trkpt><trkpt lat="43.2872483" lon="10.9836067"><ele>162.0</ele><time>2026-03-28T12:00:04.04Z</time></trkpt><trkpt lat="43.28723" lon="10.9834983"><ele>162.0</ele><time>2026-03-28T12:00:05.039Z</time></trkpt><trkpt lat="43.2872" lon="10.9834117"><ele>162.0</ele><time>2026-03-28T12:00:06.04Z</time></trkpt><trkpt lat="43.2871567" lon="10.9833333"><ele>162.0</ele><time>2026-03-28T12:00:07.04Z</time></trkpt><trkpt lat="43.28711" lon="10.9832383"><ele>162.0</ele><time>2026-03-28T12:00:08.04Z</time></trkpt><trkpt lat="43.2870617" lon="10.9831367"><ele>162.0</ele><time>2026-03-28T12:00:09.04Z</time></trkpt><trkpt lat="43.2870267" lon="10.9830283"><ele>162.0</ele><time>2026-03-28T12:00:10.04Z</time></trkpt><trkpt lat="43.28701" lon="10.9829033"><ele>162.0</ele><time>2026-03-28T12:00:11.04Z</time></trkpt><trkpt lat="43.2870133" lon="10.9827667"><ele>162.0</ele><time>2026-03-28T12:00:12.04Z</time></trkpt><trkpt lat="43.2870183" lon="10.98262"><ele>162.0</ele><time>2026-03-28T12:00:13.039Z</time></trkpt><trkpt lat="43.2870267" lon="10.9824617"><ele>162.0</ele><time>2026-03-28T12:00:14.04Z</time></trkpt><trkpt lat="43.2870533" lon="10.9822917"><ele>163.75</ele><time>2026-03-28T12:00:15.04Z</time></trkpt><trkpt lat="43.287085" lon="10.982125"><ele>165.5</ele><time>2026-03-28T12:00:16.04Z</time></trkpt><trkpt lat="43.2871333" lon="10.9819617"><ele>167.25</ele><time>2026-03-28T12:00:17.04Z</time></trkpt><trkpt lat="43.2871883" lon="10.9818233"><ele>169.0</ele><time>2026-03-28T12:00:18.04Z</time></trkpt><trkpt lat="43.2872517" lon="10.9816733"><ele>167.75</ele><time>2026-03-28T12:00:19.039Z</time></trkpt><trkpt lat="43.28733" lon="10.9815317"><ele>166.5</ele><time>2026-03-28T12:00:20.04Z</time></trkpt><trkpt lat="43.2873983" lon="10.98139"><ele>165.25</ele><time>2026-03-28T12:00:21.04Z</time></trkpt><trkpt lat="43.28745" lon="10.9812467"><ele>164.0</ele><time>2026-03-28T12:00:22.04Z</time></trkpt><trkpt lat="43.2874883" lon="10.981135"><ele>164.0</ele><time>2026-03-28T12:00:23.04Z</time></trkpt><trkpt lat="43.2875217" lon="10.9810517"><ele>164.0</ele><time>2026-03-28T12:00:24.04Z</time></trkpt><trkpt lat="43.2875833" lon="10.9809567"><ele>164.0</ele><time>2026-03-28T12:00:26.04Z</time></trkpt><trkpt lat="43.2876767" lon="10.9808917"><ele>164.0</ele><time>2026-03-28T12:00:28.039Z</time></trkpt><trkpt lat="43.2877917" lon="10.9807833"><ele>164.0</ele><time>2026-03-28T12:00:30.04Z</time></trkpt><trkpt lat="43.287855" lon="10.9807017"><ele>164.79999999999998</ele><time>2026-03-28T12:00:31.04Z</time></trkpt><trkpt lat="43.2879133" lon="10.9806167"><ele>165.6</ele><time>2026-03-28T12:00:32.04Z</time></trkpt><trkpt lat="43.2879667" lon="10.9805433"><ele>166.4</ele><time>2026-03-28T12:00:33.04Z</time></trkpt><trkpt lat="43.2880367" lon="10.980415"><ele>167.2</ele><time>2026-03-28T12:00:35.04Z</time></trkpt><trkpt lat="43.2880533" lon="10.9802683"><ele>168.0</ele><time>2026-03-28T12:00:37.04Z</time></trkpt><trkpt lat="43.2880917" lon="10.9801217"><ele>167.4</ele><time>2026-03-28T12:00:39.04Z</time></trkpt><trkpt lat="43.2881317" lon="10.9800417"><ele>166.8</ele><time>2026-03-28T12:00:40.04Z</time></trkpt><trkpt lat="43.2881967" lon="10.9799617"><ele>166.2</ele><time>2026-03-28T12:00:41.04Z</time></trkpt><trkpt lat="43.2882767" lon="10.97988"><ele>165.6</ele><time>2026-03-28T12:00:42.04Z</time></trkpt><trkpt lat="43.288365" lon="10.97979"><ele>165.0</ele><time>2026-03-28T12:00:43.04Z</time></trkpt><trkpt lat="43.2884617" lon="10.9796867"><ele>165.0</ele><time>2026-03-28T12:00:44.04Z</time></trkpt><trkpt lat="43.2885633" lon="10.979575"><ele>165.0</ele><time>2026-03-28T12:00:45.04Z</time></trkpt><trkpt lat="43.2886567" lon="10.97946"><ele>165.0</ele><time>2026-03-28T12:00:46.04Z</time></trkpt><trkpt lat="43.2887483" lon="10.9793633"><ele>165.0</ele><time>2026-03-28T12:00:47.039Z</time></trkpt><trkpt lat="43.2888383" lon="10.9792933"><ele>165.0</ele><time>2026-03-28T12:00:48.04Z</time></trkpt><trkpt lat="43.2889233" lon="10.9792317"><ele>165.0</ele><time>2026-03-28T12:00:49.04Z</time></trkpt><trkpt lat="43.2889983" lon="10.9791683"><ele>165.0</ele><time>2026-03-28T12:00:50.04Z</time></trkpt><trkpt lat="43.2890517" lon="10.9791167"><ele>165.0</ele><time>2026-03-28T12:00:51.04Z</time></trkpt><trkpt lat="43.28905" lon="10.9789783"><ele>165.0</ele><time>2026-03-28T12:00:53.04Z</time></trkpt><trkpt lat="43.28896" lon="10.97886"><ele>166.16666666666666</ele><time>2026-03-28T12:00:55.039Z</time></trkpt><trkpt lat="43.2889" lon="10.9787783"><ele>167.33333333333334</ele><time>2026-03-28T12:00:56.04Z</time></trkpt><trkpt lat="43.2888417" lon="10.9787017"><ele>168.5</ele><time>2026-03-28T12:00:57.04Z</time></trkpt><trkpt lat="43.28877" lon="10.9786333"><ele>169.66666666666669</ele><time>2026-03-28T12:00:59.039Z</time></trkpt><trkpt lat="43.2886883" lon="10.978685"><ele>170.83333333333334</ele><time>2026-03-28T12:01:03.039Z</time></trkpt><trkpt lat="43.288625" lon="10.9787433"><ele>172.0</ele><time>2026-03-28T12:01:04.04Z</time></trkpt><trkpt lat="43.288555" lon="10.9788367"><ele>172.0</ele><time>2026-03-28T12:01:05.04Z</time></trkpt><trkpt lat="43.2884817" lon="10.9789767"><ele>172.0</ele><time>2026-03-28T12:01:06.04Z</time></trkpt><trkpt lat="43.2884" lon="10.9791217"><ele>172.0</ele><time>2026-03-28T12:01:07.039Z</time></trkpt><trkpt lat="43.288325" lon="10.97927"><ele>172.0</ele><time>2026-03-28T12:01:08.04Z</time></trkpt><trkpt lat="43.2882217" lon="10.9794133"><ele>172.66666666666669</ele><time>2026-03-28T12:01:09.04Z</time></trkpt><trkpt lat="43.2880933" lon="10.979555"><ele>173.33333333333334</ele><time>2026-03-28T12:01:10.04Z</time></trkpt><trkpt lat="43.28793" lon="10.9796883"><ele>174.0</ele><time>2026-03-28T12:01:11.04Z</time></trkpt><trkpt lat="43.28775" lon="10.9798283"><ele>174.0</ele><time>2026-03-28T12:01:12.04Z</time></trkpt><trkpt lat="43.2875733" lon="10.979975"><ele>174.0</ele><time>2026-03-28T12:01:13.04Z</time></trkpt><trkpt lat="43.2873833" lon="10.9801283"><ele>174.0</ele><time>2026-03-28T12:01:14.04Z</time></trkpt><trkpt lat="43.28718" lon="10.980295"><ele>178.5</ele><time>2026-03-28T12:01:15.04Z</time></trkpt><trkpt lat="43.286975" lon="10.9804633"><ele>183.0</ele><time>2026-03-28T12:01:16.04Z</time></trkpt><trkpt lat="43.286765" lon="10.9806367"><ele>183.0</ele><time>2026-03-28T12:01:17.04Z</time></trkpt><trkpt lat="43.2865617" lon="10.9808183"><ele>183.0</ele><time>2026-03-28T12:01:18.039Z</time></trkpt><trkpt lat="43.286375" lon="10.9810033"><ele>187.0</ele><time>2026-03-28T12:01:19.04Z</time></trkpt><trkpt lat="43.2861967" lon="10.9811833"><ele>191.0</ele><time>2026-03-28T12:01:20.04Z</time></trkpt><trkpt lat="43.2860117" lon="10.9813683"><ele>191.0</ele><time>2026-03-28T12:01:21.039Z</time></trkpt><trkpt lat="43.2858117" lon="10.9815617"><ele>191.0</ele><time>2026-03-28T12:01:22.04Z</time></trkpt><trkpt lat="43.285615" lon="10.9817533"><ele>190.0</ele><time>2026-03-28T12:01:23.04Z</time></trkpt><trkpt lat="43.2854217" lon="10.9819283"><ele>189.0</ele><time>2026-03-28T12:01:24.04Z</time></trkpt><trkpt lat="43.2852683" lon="10.982095"><ele>188.0</ele><time>2026-03-28T12:01:25.039Z</time></trkpt><trkpt lat="43.2851233" lon="10.982195"><ele>188.0</ele><time>2026-03-28T12:01:26.04Z</time></trkpt><trkpt lat="43.2849817" lon="10.9822367"><ele>188.0</ele><time>2026-03-28T12:01:27.04Z</time></trkpt><trkpt lat="43.2848417" lon="10.9821917"><ele>188.0</ele><time>2026-03-28T12:01:28.039Z</time></trkpt><trkpt lat="43.284695" lon="10.982085"><ele>187.33333333333331</ele><time>2026-03-28T12:01:29.04Z</time></trkpt><trkpt lat="43.28455" lon="10.9819567"><ele>186.66666666666666</ele><time>2026-03-28T12:01:30.04Z</time></trkpt><trkpt lat="43.2844233" lon="10.9817733"><ele>186.0</ele><time>2026-03-28T12:01:31.04Z</time></trkpt><trkpt lat="43.2842817" lon="10.981605"><ele>188.0</ele><time>2026-03-28T12:01:32.04Z</time></trkpt><trkpt lat="43.2841267" lon="10.9814517"><ele>190.0</ele><time>2026-03-28T12:01:33.039Z</time></trkpt><trkpt lat="43.28395" lon="10.9813283"><ele>192.0</ele><time>2026-03-28T12:01:34.039Z</time></trkpt><trkpt lat="43.28377" lon="10.9812383"><ele>192.0</ele><time>2026-03-28T12:01:35.04Z</time></trkpt><trkpt lat="43.2835767" lon="10.98118"><ele>192.0</ele><time>2026-03-28T12:01:36.04Z</time></trkpt><trkpt lat="43.2833767" lon="10.98114"><ele>192.0</ele><time>2026-03-28T12:01:37.04Z</time></trkpt><trkpt lat="43.283165" lon="10.981105"><ele>193.33333333333331</ele><time>2026-03-28T12:01:38.04Z</time></trkpt><trkpt lat="43.282955" lon="10.9810633"><ele>194.66666666666666</ele><time>2026-03-28T12:01:39.039Z</time></trkpt><trkpt lat="43.2827483" lon="10.9810083"><ele>196.0</ele><time>2026-03-28T12:01:40.039Z</time></trkpt><trkpt lat="43.2825417" lon="10.9809333"><ele>196.0</ele><time>2026-03-28T12:01:41.039Z</time></trkpt><trkpt lat="43.2823483" lon="10.9808633"><ele>196.0</ele><time>2026-03-28T12:01:42.04Z</time></trkpt><trkpt lat="43.282185" lon="10.9808017"><ele>196.0</ele><time>2026-03-28T12:01:43.04Z</time></trkpt><trkpt lat="43.2820383" lon="10.9807833"><ele>199.5</ele><time>2026-03-28T12:01:44.04Z</time></trkpt><trkpt lat="43.2818983" lon="10.9808433"><ele>203.0</ele><time>2026-03-28T12:01:45.04Z</time></trkpt><trkpt lat="43.2817883" lon="10.9809667"><ele>206.5</ele><time>2026-03-28T12:01:46.039Z</time></trkpt><trkpt lat="43.2817133" lon="10.9811333"><ele>210.0</ele><time>2026-03-28T12:01:47.04Z</time></trkpt><trkpt lat="43.2816683" lon="10.9813083"><ele>210.25</ele><time>2026-03-28T12:01:48.04Z</time></trkpt><trkpt lat="43.28166" lon="10.9814867"><ele>210.5</ele><time>2026-03-28T12:01:49.04Z</time></trkpt><trkpt lat="43.2816833" lon="10.98163"><ele>210.75</ele><time>2026-03-28T12:01:50.04Z</time></trkpt><trkpt lat="43.28174" lon="10.9818017"><ele>211.0</ele><time>2026-03-28T12:01:51.04Z</time></trkpt><trkpt lat="43.28179" lon="10.9819583"><ele>210.0</ele><time>2026-03-28T12:01:52.04Z</time></trkpt><trkpt lat="43.2818017" lon="10.982125"><ele>209.0</ele><time>2026-03-28T12:01:53.04Z</time></trkpt><trkpt lat="43.2817867" lon="10.98227"><ele>208.0</ele><time>2026-03-28T12:01:54.04Z</time></trkpt><trkpt lat="43.281725" lon="10.9823983"><ele>207.0</ele><time>2026-03-28T12:01:55.04Z</time></trkpt><trkpt lat="43.28164" lon="10.9824967"><ele>206.25</ele><time>2026-03-28T12:01:56.04Z</time></trkpt><trkpt lat="43.2815217" lon="10.9825483"><ele>205.5</ele><time>2026-03-28T12:01:57.04Z</time></trkpt><trkpt lat="43.2813983" lon="10.9825267"><ele>204.75</ele><time>2026-03-28T12:01:58.04Z</time></trkpt><trkpt lat="43.2812317" lon="10.982415"><ele>204.0</ele><time>2026-03-28T12:01:59.04Z</time></trkpt><trkpt lat="43.2810333" lon="10.9822567"><ele>204.0</ele><time>2026-03-28T12:02:00.04Z</time></trkpt><trkpt lat="43.28084" lon="10.9820933"><ele>204.0</ele><time>2026-03-28T12:02:01.039Z</time></trkpt><trkpt lat="43.2806467" lon="10.9819467"><ele>204.0</ele><time>2026-03-28T12:02:02.04Z</time></trkpt><trkpt lat="43.2804383" lon="10.9817917"><ele>206.66666666666669</ele><time>2026-03-28T12:02:03.04Z</time></trkpt><trkpt lat="43.280235" lon="10.98165"><ele>209.33333333333334</ele><time>2026-03-28T12:02:04.04Z</time></trkpt><trkpt lat="43.2800383" lon="10.981525"><ele>212.0</ele><time>2026-03-28T12:02:05.039Z</time></trkpt><trkpt lat="43.279855" lon="10.9814217"><ele>211.33333333333334</ele><time>2026-03-28T12:02:06.04Z</time></trkpt><trkpt lat="43.2796617" lon="10.9813467"><ele>210.66666666666669</ele><time>2026-03-28T12:02:07.04Z</time></trkpt><trkpt lat="43.2794767" lon="10.9813083"><ele>210.0</ele><time>2026-03-28T12:02:08.039Z</time></trkpt><trkpt lat="43.279305" lon="10.9813133"><ele>210.0</ele><time>2026-03-28T12:02:09.04Z</time></trkpt><trkpt lat="43.2791167" lon="10.9813583"><ele>210.0</ele><time>2026-03-28T12:02:10.04Z</time></trkpt><trkpt lat="43.27894" lon="10.9814233"><ele>210.0</ele><time>2026-03-28T12:02:11.04Z</time></trkpt><trkpt lat="43.278755" lon="10.9814733"><ele>211.33333333333331</ele><time>2026-03-28T12:02:12.04Z</time></trkpt><trkpt lat="43.2785633" lon="10.981505"><ele>212.66666666666666</ele><time>2026-03-28T12:02:13.04Z</time></trkpt><trkpt lat="43.2783617" lon="10.9815067"><ele>214.0</ele><time>2026-03-28T12:02:14.04Z</time></trkpt><trkpt lat="43.2781617" lon="10.9814517"><ele>213.0</ele><time>2026-03-28T12:02:15.039Z</time></trkpt><trkpt lat="43.2779483" lon="10.981395"><ele>212.0</ele><time>2026-03-28T12:02:16.04Z</time></trkpt><trkpt lat="43.2777417" lon="10.9813367"><ele>211.0</ele><time>2026-03-28T12:02:17.039Z</time></trkpt><trkpt lat="43.27755" lon="10.9813017"><ele>211.0</ele><time>2026-03-28T12:02:18.04Z</time></trkpt><trkpt lat="43.277375" lon="10.9812417"><ele>211.0</ele><time>2026-03-28T12:02:19.04Z</time></trkpt><trkpt lat="43.2772233" lon="10.98116"><ele>211.0</ele><time>2026-03-28T12:02:20.04Z</time></trkpt><trkpt lat="43.2771133" lon="10.9810433"><ele>211.0</ele><time>2026-03-28T12:02:21.039Z</time></trkpt><trkpt lat="43.2770483" lon="10.9808967"><ele>211.0</ele><time>2026-03-28T12:02:22.04Z</time></trkpt><trkpt lat="43.277025" lon="10.98073"><ele>211.0</ele><time>2026-03-28T12:02:23.04Z</time></trkpt><trkpt lat="43.2769767" lon="10.9805733"><ele>211.0</ele><time>2026-03-28T12:02:24.04Z</time></trkpt><trkpt lat="43.2768983" lon="10.980425"><ele>211.0</ele><time>2026-03-28T12:02:25.04Z</time></trkpt><trkpt lat="43.276775" lon="10.9803217"><ele>211.0</ele><time>2026-03-28T12:02:26.04Z</time></trkpt><trkpt lat="43.2766233" lon="10.98023"><ele>211.0</ele><time>2026-03-28T12:02:27.04Z</time></trkpt><trkpt lat="43.2764533" lon="10.980145"><ele>209.0</ele><time>2026-03-28T12:02:28.039Z</time></trkpt><trkpt lat="43.2762883" lon="10.9800533"><ele>207.0</ele><time>2026-03-28T12:02:29.04Z</time></trkpt><trkpt lat="43.2761217" lon="10.979965"><ele>205.0</ele><time>2026-03-28T12:02:30.04Z</time></trkpt><trkpt lat="43.275975" lon="10.9799"><ele>206.25</ele><time>2026-03-28T12:02:31.04Z</time></trkpt><trkpt lat="43.275835" lon="10.979885"><ele>207.5</ele><time>2026-03-28T12:02:32.04Z</time></trkpt><trkpt lat="43.2757" lon="10.9799333"><ele>208.75</ele><time>2026-03-28T12:02:33.04Z</time></trkpt><trkpt lat="43.2755817" lon="10.98006"><ele>210.0</ele><time>2026-03-28T12:02:34.04Z</time></trkpt><trkpt lat="43.2754767" lon="10.98026"><ele>210.0</ele><time>2026-03-28T12:02:35.04Z</time></trkpt><trkpt lat="43.2753667" lon="10.9805033"><ele>210.0</ele><time>2026-03-28T12:02:36.04Z</time></trkpt><trkpt lat="43.2752617" lon="10.9807317"><ele>210.0</ele><time>2026-03-28T12:02:37.039Z</time></trkpt><trkpt lat="43.2751533" lon="10.9809417"><ele>211.33333333333331</ele><time>2026-03-28T12:02:38.04Z</time></trkpt><trkpt lat="43.2750417" lon="10.981165"><ele>212.66666666666666</ele><time>2026-03-28T12:02:39.039Z</time></trkpt><trkpt lat="43.2749383" lon="10.9813483"><ele>214.0</ele><time>2026-03-28T12:02:40.04Z</time></trkpt><trkpt lat="43.2748283" lon="10.98154"><ele>218.0</ele><time>2026-03-28T12:02:41.04Z</time></trkpt><trkpt lat="43.2747317" lon="10.9816783"><ele>222.0</ele><time>2026-03-28T12:02:42.039Z</time></trkpt><trkpt lat="43.2746283" lon="10.9817417"><ele>226.0</ele><time>2026-03-28T12:02:43.04Z</time></trkpt><trkpt lat="43.2744867" lon="10.9817733"><ele>230.0</ele><time>2026-03-28T12:02:44.04Z</time></trkpt><trkpt lat="43.2743233" lon="10.9817483"><ele>230.0</ele><time>2026-03-28T12:02:45.04Z</time></trkpt><trkpt lat="43.274165" lon="10.981675"><ele>230.0</ele><time>2026-03-28T12:02:46.039Z</time></trkpt><trkpt lat="43.2740117" lon="10.98157"><ele>230.0</ele><time>2026-03-28T12:02:47.04Z</time></trkpt><trkpt lat="43.27387" lon="10.9814733"><ele>233.0</ele><time>2026-03-28T12:02:48.04Z</time></trkpt><trkpt lat="43.273755" lon="10.9813833"><ele>236.0</ele><time>2026-03-28T12:02:49.04Z</time></trkpt><trkpt lat="43.2736783" lon="10.9813"><ele>239.0</ele><time>2026-03-28T12:02:50.04Z</time></trkpt><trkpt lat="43.2736317" lon="10.9812033"><ele>242.0</ele><time>2026-03-28T12:02:51.04Z</time></trkpt><trkpt lat="43.2736383" lon="10.98109"><ele>245.0</ele><time>2026-03-28T12:02:52.04Z</time></trkpt><trkpt lat="43.273705" lon="10.9809883"><ele>245.0</ele><time>2026-03-28T12:02:53.039Z</time></trkpt><trkpt lat="43.27383" lon="10.9809233"><ele>245.0</ele><time>2026-03-28T12:02:54.039Z</time></trkpt><trkpt lat="43.2739283" lon="10.9808717"><ele>245.0</ele><time>2026-03-28T12:02:55.04Z</time></trkpt><trkpt lat="43.273985" lon="10.9807833"><ele>245.0</ele><time>2026-03-28T12:02:56.04Z</time></trkpt><trkpt lat="43.274" lon="10.9806867"><ele>245.0</ele><time>2026-03-28T12:02:57.04Z</time></trkpt><trkpt lat="43.2740026" lon="10.9805933"><ele>244.6</ele><time>2026-03-28T12:02:58.04Z</time></trkpt><trkpt lat="43.2739235" lon="10.9804909"><ele>244.2</ele><time>2026-03-28T12:03:00.039Z</time></trkpt><trkpt lat="43.2738426" lon="10.9805025"><ele>243.8</ele><time>2026-03-28T12:03:01.04Z</time></trkpt><trkpt lat="43.2737456" lon="10.9805382"><ele>243.4</ele><time>2026-03-28T12:03:02.04Z</time></trkpt><trkpt lat="43.2736271" lon="10.9805912"><ele>243.0</ele><time>2026-03-28T12:03:03.039Z</time></trkpt><trkpt lat="43.2734944" lon="10.980666"><ele>243.0</ele><time>2026-03-28T12:03:04.04Z</time></trkpt><trkpt lat="43.273347" lon="10.9807659"><ele>243.0</ele><time>2026-03-28T12:03:05.04Z</time></trkpt><trkpt lat="43.273184" lon="10.9809112"><ele>243.0</ele><time>2026-03-28T12:03:06.04Z</time></trkpt><trkpt lat="43.2730283" lon="10.9810823"><ele>246.5</ele><time>2026-03-28T12:03:07.04Z</time></trkpt><trkpt lat="43.2729212" lon="10.9812509"><ele>250.0</ele><time>2026-03-28T12:03:08.04Z</time></trkpt><trkpt lat="43.27287" lon="10.9814152"><ele>253.5</ele><time>2026-03-28T12:03:09.04Z</time></trkpt><trkpt lat="43.2728626" lon="10.9815848"><ele>257.0</ele><time>2026-03-28T12:03:10.04Z</time></trkpt><trkpt lat="43.272907" lon="10.981735"><ele>258.25</ele><time>2026-03-28T12:03:11.04Z</time></trkpt><trkpt lat="43.272982" lon="10.9818512"><ele>259.5</ele><time>2026-03-28T12:03:12.04Z</time></trkpt><trkpt lat="43.2730999" lon="10.9819374"><ele>260.75</ele><time>2026-03-28T12:03:13.04Z</time></trkpt><trkpt lat="43.2732458" lon="10.9820086"><ele>262.0</ele><time>2026-03-28T12:03:14.039Z</time></trkpt><trkpt lat="43.273362" lon="10.9820907"><ele>260.3333333333333</ele><time>2026-03-28T12:03:15.039Z</time></trkpt><trkpt lat="43.2734461" lon="10.9821693"><ele>258.66666666666663</ele><time>2026-03-28T12:03:16.039Z</time></trkpt><trkpt lat="43.2735002" lon="10.9822491"><ele>257.0</ele><time>2026-03-28T12:03:17.039Z</time></trkpt><trkpt lat="43.2734787" lon="10.9823817"><ele>255.33333333333331</ele><time>2026-03-28T12:03:19.039Z</time></trkpt><trkpt lat="43.2734135" lon="10.9823967"><ele>253.66666666666666</ele><time>2026-03-28T12:03:20.039Z</time></trkpt><trkpt lat="43.2733201" lon="10.9823487"><ele>252.0</ele><time>2026-03-28T12:03:21.039Z</time></trkpt><trkpt lat="43.2731774" lon="10.9822502"><ele>255.33333333333331</ele><time>2026-03-28T12:03:22.039Z</time></trkpt><trkpt lat="43.2730042" lon="10.9821574"><ele>258.66666666666663</ele><time>2026-03-28T12:03:23.039Z</time></trkpt><trkpt lat="43.2728116" lon="10.9820926"><ele>262.0</ele><time>2026-03-28T12:03:24.039Z</time></trkpt><trkpt lat="43.272626" lon="10.9820567"><ele>262.0</ele><time>2026-03-28T12:03:25.039Z</time></trkpt><trkpt lat="43.2724331" lon="10.9820366"><ele>262.0</ele><time>2026-03-28T12:03:26.039Z</time></trkpt><trkpt lat="43.2722342" lon="10.9820079"><ele>262.0</ele><time>2026-03-28T12:03:27.039Z</time></trkpt><trkpt lat="43.2720633" lon="10.9819862"><ele>264.25</ele><time>2026-03-28T12:03:28.039Z</time></trkpt><trkpt lat="43.2719135" lon="10.9819848"><ele>266.5</ele><time>2026-03-28T12:03:29.039Z</time></trkpt><trkpt lat="43.2717881" lon="10.9820276"><ele>268.75</ele><time>2026-03-28T12:03:30.039Z</time></trkpt><trkpt lat="43.271715" lon="10.9821617"><ele>271.0</ele><time>2026-03-28T12:03:31.039Z</time></trkpt><trkpt lat="43.27166" lon="10.9823133"><ele>271.0</ele><time>2026-03-28T12:03:32.039Z</time></trkpt><trkpt lat="43.27166" lon="10.982505"><ele>271.0</ele><time>2026-03-28T12:03:33.039Z</time></trkpt><trkpt lat="43.2716983" lon="10.982705"><ele>271.0</ele><time>2026-03-28T12:03:34.039Z</time></trkpt><trkpt lat="43.2717067" lon="10.9828867"><ele>271.0</ele><time>2026-03-28T12:03:35.039Z</time></trkpt><trkpt lat="43.2716883" lon="10.9830317"><ele>271.25</ele><time>2026-03-28T12:03:36.039Z</time></trkpt><trkpt lat="43.27164" lon="10.9831617"><ele>271.5</ele><time>2026-03-28T12:03:37.039Z</time></trkpt><trkpt lat="43.2715717" lon="10.983295"><ele>271.75</ele><time>2026-03-28T12:03:38.039Z</time></trkpt><trkpt lat="43.2714617" lon="10.98342"><ele>272.0</ele><time>2026-03-28T12:03:39.039Z</time></trkpt><trkpt lat="43.2713333" lon="10.9835517"><ele>272.0</ele><time>2026-03-28T12:03:40.039Z</time></trkpt><trkpt lat="43.271205" lon="10.98367"><ele>272.0</ele><time>2026-03-28T12:03:41.039Z</time></trkpt><trkpt lat="43.271075" lon="10.983785"><ele>272.0</ele><time>2026-03-28T12:03:42.039Z</time></trkpt><trkpt lat="43.2709467" lon="10.9838867"><ele>272.0</ele><time>2026-03-28T12:03:43.039Z</time></trkpt><trkpt lat="43.27083" lon="10.98394"><ele>272.0</ele><time>2026-03-28T12:03:44.039Z</time></trkpt><trkpt lat="43.270725" lon="10.9839517"><ele>272.0</ele><time>2026-03-28T12:03:45.039Z</time></trkpt><trkpt lat="43.270645" lon="10.9839"><ele>272.0</ele><time>2026-03-28T12:03:46.039Z</time></trkpt><trkpt lat="43.27058" lon="10.9838233"><ele>272.0</ele><time>2026-03-28T12:03:47.038Z</time></trkpt><trkpt lat="43.2705433" lon="10.9837183"><ele>272.5</ele><time>2026-03-28T12:03:48.039Z</time></trkpt><trkpt lat="43.27052" lon="10.9835933"><ele>273.0</ele><time>2026-03-28T12:03:49.038Z</time></trkpt><trkpt lat="43.27055" lon="10.983425"><ele>273.5</ele><time>2026-03-28T12:03:50.038Z</time></trkpt><trkpt lat="43.2706" lon="10.983255"><ele>274.0</ele><time>2026-03-28T12:03:51.039Z</time></trkpt><trkpt lat="43.2706533" lon="10.9830817"><ele>275.75</ele><time>2026-03-28T12:03:52.039Z</time></trkpt><trkpt lat="43.270715" lon="10.9828967"><ele>277.5</ele><time>2026-03-28T12:03:53.039Z</time></trkpt><trkpt lat="43.2707683" lon="10.9827033"><ele>279.25</ele><time>2026-03-28T12:03:54.039Z</time></trkpt><trkpt lat="43.2708183" lon="10.98251"><ele>281.0</ele><time>2026-03-28T12:03:55.039Z</time></trkpt><trkpt lat="43.2708517" lon="10.9823033"><ele>282.0</ele><time>2026-03-28T12:03:56.038Z</time></trkpt><trkpt lat="43.270865" lon="10.9821167"><ele>283.0</ele><time>2026-03-28T12:03:57.039Z</time></trkpt><trkpt lat="43.2708417" lon="10.9819383"><ele>284.0</ele><time>2026-03-28T12:03:58.039Z</time></trkpt><trkpt lat="43.270765" lon="10.9817667"><ele>285.0</ele><time>2026-03-28T12:03:59.039Z</time></trkpt><trkpt lat="43.2706633" lon="10.9816"><ele>288.3333333333333</ele><time>2026-03-28T12:04:00.039Z</time></trkpt><trkpt lat="43.2705467" lon="10.9814117"><ele>291.66666666666663</ele><time>2026-03-28T12:04:01.039Z</time></trkpt><trkpt lat="43.2704167" lon="10.9812267"><ele>295.0</ele><time>2026-03-28T12:04:02.039Z</time></trkpt><trkpt lat="43.2702733" lon="10.9810583"><ele>295.0</ele><time>2026-03-28T12:04:03.039Z</time></trkpt><trkpt lat="43.27012" lon="10.9808883"><ele>295.0</ele><time>2026-03-28T12:04:04.039Z</time></trkpt><trkpt lat="43.2699633" lon="10.9807367"><ele>295.0</ele><time>2026-03-28T12:04:05.039Z</time></trkpt><trkpt lat="43.2698117" lon="10.980595"><ele>304.3333333333333</ele><time>2026-03-28T12:04:06.039Z</time></trkpt><trkpt lat="43.26968" lon="10.9804567"><ele>313.6666666666667</ele><time>2026-03-28T12:04:07.038Z</time></trkpt><trkpt lat="43.2695767" lon="10.9802817"><ele>323.0</ele><time>2026-03-28T12:04:08.039Z</time></trkpt><trkpt lat="43.269495" lon="10.98008"><ele>321.0</ele><time>2026-03-28T12:04:09.038Z</time></trkpt><trkpt lat="43.26942" lon="10.9798683"><ele>319.0</ele><time>2026-03-28T12:04:10.039Z</time></trkpt><trkpt lat="43.2693933" lon="10.9796467"><ele>317.0</ele><time>2026-03-28T12:04:11.039Z</time></trkpt><trkpt lat="43.2693917" lon="10.979415"><ele>317.0</ele><time>2026-03-28T12:04:12.039Z</time></trkpt><trkpt lat="43.269415" lon="10.9792117"><ele>317.0</ele><time>2026-03-28T12:04:13.039Z</time></trkpt><trkpt lat="43.269465" lon="10.979"><ele>317.0</ele><time>2026-03-28T12:04:14.039Z</time></trkpt><trkpt lat="43.269535" lon="10.9787833"><ele>318.0</ele><time>2026-03-28T12:04:15.039Z</time></trkpt><trkpt lat="43.269605" lon="10.97857"><ele>319.0</ele><time>2026-03-28T12:04:16.039Z</time></trkpt><trkpt lat="43.269645" lon="10.978365"><ele>320.0</ele><time>2026-03-28T12:04:17.038Z</time></trkpt><trkpt lat="43.2696583" lon="10.9781433"><ele>320.0</ele><time>2026-03-28T12:04:18.038Z</time></trkpt><trkpt lat="43.269615" lon="10.9779267"><ele>320.0</ele><time>2026-03-28T12:04:19.039Z</time></trkpt><trkpt lat="43.2695383" lon="10.977725"><ele>320.0</ele><time>2026-03-28T12:04:20.038Z</time></trkpt><trkpt lat="43.2694317" lon="10.977535"><ele>319.33333333333337</ele><time>2026-03-28T12:04:21.039Z</time></trkpt><trkpt lat="43.2693067" lon="10.9773567"><ele>318.6666666666667</ele><time>2026-03-28T12:04:22.039Z</time></trkpt><trkpt lat="43.269175" lon="10.9771733"><ele>318.0</ele><time>2026-03-28T12:04:23.039Z</time></trkpt><trkpt lat="43.2690433" lon="10.9769883"><ele>320.0</ele><time>2026-03-28T12:04:24.039Z</time></trkpt><trkpt lat="43.26891" lon="10.9768"><ele>322.0</ele><time>2026-03-28T12:04:25.038Z</time></trkpt><trkpt lat="43.2687883" lon="10.97661"><ele>324.0</ele><time>2026-03-28T12:04:26.039Z</time></trkpt><trkpt lat="43.2686767" lon="10.9764267"><ele>324.0</ele><time>2026-03-28T12:04:27.039Z</time></trkpt><trkpt lat="43.26859" lon="10.9762567"><ele>324.0</ele><time>2026-03-28T12:04:28.039Z</time></trkpt><trkpt lat="43.2685367" lon="10.976085"><ele>324.0</ele><time>2026-03-28T12:04:29.038Z</time></trkpt><trkpt lat="43.26851" lon="10.9758817"><ele>324.0</ele><time>2026-03-28T12:04:30.039Z</time></trkpt><trkpt lat="43.26852" lon="10.9756583"><ele>324.3333333333333</ele><time>2026-03-28T12:04:31.039Z</time></trkpt><trkpt lat="43.2685633" lon="10.9754067"><ele>324.66666666666663</ele><time>2026-03-28T12:04:32.039Z</time></trkpt><trkpt lat="43.2686233" lon="10.9751617"><ele>325.0</ele><time>2026-03-28T12:04:33.039Z</time></trkpt><trkpt lat="43.2686833" lon="10.9749267"><ele>325.0</ele><time>2026-03-28T12:04:34.039Z</time></trkpt><trkpt lat="43.26872" lon="10.9746867"><ele>325.0</ele><time>2026-03-28T12:04:35.038Z</time></trkpt><trkpt lat="43.268735" lon="10.97446"><ele>325.0</ele><time>2026-03-28T12:04:36.039Z</time></trkpt><trkpt lat="43.2687167" lon="10.97424"><ele>324.0</ele><time>2026-03-28T12:04:37.039Z</time></trkpt><trkpt lat="43.2686783" lon="10.9740367"><ele>323.0</ele><time>2026-03-28T12:04:38.039Z</time></trkpt><trkpt lat="43.2685917" lon="10.9738233"><ele>322.0</ele><time>2026-03-28T12:04:39.039Z</time></trkpt><trkpt lat="43.2684683" lon="10.9736383"><ele>322.0</ele><time>2026-03-28T12:04:40.039Z</time></trkpt><trkpt lat="43.2683183" lon="10.9734967"><ele>322.0</ele><time>2026-03-28T12:04:41.039Z</time></trkpt><trkpt lat="43.2681417" lon="10.9733667"><ele>322.0</ele><time>2026-03-28T12:04:42.039Z</time></trkpt><trkpt lat="43.2679567" lon="10.9732383"><ele>322.66666666666663</ele><time>2026-03-28T12:04:43.039Z</time></trkpt><trkpt lat="43.2677617" lon="10.9731283"><ele>323.3333333333333</ele><time>2026-03-28T12:04:44.039Z</time></trkpt><trkpt lat="43.2675733" lon="10.9730483"><ele>324.0</ele><time>2026-03-28T12:04:45.039Z</time></trkpt><trkpt lat="43.2673983" lon="10.9730067"><ele>324.3333333333333</ele><time>2026-03-28T12:04:46.039Z</time></trkpt><trkpt lat="43.2672133" lon="10.9730017"><ele>324.66666666666663</ele><time>2026-03-28T12:04:47.039Z</time></trkpt><trkpt lat="43.2670367" lon="10.9729983"><ele>325.0</ele><time>2026-03-28T12:04:48.038Z</time></trkpt><trkpt lat="43.2668717" lon="10.972965"><ele>325.0</ele><time>2026-03-28T12:04:49.039Z</time></trkpt><trkpt lat="43.2667083" lon="10.97288"><ele>325.0</ele><time>2026-03-28T12:04:50.038Z</time></trkpt><trkpt lat="43.2665617" lon="10.9727417"><ele>325.0</ele><time>2026-03-28T12:04:51.039Z</time></trkpt><trkpt lat="43.2664433" lon="10.9725567"><ele>327.3333333333333</ele><time>2026-03-28T12:04:52.039Z</time></trkpt><trkpt lat="43.2663483" lon="10.9723333"><ele>329.6666666666667</ele><time>2026-03-28T12:04:53.039Z</time></trkpt><trkpt lat="43.266285" lon="10.9720983"><ele>332.0</ele><time>2026-03-28T12:04:54.039Z</time></trkpt><trkpt lat="43.26628" lon="10.9718617"><ele>331.6666666666667</ele><time>2026-03-28T12:04:55.038Z</time></trkpt><trkpt lat="43.2662833" lon="10.9716133"><ele>331.3333333333333</ele><time>2026-03-28T12:04:56.039Z</time></trkpt><trkpt lat="43.2662633" lon="10.9713833"><ele>331.0</ele><time>2026-03-28T12:04:57.039Z</time></trkpt><trkpt lat="43.2662083" lon="10.9711733"><ele>331.0</ele><time>2026-03-28T12:04:58.038Z</time></trkpt><trkpt lat="43.2661267" lon="10.9709517"><ele>331.0</ele><time>2026-03-28T12:04:59.039Z</time></trkpt><trkpt lat="43.2660067" lon="10.9707833"><ele>331.0</ele><time>2026-03-28T12:05:00.039Z</time></trkpt><trkpt lat="43.2658633" lon="10.9706117"><ele>331.66666666666663</ele><time>2026-03-28T12:05:01.039Z</time></trkpt><trkpt lat="43.2657267" lon="10.9704483"><ele>332.3333333333333</ele><time>2026-03-28T12:05:02.039Z</time></trkpt><trkpt lat="43.2655867" lon="10.9702833"><ele>333.0</ele><time>2026-03-28T12:05:03.039Z</time></trkpt><trkpt lat="43.2654467" lon="10.9701383"><ele>333.0</ele><time>2026-03-28T12:05:04.039Z</time></trkpt><trkpt lat="43.265295" lon="10.9700333"><ele>333.0</ele><time>2026-03-28T12:05:05.039Z</time></trkpt><trkpt lat="43.265095" lon="10.9699717"><ele>333.0</ele><time>2026-03-28T12:05:06.039Z</time></trkpt><trkpt lat="43.2648783" lon="10.96995"><ele>329.6666666666667</ele><time>2026-03-28T12:05:07.039Z</time></trkpt><trkpt lat="43.2646617" lon="10.9699333"><ele>326.33333333333337</ele><time>2026-03-28T12:05:08.039Z</time></trkpt><trkpt lat="43.2644483" lon="10.9699117"><ele>323.0</ele><time>2026-03-28T12:05:09.039Z</time></trkpt><trkpt lat="43.2642333" lon="10.96988"><ele>323.0</ele><time>2026-03-28T12:05:10.039Z</time></trkpt><trkpt lat="43.2640417" lon="10.969845"><ele>323.0</ele><time>2026-03-28T12:05:11.039Z</time></trkpt><trkpt lat="43.2638767" lon="10.9697833"><ele>323.0</ele><time>2026-03-28T12:05:12.039Z</time></trkpt><trkpt lat="43.2637533" lon="10.96969"><ele>323.25</ele><time>2026-03-28T12:05:13.039Z</time></trkpt><trkpt lat="43.2636767" lon="10.9695383"><ele>323.5</ele><time>2026-03-28T12:05:14.039Z</time></trkpt><trkpt lat="43.2636133" lon="10.969365"><ele>323.75</ele><time>2026-03-28T12:05:15.038Z</time></trkpt><trkpt lat="43.2635467" lon="10.9691617"><ele>324.0</ele><time>2026-03-28T12:05:16.039Z</time></trkpt><trkpt lat="43.26347" lon="10.9689467"><ele>324.0</ele><time>2026-03-28T12:05:17.038Z</time></trkpt><trkpt lat="43.2633717" lon="10.96873"><ele>324.0</ele><time>2026-03-28T12:05:18.038Z</time></trkpt><trkpt lat="43.2632733" lon="10.9685117"><ele>324.0</ele><time>2026-03-28T12:05:19.038Z</time></trkpt><trkpt lat="43.2631617" lon="10.9683067"><ele>325.3333333333333</ele><time>2026-03-28T12:05:20.039Z</time></trkpt><trkpt lat="43.2630133" lon="10.9681267"><ele>326.66666666666663</ele><time>2026-03-28T12:05:21.038Z</time></trkpt><trkpt lat="43.262845" lon="10.9679583"><ele>328.0</ele><time>2026-03-28T12:05:22.039Z</time></trkpt><trkpt lat="43.2626917" lon="10.9677833"><ele>328.0</ele><time>2026-03-28T12:05:23.039Z</time></trkpt><trkpt lat="43.2625333" lon="10.9675883"><ele>328.0</ele><time>2026-03-28T12:05:24.039Z</time></trkpt><trkpt lat="43.2623717" lon="10.9674083"><ele>328.0</ele><time>2026-03-28T12:05:25.039Z</time></trkpt><trkpt lat="43.2622383" lon="10.9672233"><ele>328.66666666666663</ele><time>2026-03-28T12:05:26.039Z</time></trkpt><trkpt lat="43.262135" lon="10.9670367"><ele>329.3333333333333</ele><time>2026-03-28T12:05:27.039Z</time></trkpt><trkpt lat="43.262085" lon="10.966835"><ele>330.0</ele><time>2026-03-28T12:05:28.039Z</time></trkpt><trkpt lat="43.2620883" lon="10.9666217"><ele>330.0</ele><time>2026-03-28T12:05:29.039Z</time></trkpt><trkpt lat="43.262155" lon="10.9664033"><ele>330.0</ele><time>2026-03-28T12:05:30.039Z</time></trkpt><trkpt lat="43.2622467" lon="10.9661817"><ele>330.0</ele><time>2026-03-28T12:05:31.039Z</time></trkpt><trkpt lat="43.2623433" lon="10.965945"><ele>335.6666666666667</ele><time>2026-03-28T12:05:32.039Z</time></trkpt><trkpt lat="43.2624417" lon="10.965705"><ele>341.33333333333337</ele><time>2026-03-28T12:05:33.039Z</time></trkpt><trkpt lat="43.2625267" lon="10.9654817"><ele>347.0</ele><time>2026-03-28T12:05:34.039Z</time></trkpt><trkpt lat="43.26258" lon="10.965255"><ele>347.0</ele><time>2026-03-28T12:05:35.039Z</time></trkpt><trkpt lat="43.262615" lon="10.9650517"><ele>347.0</ele><time>2026-03-28T12:05:36.038Z</time></trkpt><trkpt lat="43.26261" lon="10.9648533"><ele>347.0</ele><time>2026-03-28T12:05:37.038Z</time></trkpt><trkpt lat="43.2625783" lon="10.9646633"><ele>347.0</ele><time>2026-03-28T12:05:38.039Z</time></trkpt><trkpt lat="43.2624933" lon="10.9644833"><ele>346.6666666666667</ele><time>2026-03-28T12:05:39.039Z</time></trkpt><trkpt lat="43.2623817" lon="10.9643067"><ele>346.3333333333333</ele><time>2026-03-28T12:05:40.039Z</time></trkpt><trkpt lat="43.2622867" lon="10.964105"><ele>346.0</ele><time>2026-03-28T12:05:41.038Z</time></trkpt><trkpt lat="43.2622317" lon="10.9639017"><ele>346.0</ele><time>2026-03-28T12:05:42.038Z</time></trkpt><trkpt lat="43.26223" lon="10.9636833"><ele>346.0</ele><time>2026-03-28T12:05:43.039Z</time></trkpt><trkpt lat="43.262255" lon="10.9634483"><ele>346.0</ele><time>2026-03-28T12:05:44.039Z</time></trkpt><trkpt lat="43.2622867" lon="10.96321"><ele>351.3333333333333</ele><time>2026-03-28T12:05:45.038Z</time></trkpt><trkpt lat="43.26234" lon="10.9629683"><ele>356.6666666666667</ele><time>2026-03-28T12:05:46.039Z</time></trkpt><trkpt lat="43.26239" lon="10.9627517"><ele>362.0</ele><time>2026-03-28T12:05:47.038Z</time></trkpt><trkpt lat="43.2624" lon="10.9625667"><ele>362.0</ele><time>2026-03-28T12:05:48.039Z</time></trkpt><trkpt lat="43.2623767" lon="10.9624067"><ele>362.0</ele><time>2026-03-28T12:05:49.039Z</time></trkpt><trkpt lat="43.2622983" lon="10.96226"><ele>362.0</ele><time>2026-03-28T12:05:50.038Z</time></trkpt><trkpt lat="43.2621767" lon="10.962145"><ele>362.0</ele><time>2026-03-28T12:05:51.039Z</time></trkpt><trkpt lat="43.2620367" lon="10.9620883"><ele>362.0</ele><time>2026-03-28T12:05:52.039Z</time></trkpt><trkpt lat="43.2618783" lon="10.9620683"><ele>362.0</ele><time>2026-03-28T12:05:53.039Z</time></trkpt><trkpt lat="43.2617183" lon="10.962045"><ele>362.0</ele><time>2026-03-28T12:05:54.038Z</time></trkpt><trkpt lat="43.26159" lon="10.96198"><ele>362.0</ele><time>2026-03-28T12:05:55.039Z</time></trkpt><trkpt lat="43.2614833" lon="10.9618767"><ele>362.0</ele><time>2026-03-28T12:05:56.038Z</time></trkpt><trkpt lat="43.2614217" lon="10.96171"><ele>362.0</ele><time>2026-03-28T12:05:57.039Z</time></trkpt><trkpt lat="43.261395" lon="10.9614983"><ele>362.0</ele><time>2026-03-28T12:05:58.038Z</time></trkpt><trkpt lat="43.2613767" lon="10.961265"><ele>361.0</ele><time>2026-03-28T12:05:59.039Z</time></trkpt><trkpt lat="43.2613533" lon="10.961025"><ele>360.0</ele><time>2026-03-28T12:06:00.039Z</time></trkpt><trkpt lat="43.26131" lon="10.960795"><ele>359.0</ele><time>2026-03-28T12:06:01.039Z</time></trkpt><trkpt lat="43.2612467" lon="10.96057"><ele>362.0</ele><time>2026-03-28T12:06:02.039Z</time></trkpt><trkpt lat="43.26115" lon="10.9603783"><ele>365.0</ele><time>2026-03-28T12:06:03.039Z</time></trkpt><trkpt lat="43.2610183" lon="10.96022"><ele>368.0</ele><time>2026-03-28T12:06:04.039Z</time></trkpt><trkpt lat="43.2608617" lon="10.960085"><ele>368.6666666666667</ele><time>2026-03-28T12:06:05.039Z</time></trkpt><trkpt lat="43.2607167" lon="10.959945"><ele>369.3333333333333</ele><time>2026-03-28T12:06:06.039Z</time></trkpt><trkpt lat="43.2605783" lon="10.9597717"><ele>370.0</ele><time>2026-03-28T12:06:07.039Z</time></trkpt><trkpt lat="43.2604383" lon="10.959605"><ele>370.0</ele><time>2026-03-28T12:06:08.039Z</time></trkpt><trkpt lat="43.2602867" lon="10.959425"><ele>370.0</ele><time>2026-03-28T12:06:09.039Z</time></trkpt><trkpt lat="43.260155" lon="10.9592267"><ele>370.0</ele><time>2026-03-28T12:06:10.039Z</time></trkpt><trkpt lat="43.2600217" lon="10.95904"><ele>372.66666666666663</ele><time>2026-03-28T12:06:11.039Z</time></trkpt><trkpt lat="43.259905" lon="10.958845"><ele>375.3333333333333</ele><time>2026-03-28T12:06:12.039Z</time></trkpt><trkpt lat="43.2598017" lon="10.9586383"><ele>378.0</ele><time>2026-03-28T12:06:13.039Z</time></trkpt><trkpt lat="43.25971" lon="10.9584117"><ele>381.33333333333337</ele><time>2026-03-28T12:06:14.039Z</time></trkpt><trkpt lat="43.2596567" lon="10.958175"><ele>384.6666666666667</ele><time>2026-03-28T12:06:15.039Z</time></trkpt><trkpt lat="43.2596133" lon="10.9579283"><ele>388.0</ele><time>2026-03-28T12:06:16.039Z</time></trkpt><trkpt lat="43.2595817" lon="10.9576767"><ele>389.6666666666667</ele><time>2026-03-28T12:06:17.039Z</time></trkpt><trkpt lat="43.2595567" lon="10.9574333"><ele>391.33333333333337</ele><time>2026-03-28T12:06:18.039Z</time></trkpt><trkpt lat="43.25953" lon="10.9571967"><ele>393.0</ele><time>2026-03-28T12:06:19.039Z</time></trkpt><trkpt lat="43.2595067" lon="10.9569717"><ele>393.0</ele><time>2026-03-28T12:06:20.039Z</time></trkpt><trkpt lat="43.2594967" lon="10.956765"><ele>393.0</ele><time>2026-03-28T12:06:21.039Z</time></trkpt><trkpt lat="43.2594767" lon="10.956565"><ele>393.0</ele><time>2026-03-28T12:06:22.038Z</time></trkpt><trkpt lat="43.2594567" lon="10.95637"><ele>393.0</ele><time>2026-03-28T12:06:23.039Z</time></trkpt><trkpt lat="43.2594467" lon="10.9562267"><ele>393.3333333333333</ele><time>2026-03-28T12:06:24.039Z</time></trkpt><trkpt lat="43.2594567" lon="10.9561267"><ele>393.66666666666663</ele><time>2026-03-28T12:06:25.039Z</time></trkpt><trkpt lat="43.2594933" lon="10.9560033"><ele>394.0</ele><time>2026-03-28T12:06:27.038Z</time></trkpt><trkpt lat="43.25958" lon="10.9559283"><ele>394.3333333333333</ele><time>2026-03-28T12:06:30.039Z</time></trkpt><trkpt lat="43.259635" lon="10.9558833"><ele>394.66666666666663</ele><time>2026-03-28T12:06:31.039Z</time></trkpt><trkpt lat="43.259685" lon="10.9558233"><ele>395.0</ele><time>2026-03-28T12:06:32.039Z</time></trkpt><trkpt lat="43.2597167" lon="10.9557317"><ele>396.2</ele><time>2026-03-28T12:06:33.038Z</time></trkpt><trkpt lat="43.2597283" lon="10.9556167"><ele>397.4</ele><time>2026-03-28T12:06:34.038Z</time></trkpt><trkpt lat="43.2597217" lon="10.9554867"><ele>398.6</ele><time>2026-03-28T12:06:35.039Z</time></trkpt><trkpt lat="43.259715" lon="10.9553317"><ele>399.8</ele><time>2026-03-28T12:06:36.039Z</time></trkpt><trkpt lat="43.2596883" lon="10.9551283"><ele>401.0</ele><time>2026-03-28T12:06:37.039Z</time></trkpt><trkpt lat="43.25966" lon="10.954895"><ele>401.0</ele><time>2026-03-28T12:06:38.039Z</time></trkpt><trkpt lat="43.2596483" lon="10.954645"><ele>401.0</ele><time>2026-03-28T12:06:39.038Z</time></trkpt><trkpt lat="43.2596217" lon="10.9544117"><ele>401.0</ele><time>2026-03-28T12:06:40.039Z</time></trkpt><trkpt lat="43.2596067" lon="10.954175"><ele>400.66666666666663</ele><time>2026-03-28T12:06:41.039Z</time></trkpt><trkpt lat="43.259585" lon="10.95395"><ele>400.33333333333337</ele><time>2026-03-28T12:06:42.039Z</time></trkpt><trkpt lat="43.2595633" lon="10.9537333"><ele>400.0</ele><time>2026-03-28T12:06:43.039Z</time></trkpt><trkpt lat="43.25955" lon="10.9535183"><ele>399.33333333333337</ele><time>2026-03-28T12:06:44.038Z</time></trkpt><trkpt lat="43.2595617" lon="10.953315"><ele>398.66666666666663</ele><time>2026-03-28T12:06:45.039Z</time></trkpt><trkpt lat="43.2596017" lon="10.95311"><ele>398.0</ele><time>2026-03-28T12:06:46.038Z</time></trkpt><trkpt lat="43.25966" lon="10.9528983"><ele>398.0</ele><time>2026-03-28T12:06:47.039Z</time></trkpt><trkpt lat="43.259735" lon="10.95267"><ele>398.0</ele><time>2026-03-28T12:06:48.039Z</time></trkpt><trkpt lat="43.2598133" lon="10.952435"><ele>398.0</ele><time>2026-03-28T12:06:49.039Z</time></trkpt><trkpt lat="43.2599033" lon="10.9521867"><ele>391.3333333333333</ele><time>2026-03-28T12:06:50.039Z</time></trkpt><trkpt lat="43.2599783" lon="10.9519517"><ele>384.66666666666663</ele><time>2026-03-28T12:06:51.039Z</time></trkpt><trkpt lat="43.2600583" lon="10.9517167"><ele>378.0</ele><time>2026-03-28T12:06:52.039Z</time></trkpt><trkpt lat="43.26011" lon="10.9515"><ele>378.0</ele><time>2026-03-28T12:06:53.039Z</time></trkpt><trkpt lat="43.2601183" lon="10.9513067"><ele>378.0</ele><time>2026-03-28T12:06:54.039Z</time></trkpt><trkpt lat="43.260095" lon="10.9511183"><ele>378.0</ele><time>2026-03-28T12:06:55.039Z</time></trkpt><trkpt lat="43.26005" lon="10.9509083"><ele>378.0</ele><time>2026-03-28T12:06:56.039Z</time></trkpt><trkpt lat="43.2599967" lon="10.950695"><ele>377.6666666666667</ele><time>2026-03-28T12:06:57.039Z</time></trkpt><trkpt lat="43.2599633" lon="10.950465"><ele>377.33333333333337</ele><time>2026-03-28T12:06:58.038Z</time></trkpt><trkpt lat="43.2599417" lon="10.950245"><ele>377.0</ele><time>2026-03-28T12:06:59.039Z</time></trkpt><trkpt lat="43.259945" lon="10.9500383"><ele>375.0</ele><time>2026-03-28T12:07:00.039Z</time></trkpt><trkpt lat="43.2600083" lon="10.949845"><ele>373.0</ele><time>2026-03-28T12:07:01.038Z</time></trkpt><trkpt lat="43.2600883" lon="10.9496633"><ele>371.0</ele><time>2026-03-28T12:07:02.039Z</time></trkpt><trkpt lat="43.2601767" lon="10.949505"><ele>371.0</ele><time>2026-03-28T12:07:03.039Z</time></trkpt><trkpt lat="43.260275" lon="10.9493683"><ele>371.0</ele><time>2026-03-28T12:07:04.039Z</time></trkpt><trkpt lat="43.260375" lon="10.9492433"><ele>371.0</ele><time>2026-03-28T12:07:05.039Z</time></trkpt><trkpt lat="43.2604783" lon="10.94912"><ele>371.0</ele><time>2026-03-28T12:07:06.039Z</time></trkpt><trkpt lat="43.2605883" lon="10.9490033"><ele>368.25</ele><time>2026-03-28T12:07:07.039Z</time></trkpt><trkpt lat="43.2606967" lon="10.9488917"><ele>365.5</ele><time>2026-03-28T12:07:08.039Z</time></trkpt><trkpt lat="43.2608083" lon="10.9487867"><ele>362.75</ele><time>2026-03-28T12:07:09.039Z</time></trkpt><trkpt lat="43.2609217" lon="10.9486917"><ele>360.0</ele><time>2026-03-28T12:07:10.039Z</time></trkpt><trkpt lat="43.2610367" lon="10.9486067"><ele>360.0</ele><time>2026-03-28T12:07:11.039Z</time></trkpt><trkpt lat="43.2611533" lon="10.9485183"><ele>360.0</ele><time>2026-03-28T12:07:12.039Z</time></trkpt><trkpt lat="43.261255" lon="10.94844"><ele>360.0</ele><time>2026-03-28T12:07:13.039Z</time></trkpt><trkpt lat="43.2613217" lon="10.948355"><ele>360.0</ele><time>2026-03-28T12:07:14.039Z</time></trkpt><trkpt lat="43.2613517" lon="10.9482483"><ele>360.0</ele><time>2026-03-28T12:07:15.038Z</time></trkpt><trkpt lat="43.2613467" lon="10.94815"><ele>361.0</ele><time>2026-03-28T12:07:16.039Z</time></trkpt><trkpt lat="43.2613017" lon="10.94805"><ele>362.0</ele><time>2026-03-28T12:07:17.039Z</time></trkpt><trkpt lat="43.2612367" lon="10.947965"><ele>363.0</ele><time>2026-03-28T12:07:18.039Z</time></trkpt><trkpt lat="43.2611583" lon="10.9478733"><ele>364.0</ele><time>2026-03-28T12:07:19.039Z</time></trkpt><trkpt lat="43.26108" lon="10.9477717"><ele>365.0</ele><time>2026-03-28T12:07:20.039Z</time></trkpt><trkpt lat="43.2610067" lon="10.9476533"><ele>365.0</ele><time>2026-03-28T12:07:21.039Z</time></trkpt><trkpt lat="43.2609217" lon="10.9475483"><ele>365.0</ele><time>2026-03-28T12:07:22.039Z</time></trkpt><trkpt lat="43.26084" lon="10.9474667"><ele>365.0</ele><time>2026-03-28T12:07:23.038Z</time></trkpt><trkpt lat="43.2607617" lon="10.947405"><ele>365.0</ele><time>2026-03-28T12:07:24.039Z</time></trkpt><trkpt lat="43.260675" lon="10.9473883"><ele>365.0</ele><time>2026-03-28T12:07:25.039Z</time></trkpt><trkpt lat="43.2605683" lon="10.9474"><ele>365.0</ele><time>2026-03-28T12:07:26.039Z</time></trkpt><trkpt lat="43.260445" lon="10.9474383"><ele>365.0</ele><time>2026-03-28T12:07:27.038Z</time></trkpt><trkpt lat="43.2603" lon="10.9475233"><ele>365.0</ele><time>2026-03-28T12:07:28.039Z</time></trkpt><trkpt lat="43.2601483" lon="10.9476283"><ele>365.0</ele><time>2026-03-28T12:07:29.039Z</time></trkpt><trkpt lat="43.25999" lon="10.9477417"><ele>365.0</ele><time>2026-03-28T12:07:30.039Z</time></trkpt><trkpt lat="43.2598433" lon="10.94782"><ele>365.0</ele><time>2026-03-28T12:07:31.039Z</time></trkpt><trkpt lat="43.2596833" lon="10.9479033"><ele>361.0</ele><time>2026-03-28T12:07:32.039Z</time></trkpt><trkpt lat="43.2595367" lon="10.9479483"><ele>357.0</ele><time>2026-03-28T12:07:33.039Z</time></trkpt><trkpt lat="43.2593867" lon="10.94801"><ele>353.0</ele><time>2026-03-28T12:07:34.039Z</time></trkpt><trkpt lat="43.2592467" lon="10.9480783"><ele>353.0</ele><time>2026-03-28T12:07:35.039Z</time></trkpt><trkpt lat="43.2591067" lon="10.9481533"><ele>353.0</ele><time>2026-03-28T12:07:36.039Z</time></trkpt><trkpt lat="43.25899" lon="10.9482333"><ele>353.0</ele><time>2026-03-28T12:07:37.039Z</time></trkpt><trkpt lat="43.2588783" lon="10.94832"><ele>353.0</ele><time>2026-03-28T12:07:38.039Z</time></trkpt><trkpt lat="43.2587733" lon="10.9483933"><ele>354.4</ele><time>2026-03-28T12:07:39.038Z</time></trkpt><trkpt lat="43.2586633" lon="10.9484367"><ele>355.79999999999995</ele><time>2026-03-28T12:07:40.039Z</time></trkpt><trkpt lat="43.2585633" lon="10.9484583"><ele>357.2</ele><time>2026-03-28T12:07:41.038Z</time></trkpt><trkpt lat="43.2584733" lon="10.9484117"><ele>358.6</ele><time>2026-03-28T12:07:42.038Z</time></trkpt><trkpt lat="43.2584117" lon="10.94834"><ele>360.0</ele><time>2026-03-28T12:07:43.038Z</time></trkpt><trkpt lat="43.258375" lon="10.9482383"><ele>354.5</ele><time>2026-03-28T12:07:44.039Z</time></trkpt><trkpt lat="43.2583817" lon="10.9480967"><ele>349.0</ele><time>2026-03-28T12:07:45.038Z</time></trkpt><trkpt lat="43.2584267" lon="10.9479133"><ele>343.5</ele><time>2026-03-28T12:07:46.039Z</time></trkpt><trkpt lat="43.2585083" lon="10.94772"><ele>338.0</ele><time>2026-03-28T12:07:47.039Z</time></trkpt><trkpt lat="43.258595" lon="10.9474967"><ele>333.6666666666667</ele><time>2026-03-28T12:07:48.039Z</time></trkpt><trkpt lat="43.2587117" lon="10.9472317"><ele>329.3333333333333</ele><time>2026-03-28T12:07:49.039Z</time></trkpt><trkpt lat="43.2587917" lon="10.9470117"><ele>325.0</ele><time>2026-03-28T12:07:50.039Z</time></trkpt><trkpt lat="43.2588683" lon="10.9468267"><ele>325.2</ele><time>2026-03-28T12:07:51.039Z</time></trkpt><trkpt lat="43.2589367" lon="10.946665"><ele>325.4</ele><time>2026-03-28T12:07:52.039Z</time></trkpt><trkpt lat="43.2589817" lon="10.9465417"><ele>325.6</ele><time>2026-03-28T12:07:53.039Z</time></trkpt><trkpt lat="43.2589967" lon="10.94643"><ele>325.8</ele><time>2026-03-28T12:07:54.039Z</time></trkpt><trkpt lat="43.258975" lon="10.9463383"><ele>326.0</ele><time>2026-03-28T12:07:55.039Z</time></trkpt><trkpt lat="43.25892" lon="10.94626"><ele>323.25</ele><time>2026-03-28T12:07:56.039Z</time></trkpt><trkpt lat="43.2588317" lon="10.94623"><ele>320.5</ele><time>2026-03-28T12:07:57.039Z</time></trkpt><trkpt lat="43.25871" lon="10.9462317"><ele>317.75</ele><time>2026-03-28T12:07:58.039Z</time></trkpt><trkpt lat="43.2585467" lon="10.9462733"><ele>315.0</ele><time>2026-03-28T12:07:59.039Z</time></trkpt><trkpt lat="43.258365" lon="10.9463433"><ele>315.0</ele><time>2026-03-28T12:08:00.039Z</time></trkpt><trkpt lat="43.2581717" lon="10.9464717"><ele>315.0</ele><time>2026-03-28T12:08:01.038Z</time></trkpt><trkpt lat="43.2580217" lon="10.94658"><ele>315.0</ele><time>2026-03-28T12:08:02.039Z</time></trkpt><trkpt lat="43.2578683" lon="10.9466733"><ele>315.3333333333333</ele><time>2026-03-28T12:08:03.039Z</time></trkpt><trkpt lat="43.2577133" lon="10.9467317"><ele>315.66666666666663</ele><time>2026-03-28T12:08:04.039Z</time></trkpt><trkpt lat="43.25756" lon="10.94676"><ele>316.0</ele><time>2026-03-28T12:08:05.039Z</time></trkpt><trkpt lat="43.2574133" lon="10.94675"><ele>314.25</ele><time>2026-03-28T12:08:06.039Z</time></trkpt><trkpt lat="43.2572583" lon="10.9467383"><ele>312.5</ele><time>2026-03-28T12:08:07.039Z</time></trkpt><trkpt lat="43.2571217" lon="10.9467217"><ele>310.75</ele><time>2026-03-28T12:08:08.039Z</time></trkpt><trkpt lat="43.2569867" lon="10.94669"><ele>309.0</ele><time>2026-03-28T12:08:09.039Z</time></trkpt><trkpt lat="43.2568517" lon="10.9466433"><ele>306.5</ele><time>2026-03-28T12:08:10.039Z</time></trkpt><trkpt lat="43.256725" lon="10.9465483"><ele>304.0</ele><time>2026-03-28T12:08:11.039Z</time></trkpt><trkpt lat="43.2566067" lon="10.9464317"><ele>301.5</ele><time>2026-03-28T12:08:12.039Z</time></trkpt><trkpt lat="43.2564833" lon="10.9463117"><ele>299.0</ele><time>2026-03-28T12:08:13.039Z</time></trkpt><trkpt lat="43.2563667" lon="10.94621"><ele>297.2</ele><time>2026-03-28T12:08:14.039Z</time></trkpt><trkpt lat="43.2562633" lon="10.9461367"><ele>295.4</ele><time>2026-03-28T12:08:15.039Z</time></trkpt><trkpt lat="43.256175" lon="10.946105"><ele>293.6</ele><time>2026-03-28T12:08:16.039Z</time></trkpt><trkpt lat="43.2560817" lon="10.9461267"><ele>291.8</ele><time>2026-03-28T12:08:17.039Z</time></trkpt><trkpt lat="43.2560067" lon="10.9461733"><ele>290.0</ele><time>2026-03-28T12:08:18.039Z</time></trkpt><trkpt lat="43.2559467" lon="10.94626"><ele>290.0</ele><time>2026-03-28T12:08:19.039Z</time></trkpt><trkpt lat="43.2559033" lon="10.94639"><ele>290.0</ele><time>2026-03-28T12:08:20.039Z</time></trkpt><trkpt lat="43.255875" lon="10.9465417"><ele>290.0</ele><time>2026-03-28T12:08:21.039Z</time></trkpt><trkpt lat="43.25583" lon="10.946665"><ele>290.0</ele><time>2026-03-28T12:08:22.039Z</time></trkpt><trkpt lat="43.2557767" lon="10.946755"><ele>290.0</ele><time>2026-03-28T12:08:23.039Z</time></trkpt><trkpt lat="43.2557117" lon="10.94681"><ele>290.6</ele><time>2026-03-28T12:08:24.039Z</time></trkpt><trkpt lat="43.25564" lon="10.9468333"><ele>291.2</ele><time>2026-03-28T12:08:25.038Z</time></trkpt><trkpt lat="43.2555667" lon="10.94679"><ele>291.8</ele><time>2026-03-28T12:08:26.039Z</time></trkpt><trkpt lat="43.2554833" lon="10.9467333"><ele>292.4</ele><time>2026-03-28T12:08:27.039Z</time></trkpt><trkpt lat="43.2553883" lon="10.94664"><ele>293.0</ele><time>2026-03-28T12:08:28.039Z</time></trkpt><trkpt lat="43.25529" lon="10.9465367"><ele>293.0</ele><time>2026-03-28T12:08:29.039Z</time></trkpt><trkpt lat="43.2552083" lon="10.94642"><ele>293.0</ele><time>2026-03-28T12:08:30.039Z</time></trkpt><trkpt lat="43.2551517" lon="10.9462967"><ele>293.0</ele><time>2026-03-28T12:08:31.039Z</time></trkpt><trkpt lat="43.2551217" lon="10.94617"><ele>293.0</ele><time>2026-03-28T12:08:32.039Z</time></trkpt><trkpt lat="43.2550983" lon="10.9460333"><ele>293.0</ele><time>2026-03-28T12:08:33.039Z</time></trkpt><trkpt lat="43.2550717" lon="10.945875"><ele>289.5</ele><time>2026-03-28T12:08:34.039Z</time></trkpt><trkpt lat="43.25504" lon="10.9457067"><ele>286.0</ele><time>2026-03-28T12:08:35.039Z</time></trkpt><trkpt lat="43.255" lon="10.9455333"><ele>282.5</ele><time>2026-03-28T12:08:36.039Z</time></trkpt><trkpt lat="43.2549667" lon="10.945365"><ele>279.0</ele><time>2026-03-28T12:08:37.039Z</time></trkpt><trkpt lat="43.2549433" lon="10.9452333"><ele>279.0</ele><time>2026-03-28T12:08:38.038Z</time></trkpt><trkpt lat="43.2549617" lon="10.94511"><ele>279.0</ele><time>2026-03-28T12:08:39.039Z</time></trkpt><trkpt lat="43.2550083" lon="10.9450033"><ele>279.0</ele><time>2026-03-28T12:08:40.039Z</time></trkpt><trkpt lat="43.2550917" lon="10.944905"><ele>279.0</ele><time>2026-03-28T12:08:41.039Z</time></trkpt><trkpt lat="43.2551883" lon="10.9448083"><ele>279.0</ele><time>2026-03-28T12:08:42.039Z</time></trkpt><trkpt lat="43.255295" lon="10.9447033"><ele>278.0</ele><time>2026-03-28T12:08:43.038Z</time></trkpt><trkpt lat="43.2553967" lon="10.9445983"><ele>277.0</ele><time>2026-03-28T12:08:44.039Z</time></trkpt><trkpt lat="43.25547" lon="10.9444567"><ele>276.0</ele><time>2026-03-28T12:08:45.039Z</time></trkpt><trkpt lat="43.255505" lon="10.9443083"><ele>275.0</ele><time>2026-03-28T12:08:46.039Z</time></trkpt><trkpt lat="43.255515" lon="10.9441767"><ele>273.0</ele><time>2026-03-28T12:08:47.038Z</time></trkpt><trkpt lat="43.255485" lon="10.944075"><ele>271.0</ele><time>2026-03-28T12:08:48.039Z</time></trkpt><trkpt lat="43.2554283" lon="10.943995"><ele>269.0</ele><time>2026-03-28T12:08:49.039Z</time></trkpt><trkpt lat="43.255355" lon="10.943945"><ele>267.0</ele><time>2026-03-28T12:08:50.039Z</time></trkpt><trkpt lat="43.255275" lon="10.94394"><ele>265.0</ele><time>2026-03-28T12:08:51.039Z</time></trkpt><trkpt lat="43.25518" lon="10.9439783"><ele>263.0</ele><time>2026-03-28T12:08:52.039Z</time></trkpt><trkpt lat="43.255095" lon="10.9440333"><ele>263.0</ele><time>2026-03-28T12:08:53.038Z</time></trkpt><trkpt lat="43.255005" lon="10.94414"><ele>263.0</ele><time>2026-03-28T12:08:54.039Z</time></trkpt><trkpt lat="43.2548983" lon="10.944235"><ele>263.0</ele><time>2026-03-28T12:08:55.038Z</time></trkpt><trkpt lat="43.25477" lon="10.94429"><ele>263.0</ele><time>2026-03-28T12:08:56.039Z</time></trkpt><trkpt lat="43.2546183" lon="10.9443333"><ele>264.75</ele><time>2026-03-28T12:08:57.039Z</time></trkpt><trkpt lat="43.2544683" lon="10.944365"><ele>266.5</ele><time>2026-03-28T12:08:58.039Z</time></trkpt><trkpt lat="43.2543267" lon="10.9443883"><ele>268.25</ele><time>2026-03-28T12:08:59.039Z</time></trkpt><trkpt lat="43.25418" lon="10.9444017"><ele>270.0</ele><time>2026-03-28T12:09:00.039Z</time></trkpt><trkpt lat="43.2540533" lon="10.9443983"><ele>268.6</ele><time>2026-03-28T12:09:01.039Z</time></trkpt><trkpt lat="43.2539483" lon="10.9443867"><ele>267.2</ele><time>2026-03-28T12:09:02.039Z</time></trkpt><trkpt lat="43.2538733" lon="10.9443633"><ele>265.8</ele><time>2026-03-28T12:09:03.039Z</time></trkpt><trkpt lat="43.2537567" lon="10.9443317"><ele>264.4</ele><time>2026-03-28T12:09:05.039Z</time></trkpt><trkpt lat="43.2536933" lon="10.9443117"><ele>263.0</ele><time>2026-03-28T12:09:07.039Z</time></trkpt><trkpt lat="43.2537067" lon="10.9441883"><ele>260.83333333333337</ele><time>2026-03-28T12:09:23.039Z</time></trkpt><trkpt lat="43.2536883" lon="10.9440917"><ele>258.6666666666667</ele><time>2026-03-28T12:09:24.038Z</time></trkpt><trkpt lat="43.25367" lon="10.9439967"><ele>256.5</ele><time>2026-03-28T12:09:25.039Z</time></trkpt><trkpt lat="43.2536483" lon="10.9439017"><ele>254.33333333333331</ele><time>2026-03-28T12:09:26.039Z</time></trkpt><trkpt lat="43.2536067" lon="10.94378"><ele>252.16666666666666</ele><time>2026-03-28T12:09:27.039Z</time></trkpt><trkpt lat="43.2535483" lon="10.9436217"><ele>250.0</ele><time>2026-03-28T12:09:28.039Z</time></trkpt><trkpt lat="43.253495" lon="10.9434017"><ele>249.66666666666666</ele><time>2026-03-28T12:09:29.039Z</time></trkpt><trkpt lat="43.2534317" lon="10.9431717"><ele>249.33333333333331</ele><time>2026-03-28T12:09:30.039Z</time></trkpt><trkpt lat="43.2533783" lon="10.9429667"><ele>249.0</ele><time>2026-03-28T12:09:31.039Z</time></trkpt><trkpt lat="43.2533317" lon="10.94277"><ele>249.0</ele><time>2026-03-28T12:09:32.039Z</time></trkpt><trkpt lat="43.2532933" lon="10.9425917"><ele>249.0</ele><time>2026-03-28T12:09:33.039Z</time></trkpt><trkpt lat="43.2532717" lon="10.9424117"><ele>249.0</ele><time>2026-03-28T12:09:34.039Z</time></trkpt><trkpt lat="43.25326" lon="10.9422183"><ele>249.0</ele><time>2026-03-28T12:09:35.039Z</time></trkpt><trkpt lat="43.2532767" lon="10.94202"><ele>250.33333333333331</ele><time>2026-03-28T12:09:36.039Z</time></trkpt><trkpt lat="43.2533133" lon="10.9418083"><ele>251.66666666666666</ele><time>2026-03-28T12:09:37.039Z</time></trkpt><trkpt lat="43.2533733" lon="10.941575"><ele>253.0</ele><time>2026-03-28T12:09:38.039Z</time></trkpt><trkpt lat="43.2534367" lon="10.9413383"><ele>253.0</ele><time>2026-03-28T12:09:39.039Z</time></trkpt><trkpt lat="43.2535117" lon="10.9410967"><ele>253.0</ele><time>2026-03-28T12:09:40.039Z</time></trkpt><trkpt lat="43.2535817" lon="10.94086"><ele>253.0</ele><time>2026-03-28T12:09:41.038Z</time></trkpt><trkpt lat="43.2536517" lon="10.9406133"><ele>253.0</ele><time>2026-03-28T12:09:42.039Z</time></trkpt><trkpt lat="43.2537133" lon="10.94038"><ele>253.0</ele><time>2026-03-28T12:09:43.039Z</time></trkpt><trkpt lat="43.2537783" lon="10.94013"><ele>253.0</ele><time>2026-03-28T12:09:44.039Z</time></trkpt><trkpt lat="43.253835" lon="10.939875"><ele>253.0</ele><time>2026-03-28T12:09:45.039Z</time></trkpt><trkpt lat="43.2538817" lon="10.93962"><ele>253.0</ele><time>2026-03-28T12:09:46.039Z</time></trkpt><trkpt lat="43.2539167" lon="10.9393633"><ele>253.0</ele><time>2026-03-28T12:09:47.038Z</time></trkpt><trkpt lat="43.2539" lon="10.939105"><ele>254.0</ele><time>2026-03-28T12:09:48.038Z</time></trkpt><trkpt lat="43.2538617" lon="10.93886"><ele>255.0</ele><time>2026-03-28T12:09:49.039Z</time></trkpt><trkpt lat="43.253805" lon="10.9386133"><ele>256.0</ele><time>2026-03-28T12:09:50.038Z</time></trkpt><trkpt lat="43.2537383" lon="10.9383783"><ele>257.66666666666663</ele><time>2026-03-28T12:09:51.039Z</time></trkpt><trkpt lat="43.2536783" lon="10.93814"><ele>259.3333333333333</ele><time>2026-03-28T12:09:52.039Z</time></trkpt><trkpt lat="43.253635" lon="10.937915"><ele>261.0</ele><time>2026-03-28T12:09:53.039Z</time></trkpt><trkpt lat="43.2536083" lon="10.9377083"><ele>262.6666666666667</ele><time>2026-03-28T12:09:54.039Z</time></trkpt><trkpt lat="43.2535967" lon="10.9375083"><ele>264.33333333333337</ele><time>2026-03-28T12:09:55.039Z</time></trkpt><trkpt lat="43.25361" lon="10.93729"><ele>266.0</ele><time>2026-03-28T12:09:56.039Z</time></trkpt><trkpt lat="43.25363" lon="10.9370733"><ele>266.0</ele><time>2026-03-28T12:09:57.038Z</time></trkpt><trkpt lat="43.2536367" lon="10.9368633"><ele>266.0</ele><time>2026-03-28T12:09:58.039Z</time></trkpt><trkpt lat="43.2536533" lon="10.9366783"><ele>266.0</ele><time>2026-03-28T12:09:59.038Z</time></trkpt><trkpt lat="43.2536717" lon="10.9365567"><ele>266.0</ele><time>2026-03-28T12:10:00.039Z</time></trkpt><trkpt lat="43.2537067" lon="10.93648"><ele>266.0</ele><time>2026-03-28T12:10:01.039Z</time></trkpt><trkpt lat="43.2538183" lon="10.9364917"><ele>266.0</ele><time>2026-03-28T12:10:03.038Z</time></trkpt><trkpt lat="43.253885" lon="10.9366017"><ele>266.0</ele><time>2026-03-28T12:10:04.039Z</time></trkpt><trkpt lat="43.25395" lon="10.93676"><ele>266.0</ele><time>2026-03-28T12:10:05.039Z</time></trkpt><trkpt lat="43.25402" lon="10.936945"><ele>266.0</ele><time>2026-03-28T12:10:06.039Z</time></trkpt><trkpt lat="43.254105" lon="10.9371233"><ele>269.0</ele><time>2026-03-28T12:10:07.039Z</time></trkpt><trkpt lat="43.2541933" lon="10.9372967"><ele>272.0</ele><time>2026-03-28T12:10:08.039Z</time></trkpt><trkpt lat="43.2542717" lon="10.9374783"><ele>275.0</ele><time>2026-03-28T12:10:09.039Z</time></trkpt><trkpt lat="43.254355" lon="10.9376467"><ele>275.0</ele><time>2026-03-28T12:10:10.039Z</time></trkpt><trkpt lat="43.25447" lon="10.9378017"><ele>275.0</ele><time>2026-03-28T12:10:11.039Z</time></trkpt><trkpt lat="43.2546" lon="10.9379267"><ele>275.0</ele><time>2026-03-28T12:10:12.039Z</time></trkpt><trkpt lat="43.254735" lon="10.9380467"><ele>276.33333333333337</ele><time>2026-03-28T12:10:13.039Z</time></trkpt><trkpt lat="43.25488" lon="10.9381767"><ele>277.6666666666667</ele><time>2026-03-28T12:10:14.039Z</time></trkpt><trkpt lat="43.25502" lon="10.9383067"><ele>279.0</ele><time>2026-03-28T12:10:15.039Z</time></trkpt><trkpt lat="43.2551567" lon="10.9384367"><ele>279.0</ele><time>2026-03-28T12:10:16.039Z</time></trkpt><trkpt lat="43.2552817" lon="10.9385517"><ele>279.0</ele><time>2026-03-28T12:10:17.039Z</time></trkpt><trkpt lat="43.2553917" lon="10.93863"><ele>279.0</ele><time>2026-03-28T12:10:18.039Z</time></trkpt><trkpt lat="43.2555033" lon="10.9386567"><ele>279.0</ele><time>2026-03-28T12:10:19.039Z</time></trkpt><trkpt lat="43.2556267" lon="10.9385967"><ele>279.6666666666667</ele><time>2026-03-28T12:10:20.039Z</time></trkpt><trkpt lat="43.2557717" lon="10.9384817"><ele>280.33333333333337</ele><time>2026-03-28T12:10:21.039Z</time></trkpt><trkpt lat="43.2559267" lon="10.9383583"><ele>281.0</ele><time>2026-03-28T12:10:22.039Z</time></trkpt><trkpt lat="43.2560767" lon="10.9382383"><ele>284.33333333333337</ele><time>2026-03-28T12:10:23.039Z</time></trkpt><trkpt lat="43.2562217" lon="10.9381217"><ele>287.6666666666667</ele><time>2026-03-28T12:10:24.039Z</time></trkpt><trkpt lat="43.25637" lon="10.9379967"><ele>291.0</ele><time>2026-03-28T12:10:25.039Z</time></trkpt><trkpt lat="43.2564983" lon="10.9378217"><ele>291.0</ele><time>2026-03-28T12:10:26.038Z</time></trkpt><trkpt lat="43.2566067" lon="10.93761"><ele>291.0</ele><time>2026-03-28T12:10:27.039Z</time></trkpt><trkpt lat="43.256705" lon="10.9373883"><ele>291.0</ele><time>2026-03-28T12:10:28.039Z</time></trkpt><trkpt lat="43.2568017" lon="10.9371667"><ele>294.3333333333333</ele><time>2026-03-28T12:10:29.039Z</time></trkpt><trkpt lat="43.2569217" lon="10.93695"><ele>297.66666666666663</ele><time>2026-03-28T12:10:30.038Z</time></trkpt><trkpt lat="43.2570517" lon="10.9367617"><ele>301.0</ele><time>2026-03-28T12:10:31.039Z</time></trkpt><trkpt lat="43.25718" lon="10.93662"><ele>303.66666666666663</ele><time>2026-03-28T12:10:32.039Z</time></trkpt><trkpt lat="43.257335" lon="10.9365133"><ele>306.3333333333333</ele><time>2026-03-28T12:10:33.039Z</time></trkpt><trkpt lat="43.2575083" lon="10.936405"><ele>309.0</ele><time>2026-03-28T12:10:34.039Z</time></trkpt><trkpt lat="43.2576967" lon="10.9363"><ele>309.0</ele><time>2026-03-28T12:10:35.039Z</time></trkpt><trkpt lat="43.2578833" lon="10.9361767"><ele>309.0</ele><time>2026-03-28T12:10:36.039Z</time></trkpt><trkpt lat="43.2580683" lon="10.936045"><ele>309.0</ele><time>2026-03-28T12:10:37.038Z</time></trkpt><trkpt lat="43.2582333" lon="10.9359267"><ele>313.3333333333333</ele><time>2026-03-28T12:10:38.038Z</time></trkpt><trkpt lat="43.2583933" lon="10.93581"><ele>317.66666666666663</ele><time>2026-03-28T12:10:39.039Z</time></trkpt><trkpt lat="43.2585483" lon="10.9357017"><ele>322.0</ele><time>2026-03-28T12:10:40.039Z</time></trkpt><trkpt lat="43.258675" lon="10.9356083"><ele>322.0</ele><time>2026-03-28T12:10:41.039Z</time></trkpt><trkpt lat="43.2587667" lon="10.9355417"><ele>322.0</ele><time>2026-03-28T12:10:42.039Z</time></trkpt><trkpt lat="43.2588483" lon="10.935485"><ele>322.0</ele><time>2026-03-28T12:10:43.038Z</time></trkpt><trkpt lat="43.2589233" lon="10.9354017"><ele>322.0</ele><time>2026-03-28T12:10:44.039Z</time></trkpt><trkpt lat="43.2590067" lon="10.9352983"><ele>322.0</ele><time>2026-03-28T12:10:45.038Z</time></trkpt><trkpt lat="43.2591083" lon="10.9351783"><ele>322.3333333333333</ele><time>2026-03-28T12:10:46.039Z</time></trkpt><trkpt lat="43.2592317" lon="10.9350417"><ele>322.6666666666667</ele><time>2026-03-28T12:10:47.039Z</time></trkpt><trkpt lat="43.2593583" lon="10.9348917"><ele>323.0</ele><time>2026-03-28T12:10:48.039Z</time></trkpt><trkpt lat="43.259485" lon="10.93472"><ele>323.0</ele><time>2026-03-28T12:10:49.039Z</time></trkpt><trkpt lat="43.2596" lon="10.9345117"><ele>323.0</ele><time>2026-03-28T12:10:50.039Z</time></trkpt><trkpt lat="43.2597033" lon="10.9342967"><ele>323.0</ele><time>2026-03-28T12:10:51.038Z</time></trkpt><trkpt lat="43.2597967" lon="10.9340817"><ele>325.0</ele><time>2026-03-28T12:10:52.039Z</time></trkpt><trkpt lat="43.2598933" lon="10.933865"><ele>327.0</ele><time>2026-03-28T12:10:53.039Z</time></trkpt><trkpt lat="43.2599967" lon="10.9336483"><ele>329.0</ele><time>2026-03-28T12:10:54.039Z</time></trkpt><trkpt lat="43.2601167" lon="10.9334317"><ele>323.6666666666667</ele><time>2026-03-28T12:10:55.039Z</time></trkpt><trkpt lat="43.26024" lon="10.9332217"><ele>318.3333333333333</ele><time>2026-03-28T12:10:56.038Z</time></trkpt><trkpt lat="43.2603417" lon="10.9329983"><ele>313.0</ele><time>2026-03-28T12:10:57.039Z</time></trkpt><trkpt lat="43.2604467" lon="10.9327817"><ele>315.66666666666663</ele><time>2026-03-28T12:10:58.038Z</time></trkpt><trkpt lat="43.2605567" lon="10.9325467"><ele>318.3333333333333</ele><time>2026-03-28T12:10:59.039Z</time></trkpt><trkpt lat="43.260675" lon="10.932325"><ele>321.0</ele><time>2026-03-28T12:11:00.039Z</time></trkpt><trkpt lat="43.2608017" lon="10.9321017"><ele>321.0</ele><time>2026-03-28T12:11:01.039Z</time></trkpt><trkpt lat="43.260925" lon="10.931875"><ele>321.0</ele><time>2026-03-28T12:11:02.039Z</time></trkpt><trkpt lat="43.2610533" lon="10.93164"><ele>321.0</ele><time>2026-03-28T12:11:03.038Z</time></trkpt><trkpt lat="43.261175" lon="10.931395"><ele>316.3333333333333</ele><time>2026-03-28T12:11:04.039Z</time></trkpt><trkpt lat="43.2612683" lon="10.931185"><ele>311.66666666666663</ele><time>2026-03-28T12:11:05.039Z</time></trkpt><trkpt lat="43.2613567" lon="10.93099"><ele>307.0</ele><time>2026-03-28T12:11:06.039Z</time></trkpt><trkpt lat="43.2614267" lon="10.9307967"><ele>309.75</ele><time>2026-03-28T12:11:07.039Z</time></trkpt><trkpt lat="43.26147" lon="10.9306067"><ele>312.5</ele><time>2026-03-28T12:11:08.039Z</time></trkpt><trkpt lat="43.2614883" lon="10.9304133"><ele>315.25</ele><time>2026-03-28T12:11:09.039Z</time></trkpt><trkpt lat="43.2615217" lon="10.9302367"><ele>318.0</ele><time>2026-03-28T12:11:10.039Z</time></trkpt><trkpt lat="43.2615817" lon="10.9300917"><ele>315.25</ele><time>2026-03-28T12:11:11.039Z</time></trkpt><trkpt lat="43.2616467" lon="10.9299567"><ele>312.5</ele><time>2026-03-28T12:11:12.039Z</time></trkpt><trkpt lat="43.2617017" lon="10.9297867"><ele>309.75</ele><time>2026-03-28T12:11:13.039Z</time></trkpt><trkpt lat="43.26173" lon="10.9295883"><ele>307.0</ele><time>2026-03-28T12:11:14.038Z</time></trkpt><trkpt lat="43.26175" lon="10.92938"><ele>304.25</ele><time>2026-03-28T12:11:15.039Z</time></trkpt><trkpt lat="43.2617783" lon="10.92919"><ele>301.5</ele><time>2026-03-28T12:11:16.039Z</time></trkpt><trkpt lat="43.26181" lon="10.9290417"><ele>298.75</ele><time>2026-03-28T12:11:17.039Z</time></trkpt><trkpt lat="43.2618633" lon="10.92892"><ele>296.0</ele><time>2026-03-28T12:11:18.039Z</time></trkpt><trkpt lat="43.2619417" lon="10.9288367"><ele>296.0</ele><time>2026-03-28T12:11:19.039Z</time></trkpt><trkpt lat="43.262015" lon="10.92875"><ele>296.0</ele><time>2026-03-28T12:11:20.038Z</time></trkpt><trkpt lat="43.2620817" lon="10.9286317"><ele>296.0</ele><time>2026-03-28T12:11:21.039Z</time></trkpt><trkpt lat="43.2621133" lon="10.9284917"><ele>296.0</ele><time>2026-03-28T12:11:22.039Z</time></trkpt><trkpt lat="43.2621367" lon="10.92834"><ele>296.0</ele><time>2026-03-28T12:11:23.038Z</time></trkpt><trkpt lat="43.262165" lon="10.9282017"><ele>297.8</ele><time>2026-03-28T12:11:24.039Z</time></trkpt><trkpt lat="43.2622067" lon="10.928095"><ele>299.6</ele><time>2026-03-28T12:11:25.039Z</time></trkpt><trkpt lat="43.2622617" lon="10.928025"><ele>301.4</ele><time>2026-03-28T12:11:26.039Z</time></trkpt><trkpt lat="43.2623483" lon="10.927935"><ele>303.2</ele><time>2026-03-28T12:11:28.039Z</time></trkpt><trkpt lat="43.2623783" lon="10.9278283"><ele>305.0</ele><time>2026-03-28T12:11:30.039Z</time></trkpt><trkpt lat="43.2623667" lon="10.9276833"><ele>305.0</ele><time>2026-03-28T12:11:32.038Z</time></trkpt><trkpt lat="43.2623433" lon="10.9275983"><ele>305.0</ele><time>2026-03-28T12:11:33.039Z</time></trkpt><trkpt lat="43.26231" lon="10.9275033"><ele>305.0</ele><time>2026-03-28T12:11:34.039Z</time></trkpt><trkpt lat="43.262265" lon="10.9274033"><ele>305.0</ele><time>2026-03-28T12:11:35.038Z</time></trkpt><trkpt lat="43.26223" lon="10.927275"><ele>305.0</ele><time>2026-03-28T12:11:36.039Z</time></trkpt><trkpt lat="43.2622183" lon="10.9271417"><ele>305.0</ele><time>2026-03-28T12:11:37.039Z</time></trkpt><trkpt lat="43.2622233" lon="10.9270017"><ele>304.0</ele><time>2026-03-28T12:11:38.039Z</time></trkpt><trkpt lat="43.262285" lon="10.9268767"><ele>303.0</ele><time>2026-03-28T12:11:39.039Z</time></trkpt><trkpt lat="43.2622783" lon="10.9267117"><ele>302.0</ele><time>2026-03-28T12:11:40.039Z</time></trkpt><trkpt lat="43.2622483" lon="10.926525"><ele>301.0</ele><time>2026-03-28T12:11:41.038Z</time></trkpt><trkpt lat="43.2622117" lon="10.92633"><ele>294.0</ele><time>2026-03-28T12:11:42.039Z</time></trkpt><trkpt lat="43.26218" lon="10.926125"><ele>287.0</ele><time>2026-03-28T12:11:43.039Z</time></trkpt><trkpt lat="43.2621633" lon="10.9259333"><ele>280.0</ele><time>2026-03-28T12:11:44.038Z</time></trkpt><trkpt lat="43.2621683" lon="10.925725"><ele>273.0</ele><time>2026-03-28T12:11:45.039Z</time></trkpt><trkpt lat="43.2621717" lon="10.9254867"><ele>273.0</ele><time>2026-03-28T12:11:46.039Z</time></trkpt><trkpt lat="43.2621783" lon="10.9252483"><ele>273.0</ele><time>2026-03-28T12:11:47.038Z</time></trkpt><trkpt lat="43.2621917" lon="10.9250117"><ele>273.0</ele><time>2026-03-28T12:11:48.039Z</time></trkpt><trkpt lat="43.2622133" lon="10.924775"><ele>273.0</ele><time>2026-03-28T12:11:49.039Z</time></trkpt><trkpt lat="43.2622333" lon="10.9245633"><ele>273.0</ele><time>2026-03-28T12:11:50.039Z</time></trkpt><trkpt lat="43.2622517" lon="10.9243517"><ele>273.0</ele><time>2026-03-28T12:11:51.039Z</time></trkpt><trkpt lat="43.2622483" lon="10.9241533"><ele>272.75</ele><time>2026-03-28T12:11:52.039Z</time></trkpt><trkpt lat="43.262225" lon="10.9239733"><ele>272.5</ele><time>2026-03-28T12:11:53.039Z</time></trkpt><trkpt lat="43.2621667" lon="10.9238317"><ele>272.25</ele><time>2026-03-28T12:11:54.039Z</time></trkpt><trkpt lat="43.2620717" lon="10.9237483"><ele>272.0</ele><time>2026-03-28T12:11:55.039Z</time></trkpt><trkpt lat="43.2619467" lon="10.9236917"><ele>272.0</ele><time>2026-03-28T12:11:56.039Z</time></trkpt><trkpt lat="43.2618017" lon="10.9236583"><ele>272.0</ele><time>2026-03-28T12:11:57.039Z</time></trkpt><trkpt lat="43.2616633" lon="10.9236167"><ele>272.0</ele><time>2026-03-28T12:11:58.039Z</time></trkpt><trkpt lat="43.2615367" lon="10.9235817"><ele>272.0</ele><time>2026-03-28T12:11:59.038Z</time></trkpt><trkpt lat="43.261435" lon="10.9235183"><ele>268.2</ele><time>2026-03-28T12:12:00.039Z</time></trkpt><trkpt lat="43.2613683" lon="10.9234183"><ele>264.4</ele><time>2026-03-28T12:12:01.039Z</time></trkpt><trkpt lat="43.2613183" lon="10.92331"><ele>260.6</ele><time>2026-03-28T12:12:02.038Z</time></trkpt><trkpt lat="43.2613017" lon="10.9231567"><ele>256.8</ele><time>2026-03-28T12:12:03.039Z</time></trkpt><trkpt lat="43.2613217" lon="10.9230017"><ele>253.0</ele><time>2026-03-28T12:12:04.038Z</time></trkpt><trkpt lat="43.261365" lon="10.9228467"><ele>259.0</ele><time>2026-03-28T12:12:05.039Z</time></trkpt><trkpt lat="43.26146" lon="10.9227017"><ele>265.0</ele><time>2026-03-28T12:12:06.039Z</time></trkpt><trkpt lat="43.2615583" lon="10.9225367"><ele>271.0</ele><time>2026-03-28T12:12:07.039Z</time></trkpt><trkpt lat="43.26166" lon="10.922345"><ele>271.0</ele><time>2026-03-28T12:12:08.039Z</time></trkpt><trkpt lat="43.2617517" lon="10.9221283"><ele>271.0</ele><time>2026-03-28T12:12:09.039Z</time></trkpt><trkpt lat="43.26183" lon="10.9218817"><ele>271.0</ele><time>2026-03-28T12:12:10.038Z</time></trkpt><trkpt lat="43.261905" lon="10.921645"><ele>266.3333333333333</ele><time>2026-03-28T12:12:11.038Z</time></trkpt><trkpt lat="43.2619633" lon="10.92142"><ele>261.6666666666667</ele><time>2026-03-28T12:12:12.039Z</time></trkpt><trkpt lat="43.262035" lon="10.921215"><ele>257.0</ele><time>2026-03-28T12:12:13.039Z</time></trkpt><trkpt lat="43.262125" lon="10.9210383"><ele>260.0</ele><time>2026-03-28T12:12:14.039Z</time></trkpt><trkpt lat="43.2622333" lon="10.9208483"><ele>263.0</ele><time>2026-03-28T12:12:15.039Z</time></trkpt><trkpt lat="43.2623283" lon="10.9206583"><ele>266.0</ele><time>2026-03-28T12:12:16.039Z</time></trkpt><trkpt lat="43.26239" lon="10.9204617"><ele>266.0</ele><time>2026-03-28T12:12:17.038Z</time></trkpt><trkpt lat="43.2624117" lon="10.9202483"><ele>266.0</ele><time>2026-03-28T12:12:18.039Z</time></trkpt><trkpt lat="43.2624167" lon="10.920015"><ele>266.0</ele><time>2026-03-28T12:12:19.039Z</time></trkpt><trkpt lat="43.2624433" lon="10.9197883"><ele>261.6666666666667</ele><time>2026-03-28T12:12:20.039Z</time></trkpt><trkpt lat="43.2624617" lon="10.9195783"><ele>257.3333333333333</ele><time>2026-03-28T12:12:21.039Z</time></trkpt><trkpt lat="43.2625267" lon="10.9193833"><ele>253.0</ele><time>2026-03-28T12:12:22.039Z</time></trkpt><trkpt lat="43.26262" lon="10.91919"><ele>250.0</ele><time>2026-03-28T12:12:23.038Z</time></trkpt><trkpt lat="43.2627133" lon="10.91898"><ele>247.0</ele><time>2026-03-28T12:12:24.039Z</time></trkpt><trkpt lat="43.262795" lon="10.9187717"><ele>244.0</ele><time>2026-03-28T12:12:25.039Z</time></trkpt><trkpt lat="43.2628567" lon="10.9185533"><ele>241.0</ele><time>2026-03-28T12:12:26.038Z</time></trkpt><trkpt lat="43.26291" lon="10.9183383"><ele>238.0</ele><time>2026-03-28T12:12:27.039Z</time></trkpt><trkpt lat="43.262965" lon="10.9181317"><ele>235.0</ele><time>2026-03-28T12:12:28.039Z</time></trkpt><trkpt lat="43.2630217" lon="10.9178933"><ele>235.0</ele><time>2026-03-28T12:12:29.039Z</time></trkpt><trkpt lat="43.2630767" lon="10.9176517"><ele>235.0</ele><time>2026-03-28T12:12:30.039Z</time></trkpt><trkpt lat="43.2631333" lon="10.9173833"><ele>235.0</ele><time>2026-03-28T12:12:31.039Z</time></trkpt><trkpt lat="43.2631833" lon="10.917125"><ele>235.0</ele><time>2026-03-28T12:12:32.039Z</time></trkpt><trkpt lat="43.2632333" lon="10.916855"><ele>235.0</ele><time>2026-03-28T12:12:33.039Z</time></trkpt><trkpt lat="43.26329" lon="10.9165917"><ele>235.0</ele><time>2026-03-28T12:12:34.039Z</time></trkpt><trkpt lat="43.26334" lon="10.9163267"><ele>232.33333333333331</ele><time>2026-03-28T12:12:35.039Z</time></trkpt><trkpt lat="43.263395" lon="10.916065"><ele>229.66666666666669</ele><time>2026-03-28T12:12:36.039Z</time></trkpt><trkpt lat="43.2634717" lon="10.9158033"><ele>227.0</ele><time>2026-03-28T12:12:37.039Z</time></trkpt><trkpt lat="43.26355" lon="10.91555"><ele>225.66666666666669</ele><time>2026-03-28T12:12:38.039Z</time></trkpt><trkpt lat="43.2636333" lon="10.9153067"><ele>224.33333333333331</ele><time>2026-03-28T12:12:39.039Z</time></trkpt><trkpt lat="43.2637367" lon="10.9150933"><ele>223.0</ele><time>2026-03-28T12:12:40.038Z</time></trkpt><trkpt lat="43.2638633" lon="10.914915"><ele>222.33333333333331</ele><time>2026-03-28T12:12:41.038Z</time></trkpt><trkpt lat="43.2640167" lon="10.9147483"><ele>221.66666666666669</ele><time>2026-03-28T12:12:42.039Z</time></trkpt><trkpt lat="43.2641733" lon="10.9146"><ele>221.0</ele><time>2026-03-28T12:12:43.039Z</time></trkpt><trkpt lat="43.2643333" lon="10.9144567"><ele>221.0</ele><time>2026-03-28T12:12:44.039Z</time></trkpt><trkpt lat="43.2644867" lon="10.9142867"><ele>221.0</ele><time>2026-03-28T12:12:45.038Z</time></trkpt><trkpt lat="43.2646283" lon="10.9141033"><ele>221.0</ele><time>2026-03-28T12:12:46.039Z</time></trkpt><trkpt lat="43.2647667" lon="10.9139167"><ele>219.0</ele><time>2026-03-28T12:12:47.039Z</time></trkpt><trkpt lat="43.264915" lon="10.9137433"><ele>217.0</ele><time>2026-03-28T12:12:48.039Z</time></trkpt><trkpt lat="43.2650633" lon="10.9136033"><ele>215.0</ele><time>2026-03-28T12:12:49.039Z</time></trkpt><trkpt lat="43.2652233" lon="10.9134583"><ele>212.33333333333334</ele><time>2026-03-28T12:12:50.039Z</time></trkpt><trkpt lat="43.265385" lon="10.9133133"><ele>209.66666666666669</ele><time>2026-03-28T12:12:51.039Z</time></trkpt><trkpt lat="43.265545" lon="10.913195"><ele>207.0</ele><time>2026-03-28T12:12:52.039Z</time></trkpt><trkpt lat="43.2656883" lon="10.913105"><ele>207.0</ele><time>2026-03-28T12:12:53.039Z</time></trkpt><trkpt lat="43.2658267" lon="10.913095"><ele>207.0</ele><time>2026-03-28T12:12:54.039Z</time></trkpt><trkpt lat="43.2659883" lon="10.9131367"><ele>207.0</ele><time>2026-03-28T12:12:55.039Z</time></trkpt><trkpt lat="43.2661533" lon="10.9131983"><ele>207.0</ele><time>2026-03-28T12:12:56.039Z</time></trkpt><trkpt lat="43.2663417" lon="10.9132533"><ele>207.0</ele><time>2026-03-28T12:12:57.038Z</time></trkpt><trkpt lat="43.2665083" lon="10.91332"><ele>207.0</ele><time>2026-03-28T12:12:58.039Z</time></trkpt><trkpt lat="43.266655" lon="10.913415"><ele>210.0</ele><time>2026-03-28T12:12:59.039Z</time></trkpt><trkpt lat="43.266805" lon="10.9134717"><ele>213.0</ele><time>2026-03-28T12:13:00.039Z</time></trkpt><trkpt lat="43.2669717" lon="10.9134667"><ele>216.0</ele><time>2026-03-28T12:13:01.039Z</time></trkpt><trkpt lat="43.2671667" lon="10.9134217"><ele>207.0</ele><time>2026-03-28T12:13:02.039Z</time></trkpt><trkpt lat="43.2673567" lon="10.9133867"><ele>198.0</ele><time>2026-03-28T12:13:03.039Z</time></trkpt><trkpt lat="43.267535" lon="10.91337"><ele>189.0</ele><time>2026-03-28T12:13:04.038Z</time></trkpt><trkpt lat="43.2677133" lon="10.913345"><ele>189.0</ele><time>2026-03-28T12:13:05.039Z</time></trkpt><trkpt lat="43.2678633" lon="10.9133117"><ele>189.0</ele><time>2026-03-28T12:13:06.039Z</time></trkpt><trkpt lat="43.2679967" lon="10.913225"><ele>189.0</ele><time>2026-03-28T12:13:07.039Z</time></trkpt><trkpt lat="43.2680983" lon="10.9131017"><ele>189.0</ele><time>2026-03-28T12:13:08.039Z</time></trkpt><trkpt lat="43.2681633" lon="10.91294"><ele>188.25</ele><time>2026-03-28T12:13:09.038Z</time></trkpt><trkpt lat="43.268165" lon="10.91278"><ele>187.5</ele><time>2026-03-28T12:13:10.039Z</time></trkpt><trkpt lat="43.2681433" lon="10.9126083"><ele>186.75</ele><time>2026-03-28T12:13:11.039Z</time></trkpt><trkpt lat="43.2680967" lon="10.9124267"><ele>186.0</ele><time>2026-03-28T12:13:12.039Z</time></trkpt><trkpt lat="43.268045" lon="10.91222"><ele>185.0</ele><time>2026-03-28T12:13:13.039Z</time></trkpt><trkpt lat="43.26797" lon="10.91202"><ele>184.0</ele><time>2026-03-28T12:13:14.039Z</time></trkpt><trkpt lat="43.2678683" lon="10.9118567"><ele>183.0</ele><time>2026-03-28T12:13:15.039Z</time></trkpt><trkpt lat="43.2677283" lon="10.9117283"><ele>184.33333333333334</ele><time>2026-03-28T12:13:16.039Z</time></trkpt><trkpt lat="43.26758" lon="10.9116283"><ele>185.66666666666669</ele><time>2026-03-28T12:13:17.039Z</time></trkpt><trkpt lat="43.267415" lon="10.911525"><ele>187.0</ele><time>2026-03-28T12:13:18.039Z</time></trkpt><trkpt lat="43.2672383" lon="10.9114067"><ele>187.0</ele><time>2026-03-28T12:13:19.039Z</time></trkpt><trkpt lat="43.26707" lon="10.9112783"><ele>187.0</ele><time>2026-03-28T12:13:20.039Z</time></trkpt><trkpt lat="43.2669033" lon="10.911155"><ele>187.0</ele><time>2026-03-28T12:13:21.039Z</time></trkpt><trkpt lat="43.2667283" lon="10.91104"><ele>187.0</ele><time>2026-03-28T12:13:22.039Z</time></trkpt><trkpt lat="43.266575" lon="10.91092"><ele>187.0</ele><time>2026-03-28T12:13:23.039Z</time></trkpt><trkpt lat="43.2664333" lon="10.91082"><ele>187.0</ele><time>2026-03-28T12:13:24.039Z</time></trkpt><trkpt lat="43.2663083" lon="10.9107233"><ele>188.5</ele><time>2026-03-28T12:13:25.038Z</time></trkpt><trkpt lat="43.2661917" lon="10.9106233"><ele>190.0</ele><time>2026-03-28T12:13:26.038Z</time></trkpt><trkpt lat="43.2660967" lon="10.9105017"><ele>191.5</ele><time>2026-03-28T12:13:27.039Z</time></trkpt><trkpt lat="43.266015" lon="10.9103617"><ele>193.0</ele><time>2026-03-28T12:13:28.039Z</time></trkpt><trkpt lat="43.2659667" lon="10.9102033"><ele>196.33333333333331</ele><time>2026-03-28T12:13:29.039Z</time></trkpt><trkpt lat="43.265935" lon="10.91001"><ele>199.66666666666669</ele><time>2026-03-28T12:13:30.038Z</time></trkpt><trkpt lat="43.2658983" lon="10.9097967"><ele>203.0</ele><time>2026-03-28T12:13:31.039Z</time></trkpt><trkpt lat="43.265855" lon="10.909565"><ele>203.0</ele><time>2026-03-28T12:13:32.039Z</time></trkpt><trkpt lat="43.2658083" lon="10.9093317"><ele>203.0</ele><time>2026-03-28T12:13:33.039Z</time></trkpt><trkpt lat="43.2657633" lon="10.9091017"><ele>203.0</ele><time>2026-03-28T12:13:34.039Z</time></trkpt><trkpt lat="43.2657233" lon="10.9088783"><ele>205.66666666666669</ele><time>2026-03-28T12:13:35.039Z</time></trkpt><trkpt lat="43.2657133" lon="10.9086533"><ele>208.33333333333331</ele><time>2026-03-28T12:13:36.039Z</time></trkpt><trkpt lat="43.2657233" lon="10.9084267"><ele>211.0</ele><time>2026-03-28T12:13:37.039Z</time></trkpt><trkpt lat="43.2657167" lon="10.9082"><ele>210.5</ele><time>2026-03-28T12:13:38.039Z</time></trkpt><trkpt lat="43.2656917" lon="10.9079767"><ele>210.0</ele><time>2026-03-28T12:13:39.039Z</time></trkpt><trkpt lat="43.2656433" lon="10.907785"><ele>209.5</ele><time>2026-03-28T12:13:40.039Z</time></trkpt><trkpt lat="43.2656017" lon="10.907635"><ele>209.0</ele><time>2026-03-28T12:13:41.039Z</time></trkpt><trkpt lat="43.2655933" lon="10.907505"><ele>210.39999999999998</ele><time>2026-03-28T12:13:42.039Z</time></trkpt><trkpt lat="43.2656133" lon="10.9074117"><ele>211.8</ele><time>2026-03-28T12:13:43.039Z</time></trkpt><trkpt lat="43.265725" lon="10.9073733"><ele>213.20000000000002</ele><time>2026-03-28T12:13:45.039Z</time></trkpt><trkpt lat="43.2658167" lon="10.9074367"><ele>214.60000000000002</ele><time>2026-03-28T12:13:46.039Z</time></trkpt><trkpt lat="43.2659417" lon="10.9075583"><ele>216.0</ele><time>2026-03-28T12:13:47.039Z</time></trkpt><trkpt lat="43.2660883" lon="10.9077267"><ele>216.0</ele><time>2026-03-28T12:13:48.038Z</time></trkpt><trkpt lat="43.2662633" lon="10.9079083"><ele>216.0</ele><time>2026-03-28T12:13:49.039Z</time></trkpt><trkpt lat="43.2664" lon="10.9080633"><ele>216.0</ele><time>2026-03-28T12:13:50.038Z</time></trkpt><trkpt lat="43.2665183" lon="10.9081583"><ele>218.83333333333334</ele><time>2026-03-28T12:13:51.039Z</time></trkpt><trkpt lat="43.2666167" lon="10.9081767"><ele>221.66666666666669</ele><time>2026-03-28T12:13:52.039Z</time></trkpt><trkpt lat="43.2667033" lon="10.908165"><ele>224.5</ele><time>2026-03-28T12:13:53.038Z</time></trkpt><trkpt lat="43.2667833" lon="10.908115"><ele>227.33333333333334</ele><time>2026-03-28T12:13:54.039Z</time></trkpt><trkpt lat="43.26682" lon="10.908025"><ele>230.16666666666669</ele><time>2026-03-28T12:13:55.038Z</time></trkpt><trkpt lat="43.266825" lon="10.9079083"><ele>233.0</ele><time>2026-03-28T12:13:56.039Z</time></trkpt><trkpt lat="43.266785" lon="10.9077833"><ele>233.0</ele><time>2026-03-28T12:13:57.039Z</time></trkpt><trkpt lat="43.2666967" lon="10.9076467"><ele>233.0</ele><time>2026-03-28T12:13:58.039Z</time></trkpt><trkpt lat="43.2665383" lon="10.9074783"><ele>233.0</ele><time>2026-03-28T12:13:59.038Z</time></trkpt><trkpt lat="43.2663317" lon="10.9072733"><ele>230.0</ele><time>2026-03-28T12:14:00.039Z</time></trkpt><trkpt lat="43.2661683" lon="10.9070883"><ele>227.0</ele><time>2026-03-28T12:14:01.039Z</time></trkpt><trkpt lat="43.26602" lon="10.906955"><ele>224.0</ele><time>2026-03-28T12:14:02.039Z</time></trkpt><trkpt lat="43.2659517" lon="10.9068517"><ele>224.0</ele><time>2026-03-28T12:14:03.039Z</time></trkpt><trkpt lat="43.26592" lon="10.9067517"><ele>224.0</ele><time>2026-03-28T12:14:04.039Z</time></trkpt><trkpt lat="43.265965" lon="10.9066333"><ele>224.0</ele><time>2026-03-28T12:14:06.038Z</time></trkpt><trkpt lat="43.2661067" lon="10.90672"><ele>224.0</ele><time>2026-03-28T12:14:08.038Z</time></trkpt><trkpt lat="43.2662233" lon="10.9068267"><ele>224.0</ele><time>2026-03-28T12:14:09.039Z</time></trkpt><trkpt lat="43.2663583" lon="10.90697"><ele>224.0</ele><time>2026-03-28T12:14:10.038Z</time></trkpt><trkpt lat="43.2664983" lon="10.9071317"><ele>224.0</ele><time>2026-03-28T12:14:11.039Z</time></trkpt><trkpt lat="43.2666117" lon="10.907275"><ele>227.6</ele><time>2026-03-28T12:14:12.039Z</time></trkpt><trkpt lat="43.2667033" lon="10.907375"><ele>231.2</ele><time>2026-03-28T12:14:13.039Z</time></trkpt><trkpt lat="43.2667867" lon="10.90743"><ele>234.79999999999998</ele><time>2026-03-28T12:14:14.039Z</time></trkpt><trkpt lat="43.26686" lon="10.9074267"><ele>238.39999999999998</ele><time>2026-03-28T12:14:15.039Z</time></trkpt><trkpt lat="43.2669283" lon="10.907325"><ele>242.0</ele><time>2026-03-28T12:14:17.039Z</time></trkpt><trkpt lat="43.2668967" lon="10.9072333"><ele>242.0</ele><time>2026-03-28T12:14:18.038Z</time></trkpt><trkpt lat="43.2668133" lon="10.9071083"><ele>242.0</ele><time>2026-03-28T12:14:19.038Z</time></trkpt><trkpt lat="43.2666983" lon="10.9069467"><ele>242.0</ele><time>2026-03-28T12:14:20.038Z</time></trkpt><trkpt lat="43.26657" lon="10.9067417"><ele>240.33333333333334</ele><time>2026-03-28T12:14:21.039Z</time></trkpt><trkpt lat="43.2664433" lon="10.9065133"><ele>238.66666666666669</ele><time>2026-03-28T12:14:22.039Z</time></trkpt><trkpt lat="43.2663733" lon="10.9063017"><ele>237.0</ele><time>2026-03-28T12:14:23.039Z</time></trkpt><trkpt lat="43.2663383" lon="10.90608"><ele>239.33333333333331</ele><time>2026-03-28T12:14:24.039Z</time></trkpt><trkpt lat="43.2663183" lon="10.9058583"><ele>241.66666666666666</ele><time>2026-03-28T12:14:25.039Z</time></trkpt><trkpt lat="43.2663183" lon="10.9056267"><ele>244.0</ele><time>2026-03-28T12:14:26.039Z</time></trkpt><trkpt lat="43.2663467" lon="10.9053917"><ele>244.0</ele><time>2026-03-28T12:14:27.039Z</time></trkpt><trkpt lat="43.266375" lon="10.9051517"><ele>244.0</ele><time>2026-03-28T12:14:28.038Z</time></trkpt><trkpt lat="43.26641" lon="10.904935"><ele>244.0</ele><time>2026-03-28T12:14:29.039Z</time></trkpt><trkpt lat="43.2664683" lon="10.9047167"><ele>249.0</ele><time>2026-03-28T12:14:30.038Z</time></trkpt><trkpt lat="43.2665383" lon="10.90451"><ele>254.0</ele><time>2026-03-28T12:14:31.039Z</time></trkpt><trkpt lat="43.26663" lon="10.90431"><ele>259.0</ele><time>2026-03-28T12:14:32.039Z</time></trkpt><trkpt lat="43.2667533" lon="10.9041283"><ele>259.0</ele><time>2026-03-28T12:14:33.039Z</time></trkpt><trkpt lat="43.2668917" lon="10.9039833"><ele>259.0</ele><time>2026-03-28T12:14:34.039Z</time></trkpt><trkpt lat="43.267045" lon="10.9038533"><ele>259.0</ele><time>2026-03-28T12:14:35.039Z</time></trkpt><trkpt lat="43.2672083" lon="10.9037167"><ele>261.66666666666663</ele><time>2026-03-28T12:14:36.039Z</time></trkpt><trkpt lat="43.2673617" lon="10.90357"><ele>264.3333333333333</ele><time>2026-03-28T12:14:37.039Z</time></trkpt><trkpt lat="43.2675117" lon="10.903405"><ele>267.0</ele><time>2026-03-28T12:14:38.039Z</time></trkpt><trkpt lat="43.2676617" lon="10.90323"><ele>267.0</ele><time>2026-03-28T12:14:39.039Z</time></trkpt><trkpt lat="43.2678033" lon="10.9030583"><ele>267.0</ele><time>2026-03-28T12:14:40.039Z</time></trkpt><trkpt lat="43.26794" lon="10.902915"><ele>267.0</ele><time>2026-03-28T12:14:41.039Z</time></trkpt><trkpt lat="43.2680617" lon="10.902815"><ele>270.25</ele><time>2026-03-28T12:14:42.039Z</time></trkpt><trkpt lat="43.268195" lon="10.90278"><ele>273.5</ele><time>2026-03-28T12:14:43.039Z</time></trkpt><trkpt lat="43.2683333" lon="10.90277"><ele>276.75</ele><time>2026-03-28T12:14:44.039Z</time></trkpt><trkpt lat="43.268485" lon="10.9027383"><ele>280.0</ele><time>2026-03-28T12:14:45.039Z</time></trkpt><trkpt lat="43.2686433" lon="10.9026467"><ele>280.3333333333333</ele><time>2026-03-28T12:14:46.039Z</time></trkpt><trkpt lat="43.2687833" lon="10.9024817"><ele>280.6666666666667</ele><time>2026-03-28T12:14:47.039Z</time></trkpt><trkpt lat="43.26892" lon="10.9023083"><ele>281.0</ele><time>2026-03-28T12:14:48.039Z</time></trkpt><trkpt lat="43.2690633" lon="10.9021417"><ele>281.0</ele><time>2026-03-28T12:14:49.039Z</time></trkpt><trkpt lat="43.269215" lon="10.90197"><ele>281.0</ele><time>2026-03-28T12:14:50.039Z</time></trkpt><trkpt lat="43.269365" lon="10.9017883"><ele>281.0</ele><time>2026-03-28T12:14:51.039Z</time></trkpt><trkpt lat="43.2695167" lon="10.9016"><ele>282.33333333333337</ele><time>2026-03-28T12:14:52.039Z</time></trkpt><trkpt lat="43.26966" lon="10.90143"><ele>283.6666666666667</ele><time>2026-03-28T12:14:53.039Z</time></trkpt><trkpt lat="43.26979" lon="10.90128"><ele>285.0</ele><time>2026-03-28T12:14:54.039Z</time></trkpt><trkpt lat="43.2699033" lon="10.9011183"><ele>285.0</ele><time>2026-03-28T12:14:55.039Z</time></trkpt><trkpt lat="43.2699933" lon="10.9009283"><ele>285.0</ele><time>2026-03-28T12:14:56.039Z</time></trkpt><trkpt lat="43.270065" lon="10.9007133"><ele>285.0</ele><time>2026-03-28T12:14:57.038Z</time></trkpt><trkpt lat="43.270135" lon="10.90052"><ele>282.0</ele><time>2026-03-28T12:14:58.039Z</time></trkpt><trkpt lat="43.27023" lon="10.9003717"><ele>279.0</ele><time>2026-03-28T12:14:59.039Z</time></trkpt><trkpt lat="43.2703617" lon="10.9002683"><ele>276.0</ele><time>2026-03-28T12:15:00.038Z</time></trkpt><trkpt lat="43.27052" lon="10.9001933"><ele>277.3333333333333</ele><time>2026-03-28T12:15:01.039Z</time></trkpt><trkpt lat="43.2706767" lon="10.9001183"><ele>278.66666666666663</ele><time>2026-03-28T12:15:02.038Z</time></trkpt><trkpt lat="43.270815" lon="10.8999917"><ele>280.0</ele><time>2026-03-28T12:15:03.039Z</time></trkpt><trkpt lat="43.270945" lon="10.8998167"><ele>280.0</ele><time>2026-03-28T12:15:04.038Z</time></trkpt><trkpt lat="43.27107" lon="10.8996483"><ele>280.0</ele><time>2026-03-28T12:15:05.038Z</time></trkpt><trkpt lat="43.27121" lon="10.89949"><ele>280.0</ele><time>2026-03-28T12:15:06.039Z</time></trkpt><trkpt lat="43.2713517" lon="10.8993667"><ele>280.3333333333333</ele><time>2026-03-28T12:15:07.039Z</time></trkpt><trkpt lat="43.2715133" lon="10.8992567"><ele>280.6666666666667</ele><time>2026-03-28T12:15:08.039Z</time></trkpt><trkpt lat="43.271685" lon="10.8991517"><ele>281.0</ele><time>2026-03-28T12:15:09.038Z</time></trkpt><trkpt lat="43.2718583" lon="10.8990533"><ele>281.0</ele><time>2026-03-28T12:15:10.038Z</time></trkpt><trkpt lat="43.27204" lon="10.8989633"><ele>281.0</ele><time>2026-03-28T12:15:11.039Z</time></trkpt><trkpt lat="43.2722267" lon="10.8988817"><ele>281.0</ele><time>2026-03-28T12:15:12.038Z</time></trkpt><trkpt lat="43.27242" lon="10.898795"><ele>281.33333333333337</ele><time>2026-03-28T12:15:13.039Z</time></trkpt><trkpt lat="43.272605" lon="10.8987167"><ele>281.6666666666667</ele><time>2026-03-28T12:15:14.039Z</time></trkpt><trkpt lat="43.27277" lon="10.8986"><ele>282.0</ele><time>2026-03-28T12:15:15.039Z</time></trkpt><trkpt lat="43.2729217" lon="10.8984333"><ele>280.3333333333333</ele><time>2026-03-28T12:15:16.039Z</time></trkpt><trkpt lat="43.2730517" lon="10.89823"><ele>278.66666666666663</ele><time>2026-03-28T12:15:17.039Z</time></trkpt><trkpt lat="43.2731717" lon="10.898005"><ele>277.0</ele><time>2026-03-28T12:15:18.039Z</time></trkpt><trkpt lat="43.2732867" lon="10.897775"><ele>277.3333333333333</ele><time>2026-03-28T12:15:19.038Z</time></trkpt><trkpt lat="43.273405" lon="10.8975517"><ele>277.6666666666667</ele><time>2026-03-28T12:15:20.039Z</time></trkpt><trkpt lat="43.2735117" lon="10.8973117"><ele>278.0</ele><time>2026-03-28T12:15:21.039Z</time></trkpt><trkpt lat="43.2736017" lon="10.8970533"><ele>278.0</ele><time>2026-03-28T12:15:22.039Z</time></trkpt><trkpt lat="43.2736967" lon="10.8967983"><ele>278.0</ele><time>2026-03-28T12:15:23.039Z</time></trkpt><trkpt lat="43.2738083" lon="10.896545"><ele>278.0</ele><time>2026-03-28T12:15:24.039Z</time></trkpt><trkpt lat="43.2739183" lon="10.89628"><ele>278.5</ele><time>2026-03-28T12:15:25.039Z</time></trkpt><trkpt lat="43.2740283" lon="10.8960083"><ele>279.0</ele><time>2026-03-28T12:15:26.039Z</time></trkpt><trkpt lat="43.2741483" lon="10.8957483"><ele>279.0</ele><time>2026-03-28T12:15:27.039Z</time></trkpt><trkpt lat="43.274255" lon="10.8955"><ele>279.0</ele><time>2026-03-28T12:15:28.039Z</time></trkpt><trkpt lat="43.27437" lon="10.8952333"><ele>279.0</ele><time>2026-03-28T12:15:29.039Z</time></trkpt><trkpt lat="43.2744717" lon="10.8949933"><ele>280.3333333333333</ele><time>2026-03-28T12:15:30.039Z</time></trkpt><trkpt lat="43.274585" lon="10.894755"><ele>281.66666666666663</ele><time>2026-03-28T12:15:31.039Z</time></trkpt><trkpt lat="43.2746817" lon="10.8945383"><ele>283.0</ele><time>2026-03-28T12:15:32.039Z</time></trkpt><trkpt lat="43.2747633" lon="10.8943367"><ele>282.6</ele><time>2026-03-28T12:15:33.039Z</time></trkpt><trkpt lat="43.2748333" lon="10.8941667"><ele>282.20000000000005</ele><time>2026-03-28T12:15:34.039Z</time></trkpt><trkpt lat="43.2749" lon="10.894035"><ele>281.8</ele><time>2026-03-28T12:15:35.039Z</time></trkpt><trkpt lat="43.274965" lon="10.893935"><ele>281.40000000000003</ele><time>2026-03-28T12:15:36.039Z</time></trkpt><trkpt lat="43.275035" lon="10.8938633"><ele>281.0</ele><time>2026-03-28T12:15:37.039Z</time></trkpt><trkpt lat="43.275105" lon="10.8938167"><ele>281.0</ele><time>2026-03-28T12:15:38.039Z</time></trkpt><trkpt lat="43.2751783" lon="10.8938067"><ele>281.0</ele><time>2026-03-28T12:15:39.039Z</time></trkpt><trkpt lat="43.2752767" lon="10.8938483"><ele>281.0</ele><time>2026-03-28T12:15:40.039Z</time></trkpt><trkpt lat="43.27541" lon="10.8939267"><ele>281.0</ele><time>2026-03-28T12:15:41.039Z</time></trkpt><trkpt lat="43.275565" lon="10.8940183"><ele>280.6666666666667</ele><time>2026-03-28T12:15:42.039Z</time></trkpt><trkpt lat="43.2757283" lon="10.89411"><ele>280.3333333333333</ele><time>2026-03-28T12:15:43.039Z</time></trkpt><trkpt lat="43.2759083" lon="10.8941967"><ele>280.0</ele><time>2026-03-28T12:15:44.039Z</time></trkpt><trkpt lat="43.2760967" lon="10.8942583"><ele>280.0</ele><time>2026-03-28T12:15:45.039Z</time></trkpt><trkpt lat="43.27628" lon="10.8942867"><ele>280.0</ele><time>2026-03-28T12:15:46.039Z</time></trkpt><trkpt lat="43.2764783" lon="10.8942833"><ele>280.0</ele><time>2026-03-28T12:15:47.039Z</time></trkpt><trkpt lat="43.27668" lon="10.8942383"><ele>280.3333333333333</ele><time>2026-03-28T12:15:48.039Z</time></trkpt><trkpt lat="43.2768917" lon="10.8941683"><ele>280.6666666666667</ele><time>2026-03-28T12:15:49.039Z</time></trkpt><trkpt lat="43.277095" lon="10.8940783"><ele>281.0</ele><time>2026-03-28T12:15:50.039Z</time></trkpt><trkpt lat="43.2772967" lon="10.8940017"><ele>281.0</ele><time>2026-03-28T12:15:51.039Z</time></trkpt><trkpt lat="43.2774917" lon="10.8939217"><ele>281.0</ele><time>2026-03-28T12:15:52.039Z</time></trkpt><trkpt lat="43.2776833" lon="10.8938583"><ele>281.0</ele><time>2026-03-28T12:15:53.039Z</time></trkpt><trkpt lat="43.2778817" lon="10.8937967"><ele>281.0</ele><time>2026-03-28T12:15:54.038Z</time></trkpt><trkpt lat="43.2780783" lon="10.8937217"><ele>281.0</ele><time>2026-03-28T12:15:55.039Z</time></trkpt><trkpt lat="43.2782717" lon="10.8936417"><ele>281.0</ele><time>2026-03-28T12:15:56.039Z</time></trkpt><trkpt lat="43.2784567" lon="10.8935683"><ele>281.33333333333337</ele><time>2026-03-28T12:15:57.038Z</time></trkpt><trkpt lat="43.2786383" lon="10.8935183"><ele>281.6666666666667</ele><time>2026-03-28T12:15:58.039Z</time></trkpt><trkpt lat="43.2788233" lon="10.89344"><ele>282.0</ele><time>2026-03-28T12:15:59.039Z</time></trkpt><trkpt lat="43.2790083" lon="10.8933433"><ele>282.0</ele><time>2026-03-28T12:16:00.039Z</time></trkpt><trkpt lat="43.279185" lon="10.8932183"><ele>282.0</ele><time>2026-03-28T12:16:01.039Z</time></trkpt><trkpt lat="43.279355" lon="10.8930783"><ele>282.0</ele><time>2026-03-28T12:16:02.039Z</time></trkpt><trkpt lat="43.2795333" lon="10.8929483"><ele>282.0</ele><time>2026-03-28T12:16:03.039Z</time></trkpt><trkpt lat="43.2797183" lon="10.8928383"><ele>282.0</ele><time>2026-03-28T12:16:04.039Z</time></trkpt><trkpt lat="43.2799117" lon="10.8927617"><ele>282.0</ele><time>2026-03-28T12:16:05.038Z</time></trkpt><trkpt lat="43.2800983" lon="10.89272"><ele>281.6666666666667</ele><time>2026-03-28T12:16:06.039Z</time></trkpt><trkpt lat="43.2802833" lon="10.8926767"><ele>281.33333333333337</ele><time>2026-03-28T12:16:07.039Z</time></trkpt><trkpt lat="43.28046" lon="10.8926267"><ele>281.0</ele><time>2026-03-28T12:16:08.039Z</time></trkpt><trkpt lat="43.2806367" lon="10.8925333"><ele>285.0</ele><time>2026-03-28T12:16:09.039Z</time></trkpt><trkpt lat="43.2807933" lon="10.8924183"><ele>289.0</ele><time>2026-03-28T12:16:10.039Z</time></trkpt><trkpt lat="43.2809333" lon="10.892245"><ele>293.0</ele><time>2026-03-28T12:16:11.039Z</time></trkpt><trkpt lat="43.281065" lon="10.89206"><ele>293.0</ele><time>2026-03-28T12:16:12.039Z</time></trkpt><trkpt lat="43.2811817" lon="10.8918633"><ele>293.0</ele><time>2026-03-28T12:16:13.039Z</time></trkpt><trkpt lat="43.2812967" lon="10.8916767"><ele>293.0</ele><time>2026-03-28T12:16:14.039Z</time></trkpt><trkpt lat="43.281425" lon="10.89152"><ele>294.33333333333337</ele><time>2026-03-28T12:16:15.039Z</time></trkpt><trkpt lat="43.281585" lon="10.8913883"><ele>295.6666666666667</ele><time>2026-03-28T12:16:16.039Z</time></trkpt><trkpt lat="43.28175" lon="10.891285"><ele>297.0</ele><time>2026-03-28T12:16:17.039Z</time></trkpt><trkpt lat="43.2819417" lon="10.891215"><ele>297.0</ele><time>2026-03-28T12:16:18.039Z</time></trkpt><trkpt lat="43.2821467" lon="10.8911417"><ele>297.0</ele><time>2026-03-28T12:16:19.039Z</time></trkpt><trkpt lat="43.28236" lon="10.89107"><ele>297.0</ele><time>2026-03-28T12:16:20.039Z</time></trkpt><trkpt lat="43.2825633" lon="10.890995"><ele>298.0</ele><time>2026-03-28T12:16:21.038Z</time></trkpt><trkpt lat="43.2827467" lon="10.8909267"><ele>299.0</ele><time>2026-03-28T12:16:22.039Z</time></trkpt><trkpt lat="43.2829167" lon="10.8908867"><ele>300.0</ele><time>2026-03-28T12:16:23.039Z</time></trkpt><trkpt lat="43.2830767" lon="10.8908683"><ele>303.0</ele><time>2026-03-28T12:16:24.039Z</time></trkpt><trkpt lat="43.2832433" lon="10.8908633"><ele>306.0</ele><time>2026-03-28T12:16:25.039Z</time></trkpt><trkpt lat="43.2834167" lon="10.8908817"><ele>309.0</ele><time>2026-03-28T12:16:26.039Z</time></trkpt><trkpt lat="43.2835983" lon="10.89091"><ele>308.0</ele><time>2026-03-28T12:16:27.039Z</time></trkpt><trkpt lat="43.2837867" lon="10.890945"><ele>307.0</ele><time>2026-03-28T12:16:28.039Z</time></trkpt><trkpt lat="43.2839883" lon="10.8909817"><ele>306.0</ele><time>2026-03-28T12:16:29.039Z</time></trkpt><trkpt lat="43.284195" lon="10.8910017"><ele>306.0</ele><time>2026-03-28T12:16:30.039Z</time></trkpt><trkpt lat="43.2844" lon="10.8909867"><ele>306.0</ele><time>2026-03-28T12:16:31.039Z</time></trkpt><trkpt lat="43.28462" lon="10.890915"><ele>306.0</ele><time>2026-03-28T12:16:32.039Z</time></trkpt><trkpt lat="43.28484" lon="10.8908083"><ele>308.6666666666667</ele><time>2026-03-28T12:16:33.039Z</time></trkpt><trkpt lat="43.2850467" lon="10.8907133"><ele>311.33333333333337</ele><time>2026-03-28T12:16:34.039Z</time></trkpt><trkpt lat="43.2852583" lon="10.8906317"><ele>314.0</ele><time>2026-03-28T12:16:35.039Z</time></trkpt><trkpt lat="43.2854683" lon="10.8905467"><ele>314.6666666666667</ele><time>2026-03-28T12:16:36.039Z</time></trkpt><trkpt lat="43.2856633" lon="10.890465"><ele>315.3333333333333</ele><time>2026-03-28T12:16:37.039Z</time></trkpt><trkpt lat="43.2858567" lon="10.890375"><ele>316.0</ele><time>2026-03-28T12:16:38.039Z</time></trkpt><trkpt lat="43.2860283" lon="10.8902717"><ele>316.0</ele><time>2026-03-28T12:16:39.039Z</time></trkpt><trkpt lat="43.2861867" lon="10.8901083"><ele>316.0</ele><time>2026-03-28T12:16:40.038Z</time></trkpt><trkpt lat="43.28631" lon="10.8899017"><ele>316.0</ele><time>2026-03-28T12:16:41.038Z</time></trkpt><trkpt lat="43.2864017" lon="10.889685"><ele>317.3333333333333</ele><time>2026-03-28T12:16:42.039Z</time></trkpt><trkpt lat="43.2864567" lon="10.889465"><ele>318.6666666666667</ele><time>2026-03-28T12:16:43.039Z</time></trkpt><trkpt lat="43.2864933" lon="10.8892183"><ele>320.0</ele><time>2026-03-28T12:16:44.039Z</time></trkpt><trkpt lat="43.2865033" lon="10.8889533"><ele>320.0</ele><time>2026-03-28T12:16:45.039Z</time></trkpt><trkpt lat="43.2864617" lon="10.88871"><ele>320.0</ele><time>2026-03-28T12:16:46.038Z</time></trkpt><trkpt lat="43.286385" lon="10.8884833"><ele>320.0</ele><time>2026-03-28T12:16:47.039Z</time></trkpt><trkpt lat="43.28627" lon="10.8882667"><ele>319.0</ele><time>2026-03-28T12:16:48.038Z</time></trkpt><trkpt lat="43.2861583" lon="10.88806"><ele>318.0</ele><time>2026-03-28T12:16:49.039Z</time></trkpt><trkpt lat="43.286035" lon="10.88785"><ele>317.0</ele><time>2026-03-28T12:16:50.038Z</time></trkpt><trkpt lat="43.28595" lon="10.8876283"><ele>319.0</ele><time>2026-03-28T12:16:51.039Z</time></trkpt><trkpt lat="43.2859133" lon="10.8873967"><ele>321.0</ele><time>2026-03-28T12:16:52.039Z</time></trkpt><trkpt lat="43.2858883" lon="10.8871533"><ele>323.0</ele><time>2026-03-28T12:16:53.038Z</time></trkpt><trkpt lat="43.2859133" lon="10.8869067"><ele>323.0</ele><time>2026-03-28T12:16:54.039Z</time></trkpt><trkpt lat="43.2859467" lon="10.8866867"><ele>323.0</ele><time>2026-03-28T12:16:55.039Z</time></trkpt><trkpt lat="43.2860133" lon="10.8864633"><ele>323.0</ele><time>2026-03-28T12:16:56.038Z</time></trkpt><trkpt lat="43.2861183" lon="10.8862683"><ele>323.0</ele><time>2026-03-28T12:16:57.039Z</time></trkpt><trkpt lat="43.28625" lon="10.88608"><ele>323.0</ele><time>2026-03-28T12:16:58.038Z</time></trkpt><trkpt lat="43.2863967" lon="10.88589"><ele>323.0</ele><time>2026-03-28T12:16:59.039Z</time></trkpt><trkpt lat="43.2865483" lon="10.8857133"><ele>325.6666666666667</ele><time>2026-03-28T12:17:00.039Z</time></trkpt><trkpt lat="43.2866933" lon="10.88556"><ele>328.3333333333333</ele><time>2026-03-28T12:17:01.039Z</time></trkpt><trkpt lat="43.28684" lon="10.8854233"><ele>331.0</ele><time>2026-03-28T12:17:02.039Z</time></trkpt><trkpt lat="43.28699" lon="10.8852967"><ele>331.0</ele><time>2026-03-28T12:17:03.039Z</time></trkpt><trkpt lat="43.2871483" lon="10.8851717"><ele>331.0</ele><time>2026-03-28T12:17:04.039Z</time></trkpt><trkpt lat="43.2872967" lon="10.8850517"><ele>331.0</ele><time>2026-03-28T12:17:05.039Z</time></trkpt><trkpt lat="43.2874367" lon="10.88492"><ele>330.66666666666663</ele><time>2026-03-28T12:17:06.039Z</time></trkpt><trkpt lat="43.2875667" lon="10.8847933"><ele>330.3333333333333</ele><time>2026-03-28T12:17:07.039Z</time></trkpt><trkpt lat="43.2876817" lon="10.8846417"><ele>330.0</ele><time>2026-03-28T12:17:08.039Z</time></trkpt><trkpt lat="43.2877717" lon="10.88448"><ele>330.0</ele><time>2026-03-28T12:17:09.039Z</time></trkpt><trkpt lat="43.2878533" lon="10.88434"><ele>330.0</ele><time>2026-03-28T12:17:10.039Z</time></trkpt><trkpt lat="43.28795" lon="10.88422"><ele>330.0</ele><time>2026-03-28T12:17:11.039Z</time></trkpt><trkpt lat="43.2880717" lon="10.8841033"><ele>330.0</ele><time>2026-03-28T12:17:12.039Z</time></trkpt><trkpt lat="43.2882133" lon="10.8840033"><ele>328.6666666666667</ele><time>2026-03-28T12:17:13.039Z</time></trkpt><trkpt lat="43.28837" lon="10.883905"><ele>327.33333333333337</ele><time>2026-03-28T12:17:14.039Z</time></trkpt><trkpt lat="43.28851" lon="10.8837933"><ele>326.0</ele><time>2026-03-28T12:17:15.039Z</time></trkpt><trkpt lat="43.2886483" lon="10.88366"><ele>326.0</ele><time>2026-03-28T12:17:16.039Z</time></trkpt><trkpt lat="43.2887567" lon="10.8835117"><ele>326.0</ele><time>2026-03-28T12:17:17.039Z</time></trkpt><trkpt lat="43.288835" lon="10.8833333"><ele>326.0</ele><time>2026-03-28T12:17:18.039Z</time></trkpt><trkpt lat="43.2888783" lon="10.8831283"><ele>323.0</ele><time>2026-03-28T12:17:19.039Z</time></trkpt><trkpt lat="43.2888933" lon="10.8828983"><ele>320.0</ele><time>2026-03-28T12:17:20.039Z</time></trkpt><trkpt lat="43.288905" lon="10.8826717"><ele>317.0</ele><time>2026-03-28T12:17:21.039Z</time></trkpt><trkpt lat="43.288895" lon="10.8824367"><ele>315.33333333333337</ele><time>2026-03-28T12:17:22.039Z</time></trkpt><trkpt lat="43.2888583" lon="10.8822133"><ele>313.6666666666667</ele><time>2026-03-28T12:17:23.039Z</time></trkpt><trkpt lat="43.28879" lon="10.8820117"><ele>312.0</ele><time>2026-03-28T12:17:24.039Z</time></trkpt><trkpt lat="43.2887117" lon="10.8818133"><ele>311.3333333333333</ele><time>2026-03-28T12:17:25.038Z</time></trkpt><trkpt lat="43.2886433" lon="10.8816"><ele>310.66666666666663</ele><time>2026-03-28T12:17:26.039Z</time></trkpt><trkpt lat="43.28858" lon="10.8813967"><ele>310.0</ele><time>2026-03-28T12:17:27.039Z</time></trkpt><trkpt lat="43.2885333" lon="10.88119"><ele>310.0</ele><time>2026-03-28T12:17:28.039Z</time></trkpt><trkpt lat="43.2885033" lon="10.8809817"><ele>310.0</ele><time>2026-03-28T12:17:29.039Z</time></trkpt><trkpt lat="43.2884783" lon="10.8807633"><ele>310.0</ele><time>2026-03-28T12:17:30.039Z</time></trkpt><trkpt lat="43.2884683" lon="10.880545"><ele>310.66666666666663</ele><time>2026-03-28T12:17:31.039Z</time></trkpt><trkpt lat="43.2884783" lon="10.8803167"><ele>311.3333333333333</ele><time>2026-03-28T12:17:32.039Z</time></trkpt><trkpt lat="43.2885117" lon="10.880095"><ele>312.0</ele><time>2026-03-28T12:17:33.039Z</time></trkpt><trkpt lat="43.28856" lon="10.87989"><ele>313.0</ele><time>2026-03-28T12:17:34.039Z</time></trkpt><trkpt lat="43.2886117" lon="10.87968"><ele>314.0</ele><time>2026-03-28T12:17:35.039Z</time></trkpt><trkpt lat="43.2886833" lon="10.87949"><ele>315.0</ele><time>2026-03-28T12:17:36.039Z</time></trkpt><trkpt lat="43.2887717" lon="10.8793"><ele>315.3333333333333</ele><time>2026-03-28T12:17:37.038Z</time></trkpt><trkpt lat="43.2888817" lon="10.8791183"><ele>315.66666666666663</ele><time>2026-03-28T12:17:38.039Z</time></trkpt><trkpt lat="43.2889917" lon="10.8789383"><ele>316.0</ele><time>2026-03-28T12:17:39.039Z</time></trkpt><trkpt lat="43.2891" lon="10.8787617"><ele>315.66666666666663</ele><time>2026-03-28T12:17:40.039Z</time></trkpt><trkpt lat="43.2892017" lon="10.8785833"><ele>315.3333333333333</ele><time>2026-03-28T12:17:41.039Z</time></trkpt><trkpt lat="43.2893017" lon="10.8784067"><ele>315.0</ele><time>2026-03-28T12:17:42.039Z</time></trkpt><trkpt lat="43.2893967" lon="10.87824"><ele>315.0</ele><time>2026-03-28T12:17:43.039Z</time></trkpt><trkpt lat="43.2895033" lon="10.8780633"><ele>315.0</ele><time>2026-03-28T12:17:44.039Z</time></trkpt><trkpt lat="43.2896017" lon="10.8778917"><ele>315.0</ele><time>2026-03-28T12:17:45.039Z</time></trkpt><trkpt lat="43.289695" lon="10.8777217"><ele>315.0</ele><time>2026-03-28T12:17:46.039Z</time></trkpt><trkpt lat="43.2897867" lon="10.8775567"><ele>315.0</ele><time>2026-03-28T12:17:47.039Z</time></trkpt><trkpt lat="43.2898833" lon="10.8774"><ele>315.0</ele><time>2026-03-28T12:17:48.039Z</time></trkpt><trkpt lat="43.2899767" lon="10.87723"><ele>315.0</ele><time>2026-03-28T12:17:49.038Z</time></trkpt><trkpt lat="43.290075" lon="10.87707"><ele>315.0</ele><time>2026-03-28T12:17:50.039Z</time></trkpt><trkpt lat="43.2901733" lon="10.8768983"><ele>315.0</ele><time>2026-03-28T12:17:51.038Z</time></trkpt><trkpt lat="43.2902617" lon="10.87673"><ele>316.0</ele><time>2026-03-28T12:17:52.039Z</time></trkpt><trkpt lat="43.29037" lon="10.87656"><ele>317.0</ele><time>2026-03-28T12:17:53.039Z</time></trkpt><trkpt lat="43.2904867" lon="10.8763983"><ele>318.0</ele><time>2026-03-28T12:17:54.039Z</time></trkpt><trkpt lat="43.2906217" lon="10.876255"><ele>318.6666666666667</ele><time>2026-03-28T12:17:55.039Z</time></trkpt><trkpt lat="43.290775" lon="10.876125"><ele>319.33333333333337</ele><time>2026-03-28T12:17:56.039Z</time></trkpt><trkpt lat="43.290935" lon="10.8760167"><ele>320.0</ele><time>2026-03-28T12:17:57.038Z</time></trkpt><trkpt lat="43.2911017" lon="10.8759417"><ele>321.33333333333337</ele><time>2026-03-28T12:17:58.039Z</time></trkpt><trkpt lat="43.29127" lon="10.8758833"><ele>322.6666666666667</ele><time>2026-03-28T12:17:59.039Z</time></trkpt><trkpt lat="43.291445" lon="10.87584"><ele>324.0</ele><time>2026-03-28T12:18:00.039Z</time></trkpt><trkpt lat="43.291615" lon="10.8757817"><ele>325.3333333333333</ele><time>2026-03-28T12:18:01.039Z</time></trkpt><trkpt lat="43.2918017" lon="10.8757033"><ele>326.66666666666663</ele><time>2026-03-28T12:18:02.039Z</time></trkpt><trkpt lat="43.2919767" lon="10.87561"><ele>328.0</ele><time>2026-03-28T12:18:03.039Z</time></trkpt><trkpt lat="43.292145" lon="10.8754983"><ele>328.0</ele><time>2026-03-28T12:18:04.039Z</time></trkpt><trkpt lat="43.2923183" lon="10.8753683"><ele>328.0</ele><time>2026-03-28T12:18:05.039Z</time></trkpt><trkpt lat="43.29248" lon="10.8752283"><ele>328.0</ele><time>2026-03-28T12:18:06.039Z</time></trkpt><trkpt lat="43.2926383" lon="10.875105"><ele>329.66666666666663</ele><time>2026-03-28T12:18:07.039Z</time></trkpt><trkpt lat="43.2927883" lon="10.8749867"><ele>331.3333333333333</ele><time>2026-03-28T12:18:08.038Z</time></trkpt><trkpt lat="43.29293" lon="10.8748767"><ele>333.0</ele><time>2026-03-28T12:18:09.039Z</time></trkpt><trkpt lat="43.2930567" lon="10.8747767"><ele>332.0</ele><time>2026-03-28T12:18:10.039Z</time></trkpt><trkpt lat="43.2931833" lon="10.8746833"><ele>331.0</ele><time>2026-03-28T12:18:11.039Z</time></trkpt><trkpt lat="43.2933" lon="10.8745883"><ele>330.0</ele><time>2026-03-28T12:18:12.039Z</time></trkpt><trkpt lat="43.2934183" lon="10.8744983"><ele>329.0</ele><time>2026-03-28T12:18:13.038Z</time></trkpt><trkpt lat="43.2935317" lon="10.8744333"><ele>329.0</ele><time>2026-03-28T12:18:14.038Z</time></trkpt><trkpt lat="43.293645" lon="10.8743683"><ele>329.0</ele><time>2026-03-28T12:18:15.039Z</time></trkpt><trkpt lat="43.2937517" lon="10.8743133"><ele>329.0</ele><time>2026-03-28T12:18:16.039Z</time></trkpt><trkpt lat="43.2938633" lon="10.8742617"><ele>329.0</ele><time>2026-03-28T12:18:17.039Z</time></trkpt><trkpt lat="43.2939783" lon="10.874225"><ele>330.75</ele><time>2026-03-28T12:18:18.039Z</time></trkpt><trkpt lat="43.2941067" lon="10.87418"><ele>332.5</ele><time>2026-03-28T12:18:19.039Z</time></trkpt><trkpt lat="43.2942333" lon="10.8741383"><ele>334.25</ele><time>2026-03-28T12:18:20.039Z</time></trkpt><trkpt lat="43.2943583" lon="10.8741083"><ele>336.0</ele><time>2026-03-28T12:18:21.039Z</time></trkpt><trkpt lat="43.29449" lon="10.87409"><ele>336.0</ele><time>2026-03-28T12:18:22.039Z</time></trkpt><trkpt lat="43.2946217" lon="10.87407"><ele>336.0</ele><time>2026-03-28T12:18:23.039Z</time></trkpt><trkpt lat="43.2947533" lon="10.8740533"><ele>336.0</ele><time>2026-03-28T12:18:24.039Z</time></trkpt><trkpt lat="43.29488" lon="10.8740267"><ele>336.0</ele><time>2026-03-28T12:18:25.039Z</time></trkpt><trkpt lat="43.2950117" lon="10.8739983"><ele>337.75</ele><time>2026-03-28T12:18:26.039Z</time></trkpt><trkpt lat="43.2951267" lon="10.8739667"><ele>339.5</ele><time>2026-03-28T12:18:27.039Z</time></trkpt><trkpt lat="43.2952483" lon="10.873935"><ele>341.25</ele><time>2026-03-28T12:18:28.039Z</time></trkpt><trkpt lat="43.295365" lon="10.873905"><ele>343.0</ele><time>2026-03-28T12:18:29.039Z</time></trkpt><trkpt lat="43.29547" lon="10.8738833"><ele>343.0</ele><time>2026-03-28T12:18:30.039Z</time></trkpt><trkpt lat="43.2955667" lon="10.8738667"><ele>343.0</ele><time>2026-03-28T12:18:31.038Z</time></trkpt><trkpt lat="43.2956517" lon="10.873875"><ele>343.0</ele><time>2026-03-28T12:18:32.039Z</time></trkpt><trkpt lat="43.29573" lon="10.8738917"><ele>343.0</ele><time>2026-03-28T12:18:33.039Z</time></trkpt><trkpt lat="43.295805" lon="10.8739267"><ele>343.0</ele><time>2026-03-28T12:18:34.039Z</time></trkpt><trkpt lat="43.2958767" lon="10.8739617"><ele>343.0</ele><time>2026-03-28T12:18:35.039Z</time></trkpt><trkpt lat="43.295945" lon="10.8739983"><ele>344.2</ele><time>2026-03-28T12:18:36.039Z</time></trkpt><trkpt lat="43.2960617" lon="10.873955"><ele>345.4</ele><time>2026-03-28T12:18:38.039Z</time></trkpt><trkpt lat="43.2961217" lon="10.87387"><ele>346.59999999999997</ele><time>2026-03-28T12:18:39.038Z</time></trkpt><trkpt lat="43.29619" lon="10.8737833"><ele>347.79999999999995</ele><time>2026-03-28T12:18:40.038Z</time></trkpt><trkpt lat="43.2962767" lon="10.8737117"><ele>349.0</ele><time>2026-03-28T12:18:41.039Z</time></trkpt><trkpt lat="43.2963917" lon="10.873665"><ele>349.5</ele><time>2026-03-28T12:18:42.039Z</time></trkpt><trkpt lat="43.2965233" lon="10.8736267"><ele>350.0</ele><time>2026-03-28T12:18:43.038Z</time></trkpt><trkpt lat="43.2966617" lon="10.873575"><ele>350.5</ele><time>2026-03-28T12:18:44.039Z</time></trkpt><trkpt lat="43.2967883" lon="10.873535"><ele>351.0</ele><time>2026-03-28T12:18:45.039Z</time></trkpt><trkpt lat="43.2968933" lon="10.8734833"><ele>352.0</ele><time>2026-03-28T12:18:46.039Z</time></trkpt><trkpt lat="43.2969883" lon="10.8734317"><ele>353.0</ele><time>2026-03-28T12:18:47.039Z</time></trkpt><trkpt lat="43.29708" lon="10.8733617"><ele>354.0</ele><time>2026-03-28T12:18:48.039Z</time></trkpt><trkpt lat="43.2971717" lon="10.8732983"><ele>355.0</ele><time>2026-03-28T12:18:49.039Z</time></trkpt><trkpt lat="43.297265" lon="10.87323"><ele>356.0</ele><time>2026-03-28T12:18:50.039Z</time></trkpt><trkpt lat="43.2973667" lon="10.8731483"><ele>356.25</ele><time>2026-03-28T12:18:51.039Z</time></trkpt><trkpt lat="43.2974633" lon="10.8730583"><ele>356.5</ele><time>2026-03-28T12:18:52.039Z</time></trkpt><trkpt lat="43.29756" lon="10.8729733"><ele>356.75</ele><time>2026-03-28T12:18:53.038Z</time></trkpt><trkpt lat="43.2976583" lon="10.8728733"><ele>357.0</ele><time>2026-03-28T12:18:54.039Z</time></trkpt><trkpt lat="43.2977567" lon="10.87277"><ele>357.0</ele><time>2026-03-28T12:18:55.039Z</time></trkpt><trkpt lat="43.2978533" lon="10.87266"><ele>357.0</ele><time>2026-03-28T12:18:56.039Z</time></trkpt><trkpt lat="43.2979517" lon="10.872545"><ele>357.0</ele><time>2026-03-28T12:18:57.039Z</time></trkpt><trkpt lat="43.2980433" lon="10.8724283"><ele>357.0</ele><time>2026-03-28T12:18:58.038Z</time></trkpt><trkpt lat="43.2981367" lon="10.8723183"><ele>357.40000000000003</ele><time>2026-03-28T12:18:59.039Z</time></trkpt><trkpt lat="43.29822" lon="10.8722133"><ele>357.8</ele><time>2026-03-28T12:19:00.039Z</time></trkpt><trkpt lat="43.2982917" lon="10.8721267"><ele>358.2</ele><time>2026-03-28T12:19:01.039Z</time></trkpt><trkpt lat="43.2983583" lon="10.8720367"><ele>358.6</ele><time>2026-03-28T12:19:02.039Z</time></trkpt><trkpt lat="43.2984117" lon="10.8719683"><ele>359.0</ele><time>2026-03-28T12:19:03.039Z</time></trkpt><trkpt lat="43.2984917" lon="10.8718683"><ele>359.0</ele><time>2026-03-28T12:19:05.038Z</time></trkpt><trkpt lat="43.2985417" lon="10.8718133"><ele>359.0</ele><time>2026-03-28T12:19:07.039Z</time></trkpt><trkpt lat="43.2985883" lon="10.8717533"><ele>359.0</ele><time>2026-03-28T12:19:10.039Z</time></trkpt><trkpt lat="43.2986567" lon="10.8717083"><ele>359.0</ele><time>2026-03-28T12:19:13.039Z</time></trkpt><trkpt lat="43.298735" lon="10.871705"><ele>359.0</ele><time>2026-03-28T12:19:17.039Z</time></trkpt><trkpt lat="43.2988133" lon="10.8717767"><ele>359.0</ele><time>2026-03-28T12:19:29.039Z</time></trkpt><trkpt lat="43.2988633" lon="10.8718333"><ele>359.0</ele><time>2026-03-28T12:19:31.039Z</time></trkpt><trkpt lat="43.2988333" lon="10.8719567"><ele>359.0</ele><time>2026-03-28T12:19:41.039Z</time></trkpt><trkpt lat="43.2987583" lon="10.8720817"><ele>359.0</ele><time>2026-03-28T12:19:43.039Z</time></trkpt><trkpt lat="43.2987167" lon="10.872155"><ele>359.0</ele><time>2026-03-28T12:19:44.039Z</time></trkpt><trkpt lat="43.298685" lon="10.8722333"><ele>359.0</ele><time>2026-03-28T12:19:45.039Z</time></trkpt><trkpt lat="43.2986583" lon="10.8723233"><ele>359.0</ele><time>2026-03-28T12:19:46.039Z</time></trkpt><trkpt lat="43.2986733" lon="10.8724667"><ele>359.0</ele><time>2026-03-28T12:19:48.039Z</time></trkpt><trkpt lat="43.2987333" lon="10.8725617"><ele>359.0</ele><time>2026-03-28T12:19:50.039Z</time></trkpt></trkseg></trk></gpx>